<?xml version="1.0" encoding="UTF-8" standalone="no" ?>
<gpx xmlns="http://www.topografix.com/GPX/1/1" xmlns:xsi="http://www.w3.org/2001/XMLSchema-instance" xsi:schemaLocation="http://www.topografix.com/GPX/1/1 http://www.topografix.com/GPX/1/1/gpx.xsd" version="1.1" creator="VisuGPX - https://www.visugpx.com">
  <metadata>
    <name>Crête Sud , 1270m, de la Montagne de l'Aup ou de St-Genis, en 1/2 circuit + A/R, montée par Jubi et le faux Pas d'Arzeliers, descente par Porte Sereine, depuis Serre d'Astier; Lazer &amp; Garde-Colombe, Hautes-Alpes, mars 2022</name>
    <desc><![CDATA[Crête Sud , 1270m, de la Montagne de l'Aup ou de St-Genis, en 1/2 circuit + A/R, montée par Jubi et le faux Pas d'Arzeliers, descente par Porte Sereine, depuis Serre d'Astier; Lazer & Garde-Colombe, Hautes-Alpes.
Trace amputée du tracé du départ jusqu'à ce que je me rende compte que j'avais oublié de lancer mon enregistrement dans GPS Logger !
Selon l'enregistrement de l'Ours, la randonnée est de 13 km pour un dénivelé positif de 940 m.]]></desc>
  </metadata>
  <trk>
    <name><![CDATA[Tracé 20220322-090516]]></name>
    <trkseg>
      <trkpt lat="44.3661" lon="5.79674">
        <ele>817.786</ele>
        <time>2022-03-22T08:05:16Z</time>
      </trkpt>
      <trkpt lat="44.36609" lon="5.79674">
        <ele>817.486</ele>
        <time>2022-03-22T08:05:29Z</time>
      </trkpt>
      <trkpt lat="44.36608" lon="5.79674">
        <ele>817.587</ele>
        <time>2022-03-22T08:05:35Z</time>
      </trkpt>
      <trkpt lat="44.36608" lon="5.79674">
        <ele>817.687</ele>
        <time>2022-03-22T08:05:38Z</time>
      </trkpt>
      <trkpt lat="44.36608" lon="5.79674">
        <ele>817.787</ele>
        <time>2022-03-22T08:05:39Z</time>
      </trkpt>
      <trkpt lat="44.36608" lon="5.79673">
        <ele>817.987</ele>
        <time>2022-03-22T08:09:19Z</time>
      </trkpt>
      <trkpt lat="44.3661" lon="5.79675">
        <ele>820.986</ele>
        <time>2022-03-22T08:09:20Z</time>
      </trkpt>
      <trkpt lat="44.36611" lon="5.79676">
        <ele>820.586</ele>
        <time>2022-03-22T08:09:22Z</time>
      </trkpt>
      <trkpt lat="44.36611" lon="5.79678">
        <ele>820.486</ele>
        <time>2022-03-22T08:09:27Z</time>
      </trkpt>
      <trkpt lat="44.36611" lon="5.79679">
        <ele>820.286</ele>
        <time>2022-03-22T08:09:29Z</time>
      </trkpt>
      <trkpt lat="44.3661" lon="5.7968">
        <ele>820.186</ele>
        <time>2022-03-22T08:09:31Z</time>
      </trkpt>
      <trkpt lat="44.36611" lon="5.79682">
        <ele>820.386</ele>
        <time>2022-03-22T08:09:33Z</time>
      </trkpt>
      <trkpt lat="44.36611" lon="5.79683">
        <ele>820.786</ele>
        <time>2022-03-22T08:09:35Z</time>
      </trkpt>
      <trkpt lat="44.36611" lon="5.79685">
        <ele>821.086</ele>
        <time>2022-03-22T08:09:37Z</time>
      </trkpt>
      <trkpt lat="44.36611" lon="5.79687">
        <ele>821.586</ele>
        <time>2022-03-22T08:09:39Z</time>
      </trkpt>
      <trkpt lat="44.36611" lon="5.79688">
        <ele>821.786</ele>
        <time>2022-03-22T08:09:41Z</time>
      </trkpt>
      <trkpt lat="44.3661" lon="5.7969">
        <ele>822.286</ele>
        <time>2022-03-22T08:09:43Z</time>
      </trkpt>
      <trkpt lat="44.36608" lon="5.79691">
        <ele>822.686</ele>
        <time>2022-03-22T08:09:46Z</time>
      </trkpt>
      <trkpt lat="44.36608" lon="5.79692">
        <ele>822.886</ele>
        <time>2022-03-22T08:09:48Z</time>
      </trkpt>
      <trkpt lat="44.36608" lon="5.79694">
        <ele>823.386</ele>
        <time>2022-03-22T08:09:50Z</time>
      </trkpt>
      <trkpt lat="44.36608" lon="5.79696">
        <ele>823.986</ele>
        <time>2022-03-22T08:09:53Z</time>
      </trkpt>
      <trkpt lat="44.36608" lon="5.79698">
        <ele>823.886</ele>
        <time>2022-03-22T08:09:55Z</time>
      </trkpt>
      <trkpt lat="44.36608" lon="5.79699">
        <ele>824.086</ele>
        <time>2022-03-22T08:09:57Z</time>
      </trkpt>
      <trkpt lat="44.36607" lon="5.79701">
        <ele>824.786</ele>
        <time>2022-03-22T08:09:59Z</time>
      </trkpt>
      <trkpt lat="44.36607" lon="5.79703">
        <ele>824.886</ele>
        <time>2022-03-22T08:10:01Z</time>
      </trkpt>
      <trkpt lat="44.36607" lon="5.79705">
        <ele>824.886</ele>
        <time>2022-03-22T08:10:03Z</time>
      </trkpt>
      <trkpt lat="44.36607" lon="5.79706">
        <ele>825.686</ele>
        <time>2022-03-22T08:10:08Z</time>
      </trkpt>
      <trkpt lat="44.36607" lon="5.79708">
        <ele>826.186</ele>
        <time>2022-03-22T08:10:11Z</time>
      </trkpt>
      <trkpt lat="44.36607" lon="5.79708">
        <ele>826.186</ele>
        <time>2022-03-22T08:10:12Z</time>
      </trkpt>
      <trkpt lat="44.36607" lon="5.79709">
        <ele>826.386</ele>
        <time>2022-03-22T08:10:13Z</time>
      </trkpt>
      <trkpt lat="44.36607" lon="5.7971">
        <ele>826.386</ele>
        <time>2022-03-22T08:10:14Z</time>
      </trkpt>
      <trkpt lat="44.36607" lon="5.79711">
        <ele>826.286</ele>
        <time>2022-03-22T08:10:15Z</time>
      </trkpt>
      <trkpt lat="44.36607" lon="5.79711">
        <ele>826.486</ele>
        <time>2022-03-22T08:10:16Z</time>
      </trkpt>
      <trkpt lat="44.36607" lon="5.79712">
        <ele>826.586</ele>
        <time>2022-03-22T08:10:17Z</time>
      </trkpt>
      <trkpt lat="44.36606" lon="5.79712">
        <ele>826.986</ele>
        <time>2022-03-22T08:10:18Z</time>
      </trkpt>
      <trkpt lat="44.36607" lon="5.79713">
        <ele>827.186</ele>
        <time>2022-03-22T08:10:19Z</time>
      </trkpt>
      <trkpt lat="44.36607" lon="5.79714">
        <ele>827.186</ele>
        <time>2022-03-22T08:10:20Z</time>
      </trkpt>
      <trkpt lat="44.36607" lon="5.79715">
        <ele>827.186</ele>
        <time>2022-03-22T08:10:22Z</time>
      </trkpt>
      <trkpt lat="44.36608" lon="5.79715">
        <ele>827.286</ele>
        <time>2022-03-22T08:10:23Z</time>
      </trkpt>
      <trkpt lat="44.36608" lon="5.79716">
        <ele>827.286</ele>
        <time>2022-03-22T08:10:25Z</time>
      </trkpt>
      <trkpt lat="44.36609" lon="5.79718">
        <ele>827.286</ele>
        <time>2022-03-22T08:10:28Z</time>
      </trkpt>
      <trkpt lat="44.36609" lon="5.79719">
        <ele>827.586</ele>
        <time>2022-03-22T08:10:31Z</time>
      </trkpt>
      <trkpt lat="44.36609" lon="5.7972">
        <ele>828.386</ele>
        <time>2022-03-22T08:10:34Z</time>
      </trkpt>
      <trkpt lat="44.36609" lon="5.79721">
        <ele>828.386</ele>
        <time>2022-03-22T08:10:35Z</time>
      </trkpt>
      <trkpt lat="44.36609" lon="5.79722">
        <ele>828.186</ele>
        <time>2022-03-22T08:10:39Z</time>
      </trkpt>
      <trkpt lat="44.3661" lon="5.79724">
        <ele>828.286</ele>
        <time>2022-03-22T08:10:40Z</time>
      </trkpt>
      <trkpt lat="44.3661" lon="5.79724">
        <ele>828.086</ele>
        <time>2022-03-22T08:10:41Z</time>
      </trkpt>
      <trkpt lat="44.36611" lon="5.79725">
        <ele>827.886</ele>
        <time>2022-03-22T08:10:43Z</time>
      </trkpt>
      <trkpt lat="44.36611" lon="5.79725">
        <ele>828.086</ele>
        <time>2022-03-22T08:10:44Z</time>
      </trkpt>
      <trkpt lat="44.36611" lon="5.79726">
        <ele>828.286</ele>
        <time>2022-03-22T08:10:45Z</time>
      </trkpt>
      <trkpt lat="44.36611" lon="5.79727">
        <ele>828.186</ele>
        <time>2022-03-22T08:10:51Z</time>
      </trkpt>
      <trkpt lat="44.36612" lon="5.79728">
        <ele>829.086</ele>
        <time>2022-03-22T08:10:52Z</time>
      </trkpt>
      <trkpt lat="44.36612" lon="5.79729">
        <ele>829.286</ele>
        <time>2022-03-22T08:10:53Z</time>
      </trkpt>
      <trkpt lat="44.36613" lon="5.79731">
        <ele>829.486</ele>
        <time>2022-03-22T08:10:54Z</time>
      </trkpt>
      <trkpt lat="44.36613" lon="5.79732">
        <ele>829.786</ele>
        <time>2022-03-22T08:10:55Z</time>
      </trkpt>
      <trkpt lat="44.36613" lon="5.79734">
        <ele>829.986</ele>
        <time>2022-03-22T08:10:57Z</time>
      </trkpt>
      <trkpt lat="44.36613" lon="5.79736">
        <ele>830.286</ele>
        <time>2022-03-22T08:11:00Z</time>
      </trkpt>
      <trkpt lat="44.36613" lon="5.79738">
        <ele>830.786</ele>
        <time>2022-03-22T08:11:02Z</time>
      </trkpt>
      <trkpt lat="44.36613" lon="5.79739">
        <ele>831.086</ele>
        <time>2022-03-22T08:11:04Z</time>
      </trkpt>
      <trkpt lat="44.36613" lon="5.79742">
        <ele>831.286</ele>
        <time>2022-03-22T08:11:06Z</time>
      </trkpt>
      <trkpt lat="44.36614" lon="5.79743">
        <ele>831.686</ele>
        <time>2022-03-22T08:11:08Z</time>
      </trkpt>
      <trkpt lat="44.36614" lon="5.79745">
        <ele>831.886</ele>
        <time>2022-03-22T08:11:09Z</time>
      </trkpt>
      <trkpt lat="44.36614" lon="5.79746">
        <ele>832.486</ele>
        <time>2022-03-22T08:11:11Z</time>
      </trkpt>
      <trkpt lat="44.36615" lon="5.79748">
        <ele>832.986</ele>
        <time>2022-03-22T08:11:13Z</time>
      </trkpt>
      <trkpt lat="44.36615" lon="5.7975">
        <ele>833.686</ele>
        <time>2022-03-22T08:11:15Z</time>
      </trkpt>
      <trkpt lat="44.36615" lon="5.79752">
        <ele>833.786</ele>
        <time>2022-03-22T08:11:17Z</time>
      </trkpt>
      <trkpt lat="44.36616" lon="5.79754">
        <ele>833.886</ele>
        <time>2022-03-22T08:11:19Z</time>
      </trkpt>
      <trkpt lat="44.36616" lon="5.79756">
        <ele>833.786</ele>
        <time>2022-03-22T08:11:20Z</time>
      </trkpt>
      <trkpt lat="44.36616" lon="5.79758">
        <ele>833.685</ele>
        <time>2022-03-22T08:11:22Z</time>
      </trkpt>
      <trkpt lat="44.36616" lon="5.7976">
        <ele>833.685</ele>
        <time>2022-03-22T08:11:24Z</time>
      </trkpt>
      <trkpt lat="44.36617" lon="5.79762">
        <ele>833.985</ele>
        <time>2022-03-22T08:11:26Z</time>
      </trkpt>
      <trkpt lat="44.36617" lon="5.79763">
        <ele>834.085</ele>
        <time>2022-03-22T08:11:28Z</time>
      </trkpt>
      <trkpt lat="44.36619" lon="5.79764">
        <ele>833.885</ele>
        <time>2022-03-22T08:11:30Z</time>
      </trkpt>
      <trkpt lat="44.3662" lon="5.79764">
        <ele>834.385</ele>
        <time>2022-03-22T08:11:31Z</time>
      </trkpt>
      <trkpt lat="44.3662" lon="5.79766">
        <ele>834.485</ele>
        <time>2022-03-22T08:11:32Z</time>
      </trkpt>
      <trkpt lat="44.36621" lon="5.79767">
        <ele>834.585</ele>
        <time>2022-03-22T08:11:33Z</time>
      </trkpt>
      <trkpt lat="44.36622" lon="5.79768">
        <ele>834.185</ele>
        <time>2022-03-22T08:11:37Z</time>
      </trkpt>
      <trkpt lat="44.36622" lon="5.79769">
        <ele>834.085</ele>
        <time>2022-03-22T08:11:40Z</time>
      </trkpt>
      <trkpt lat="44.36623" lon="5.79769">
        <ele>834.185</ele>
        <time>2022-03-22T08:11:41Z</time>
      </trkpt>
      <trkpt lat="44.36624" lon="5.79771">
        <ele>834.285</ele>
        <time>2022-03-22T08:11:43Z</time>
      </trkpt>
      <trkpt lat="44.36625" lon="5.79772">
        <ele>834.485</ele>
        <time>2022-03-22T08:11:44Z</time>
      </trkpt>
      <trkpt lat="44.36625" lon="5.79774">
        <ele>834.585</ele>
        <time>2022-03-22T08:11:45Z</time>
      </trkpt>
      <trkpt lat="44.36626" lon="5.79776">
        <ele>834.885</ele>
        <time>2022-03-22T08:11:47Z</time>
      </trkpt>
      <trkpt lat="44.36627" lon="5.79777">
        <ele>835.285</ele>
        <time>2022-03-22T08:11:49Z</time>
      </trkpt>
      <trkpt lat="44.36628" lon="5.79778">
        <ele>835.485</ele>
        <time>2022-03-22T08:11:51Z</time>
      </trkpt>
      <trkpt lat="44.36628" lon="5.79779">
        <ele>835.485</ele>
        <time>2022-03-22T08:11:52Z</time>
      </trkpt>
      <trkpt lat="44.36629" lon="5.79781">
        <ele>835.785</ele>
        <time>2022-03-22T08:11:54Z</time>
      </trkpt>
      <trkpt lat="44.3663" lon="5.79782">
        <ele>835.885</ele>
        <time>2022-03-22T08:11:55Z</time>
      </trkpt>
      <trkpt lat="44.36631" lon="5.79784">
        <ele>835.985</ele>
        <time>2022-03-22T08:11:56Z</time>
      </trkpt>
      <trkpt lat="44.36631" lon="5.79786">
        <ele>836.385</ele>
        <time>2022-03-22T08:11:58Z</time>
      </trkpt>
      <trkpt lat="44.36632" lon="5.79787">
        <ele>836.685</ele>
        <time>2022-03-22T08:12:00Z</time>
      </trkpt>
      <trkpt lat="44.36633" lon="5.79789">
        <ele>837.185</ele>
        <time>2022-03-22T08:12:02Z</time>
      </trkpt>
      <trkpt lat="44.36634" lon="5.7979">
        <ele>837.285</ele>
        <time>2022-03-22T08:12:03Z</time>
      </trkpt>
      <trkpt lat="44.36634" lon="5.79791">
        <ele>837.385</ele>
        <time>2022-03-22T08:12:04Z</time>
      </trkpt>
      <trkpt lat="44.36635" lon="5.79793">
        <ele>837.485</ele>
        <time>2022-03-22T08:12:05Z</time>
      </trkpt>
      <trkpt lat="44.36636" lon="5.79794">
        <ele>837.685</ele>
        <time>2022-03-22T08:12:06Z</time>
      </trkpt>
      <trkpt lat="44.36637" lon="5.79796">
        <ele>838.085</ele>
        <time>2022-03-22T08:12:08Z</time>
      </trkpt>
      <trkpt lat="44.36638" lon="5.79798">
        <ele>838.185</ele>
        <time>2022-03-22T08:12:09Z</time>
      </trkpt>
      <trkpt lat="44.36638" lon="5.79799">
        <ele>838.185</ele>
        <time>2022-03-22T08:12:10Z</time>
      </trkpt>
      <trkpt lat="44.36639" lon="5.798">
        <ele>838.485</ele>
        <time>2022-03-22T08:12:11Z</time>
      </trkpt>
      <trkpt lat="44.3664" lon="5.79802">
        <ele>838.784</ele>
        <time>2022-03-22T08:12:12Z</time>
      </trkpt>
      <trkpt lat="44.36641" lon="5.79803">
        <ele>838.884</ele>
        <time>2022-03-22T08:12:13Z</time>
      </trkpt>
      <trkpt lat="44.36641" lon="5.79804">
        <ele>838.784</ele>
        <time>2022-03-22T08:12:14Z</time>
      </trkpt>
      <trkpt lat="44.36641" lon="5.79806">
        <ele>838.884</ele>
        <time>2022-03-22T08:12:15Z</time>
      </trkpt>
      <trkpt lat="44.36642" lon="5.79808">
        <ele>838.584</ele>
        <time>2022-03-22T08:12:16Z</time>
      </trkpt>
      <trkpt lat="44.36642" lon="5.7981">
        <ele>838.684</ele>
        <time>2022-03-22T08:12:18Z</time>
      </trkpt>
      <trkpt lat="44.36642" lon="5.79812">
        <ele>838.184</ele>
        <time>2022-03-22T08:12:20Z</time>
      </trkpt>
      <trkpt lat="44.36643" lon="5.79814">
        <ele>838.384</ele>
        <time>2022-03-22T08:12:22Z</time>
      </trkpt>
      <trkpt lat="44.36643" lon="5.79815">
        <ele>838.184</ele>
        <time>2022-03-22T08:12:23Z</time>
      </trkpt>
      <trkpt lat="44.36644" lon="5.79816">
        <ele>838.384</ele>
        <time>2022-03-22T08:12:24Z</time>
      </trkpt>
      <trkpt lat="44.36644" lon="5.79817">
        <ele>838.384</ele>
        <time>2022-03-22T08:12:25Z</time>
      </trkpt>
      <trkpt lat="44.36644" lon="5.7982">
        <ele>838.384</ele>
        <time>2022-03-22T08:12:27Z</time>
      </trkpt>
      <trkpt lat="44.36644" lon="5.79821">
        <ele>838.384</ele>
        <time>2022-03-22T08:12:28Z</time>
      </trkpt>
      <trkpt lat="44.36644" lon="5.79823">
        <ele>838.784</ele>
        <time>2022-03-22T08:12:30Z</time>
      </trkpt>
      <trkpt lat="44.36644" lon="5.79825">
        <ele>839.084</ele>
        <time>2022-03-22T08:12:31Z</time>
      </trkpt>
      <trkpt lat="44.36644" lon="5.79826">
        <ele>839.284</ele>
        <time>2022-03-22T08:12:32Z</time>
      </trkpt>
      <trkpt lat="44.36644" lon="5.79828">
        <ele>839.384</ele>
        <time>2022-03-22T08:12:33Z</time>
      </trkpt>
      <trkpt lat="44.36644" lon="5.79829">
        <ele>839.384</ele>
        <time>2022-03-22T08:12:34Z</time>
      </trkpt>
      <trkpt lat="44.36644" lon="5.79831">
        <ele>839.084</ele>
        <time>2022-03-22T08:12:36Z</time>
      </trkpt>
      <trkpt lat="44.36644" lon="5.79833">
        <ele>839.084</ele>
        <time>2022-03-22T08:12:37Z</time>
      </trkpt>
      <trkpt lat="44.36644" lon="5.79834">
        <ele>838.884</ele>
        <time>2022-03-22T08:12:38Z</time>
      </trkpt>
      <trkpt lat="44.36644" lon="5.79836">
        <ele>838.884</ele>
        <time>2022-03-22T08:12:39Z</time>
      </trkpt>
      <trkpt lat="44.36643" lon="5.79837">
        <ele>838.884</ele>
        <time>2022-03-22T08:12:40Z</time>
      </trkpt>
      <trkpt lat="44.36643" lon="5.79839">
        <ele>839.084</ele>
        <time>2022-03-22T08:12:41Z</time>
      </trkpt>
      <trkpt lat="44.36643" lon="5.7984">
        <ele>839.484</ele>
        <time>2022-03-22T08:12:43Z</time>
      </trkpt>
      <trkpt lat="44.36644" lon="5.79842">
        <ele>839.584</ele>
        <time>2022-03-22T08:12:45Z</time>
      </trkpt>
      <trkpt lat="44.36645" lon="5.79844">
        <ele>839.884</ele>
        <time>2022-03-22T08:12:47Z</time>
      </trkpt>
      <trkpt lat="44.36645" lon="5.79845">
        <ele>840.184</ele>
        <time>2022-03-22T08:12:48Z</time>
      </trkpt>
      <trkpt lat="44.36646" lon="5.79848">
        <ele>840.584</ele>
        <time>2022-03-22T08:12:50Z</time>
      </trkpt>
      <trkpt lat="44.36647" lon="5.7985">
        <ele>840.784</ele>
        <time>2022-03-22T08:12:52Z</time>
      </trkpt>
      <trkpt lat="44.36648" lon="5.79851">
        <ele>841.384</ele>
        <time>2022-03-22T08:12:54Z</time>
      </trkpt>
      <trkpt lat="44.36649" lon="5.79853">
        <ele>842.284</ele>
        <time>2022-03-22T08:12:56Z</time>
      </trkpt>
      <trkpt lat="44.36649" lon="5.79854">
        <ele>842.084</ele>
        <time>2022-03-22T08:12:57Z</time>
      </trkpt>
      <trkpt lat="44.3665" lon="5.79856">
        <ele>842.184</ele>
        <time>2022-03-22T08:12:59Z</time>
      </trkpt>
      <trkpt lat="44.36651" lon="5.79857">
        <ele>842.484</ele>
        <time>2022-03-22T08:13:00Z</time>
      </trkpt>
      <trkpt lat="44.36651" lon="5.79858">
        <ele>842.784</ele>
        <time>2022-03-22T08:13:01Z</time>
      </trkpt>
      <trkpt lat="44.36652" lon="5.7986">
        <ele>843.284</ele>
        <time>2022-03-22T08:13:03Z</time>
      </trkpt>
      <trkpt lat="44.36653" lon="5.79862">
        <ele>843.684</ele>
        <time>2022-03-22T08:13:05Z</time>
      </trkpt>
      <trkpt lat="44.36653" lon="5.79863">
        <ele>843.684</ele>
        <time>2022-03-22T08:13:07Z</time>
      </trkpt>
      <trkpt lat="44.36654" lon="5.79866">
        <ele>843.883</ele>
        <time>2022-03-22T08:13:09Z</time>
      </trkpt>
      <trkpt lat="44.36655" lon="5.79868">
        <ele>843.883</ele>
        <time>2022-03-22T08:13:10Z</time>
      </trkpt>
      <trkpt lat="44.36655" lon="5.79869">
        <ele>843.883</ele>
        <time>2022-03-22T08:13:11Z</time>
      </trkpt>
      <trkpt lat="44.36656" lon="5.7987">
        <ele>843.883</ele>
        <time>2022-03-22T08:13:12Z</time>
      </trkpt>
      <trkpt lat="44.36656" lon="5.79872">
        <ele>844.083</ele>
        <time>2022-03-22T08:13:13Z</time>
      </trkpt>
      <trkpt lat="44.36656" lon="5.79874">
        <ele>844.083</ele>
        <time>2022-03-22T08:13:14Z</time>
      </trkpt>
      <trkpt lat="44.36657" lon="5.79875">
        <ele>843.883</ele>
        <time>2022-03-22T08:13:15Z</time>
      </trkpt>
      <trkpt lat="44.36657" lon="5.79876">
        <ele>844.183</ele>
        <time>2022-03-22T08:13:16Z</time>
      </trkpt>
      <trkpt lat="44.36658" lon="5.79877">
        <ele>844.483</ele>
        <time>2022-03-22T08:13:17Z</time>
      </trkpt>
      <trkpt lat="44.36658" lon="5.79879">
        <ele>844.983</ele>
        <time>2022-03-22T08:13:18Z</time>
      </trkpt>
      <trkpt lat="44.36659" lon="5.7988">
        <ele>845.383</ele>
        <time>2022-03-22T08:13:20Z</time>
      </trkpt>
      <trkpt lat="44.36659" lon="5.79882">
        <ele>845.583</ele>
        <time>2022-03-22T08:13:21Z</time>
      </trkpt>
      <trkpt lat="44.36659" lon="5.79885">
        <ele>846.083</ele>
        <time>2022-03-22T08:13:23Z</time>
      </trkpt>
      <trkpt lat="44.3666" lon="5.79886">
        <ele>846.183</ele>
        <time>2022-03-22T08:13:24Z</time>
      </trkpt>
      <trkpt lat="44.3666" lon="5.79888">
        <ele>846.283</ele>
        <time>2022-03-22T08:13:25Z</time>
      </trkpt>
      <trkpt lat="44.3666" lon="5.7989">
        <ele>846.283</ele>
        <time>2022-03-22T08:13:26Z</time>
      </trkpt>
      <trkpt lat="44.36661" lon="5.79891">
        <ele>846.183</ele>
        <time>2022-03-22T08:13:27Z</time>
      </trkpt>
      <trkpt lat="44.3666" lon="5.79892">
        <ele>846.183</ele>
        <time>2022-03-22T08:13:28Z</time>
      </trkpt>
      <trkpt lat="44.3666" lon="5.79894">
        <ele>846.083</ele>
        <time>2022-03-22T08:13:29Z</time>
      </trkpt>
      <trkpt lat="44.3666" lon="5.79896">
        <ele>845.883</ele>
        <time>2022-03-22T08:13:30Z</time>
      </trkpt>
      <trkpt lat="44.3666" lon="5.79897">
        <ele>845.983</ele>
        <time>2022-03-22T08:13:31Z</time>
      </trkpt>
      <trkpt lat="44.3666" lon="5.79899">
        <ele>846.183</ele>
        <time>2022-03-22T08:13:32Z</time>
      </trkpt>
      <trkpt lat="44.36661" lon="5.79901">
        <ele>846.183</ele>
        <time>2022-03-22T08:13:33Z</time>
      </trkpt>
      <trkpt lat="44.36661" lon="5.79903">
        <ele>846.283</ele>
        <time>2022-03-22T08:13:34Z</time>
      </trkpt>
      <trkpt lat="44.36661" lon="5.79905">
        <ele>846.483</ele>
        <time>2022-03-22T08:13:35Z</time>
      </trkpt>
      <trkpt lat="44.36661" lon="5.79906">
        <ele>846.583</ele>
        <time>2022-03-22T08:13:36Z</time>
      </trkpt>
      <trkpt lat="44.36661" lon="5.79908">
        <ele>846.483</ele>
        <time>2022-03-22T08:13:37Z</time>
      </trkpt>
      <trkpt lat="44.36661" lon="5.79909">
        <ele>846.383</ele>
        <time>2022-03-22T08:13:38Z</time>
      </trkpt>
      <trkpt lat="44.36662" lon="5.79911">
        <ele>846.383</ele>
        <time>2022-03-22T08:13:39Z</time>
      </trkpt>
      <trkpt lat="44.36662" lon="5.79913">
        <ele>846.383</ele>
        <time>2022-03-22T08:13:40Z</time>
      </trkpt>
      <trkpt lat="44.36662" lon="5.79915">
        <ele>846.183</ele>
        <time>2022-03-22T08:13:41Z</time>
      </trkpt>
      <trkpt lat="44.36662" lon="5.79916">
        <ele>846.283</ele>
        <time>2022-03-22T08:13:42Z</time>
      </trkpt>
      <trkpt lat="44.36663" lon="5.79918">
        <ele>846.183</ele>
        <time>2022-03-22T08:13:43Z</time>
      </trkpt>
      <trkpt lat="44.36662" lon="5.7992">
        <ele>846.083</ele>
        <time>2022-03-22T08:13:44Z</time>
      </trkpt>
      <trkpt lat="44.36663" lon="5.79921">
        <ele>845.883</ele>
        <time>2022-03-22T08:13:45Z</time>
      </trkpt>
      <trkpt lat="44.36663" lon="5.79923">
        <ele>845.683</ele>
        <time>2022-03-22T08:13:46Z</time>
      </trkpt>
      <trkpt lat="44.36664" lon="5.79925">
        <ele>845.183</ele>
        <time>2022-03-22T08:13:48Z</time>
      </trkpt>
      <trkpt lat="44.36664" lon="5.79928">
        <ele>844.683</ele>
        <time>2022-03-22T08:13:50Z</time>
      </trkpt>
      <trkpt lat="44.36664" lon="5.79929">
        <ele>844.383</ele>
        <time>2022-03-22T08:13:51Z</time>
      </trkpt>
      <trkpt lat="44.36665" lon="5.79931">
        <ele>844.283</ele>
        <time>2022-03-22T08:13:52Z</time>
      </trkpt>
      <trkpt lat="44.36664" lon="5.79932">
        <ele>844.283</ele>
        <time>2022-03-22T08:13:53Z</time>
      </trkpt>
      <trkpt lat="44.36664" lon="5.79934">
        <ele>844.583</ele>
        <time>2022-03-22T08:13:54Z</time>
      </trkpt>
      <trkpt lat="44.36664" lon="5.79936">
        <ele>844.783</ele>
        <time>2022-03-22T08:13:55Z</time>
      </trkpt>
      <trkpt lat="44.36664" lon="5.79938">
        <ele>844.783</ele>
        <time>2022-03-22T08:13:56Z</time>
      </trkpt>
      <trkpt lat="44.36664" lon="5.79939">
        <ele>844.583</ele>
        <time>2022-03-22T08:13:57Z</time>
      </trkpt>
      <trkpt lat="44.36664" lon="5.79941">
        <ele>844.383</ele>
        <time>2022-03-22T08:13:58Z</time>
      </trkpt>
      <trkpt lat="44.36664" lon="5.79942">
        <ele>844.083</ele>
        <time>2022-03-22T08:13:59Z</time>
      </trkpt>
      <trkpt lat="44.36664" lon="5.79944">
        <ele>844.082</ele>
        <time>2022-03-22T08:14:00Z</time>
      </trkpt>
      <trkpt lat="44.36663" lon="5.79945">
        <ele>844.282</ele>
        <time>2022-03-22T08:14:01Z</time>
      </trkpt>
      <trkpt lat="44.36663" lon="5.79947">
        <ele>844.482</ele>
        <time>2022-03-22T08:14:02Z</time>
      </trkpt>
      <trkpt lat="44.36663" lon="5.79948">
        <ele>844.482</ele>
        <time>2022-03-22T08:14:03Z</time>
      </trkpt>
      <trkpt lat="44.36663" lon="5.7995">
        <ele>844.382</ele>
        <time>2022-03-22T08:14:04Z</time>
      </trkpt>
      <trkpt lat="44.36663" lon="5.79951">
        <ele>844.382</ele>
        <time>2022-03-22T08:14:05Z</time>
      </trkpt>
      <trkpt lat="44.36663" lon="5.79952">
        <ele>844.582</ele>
        <time>2022-03-22T08:14:06Z</time>
      </trkpt>
      <trkpt lat="44.36663" lon="5.79954">
        <ele>844.582</ele>
        <time>2022-03-22T08:14:07Z</time>
      </trkpt>
      <trkpt lat="44.36663" lon="5.79955">
        <ele>844.482</ele>
        <time>2022-03-22T08:14:08Z</time>
      </trkpt>
      <trkpt lat="44.36663" lon="5.79957">
        <ele>844.582</ele>
        <time>2022-03-22T08:14:09Z</time>
      </trkpt>
      <trkpt lat="44.36663" lon="5.79958">
        <ele>844.682</ele>
        <time>2022-03-22T08:14:10Z</time>
      </trkpt>
      <trkpt lat="44.36663" lon="5.79961">
        <ele>844.582</ele>
        <time>2022-03-22T08:14:12Z</time>
      </trkpt>
      <trkpt lat="44.36663" lon="5.79962">
        <ele>844.582</ele>
        <time>2022-03-22T08:14:13Z</time>
      </trkpt>
      <trkpt lat="44.36663" lon="5.79963">
        <ele>844.482</ele>
        <time>2022-03-22T08:14:14Z</time>
      </trkpt>
      <trkpt lat="44.36664" lon="5.79965">
        <ele>844.482</ele>
        <time>2022-03-22T08:14:15Z</time>
      </trkpt>
      <trkpt lat="44.36664" lon="5.79967">
        <ele>844.482</ele>
        <time>2022-03-22T08:14:16Z</time>
      </trkpt>
      <trkpt lat="44.36664" lon="5.79968">
        <ele>844.582</ele>
        <time>2022-03-22T08:14:17Z</time>
      </trkpt>
      <trkpt lat="44.36664" lon="5.7997">
        <ele>844.482</ele>
        <time>2022-03-22T08:14:18Z</time>
      </trkpt>
      <trkpt lat="44.36664" lon="5.79972">
        <ele>844.482</ele>
        <time>2022-03-22T08:14:19Z</time>
      </trkpt>
      <trkpt lat="44.36664" lon="5.79974">
        <ele>844.182</ele>
        <time>2022-03-22T08:14:20Z</time>
      </trkpt>
      <trkpt lat="44.36664" lon="5.79976">
        <ele>844.082</ele>
        <time>2022-03-22T08:14:21Z</time>
      </trkpt>
      <trkpt lat="44.36664" lon="5.79977">
        <ele>843.882</ele>
        <time>2022-03-22T08:14:22Z</time>
      </trkpt>
      <trkpt lat="44.36664" lon="5.79979">
        <ele>843.682</ele>
        <time>2022-03-22T08:14:23Z</time>
      </trkpt>
      <trkpt lat="44.36664" lon="5.79982">
        <ele>843.282</ele>
        <time>2022-03-22T08:14:24Z</time>
      </trkpt>
      <trkpt lat="44.36664" lon="5.79984">
        <ele>843.182</ele>
        <time>2022-03-22T08:14:25Z</time>
      </trkpt>
      <trkpt lat="44.36664" lon="5.79985">
        <ele>843.082</ele>
        <time>2022-03-22T08:14:26Z</time>
      </trkpt>
      <trkpt lat="44.36663" lon="5.79987">
        <ele>842.982</ele>
        <time>2022-03-22T08:14:27Z</time>
      </trkpt>
      <trkpt lat="44.36663" lon="5.79989">
        <ele>842.882</ele>
        <time>2022-03-22T08:14:28Z</time>
      </trkpt>
      <trkpt lat="44.36663" lon="5.79991">
        <ele>842.782</ele>
        <time>2022-03-22T08:14:29Z</time>
      </trkpt>
      <trkpt lat="44.36663" lon="5.79992">
        <ele>842.782</ele>
        <time>2022-03-22T08:14:30Z</time>
      </trkpt>
      <trkpt lat="44.36663" lon="5.79993">
        <ele>842.582</ele>
        <time>2022-03-22T08:14:31Z</time>
      </trkpt>
      <trkpt lat="44.36663" lon="5.79995">
        <ele>842.482</ele>
        <time>2022-03-22T08:14:32Z</time>
      </trkpt>
      <trkpt lat="44.36663" lon="5.79996">
        <ele>842.382</ele>
        <time>2022-03-22T08:14:33Z</time>
      </trkpt>
      <trkpt lat="44.36663" lon="5.79998">
        <ele>842.282</ele>
        <time>2022-03-22T08:14:34Z</time>
      </trkpt>
      <trkpt lat="44.36664" lon="5.79999">
        <ele>842.182</ele>
        <time>2022-03-22T08:14:35Z</time>
      </trkpt>
      <trkpt lat="44.36664" lon="5.80001">
        <ele>841.982</ele>
        <time>2022-03-22T08:14:36Z</time>
      </trkpt>
      <trkpt lat="44.36664" lon="5.80002">
        <ele>841.982</ele>
        <time>2022-03-22T08:14:37Z</time>
      </trkpt>
      <trkpt lat="44.36665" lon="5.80004">
        <ele>841.882</ele>
        <time>2022-03-22T08:14:38Z</time>
      </trkpt>
      <trkpt lat="44.36665" lon="5.80006">
        <ele>841.982</ele>
        <time>2022-03-22T08:14:39Z</time>
      </trkpt>
      <trkpt lat="44.36666" lon="5.80007">
        <ele>841.982</ele>
        <time>2022-03-22T08:14:40Z</time>
      </trkpt>
      <trkpt lat="44.36667" lon="5.80008">
        <ele>841.982</ele>
        <time>2022-03-22T08:14:41Z</time>
      </trkpt>
      <trkpt lat="44.36668" lon="5.80008">
        <ele>841.982</ele>
        <time>2022-03-22T08:14:42Z</time>
      </trkpt>
      <trkpt lat="44.36669" lon="5.80009">
        <ele>841.882</ele>
        <time>2022-03-22T08:14:43Z</time>
      </trkpt>
      <trkpt lat="44.36671" lon="5.8001">
        <ele>841.882</ele>
        <time>2022-03-22T08:14:44Z</time>
      </trkpt>
      <trkpt lat="44.36672" lon="5.8001">
        <ele>841.782</ele>
        <time>2022-03-22T08:14:45Z</time>
      </trkpt>
      <trkpt lat="44.36673" lon="5.80011">
        <ele>841.882</ele>
        <time>2022-03-22T08:14:46Z</time>
      </trkpt>
      <trkpt lat="44.36674" lon="5.80013">
        <ele>841.882</ele>
        <time>2022-03-22T08:14:47Z</time>
      </trkpt>
      <trkpt lat="44.36675" lon="5.80014">
        <ele>841.782</ele>
        <time>2022-03-22T08:14:48Z</time>
      </trkpt>
      <trkpt lat="44.36675" lon="5.80016">
        <ele>841.782</ele>
        <time>2022-03-22T08:14:49Z</time>
      </trkpt>
      <trkpt lat="44.36676" lon="5.80017">
        <ele>841.681</ele>
        <time>2022-03-22T08:14:50Z</time>
      </trkpt>
      <trkpt lat="44.36677" lon="5.80017">
        <ele>841.481</ele>
        <time>2022-03-22T08:14:51Z</time>
      </trkpt>
      <trkpt lat="44.36678" lon="5.80019">
        <ele>841.081</ele>
        <time>2022-03-22T08:14:52Z</time>
      </trkpt>
      <trkpt lat="44.36679" lon="5.8002">
        <ele>840.881</ele>
        <time>2022-03-22T08:14:53Z</time>
      </trkpt>
      <trkpt lat="44.3668" lon="5.80021">
        <ele>840.781</ele>
        <time>2022-03-22T08:14:54Z</time>
      </trkpt>
      <trkpt lat="44.36681" lon="5.80022">
        <ele>840.781</ele>
        <time>2022-03-22T08:14:55Z</time>
      </trkpt>
      <trkpt lat="44.36682" lon="5.80023">
        <ele>840.481</ele>
        <time>2022-03-22T08:14:56Z</time>
      </trkpt>
      <trkpt lat="44.36683" lon="5.80024">
        <ele>840.281</ele>
        <time>2022-03-22T08:14:57Z</time>
      </trkpt>
      <trkpt lat="44.36683" lon="5.80025">
        <ele>840.281</ele>
        <time>2022-03-22T08:14:58Z</time>
      </trkpt>
      <trkpt lat="44.36684" lon="5.80026">
        <ele>840.081</ele>
        <time>2022-03-22T08:14:59Z</time>
      </trkpt>
      <trkpt lat="44.36685" lon="5.80028">
        <ele>840.181</ele>
        <time>2022-03-22T08:15:00Z</time>
      </trkpt>
      <trkpt lat="44.36685" lon="5.80029">
        <ele>839.781</ele>
        <time>2022-03-22T08:15:01Z</time>
      </trkpt>
      <trkpt lat="44.36686" lon="5.8003">
        <ele>839.581</ele>
        <time>2022-03-22T08:15:02Z</time>
      </trkpt>
      <trkpt lat="44.36687" lon="5.8003">
        <ele>839.381</ele>
        <time>2022-03-22T08:15:03Z</time>
      </trkpt>
      <trkpt lat="44.36688" lon="5.80031">
        <ele>839.181</ele>
        <time>2022-03-22T08:15:04Z</time>
      </trkpt>
      <trkpt lat="44.36689" lon="5.80032">
        <ele>839.181</ele>
        <time>2022-03-22T08:15:05Z</time>
      </trkpt>
      <trkpt lat="44.3669" lon="5.80033">
        <ele>838.481</ele>
        <time>2022-03-22T08:15:07Z</time>
      </trkpt>
      <trkpt lat="44.36691" lon="5.80033">
        <ele>838.181</ele>
        <time>2022-03-22T08:15:08Z</time>
      </trkpt>
      <trkpt lat="44.36693" lon="5.80034">
        <ele>837.681</ele>
        <time>2022-03-22T08:15:10Z</time>
      </trkpt>
      <trkpt lat="44.36694" lon="5.80034">
        <ele>837.481</ele>
        <time>2022-03-22T08:15:11Z</time>
      </trkpt>
      <trkpt lat="44.36695" lon="5.80036">
        <ele>837.181</ele>
        <time>2022-03-22T08:15:13Z</time>
      </trkpt>
      <trkpt lat="44.36696" lon="5.80036">
        <ele>836.681</ele>
        <time>2022-03-22T08:15:15Z</time>
      </trkpt>
      <trkpt lat="44.36697" lon="5.80037">
        <ele>836.281</ele>
        <time>2022-03-22T08:15:16Z</time>
      </trkpt>
      <trkpt lat="44.36698" lon="5.80038">
        <ele>835.881</ele>
        <time>2022-03-22T08:15:17Z</time>
      </trkpt>
      <trkpt lat="44.36699" lon="5.80039">
        <ele>835.581</ele>
        <time>2022-03-22T08:15:18Z</time>
      </trkpt>
      <trkpt lat="44.36699" lon="5.80041">
        <ele>835.381</ele>
        <time>2022-03-22T08:15:19Z</time>
      </trkpt>
      <trkpt lat="44.367" lon="5.80043">
        <ele>835.181</ele>
        <time>2022-03-22T08:15:21Z</time>
      </trkpt>
      <trkpt lat="44.36699" lon="5.80045">
        <ele>834.981</ele>
        <time>2022-03-22T08:15:23Z</time>
      </trkpt>
      <trkpt lat="44.36698" lon="5.80047">
        <ele>835.081</ele>
        <time>2022-03-22T08:15:25Z</time>
      </trkpt>
      <trkpt lat="44.36698" lon="5.80048">
        <ele>835.081</ele>
        <time>2022-03-22T08:15:26Z</time>
      </trkpt>
      <trkpt lat="44.36697" lon="5.80049">
        <ele>835.081</ele>
        <time>2022-03-22T08:15:27Z</time>
      </trkpt>
      <trkpt lat="44.36697" lon="5.8005">
        <ele>835.081</ele>
        <time>2022-03-22T08:15:28Z</time>
      </trkpt>
      <trkpt lat="44.36696" lon="5.8005">
        <ele>835.081</ele>
        <time>2022-03-22T08:15:29Z</time>
      </trkpt>
      <trkpt lat="44.36695" lon="5.80052">
        <ele>834.481</ele>
        <time>2022-03-22T08:15:31Z</time>
      </trkpt>
      <trkpt lat="44.36693" lon="5.80054">
        <ele>833.881</ele>
        <time>2022-03-22T08:15:33Z</time>
      </trkpt>
      <trkpt lat="44.36692" lon="5.80056">
        <ele>833.281</ele>
        <time>2022-03-22T08:15:35Z</time>
      </trkpt>
      <trkpt lat="44.36691" lon="5.80057">
        <ele>832.981</ele>
        <time>2022-03-22T08:15:36Z</time>
      </trkpt>
      <trkpt lat="44.36691" lon="5.80058">
        <ele>832.981</ele>
        <time>2022-03-22T08:15:37Z</time>
      </trkpt>
      <trkpt lat="44.3669" lon="5.8006">
        <ele>832.581</ele>
        <time>2022-03-22T08:15:38Z</time>
      </trkpt>
      <trkpt lat="44.36689" lon="5.80061">
        <ele>832.281</ele>
        <time>2022-03-22T08:15:39Z</time>
      </trkpt>
      <trkpt lat="44.36689" lon="5.80063">
        <ele>832.281</ele>
        <time>2022-03-22T08:15:40Z</time>
      </trkpt>
      <trkpt lat="44.36689" lon="5.80065">
        <ele>832.281</ele>
        <time>2022-03-22T08:15:41Z</time>
      </trkpt>
      <trkpt lat="44.36688" lon="5.80066">
        <ele>832.381</ele>
        <time>2022-03-22T08:15:42Z</time>
      </trkpt>
      <trkpt lat="44.36688" lon="5.80069">
        <ele>833.181</ele>
        <time>2022-03-22T08:15:44Z</time>
      </trkpt>
      <trkpt lat="44.36687" lon="5.8007">
        <ele>833.181</ele>
        <time>2022-03-22T08:15:45Z</time>
      </trkpt>
      <trkpt lat="44.36686" lon="5.80072">
        <ele>833.081</ele>
        <time>2022-03-22T08:15:47Z</time>
      </trkpt>
      <trkpt lat="44.36685" lon="5.80073">
        <ele>833.081</ele>
        <time>2022-03-22T08:15:48Z</time>
      </trkpt>
      <trkpt lat="44.36684" lon="5.80075">
        <ele>833.181</ele>
        <time>2022-03-22T08:15:49Z</time>
      </trkpt>
      <trkpt lat="44.36683" lon="5.80077">
        <ele>833.181</ele>
        <time>2022-03-22T08:15:51Z</time>
      </trkpt>
      <trkpt lat="44.36683" lon="5.80078">
        <ele>833.181</ele>
        <time>2022-03-22T08:15:52Z</time>
      </trkpt>
      <trkpt lat="44.36683" lon="5.8008">
        <ele>832.981</ele>
        <time>2022-03-22T08:15:53Z</time>
      </trkpt>
      <trkpt lat="44.36682" lon="5.80081">
        <ele>832.781</ele>
        <time>2022-03-22T08:15:54Z</time>
      </trkpt>
      <trkpt lat="44.36682" lon="5.80083">
        <ele>832.681</ele>
        <time>2022-03-22T08:15:55Z</time>
      </trkpt>
      <trkpt lat="44.36682" lon="5.80084">
        <ele>832.281</ele>
        <time>2022-03-22T08:15:56Z</time>
      </trkpt>
      <trkpt lat="44.36682" lon="5.80085">
        <ele>832.181</ele>
        <time>2022-03-22T08:15:57Z</time>
      </trkpt>
      <trkpt lat="44.36682" lon="5.80087">
        <ele>832.081</ele>
        <time>2022-03-22T08:15:58Z</time>
      </trkpt>
      <trkpt lat="44.36682" lon="5.80088">
        <ele>831.981</ele>
        <time>2022-03-22T08:15:59Z</time>
      </trkpt>
      <trkpt lat="44.36681" lon="5.8009">
        <ele>831.981</ele>
        <time>2022-03-22T08:16:00Z</time>
      </trkpt>
      <trkpt lat="44.36682" lon="5.80092">
        <ele>831.981</ele>
        <time>2022-03-22T08:16:01Z</time>
      </trkpt>
      <trkpt lat="44.36682" lon="5.80093">
        <ele>831.881</ele>
        <time>2022-03-22T08:16:02Z</time>
      </trkpt>
      <trkpt lat="44.36682" lon="5.80095">
        <ele>831.781</ele>
        <time>2022-03-22T08:16:03Z</time>
      </trkpt>
      <trkpt lat="44.36682" lon="5.80097">
        <ele>831.581</ele>
        <time>2022-03-22T08:16:04Z</time>
      </trkpt>
      <trkpt lat="44.36683" lon="5.80098">
        <ele>831.481</ele>
        <time>2022-03-22T08:16:05Z</time>
      </trkpt>
      <trkpt lat="44.36683" lon="5.801">
        <ele>831.18</ele>
        <time>2022-03-22T08:16:06Z</time>
      </trkpt>
      <trkpt lat="44.36684" lon="5.80102">
        <ele>830.88</ele>
        <time>2022-03-22T08:16:07Z</time>
      </trkpt>
      <trkpt lat="44.36684" lon="5.80103">
        <ele>830.58</ele>
        <time>2022-03-22T08:16:08Z</time>
      </trkpt>
      <trkpt lat="44.36685" lon="5.80104">
        <ele>830.28</ele>
        <time>2022-03-22T08:16:09Z</time>
      </trkpt>
      <trkpt lat="44.36686" lon="5.80106">
        <ele>829.98</ele>
        <time>2022-03-22T08:16:10Z</time>
      </trkpt>
      <trkpt lat="44.36687" lon="5.80107">
        <ele>829.88</ele>
        <time>2022-03-22T08:16:11Z</time>
      </trkpt>
      <trkpt lat="44.36688" lon="5.80108">
        <ele>829.78</ele>
        <time>2022-03-22T08:16:12Z</time>
      </trkpt>
      <trkpt lat="44.36689" lon="5.80109">
        <ele>829.38</ele>
        <time>2022-03-22T08:16:13Z</time>
      </trkpt>
      <trkpt lat="44.3669" lon="5.8011">
        <ele>829.28</ele>
        <time>2022-03-22T08:16:14Z</time>
      </trkpt>
      <trkpt lat="44.36691" lon="5.8011">
        <ele>828.78</ele>
        <time>2022-03-22T08:16:15Z</time>
      </trkpt>
      <trkpt lat="44.36692" lon="5.80111">
        <ele>828.58</ele>
        <time>2022-03-22T08:16:16Z</time>
      </trkpt>
      <trkpt lat="44.36693" lon="5.80112">
        <ele>828.38</ele>
        <time>2022-03-22T08:16:17Z</time>
      </trkpt>
      <trkpt lat="44.36694" lon="5.80112">
        <ele>828.28</ele>
        <time>2022-03-22T08:16:18Z</time>
      </trkpt>
      <trkpt lat="44.36695" lon="5.80113">
        <ele>827.88</ele>
        <time>2022-03-22T08:16:19Z</time>
      </trkpt>
      <trkpt lat="44.36696" lon="5.80113">
        <ele>827.78</ele>
        <time>2022-03-22T08:16:21Z</time>
      </trkpt>
      <trkpt lat="44.36697" lon="5.80113">
        <ele>827.78</ele>
        <time>2022-03-22T08:16:22Z</time>
      </trkpt>
      <trkpt lat="44.36698" lon="5.80113">
        <ele>827.58</ele>
        <time>2022-03-22T08:16:23Z</time>
      </trkpt>
      <trkpt lat="44.36699" lon="5.80113">
        <ele>827.78</ele>
        <time>2022-03-22T08:16:24Z</time>
      </trkpt>
      <trkpt lat="44.367" lon="5.80114">
        <ele>828.18</ele>
        <time>2022-03-22T08:16:25Z</time>
      </trkpt>
      <trkpt lat="44.36701" lon="5.80116">
        <ele>828.78</ele>
        <time>2022-03-22T08:16:27Z</time>
      </trkpt>
      <trkpt lat="44.36702" lon="5.80117">
        <ele>829.38</ele>
        <time>2022-03-22T08:16:29Z</time>
      </trkpt>
      <trkpt lat="44.36703" lon="5.8012">
        <ele>829.98</ele>
        <time>2022-03-22T08:16:31Z</time>
      </trkpt>
      <trkpt lat="44.36703" lon="5.80121">
        <ele>830.28</ele>
        <time>2022-03-22T08:16:32Z</time>
      </trkpt>
      <trkpt lat="44.36703" lon="5.80123">
        <ele>830.48</ele>
        <time>2022-03-22T08:16:34Z</time>
      </trkpt>
      <trkpt lat="44.36703" lon="5.80125">
        <ele>830.78</ele>
        <time>2022-03-22T08:16:35Z</time>
      </trkpt>
      <trkpt lat="44.36703" lon="5.80127">
        <ele>831.38</ele>
        <time>2022-03-22T08:16:37Z</time>
      </trkpt>
      <trkpt lat="44.36702" lon="5.80129">
        <ele>831.98</ele>
        <time>2022-03-22T08:16:39Z</time>
      </trkpt>
      <trkpt lat="44.36701" lon="5.8013">
        <ele>832.58</ele>
        <time>2022-03-22T08:16:41Z</time>
      </trkpt>
      <trkpt lat="44.367" lon="5.80132">
        <ele>832.88</ele>
        <time>2022-03-22T08:16:43Z</time>
      </trkpt>
      <trkpt lat="44.367" lon="5.80132">
        <ele>833.08</ele>
        <time>2022-03-22T08:16:45Z</time>
      </trkpt>
      <trkpt lat="44.36699" lon="5.80133">
        <ele>833.08</ele>
        <time>2022-03-22T08:16:46Z</time>
      </trkpt>
      <trkpt lat="44.36698" lon="5.80134">
        <ele>833.08</ele>
        <time>2022-03-22T08:16:47Z</time>
      </trkpt>
      <trkpt lat="44.36696" lon="5.80135">
        <ele>832.28</ele>
        <time>2022-03-22T08:16:49Z</time>
      </trkpt>
      <trkpt lat="44.36695" lon="5.80136">
        <ele>831.78</ele>
        <time>2022-03-22T08:16:51Z</time>
      </trkpt>
      <trkpt lat="44.36694" lon="5.80137">
        <ele>831.38</ele>
        <time>2022-03-22T08:16:53Z</time>
      </trkpt>
      <trkpt lat="44.36693" lon="5.80138">
        <ele>831.18</ele>
        <time>2022-03-22T08:16:55Z</time>
      </trkpt>
      <trkpt lat="44.36692" lon="5.80139">
        <ele>830.58</ele>
        <time>2022-03-22T08:16:57Z</time>
      </trkpt>
      <trkpt lat="44.3669" lon="5.8014">
        <ele>830.28</ele>
        <time>2022-03-22T08:16:58Z</time>
      </trkpt>
      <trkpt lat="44.3669" lon="5.80141">
        <ele>830.18</ele>
        <time>2022-03-22T08:16:59Z</time>
      </trkpt>
      <trkpt lat="44.36688" lon="5.80143">
        <ele>830.18</ele>
        <time>2022-03-22T08:17:01Z</time>
      </trkpt>
      <trkpt lat="44.36688" lon="5.80144">
        <ele>830.08</ele>
        <time>2022-03-22T08:17:02Z</time>
      </trkpt>
      <trkpt lat="44.36687" lon="5.80145">
        <ele>830.08</ele>
        <time>2022-03-22T08:17:03Z</time>
      </trkpt>
      <trkpt lat="44.36686" lon="5.80146">
        <ele>829.98</ele>
        <time>2022-03-22T08:17:04Z</time>
      </trkpt>
      <trkpt lat="44.36685" lon="5.80147">
        <ele>830.08</ele>
        <time>2022-03-22T08:17:05Z</time>
      </trkpt>
      <trkpt lat="44.36684" lon="5.80147">
        <ele>830.48</ele>
        <time>2022-03-22T08:17:07Z</time>
      </trkpt>
      <trkpt lat="44.36683" lon="5.80148">
        <ele>830.48</ele>
        <time>2022-03-22T08:17:08Z</time>
      </trkpt>
      <trkpt lat="44.36682" lon="5.80149">
        <ele>830.48</ele>
        <time>2022-03-22T08:17:09Z</time>
      </trkpt>
      <trkpt lat="44.36681" lon="5.80151">
        <ele>830.58</ele>
        <time>2022-03-22T08:17:11Z</time>
      </trkpt>
      <trkpt lat="44.3668" lon="5.80152">
        <ele>830.68</ele>
        <time>2022-03-22T08:17:12Z</time>
      </trkpt>
      <trkpt lat="44.36679" lon="5.80153">
        <ele>830.68</ele>
        <time>2022-03-22T08:17:13Z</time>
      </trkpt>
      <trkpt lat="44.36678" lon="5.80154">
        <ele>830.48</ele>
        <time>2022-03-22T08:17:14Z</time>
      </trkpt>
      <trkpt lat="44.36677" lon="5.80155">
        <ele>830.38</ele>
        <time>2022-03-22T08:17:15Z</time>
      </trkpt>
      <trkpt lat="44.36676" lon="5.80155">
        <ele>830.48</ele>
        <time>2022-03-22T08:17:16Z</time>
      </trkpt>
      <trkpt lat="44.36675" lon="5.80156">
        <ele>830.78</ele>
        <time>2022-03-22T08:17:17Z</time>
      </trkpt>
      <trkpt lat="44.36674" lon="5.80157">
        <ele>831.08</ele>
        <time>2022-03-22T08:17:18Z</time>
      </trkpt>
      <trkpt lat="44.36672" lon="5.80158">
        <ele>831.08</ele>
        <time>2022-03-22T08:17:19Z</time>
      </trkpt>
      <trkpt lat="44.36672" lon="5.80159">
        <ele>831.18</ele>
        <time>2022-03-22T08:17:20Z</time>
      </trkpt>
      <trkpt lat="44.36671" lon="5.8016">
        <ele>831.28</ele>
        <time>2022-03-22T08:17:21Z</time>
      </trkpt>
      <trkpt lat="44.3667" lon="5.80161">
        <ele>831.28</ele>
        <time>2022-03-22T08:17:22Z</time>
      </trkpt>
      <trkpt lat="44.36669" lon="5.80162">
        <ele>831.18</ele>
        <time>2022-03-22T08:17:23Z</time>
      </trkpt>
      <trkpt lat="44.36668" lon="5.80163">
        <ele>831.38</ele>
        <time>2022-03-22T08:17:24Z</time>
      </trkpt>
      <trkpt lat="44.36667" lon="5.80164">
        <ele>831.28</ele>
        <time>2022-03-22T08:17:25Z</time>
      </trkpt>
      <trkpt lat="44.36667" lon="5.80165">
        <ele>831.58</ele>
        <time>2022-03-22T08:17:26Z</time>
      </trkpt>
      <trkpt lat="44.36666" lon="5.80166">
        <ele>831.68</ele>
        <time>2022-03-22T08:17:27Z</time>
      </trkpt>
      <trkpt lat="44.36665" lon="5.80168">
        <ele>831.98</ele>
        <time>2022-03-22T08:17:28Z</time>
      </trkpt>
      <trkpt lat="44.36664" lon="5.80169">
        <ele>832.28</ele>
        <time>2022-03-22T08:17:29Z</time>
      </trkpt>
      <trkpt lat="44.36663" lon="5.8017">
        <ele>832.38</ele>
        <time>2022-03-22T08:17:30Z</time>
      </trkpt>
      <trkpt lat="44.36663" lon="5.80171">
        <ele>832.58</ele>
        <time>2022-03-22T08:17:31Z</time>
      </trkpt>
      <trkpt lat="44.36662" lon="5.80172">
        <ele>832.78</ele>
        <time>2022-03-22T08:17:32Z</time>
      </trkpt>
      <trkpt lat="44.36661" lon="5.80173">
        <ele>832.78</ele>
        <time>2022-03-22T08:17:33Z</time>
      </trkpt>
      <trkpt lat="44.3666" lon="5.80175">
        <ele>832.58</ele>
        <time>2022-03-22T08:17:35Z</time>
      </trkpt>
      <trkpt lat="44.36659" lon="5.80176">
        <ele>832.48</ele>
        <time>2022-03-22T08:17:36Z</time>
      </trkpt>
      <trkpt lat="44.36658" lon="5.80178">
        <ele>832.88</ele>
        <time>2022-03-22T08:17:38Z</time>
      </trkpt>
      <trkpt lat="44.36656" lon="5.80179">
        <ele>832.48</ele>
        <time>2022-03-22T08:17:40Z</time>
      </trkpt>
      <trkpt lat="44.36656" lon="5.8018">
        <ele>832.18</ele>
        <time>2022-03-22T08:17:41Z</time>
      </trkpt>
      <trkpt lat="44.36655" lon="5.80181">
        <ele>832.08</ele>
        <time>2022-03-22T08:17:42Z</time>
      </trkpt>
      <trkpt lat="44.36655" lon="5.80182">
        <ele>831.98</ele>
        <time>2022-03-22T08:17:43Z</time>
      </trkpt>
      <trkpt lat="44.36654" lon="5.80184">
        <ele>832.18</ele>
        <time>2022-03-22T08:17:44Z</time>
      </trkpt>
      <trkpt lat="44.36653" lon="5.80185">
        <ele>832.38</ele>
        <time>2022-03-22T08:17:45Z</time>
      </trkpt>
      <trkpt lat="44.36653" lon="5.80187">
        <ele>832.28</ele>
        <time>2022-03-22T08:17:46Z</time>
      </trkpt>
      <trkpt lat="44.36652" lon="5.80189">
        <ele>832.38</ele>
        <time>2022-03-22T08:17:48Z</time>
      </trkpt>
      <trkpt lat="44.36652" lon="5.80192">
        <ele>832.48</ele>
        <time>2022-03-22T08:17:50Z</time>
      </trkpt>
      <trkpt lat="44.36651" lon="5.80194">
        <ele>832.38</ele>
        <time>2022-03-22T08:17:51Z</time>
      </trkpt>
      <trkpt lat="44.3665" lon="5.80195">
        <ele>832.38</ele>
        <time>2022-03-22T08:17:52Z</time>
      </trkpt>
      <trkpt lat="44.3665" lon="5.80197">
        <ele>832.58</ele>
        <time>2022-03-22T08:17:53Z</time>
      </trkpt>
      <trkpt lat="44.36649" lon="5.80198">
        <ele>832.58</ele>
        <time>2022-03-22T08:17:54Z</time>
      </trkpt>
      <trkpt lat="44.36649" lon="5.80199">
        <ele>832.18</ele>
        <time>2022-03-22T08:17:55Z</time>
      </trkpt>
      <trkpt lat="44.36649" lon="5.80201">
        <ele>832.38</ele>
        <time>2022-03-22T08:17:56Z</time>
      </trkpt>
      <trkpt lat="44.36649" lon="5.80202">
        <ele>832.78</ele>
        <time>2022-03-22T08:17:57Z</time>
      </trkpt>
      <trkpt lat="44.36649" lon="5.80204">
        <ele>832.58</ele>
        <time>2022-03-22T08:17:58Z</time>
      </trkpt>
      <trkpt lat="44.36649" lon="5.80205">
        <ele>832.58</ele>
        <time>2022-03-22T08:17:59Z</time>
      </trkpt>
      <trkpt lat="44.36649" lon="5.80208">
        <ele>832.08</ele>
        <time>2022-03-22T08:18:01Z</time>
      </trkpt>
      <trkpt lat="44.3665" lon="5.80209">
        <ele>832.08</ele>
        <time>2022-03-22T08:18:02Z</time>
      </trkpt>
      <trkpt lat="44.3665" lon="5.80211">
        <ele>831.88</ele>
        <time>2022-03-22T08:18:04Z</time>
      </trkpt>
      <trkpt lat="44.36651" lon="5.80213">
        <ele>832.18</ele>
        <time>2022-03-22T08:18:06Z</time>
      </trkpt>
      <trkpt lat="44.36651" lon="5.80215">
        <ele>832.48</ele>
        <time>2022-03-22T08:18:07Z</time>
      </trkpt>
      <trkpt lat="44.3665" lon="5.80217">
        <ele>833.08</ele>
        <time>2022-03-22T08:18:09Z</time>
      </trkpt>
      <trkpt lat="44.3665" lon="5.80218">
        <ele>833.98</ele>
        <time>2022-03-22T08:18:11Z</time>
      </trkpt>
      <trkpt lat="44.36649" lon="5.8022">
        <ele>834.78</ele>
        <time>2022-03-22T08:18:13Z</time>
      </trkpt>
      <trkpt lat="44.36649" lon="5.80221">
        <ele>834.78</ele>
        <time>2022-03-22T08:18:14Z</time>
      </trkpt>
      <trkpt lat="44.36648" lon="5.80223">
        <ele>834.68</ele>
        <time>2022-03-22T08:18:16Z</time>
      </trkpt>
      <trkpt lat="44.36647" lon="5.80225">
        <ele>834.38</ele>
        <time>2022-03-22T08:18:18Z</time>
      </trkpt>
      <trkpt lat="44.36647" lon="5.80227">
        <ele>833.88</ele>
        <time>2022-03-22T08:18:19Z</time>
      </trkpt>
      <trkpt lat="44.36646" lon="5.80228">
        <ele>833.38</ele>
        <time>2022-03-22T08:18:20Z</time>
      </trkpt>
      <trkpt lat="44.36646" lon="5.80229">
        <ele>833.08</ele>
        <time>2022-03-22T08:18:21Z</time>
      </trkpt>
      <trkpt lat="44.36645" lon="5.8023">
        <ele>833.08</ele>
        <time>2022-03-22T08:18:22Z</time>
      </trkpt>
      <trkpt lat="44.36645" lon="5.80232">
        <ele>833.08</ele>
        <time>2022-03-22T08:18:23Z</time>
      </trkpt>
      <trkpt lat="44.36644" lon="5.80233">
        <ele>833.18</ele>
        <time>2022-03-22T08:18:24Z</time>
      </trkpt>
      <trkpt lat="44.36643" lon="5.80235">
        <ele>833.48</ele>
        <time>2022-03-22T08:18:26Z</time>
      </trkpt>
      <trkpt lat="44.36642" lon="5.80236">
        <ele>833.58</ele>
        <time>2022-03-22T08:18:27Z</time>
      </trkpt>
      <trkpt lat="44.36641" lon="5.80238">
        <ele>833.58</ele>
        <time>2022-03-22T08:18:29Z</time>
      </trkpt>
      <trkpt lat="44.36639" lon="5.80239">
        <ele>833.48</ele>
        <time>2022-03-22T08:18:31Z</time>
      </trkpt>
      <trkpt lat="44.36638" lon="5.80241">
        <ele>833.08</ele>
        <time>2022-03-22T08:18:33Z</time>
      </trkpt>
      <trkpt lat="44.36637" lon="5.80242">
        <ele>833.08</ele>
        <time>2022-03-22T08:18:34Z</time>
      </trkpt>
      <trkpt lat="44.36636" lon="5.80243">
        <ele>833.28</ele>
        <time>2022-03-22T08:18:35Z</time>
      </trkpt>
      <trkpt lat="44.36635" lon="5.80244">
        <ele>833.28</ele>
        <time>2022-03-22T08:18:36Z</time>
      </trkpt>
      <trkpt lat="44.36634" lon="5.80245">
        <ele>833.38</ele>
        <time>2022-03-22T08:18:38Z</time>
      </trkpt>
      <trkpt lat="44.36633" lon="5.80246">
        <ele>833.38</ele>
        <time>2022-03-22T08:18:39Z</time>
      </trkpt>
      <trkpt lat="44.36632" lon="5.80247">
        <ele>833.48</ele>
        <time>2022-03-22T08:18:40Z</time>
      </trkpt>
      <trkpt lat="44.36631" lon="5.80249">
        <ele>833.68</ele>
        <time>2022-03-22T08:18:42Z</time>
      </trkpt>
      <trkpt lat="44.3663" lon="5.8025">
        <ele>833.78</ele>
        <time>2022-03-22T08:18:43Z</time>
      </trkpt>
      <trkpt lat="44.36629" lon="5.80251">
        <ele>834.38</ele>
        <time>2022-03-22T08:18:45Z</time>
      </trkpt>
      <trkpt lat="44.36628" lon="5.80252">
        <ele>834.78</ele>
        <time>2022-03-22T08:18:46Z</time>
      </trkpt>
      <trkpt lat="44.36627" lon="5.80252">
        <ele>835.18</ele>
        <time>2022-03-22T08:18:47Z</time>
      </trkpt>
      <trkpt lat="44.36625" lon="5.80254">
        <ele>835.78</ele>
        <time>2022-03-22T08:18:49Z</time>
      </trkpt>
      <trkpt lat="44.36624" lon="5.80255">
        <ele>836.48</ele>
        <time>2022-03-22T08:18:51Z</time>
      </trkpt>
      <trkpt lat="44.36622" lon="5.80257">
        <ele>837.18</ele>
        <time>2022-03-22T08:18:53Z</time>
      </trkpt>
      <trkpt lat="44.36622" lon="5.80258">
        <ele>837.18</ele>
        <time>2022-03-22T08:18:54Z</time>
      </trkpt>
      <trkpt lat="44.36621" lon="5.8026">
        <ele>837.28</ele>
        <time>2022-03-22T08:18:55Z</time>
      </trkpt>
      <trkpt lat="44.3662" lon="5.80261">
        <ele>837.08</ele>
        <time>2022-03-22T08:18:56Z</time>
      </trkpt>
      <trkpt lat="44.36619" lon="5.80262">
        <ele>837.281</ele>
        <time>2022-03-22T08:18:57Z</time>
      </trkpt>
      <trkpt lat="44.36618" lon="5.80263">
        <ele>837.181</ele>
        <time>2022-03-22T08:18:58Z</time>
      </trkpt>
      <trkpt lat="44.36617" lon="5.80264">
        <ele>837.081</ele>
        <time>2022-03-22T08:18:59Z</time>
      </trkpt>
      <trkpt lat="44.36617" lon="5.80266">
        <ele>837.681</ele>
        <time>2022-03-22T08:19:01Z</time>
      </trkpt>
      <trkpt lat="44.36616" lon="5.80267">
        <ele>837.881</ele>
        <time>2022-03-22T08:19:03Z</time>
      </trkpt>
      <trkpt lat="44.36614" lon="5.80269">
        <ele>837.681</ele>
        <time>2022-03-22T08:19:05Z</time>
      </trkpt>
      <trkpt lat="44.36613" lon="5.80269">
        <ele>837.781</ele>
        <time>2022-03-22T08:19:06Z</time>
      </trkpt>
      <trkpt lat="44.36612" lon="5.80271">
        <ele>838.381</ele>
        <time>2022-03-22T08:19:08Z</time>
      </trkpt>
      <trkpt lat="44.36612" lon="5.80272">
        <ele>838.581</ele>
        <time>2022-03-22T08:19:09Z</time>
      </trkpt>
      <trkpt lat="44.3661" lon="5.80274">
        <ele>839.081</ele>
        <time>2022-03-22T08:19:11Z</time>
      </trkpt>
      <trkpt lat="44.36609" lon="5.80275">
        <ele>839.181</ele>
        <time>2022-03-22T08:19:13Z</time>
      </trkpt>
      <trkpt lat="44.36608" lon="5.80277">
        <ele>838.881</ele>
        <time>2022-03-22T08:19:14Z</time>
      </trkpt>
      <trkpt lat="44.36608" lon="5.80278">
        <ele>838.781</ele>
        <time>2022-03-22T08:19:15Z</time>
      </trkpt>
      <trkpt lat="44.36607" lon="5.80279">
        <ele>838.781</ele>
        <time>2022-03-22T08:19:16Z</time>
      </trkpt>
      <trkpt lat="44.36607" lon="5.8028">
        <ele>838.981</ele>
        <time>2022-03-22T08:19:17Z</time>
      </trkpt>
      <trkpt lat="44.36606" lon="5.8028">
        <ele>838.981</ele>
        <time>2022-03-22T08:19:18Z</time>
      </trkpt>
      <trkpt lat="44.36605" lon="5.80281">
        <ele>839.281</ele>
        <time>2022-03-22T08:19:19Z</time>
      </trkpt>
      <trkpt lat="44.36604" lon="5.80283">
        <ele>839.481</ele>
        <time>2022-03-22T08:19:21Z</time>
      </trkpt>
      <trkpt lat="44.36603" lon="5.80284">
        <ele>839.581</ele>
        <time>2022-03-22T08:19:22Z</time>
      </trkpt>
      <trkpt lat="44.36602" lon="5.80284">
        <ele>839.581</ele>
        <time>2022-03-22T08:19:23Z</time>
      </trkpt>
      <trkpt lat="44.36601" lon="5.80285">
        <ele>839.481</ele>
        <time>2022-03-22T08:19:24Z</time>
      </trkpt>
      <trkpt lat="44.366" lon="5.80286">
        <ele>839.381</ele>
        <time>2022-03-22T08:19:26Z</time>
      </trkpt>
      <trkpt lat="44.36599" lon="5.80288">
        <ele>839.181</ele>
        <time>2022-03-22T08:19:28Z</time>
      </trkpt>
      <trkpt lat="44.36598" lon="5.80289">
        <ele>839.181</ele>
        <time>2022-03-22T08:19:29Z</time>
      </trkpt>
      <trkpt lat="44.36598" lon="5.8029">
        <ele>839.081</ele>
        <time>2022-03-22T08:19:30Z</time>
      </trkpt>
      <trkpt lat="44.36597" lon="5.80291">
        <ele>838.981</ele>
        <time>2022-03-22T08:19:31Z</time>
      </trkpt>
      <trkpt lat="44.36596" lon="5.80294">
        <ele>838.381</ele>
        <time>2022-03-22T08:19:33Z</time>
      </trkpt>
      <trkpt lat="44.36595" lon="5.80295">
        <ele>838.181</ele>
        <time>2022-03-22T08:19:35Z</time>
      </trkpt>
      <trkpt lat="44.36595" lon="5.80296">
        <ele>838.881</ele>
        <time>2022-03-22T08:19:37Z</time>
      </trkpt>
      <trkpt lat="44.36595" lon="5.80298">
        <ele>839.581</ele>
        <time>2022-03-22T08:19:39Z</time>
      </trkpt>
      <trkpt lat="44.36595" lon="5.80298">
        <ele>839.981</ele>
        <time>2022-03-22T08:19:40Z</time>
      </trkpt>
      <trkpt lat="44.36596" lon="5.80299">
        <ele>839.781</ele>
        <time>2022-03-22T08:19:50Z</time>
      </trkpt>
      <trkpt lat="44.36596" lon="5.80303">
        <ele>841.381</ele>
        <time>2022-03-22T08:19:51Z</time>
      </trkpt>
      <trkpt lat="44.36595" lon="5.80304">
        <ele>841.881</ele>
        <time>2022-03-22T08:19:53Z</time>
      </trkpt>
      <trkpt lat="44.36594" lon="5.80306">
        <ele>841.981</ele>
        <time>2022-03-22T08:19:54Z</time>
      </trkpt>
      <trkpt lat="44.36593" lon="5.80306">
        <ele>842.081</ele>
        <time>2022-03-22T08:19:55Z</time>
      </trkpt>
      <trkpt lat="44.36592" lon="5.80308">
        <ele>842.481</ele>
        <time>2022-03-22T08:19:57Z</time>
      </trkpt>
      <trkpt lat="44.36591" lon="5.80309">
        <ele>842.181</ele>
        <time>2022-03-22T08:19:59Z</time>
      </trkpt>
      <trkpt lat="44.36591" lon="5.8031">
        <ele>841.781</ele>
        <time>2022-03-22T08:20:01Z</time>
      </trkpt>
      <trkpt lat="44.3659" lon="5.80312">
        <ele>840.981</ele>
        <time>2022-03-22T08:20:04Z</time>
      </trkpt>
      <trkpt lat="44.3659" lon="5.80314">
        <ele>840.681</ele>
        <time>2022-03-22T08:20:05Z</time>
      </trkpt>
      <trkpt lat="44.36589" lon="5.80315">
        <ele>840.481</ele>
        <time>2022-03-22T08:20:06Z</time>
      </trkpt>
      <trkpt lat="44.3659" lon="5.80317">
        <ele>840.281</ele>
        <time>2022-03-22T08:20:07Z</time>
      </trkpt>
      <trkpt lat="44.3659" lon="5.80318">
        <ele>839.981</ele>
        <time>2022-03-22T08:20:09Z</time>
      </trkpt>
      <trkpt lat="44.3659" lon="5.8032">
        <ele>839.681</ele>
        <time>2022-03-22T08:20:10Z</time>
      </trkpt>
      <trkpt lat="44.3659" lon="5.80322">
        <ele>839.381</ele>
        <time>2022-03-22T08:20:11Z</time>
      </trkpt>
      <trkpt lat="44.3659" lon="5.80324">
        <ele>839.081</ele>
        <time>2022-03-22T08:20:13Z</time>
      </trkpt>
      <trkpt lat="44.3659" lon="5.80326">
        <ele>839.081</ele>
        <time>2022-03-22T08:20:15Z</time>
      </trkpt>
      <trkpt lat="44.3659" lon="5.80328">
        <ele>839.481</ele>
        <time>2022-03-22T08:20:17Z</time>
      </trkpt>
      <trkpt lat="44.3659" lon="5.8033">
        <ele>839.481</ele>
        <time>2022-03-22T08:20:18Z</time>
      </trkpt>
      <trkpt lat="44.3659" lon="5.80331">
        <ele>839.481</ele>
        <time>2022-03-22T08:20:19Z</time>
      </trkpt>
      <trkpt lat="44.3659" lon="5.80332">
        <ele>839.381</ele>
        <time>2022-03-22T08:20:20Z</time>
      </trkpt>
      <trkpt lat="44.36591" lon="5.80334">
        <ele>839.181</ele>
        <time>2022-03-22T08:20:21Z</time>
      </trkpt>
      <trkpt lat="44.36591" lon="5.80335">
        <ele>839.08</ele>
        <time>2022-03-22T08:20:22Z</time>
      </trkpt>
      <trkpt lat="44.36592" lon="5.80336">
        <ele>838.88</ele>
        <time>2022-03-22T08:20:23Z</time>
      </trkpt>
      <trkpt lat="44.36592" lon="5.80338">
        <ele>838.98</ele>
        <time>2022-03-22T08:20:24Z</time>
      </trkpt>
      <trkpt lat="44.36593" lon="5.80339">
        <ele>838.98</ele>
        <time>2022-03-22T08:20:25Z</time>
      </trkpt>
      <trkpt lat="44.36593" lon="5.8034">
        <ele>838.98</ele>
        <time>2022-03-22T08:20:26Z</time>
      </trkpt>
      <trkpt lat="44.36594" lon="5.80341">
        <ele>838.88</ele>
        <time>2022-03-22T08:20:27Z</time>
      </trkpt>
      <trkpt lat="44.36594" lon="5.80343">
        <ele>838.58</ele>
        <time>2022-03-22T08:20:29Z</time>
      </trkpt>
      <trkpt lat="44.36594" lon="5.80343">
        <ele>838.58</ele>
        <time>2022-03-22T08:20:34Z</time>
      </trkpt>
      <trkpt lat="44.36595" lon="5.80343">
        <ele>838.68</ele>
        <time>2022-03-22T08:20:35Z</time>
      </trkpt>
      <trkpt lat="44.36595" lon="5.80343">
        <ele>838.98</ele>
        <time>2022-03-22T08:20:43Z</time>
      </trkpt>
      <trkpt lat="44.36596" lon="5.80345">
        <ele>839.48</ele>
        <time>2022-03-22T08:20:44Z</time>
      </trkpt>
      <trkpt lat="44.36597" lon="5.80346">
        <ele>839.68</ele>
        <time>2022-03-22T08:20:45Z</time>
      </trkpt>
      <trkpt lat="44.36598" lon="5.80347">
        <ele>839.98</ele>
        <time>2022-03-22T08:20:47Z</time>
      </trkpt>
      <trkpt lat="44.36599" lon="5.80347">
        <ele>840.58</ele>
        <time>2022-03-22T08:20:49Z</time>
      </trkpt>
      <trkpt lat="44.366" lon="5.80347">
        <ele>841.28</ele>
        <time>2022-03-22T08:20:51Z</time>
      </trkpt>
      <trkpt lat="44.36602" lon="5.80348">
        <ele>841.58</ele>
        <time>2022-03-22T08:20:53Z</time>
      </trkpt>
      <trkpt lat="44.36602" lon="5.80349">
        <ele>841.78</ele>
        <time>2022-03-22T08:20:57Z</time>
      </trkpt>
      <trkpt lat="44.36602" lon="5.80348">
        <ele>841.88</ele>
        <time>2022-03-22T08:20:58Z</time>
      </trkpt>
      <trkpt lat="44.36602" lon="5.80348">
        <ele>841.88</ele>
        <time>2022-03-22T08:20:59Z</time>
      </trkpt>
      <trkpt lat="44.36603" lon="5.80348">
        <ele>841.88</ele>
        <time>2022-03-22T08:21:03Z</time>
      </trkpt>
      <trkpt lat="44.36604" lon="5.80349">
        <ele>842.58</ele>
        <time>2022-03-22T08:21:04Z</time>
      </trkpt>
      <trkpt lat="44.36604" lon="5.80352">
        <ele>843.28</ele>
        <time>2022-03-22T08:21:06Z</time>
      </trkpt>
      <trkpt lat="44.36604" lon="5.80353">
        <ele>843.78</ele>
        <time>2022-03-22T08:21:07Z</time>
      </trkpt>
      <trkpt lat="44.36603" lon="5.80356">
        <ele>843.88</ele>
        <time>2022-03-22T08:21:09Z</time>
      </trkpt>
      <trkpt lat="44.36603" lon="5.80358">
        <ele>843.78</ele>
        <time>2022-03-22T08:21:10Z</time>
      </trkpt>
      <trkpt lat="44.36603" lon="5.80359">
        <ele>843.98</ele>
        <time>2022-03-22T08:21:11Z</time>
      </trkpt>
      <trkpt lat="44.36603" lon="5.80361">
        <ele>844.28</ele>
        <time>2022-03-22T08:21:13Z</time>
      </trkpt>
      <trkpt lat="44.36602" lon="5.80363">
        <ele>843.98</ele>
        <time>2022-03-22T08:21:14Z</time>
      </trkpt>
      <trkpt lat="44.36601" lon="5.80365">
        <ele>844.68</ele>
        <time>2022-03-22T08:21:16Z</time>
      </trkpt>
      <trkpt lat="44.36601" lon="5.80366">
        <ele>844.88</ele>
        <time>2022-03-22T08:21:17Z</time>
      </trkpt>
      <trkpt lat="44.366" lon="5.80367">
        <ele>844.68</ele>
        <time>2022-03-22T08:21:21Z</time>
      </trkpt>
      <trkpt lat="44.36601" lon="5.80369">
        <ele>844.98</ele>
        <time>2022-03-22T08:21:23Z</time>
      </trkpt>
      <trkpt lat="44.366" lon="5.80371">
        <ele>844.68</ele>
        <time>2022-03-22T08:21:25Z</time>
      </trkpt>
      <trkpt lat="44.36601" lon="5.80373">
        <ele>844.38</ele>
        <time>2022-03-22T08:21:27Z</time>
      </trkpt>
      <trkpt lat="44.36602" lon="5.80374">
        <ele>844.48</ele>
        <time>2022-03-22T08:21:28Z</time>
      </trkpt>
      <trkpt lat="44.36602" lon="5.80375">
        <ele>844.28</ele>
        <time>2022-03-22T08:21:29Z</time>
      </trkpt>
      <trkpt lat="44.36603" lon="5.80377">
        <ele>844.28</ele>
        <time>2022-03-22T08:21:31Z</time>
      </trkpt>
      <trkpt lat="44.36604" lon="5.80377">
        <ele>844.48</ele>
        <time>2022-03-22T08:21:32Z</time>
      </trkpt>
      <trkpt lat="44.36605" lon="5.80378">
        <ele>844.18</ele>
        <time>2022-03-22T08:21:34Z</time>
      </trkpt>
      <trkpt lat="44.36607" lon="5.8038">
        <ele>843.68</ele>
        <time>2022-03-22T08:21:36Z</time>
      </trkpt>
      <trkpt lat="44.36608" lon="5.8038">
        <ele>843.78</ele>
        <time>2022-03-22T08:21:37Z</time>
      </trkpt>
      <trkpt lat="44.36609" lon="5.80381">
        <ele>843.98</ele>
        <time>2022-03-22T08:21:38Z</time>
      </trkpt>
      <trkpt lat="44.36609" lon="5.80382">
        <ele>844.08</ele>
        <time>2022-03-22T08:21:39Z</time>
      </trkpt>
      <trkpt lat="44.3661" lon="5.80382">
        <ele>844.08</ele>
        <time>2022-03-22T08:21:40Z</time>
      </trkpt>
      <trkpt lat="44.36611" lon="5.80384">
        <ele>843.98</ele>
        <time>2022-03-22T08:21:41Z</time>
      </trkpt>
      <trkpt lat="44.36612" lon="5.80385">
        <ele>844.179</ele>
        <time>2022-03-22T08:21:42Z</time>
      </trkpt>
      <trkpt lat="44.36613" lon="5.80386">
        <ele>844.679</ele>
        <time>2022-03-22T08:21:44Z</time>
      </trkpt>
      <trkpt lat="44.36614" lon="5.80388">
        <ele>844.779</ele>
        <time>2022-03-22T08:21:45Z</time>
      </trkpt>
      <trkpt lat="44.36614" lon="5.80389">
        <ele>845.179</ele>
        <time>2022-03-22T08:21:46Z</time>
      </trkpt>
      <trkpt lat="44.36615" lon="5.8039">
        <ele>845.479</ele>
        <time>2022-03-22T08:21:47Z</time>
      </trkpt>
      <trkpt lat="44.36616" lon="5.80392">
        <ele>845.679</ele>
        <time>2022-03-22T08:21:49Z</time>
      </trkpt>
      <trkpt lat="44.36616" lon="5.80394">
        <ele>846.079</ele>
        <time>2022-03-22T08:21:50Z</time>
      </trkpt>
      <trkpt lat="44.36616" lon="5.80396">
        <ele>846.079</ele>
        <time>2022-03-22T08:21:51Z</time>
      </trkpt>
      <trkpt lat="44.36616" lon="5.80397">
        <ele>845.979</ele>
        <time>2022-03-22T08:21:52Z</time>
      </trkpt>
      <trkpt lat="44.36616" lon="5.804">
        <ele>845.879</ele>
        <time>2022-03-22T08:21:54Z</time>
      </trkpt>
      <trkpt lat="44.36616" lon="5.80402">
        <ele>845.979</ele>
        <time>2022-03-22T08:21:55Z</time>
      </trkpt>
      <trkpt lat="44.36617" lon="5.80403">
        <ele>846.079</ele>
        <time>2022-03-22T08:21:56Z</time>
      </trkpt>
      <trkpt lat="44.36617" lon="5.80405">
        <ele>845.979</ele>
        <time>2022-03-22T08:21:57Z</time>
      </trkpt>
      <trkpt lat="44.36617" lon="5.80406">
        <ele>846.179</ele>
        <time>2022-03-22T08:21:58Z</time>
      </trkpt>
      <trkpt lat="44.36617" lon="5.80408">
        <ele>846.179</ele>
        <time>2022-03-22T08:21:59Z</time>
      </trkpt>
      <trkpt lat="44.36617" lon="5.80409">
        <ele>846.379</ele>
        <time>2022-03-22T08:22:00Z</time>
      </trkpt>
      <trkpt lat="44.36616" lon="5.80411">
        <ele>846.779</ele>
        <time>2022-03-22T08:22:01Z</time>
      </trkpt>
      <trkpt lat="44.36616" lon="5.80412">
        <ele>846.779</ele>
        <time>2022-03-22T08:22:02Z</time>
      </trkpt>
      <trkpt lat="44.36615" lon="5.80413">
        <ele>846.979</ele>
        <time>2022-03-22T08:22:04Z</time>
      </trkpt>
      <trkpt lat="44.36614" lon="5.80415">
        <ele>847.079</ele>
        <time>2022-03-22T08:22:06Z</time>
      </trkpt>
      <trkpt lat="44.36614" lon="5.80417">
        <ele>847.079</ele>
        <time>2022-03-22T08:22:07Z</time>
      </trkpt>
      <trkpt lat="44.36613" lon="5.80418">
        <ele>847.279</ele>
        <time>2022-03-22T08:22:09Z</time>
      </trkpt>
      <trkpt lat="44.36612" lon="5.80419">
        <ele>845.979</ele>
        <time>2022-03-22T08:22:14Z</time>
      </trkpt>
      <trkpt lat="44.36611" lon="5.80421">
        <ele>845.779</ele>
        <time>2022-03-22T08:22:16Z</time>
      </trkpt>
      <trkpt lat="44.3661" lon="5.80423">
        <ele>845.679</ele>
        <time>2022-03-22T08:22:17Z</time>
      </trkpt>
      <trkpt lat="44.36609" lon="5.80425">
        <ele>845.579</ele>
        <time>2022-03-22T08:22:18Z</time>
      </trkpt>
      <trkpt lat="44.36608" lon="5.80426">
        <ele>845.579</ele>
        <time>2022-03-22T08:22:19Z</time>
      </trkpt>
      <trkpt lat="44.36607" lon="5.80427">
        <ele>845.779</ele>
        <time>2022-03-22T08:22:20Z</time>
      </trkpt>
      <trkpt lat="44.36607" lon="5.80429">
        <ele>846.179</ele>
        <time>2022-03-22T08:22:21Z</time>
      </trkpt>
      <trkpt lat="44.36606" lon="5.8043">
        <ele>846.179</ele>
        <time>2022-03-22T08:22:22Z</time>
      </trkpt>
      <trkpt lat="44.36605" lon="5.80431">
        <ele>846.179</ele>
        <time>2022-03-22T08:22:23Z</time>
      </trkpt>
      <trkpt lat="44.36604" lon="5.80432">
        <ele>846.179</ele>
        <time>2022-03-22T08:22:24Z</time>
      </trkpt>
      <trkpt lat="44.36603" lon="5.80433">
        <ele>846.179</ele>
        <time>2022-03-22T08:22:25Z</time>
      </trkpt>
      <trkpt lat="44.36602" lon="5.80434">
        <ele>846.379</ele>
        <time>2022-03-22T08:22:26Z</time>
      </trkpt>
      <trkpt lat="44.36601" lon="5.80436">
        <ele>846.179</ele>
        <time>2022-03-22T08:22:27Z</time>
      </trkpt>
      <trkpt lat="44.36601" lon="5.80437">
        <ele>846.179</ele>
        <time>2022-03-22T08:22:28Z</time>
      </trkpt>
      <trkpt lat="44.366" lon="5.80438">
        <ele>846.179</ele>
        <time>2022-03-22T08:22:29Z</time>
      </trkpt>
      <trkpt lat="44.36599" lon="5.80439">
        <ele>846.379</ele>
        <time>2022-03-22T08:22:30Z</time>
      </trkpt>
      <trkpt lat="44.36598" lon="5.8044">
        <ele>846.579</ele>
        <time>2022-03-22T08:22:31Z</time>
      </trkpt>
      <trkpt lat="44.36598" lon="5.80441">
        <ele>846.579</ele>
        <time>2022-03-22T08:22:32Z</time>
      </trkpt>
      <trkpt lat="44.36597" lon="5.80443">
        <ele>846.579</ele>
        <time>2022-03-22T08:22:34Z</time>
      </trkpt>
      <trkpt lat="44.36596" lon="5.80445">
        <ele>846.579</ele>
        <time>2022-03-22T08:22:35Z</time>
      </trkpt>
      <trkpt lat="44.36596" lon="5.80446">
        <ele>846.779</ele>
        <time>2022-03-22T08:22:36Z</time>
      </trkpt>
      <trkpt lat="44.36595" lon="5.80447">
        <ele>846.679</ele>
        <time>2022-03-22T08:22:37Z</time>
      </trkpt>
      <trkpt lat="44.36594" lon="5.80448">
        <ele>846.579</ele>
        <time>2022-03-22T08:22:38Z</time>
      </trkpt>
      <trkpt lat="44.36594" lon="5.8045">
        <ele>846.379</ele>
        <time>2022-03-22T08:22:39Z</time>
      </trkpt>
      <trkpt lat="44.36594" lon="5.80451">
        <ele>846.679</ele>
        <time>2022-03-22T08:22:40Z</time>
      </trkpt>
      <trkpt lat="44.36593" lon="5.80453">
        <ele>846.479</ele>
        <time>2022-03-22T08:22:41Z</time>
      </trkpt>
      <trkpt lat="44.36592" lon="5.80454">
        <ele>846.379</ele>
        <time>2022-03-22T08:22:42Z</time>
      </trkpt>
      <trkpt lat="44.36592" lon="5.80456">
        <ele>846.579</ele>
        <time>2022-03-22T08:22:43Z</time>
      </trkpt>
      <trkpt lat="44.36592" lon="5.80457">
        <ele>846.779</ele>
        <time>2022-03-22T08:22:44Z</time>
      </trkpt>
      <trkpt lat="44.36592" lon="5.80459">
        <ele>846.779</ele>
        <time>2022-03-22T08:22:45Z</time>
      </trkpt>
      <trkpt lat="44.36591" lon="5.80461">
        <ele>847.179</ele>
        <time>2022-03-22T08:22:46Z</time>
      </trkpt>
      <trkpt lat="44.36591" lon="5.80463">
        <ele>847.279</ele>
        <time>2022-03-22T08:22:47Z</time>
      </trkpt>
      <trkpt lat="44.36591" lon="5.80464">
        <ele>847.379</ele>
        <time>2022-03-22T08:22:48Z</time>
      </trkpt>
      <trkpt lat="44.36591" lon="5.80466">
        <ele>847.379</ele>
        <time>2022-03-22T08:22:49Z</time>
      </trkpt>
      <trkpt lat="44.36591" lon="5.80468">
        <ele>847.179</ele>
        <time>2022-03-22T08:22:50Z</time>
      </trkpt>
      <trkpt lat="44.36591" lon="5.80469">
        <ele>846.979</ele>
        <time>2022-03-22T08:22:51Z</time>
      </trkpt>
      <trkpt lat="44.36591" lon="5.80471">
        <ele>846.679</ele>
        <time>2022-03-22T08:22:52Z</time>
      </trkpt>
      <trkpt lat="44.36591" lon="5.80472">
        <ele>846.279</ele>
        <time>2022-03-22T08:22:53Z</time>
      </trkpt>
      <trkpt lat="44.36592" lon="5.80473">
        <ele>847.679</ele>
        <time>2022-03-22T08:22:57Z</time>
      </trkpt>
      <trkpt lat="44.36593" lon="5.80472">
        <ele>847.679</ele>
        <time>2022-03-22T08:23:00Z</time>
      </trkpt>
      <trkpt lat="44.36594" lon="5.80473">
        <ele>847.879</ele>
        <time>2022-03-22T08:23:02Z</time>
      </trkpt>
      <trkpt lat="44.36595" lon="5.80474">
        <ele>848.279</ele>
        <time>2022-03-22T08:23:03Z</time>
      </trkpt>
      <trkpt lat="44.36596" lon="5.80474">
        <ele>848.579</ele>
        <time>2022-03-22T08:23:04Z</time>
      </trkpt>
      <trkpt lat="44.36597" lon="5.80474">
        <ele>848.979</ele>
        <time>2022-03-22T08:23:05Z</time>
      </trkpt>
      <trkpt lat="44.36598" lon="5.80474">
        <ele>849.079</ele>
        <time>2022-03-22T08:23:07Z</time>
      </trkpt>
      <trkpt lat="44.366" lon="5.80474">
        <ele>849.079</ele>
        <time>2022-03-22T08:23:09Z</time>
      </trkpt>
      <trkpt lat="44.36602" lon="5.80474">
        <ele>849.179</ele>
        <time>2022-03-22T08:23:11Z</time>
      </trkpt>
      <trkpt lat="44.36603" lon="5.80474">
        <ele>849.079</ele>
        <time>2022-03-22T08:23:13Z</time>
      </trkpt>
      <trkpt lat="44.36605" lon="5.80474">
        <ele>849.079</ele>
        <time>2022-03-22T08:23:15Z</time>
      </trkpt>
      <trkpt lat="44.36606" lon="5.80474">
        <ele>849.179</ele>
        <time>2022-03-22T08:23:17Z</time>
      </trkpt>
      <trkpt lat="44.36608" lon="5.80473">
        <ele>849.479</ele>
        <time>2022-03-22T08:23:18Z</time>
      </trkpt>
      <trkpt lat="44.3661" lon="5.80473">
        <ele>849.879</ele>
        <time>2022-03-22T08:23:20Z</time>
      </trkpt>
      <trkpt lat="44.36611" lon="5.80473">
        <ele>850.279</ele>
        <time>2022-03-22T08:23:21Z</time>
      </trkpt>
      <trkpt lat="44.36612" lon="5.80473">
        <ele>850.679</ele>
        <time>2022-03-22T08:23:23Z</time>
      </trkpt>
      <trkpt lat="44.36614" lon="5.80473">
        <ele>850.679</ele>
        <time>2022-03-22T08:23:24Z</time>
      </trkpt>
      <trkpt lat="44.36614" lon="5.80472">
        <ele>850.479</ele>
        <time>2022-03-22T08:23:25Z</time>
      </trkpt>
      <trkpt lat="44.36615" lon="5.80471">
        <ele>850.379</ele>
        <time>2022-03-22T08:23:26Z</time>
      </trkpt>
      <trkpt lat="44.36616" lon="5.80471">
        <ele>850.279</ele>
        <time>2022-03-22T08:23:27Z</time>
      </trkpt>
      <trkpt lat="44.36618" lon="5.8047">
        <ele>849.979</ele>
        <time>2022-03-22T08:23:29Z</time>
      </trkpt>
      <trkpt lat="44.36619" lon="5.80469">
        <ele>850.078</ele>
        <time>2022-03-22T08:23:30Z</time>
      </trkpt>
      <trkpt lat="44.36621" lon="5.80468">
        <ele>850.178</ele>
        <time>2022-03-22T08:23:32Z</time>
      </trkpt>
      <trkpt lat="44.36621" lon="5.80467">
        <ele>850.178</ele>
        <time>2022-03-22T08:23:33Z</time>
      </trkpt>
      <trkpt lat="44.36623" lon="5.80466">
        <ele>849.978</ele>
        <time>2022-03-22T08:23:35Z</time>
      </trkpt>
      <trkpt lat="44.36624" lon="5.80467">
        <ele>849.578</ele>
        <time>2022-03-22T08:23:37Z</time>
      </trkpt>
      <trkpt lat="44.36626" lon="5.80467">
        <ele>849.078</ele>
        <time>2022-03-22T08:23:38Z</time>
      </trkpt>
      <trkpt lat="44.36627" lon="5.80467">
        <ele>848.878</ele>
        <time>2022-03-22T08:23:39Z</time>
      </trkpt>
      <trkpt lat="44.36628" lon="5.80467">
        <ele>849.078</ele>
        <time>2022-03-22T08:23:40Z</time>
      </trkpt>
      <trkpt lat="44.3663" lon="5.80467">
        <ele>849.478</ele>
        <time>2022-03-22T08:23:41Z</time>
      </trkpt>
      <trkpt lat="44.36631" lon="5.80468">
        <ele>849.878</ele>
        <time>2022-03-22T08:23:43Z</time>
      </trkpt>
      <trkpt lat="44.36631" lon="5.80469">
        <ele>849.778</ele>
        <time>2022-03-22T08:23:46Z</time>
      </trkpt>
      <trkpt lat="44.36631" lon="5.80469">
        <ele>849.678</ele>
        <time>2022-03-22T08:23:47Z</time>
      </trkpt>
      <trkpt lat="44.3663" lon="5.8047">
        <ele>849.078</ele>
        <time>2022-03-22T08:23:54Z</time>
      </trkpt>
      <trkpt lat="44.3663" lon="5.80471">
        <ele>849.178</ele>
        <time>2022-03-22T08:23:55Z</time>
      </trkpt>
      <trkpt lat="44.36632" lon="5.80471">
        <ele>849.178</ele>
        <time>2022-03-22T08:23:57Z</time>
      </trkpt>
      <trkpt lat="44.36633" lon="5.8047">
        <ele>849.078</ele>
        <time>2022-03-22T08:23:58Z</time>
      </trkpt>
      <trkpt lat="44.36635" lon="5.8047">
        <ele>848.778</ele>
        <time>2022-03-22T08:24:00Z</time>
      </trkpt>
      <trkpt lat="44.36636" lon="5.80471">
        <ele>848.578</ele>
        <time>2022-03-22T08:24:01Z</time>
      </trkpt>
      <trkpt lat="44.36637" lon="5.80471">
        <ele>848.478</ele>
        <time>2022-03-22T08:24:02Z</time>
      </trkpt>
      <trkpt lat="44.36639" lon="5.80471">
        <ele>848.178</ele>
        <time>2022-03-22T08:24:04Z</time>
      </trkpt>
      <trkpt lat="44.36641" lon="5.8047">
        <ele>847.678</ele>
        <time>2022-03-22T08:24:06Z</time>
      </trkpt>
      <trkpt lat="44.36642" lon="5.8047">
        <ele>847.478</ele>
        <time>2022-03-22T08:24:07Z</time>
      </trkpt>
      <trkpt lat="44.36643" lon="5.8047">
        <ele>847.378</ele>
        <time>2022-03-22T08:24:08Z</time>
      </trkpt>
      <trkpt lat="44.36645" lon="5.8047">
        <ele>847.178</ele>
        <time>2022-03-22T08:24:10Z</time>
      </trkpt>
      <trkpt lat="44.36646" lon="5.8047">
        <ele>847.278</ele>
        <time>2022-03-22T08:24:11Z</time>
      </trkpt>
      <trkpt lat="44.36648" lon="5.80472">
        <ele>847.078</ele>
        <time>2022-03-22T08:24:13Z</time>
      </trkpt>
      <trkpt lat="44.36649" lon="5.80474">
        <ele>847.278</ele>
        <time>2022-03-22T08:24:15Z</time>
      </trkpt>
      <trkpt lat="44.36649" lon="5.80475">
        <ele>847.278</ele>
        <time>2022-03-22T08:24:16Z</time>
      </trkpt>
      <trkpt lat="44.3665" lon="5.80476">
        <ele>847.278</ele>
        <time>2022-03-22T08:24:17Z</time>
      </trkpt>
      <trkpt lat="44.3665" lon="5.80478">
        <ele>847.578</ele>
        <time>2022-03-22T08:24:18Z</time>
      </trkpt>
      <trkpt lat="44.36652" lon="5.80479">
        <ele>847.578</ele>
        <time>2022-03-22T08:24:20Z</time>
      </trkpt>
      <trkpt lat="44.36653" lon="5.80479">
        <ele>847.378</ele>
        <time>2022-03-22T08:24:22Z</time>
      </trkpt>
      <trkpt lat="44.36654" lon="5.8048">
        <ele>847.377</ele>
        <time>2022-03-22T08:24:23Z</time>
      </trkpt>
      <trkpt lat="44.36655" lon="5.80481">
        <ele>847.177</ele>
        <time>2022-03-22T08:24:24Z</time>
      </trkpt>
      <trkpt lat="44.36657" lon="5.80483">
        <ele>846.677</ele>
        <time>2022-03-22T08:24:26Z</time>
      </trkpt>
      <trkpt lat="44.36658" lon="5.80483">
        <ele>846.477</ele>
        <time>2022-03-22T08:24:27Z</time>
      </trkpt>
      <trkpt lat="44.36659" lon="5.80483">
        <ele>846.077</ele>
        <time>2022-03-22T08:24:28Z</time>
      </trkpt>
      <trkpt lat="44.3666" lon="5.80484">
        <ele>845.777</ele>
        <time>2022-03-22T08:24:30Z</time>
      </trkpt>
      <trkpt lat="44.36661" lon="5.80483">
        <ele>845.677</ele>
        <time>2022-03-22T08:24:31Z</time>
      </trkpt>
      <trkpt lat="44.36662" lon="5.80483">
        <ele>845.677</ele>
        <time>2022-03-22T08:24:32Z</time>
      </trkpt>
      <trkpt lat="44.36663" lon="5.80482">
        <ele>845.677</ele>
        <time>2022-03-22T08:24:33Z</time>
      </trkpt>
      <trkpt lat="44.36664" lon="5.80482">
        <ele>845.477</ele>
        <time>2022-03-22T08:24:34Z</time>
      </trkpt>
      <trkpt lat="44.36666" lon="5.80481">
        <ele>845.577</ele>
        <time>2022-03-22T08:24:36Z</time>
      </trkpt>
      <trkpt lat="44.36668" lon="5.80481">
        <ele>845.777</ele>
        <time>2022-03-22T08:24:37Z</time>
      </trkpt>
      <trkpt lat="44.36668" lon="5.80481">
        <ele>845.677</ele>
        <time>2022-03-22T08:24:38Z</time>
      </trkpt>
      <trkpt lat="44.3667" lon="5.80482">
        <ele>846.077</ele>
        <time>2022-03-22T08:24:40Z</time>
      </trkpt>
      <trkpt lat="44.36671" lon="5.80482">
        <ele>846.177</ele>
        <time>2022-03-22T08:24:42Z</time>
      </trkpt>
      <trkpt lat="44.36672" lon="5.80482">
        <ele>846.277</ele>
        <time>2022-03-22T08:24:43Z</time>
      </trkpt>
      <trkpt lat="44.36674" lon="5.80481">
        <ele>845.877</ele>
        <time>2022-03-22T08:24:45Z</time>
      </trkpt>
      <trkpt lat="44.36675" lon="5.8048">
        <ele>845.877</ele>
        <time>2022-03-22T08:24:47Z</time>
      </trkpt>
      <trkpt lat="44.36677" lon="5.8048">
        <ele>845.277</ele>
        <time>2022-03-22T08:24:49Z</time>
      </trkpt>
      <trkpt lat="44.36679" lon="5.80479">
        <ele>844.977</ele>
        <time>2022-03-22T08:24:50Z</time>
      </trkpt>
      <trkpt lat="44.3668" lon="5.80479">
        <ele>845.077</ele>
        <time>2022-03-22T08:24:51Z</time>
      </trkpt>
      <trkpt lat="44.36681" lon="5.8048">
        <ele>845.177</ele>
        <time>2022-03-22T08:24:52Z</time>
      </trkpt>
      <trkpt lat="44.36682" lon="5.8048">
        <ele>845.477</ele>
        <time>2022-03-22T08:24:53Z</time>
      </trkpt>
      <trkpt lat="44.36684" lon="5.8048">
        <ele>845.577</ele>
        <time>2022-03-22T08:24:55Z</time>
      </trkpt>
      <trkpt lat="44.36685" lon="5.8048">
        <ele>845.777</ele>
        <time>2022-03-22T08:24:56Z</time>
      </trkpt>
      <trkpt lat="44.36686" lon="5.8048">
        <ele>845.977</ele>
        <time>2022-03-22T08:24:57Z</time>
      </trkpt>
      <trkpt lat="44.36687" lon="5.8048">
        <ele>846.377</ele>
        <time>2022-03-22T08:24:58Z</time>
      </trkpt>
      <trkpt lat="44.36688" lon="5.80481">
        <ele>846.577</ele>
        <time>2022-03-22T08:24:59Z</time>
      </trkpt>
      <trkpt lat="44.36689" lon="5.80481">
        <ele>846.877</ele>
        <time>2022-03-22T08:25:00Z</time>
      </trkpt>
      <trkpt lat="44.3669" lon="5.80482">
        <ele>847.277</ele>
        <time>2022-03-22T08:25:01Z</time>
      </trkpt>
      <trkpt lat="44.36691" lon="5.80483">
        <ele>847.477</ele>
        <time>2022-03-22T08:25:02Z</time>
      </trkpt>
      <trkpt lat="44.36692" lon="5.80483">
        <ele>847.677</ele>
        <time>2022-03-22T08:25:03Z</time>
      </trkpt>
      <trkpt lat="44.36693" lon="5.80483">
        <ele>847.876</ele>
        <time>2022-03-22T08:25:04Z</time>
      </trkpt>
      <trkpt lat="44.36695" lon="5.80485">
        <ele>848.376</ele>
        <time>2022-03-22T08:25:06Z</time>
      </trkpt>
      <trkpt lat="44.36696" lon="5.80485">
        <ele>848.176</ele>
        <time>2022-03-22T08:25:08Z</time>
      </trkpt>
      <trkpt lat="44.36698" lon="5.80483">
        <ele>848.076</ele>
        <time>2022-03-22T08:25:10Z</time>
      </trkpt>
      <trkpt lat="44.36698" lon="5.80483">
        <ele>847.876</ele>
        <time>2022-03-22T08:25:11Z</time>
      </trkpt>
      <trkpt lat="44.36699" lon="5.80481">
        <ele>847.876</ele>
        <time>2022-03-22T08:25:12Z</time>
      </trkpt>
      <trkpt lat="44.367" lon="5.8048">
        <ele>847.776</ele>
        <time>2022-03-22T08:25:13Z</time>
      </trkpt>
      <trkpt lat="44.367" lon="5.80479">
        <ele>847.776</ele>
        <time>2022-03-22T08:25:14Z</time>
      </trkpt>
      <trkpt lat="44.36701" lon="5.80477">
        <ele>847.776</ele>
        <time>2022-03-22T08:25:15Z</time>
      </trkpt>
      <trkpt lat="44.36702" lon="5.80476">
        <ele>847.776</ele>
        <time>2022-03-22T08:25:16Z</time>
      </trkpt>
      <trkpt lat="44.36703" lon="5.80475">
        <ele>847.976</ele>
        <time>2022-03-22T08:25:17Z</time>
      </trkpt>
      <trkpt lat="44.36703" lon="5.80474">
        <ele>848.176</ele>
        <time>2022-03-22T08:25:18Z</time>
      </trkpt>
      <trkpt lat="44.36704" lon="5.80473">
        <ele>848.176</ele>
        <time>2022-03-22T08:25:20Z</time>
      </trkpt>
      <trkpt lat="44.36705" lon="5.80472">
        <ele>848.376</ele>
        <time>2022-03-22T08:25:21Z</time>
      </trkpt>
      <trkpt lat="44.36706" lon="5.80471">
        <ele>848.176</ele>
        <time>2022-03-22T08:25:22Z</time>
      </trkpt>
      <trkpt lat="44.36707" lon="5.8047">
        <ele>848.476</ele>
        <time>2022-03-22T08:25:24Z</time>
      </trkpt>
      <trkpt lat="44.36708" lon="5.80468">
        <ele>848.476</ele>
        <time>2022-03-22T08:25:26Z</time>
      </trkpt>
      <trkpt lat="44.36709" lon="5.80468">
        <ele>848.476</ele>
        <time>2022-03-22T08:25:27Z</time>
      </trkpt>
      <trkpt lat="44.3671" lon="5.80466">
        <ele>848.876</ele>
        <time>2022-03-22T08:25:29Z</time>
      </trkpt>
      <trkpt lat="44.36711" lon="5.80466">
        <ele>849.176</ele>
        <time>2022-03-22T08:25:31Z</time>
      </trkpt>
      <trkpt lat="44.36712" lon="5.80465">
        <ele>849.376</ele>
        <time>2022-03-22T08:25:33Z</time>
      </trkpt>
      <trkpt lat="44.36714" lon="5.80465">
        <ele>849.376</ele>
        <time>2022-03-22T08:25:35Z</time>
      </trkpt>
      <trkpt lat="44.36715" lon="5.80465">
        <ele>849.576</ele>
        <time>2022-03-22T08:25:36Z</time>
      </trkpt>
      <trkpt lat="44.36716" lon="5.80464">
        <ele>849.976</ele>
        <time>2022-03-22T08:25:38Z</time>
      </trkpt>
      <trkpt lat="44.36717" lon="5.80463">
        <ele>850.276</ele>
        <time>2022-03-22T08:25:39Z</time>
      </trkpt>
      <trkpt lat="44.36718" lon="5.80463">
        <ele>850.476</ele>
        <time>2022-03-22T08:25:40Z</time>
      </trkpt>
      <trkpt lat="44.36719" lon="5.80462">
        <ele>850.476</ele>
        <time>2022-03-22T08:25:41Z</time>
      </trkpt>
      <trkpt lat="44.3672" lon="5.80461">
        <ele>851.076</ele>
        <time>2022-03-22T08:25:43Z</time>
      </trkpt>
      <trkpt lat="44.36722" lon="5.8046">
        <ele>851.276</ele>
        <time>2022-03-22T08:25:45Z</time>
      </trkpt>
      <trkpt lat="44.36722" lon="5.80459">
        <ele>851.376</ele>
        <time>2022-03-22T08:25:47Z</time>
      </trkpt>
      <trkpt lat="44.36723" lon="5.80458">
        <ele>851.776</ele>
        <time>2022-03-22T08:25:49Z</time>
      </trkpt>
      <trkpt lat="44.36725" lon="5.80458">
        <ele>852.476</ele>
        <time>2022-03-22T08:25:51Z</time>
      </trkpt>
      <trkpt lat="44.36726" lon="5.80456">
        <ele>852.676</ele>
        <time>2022-03-22T08:25:54Z</time>
      </trkpt>
      <trkpt lat="44.36727" lon="5.80455">
        <ele>852.776</ele>
        <time>2022-03-22T08:25:56Z</time>
      </trkpt>
      <trkpt lat="44.36728" lon="5.80455">
        <ele>852.976</ele>
        <time>2022-03-22T08:25:59Z</time>
      </trkpt>
      <trkpt lat="44.36728" lon="5.80455">
        <ele>853.076</ele>
        <time>2022-03-22T08:26:00Z</time>
      </trkpt>
      <trkpt lat="44.36729" lon="5.80455">
        <ele>853.176</ele>
        <time>2022-03-22T08:26:07Z</time>
      </trkpt>
      <trkpt lat="44.3673" lon="5.80453">
        <ele>854.276</ele>
        <time>2022-03-22T08:26:08Z</time>
      </trkpt>
      <trkpt lat="44.36731" lon="5.80451">
        <ele>854.776</ele>
        <time>2022-03-22T08:26:10Z</time>
      </trkpt>
      <trkpt lat="44.36732" lon="5.8045">
        <ele>855.076</ele>
        <time>2022-03-22T08:26:12Z</time>
      </trkpt>
      <trkpt lat="44.36732" lon="5.80448">
        <ele>855.376</ele>
        <time>2022-03-22T08:26:14Z</time>
      </trkpt>
      <trkpt lat="44.36732" lon="5.80447">
        <ele>855.476</ele>
        <time>2022-03-22T08:26:15Z</time>
      </trkpt>
      <trkpt lat="44.36733" lon="5.80445">
        <ele>855.776</ele>
        <time>2022-03-22T08:26:17Z</time>
      </trkpt>
      <trkpt lat="44.36734" lon="5.80444">
        <ele>856.276</ele>
        <time>2022-03-22T08:26:19Z</time>
      </trkpt>
      <trkpt lat="44.36736" lon="5.80443">
        <ele>856.676</ele>
        <time>2022-03-22T08:26:21Z</time>
      </trkpt>
      <trkpt lat="44.36737" lon="5.80442">
        <ele>856.576</ele>
        <time>2022-03-22T08:26:23Z</time>
      </trkpt>
      <trkpt lat="44.36738" lon="5.8044">
        <ele>856.876</ele>
        <time>2022-03-22T08:26:25Z</time>
      </trkpt>
      <trkpt lat="44.36739" lon="5.8044">
        <ele>856.976</ele>
        <time>2022-03-22T08:26:26Z</time>
      </trkpt>
      <trkpt lat="44.3674" lon="5.80439">
        <ele>857.176</ele>
        <time>2022-03-22T08:26:27Z</time>
      </trkpt>
      <trkpt lat="44.36741" lon="5.80438">
        <ele>857.476</ele>
        <time>2022-03-22T08:26:29Z</time>
      </trkpt>
      <trkpt lat="44.36742" lon="5.80437">
        <ele>857.576</ele>
        <time>2022-03-22T08:26:30Z</time>
      </trkpt>
      <trkpt lat="44.36743" lon="5.80436">
        <ele>857.576</ele>
        <time>2022-03-22T08:26:32Z</time>
      </trkpt>
      <trkpt lat="44.36744" lon="5.80435">
        <ele>857.476</ele>
        <time>2022-03-22T08:26:34Z</time>
      </trkpt>
      <trkpt lat="44.36744" lon="5.80434">
        <ele>857.176</ele>
        <time>2022-03-22T08:26:36Z</time>
      </trkpt>
      <trkpt lat="44.36746" lon="5.80434">
        <ele>857.376</ele>
        <time>2022-03-22T08:26:38Z</time>
      </trkpt>
      <trkpt lat="44.36746" lon="5.80435">
        <ele>857.476</ele>
        <time>2022-03-22T08:26:39Z</time>
      </trkpt>
      <trkpt lat="44.36747" lon="5.80436">
        <ele>857.676</ele>
        <time>2022-03-22T08:26:40Z</time>
      </trkpt>
      <trkpt lat="44.36748" lon="5.80437">
        <ele>857.976</ele>
        <time>2022-03-22T08:26:41Z</time>
      </trkpt>
      <trkpt lat="44.36749" lon="5.80437">
        <ele>858.276</ele>
        <time>2022-03-22T08:26:42Z</time>
      </trkpt>
      <trkpt lat="44.36751" lon="5.80437">
        <ele>858.775</ele>
        <time>2022-03-22T08:26:44Z</time>
      </trkpt>
      <trkpt lat="44.36752" lon="5.80437">
        <ele>858.975</ele>
        <time>2022-03-22T08:26:46Z</time>
      </trkpt>
      <trkpt lat="44.36754" lon="5.80437">
        <ele>859.275</ele>
        <time>2022-03-22T08:26:48Z</time>
      </trkpt>
      <trkpt lat="44.36756" lon="5.80436">
        <ele>859.275</ele>
        <time>2022-03-22T08:26:50Z</time>
      </trkpt>
      <trkpt lat="44.36757" lon="5.80436">
        <ele>859.375</ele>
        <time>2022-03-22T08:26:51Z</time>
      </trkpt>
      <trkpt lat="44.36757" lon="5.80435">
        <ele>859.975</ele>
        <time>2022-03-22T08:26:53Z</time>
      </trkpt>
      <trkpt lat="44.36758" lon="5.80434">
        <ele>860.875</ele>
        <time>2022-03-22T08:26:55Z</time>
      </trkpt>
      <trkpt lat="44.36759" lon="5.80432">
        <ele>862.075</ele>
        <time>2022-03-22T08:26:57Z</time>
      </trkpt>
      <trkpt lat="44.3676" lon="5.80432">
        <ele>862.375</ele>
        <time>2022-03-22T08:26:59Z</time>
      </trkpt>
      <trkpt lat="44.36761" lon="5.80431">
        <ele>862.275</ele>
        <time>2022-03-22T08:27:01Z</time>
      </trkpt>
      <trkpt lat="44.36762" lon="5.8043">
        <ele>862.175</ele>
        <time>2022-03-22T08:27:03Z</time>
      </trkpt>
      <trkpt lat="44.36761" lon="5.8043">
        <ele>862.275</ele>
        <time>2022-03-22T08:27:07Z</time>
      </trkpt>
      <trkpt lat="44.36761" lon="5.80431">
        <ele>862.375</ele>
        <time>2022-03-22T08:27:08Z</time>
      </trkpt>
      <trkpt lat="44.36761" lon="5.80431">
        <ele>862.375</ele>
        <time>2022-03-22T08:27:09Z</time>
      </trkpt>
      <trkpt lat="44.36761" lon="5.80431">
        <ele>862.375</ele>
        <time>2022-03-22T08:27:10Z</time>
      </trkpt>
      <trkpt lat="44.36763" lon="5.80429">
        <ele>862.575</ele>
        <time>2022-03-22T08:27:12Z</time>
      </trkpt>
      <trkpt lat="44.36764" lon="5.80428">
        <ele>862.875</ele>
        <time>2022-03-22T08:27:14Z</time>
      </trkpt>
      <trkpt lat="44.36765" lon="5.80427">
        <ele>862.575</ele>
        <time>2022-03-22T08:27:16Z</time>
      </trkpt>
      <trkpt lat="44.36766" lon="5.80426">
        <ele>862.675</ele>
        <time>2022-03-22T08:27:18Z</time>
      </trkpt>
      <trkpt lat="44.36767" lon="5.80425">
        <ele>862.675</ele>
        <time>2022-03-22T08:27:20Z</time>
      </trkpt>
      <trkpt lat="44.36769" lon="5.80423">
        <ele>862.575</ele>
        <time>2022-03-22T08:27:22Z</time>
      </trkpt>
      <trkpt lat="44.3677" lon="5.80422">
        <ele>862.375</ele>
        <time>2022-03-22T08:27:23Z</time>
      </trkpt>
      <trkpt lat="44.36771" lon="5.80422">
        <ele>862.375</ele>
        <time>2022-03-22T08:27:24Z</time>
      </trkpt>
      <trkpt lat="44.36773" lon="5.80421">
        <ele>861.775</ele>
        <time>2022-03-22T08:27:26Z</time>
      </trkpt>
      <trkpt lat="44.36774" lon="5.80421">
        <ele>861.875</ele>
        <time>2022-03-22T08:27:27Z</time>
      </trkpt>
      <trkpt lat="44.36775" lon="5.80421">
        <ele>862.175</ele>
        <time>2022-03-22T08:27:28Z</time>
      </trkpt>
      <trkpt lat="44.36775" lon="5.8042">
        <ele>862.575</ele>
        <time>2022-03-22T08:27:29Z</time>
      </trkpt>
      <trkpt lat="44.36776" lon="5.8042">
        <ele>862.675</ele>
        <time>2022-03-22T08:27:30Z</time>
      </trkpt>
      <trkpt lat="44.36778" lon="5.80419">
        <ele>862.575</ele>
        <time>2022-03-22T08:27:32Z</time>
      </trkpt>
      <trkpt lat="44.36779" lon="5.80419">
        <ele>863.075</ele>
        <time>2022-03-22T08:27:34Z</time>
      </trkpt>
      <trkpt lat="44.36781" lon="5.80419">
        <ele>862.875</ele>
        <time>2022-03-22T08:27:37Z</time>
      </trkpt>
      <trkpt lat="44.36782" lon="5.80419">
        <ele>862.975</ele>
        <time>2022-03-22T08:27:38Z</time>
      </trkpt>
      <trkpt lat="44.36783" lon="5.80419">
        <ele>862.875</ele>
        <time>2022-03-22T08:27:40Z</time>
      </trkpt>
      <trkpt lat="44.36784" lon="5.80419">
        <ele>862.875</ele>
        <time>2022-03-22T08:27:41Z</time>
      </trkpt>
      <trkpt lat="44.36785" lon="5.80419">
        <ele>862.875</ele>
        <time>2022-03-22T08:27:43Z</time>
      </trkpt>
      <trkpt lat="44.36787" lon="5.80419">
        <ele>862.775</ele>
        <time>2022-03-22T08:27:45Z</time>
      </trkpt>
      <trkpt lat="44.36788" lon="5.80418">
        <ele>862.675</ele>
        <time>2022-03-22T08:27:47Z</time>
      </trkpt>
      <trkpt lat="44.3679" lon="5.80418">
        <ele>862.775</ele>
        <time>2022-03-22T08:27:49Z</time>
      </trkpt>
      <trkpt lat="44.36792" lon="5.80418">
        <ele>862.875</ele>
        <time>2022-03-22T08:27:51Z</time>
      </trkpt>
      <trkpt lat="44.36793" lon="5.80419">
        <ele>863.475</ele>
        <time>2022-03-22T08:27:53Z</time>
      </trkpt>
      <trkpt lat="44.36794" lon="5.80419">
        <ele>863.775</ele>
        <time>2022-03-22T08:27:54Z</time>
      </trkpt>
      <trkpt lat="44.36796" lon="5.80419">
        <ele>864.475</ele>
        <time>2022-03-22T08:27:56Z</time>
      </trkpt>
      <trkpt lat="44.36797" lon="5.8042">
        <ele>864.775</ele>
        <time>2022-03-22T08:27:57Z</time>
      </trkpt>
      <trkpt lat="44.36798" lon="5.80421">
        <ele>865.374</ele>
        <time>2022-03-22T08:27:59Z</time>
      </trkpt>
      <trkpt lat="44.36799" lon="5.80421">
        <ele>865.574</ele>
        <time>2022-03-22T08:28:01Z</time>
      </trkpt>
      <trkpt lat="44.36801" lon="5.80422">
        <ele>865.774</ele>
        <time>2022-03-22T08:28:03Z</time>
      </trkpt>
      <trkpt lat="44.36802" lon="5.80422">
        <ele>865.974</ele>
        <time>2022-03-22T08:28:05Z</time>
      </trkpt>
      <trkpt lat="44.36803" lon="5.80423">
        <ele>866.174</ele>
        <time>2022-03-22T08:28:07Z</time>
      </trkpt>
      <trkpt lat="44.36804" lon="5.80423">
        <ele>866.274</ele>
        <time>2022-03-22T08:28:08Z</time>
      </trkpt>
      <trkpt lat="44.36806" lon="5.80424">
        <ele>866.674</ele>
        <time>2022-03-22T08:28:10Z</time>
      </trkpt>
      <trkpt lat="44.36806" lon="5.80426">
        <ele>866.874</ele>
        <time>2022-03-22T08:28:12Z</time>
      </trkpt>
      <trkpt lat="44.36808" lon="5.80428">
        <ele>867.174</ele>
        <time>2022-03-22T08:28:14Z</time>
      </trkpt>
      <trkpt lat="44.36809" lon="5.80429">
        <ele>867.374</ele>
        <time>2022-03-22T08:28:16Z</time>
      </trkpt>
      <trkpt lat="44.3681" lon="5.8043">
        <ele>867.774</ele>
        <time>2022-03-22T08:28:18Z</time>
      </trkpt>
      <trkpt lat="44.36812" lon="5.80429">
        <ele>868.374</ele>
        <time>2022-03-22T08:28:20Z</time>
      </trkpt>
      <trkpt lat="44.36813" lon="5.80429">
        <ele>868.474</ele>
        <time>2022-03-22T08:28:21Z</time>
      </trkpt>
      <trkpt lat="44.36814" lon="5.80429">
        <ele>868.874</ele>
        <time>2022-03-22T08:28:23Z</time>
      </trkpt>
      <trkpt lat="44.36815" lon="5.80428">
        <ele>869.074</ele>
        <time>2022-03-22T08:28:24Z</time>
      </trkpt>
      <trkpt lat="44.36817" lon="5.80427">
        <ele>869.374</ele>
        <time>2022-03-22T08:28:26Z</time>
      </trkpt>
      <trkpt lat="44.36818" lon="5.80426">
        <ele>869.574</ele>
        <time>2022-03-22T08:28:28Z</time>
      </trkpt>
      <trkpt lat="44.36819" lon="5.80424">
        <ele>869.774</ele>
        <time>2022-03-22T08:28:30Z</time>
      </trkpt>
      <trkpt lat="44.3682" lon="5.80424">
        <ele>869.674</ele>
        <time>2022-03-22T08:28:32Z</time>
      </trkpt>
      <trkpt lat="44.36821" lon="5.80422">
        <ele>870.274</ele>
        <time>2022-03-22T08:28:34Z</time>
      </trkpt>
      <trkpt lat="44.36821" lon="5.80421">
        <ele>871.674</ele>
        <time>2022-03-22T08:28:36Z</time>
      </trkpt>
      <trkpt lat="44.36822" lon="5.8042">
        <ele>872.874</ele>
        <time>2022-03-22T08:28:40Z</time>
      </trkpt>
      <trkpt lat="44.36823" lon="5.80418">
        <ele>873.174</ele>
        <time>2022-03-22T08:28:42Z</time>
      </trkpt>
      <trkpt lat="44.36825" lon="5.80417">
        <ele>873.074</ele>
        <time>2022-03-22T08:28:44Z</time>
      </trkpt>
      <trkpt lat="44.36826" lon="5.80417">
        <ele>873.274</ele>
        <time>2022-03-22T08:28:46Z</time>
      </trkpt>
      <trkpt lat="44.36826" lon="5.80415">
        <ele>873.974</ele>
        <time>2022-03-22T08:28:49Z</time>
      </trkpt>
      <trkpt lat="44.36827" lon="5.80414">
        <ele>874.074</ele>
        <time>2022-03-22T08:28:50Z</time>
      </trkpt>
      <trkpt lat="44.36829" lon="5.80413">
        <ele>874.574</ele>
        <time>2022-03-22T08:28:52Z</time>
      </trkpt>
      <trkpt lat="44.3683" lon="5.80413">
        <ele>874.074</ele>
        <time>2022-03-22T08:28:54Z</time>
      </trkpt>
      <trkpt lat="44.36832" lon="5.80415">
        <ele>873.574</ele>
        <time>2022-03-22T08:28:56Z</time>
      </trkpt>
      <trkpt lat="44.36833" lon="5.80415">
        <ele>873.674</ele>
        <time>2022-03-22T08:28:58Z</time>
      </trkpt>
      <trkpt lat="44.36834" lon="5.80416">
        <ele>873.674</ele>
        <time>2022-03-22T08:29:00Z</time>
      </trkpt>
      <trkpt lat="44.36836" lon="5.80416">
        <ele>873.774</ele>
        <time>2022-03-22T08:29:02Z</time>
      </trkpt>
      <trkpt lat="44.36837" lon="5.80416">
        <ele>873.674</ele>
        <time>2022-03-22T08:29:04Z</time>
      </trkpt>
      <trkpt lat="44.36839" lon="5.80416">
        <ele>873.674</ele>
        <time>2022-03-22T08:29:06Z</time>
      </trkpt>
      <trkpt lat="44.3684" lon="5.80416">
        <ele>873.473</ele>
        <time>2022-03-22T08:29:08Z</time>
      </trkpt>
      <trkpt lat="44.36841" lon="5.80417">
        <ele>873.973</ele>
        <time>2022-03-22T08:29:10Z</time>
      </trkpt>
      <trkpt lat="44.36843" lon="5.80416">
        <ele>874.073</ele>
        <time>2022-03-22T08:29:12Z</time>
      </trkpt>
      <trkpt lat="44.36844" lon="5.80416">
        <ele>875.173</ele>
        <time>2022-03-22T08:29:15Z</time>
      </trkpt>
      <trkpt lat="44.36845" lon="5.80416">
        <ele>876.173</ele>
        <time>2022-03-22T08:29:21Z</time>
      </trkpt>
      <trkpt lat="44.36847" lon="5.80414">
        <ele>876.873</ele>
        <time>2022-03-22T08:29:23Z</time>
      </trkpt>
      <trkpt lat="44.36848" lon="5.80412">
        <ele>877.373</ele>
        <time>2022-03-22T08:29:25Z</time>
      </trkpt>
      <trkpt lat="44.36849" lon="5.8041">
        <ele>877.773</ele>
        <time>2022-03-22T08:29:27Z</time>
      </trkpt>
      <trkpt lat="44.3685" lon="5.8041">
        <ele>878.073</ele>
        <time>2022-03-22T08:29:28Z</time>
      </trkpt>
      <trkpt lat="44.36851" lon="5.8041">
        <ele>878.473</ele>
        <time>2022-03-22T08:29:29Z</time>
      </trkpt>
      <trkpt lat="44.36852" lon="5.80409">
        <ele>878.473</ele>
        <time>2022-03-22T08:29:30Z</time>
      </trkpt>
      <trkpt lat="44.36853" lon="5.80408">
        <ele>878.573</ele>
        <time>2022-03-22T08:29:31Z</time>
      </trkpt>
      <trkpt lat="44.36854" lon="5.80407">
        <ele>878.573</ele>
        <time>2022-03-22T08:29:33Z</time>
      </trkpt>
      <trkpt lat="44.36855" lon="5.80407">
        <ele>877.973</ele>
        <time>2022-03-22T08:29:35Z</time>
      </trkpt>
      <trkpt lat="44.36856" lon="5.80407">
        <ele>877.873</ele>
        <time>2022-03-22T08:29:36Z</time>
      </trkpt>
      <trkpt lat="44.36858" lon="5.80407">
        <ele>878.073</ele>
        <time>2022-03-22T08:29:38Z</time>
      </trkpt>
      <trkpt lat="44.36859" lon="5.80406">
        <ele>877.973</ele>
        <time>2022-03-22T08:29:39Z</time>
      </trkpt>
      <trkpt lat="44.3686" lon="5.80405">
        <ele>877.673</ele>
        <time>2022-03-22T08:29:41Z</time>
      </trkpt>
      <trkpt lat="44.36862" lon="5.80405">
        <ele>877.373</ele>
        <time>2022-03-22T08:29:43Z</time>
      </trkpt>
      <trkpt lat="44.36863" lon="5.80404">
        <ele>877.273</ele>
        <time>2022-03-22T08:29:45Z</time>
      </trkpt>
      <trkpt lat="44.36864" lon="5.80404">
        <ele>876.973</ele>
        <time>2022-03-22T08:29:47Z</time>
      </trkpt>
      <trkpt lat="44.36865" lon="5.80403">
        <ele>876.673</ele>
        <time>2022-03-22T08:29:49Z</time>
      </trkpt>
      <trkpt lat="44.36866" lon="5.80404">
        <ele>876.873</ele>
        <time>2022-03-22T08:29:51Z</time>
      </trkpt>
      <trkpt lat="44.36867" lon="5.80404">
        <ele>877.073</ele>
        <time>2022-03-22T08:29:53Z</time>
      </trkpt>
      <trkpt lat="44.36868" lon="5.80403">
        <ele>876.773</ele>
        <time>2022-03-22T08:29:55Z</time>
      </trkpt>
      <trkpt lat="44.36869" lon="5.80403">
        <ele>876.873</ele>
        <time>2022-03-22T08:29:57Z</time>
      </trkpt>
      <trkpt lat="44.36871" lon="5.80403">
        <ele>876.973</ele>
        <time>2022-03-22T08:29:59Z</time>
      </trkpt>
      <trkpt lat="44.36873" lon="5.80403">
        <ele>877.373</ele>
        <time>2022-03-22T08:30:01Z</time>
      </trkpt>
      <trkpt lat="44.36874" lon="5.80403">
        <ele>877.373</ele>
        <time>2022-03-22T08:30:02Z</time>
      </trkpt>
      <trkpt lat="44.36875" lon="5.80402">
        <ele>877.573</ele>
        <time>2022-03-22T08:30:03Z</time>
      </trkpt>
      <trkpt lat="44.36876" lon="5.80403">
        <ele>877.673</ele>
        <time>2022-03-22T08:30:05Z</time>
      </trkpt>
      <trkpt lat="44.36878" lon="5.80402">
        <ele>877.873</ele>
        <time>2022-03-22T08:30:07Z</time>
      </trkpt>
      <trkpt lat="44.36878" lon="5.80401">
        <ele>877.973</ele>
        <time>2022-03-22T08:30:08Z</time>
      </trkpt>
      <trkpt lat="44.36879" lon="5.80399">
        <ele>877.973</ele>
        <time>2022-03-22T08:30:10Z</time>
      </trkpt>
      <trkpt lat="44.36879" lon="5.80398">
        <ele>878.373</ele>
        <time>2022-03-22T08:30:12Z</time>
      </trkpt>
      <trkpt lat="44.36879" lon="5.80396">
        <ele>878.473</ele>
        <time>2022-03-22T08:30:14Z</time>
      </trkpt>
      <trkpt lat="44.36879" lon="5.80394">
        <ele>878.473</ele>
        <time>2022-03-22T08:30:16Z</time>
      </trkpt>
      <trkpt lat="44.3688" lon="5.80393">
        <ele>878.273</ele>
        <time>2022-03-22T08:30:18Z</time>
      </trkpt>
      <trkpt lat="44.36881" lon="5.80392">
        <ele>878.473</ele>
        <time>2022-03-22T08:30:20Z</time>
      </trkpt>
      <trkpt lat="44.36882" lon="5.80392">
        <ele>878.573</ele>
        <time>2022-03-22T08:30:21Z</time>
      </trkpt>
      <trkpt lat="44.36883" lon="5.80392">
        <ele>878.373</ele>
        <time>2022-03-22T08:30:22Z</time>
      </trkpt>
      <trkpt lat="44.36884" lon="5.80393">
        <ele>878.173</ele>
        <time>2022-03-22T08:30:24Z</time>
      </trkpt>
      <trkpt lat="44.36886" lon="5.80393">
        <ele>878.273</ele>
        <time>2022-03-22T08:30:26Z</time>
      </trkpt>
      <trkpt lat="44.36887" lon="5.80393">
        <ele>878.473</ele>
        <time>2022-03-22T08:30:27Z</time>
      </trkpt>
      <trkpt lat="44.36888" lon="5.80393">
        <ele>878.872</ele>
        <time>2022-03-22T08:30:28Z</time>
      </trkpt>
      <trkpt lat="44.36889" lon="5.80393">
        <ele>879.172</ele>
        <time>2022-03-22T08:30:30Z</time>
      </trkpt>
      <trkpt lat="44.36891" lon="5.80394">
        <ele>879.372</ele>
        <time>2022-03-22T08:30:32Z</time>
      </trkpt>
      <trkpt lat="44.36892" lon="5.80394">
        <ele>879.372</ele>
        <time>2022-03-22T08:30:34Z</time>
      </trkpt>
      <trkpt lat="44.36894" lon="5.80395">
        <ele>879.372</ele>
        <time>2022-03-22T08:30:36Z</time>
      </trkpt>
      <trkpt lat="44.36895" lon="5.80396">
        <ele>879.572</ele>
        <time>2022-03-22T08:30:38Z</time>
      </trkpt>
      <trkpt lat="44.36896" lon="5.80398">
        <ele>879.972</ele>
        <time>2022-03-22T08:30:40Z</time>
      </trkpt>
      <trkpt lat="44.36897" lon="5.80399">
        <ele>880.272</ele>
        <time>2022-03-22T08:30:42Z</time>
      </trkpt>
      <trkpt lat="44.36898" lon="5.80399">
        <ele>880.272</ele>
        <time>2022-03-22T08:30:43Z</time>
      </trkpt>
      <trkpt lat="44.36898" lon="5.804">
        <ele>880.472</ele>
        <time>2022-03-22T08:30:44Z</time>
      </trkpt>
      <trkpt lat="44.369" lon="5.80401">
        <ele>880.372</ele>
        <time>2022-03-22T08:30:46Z</time>
      </trkpt>
      <trkpt lat="44.36901" lon="5.80402">
        <ele>880.972</ele>
        <time>2022-03-22T08:30:48Z</time>
      </trkpt>
      <trkpt lat="44.36902" lon="5.80402">
        <ele>881.472</ele>
        <time>2022-03-22T08:30:50Z</time>
      </trkpt>
      <trkpt lat="44.36903" lon="5.80402">
        <ele>881.772</ele>
        <time>2022-03-22T08:30:52Z</time>
      </trkpt>
      <trkpt lat="44.36905" lon="5.80403">
        <ele>882.272</ele>
        <time>2022-03-22T08:30:54Z</time>
      </trkpt>
      <trkpt lat="44.36906" lon="5.80404">
        <ele>882.572</ele>
        <time>2022-03-22T08:30:56Z</time>
      </trkpt>
      <trkpt lat="44.36908" lon="5.80404">
        <ele>883.172</ele>
        <time>2022-03-22T08:30:58Z</time>
      </trkpt>
      <trkpt lat="44.3691" lon="5.80406">
        <ele>883.672</ele>
        <time>2022-03-22T08:31:00Z</time>
      </trkpt>
      <trkpt lat="44.36911" lon="5.80408">
        <ele>883.972</ele>
        <time>2022-03-22T08:31:02Z</time>
      </trkpt>
      <trkpt lat="44.36912" lon="5.80408">
        <ele>884.172</ele>
        <time>2022-03-22T08:31:03Z</time>
      </trkpt>
      <trkpt lat="44.36913" lon="5.80409">
        <ele>884.472</ele>
        <time>2022-03-22T08:31:05Z</time>
      </trkpt>
      <trkpt lat="44.36915" lon="5.80409">
        <ele>884.472</ele>
        <time>2022-03-22T08:31:07Z</time>
      </trkpt>
      <trkpt lat="44.36916" lon="5.8041">
        <ele>884.672</ele>
        <time>2022-03-22T08:31:09Z</time>
      </trkpt>
      <trkpt lat="44.36917" lon="5.8041">
        <ele>884.772</ele>
        <time>2022-03-22T08:31:11Z</time>
      </trkpt>
      <trkpt lat="44.36918" lon="5.80411">
        <ele>884.972</ele>
        <time>2022-03-22T08:31:12Z</time>
      </trkpt>
      <trkpt lat="44.36919" lon="5.80412">
        <ele>885.172</ele>
        <time>2022-03-22T08:31:13Z</time>
      </trkpt>
      <trkpt lat="44.36921" lon="5.80412">
        <ele>885.471</ele>
        <time>2022-03-22T08:31:15Z</time>
      </trkpt>
      <trkpt lat="44.36922" lon="5.80412">
        <ele>885.671</ele>
        <time>2022-03-22T08:31:17Z</time>
      </trkpt>
      <trkpt lat="44.36924" lon="5.80412">
        <ele>885.671</ele>
        <time>2022-03-22T08:31:19Z</time>
      </trkpt>
      <trkpt lat="44.36925" lon="5.80413">
        <ele>885.471</ele>
        <time>2022-03-22T08:31:21Z</time>
      </trkpt>
      <trkpt lat="44.36927" lon="5.80413">
        <ele>885.271</ele>
        <time>2022-03-22T08:31:23Z</time>
      </trkpt>
      <trkpt lat="44.36929" lon="5.80413">
        <ele>885.271</ele>
        <time>2022-03-22T08:31:25Z</time>
      </trkpt>
      <trkpt lat="44.3693" lon="5.80414">
        <ele>885.371</ele>
        <time>2022-03-22T08:31:27Z</time>
      </trkpt>
      <trkpt lat="44.36931" lon="5.80414">
        <ele>885.771</ele>
        <time>2022-03-22T08:31:29Z</time>
      </trkpt>
      <trkpt lat="44.36933" lon="5.80414">
        <ele>885.771</ele>
        <time>2022-03-22T08:31:31Z</time>
      </trkpt>
      <trkpt lat="44.36934" lon="5.80414">
        <ele>885.971</ele>
        <time>2022-03-22T08:31:32Z</time>
      </trkpt>
      <trkpt lat="44.36935" lon="5.80414">
        <ele>886.071</ele>
        <time>2022-03-22T08:31:33Z</time>
      </trkpt>
      <trkpt lat="44.36936" lon="5.80414">
        <ele>886.371</ele>
        <time>2022-03-22T08:31:35Z</time>
      </trkpt>
      <trkpt lat="44.36938" lon="5.80414">
        <ele>886.871</ele>
        <time>2022-03-22T08:31:37Z</time>
      </trkpt>
      <trkpt lat="44.36939" lon="5.80414">
        <ele>886.971</ele>
        <time>2022-03-22T08:31:39Z</time>
      </trkpt>
      <trkpt lat="44.36941" lon="5.80415">
        <ele>887.071</ele>
        <time>2022-03-22T08:31:41Z</time>
      </trkpt>
      <trkpt lat="44.36942" lon="5.80414">
        <ele>887.071</ele>
        <time>2022-03-22T08:31:42Z</time>
      </trkpt>
      <trkpt lat="44.36943" lon="5.80414">
        <ele>887.071</ele>
        <time>2022-03-22T08:31:43Z</time>
      </trkpt>
      <trkpt lat="44.36944" lon="5.80414">
        <ele>887.471</ele>
        <time>2022-03-22T08:31:45Z</time>
      </trkpt>
      <trkpt lat="44.36945" lon="5.80414">
        <ele>888.271</ele>
        <time>2022-03-22T08:31:47Z</time>
      </trkpt>
      <trkpt lat="44.36946" lon="5.80413">
        <ele>888.471</ele>
        <time>2022-03-22T08:31:49Z</time>
      </trkpt>
      <trkpt lat="44.36947" lon="5.80413">
        <ele>888.771</ele>
        <time>2022-03-22T08:31:51Z</time>
      </trkpt>
      <trkpt lat="44.36949" lon="5.80413">
        <ele>889.071</ele>
        <time>2022-03-22T08:31:53Z</time>
      </trkpt>
      <trkpt lat="44.36951" lon="5.80413">
        <ele>889.171</ele>
        <time>2022-03-22T08:31:55Z</time>
      </trkpt>
      <trkpt lat="44.36952" lon="5.80413">
        <ele>889.171</ele>
        <time>2022-03-22T08:31:57Z</time>
      </trkpt>
      <trkpt lat="44.36953" lon="5.80413">
        <ele>889.471</ele>
        <time>2022-03-22T08:31:59Z</time>
      </trkpt>
      <trkpt lat="44.36954" lon="5.80413">
        <ele>889.671</ele>
        <time>2022-03-22T08:32:00Z</time>
      </trkpt>
      <trkpt lat="44.36956" lon="5.80413">
        <ele>889.971</ele>
        <time>2022-03-22T08:32:02Z</time>
      </trkpt>
      <trkpt lat="44.36957" lon="5.80414">
        <ele>889.971</ele>
        <time>2022-03-22T08:32:03Z</time>
      </trkpt>
      <trkpt lat="44.36958" lon="5.80415">
        <ele>890.471</ele>
        <time>2022-03-22T08:32:05Z</time>
      </trkpt>
      <trkpt lat="44.36959" lon="5.80417">
        <ele>891.27</ele>
        <time>2022-03-22T08:32:07Z</time>
      </trkpt>
      <trkpt lat="44.3696" lon="5.80418">
        <ele>891.67</ele>
        <time>2022-03-22T08:32:09Z</time>
      </trkpt>
      <trkpt lat="44.36961" lon="5.80419">
        <ele>891.87</ele>
        <time>2022-03-22T08:32:11Z</time>
      </trkpt>
      <trkpt lat="44.36962" lon="5.80421">
        <ele>891.97</ele>
        <time>2022-03-22T08:32:13Z</time>
      </trkpt>
      <trkpt lat="44.36963" lon="5.80422">
        <ele>891.97</ele>
        <time>2022-03-22T08:32:15Z</time>
      </trkpt>
      <trkpt lat="44.36964" lon="5.80424">
        <ele>892.07</ele>
        <time>2022-03-22T08:32:17Z</time>
      </trkpt>
      <trkpt lat="44.36964" lon="5.80426">
        <ele>892.47</ele>
        <time>2022-03-22T08:32:19Z</time>
      </trkpt>
      <trkpt lat="44.36965" lon="5.80427">
        <ele>892.57</ele>
        <time>2022-03-22T08:32:20Z</time>
      </trkpt>
      <trkpt lat="44.36965" lon="5.80428">
        <ele>892.67</ele>
        <time>2022-03-22T08:32:21Z</time>
      </trkpt>
      <trkpt lat="44.36965" lon="5.8043">
        <ele>892.77</ele>
        <time>2022-03-22T08:32:22Z</time>
      </trkpt>
      <trkpt lat="44.36966" lon="5.80431">
        <ele>892.77</ele>
        <time>2022-03-22T08:32:23Z</time>
      </trkpt>
      <trkpt lat="44.36966" lon="5.80432">
        <ele>892.87</ele>
        <time>2022-03-22T08:32:25Z</time>
      </trkpt>
      <trkpt lat="44.36967" lon="5.80435">
        <ele>892.97</ele>
        <time>2022-03-22T08:32:27Z</time>
      </trkpt>
      <trkpt lat="44.36968" lon="5.80436">
        <ele>893.17</ele>
        <time>2022-03-22T08:32:29Z</time>
      </trkpt>
      <trkpt lat="44.36969" lon="5.80437">
        <ele>893.47</ele>
        <time>2022-03-22T08:32:31Z</time>
      </trkpt>
      <trkpt lat="44.3697" lon="5.80438">
        <ele>893.67</ele>
        <time>2022-03-22T08:32:33Z</time>
      </trkpt>
      <trkpt lat="44.36972" lon="5.80439">
        <ele>893.97</ele>
        <time>2022-03-22T08:32:35Z</time>
      </trkpt>
      <trkpt lat="44.36974" lon="5.80439">
        <ele>894.17</ele>
        <time>2022-03-22T08:32:37Z</time>
      </trkpt>
      <trkpt lat="44.36974" lon="5.8044">
        <ele>894.37</ele>
        <time>2022-03-22T08:32:38Z</time>
      </trkpt>
      <trkpt lat="44.36975" lon="5.8044">
        <ele>894.67</ele>
        <time>2022-03-22T08:32:39Z</time>
      </trkpt>
      <trkpt lat="44.36977" lon="5.8044">
        <ele>894.97</ele>
        <time>2022-03-22T08:32:41Z</time>
      </trkpt>
      <trkpt lat="44.36978" lon="5.80441">
        <ele>895.07</ele>
        <time>2022-03-22T08:32:43Z</time>
      </trkpt>
      <trkpt lat="44.3698" lon="5.80442">
        <ele>895.37</ele>
        <time>2022-03-22T08:32:45Z</time>
      </trkpt>
      <trkpt lat="44.36981" lon="5.80442">
        <ele>895.67</ele>
        <time>2022-03-22T08:32:47Z</time>
      </trkpt>
      <trkpt lat="44.36982" lon="5.80443">
        <ele>895.67</ele>
        <time>2022-03-22T08:32:49Z</time>
      </trkpt>
      <trkpt lat="44.36983" lon="5.80443">
        <ele>895.77</ele>
        <time>2022-03-22T08:32:51Z</time>
      </trkpt>
      <trkpt lat="44.36984" lon="5.80444">
        <ele>895.87</ele>
        <time>2022-03-22T08:32:53Z</time>
      </trkpt>
      <trkpt lat="44.36985" lon="5.80445">
        <ele>895.97</ele>
        <time>2022-03-22T08:32:55Z</time>
      </trkpt>
      <trkpt lat="44.36986" lon="5.80446">
        <ele>896.37</ele>
        <time>2022-03-22T08:32:57Z</time>
      </trkpt>
      <trkpt lat="44.36988" lon="5.80448">
        <ele>896.569</ele>
        <time>2022-03-22T08:32:59Z</time>
      </trkpt>
      <trkpt lat="44.36989" lon="5.80449">
        <ele>896.969</ele>
        <time>2022-03-22T08:33:01Z</time>
      </trkpt>
      <trkpt lat="44.3699" lon="5.80449">
        <ele>897.369</ele>
        <time>2022-03-22T08:33:03Z</time>
      </trkpt>
      <trkpt lat="44.36991" lon="5.80451">
        <ele>897.769</ele>
        <time>2022-03-22T08:33:05Z</time>
      </trkpt>
      <trkpt lat="44.36992" lon="5.80451">
        <ele>898.069</ele>
        <time>2022-03-22T08:33:06Z</time>
      </trkpt>
      <trkpt lat="44.36993" lon="5.80452">
        <ele>898.169</ele>
        <time>2022-03-22T08:33:07Z</time>
      </trkpt>
      <trkpt lat="44.36994" lon="5.80453">
        <ele>898.669</ele>
        <time>2022-03-22T08:33:09Z</time>
      </trkpt>
      <trkpt lat="44.36995" lon="5.80454">
        <ele>899.069</ele>
        <time>2022-03-22T08:33:11Z</time>
      </trkpt>
      <trkpt lat="44.36996" lon="5.80455">
        <ele>899.369</ele>
        <time>2022-03-22T08:33:12Z</time>
      </trkpt>
      <trkpt lat="44.36998" lon="5.80455">
        <ele>899.969</ele>
        <time>2022-03-22T08:33:14Z</time>
      </trkpt>
      <trkpt lat="44.36999" lon="5.80456">
        <ele>900.469</ele>
        <time>2022-03-22T08:33:16Z</time>
      </trkpt>
      <trkpt lat="44.37" lon="5.80457">
        <ele>900.769</ele>
        <time>2022-03-22T08:33:18Z</time>
      </trkpt>
      <trkpt lat="44.37002" lon="5.80457">
        <ele>901.169</ele>
        <time>2022-03-22T08:33:20Z</time>
      </trkpt>
      <trkpt lat="44.37004" lon="5.80458">
        <ele>901.269</ele>
        <time>2022-03-22T08:33:22Z</time>
      </trkpt>
      <trkpt lat="44.37005" lon="5.80459">
        <ele>901.169</ele>
        <time>2022-03-22T08:33:25Z</time>
      </trkpt>
      <trkpt lat="44.37006" lon="5.80458">
        <ele>901.069</ele>
        <time>2022-03-22T08:33:27Z</time>
      </trkpt>
      <trkpt lat="44.37007" lon="5.80458">
        <ele>901.169</ele>
        <time>2022-03-22T08:33:28Z</time>
      </trkpt>
      <trkpt lat="44.37009" lon="5.80458">
        <ele>900.969</ele>
        <time>2022-03-22T08:33:30Z</time>
      </trkpt>
      <trkpt lat="44.3701" lon="5.80459">
        <ele>901.169</ele>
        <time>2022-03-22T08:33:32Z</time>
      </trkpt>
      <trkpt lat="44.37011" lon="5.80459">
        <ele>901.269</ele>
        <time>2022-03-22T08:33:34Z</time>
      </trkpt>
      <trkpt lat="44.37012" lon="5.8046">
        <ele>901.569</ele>
        <time>2022-03-22T08:33:36Z</time>
      </trkpt>
      <trkpt lat="44.37014" lon="5.8046">
        <ele>901.669</ele>
        <time>2022-03-22T08:33:38Z</time>
      </trkpt>
      <trkpt lat="44.37015" lon="5.8046">
        <ele>901.769</ele>
        <time>2022-03-22T08:33:39Z</time>
      </trkpt>
      <trkpt lat="44.37016" lon="5.8046">
        <ele>901.869</ele>
        <time>2022-03-22T08:33:41Z</time>
      </trkpt>
      <trkpt lat="44.37018" lon="5.80461">
        <ele>902.069</ele>
        <time>2022-03-22T08:33:43Z</time>
      </trkpt>
      <trkpt lat="44.37019" lon="5.80461">
        <ele>902.269</ele>
        <time>2022-03-22T08:33:45Z</time>
      </trkpt>
      <trkpt lat="44.3702" lon="5.80461">
        <ele>902.369</ele>
        <time>2022-03-22T08:33:47Z</time>
      </trkpt>
      <trkpt lat="44.3702" lon="5.80462">
        <ele>902.568</ele>
        <time>2022-03-22T08:33:49Z</time>
      </trkpt>
      <trkpt lat="44.37021" lon="5.80463">
        <ele>902.568</ele>
        <time>2022-03-22T08:33:50Z</time>
      </trkpt>
      <trkpt lat="44.37023" lon="5.80464">
        <ele>902.968</ele>
        <time>2022-03-22T08:33:52Z</time>
      </trkpt>
      <trkpt lat="44.37024" lon="5.80464">
        <ele>903.268</ele>
        <time>2022-03-22T08:33:54Z</time>
      </trkpt>
      <trkpt lat="44.37026" lon="5.80465">
        <ele>904.068</ele>
        <time>2022-03-22T08:33:56Z</time>
      </trkpt>
      <trkpt lat="44.37027" lon="5.80466">
        <ele>904.468</ele>
        <time>2022-03-22T08:33:58Z</time>
      </trkpt>
      <trkpt lat="44.37028" lon="5.80466">
        <ele>905.268</ele>
        <time>2022-03-22T08:34:00Z</time>
      </trkpt>
      <trkpt lat="44.37029" lon="5.80467">
        <ele>905.168</ele>
        <time>2022-03-22T08:34:02Z</time>
      </trkpt>
      <trkpt lat="44.3703" lon="5.80468">
        <ele>905.668</ele>
        <time>2022-03-22T08:34:04Z</time>
      </trkpt>
      <trkpt lat="44.37031" lon="5.80468">
        <ele>905.968</ele>
        <time>2022-03-22T08:34:06Z</time>
      </trkpt>
      <trkpt lat="44.37032" lon="5.80469">
        <ele>906.268</ele>
        <time>2022-03-22T08:34:08Z</time>
      </trkpt>
      <trkpt lat="44.37033" lon="5.8047">
        <ele>906.268</ele>
        <time>2022-03-22T08:34:09Z</time>
      </trkpt>
      <trkpt lat="44.37034" lon="5.80471">
        <ele>906.468</ele>
        <time>2022-03-22T08:34:11Z</time>
      </trkpt>
      <trkpt lat="44.37035" lon="5.80471">
        <ele>906.668</ele>
        <time>2022-03-22T08:34:13Z</time>
      </trkpt>
      <trkpt lat="44.37037" lon="5.80472">
        <ele>906.968</ele>
        <time>2022-03-22T08:34:15Z</time>
      </trkpt>
      <trkpt lat="44.37038" lon="5.80472">
        <ele>907.168</ele>
        <time>2022-03-22T08:34:17Z</time>
      </trkpt>
      <trkpt lat="44.37039" lon="5.80473">
        <ele>907.568</ele>
        <time>2022-03-22T08:34:20Z</time>
      </trkpt>
      <trkpt lat="44.3704" lon="5.80473">
        <ele>907.768</ele>
        <time>2022-03-22T08:34:22Z</time>
      </trkpt>
      <trkpt lat="44.37041" lon="5.80474">
        <ele>908.168</ele>
        <time>2022-03-22T08:34:24Z</time>
      </trkpt>
      <trkpt lat="44.37042" lon="5.80475">
        <ele>908.168</ele>
        <time>2022-03-22T08:34:25Z</time>
      </trkpt>
      <trkpt lat="44.37044" lon="5.80476">
        <ele>908.468</ele>
        <time>2022-03-22T08:34:27Z</time>
      </trkpt>
      <trkpt lat="44.37045" lon="5.80477">
        <ele>908.368</ele>
        <time>2022-03-22T08:34:28Z</time>
      </trkpt>
      <trkpt lat="44.37046" lon="5.80477">
        <ele>907.968</ele>
        <time>2022-03-22T08:34:30Z</time>
      </trkpt>
      <trkpt lat="44.37047" lon="5.80478">
        <ele>907.868</ele>
        <time>2022-03-22T08:34:32Z</time>
      </trkpt>
      <trkpt lat="44.37048" lon="5.80478">
        <ele>907.768</ele>
        <time>2022-03-22T08:34:34Z</time>
      </trkpt>
      <trkpt lat="44.3705" lon="5.80479">
        <ele>907.768</ele>
        <time>2022-03-22T08:34:36Z</time>
      </trkpt>
      <trkpt lat="44.37051" lon="5.80479">
        <ele>908.168</ele>
        <time>2022-03-22T08:34:38Z</time>
      </trkpt>
      <trkpt lat="44.37052" lon="5.80479">
        <ele>908.568</ele>
        <time>2022-03-22T08:34:40Z</time>
      </trkpt>
      <trkpt lat="44.37053" lon="5.8048">
        <ele>909.168</ele>
        <time>2022-03-22T08:34:42Z</time>
      </trkpt>
      <trkpt lat="44.37054" lon="5.80481">
        <ele>909.667</ele>
        <time>2022-03-22T08:34:44Z</time>
      </trkpt>
      <trkpt lat="44.37055" lon="5.80482">
        <ele>910.067</ele>
        <time>2022-03-22T08:34:46Z</time>
      </trkpt>
      <trkpt lat="44.37056" lon="5.80482">
        <ele>910.567</ele>
        <time>2022-03-22T08:34:48Z</time>
      </trkpt>
      <trkpt lat="44.37058" lon="5.80483">
        <ele>910.867</ele>
        <time>2022-03-22T08:34:50Z</time>
      </trkpt>
      <trkpt lat="44.37059" lon="5.80483">
        <ele>911.567</ele>
        <time>2022-03-22T08:34:52Z</time>
      </trkpt>
      <trkpt lat="44.3706" lon="5.80484">
        <ele>912.667</ele>
        <time>2022-03-22T08:34:55Z</time>
      </trkpt>
      <trkpt lat="44.37061" lon="5.80485">
        <ele>913.567</ele>
        <time>2022-03-22T08:34:58Z</time>
      </trkpt>
      <trkpt lat="44.37062" lon="5.80486">
        <ele>914.367</ele>
        <time>2022-03-22T08:35:00Z</time>
      </trkpt>
      <trkpt lat="44.37063" lon="5.80486">
        <ele>914.667</ele>
        <time>2022-03-22T08:35:01Z</time>
      </trkpt>
      <trkpt lat="44.37064" lon="5.80487">
        <ele>915.267</ele>
        <time>2022-03-22T08:35:03Z</time>
      </trkpt>
      <trkpt lat="44.37065" lon="5.80488">
        <ele>915.767</ele>
        <time>2022-03-22T08:35:05Z</time>
      </trkpt>
      <trkpt lat="44.37067" lon="5.80487">
        <ele>915.767</ele>
        <time>2022-03-22T08:35:07Z</time>
      </trkpt>
      <trkpt lat="44.37068" lon="5.80487">
        <ele>915.867</ele>
        <time>2022-03-22T08:35:09Z</time>
      </trkpt>
      <trkpt lat="44.37068" lon="5.80487">
        <ele>916.067</ele>
        <time>2022-03-22T08:35:10Z</time>
      </trkpt>
      <trkpt lat="44.37069" lon="5.80486">
        <ele>916.367</ele>
        <time>2022-03-22T08:35:11Z</time>
      </trkpt>
      <trkpt lat="44.3707" lon="5.80486">
        <ele>916.367</ele>
        <time>2022-03-22T08:35:12Z</time>
      </trkpt>
      <trkpt lat="44.37071" lon="5.80486">
        <ele>916.567</ele>
        <time>2022-03-22T08:35:14Z</time>
      </trkpt>
      <trkpt lat="44.37072" lon="5.80485">
        <ele>916.367</ele>
        <time>2022-03-22T08:35:15Z</time>
      </trkpt>
      <trkpt lat="44.37072" lon="5.80485">
        <ele>916.567</ele>
        <time>2022-03-22T08:35:16Z</time>
      </trkpt>
      <trkpt lat="44.37074" lon="5.80484">
        <ele>916.767</ele>
        <time>2022-03-22T08:35:18Z</time>
      </trkpt>
      <trkpt lat="44.37074" lon="5.80483">
        <ele>916.767</ele>
        <time>2022-03-22T08:35:19Z</time>
      </trkpt>
      <trkpt lat="44.37075" lon="5.80483">
        <ele>916.567</ele>
        <time>2022-03-22T08:35:21Z</time>
      </trkpt>
      <trkpt lat="44.37076" lon="5.80482">
        <ele>916.667</ele>
        <time>2022-03-22T08:35:23Z</time>
      </trkpt>
      <trkpt lat="44.37077" lon="5.80482">
        <ele>916.567</ele>
        <time>2022-03-22T08:35:25Z</time>
      </trkpt>
      <trkpt lat="44.37079" lon="5.80482">
        <ele>916.567</ele>
        <time>2022-03-22T08:35:27Z</time>
      </trkpt>
      <trkpt lat="44.3708" lon="5.80483">
        <ele>916.767</ele>
        <time>2022-03-22T08:35:29Z</time>
      </trkpt>
      <trkpt lat="44.37081" lon="5.80484">
        <ele>917.267</ele>
        <time>2022-03-22T08:35:31Z</time>
      </trkpt>
      <trkpt lat="44.37082" lon="5.80484">
        <ele>917.567</ele>
        <time>2022-03-22T08:35:32Z</time>
      </trkpt>
      <trkpt lat="44.37083" lon="5.80486">
        <ele>917.967</ele>
        <time>2022-03-22T08:35:34Z</time>
      </trkpt>
      <trkpt lat="44.37084" lon="5.80487">
        <ele>918.267</ele>
        <time>2022-03-22T08:35:35Z</time>
      </trkpt>
      <trkpt lat="44.37085" lon="5.80489">
        <ele>918.667</ele>
        <time>2022-03-22T08:35:37Z</time>
      </trkpt>
      <trkpt lat="44.37086" lon="5.80491">
        <ele>918.867</ele>
        <time>2022-03-22T08:35:39Z</time>
      </trkpt>
      <trkpt lat="44.37086" lon="5.80492">
        <ele>919.067</ele>
        <time>2022-03-22T08:35:41Z</time>
      </trkpt>
      <trkpt lat="44.37087" lon="5.80493">
        <ele>919.567</ele>
        <time>2022-03-22T08:35:43Z</time>
      </trkpt>
      <trkpt lat="44.37088" lon="5.80494">
        <ele>919.966</ele>
        <time>2022-03-22T08:35:45Z</time>
      </trkpt>
      <trkpt lat="44.3709" lon="5.80494">
        <ele>920.266</ele>
        <time>2022-03-22T08:35:47Z</time>
      </trkpt>
      <trkpt lat="44.37091" lon="5.80495">
        <ele>921.066</ele>
        <time>2022-03-22T08:35:49Z</time>
      </trkpt>
      <trkpt lat="44.37092" lon="5.80495">
        <ele>921.666</ele>
        <time>2022-03-22T08:35:51Z</time>
      </trkpt>
      <trkpt lat="44.37094" lon="5.80495">
        <ele>921.666</ele>
        <time>2022-03-22T08:35:53Z</time>
      </trkpt>
      <trkpt lat="44.37095" lon="5.80496">
        <ele>921.866</ele>
        <time>2022-03-22T08:35:55Z</time>
      </trkpt>
      <trkpt lat="44.37095" lon="5.80497">
        <ele>922.366</ele>
        <time>2022-03-22T08:35:57Z</time>
      </trkpt>
      <trkpt lat="44.37096" lon="5.80499">
        <ele>922.766</ele>
        <time>2022-03-22T08:36:00Z</time>
      </trkpt>
      <trkpt lat="44.37097" lon="5.80501">
        <ele>922.766</ele>
        <time>2022-03-22T08:36:02Z</time>
      </trkpt>
      <trkpt lat="44.37098" lon="5.80502">
        <ele>922.966</ele>
        <time>2022-03-22T08:36:04Z</time>
      </trkpt>
      <trkpt lat="44.37098" lon="5.80504">
        <ele>922.966</ele>
        <time>2022-03-22T08:36:06Z</time>
      </trkpt>
      <trkpt lat="44.37098" lon="5.80505">
        <ele>922.866</ele>
        <time>2022-03-22T08:36:07Z</time>
      </trkpt>
      <trkpt lat="44.37099" lon="5.80507">
        <ele>922.866</ele>
        <time>2022-03-22T08:36:09Z</time>
      </trkpt>
      <trkpt lat="44.37099" lon="5.80509">
        <ele>923.066</ele>
        <time>2022-03-22T08:36:11Z</time>
      </trkpt>
      <trkpt lat="44.37099" lon="5.8051">
        <ele>923.266</ele>
        <time>2022-03-22T08:36:12Z</time>
      </trkpt>
      <trkpt lat="44.371" lon="5.80513">
        <ele>923.766</ele>
        <time>2022-03-22T08:36:14Z</time>
      </trkpt>
      <trkpt lat="44.37099" lon="5.80514">
        <ele>923.866</ele>
        <time>2022-03-22T08:36:15Z</time>
      </trkpt>
      <trkpt lat="44.37099" lon="5.80516">
        <ele>924.266</ele>
        <time>2022-03-22T08:36:16Z</time>
      </trkpt>
      <trkpt lat="44.37099" lon="5.80517">
        <ele>924.466</ele>
        <time>2022-03-22T08:36:18Z</time>
      </trkpt>
      <trkpt lat="44.371" lon="5.80519">
        <ele>924.566</ele>
        <time>2022-03-22T08:36:20Z</time>
      </trkpt>
      <trkpt lat="44.371" lon="5.80521">
        <ele>924.866</ele>
        <time>2022-03-22T08:36:22Z</time>
      </trkpt>
      <trkpt lat="44.371" lon="5.80522">
        <ele>924.766</ele>
        <time>2022-03-22T08:36:24Z</time>
      </trkpt>
      <trkpt lat="44.371" lon="5.80524">
        <ele>924.666</ele>
        <time>2022-03-22T08:36:26Z</time>
      </trkpt>
      <trkpt lat="44.371" lon="5.80525">
        <ele>924.866</ele>
        <time>2022-03-22T08:36:28Z</time>
      </trkpt>
      <trkpt lat="44.371" lon="5.80527">
        <ele>924.966</ele>
        <time>2022-03-22T08:36:30Z</time>
      </trkpt>
      <trkpt lat="44.37101" lon="5.80529">
        <ele>925.266</ele>
        <time>2022-03-22T08:36:32Z</time>
      </trkpt>
      <trkpt lat="44.37101" lon="5.80531">
        <ele>925.366</ele>
        <time>2022-03-22T08:36:34Z</time>
      </trkpt>
      <trkpt lat="44.37101" lon="5.80534">
        <ele>925.066</ele>
        <time>2022-03-22T08:36:36Z</time>
      </trkpt>
      <trkpt lat="44.37101" lon="5.80536">
        <ele>924.866</ele>
        <time>2022-03-22T08:36:38Z</time>
      </trkpt>
      <trkpt lat="44.37101" lon="5.80538">
        <ele>924.466</ele>
        <time>2022-03-22T08:36:40Z</time>
      </trkpt>
      <trkpt lat="44.371" lon="5.80539">
        <ele>924.466</ele>
        <time>2022-03-22T08:36:42Z</time>
      </trkpt>
      <trkpt lat="44.37099" lon="5.80541">
        <ele>924.866</ele>
        <time>2022-03-22T08:36:44Z</time>
      </trkpt>
      <trkpt lat="44.37098" lon="5.80542">
        <ele>925.366</ele>
        <time>2022-03-22T08:36:46Z</time>
      </trkpt>
      <trkpt lat="44.37097" lon="5.80544">
        <ele>926.266</ele>
        <time>2022-03-22T08:36:48Z</time>
      </trkpt>
      <trkpt lat="44.37096" lon="5.80546">
        <ele>926.766</ele>
        <time>2022-03-22T08:36:50Z</time>
      </trkpt>
      <trkpt lat="44.37095" lon="5.80547">
        <ele>927.066</ele>
        <time>2022-03-22T08:36:52Z</time>
      </trkpt>
      <trkpt lat="44.37094" lon="5.80549">
        <ele>927.366</ele>
        <time>2022-03-22T08:36:54Z</time>
      </trkpt>
      <trkpt lat="44.37093" lon="5.8055">
        <ele>927.666</ele>
        <time>2022-03-22T08:36:56Z</time>
      </trkpt>
      <trkpt lat="44.37093" lon="5.80552">
        <ele>928.266</ele>
        <time>2022-03-22T08:36:58Z</time>
      </trkpt>
      <trkpt lat="44.37092" lon="5.80554">
        <ele>928.866</ele>
        <time>2022-03-22T08:37:00Z</time>
      </trkpt>
      <trkpt lat="44.37092" lon="5.80556">
        <ele>928.966</ele>
        <time>2022-03-22T08:37:02Z</time>
      </trkpt>
      <trkpt lat="44.37092" lon="5.80558">
        <ele>928.766</ele>
        <time>2022-03-22T08:37:04Z</time>
      </trkpt>
      <trkpt lat="44.37092" lon="5.80561">
        <ele>928.766</ele>
        <time>2022-03-22T08:37:06Z</time>
      </trkpt>
      <trkpt lat="44.37092" lon="5.80562">
        <ele>929.066</ele>
        <time>2022-03-22T08:37:07Z</time>
      </trkpt>
      <trkpt lat="44.37092" lon="5.80564">
        <ele>929.366</ele>
        <time>2022-03-22T08:37:09Z</time>
      </trkpt>
      <trkpt lat="44.37093" lon="5.80566">
        <ele>929.666</ele>
        <time>2022-03-22T08:37:11Z</time>
      </trkpt>
      <trkpt lat="44.37093" lon="5.80568">
        <ele>930.166</ele>
        <time>2022-03-22T08:37:13Z</time>
      </trkpt>
      <trkpt lat="44.37093" lon="5.80569">
        <ele>930.166</ele>
        <time>2022-03-22T08:37:14Z</time>
      </trkpt>
      <trkpt lat="44.37093" lon="5.80571">
        <ele>930.366</ele>
        <time>2022-03-22T08:37:15Z</time>
      </trkpt>
      <trkpt lat="44.37093" lon="5.80573">
        <ele>930.666</ele>
        <time>2022-03-22T08:37:17Z</time>
      </trkpt>
      <trkpt lat="44.37094" lon="5.80575">
        <ele>930.766</ele>
        <time>2022-03-22T08:37:19Z</time>
      </trkpt>
      <trkpt lat="44.37095" lon="5.80576">
        <ele>930.966</ele>
        <time>2022-03-22T08:37:20Z</time>
      </trkpt>
      <trkpt lat="44.37095" lon="5.80578">
        <ele>931.165</ele>
        <time>2022-03-22T08:37:22Z</time>
      </trkpt>
      <trkpt lat="44.37096" lon="5.80581">
        <ele>931.365</ele>
        <time>2022-03-22T08:37:24Z</time>
      </trkpt>
      <trkpt lat="44.37097" lon="5.80583">
        <ele>931.765</ele>
        <time>2022-03-22T08:37:26Z</time>
      </trkpt>
      <trkpt lat="44.37098" lon="5.80583">
        <ele>931.865</ele>
        <time>2022-03-22T08:37:27Z</time>
      </trkpt>
      <trkpt lat="44.37099" lon="5.80584">
        <ele>931.765</ele>
        <time>2022-03-22T08:37:28Z</time>
      </trkpt>
      <trkpt lat="44.371" lon="5.80585">
        <ele>931.965</ele>
        <time>2022-03-22T08:37:30Z</time>
      </trkpt>
      <trkpt lat="44.37102" lon="5.80585">
        <ele>932.065</ele>
        <time>2022-03-22T08:37:32Z</time>
      </trkpt>
      <trkpt lat="44.37103" lon="5.80584">
        <ele>931.965</ele>
        <time>2022-03-22T08:37:34Z</time>
      </trkpt>
      <trkpt lat="44.37104" lon="5.80583">
        <ele>931.865</ele>
        <time>2022-03-22T08:37:36Z</time>
      </trkpt>
      <trkpt lat="44.37105" lon="5.80583">
        <ele>931.865</ele>
        <time>2022-03-22T08:37:37Z</time>
      </trkpt>
      <trkpt lat="44.37107" lon="5.80582">
        <ele>931.865</ele>
        <time>2022-03-22T08:37:39Z</time>
      </trkpt>
      <trkpt lat="44.37108" lon="5.80581">
        <ele>931.965</ele>
        <time>2022-03-22T08:37:41Z</time>
      </trkpt>
      <trkpt lat="44.37109" lon="5.8058">
        <ele>932.265</ele>
        <time>2022-03-22T08:37:43Z</time>
      </trkpt>
      <trkpt lat="44.37111" lon="5.80578">
        <ele>932.465</ele>
        <time>2022-03-22T08:37:45Z</time>
      </trkpt>
      <trkpt lat="44.37112" lon="5.80578">
        <ele>932.665</ele>
        <time>2022-03-22T08:37:47Z</time>
      </trkpt>
      <trkpt lat="44.37113" lon="5.80578">
        <ele>932.965</ele>
        <time>2022-03-22T08:37:49Z</time>
      </trkpt>
      <trkpt lat="44.37114" lon="5.80578">
        <ele>933.365</ele>
        <time>2022-03-22T08:37:51Z</time>
      </trkpt>
      <trkpt lat="44.37115" lon="5.80578">
        <ele>933.665</ele>
        <time>2022-03-22T08:37:53Z</time>
      </trkpt>
      <trkpt lat="44.37116" lon="5.80579">
        <ele>933.965</ele>
        <time>2022-03-22T08:37:54Z</time>
      </trkpt>
      <trkpt lat="44.37117" lon="5.8058">
        <ele>934.265</ele>
        <time>2022-03-22T08:37:56Z</time>
      </trkpt>
      <trkpt lat="44.37118" lon="5.8058">
        <ele>934.965</ele>
        <time>2022-03-22T08:37:58Z</time>
      </trkpt>
      <trkpt lat="44.3712" lon="5.80581">
        <ele>935.165</ele>
        <time>2022-03-22T08:38:00Z</time>
      </trkpt>
      <trkpt lat="44.37121" lon="5.80582">
        <ele>935.565</ele>
        <time>2022-03-22T08:38:02Z</time>
      </trkpt>
      <trkpt lat="44.37121" lon="5.80584">
        <ele>936.365</ele>
        <time>2022-03-22T08:38:04Z</time>
      </trkpt>
      <trkpt lat="44.37122" lon="5.80585">
        <ele>936.965</ele>
        <time>2022-03-22T08:38:06Z</time>
      </trkpt>
      <trkpt lat="44.37123" lon="5.80586">
        <ele>937.765</ele>
        <time>2022-03-22T08:38:08Z</time>
      </trkpt>
      <trkpt lat="44.37124" lon="5.80587">
        <ele>937.665</ele>
        <time>2022-03-22T08:38:10Z</time>
      </trkpt>
      <trkpt lat="44.37126" lon="5.80589">
        <ele>938.065</ele>
        <time>2022-03-22T08:38:12Z</time>
      </trkpt>
      <trkpt lat="44.37127" lon="5.80589">
        <ele>938.065</ele>
        <time>2022-03-22T08:38:14Z</time>
      </trkpt>
      <trkpt lat="44.37128" lon="5.80591">
        <ele>938.065</ele>
        <time>2022-03-22T08:38:16Z</time>
      </trkpt>
      <trkpt lat="44.37129" lon="5.80593">
        <ele>938.064</ele>
        <time>2022-03-22T08:38:18Z</time>
      </trkpt>
      <trkpt lat="44.3713" lon="5.80594">
        <ele>938.464</ele>
        <time>2022-03-22T08:38:21Z</time>
      </trkpt>
      <trkpt lat="44.3713" lon="5.80596">
        <ele>938.364</ele>
        <time>2022-03-22T08:38:22Z</time>
      </trkpt>
      <trkpt lat="44.3713" lon="5.80598">
        <ele>938.464</ele>
        <time>2022-03-22T08:38:24Z</time>
      </trkpt>
      <trkpt lat="44.3713" lon="5.806">
        <ele>938.564</ele>
        <time>2022-03-22T08:38:26Z</time>
      </trkpt>
      <trkpt lat="44.37131" lon="5.80602">
        <ele>938.764</ele>
        <time>2022-03-22T08:38:28Z</time>
      </trkpt>
      <trkpt lat="44.37131" lon="5.80604">
        <ele>938.964</ele>
        <time>2022-03-22T08:38:30Z</time>
      </trkpt>
      <trkpt lat="44.37132" lon="5.80606">
        <ele>938.864</ele>
        <time>2022-03-22T08:38:32Z</time>
      </trkpt>
      <trkpt lat="44.37132" lon="5.80608">
        <ele>939.164</ele>
        <time>2022-03-22T08:38:34Z</time>
      </trkpt>
      <trkpt lat="44.37133" lon="5.8061">
        <ele>939.664</ele>
        <time>2022-03-22T08:38:36Z</time>
      </trkpt>
      <trkpt lat="44.37134" lon="5.80612">
        <ele>939.764</ele>
        <time>2022-03-22T08:38:38Z</time>
      </trkpt>
      <trkpt lat="44.37134" lon="5.80614">
        <ele>939.964</ele>
        <time>2022-03-22T08:38:40Z</time>
      </trkpt>
      <trkpt lat="44.37134" lon="5.80615">
        <ele>939.864</ele>
        <time>2022-03-22T08:38:42Z</time>
      </trkpt>
      <trkpt lat="44.37135" lon="5.80617">
        <ele>940.064</ele>
        <time>2022-03-22T08:38:44Z</time>
      </trkpt>
      <trkpt lat="44.37135" lon="5.80619">
        <ele>939.864</ele>
        <time>2022-03-22T08:38:46Z</time>
      </trkpt>
      <trkpt lat="44.37136" lon="5.80621">
        <ele>939.464</ele>
        <time>2022-03-22T08:38:48Z</time>
      </trkpt>
      <trkpt lat="44.37136" lon="5.80622">
        <ele>939.264</ele>
        <time>2022-03-22T08:38:50Z</time>
      </trkpt>
      <trkpt lat="44.37135" lon="5.80625">
        <ele>939.164</ele>
        <time>2022-03-22T08:38:52Z</time>
      </trkpt>
      <trkpt lat="44.37135" lon="5.80626">
        <ele>939.164</ele>
        <time>2022-03-22T08:38:53Z</time>
      </trkpt>
      <trkpt lat="44.37135" lon="5.80628">
        <ele>938.664</ele>
        <time>2022-03-22T08:38:55Z</time>
      </trkpt>
      <trkpt lat="44.37134" lon="5.8063">
        <ele>938.864</ele>
        <time>2022-03-22T08:38:56Z</time>
      </trkpt>
      <trkpt lat="44.37134" lon="5.80632">
        <ele>938.564</ele>
        <time>2022-03-22T08:38:58Z</time>
      </trkpt>
      <trkpt lat="44.37133" lon="5.80633">
        <ele>938.564</ele>
        <time>2022-03-22T08:39:00Z</time>
      </trkpt>
      <trkpt lat="44.37132" lon="5.80636">
        <ele>938.564</ele>
        <time>2022-03-22T08:39:02Z</time>
      </trkpt>
      <trkpt lat="44.37132" lon="5.80638">
        <ele>938.364</ele>
        <time>2022-03-22T08:39:04Z</time>
      </trkpt>
      <trkpt lat="44.37131" lon="5.8064">
        <ele>938.564</ele>
        <time>2022-03-22T08:39:06Z</time>
      </trkpt>
      <trkpt lat="44.3713" lon="5.80641">
        <ele>938.664</ele>
        <time>2022-03-22T08:39:07Z</time>
      </trkpt>
      <trkpt lat="44.3713" lon="5.80642">
        <ele>938.864</ele>
        <time>2022-03-22T08:39:08Z</time>
      </trkpt>
      <trkpt lat="44.37129" lon="5.80643">
        <ele>938.764</ele>
        <time>2022-03-22T08:39:09Z</time>
      </trkpt>
      <trkpt lat="44.37129" lon="5.80646">
        <ele>938.964</ele>
        <time>2022-03-22T08:39:11Z</time>
      </trkpt>
      <trkpt lat="44.37128" lon="5.80648">
        <ele>938.964</ele>
        <time>2022-03-22T08:39:13Z</time>
      </trkpt>
      <trkpt lat="44.37128" lon="5.80649">
        <ele>938.964</ele>
        <time>2022-03-22T08:39:14Z</time>
      </trkpt>
      <trkpt lat="44.37127" lon="5.8065">
        <ele>938.664</ele>
        <time>2022-03-22T08:39:16Z</time>
      </trkpt>
      <trkpt lat="44.37126" lon="5.80652">
        <ele>938.964</ele>
        <time>2022-03-22T08:39:18Z</time>
      </trkpt>
      <trkpt lat="44.37126" lon="5.80654">
        <ele>939.264</ele>
        <time>2022-03-22T08:39:20Z</time>
      </trkpt>
      <trkpt lat="44.37125" lon="5.80656">
        <ele>939.264</ele>
        <time>2022-03-22T08:39:21Z</time>
      </trkpt>
      <trkpt lat="44.37124" lon="5.80658">
        <ele>939.364</ele>
        <time>2022-03-22T08:39:23Z</time>
      </trkpt>
      <trkpt lat="44.37124" lon="5.8066">
        <ele>939.764</ele>
        <time>2022-03-22T08:39:25Z</time>
      </trkpt>
      <trkpt lat="44.37124" lon="5.80661">
        <ele>939.864</ele>
        <time>2022-03-22T08:39:26Z</time>
      </trkpt>
      <trkpt lat="44.37123" lon="5.80662">
        <ele>940.064</ele>
        <time>2022-03-22T08:39:27Z</time>
      </trkpt>
      <trkpt lat="44.37123" lon="5.80665">
        <ele>940.164</ele>
        <time>2022-03-22T08:39:29Z</time>
      </trkpt>
      <trkpt lat="44.37123" lon="5.80666">
        <ele>940.264</ele>
        <time>2022-03-22T08:39:30Z</time>
      </trkpt>
      <trkpt lat="44.37123" lon="5.80668">
        <ele>940.564</ele>
        <time>2022-03-22T08:39:32Z</time>
      </trkpt>
      <trkpt lat="44.37123" lon="5.80669">
        <ele>940.764</ele>
        <time>2022-03-22T08:39:33Z</time>
      </trkpt>
      <trkpt lat="44.37123" lon="5.80671">
        <ele>941.164</ele>
        <time>2022-03-22T08:39:34Z</time>
      </trkpt>
      <trkpt lat="44.37123" lon="5.80673">
        <ele>941.764</ele>
        <time>2022-03-22T08:39:36Z</time>
      </trkpt>
      <trkpt lat="44.37123" lon="5.80674">
        <ele>942.064</ele>
        <time>2022-03-22T08:39:37Z</time>
      </trkpt>
      <trkpt lat="44.37123" lon="5.80676">
        <ele>942.364</ele>
        <time>2022-03-22T08:39:38Z</time>
      </trkpt>
      <trkpt lat="44.37123" lon="5.80677">
        <ele>942.464</ele>
        <time>2022-03-22T08:39:39Z</time>
      </trkpt>
      <trkpt lat="44.37123" lon="5.80678">
        <ele>942.664</ele>
        <time>2022-03-22T08:39:40Z</time>
      </trkpt>
      <trkpt lat="44.37123" lon="5.8068">
        <ele>943.064</ele>
        <time>2022-03-22T08:39:41Z</time>
      </trkpt>
      <trkpt lat="44.37124" lon="5.80682">
        <ele>943.364</ele>
        <time>2022-03-22T08:39:43Z</time>
      </trkpt>
      <trkpt lat="44.37124" lon="5.80683">
        <ele>943.664</ele>
        <time>2022-03-22T08:39:44Z</time>
      </trkpt>
      <trkpt lat="44.37124" lon="5.80684">
        <ele>943.864</ele>
        <time>2022-03-22T08:39:45Z</time>
      </trkpt>
      <trkpt lat="44.37125" lon="5.80686">
        <ele>944.064</ele>
        <time>2022-03-22T08:39:47Z</time>
      </trkpt>
      <trkpt lat="44.37126" lon="5.80687">
        <ele>944.264</ele>
        <time>2022-03-22T08:39:48Z</time>
      </trkpt>
      <trkpt lat="44.37126" lon="5.80688">
        <ele>944.364</ele>
        <time>2022-03-22T08:39:49Z</time>
      </trkpt>
      <trkpt lat="44.37127" lon="5.8069">
        <ele>944.764</ele>
        <time>2022-03-22T08:39:51Z</time>
      </trkpt>
      <trkpt lat="44.37128" lon="5.80692">
        <ele>945.064</ele>
        <time>2022-03-22T08:39:53Z</time>
      </trkpt>
      <trkpt lat="44.37128" lon="5.80693">
        <ele>945.464</ele>
        <time>2022-03-22T08:39:54Z</time>
      </trkpt>
      <trkpt lat="44.37129" lon="5.80695">
        <ele>945.663</ele>
        <time>2022-03-22T08:39:56Z</time>
      </trkpt>
      <trkpt lat="44.3713" lon="5.80697">
        <ele>946.063</ele>
        <time>2022-03-22T08:39:58Z</time>
      </trkpt>
      <trkpt lat="44.3713" lon="5.80698">
        <ele>946.163</ele>
        <time>2022-03-22T08:39:59Z</time>
      </trkpt>
      <trkpt lat="44.37131" lon="5.807">
        <ele>946.463</ele>
        <time>2022-03-22T08:40:01Z</time>
      </trkpt>
      <trkpt lat="44.37132" lon="5.80701">
        <ele>946.963</ele>
        <time>2022-03-22T08:40:03Z</time>
      </trkpt>
      <trkpt lat="44.37133" lon="5.80702">
        <ele>946.863</ele>
        <time>2022-03-22T08:40:04Z</time>
      </trkpt>
      <trkpt lat="44.37133" lon="5.80704">
        <ele>947.163</ele>
        <time>2022-03-22T08:40:06Z</time>
      </trkpt>
      <trkpt lat="44.37133" lon="5.80706">
        <ele>947.563</ele>
        <time>2022-03-22T08:40:08Z</time>
      </trkpt>
      <trkpt lat="44.37134" lon="5.80707">
        <ele>947.663</ele>
        <time>2022-03-22T08:40:09Z</time>
      </trkpt>
      <trkpt lat="44.37134" lon="5.80708">
        <ele>947.763</ele>
        <time>2022-03-22T08:40:10Z</time>
      </trkpt>
      <trkpt lat="44.37134" lon="5.8071">
        <ele>947.963</ele>
        <time>2022-03-22T08:40:11Z</time>
      </trkpt>
      <trkpt lat="44.37134" lon="5.80712">
        <ele>948.463</ele>
        <time>2022-03-22T08:40:13Z</time>
      </trkpt>
      <trkpt lat="44.37133" lon="5.80714">
        <ele>948.863</ele>
        <time>2022-03-22T08:40:14Z</time>
      </trkpt>
      <trkpt lat="44.37134" lon="5.80715">
        <ele>949.063</ele>
        <time>2022-03-22T08:40:16Z</time>
      </trkpt>
      <trkpt lat="44.37134" lon="5.80717">
        <ele>949.363</ele>
        <time>2022-03-22T08:40:18Z</time>
      </trkpt>
      <trkpt lat="44.37135" lon="5.80719">
        <ele>949.763</ele>
        <time>2022-03-22T08:40:20Z</time>
      </trkpt>
      <trkpt lat="44.37136" lon="5.80721">
        <ele>950.163</ele>
        <time>2022-03-22T08:40:22Z</time>
      </trkpt>
      <trkpt lat="44.37136" lon="5.80722">
        <ele>950.363</ele>
        <time>2022-03-22T08:40:23Z</time>
      </trkpt>
      <trkpt lat="44.37137" lon="5.80724">
        <ele>950.663</ele>
        <time>2022-03-22T08:40:25Z</time>
      </trkpt>
      <trkpt lat="44.37139" lon="5.80725">
        <ele>950.563</ele>
        <time>2022-03-22T08:40:27Z</time>
      </trkpt>
      <trkpt lat="44.3714" lon="5.80726">
        <ele>950.863</ele>
        <time>2022-03-22T08:40:29Z</time>
      </trkpt>
      <trkpt lat="44.37141" lon="5.80728">
        <ele>950.863</ele>
        <time>2022-03-22T08:40:31Z</time>
      </trkpt>
      <trkpt lat="44.37141" lon="5.80729">
        <ele>951.263</ele>
        <time>2022-03-22T08:40:33Z</time>
      </trkpt>
      <trkpt lat="44.37141" lon="5.80731">
        <ele>951.563</ele>
        <time>2022-03-22T08:40:35Z</time>
      </trkpt>
      <trkpt lat="44.37141" lon="5.80733">
        <ele>951.763</ele>
        <time>2022-03-22T08:40:37Z</time>
      </trkpt>
      <trkpt lat="44.37141" lon="5.80735">
        <ele>951.963</ele>
        <time>2022-03-22T08:40:38Z</time>
      </trkpt>
      <trkpt lat="44.37141" lon="5.80737">
        <ele>952.163</ele>
        <time>2022-03-22T08:40:40Z</time>
      </trkpt>
      <trkpt lat="44.3714" lon="5.80739">
        <ele>952.263</ele>
        <time>2022-03-22T08:40:42Z</time>
      </trkpt>
      <trkpt lat="44.3714" lon="5.80741">
        <ele>952.363</ele>
        <time>2022-03-22T08:40:44Z</time>
      </trkpt>
      <trkpt lat="44.3714" lon="5.80743">
        <ele>952.763</ele>
        <time>2022-03-22T08:40:46Z</time>
      </trkpt>
      <trkpt lat="44.37141" lon="5.80745">
        <ele>953.463</ele>
        <time>2022-03-22T08:40:48Z</time>
      </trkpt>
      <trkpt lat="44.37141" lon="5.80747">
        <ele>953.663</ele>
        <time>2022-03-22T08:40:50Z</time>
      </trkpt>
      <trkpt lat="44.37142" lon="5.80749">
        <ele>954.263</ele>
        <time>2022-03-22T08:40:52Z</time>
      </trkpt>
      <trkpt lat="44.37142" lon="5.80751">
        <ele>954.963</ele>
        <time>2022-03-22T08:40:54Z</time>
      </trkpt>
      <trkpt lat="44.37142" lon="5.80753">
        <ele>955.363</ele>
        <time>2022-03-22T08:40:56Z</time>
      </trkpt>
      <trkpt lat="44.37143" lon="5.80754">
        <ele>955.663</ele>
        <time>2022-03-22T08:40:58Z</time>
      </trkpt>
      <trkpt lat="44.37144" lon="5.80754">
        <ele>956.363</ele>
        <time>2022-03-22T08:41:00Z</time>
      </trkpt>
      <trkpt lat="44.37145" lon="5.80755">
        <ele>956.763</ele>
        <time>2022-03-22T08:41:02Z</time>
      </trkpt>
      <trkpt lat="44.37146" lon="5.80756">
        <ele>957.262</ele>
        <time>2022-03-22T08:41:04Z</time>
      </trkpt>
      <trkpt lat="44.37147" lon="5.80757">
        <ele>957.462</ele>
        <time>2022-03-22T08:41:07Z</time>
      </trkpt>
      <trkpt lat="44.37148" lon="5.80757">
        <ele>957.462</ele>
        <time>2022-03-22T08:41:09Z</time>
      </trkpt>
      <trkpt lat="44.37149" lon="5.80759">
        <ele>957.562</ele>
        <time>2022-03-22T08:41:11Z</time>
      </trkpt>
      <trkpt lat="44.3715" lon="5.80759">
        <ele>957.862</ele>
        <time>2022-03-22T08:41:13Z</time>
      </trkpt>
      <trkpt lat="44.37151" lon="5.80761">
        <ele>958.262</ele>
        <time>2022-03-22T08:41:15Z</time>
      </trkpt>
      <trkpt lat="44.37152" lon="5.80762">
        <ele>959.262</ele>
        <time>2022-03-22T08:41:17Z</time>
      </trkpt>
      <trkpt lat="44.37153" lon="5.80763">
        <ele>959.962</ele>
        <time>2022-03-22T08:41:19Z</time>
      </trkpt>
      <trkpt lat="44.37154" lon="5.80764">
        <ele>960.362</ele>
        <time>2022-03-22T08:41:21Z</time>
      </trkpt>
      <trkpt lat="44.37155" lon="5.80765">
        <ele>960.762</ele>
        <time>2022-03-22T08:41:23Z</time>
      </trkpt>
      <trkpt lat="44.37157" lon="5.80766">
        <ele>960.962</ele>
        <time>2022-03-22T08:41:25Z</time>
      </trkpt>
      <trkpt lat="44.37157" lon="5.80767">
        <ele>961.262</ele>
        <time>2022-03-22T08:41:28Z</time>
      </trkpt>
      <trkpt lat="44.37159" lon="5.80768">
        <ele>961.762</ele>
        <time>2022-03-22T08:41:30Z</time>
      </trkpt>
      <trkpt lat="44.3716" lon="5.80769">
        <ele>962.062</ele>
        <time>2022-03-22T08:41:31Z</time>
      </trkpt>
      <trkpt lat="44.3716" lon="5.8077">
        <ele>962.262</ele>
        <time>2022-03-22T08:41:32Z</time>
      </trkpt>
      <trkpt lat="44.37161" lon="5.8077">
        <ele>962.262</ele>
        <time>2022-03-22T08:41:33Z</time>
      </trkpt>
      <trkpt lat="44.37162" lon="5.80771">
        <ele>962.462</ele>
        <time>2022-03-22T08:41:34Z</time>
      </trkpt>
      <trkpt lat="44.37162" lon="5.80773">
        <ele>962.862</ele>
        <time>2022-03-22T08:41:36Z</time>
      </trkpt>
      <trkpt lat="44.37163" lon="5.80774">
        <ele>963.262</ele>
        <time>2022-03-22T08:41:38Z</time>
      </trkpt>
      <trkpt lat="44.37164" lon="5.80775">
        <ele>963.562</ele>
        <time>2022-03-22T08:41:40Z</time>
      </trkpt>
      <trkpt lat="44.37165" lon="5.80776">
        <ele>963.762</ele>
        <time>2022-03-22T08:41:42Z</time>
      </trkpt>
      <trkpt lat="44.37166" lon="5.80778">
        <ele>963.962</ele>
        <time>2022-03-22T08:41:44Z</time>
      </trkpt>
      <trkpt lat="44.37167" lon="5.80779">
        <ele>964.462</ele>
        <time>2022-03-22T08:41:46Z</time>
      </trkpt>
      <trkpt lat="44.37167" lon="5.8078">
        <ele>964.662</ele>
        <time>2022-03-22T08:41:47Z</time>
      </trkpt>
      <trkpt lat="44.37168" lon="5.80782">
        <ele>965.562</ele>
        <time>2022-03-22T08:41:50Z</time>
      </trkpt>
      <trkpt lat="44.37168" lon="5.80783">
        <ele>965.762</ele>
        <time>2022-03-22T08:41:52Z</time>
      </trkpt>
      <trkpt lat="44.37168" lon="5.80785">
        <ele>965.862</ele>
        <time>2022-03-22T08:41:54Z</time>
      </trkpt>
      <trkpt lat="44.37169" lon="5.80787">
        <ele>966.462</ele>
        <time>2022-03-22T08:41:56Z</time>
      </trkpt>
      <trkpt lat="44.37169" lon="5.80788">
        <ele>966.762</ele>
        <time>2022-03-22T08:41:58Z</time>
      </trkpt>
      <trkpt lat="44.37169" lon="5.8079">
        <ele>967.062</ele>
        <time>2022-03-22T08:42:00Z</time>
      </trkpt>
      <trkpt lat="44.37169" lon="5.80791">
        <ele>967.162</ele>
        <time>2022-03-22T08:42:02Z</time>
      </trkpt>
      <trkpt lat="44.3717" lon="5.80792">
        <ele>967.462</ele>
        <time>2022-03-22T08:42:04Z</time>
      </trkpt>
      <trkpt lat="44.37171" lon="5.80793">
        <ele>967.561</ele>
        <time>2022-03-22T08:42:06Z</time>
      </trkpt>
      <trkpt lat="44.37172" lon="5.80795">
        <ele>967.661</ele>
        <time>2022-03-22T08:42:08Z</time>
      </trkpt>
      <trkpt lat="44.37172" lon="5.80796">
        <ele>967.761</ele>
        <time>2022-03-22T08:42:10Z</time>
      </trkpt>
      <trkpt lat="44.37172" lon="5.80797">
        <ele>968.261</ele>
        <time>2022-03-22T08:42:12Z</time>
      </trkpt>
      <trkpt lat="44.37173" lon="5.80799">
        <ele>968.661</ele>
        <time>2022-03-22T08:42:15Z</time>
      </trkpt>
      <trkpt lat="44.37174" lon="5.808">
        <ele>968.961</ele>
        <time>2022-03-22T08:42:17Z</time>
      </trkpt>
      <trkpt lat="44.37175" lon="5.80802">
        <ele>969.261</ele>
        <time>2022-03-22T08:42:20Z</time>
      </trkpt>
      <trkpt lat="44.37177" lon="5.80803">
        <ele>969.561</ele>
        <time>2022-03-22T08:42:22Z</time>
      </trkpt>
      <trkpt lat="44.37177" lon="5.80805">
        <ele>969.761</ele>
        <time>2022-03-22T08:42:24Z</time>
      </trkpt>
      <trkpt lat="44.37179" lon="5.80806">
        <ele>969.761</ele>
        <time>2022-03-22T08:42:26Z</time>
      </trkpt>
      <trkpt lat="44.37179" lon="5.80807">
        <ele>970.061</ele>
        <time>2022-03-22T08:42:28Z</time>
      </trkpt>
      <trkpt lat="44.3718" lon="5.80808">
        <ele>970.361</ele>
        <time>2022-03-22T08:42:30Z</time>
      </trkpt>
      <trkpt lat="44.37181" lon="5.80809">
        <ele>970.261</ele>
        <time>2022-03-22T08:42:32Z</time>
      </trkpt>
      <trkpt lat="44.37182" lon="5.80811">
        <ele>970.261</ele>
        <time>2022-03-22T08:42:34Z</time>
      </trkpt>
      <trkpt lat="44.37183" lon="5.80812">
        <ele>970.261</ele>
        <time>2022-03-22T08:42:36Z</time>
      </trkpt>
      <trkpt lat="44.37184" lon="5.80813">
        <ele>970.261</ele>
        <time>2022-03-22T08:42:38Z</time>
      </trkpt>
      <trkpt lat="44.37185" lon="5.80813">
        <ele>970.561</ele>
        <time>2022-03-22T08:42:40Z</time>
      </trkpt>
      <trkpt lat="44.37186" lon="5.80814">
        <ele>970.861</ele>
        <time>2022-03-22T08:42:42Z</time>
      </trkpt>
      <trkpt lat="44.37187" lon="5.80815">
        <ele>971.161</ele>
        <time>2022-03-22T08:42:44Z</time>
      </trkpt>
      <trkpt lat="44.37188" lon="5.80817">
        <ele>971.861</ele>
        <time>2022-03-22T08:42:46Z</time>
      </trkpt>
      <trkpt lat="44.37188" lon="5.80818">
        <ele>971.861</ele>
        <time>2022-03-22T08:42:48Z</time>
      </trkpt>
      <trkpt lat="44.37189" lon="5.80819">
        <ele>972.361</ele>
        <time>2022-03-22T08:42:51Z</time>
      </trkpt>
      <trkpt lat="44.3719" lon="5.8082">
        <ele>972.661</ele>
        <time>2022-03-22T08:42:53Z</time>
      </trkpt>
      <trkpt lat="44.3719" lon="5.8082">
        <ele>972.961</ele>
        <time>2022-03-22T08:42:55Z</time>
      </trkpt>
      <trkpt lat="44.3719" lon="5.80821">
        <ele>973.161</ele>
        <time>2022-03-22T08:42:56Z</time>
      </trkpt>
      <trkpt lat="44.37191" lon="5.80821">
        <ele>973.261</ele>
        <time>2022-03-22T08:42:57Z</time>
      </trkpt>
      <trkpt lat="44.37191" lon="5.80821">
        <ele>973.161</ele>
        <time>2022-03-22T08:42:58Z</time>
      </trkpt>
      <trkpt lat="44.37192" lon="5.80822">
        <ele>973.261</ele>
        <time>2022-03-22T08:43:00Z</time>
      </trkpt>
      <trkpt lat="44.37193" lon="5.80823">
        <ele>973.061</ele>
        <time>2022-03-22T08:43:02Z</time>
      </trkpt>
      <trkpt lat="44.37193" lon="5.80823">
        <ele>973.161</ele>
        <time>2022-03-22T08:43:03Z</time>
      </trkpt>
      <trkpt lat="44.37194" lon="5.80824">
        <ele>973.061</ele>
        <time>2022-03-22T08:43:04Z</time>
      </trkpt>
      <trkpt lat="44.37195" lon="5.80824">
        <ele>973.161</ele>
        <time>2022-03-22T08:43:05Z</time>
      </trkpt>
      <trkpt lat="44.37195" lon="5.80825">
        <ele>972.661</ele>
        <time>2022-03-22T08:43:07Z</time>
      </trkpt>
      <trkpt lat="44.37196" lon="5.80825">
        <ele>972.561</ele>
        <time>2022-03-22T08:43:08Z</time>
      </trkpt>
      <trkpt lat="44.37196" lon="5.80826">
        <ele>972.561</ele>
        <time>2022-03-22T08:43:09Z</time>
      </trkpt>
      <trkpt lat="44.37197" lon="5.80827">
        <ele>972.26</ele>
        <time>2022-03-22T08:43:11Z</time>
      </trkpt>
      <trkpt lat="44.37197" lon="5.80827">
        <ele>972.26</ele>
        <time>2022-03-22T08:43:13Z</time>
      </trkpt>
      <trkpt lat="44.37198" lon="5.80829">
        <ele>972.26</ele>
        <time>2022-03-22T08:43:14Z</time>
      </trkpt>
      <trkpt lat="44.37198" lon="5.8083">
        <ele>972.36</ele>
        <time>2022-03-22T08:43:15Z</time>
      </trkpt>
      <trkpt lat="44.37198" lon="5.8083">
        <ele>972.56</ele>
        <time>2022-03-22T08:43:16Z</time>
      </trkpt>
      <trkpt lat="44.37199" lon="5.80831">
        <ele>972.86</ele>
        <time>2022-03-22T08:43:17Z</time>
      </trkpt>
      <trkpt lat="44.37199" lon="5.80832">
        <ele>972.86</ele>
        <time>2022-03-22T08:43:18Z</time>
      </trkpt>
      <trkpt lat="44.372" lon="5.80833">
        <ele>972.96</ele>
        <time>2022-03-22T08:43:19Z</time>
      </trkpt>
      <trkpt lat="44.372" lon="5.80835">
        <ele>973.16</ele>
        <time>2022-03-22T08:43:21Z</time>
      </trkpt>
      <trkpt lat="44.37201" lon="5.80836">
        <ele>974.06</ele>
        <time>2022-03-22T08:43:24Z</time>
      </trkpt>
      <trkpt lat="44.37203" lon="5.80837">
        <ele>974.96</ele>
        <time>2022-03-22T08:43:27Z</time>
      </trkpt>
      <trkpt lat="44.37204" lon="5.80838">
        <ele>976.06</ele>
        <time>2022-03-22T08:43:30Z</time>
      </trkpt>
      <trkpt lat="44.37205" lon="5.80838">
        <ele>976.66</ele>
        <time>2022-03-22T08:43:32Z</time>
      </trkpt>
      <trkpt lat="44.37206" lon="5.80838">
        <ele>977.16</ele>
        <time>2022-03-22T08:43:34Z</time>
      </trkpt>
      <trkpt lat="44.37208" lon="5.80839">
        <ele>977.36</ele>
        <time>2022-03-22T08:43:36Z</time>
      </trkpt>
      <trkpt lat="44.37209" lon="5.80839">
        <ele>977.76</ele>
        <time>2022-03-22T08:43:38Z</time>
      </trkpt>
      <trkpt lat="44.3721" lon="5.80839">
        <ele>977.96</ele>
        <time>2022-03-22T08:43:39Z</time>
      </trkpt>
      <trkpt lat="44.37211" lon="5.80838">
        <ele>978.16</ele>
        <time>2022-03-22T08:43:40Z</time>
      </trkpt>
      <trkpt lat="44.37211" lon="5.80838">
        <ele>978.36</ele>
        <time>2022-03-22T08:43:41Z</time>
      </trkpt>
      <trkpt lat="44.37211" lon="5.80837">
        <ele>978.76</ele>
        <time>2022-03-22T08:43:51Z</time>
      </trkpt>
      <trkpt lat="44.37212" lon="5.80834">
        <ele>980.06</ele>
        <time>2022-03-22T08:43:52Z</time>
      </trkpt>
      <trkpt lat="44.37213" lon="5.80834">
        <ele>980.16</ele>
        <time>2022-03-22T08:43:53Z</time>
      </trkpt>
      <trkpt lat="44.37215" lon="5.80833">
        <ele>980.16</ele>
        <time>2022-03-22T08:43:55Z</time>
      </trkpt>
      <trkpt lat="44.37216" lon="5.80833">
        <ele>980.46</ele>
        <time>2022-03-22T08:43:56Z</time>
      </trkpt>
      <trkpt lat="44.37218" lon="5.80833">
        <ele>980.66</ele>
        <time>2022-03-22T08:43:58Z</time>
      </trkpt>
      <trkpt lat="44.3722" lon="5.80834">
        <ele>980.66</ele>
        <time>2022-03-22T08:44:00Z</time>
      </trkpt>
      <trkpt lat="44.37221" lon="5.80835">
        <ele>980.66</ele>
        <time>2022-03-22T08:44:01Z</time>
      </trkpt>
      <trkpt lat="44.37223" lon="5.80834">
        <ele>980.76</ele>
        <time>2022-03-22T08:44:02Z</time>
      </trkpt>
      <trkpt lat="44.37224" lon="5.80834">
        <ele>980.96</ele>
        <time>2022-03-22T08:44:04Z</time>
      </trkpt>
      <trkpt lat="44.37225" lon="5.80833">
        <ele>980.96</ele>
        <time>2022-03-22T08:44:06Z</time>
      </trkpt>
      <trkpt lat="44.37227" lon="5.80833">
        <ele>981.06</ele>
        <time>2022-03-22T08:44:08Z</time>
      </trkpt>
      <trkpt lat="44.37228" lon="5.80832">
        <ele>981.26</ele>
        <time>2022-03-22T08:44:10Z</time>
      </trkpt>
      <trkpt lat="44.37229" lon="5.80831">
        <ele>981.56</ele>
        <time>2022-03-22T08:44:12Z</time>
      </trkpt>
      <trkpt lat="44.3723" lon="5.80829">
        <ele>981.76</ele>
        <time>2022-03-22T08:44:14Z</time>
      </trkpt>
      <trkpt lat="44.37231" lon="5.80828">
        <ele>982.26</ele>
        <time>2022-03-22T08:44:17Z</time>
      </trkpt>
      <trkpt lat="44.37233" lon="5.80828">
        <ele>982.36</ele>
        <time>2022-03-22T08:44:19Z</time>
      </trkpt>
      <trkpt lat="44.37234" lon="5.80828">
        <ele>982.46</ele>
        <time>2022-03-22T08:44:20Z</time>
      </trkpt>
      <trkpt lat="44.37235" lon="5.80828">
        <ele>982.66</ele>
        <time>2022-03-22T08:44:21Z</time>
      </trkpt>
      <trkpt lat="44.37236" lon="5.80827">
        <ele>982.96</ele>
        <time>2022-03-22T08:44:23Z</time>
      </trkpt>
      <trkpt lat="44.37237" lon="5.80826">
        <ele>982.96</ele>
        <time>2022-03-22T08:44:25Z</time>
      </trkpt>
      <trkpt lat="44.37238" lon="5.80826">
        <ele>982.859</ele>
        <time>2022-03-22T08:44:27Z</time>
      </trkpt>
      <trkpt lat="44.3724" lon="5.80825">
        <ele>982.959</ele>
        <time>2022-03-22T08:44:29Z</time>
      </trkpt>
      <trkpt lat="44.37241" lon="5.80825">
        <ele>983.159</ele>
        <time>2022-03-22T08:44:31Z</time>
      </trkpt>
      <trkpt lat="44.37242" lon="5.80825">
        <ele>983.359</ele>
        <time>2022-03-22T08:44:33Z</time>
      </trkpt>
      <trkpt lat="44.37244" lon="5.80825">
        <ele>983.959</ele>
        <time>2022-03-22T08:44:35Z</time>
      </trkpt>
      <trkpt lat="44.37245" lon="5.80824">
        <ele>984.259</ele>
        <time>2022-03-22T08:44:37Z</time>
      </trkpt>
      <trkpt lat="44.37246" lon="5.80823">
        <ele>984.559</ele>
        <time>2022-03-22T08:44:38Z</time>
      </trkpt>
      <trkpt lat="44.37247" lon="5.80822">
        <ele>984.859</ele>
        <time>2022-03-22T08:44:40Z</time>
      </trkpt>
      <trkpt lat="44.37248" lon="5.80822">
        <ele>984.959</ele>
        <time>2022-03-22T08:44:41Z</time>
      </trkpt>
      <trkpt lat="44.37249" lon="5.80821">
        <ele>985.159</ele>
        <time>2022-03-22T08:44:43Z</time>
      </trkpt>
      <trkpt lat="44.3725" lon="5.8082">
        <ele>985.459</ele>
        <time>2022-03-22T08:44:44Z</time>
      </trkpt>
      <trkpt lat="44.37252" lon="5.80819">
        <ele>986.159</ele>
        <time>2022-03-22T08:44:47Z</time>
      </trkpt>
      <trkpt lat="44.37253" lon="5.8082">
        <ele>986.359</ele>
        <time>2022-03-22T08:44:49Z</time>
      </trkpt>
      <trkpt lat="44.37254" lon="5.80819">
        <ele>986.359</ele>
        <time>2022-03-22T08:44:51Z</time>
      </trkpt>
      <trkpt lat="44.37254" lon="5.80819">
        <ele>986.559</ele>
        <time>2022-03-22T08:44:52Z</time>
      </trkpt>
      <trkpt lat="44.37255" lon="5.80819">
        <ele>986.459</ele>
        <time>2022-03-22T08:44:53Z</time>
      </trkpt>
      <trkpt lat="44.37255" lon="5.8082">
        <ele>986.559</ele>
        <time>2022-03-22T08:45:05Z</time>
      </trkpt>
      <trkpt lat="44.37262" lon="5.8082">
        <ele>987.859</ele>
        <time>2022-03-22T08:45:06Z</time>
      </trkpt>
      <trkpt lat="44.37263" lon="5.80819">
        <ele>987.959</ele>
        <time>2022-03-22T08:45:08Z</time>
      </trkpt>
      <trkpt lat="44.37264" lon="5.80819">
        <ele>988.059</ele>
        <time>2022-03-22T08:45:10Z</time>
      </trkpt>
      <trkpt lat="44.37266" lon="5.80819">
        <ele>988.559</ele>
        <time>2022-03-22T08:45:12Z</time>
      </trkpt>
      <trkpt lat="44.37267" lon="5.80819">
        <ele>989.159</ele>
        <time>2022-03-22T08:45:14Z</time>
      </trkpt>
      <trkpt lat="44.37268" lon="5.80819">
        <ele>989.559</ele>
        <time>2022-03-22T08:45:16Z</time>
      </trkpt>
      <trkpt lat="44.37269" lon="5.80818">
        <ele>990.059</ele>
        <time>2022-03-22T08:45:18Z</time>
      </trkpt>
      <trkpt lat="44.37269" lon="5.80816">
        <ele>990.659</ele>
        <time>2022-03-22T08:45:20Z</time>
      </trkpt>
      <trkpt lat="44.37269" lon="5.80814">
        <ele>990.859</ele>
        <time>2022-03-22T08:45:22Z</time>
      </trkpt>
      <trkpt lat="44.37269" lon="5.80814">
        <ele>990.959</ele>
        <time>2022-03-22T08:45:24Z</time>
      </trkpt>
      <trkpt lat="44.3727" lon="5.80813">
        <ele>991.059</ele>
        <time>2022-03-22T08:45:25Z</time>
      </trkpt>
      <trkpt lat="44.3727" lon="5.80812">
        <ele>991.159</ele>
        <time>2022-03-22T08:45:27Z</time>
      </trkpt>
      <trkpt lat="44.3727" lon="5.80811">
        <ele>991.259</ele>
        <time>2022-03-22T08:45:28Z</time>
      </trkpt>
      <trkpt lat="44.37271" lon="5.80809">
        <ele>990.959</ele>
        <time>2022-03-22T08:45:30Z</time>
      </trkpt>
      <trkpt lat="44.37272" lon="5.80808">
        <ele>991.259</ele>
        <time>2022-03-22T08:45:32Z</time>
      </trkpt>
      <trkpt lat="44.37272" lon="5.80807">
        <ele>991.359</ele>
        <time>2022-03-22T08:45:33Z</time>
      </trkpt>
      <trkpt lat="44.37272" lon="5.80807">
        <ele>991.559</ele>
        <time>2022-03-22T08:45:34Z</time>
      </trkpt>
      <trkpt lat="44.37272" lon="5.80806">
        <ele>991.659</ele>
        <time>2022-03-22T08:45:35Z</time>
      </trkpt>
      <trkpt lat="44.37273" lon="5.80806">
        <ele>991.659</ele>
        <time>2022-03-22T08:45:37Z</time>
      </trkpt>
      <trkpt lat="44.37273" lon="5.80805">
        <ele>991.759</ele>
        <time>2022-03-22T08:45:38Z</time>
      </trkpt>
      <trkpt lat="44.37274" lon="5.80805">
        <ele>992.159</ele>
        <time>2022-03-22T08:45:40Z</time>
      </trkpt>
      <trkpt lat="44.37274" lon="5.80805">
        <ele>992.159</ele>
        <time>2022-03-22T08:45:44Z</time>
      </trkpt>
      <trkpt lat="44.37277" lon="5.80803">
        <ele>992.859</ele>
        <time>2022-03-22T08:45:45Z</time>
      </trkpt>
      <trkpt lat="44.37278" lon="5.80802">
        <ele>993.259</ele>
        <time>2022-03-22T08:45:47Z</time>
      </trkpt>
      <trkpt lat="44.37279" lon="5.80802">
        <ele>993.759</ele>
        <time>2022-03-22T08:45:49Z</time>
      </trkpt>
      <trkpt lat="44.3728" lon="5.808">
        <ele>993.859</ele>
        <time>2022-03-22T08:45:52Z</time>
      </trkpt>
      <trkpt lat="44.37281" lon="5.80798">
        <ele>994.059</ele>
        <time>2022-03-22T08:45:54Z</time>
      </trkpt>
      <trkpt lat="44.37282" lon="5.80796">
        <ele>994.259</ele>
        <time>2022-03-22T08:45:56Z</time>
      </trkpt>
      <trkpt lat="44.37283" lon="5.80795">
        <ele>994.659</ele>
        <time>2022-03-22T08:45:58Z</time>
      </trkpt>
      <trkpt lat="44.37284" lon="5.80793">
        <ele>994.959</ele>
        <time>2022-03-22T08:46:00Z</time>
      </trkpt>
      <trkpt lat="44.37284" lon="5.80792">
        <ele>995.359</ele>
        <time>2022-03-22T08:46:02Z</time>
      </trkpt>
      <trkpt lat="44.37285" lon="5.80791">
        <ele>995.559</ele>
        <time>2022-03-22T08:46:04Z</time>
      </trkpt>
      <trkpt lat="44.37285" lon="5.8079">
        <ele>995.659</ele>
        <time>2022-03-22T08:46:06Z</time>
      </trkpt>
      <trkpt lat="44.37285" lon="5.80788">
        <ele>995.559</ele>
        <time>2022-03-22T08:46:08Z</time>
      </trkpt>
      <trkpt lat="44.37285" lon="5.80787">
        <ele>995.559</ele>
        <time>2022-03-22T08:46:09Z</time>
      </trkpt>
      <trkpt lat="44.37286" lon="5.80785">
        <ele>995.559</ele>
        <time>2022-03-22T08:46:11Z</time>
      </trkpt>
      <trkpt lat="44.37286" lon="5.80783">
        <ele>995.659</ele>
        <time>2022-03-22T08:46:13Z</time>
      </trkpt>
      <trkpt lat="44.37286" lon="5.80782">
        <ele>995.759</ele>
        <time>2022-03-22T08:46:15Z</time>
      </trkpt>
      <trkpt lat="44.37287" lon="5.80781">
        <ele>995.959</ele>
        <time>2022-03-22T08:46:17Z</time>
      </trkpt>
      <trkpt lat="44.37288" lon="5.80779">
        <ele>996.159</ele>
        <time>2022-03-22T08:46:19Z</time>
      </trkpt>
      <trkpt lat="44.37289" lon="5.80778">
        <ele>996.259</ele>
        <time>2022-03-22T08:46:21Z</time>
      </trkpt>
      <trkpt lat="44.3729" lon="5.80776">
        <ele>996.259</ele>
        <time>2022-03-22T08:46:23Z</time>
      </trkpt>
      <trkpt lat="44.3729" lon="5.80775">
        <ele>996.359</ele>
        <time>2022-03-22T08:46:25Z</time>
      </trkpt>
      <trkpt lat="44.37291" lon="5.80774">
        <ele>996.359</ele>
        <time>2022-03-22T08:46:26Z</time>
      </trkpt>
      <trkpt lat="44.37292" lon="5.80772">
        <ele>996.359</ele>
        <time>2022-03-22T08:46:28Z</time>
      </trkpt>
      <trkpt lat="44.37294" lon="5.80772">
        <ele>996.659</ele>
        <time>2022-03-22T08:46:32Z</time>
      </trkpt>
      <trkpt lat="44.37295" lon="5.80773">
        <ele>996.959</ele>
        <time>2022-03-22T08:46:34Z</time>
      </trkpt>
      <trkpt lat="44.37296" lon="5.80774">
        <ele>997.159</ele>
        <time>2022-03-22T08:46:35Z</time>
      </trkpt>
      <trkpt lat="44.37297" lon="5.80775">
        <ele>997.359</ele>
        <time>2022-03-22T08:46:36Z</time>
      </trkpt>
      <trkpt lat="44.37298" lon="5.80776">
        <ele>997.758</ele>
        <time>2022-03-22T08:46:38Z</time>
      </trkpt>
      <trkpt lat="44.37299" lon="5.80777">
        <ele>998.458</ele>
        <time>2022-03-22T08:46:40Z</time>
      </trkpt>
      <trkpt lat="44.373" lon="5.80778">
        <ele>999.058</ele>
        <time>2022-03-22T08:46:42Z</time>
      </trkpt>
      <trkpt lat="44.37301" lon="5.80779">
        <ele>999.858</ele>
        <time>2022-03-22T08:46:45Z</time>
      </trkpt>
      <trkpt lat="44.37301" lon="5.80781">
        <ele>1000.358</ele>
        <time>2022-03-22T08:46:47Z</time>
      </trkpt>
      <trkpt lat="44.37301" lon="5.80781">
        <ele>1000.558</ele>
        <time>2022-03-22T08:46:48Z</time>
      </trkpt>
      <trkpt lat="44.37302" lon="5.80782">
        <ele>1001.158</ele>
        <time>2022-03-22T08:46:50Z</time>
      </trkpt>
      <trkpt lat="44.37303" lon="5.80782">
        <ele>1001.458</ele>
        <time>2022-03-22T08:46:51Z</time>
      </trkpt>
      <trkpt lat="44.37304" lon="5.80783">
        <ele>1001.858</ele>
        <time>2022-03-22T08:46:52Z</time>
      </trkpt>
      <trkpt lat="44.37305" lon="5.80783">
        <ele>1002.458</ele>
        <time>2022-03-22T08:46:54Z</time>
      </trkpt>
      <trkpt lat="44.37306" lon="5.80784">
        <ele>1003.258</ele>
        <time>2022-03-22T08:46:57Z</time>
      </trkpt>
      <trkpt lat="44.37306" lon="5.80786">
        <ele>1003.758</ele>
        <time>2022-03-22T08:46:59Z</time>
      </trkpt>
      <trkpt lat="44.37306" lon="5.80787">
        <ele>1004.458</ele>
        <time>2022-03-22T08:47:01Z</time>
      </trkpt>
      <trkpt lat="44.37306" lon="5.80787">
        <ele>1004.758</ele>
        <time>2022-03-22T08:47:02Z</time>
      </trkpt>
      <trkpt lat="44.37307" lon="5.80789">
        <ele>1004.958</ele>
        <time>2022-03-22T08:47:04Z</time>
      </trkpt>
      <trkpt lat="44.37307" lon="5.80789">
        <ele>1004.958</ele>
        <time>2022-03-22T08:47:05Z</time>
      </trkpt>
      <trkpt lat="44.37309" lon="5.8079">
        <ele>1005.658</ele>
        <time>2022-03-22T08:47:06Z</time>
      </trkpt>
      <trkpt lat="44.3731" lon="5.80792">
        <ele>1006.358</ele>
        <time>2022-03-22T08:47:08Z</time>
      </trkpt>
      <trkpt lat="44.3731" lon="5.80793">
        <ele>1006.858</ele>
        <time>2022-03-22T08:47:10Z</time>
      </trkpt>
      <trkpt lat="44.37311" lon="5.80795">
        <ele>1007.258</ele>
        <time>2022-03-22T08:47:12Z</time>
      </trkpt>
      <trkpt lat="44.37311" lon="5.80797">
        <ele>1007.358</ele>
        <time>2022-03-22T08:47:14Z</time>
      </trkpt>
      <trkpt lat="44.37311" lon="5.80798">
        <ele>1007.658</ele>
        <time>2022-03-22T08:47:17Z</time>
      </trkpt>
      <trkpt lat="44.37312" lon="5.80799">
        <ele>1008.058</ele>
        <time>2022-03-22T08:47:19Z</time>
      </trkpt>
      <trkpt lat="44.37312" lon="5.808">
        <ele>1008.258</ele>
        <time>2022-03-22T08:47:20Z</time>
      </trkpt>
      <trkpt lat="44.37312" lon="5.80801">
        <ele>1008.658</ele>
        <time>2022-03-22T08:47:22Z</time>
      </trkpt>
      <trkpt lat="44.37312" lon="5.80802">
        <ele>1008.858</ele>
        <time>2022-03-22T08:47:23Z</time>
      </trkpt>
      <trkpt lat="44.37313" lon="5.80802">
        <ele>1008.858</ele>
        <time>2022-03-22T08:47:24Z</time>
      </trkpt>
      <trkpt lat="44.37313" lon="5.80804">
        <ele>1009.258</ele>
        <time>2022-03-22T08:47:26Z</time>
      </trkpt>
      <trkpt lat="44.37313" lon="5.80805">
        <ele>1009.358</ele>
        <time>2022-03-22T08:47:27Z</time>
      </trkpt>
      <trkpt lat="44.37314" lon="5.80805">
        <ele>1009.558</ele>
        <time>2022-03-22T08:47:28Z</time>
      </trkpt>
      <trkpt lat="44.37314" lon="5.80807">
        <ele>1009.958</ele>
        <time>2022-03-22T08:47:30Z</time>
      </trkpt>
      <trkpt lat="44.37314" lon="5.80807">
        <ele>1009.958</ele>
        <time>2022-03-22T08:47:31Z</time>
      </trkpt>
      <trkpt lat="44.37315" lon="5.80808">
        <ele>1010.558</ele>
        <time>2022-03-22T08:47:32Z</time>
      </trkpt>
      <trkpt lat="44.37317" lon="5.80809">
        <ele>1010.958</ele>
        <time>2022-03-22T08:47:34Z</time>
      </trkpt>
      <trkpt lat="44.37318" lon="5.8081">
        <ele>1010.958</ele>
        <time>2022-03-22T08:47:36Z</time>
      </trkpt>
      <trkpt lat="44.37318" lon="5.80812">
        <ele>1010.958</ele>
        <time>2022-03-22T08:47:38Z</time>
      </trkpt>
      <trkpt lat="44.37317" lon="5.80814">
        <ele>1011.358</ele>
        <time>2022-03-22T08:47:40Z</time>
      </trkpt>
      <trkpt lat="44.37318" lon="5.80815">
        <ele>1011.858</ele>
        <time>2022-03-22T08:47:42Z</time>
      </trkpt>
      <trkpt lat="44.37318" lon="5.80817">
        <ele>1012.158</ele>
        <time>2022-03-22T08:47:44Z</time>
      </trkpt>
      <trkpt lat="44.37318" lon="5.80817">
        <ele>1012.358</ele>
        <time>2022-03-22T08:47:45Z</time>
      </trkpt>
      <trkpt lat="44.37319" lon="5.80817">
        <ele>1012.358</ele>
        <time>2022-03-22T08:47:46Z</time>
      </trkpt>
      <trkpt lat="44.37319" lon="5.80819">
        <ele>1012.458</ele>
        <time>2022-03-22T08:47:48Z</time>
      </trkpt>
      <trkpt lat="44.37319" lon="5.80819">
        <ele>1012.458</ele>
        <time>2022-03-22T08:47:53Z</time>
      </trkpt>
      <trkpt lat="44.37319" lon="5.80823">
        <ele>1012.957</ele>
        <time>2022-03-22T08:47:54Z</time>
      </trkpt>
      <trkpt lat="44.37318" lon="5.80824">
        <ele>1012.857</ele>
        <time>2022-03-22T08:47:55Z</time>
      </trkpt>
      <trkpt lat="44.37318" lon="5.80826">
        <ele>1012.957</ele>
        <time>2022-03-22T08:47:57Z</time>
      </trkpt>
      <trkpt lat="44.37317" lon="5.80828">
        <ele>1013.357</ele>
        <time>2022-03-22T08:47:59Z</time>
      </trkpt>
      <trkpt lat="44.37317" lon="5.80829">
        <ele>1013.757</ele>
        <time>2022-03-22T08:48:01Z</time>
      </trkpt>
      <trkpt lat="44.37317" lon="5.80831">
        <ele>1013.557</ele>
        <time>2022-03-22T08:48:03Z</time>
      </trkpt>
      <trkpt lat="44.37317" lon="5.80833">
        <ele>1014.057</ele>
        <time>2022-03-22T08:48:06Z</time>
      </trkpt>
      <trkpt lat="44.37317" lon="5.80835">
        <ele>1014.157</ele>
        <time>2022-03-22T08:48:09Z</time>
      </trkpt>
      <trkpt lat="44.37317" lon="5.80837">
        <ele>1014.257</ele>
        <time>2022-03-22T08:48:11Z</time>
      </trkpt>
      <trkpt lat="44.37316" lon="5.80838">
        <ele>1014.557</ele>
        <time>2022-03-22T08:48:13Z</time>
      </trkpt>
      <trkpt lat="44.37317" lon="5.8084">
        <ele>1015.057</ele>
        <time>2022-03-22T08:48:15Z</time>
      </trkpt>
      <trkpt lat="44.37317" lon="5.80841">
        <ele>1015.457</ele>
        <time>2022-03-22T08:48:17Z</time>
      </trkpt>
      <trkpt lat="44.37317" lon="5.80843">
        <ele>1016.657</ele>
        <time>2022-03-22T08:48:20Z</time>
      </trkpt>
      <trkpt lat="44.37317" lon="5.80844">
        <ele>1017.357</ele>
        <time>2022-03-22T08:48:22Z</time>
      </trkpt>
      <trkpt lat="44.37317" lon="5.80845">
        <ele>1018.157</ele>
        <time>2022-03-22T08:48:25Z</time>
      </trkpt>
      <trkpt lat="44.37317" lon="5.80846">
        <ele>1018.257</ele>
        <time>2022-03-22T08:48:26Z</time>
      </trkpt>
      <trkpt lat="44.37317" lon="5.80847">
        <ele>1018.457</ele>
        <time>2022-03-22T08:48:27Z</time>
      </trkpt>
      <trkpt lat="44.37316" lon="5.80849">
        <ele>1018.457</ele>
        <time>2022-03-22T08:48:29Z</time>
      </trkpt>
      <trkpt lat="44.37316" lon="5.8085">
        <ele>1018.857</ele>
        <time>2022-03-22T08:48:31Z</time>
      </trkpt>
      <trkpt lat="44.37316" lon="5.80852">
        <ele>1019.157</ele>
        <time>2022-03-22T08:48:33Z</time>
      </trkpt>
      <trkpt lat="44.37317" lon="5.80854">
        <ele>1019.857</ele>
        <time>2022-03-22T08:48:36Z</time>
      </trkpt>
      <trkpt lat="44.37317" lon="5.80854">
        <ele>1020.057</ele>
        <time>2022-03-22T08:48:37Z</time>
      </trkpt>
      <trkpt lat="44.37317" lon="5.80855">
        <ele>1020.157</ele>
        <time>2022-03-22T08:48:38Z</time>
      </trkpt>
      <trkpt lat="44.37317" lon="5.80856">
        <ele>1020.357</ele>
        <time>2022-03-22T08:48:39Z</time>
      </trkpt>
      <trkpt lat="44.37317" lon="5.80858">
        <ele>1021.157</ele>
        <time>2022-03-22T08:48:41Z</time>
      </trkpt>
      <trkpt lat="44.37317" lon="5.80859">
        <ele>1021.157</ele>
        <time>2022-03-22T08:48:43Z</time>
      </trkpt>
      <trkpt lat="44.37317" lon="5.80861">
        <ele>1021.457</ele>
        <time>2022-03-22T08:48:45Z</time>
      </trkpt>
      <trkpt lat="44.37317" lon="5.80863">
        <ele>1021.657</ele>
        <time>2022-03-22T08:48:47Z</time>
      </trkpt>
      <trkpt lat="44.37317" lon="5.80864">
        <ele>1021.957</ele>
        <time>2022-03-22T08:48:49Z</time>
      </trkpt>
      <trkpt lat="44.37318" lon="5.80866">
        <ele>1022.057</ele>
        <time>2022-03-22T08:48:51Z</time>
      </trkpt>
      <trkpt lat="44.37318" lon="5.80867">
        <ele>1022.557</ele>
        <time>2022-03-22T08:48:53Z</time>
      </trkpt>
      <trkpt lat="44.37319" lon="5.80869">
        <ele>1022.857</ele>
        <time>2022-03-22T08:48:55Z</time>
      </trkpt>
      <trkpt lat="44.37319" lon="5.8087">
        <ele>1023.257</ele>
        <time>2022-03-22T08:48:57Z</time>
      </trkpt>
      <trkpt lat="44.3732" lon="5.80871">
        <ele>1024.057</ele>
        <time>2022-03-22T08:49:00Z</time>
      </trkpt>
      <trkpt lat="44.37321" lon="5.80872">
        <ele>1024.857</ele>
        <time>2022-03-22T08:49:02Z</time>
      </trkpt>
      <trkpt lat="44.37321" lon="5.80872">
        <ele>1025.157</ele>
        <time>2022-03-22T08:49:03Z</time>
      </trkpt>
      <trkpt lat="44.37322" lon="5.80873">
        <ele>1025.357</ele>
        <time>2022-03-22T08:49:05Z</time>
      </trkpt>
      <trkpt lat="44.37322" lon="5.80873">
        <ele>1025.357</ele>
        <time>2022-03-22T08:49:06Z</time>
      </trkpt>
      <trkpt lat="44.37323" lon="5.80874">
        <ele>1025.957</ele>
        <time>2022-03-22T08:49:07Z</time>
      </trkpt>
      <trkpt lat="44.37324" lon="5.80875">
        <ele>1026.057</ele>
        <time>2022-03-22T08:49:08Z</time>
      </trkpt>
      <trkpt lat="44.37324" lon="5.80876">
        <ele>1026.157</ele>
        <time>2022-03-22T08:49:09Z</time>
      </trkpt>
      <trkpt lat="44.37324" lon="5.80878">
        <ele>1026.457</ele>
        <time>2022-03-22T08:49:11Z</time>
      </trkpt>
      <trkpt lat="44.37324" lon="5.80878">
        <ele>1026.457</ele>
        <time>2022-03-22T08:49:13Z</time>
      </trkpt>
      <trkpt lat="44.37324" lon="5.80881">
        <ele>1027.057</ele>
        <time>2022-03-22T08:49:14Z</time>
      </trkpt>
      <trkpt lat="44.37325" lon="5.80882">
        <ele>1027.457</ele>
        <time>2022-03-22T08:49:16Z</time>
      </trkpt>
      <trkpt lat="44.37325" lon="5.80883">
        <ele>1027.957</ele>
        <time>2022-03-22T08:49:18Z</time>
      </trkpt>
      <trkpt lat="44.37325" lon="5.80885">
        <ele>1028.357</ele>
        <time>2022-03-22T08:49:20Z</time>
      </trkpt>
      <trkpt lat="44.37325" lon="5.80886">
        <ele>1028.957</ele>
        <time>2022-03-22T08:49:22Z</time>
      </trkpt>
      <trkpt lat="44.37325" lon="5.80887">
        <ele>1029.057</ele>
        <time>2022-03-22T08:49:23Z</time>
      </trkpt>
      <trkpt lat="44.37325" lon="5.80887">
        <ele>1029.357</ele>
        <time>2022-03-22T08:49:24Z</time>
      </trkpt>
      <trkpt lat="44.37326" lon="5.80889">
        <ele>1029.757</ele>
        <time>2022-03-22T08:49:26Z</time>
      </trkpt>
      <trkpt lat="44.37326" lon="5.80889">
        <ele>1029.757</ele>
        <time>2022-03-22T08:49:27Z</time>
      </trkpt>
      <trkpt lat="44.37327" lon="5.80889">
        <ele>1029.757</ele>
        <time>2022-03-22T08:49:28Z</time>
      </trkpt>
      <trkpt lat="44.37328" lon="5.80889">
        <ele>1029.957</ele>
        <time>2022-03-22T08:49:30Z</time>
      </trkpt>
      <trkpt lat="44.37329" lon="5.8089">
        <ele>1030.057</ele>
        <time>2022-03-22T08:49:31Z</time>
      </trkpt>
      <trkpt lat="44.3733" lon="5.8089">
        <ele>1030.157</ele>
        <time>2022-03-22T08:49:33Z</time>
      </trkpt>
      <trkpt lat="44.37331" lon="5.8089">
        <ele>1029.857</ele>
        <time>2022-03-22T08:49:35Z</time>
      </trkpt>
      <trkpt lat="44.37332" lon="5.8089">
        <ele>1029.856</ele>
        <time>2022-03-22T08:49:36Z</time>
      </trkpt>
      <trkpt lat="44.37333" lon="5.80889">
        <ele>1029.956</ele>
        <time>2022-03-22T08:49:37Z</time>
      </trkpt>
      <trkpt lat="44.37333" lon="5.80889">
        <ele>1029.856</ele>
        <time>2022-03-22T08:49:38Z</time>
      </trkpt>
      <trkpt lat="44.37334" lon="5.80889">
        <ele>1029.956</ele>
        <time>2022-03-22T08:49:39Z</time>
      </trkpt>
      <trkpt lat="44.37334" lon="5.80889">
        <ele>1030.156</ele>
        <time>2022-03-22T08:49:40Z</time>
      </trkpt>
      <trkpt lat="44.37335" lon="5.80888">
        <ele>1030.356</ele>
        <time>2022-03-22T08:49:42Z</time>
      </trkpt>
      <trkpt lat="44.37335" lon="5.80888">
        <ele>1030.356</ele>
        <time>2022-03-22T08:49:45Z</time>
      </trkpt>
      <trkpt lat="44.37338" lon="5.80888">
        <ele>1030.656</ele>
        <time>2022-03-22T08:49:46Z</time>
      </trkpt>
      <trkpt lat="44.37338" lon="5.80888">
        <ele>1030.756</ele>
        <time>2022-03-22T08:49:47Z</time>
      </trkpt>
      <trkpt lat="44.37339" lon="5.80887">
        <ele>1030.656</ele>
        <time>2022-03-22T08:49:48Z</time>
      </trkpt>
      <trkpt lat="44.3734" lon="5.80888">
        <ele>1030.756</ele>
        <time>2022-03-22T08:49:49Z</time>
      </trkpt>
      <trkpt lat="44.37341" lon="5.80888">
        <ele>1031.056</ele>
        <time>2022-03-22T08:49:50Z</time>
      </trkpt>
      <trkpt lat="44.37342" lon="5.80889">
        <ele>1031.056</ele>
        <time>2022-03-22T08:49:52Z</time>
      </trkpt>
      <trkpt lat="44.37343" lon="5.8089">
        <ele>1031.656</ele>
        <time>2022-03-22T08:49:54Z</time>
      </trkpt>
      <trkpt lat="44.37343" lon="5.8089">
        <ele>1032.356</ele>
        <time>2022-03-22T08:49:58Z</time>
      </trkpt>
      <trkpt lat="44.37343" lon="5.8089">
        <ele>1032.556</ele>
        <time>2022-03-22T08:49:59Z</time>
      </trkpt>
      <trkpt lat="44.37344" lon="5.80892">
        <ele>1033.056</ele>
        <time>2022-03-22T08:50:01Z</time>
      </trkpt>
      <trkpt lat="44.37344" lon="5.80892">
        <ele>1033.056</ele>
        <time>2022-03-22T08:50:03Z</time>
      </trkpt>
      <trkpt lat="44.37345" lon="5.80894">
        <ele>1033.756</ele>
        <time>2022-03-22T08:50:04Z</time>
      </trkpt>
      <trkpt lat="44.37345" lon="5.80894">
        <ele>1034.056</ele>
        <time>2022-03-22T08:50:05Z</time>
      </trkpt>
      <trkpt lat="44.37345" lon="5.80895">
        <ele>1034.056</ele>
        <time>2022-03-22T08:50:06Z</time>
      </trkpt>
      <trkpt lat="44.37346" lon="5.80896">
        <ele>1034.256</ele>
        <time>2022-03-22T08:50:07Z</time>
      </trkpt>
      <trkpt lat="44.37346" lon="5.80897">
        <ele>1034.456</ele>
        <time>2022-03-22T08:50:09Z</time>
      </trkpt>
      <trkpt lat="44.37347" lon="5.80898">
        <ele>1034.956</ele>
        <time>2022-03-22T08:50:12Z</time>
      </trkpt>
      <trkpt lat="44.37348" lon="5.809">
        <ele>1034.956</ele>
        <time>2022-03-22T08:50:15Z</time>
      </trkpt>
      <trkpt lat="44.37349" lon="5.80901">
        <ele>1035.456</ele>
        <time>2022-03-22T08:50:18Z</time>
      </trkpt>
      <trkpt lat="44.37349" lon="5.80901">
        <ele>1035.656</ele>
        <time>2022-03-22T08:50:19Z</time>
      </trkpt>
      <trkpt lat="44.37349" lon="5.80901">
        <ele>1035.656</ele>
        <time>2022-03-22T08:50:22Z</time>
      </trkpt>
      <trkpt lat="44.37349" lon="5.80902">
        <ele>1036.056</ele>
        <time>2022-03-22T08:50:23Z</time>
      </trkpt>
      <trkpt lat="44.3735" lon="5.80903">
        <ele>1036.256</ele>
        <time>2022-03-22T08:50:24Z</time>
      </trkpt>
      <trkpt lat="44.3735" lon="5.80904">
        <ele>1036.356</ele>
        <time>2022-03-22T08:50:26Z</time>
      </trkpt>
      <trkpt lat="44.3735" lon="5.80904">
        <ele>1036.356</ele>
        <time>2022-03-22T08:50:32Z</time>
      </trkpt>
      <trkpt lat="44.37352" lon="5.80907">
        <ele>1036.456</ele>
        <time>2022-03-22T08:50:33Z</time>
      </trkpt>
      <trkpt lat="44.37353" lon="5.80908">
        <ele>1036.556</ele>
        <time>2022-03-22T08:50:35Z</time>
      </trkpt>
      <trkpt lat="44.37353" lon="5.80909">
        <ele>1036.756</ele>
        <time>2022-03-22T08:50:37Z</time>
      </trkpt>
      <trkpt lat="44.37354" lon="5.8091">
        <ele>1036.856</ele>
        <time>2022-03-22T08:50:39Z</time>
      </trkpt>
      <trkpt lat="44.37355" lon="5.80912">
        <ele>1037.056</ele>
        <time>2022-03-22T08:50:41Z</time>
      </trkpt>
      <trkpt lat="44.37355" lon="5.80913">
        <ele>1036.756</ele>
        <time>2022-03-22T08:50:45Z</time>
      </trkpt>
      <trkpt lat="44.37355" lon="5.80914">
        <ele>1036.756</ele>
        <time>2022-03-22T08:50:46Z</time>
      </trkpt>
      <trkpt lat="44.37355" lon="5.80914">
        <ele>1036.756</ele>
        <time>2022-03-22T08:50:47Z</time>
      </trkpt>
      <trkpt lat="44.37355" lon="5.80914">
        <ele>1037.056</ele>
        <time>2022-03-22T08:56:22Z</time>
      </trkpt>
      <trkpt lat="44.37363" lon="5.8091">
        <ele>1039.656</ele>
        <time>2022-03-22T08:56:23Z</time>
      </trkpt>
      <trkpt lat="44.37365" lon="5.8091">
        <ele>1040.055</ele>
        <time>2022-03-22T08:56:25Z</time>
      </trkpt>
      <trkpt lat="44.37366" lon="5.8091">
        <ele>1040.955</ele>
        <time>2022-03-22T08:56:27Z</time>
      </trkpt>
      <trkpt lat="44.37367" lon="5.80909">
        <ele>1041.855</ele>
        <time>2022-03-22T08:56:30Z</time>
      </trkpt>
      <trkpt lat="44.37368" lon="5.80907">
        <ele>1042.155</ele>
        <time>2022-03-22T08:56:33Z</time>
      </trkpt>
      <trkpt lat="44.37367" lon="5.80906">
        <ele>1042.755</ele>
        <time>2022-03-22T08:56:35Z</time>
      </trkpt>
      <trkpt lat="44.37368" lon="5.80904">
        <ele>1042.955</ele>
        <time>2022-03-22T08:56:37Z</time>
      </trkpt>
      <trkpt lat="44.37368" lon="5.80902">
        <ele>1042.855</ele>
        <time>2022-03-22T08:56:39Z</time>
      </trkpt>
      <trkpt lat="44.37369" lon="5.80901">
        <ele>1042.755</ele>
        <time>2022-03-22T08:56:40Z</time>
      </trkpt>
      <trkpt lat="44.37369" lon="5.80899">
        <ele>1042.855</ele>
        <time>2022-03-22T08:56:42Z</time>
      </trkpt>
      <trkpt lat="44.37369" lon="5.80898">
        <ele>1043.355</ele>
        <time>2022-03-22T08:56:44Z</time>
      </trkpt>
      <trkpt lat="44.3737" lon="5.80896">
        <ele>1043.555</ele>
        <time>2022-03-22T08:56:46Z</time>
      </trkpt>
      <trkpt lat="44.37371" lon="5.80894">
        <ele>1043.455</ele>
        <time>2022-03-22T08:56:49Z</time>
      </trkpt>
      <trkpt lat="44.37371" lon="5.80893">
        <ele>1043.455</ele>
        <time>2022-03-22T08:56:51Z</time>
      </trkpt>
      <trkpt lat="44.37371" lon="5.80893">
        <ele>1043.655</ele>
        <time>2022-03-22T08:56:52Z</time>
      </trkpt>
      <trkpt lat="44.37371" lon="5.80893">
        <ele>1043.755</ele>
        <time>2022-03-22T08:56:53Z</time>
      </trkpt>
      <trkpt lat="44.37371" lon="5.80893">
        <ele>1044.355</ele>
        <time>2022-03-22T08:57:07Z</time>
      </trkpt>
      <trkpt lat="44.37372" lon="5.80892">
        <ele>1045.255</ele>
        <time>2022-03-22T08:57:08Z</time>
      </trkpt>
      <trkpt lat="44.37373" lon="5.8089">
        <ele>1044.655</ele>
        <time>2022-03-22T08:57:10Z</time>
      </trkpt>
      <trkpt lat="44.37373" lon="5.80888">
        <ele>1044.555</ele>
        <time>2022-03-22T08:57:12Z</time>
      </trkpt>
      <trkpt lat="44.37373" lon="5.80886">
        <ele>1044.656</ele>
        <time>2022-03-22T08:57:14Z</time>
      </trkpt>
      <trkpt lat="44.37374" lon="5.80884">
        <ele>1044.456</ele>
        <time>2022-03-22T08:57:16Z</time>
      </trkpt>
      <trkpt lat="44.37374" lon="5.80882">
        <ele>1044.556</ele>
        <time>2022-03-22T08:57:18Z</time>
      </trkpt>
      <trkpt lat="44.37376" lon="5.80881">
        <ele>1044.755</ele>
        <time>2022-03-22T08:57:21Z</time>
      </trkpt>
      <trkpt lat="44.37377" lon="5.80881">
        <ele>1045.155</ele>
        <time>2022-03-22T08:57:23Z</time>
      </trkpt>
      <trkpt lat="44.37378" lon="5.8088">
        <ele>1045.055</ele>
        <time>2022-03-22T08:57:26Z</time>
      </trkpt>
      <trkpt lat="44.37378" lon="5.8088">
        <ele>1044.955</ele>
        <time>2022-03-22T08:57:27Z</time>
      </trkpt>
      <trkpt lat="44.37378" lon="5.80879">
        <ele>1045.155</ele>
        <time>2022-03-22T08:57:28Z</time>
      </trkpt>
      <trkpt lat="44.37379" lon="5.80878">
        <ele>1045.455</ele>
        <time>2022-03-22T08:57:34Z</time>
      </trkpt>
      <trkpt lat="44.37381" lon="5.80876">
        <ele>1046.155</ele>
        <time>2022-03-22T08:57:35Z</time>
      </trkpt>
      <trkpt lat="44.37381" lon="5.80876">
        <ele>1046.355</ele>
        <time>2022-03-22T08:57:36Z</time>
      </trkpt>
      <trkpt lat="44.37381" lon="5.80876">
        <ele>1046.555</ele>
        <time>2022-03-22T08:57:37Z</time>
      </trkpt>
      <trkpt lat="44.37382" lon="5.80875">
        <ele>1046.755</ele>
        <time>2022-03-22T08:57:38Z</time>
      </trkpt>
      <trkpt lat="44.37382" lon="5.80875">
        <ele>1046.955</ele>
        <time>2022-03-22T08:57:39Z</time>
      </trkpt>
      <trkpt lat="44.37382" lon="5.80874">
        <ele>1046.855</ele>
        <time>2022-03-22T08:57:51Z</time>
      </trkpt>
      <trkpt lat="44.37385" lon="5.80871">
        <ele>1048.455</ele>
        <time>2022-03-22T08:57:52Z</time>
      </trkpt>
      <trkpt lat="44.37386" lon="5.80871">
        <ele>1048.555</ele>
        <time>2022-03-22T08:57:53Z</time>
      </trkpt>
      <trkpt lat="44.37386" lon="5.8087">
        <ele>1048.755</ele>
        <time>2022-03-22T08:57:54Z</time>
      </trkpt>
      <trkpt lat="44.37386" lon="5.80869">
        <ele>1049.055</ele>
        <time>2022-03-22T08:57:56Z</time>
      </trkpt>
      <trkpt lat="44.37386" lon="5.80869">
        <ele>1049.055</ele>
        <time>2022-03-22T08:58:02Z</time>
      </trkpt>
      <trkpt lat="44.3739" lon="5.80864">
        <ele>1050.055</ele>
        <time>2022-03-22T08:58:03Z</time>
      </trkpt>
      <trkpt lat="44.37391" lon="5.80864">
        <ele>1050.255</ele>
        <time>2022-03-22T08:58:05Z</time>
      </trkpt>
      <trkpt lat="44.37393" lon="5.80863">
        <ele>1050.555</ele>
        <time>2022-03-22T08:58:08Z</time>
      </trkpt>
      <trkpt lat="44.37394" lon="5.80863">
        <ele>1051.055</ele>
        <time>2022-03-22T08:58:10Z</time>
      </trkpt>
      <trkpt lat="44.37394" lon="5.80862">
        <ele>1051.255</ele>
        <time>2022-03-22T08:58:12Z</time>
      </trkpt>
      <trkpt lat="44.37395" lon="5.80861">
        <ele>1051.455</ele>
        <time>2022-03-22T08:58:13Z</time>
      </trkpt>
      <trkpt lat="44.37395" lon="5.80861">
        <ele>1051.555</ele>
        <time>2022-03-22T08:58:14Z</time>
      </trkpt>
      <trkpt lat="44.37395" lon="5.8086">
        <ele>1051.755</ele>
        <time>2022-03-22T08:58:15Z</time>
      </trkpt>
      <trkpt lat="44.37395" lon="5.80859">
        <ele>1051.955</ele>
        <time>2022-03-22T08:58:16Z</time>
      </trkpt>
      <trkpt lat="44.37395" lon="5.80857">
        <ele>1052.355</ele>
        <time>2022-03-22T08:58:17Z</time>
      </trkpt>
      <trkpt lat="44.37396" lon="5.80856">
        <ele>1052.855</ele>
        <time>2022-03-22T08:58:19Z</time>
      </trkpt>
      <trkpt lat="44.37396" lon="5.80856">
        <ele>1052.855</ele>
        <time>2022-03-22T08:58:20Z</time>
      </trkpt>
      <trkpt lat="44.37396" lon="5.80854">
        <ele>1053.455</ele>
        <time>2022-03-22T08:58:21Z</time>
      </trkpt>
      <trkpt lat="44.37397" lon="5.80852">
        <ele>1053.655</ele>
        <time>2022-03-22T08:58:23Z</time>
      </trkpt>
      <trkpt lat="44.37397" lon="5.8085">
        <ele>1054.055</ele>
        <time>2022-03-22T08:58:25Z</time>
      </trkpt>
      <trkpt lat="44.37397" lon="5.80848">
        <ele>1054.355</ele>
        <time>2022-03-22T08:58:27Z</time>
      </trkpt>
      <trkpt lat="44.37397" lon="5.80847">
        <ele>1054.855</ele>
        <time>2022-03-22T08:58:29Z</time>
      </trkpt>
      <trkpt lat="44.37398" lon="5.80846">
        <ele>1054.855</ele>
        <time>2022-03-22T08:58:31Z</time>
      </trkpt>
      <trkpt lat="44.37398" lon="5.80845">
        <ele>1055.055</ele>
        <time>2022-03-22T08:58:33Z</time>
      </trkpt>
      <trkpt lat="44.37399" lon="5.80845">
        <ele>1055.255</ele>
        <time>2022-03-22T08:58:34Z</time>
      </trkpt>
      <trkpt lat="44.374" lon="5.80844">
        <ele>1055.255</ele>
        <time>2022-03-22T08:58:35Z</time>
      </trkpt>
      <trkpt lat="44.374" lon="5.80843">
        <ele>1055.155</ele>
        <time>2022-03-22T08:58:36Z</time>
      </trkpt>
      <trkpt lat="44.37401" lon="5.80842">
        <ele>1055.255</ele>
        <time>2022-03-22T08:58:37Z</time>
      </trkpt>
      <trkpt lat="44.37402" lon="5.80842">
        <ele>1055.555</ele>
        <time>2022-03-22T08:58:38Z</time>
      </trkpt>
      <trkpt lat="44.37403" lon="5.80841">
        <ele>1056.255</ele>
        <time>2022-03-22T08:58:40Z</time>
      </trkpt>
      <trkpt lat="44.37404" lon="5.8084">
        <ele>1056.855</ele>
        <time>2022-03-22T08:58:42Z</time>
      </trkpt>
      <trkpt lat="44.37405" lon="5.80838">
        <ele>1057.555</ele>
        <time>2022-03-22T08:58:44Z</time>
      </trkpt>
      <trkpt lat="44.37406" lon="5.80837">
        <ele>1057.955</ele>
        <time>2022-03-22T08:58:47Z</time>
      </trkpt>
      <trkpt lat="44.37407" lon="5.80835">
        <ele>1058.355</ele>
        <time>2022-03-22T08:58:50Z</time>
      </trkpt>
      <trkpt lat="44.37408" lon="5.80834">
        <ele>1058.755</ele>
        <time>2022-03-22T08:58:53Z</time>
      </trkpt>
      <trkpt lat="44.3741" lon="5.80833">
        <ele>1058.855</ele>
        <time>2022-03-22T08:58:55Z</time>
      </trkpt>
      <trkpt lat="44.37411" lon="5.80832">
        <ele>1058.655</ele>
        <time>2022-03-22T08:58:57Z</time>
      </trkpt>
      <trkpt lat="44.37412" lon="5.80831">
        <ele>1059.255</ele>
        <time>2022-03-22T08:59:00Z</time>
      </trkpt>
      <trkpt lat="44.37413" lon="5.80831">
        <ele>1059.355</ele>
        <time>2022-03-22T08:59:02Z</time>
      </trkpt>
      <trkpt lat="44.37415" lon="5.8083">
        <ele>1059.655</ele>
        <time>2022-03-22T08:59:04Z</time>
      </trkpt>
      <trkpt lat="44.37415" lon="5.80829">
        <ele>1059.855</ele>
        <time>2022-03-22T08:59:05Z</time>
      </trkpt>
      <trkpt lat="44.37415" lon="5.80829">
        <ele>1059.755</ele>
        <time>2022-03-22T08:59:25Z</time>
      </trkpt>
      <trkpt lat="44.37422" lon="5.8082">
        <ele>1061.855</ele>
        <time>2022-03-22T08:59:26Z</time>
      </trkpt>
      <trkpt lat="44.37423" lon="5.80819">
        <ele>1062.055</ele>
        <time>2022-03-22T08:59:28Z</time>
      </trkpt>
      <trkpt lat="44.37423" lon="5.80818">
        <ele>1061.855</ele>
        <time>2022-03-22T08:59:30Z</time>
      </trkpt>
      <trkpt lat="44.37424" lon="5.80817">
        <ele>1062.255</ele>
        <time>2022-03-22T08:59:32Z</time>
      </trkpt>
      <trkpt lat="44.37425" lon="5.80815">
        <ele>1062.755</ele>
        <time>2022-03-22T08:59:34Z</time>
      </trkpt>
      <trkpt lat="44.37426" lon="5.80814">
        <ele>1062.855</ele>
        <time>2022-03-22T08:59:37Z</time>
      </trkpt>
      <trkpt lat="44.37426" lon="5.80812">
        <ele>1063.255</ele>
        <time>2022-03-22T08:59:40Z</time>
      </trkpt>
      <trkpt lat="44.37427" lon="5.80812">
        <ele>1063.255</ele>
        <time>2022-03-22T08:59:41Z</time>
      </trkpt>
      <trkpt lat="44.37427" lon="5.80811">
        <ele>1063.355</ele>
        <time>2022-03-22T08:59:42Z</time>
      </trkpt>
      <trkpt lat="44.37427" lon="5.80811">
        <ele>1063.655</ele>
        <time>2022-03-22T09:00:06Z</time>
      </trkpt>
      <trkpt lat="44.37434" lon="5.80803">
        <ele>1068.355</ele>
        <time>2022-03-22T09:00:07Z</time>
      </trkpt>
      <trkpt lat="44.37435" lon="5.80803">
        <ele>1068.555</ele>
        <time>2022-03-22T09:00:08Z</time>
      </trkpt>
      <trkpt lat="44.37435" lon="5.80803">
        <ele>1068.955</ele>
        <time>2022-03-22T09:00:17Z</time>
      </trkpt>
      <trkpt lat="44.37437" lon="5.80801">
        <ele>1069.655</ele>
        <time>2022-03-22T09:00:18Z</time>
      </trkpt>
      <trkpt lat="44.37438" lon="5.80799">
        <ele>1070.255</ele>
        <time>2022-03-22T09:00:20Z</time>
      </trkpt>
      <trkpt lat="44.37438" lon="5.80799">
        <ele>1070.555</ele>
        <time>2022-03-22T09:00:21Z</time>
      </trkpt>
      <trkpt lat="44.37439" lon="5.80799">
        <ele>1071.055</ele>
        <time>2022-03-22T09:00:23Z</time>
      </trkpt>
      <trkpt lat="44.37439" lon="5.80799">
        <ele>1071.055</ele>
        <time>2022-03-22T09:00:47Z</time>
      </trkpt>
      <trkpt lat="44.37445" lon="5.8079">
        <ele>1073.055</ele>
        <time>2022-03-22T09:00:48Z</time>
      </trkpt>
      <trkpt lat="44.37446" lon="5.8079">
        <ele>1073.155</ele>
        <time>2022-03-22T09:00:49Z</time>
      </trkpt>
      <trkpt lat="44.37447" lon="5.8079">
        <ele>1073.555</ele>
        <time>2022-03-22T09:00:56Z</time>
      </trkpt>
      <trkpt lat="44.37449" lon="5.80789">
        <ele>1074.755</ele>
        <time>2022-03-22T09:00:57Z</time>
      </trkpt>
      <trkpt lat="44.37449" lon="5.80789">
        <ele>1074.955</ele>
        <time>2022-03-22T09:00:58Z</time>
      </trkpt>
      <trkpt lat="44.37449" lon="5.80788">
        <ele>1075.355</ele>
        <time>2022-03-22T09:01:21Z</time>
      </trkpt>
      <trkpt lat="44.37457" lon="5.80783">
        <ele>1076.954</ele>
        <time>2022-03-22T09:01:22Z</time>
      </trkpt>
      <trkpt lat="44.37457" lon="5.80783">
        <ele>1077.154</ele>
        <time>2022-03-22T09:01:23Z</time>
      </trkpt>
      <trkpt lat="44.37458" lon="5.80783">
        <ele>1078.054</ele>
        <time>2022-03-22T09:01:43Z</time>
      </trkpt>
      <trkpt lat="44.37462" lon="5.80776">
        <ele>1082.454</ele>
        <time>2022-03-22T09:01:44Z</time>
      </trkpt>
      <trkpt lat="44.37463" lon="5.80776">
        <ele>1082.654</ele>
        <time>2022-03-22T09:01:45Z</time>
      </trkpt>
      <trkpt lat="44.37463" lon="5.80775">
        <ele>1082.554</ele>
        <time>2022-03-22T09:01:52Z</time>
      </trkpt>
      <trkpt lat="44.37467" lon="5.80775">
        <ele>1082.654</ele>
        <time>2022-03-22T09:01:53Z</time>
      </trkpt>
      <trkpt lat="44.37469" lon="5.80776">
        <ele>1083.154</ele>
        <time>2022-03-22T09:01:55Z</time>
      </trkpt>
      <trkpt lat="44.37469" lon="5.80776">
        <ele>1083.254</ele>
        <time>2022-03-22T09:01:56Z</time>
      </trkpt>
      <trkpt lat="44.37469" lon="5.80777">
        <ele>1083.354</ele>
        <time>2022-03-22T09:01:57Z</time>
      </trkpt>
      <trkpt lat="44.3747" lon="5.80776">
        <ele>1083.354</ele>
        <time>2022-03-22T09:02:24Z</time>
      </trkpt>
      <trkpt lat="44.37476" lon="5.80766">
        <ele>1089.554</ele>
        <time>2022-03-22T09:02:25Z</time>
      </trkpt>
      <trkpt lat="44.37477" lon="5.80765">
        <ele>1089.754</ele>
        <time>2022-03-22T09:02:27Z</time>
      </trkpt>
      <trkpt lat="44.37478" lon="5.80765">
        <ele>1090.054</ele>
        <time>2022-03-22T09:02:28Z</time>
      </trkpt>
      <trkpt lat="44.37478" lon="5.80763">
        <ele>1090.654</ele>
        <time>2022-03-22T09:02:30Z</time>
      </trkpt>
      <trkpt lat="44.37478" lon="5.80763">
        <ele>1090.654</ele>
        <time>2022-03-22T09:02:53Z</time>
      </trkpt>
      <trkpt lat="44.37484" lon="5.80753">
        <ele>1092.854</ele>
        <time>2022-03-22T09:02:54Z</time>
      </trkpt>
      <trkpt lat="44.37483" lon="5.80751">
        <ele>1092.954</ele>
        <time>2022-03-22T09:02:55Z</time>
      </trkpt>
      <trkpt lat="44.37483" lon="5.8075">
        <ele>1092.954</ele>
        <time>2022-03-22T09:02:56Z</time>
      </trkpt>
      <trkpt lat="44.37483" lon="5.80748">
        <ele>1092.854</ele>
        <time>2022-03-22T09:02:58Z</time>
      </trkpt>
      <trkpt lat="44.37484" lon="5.80746">
        <ele>1093.154</ele>
        <time>2022-03-22T09:03:00Z</time>
      </trkpt>
      <trkpt lat="44.37485" lon="5.80745">
        <ele>1093.154</ele>
        <time>2022-03-22T09:03:01Z</time>
      </trkpt>
      <trkpt lat="44.37486" lon="5.80745">
        <ele>1093.354</ele>
        <time>2022-03-22T09:03:02Z</time>
      </trkpt>
      <trkpt lat="44.37486" lon="5.80744">
        <ele>1093.854</ele>
        <time>2022-03-22T09:03:04Z</time>
      </trkpt>
      <trkpt lat="44.37486" lon="5.80742">
        <ele>1093.854</ele>
        <time>2022-03-22T09:03:05Z</time>
      </trkpt>
      <trkpt lat="44.37487" lon="5.8074">
        <ele>1094.154</ele>
        <time>2022-03-22T09:03:07Z</time>
      </trkpt>
      <trkpt lat="44.37487" lon="5.80738">
        <ele>1094.654</ele>
        <time>2022-03-22T09:03:09Z</time>
      </trkpt>
      <trkpt lat="44.37487" lon="5.80737">
        <ele>1095.054</ele>
        <time>2022-03-22T09:03:11Z</time>
      </trkpt>
      <trkpt lat="44.37488" lon="5.80735">
        <ele>1095.354</ele>
        <time>2022-03-22T09:03:13Z</time>
      </trkpt>
      <trkpt lat="44.37488" lon="5.80733">
        <ele>1095.354</ele>
        <time>2022-03-22T09:03:15Z</time>
      </trkpt>
      <trkpt lat="44.37488" lon="5.80731">
        <ele>1095.454</ele>
        <time>2022-03-22T09:03:17Z</time>
      </trkpt>
      <trkpt lat="44.37489" lon="5.8073">
        <ele>1095.654</ele>
        <time>2022-03-22T09:03:19Z</time>
      </trkpt>
      <trkpt lat="44.37489" lon="5.80728">
        <ele>1095.854</ele>
        <time>2022-03-22T09:03:21Z</time>
      </trkpt>
      <trkpt lat="44.3749" lon="5.80727">
        <ele>1096.254</ele>
        <time>2022-03-22T09:03:23Z</time>
      </trkpt>
      <trkpt lat="44.3749" lon="5.80725">
        <ele>1097.454</ele>
        <time>2022-03-22T09:03:27Z</time>
      </trkpt>
      <trkpt lat="44.3749" lon="5.80724">
        <ele>1097.454</ele>
        <time>2022-03-22T09:03:28Z</time>
      </trkpt>
      <trkpt lat="44.3749" lon="5.80724">
        <ele>1097.454</ele>
        <time>2022-03-22T09:03:29Z</time>
      </trkpt>
      <trkpt lat="44.3749" lon="5.80723">
        <ele>1097.654</ele>
        <time>2022-03-22T09:03:30Z</time>
      </trkpt>
      <trkpt lat="44.37491" lon="5.80722">
        <ele>1097.754</ele>
        <time>2022-03-22T09:03:31Z</time>
      </trkpt>
      <trkpt lat="44.37491" lon="5.8072">
        <ele>1098.254</ele>
        <time>2022-03-22T09:03:33Z</time>
      </trkpt>
      <trkpt lat="44.37491" lon="5.80719">
        <ele>1098.554</ele>
        <time>2022-03-22T09:03:35Z</time>
      </trkpt>
      <trkpt lat="44.37491" lon="5.80717">
        <ele>1098.954</ele>
        <time>2022-03-22T09:03:37Z</time>
      </trkpt>
      <trkpt lat="44.37492" lon="5.80716">
        <ele>1099.054</ele>
        <time>2022-03-22T09:03:38Z</time>
      </trkpt>
      <trkpt lat="44.37492" lon="5.80714">
        <ele>1099.654</ele>
        <time>2022-03-22T09:03:41Z</time>
      </trkpt>
      <trkpt lat="44.37492" lon="5.80713">
        <ele>1100.854</ele>
        <time>2022-03-22T09:03:44Z</time>
      </trkpt>
      <trkpt lat="44.37493" lon="5.80711">
        <ele>1101.454</ele>
        <time>2022-03-22T09:03:47Z</time>
      </trkpt>
      <trkpt lat="44.37493" lon="5.8071">
        <ele>1101.754</ele>
        <time>2022-03-22T09:03:48Z</time>
      </trkpt>
      <trkpt lat="44.37493" lon="5.80709">
        <ele>1102.054</ele>
        <time>2022-03-22T09:04:09Z</time>
      </trkpt>
      <trkpt lat="44.3749" lon="5.80697">
        <ele>1105.254</ele>
        <time>2022-03-22T09:04:10Z</time>
      </trkpt>
      <trkpt lat="44.37491" lon="5.80696">
        <ele>1105.454</ele>
        <time>2022-03-22T09:04:11Z</time>
      </trkpt>
      <trkpt lat="44.37491" lon="5.80695">
        <ele>1105.454</ele>
        <time>2022-03-22T09:04:12Z</time>
      </trkpt>
      <trkpt lat="44.3749" lon="5.80694">
        <ele>1105.454</ele>
        <time>2022-03-22T09:04:14Z</time>
      </trkpt>
      <trkpt lat="44.3749" lon="5.80694">
        <ele>1105.454</ele>
        <time>2022-03-22T09:04:15Z</time>
      </trkpt>
      <trkpt lat="44.3749" lon="5.80692">
        <ele>1105.254</ele>
        <time>2022-03-22T09:04:16Z</time>
      </trkpt>
      <trkpt lat="44.3749" lon="5.80691">
        <ele>1105.354</ele>
        <time>2022-03-22T09:04:17Z</time>
      </trkpt>
      <trkpt lat="44.3749" lon="5.80691">
        <ele>1105.254</ele>
        <time>2022-03-22T09:04:18Z</time>
      </trkpt>
      <trkpt lat="44.3749" lon="5.8069">
        <ele>1105.354</ele>
        <time>2022-03-22T09:04:26Z</time>
      </trkpt>
      <trkpt lat="44.37492" lon="5.80686">
        <ele>1106.154</ele>
        <time>2022-03-22T09:04:27Z</time>
      </trkpt>
      <trkpt lat="44.37493" lon="5.80685">
        <ele>1106.054</ele>
        <time>2022-03-22T09:04:29Z</time>
      </trkpt>
      <trkpt lat="44.37493" lon="5.80684">
        <ele>1106.254</ele>
        <time>2022-03-22T09:04:30Z</time>
      </trkpt>
      <trkpt lat="44.37494" lon="5.80684">
        <ele>1106.354</ele>
        <time>2022-03-22T09:04:56Z</time>
      </trkpt>
      <trkpt lat="44.37497" lon="5.80684">
        <ele>1109.954</ele>
        <time>2022-03-22T09:04:57Z</time>
      </trkpt>
      <trkpt lat="44.37498" lon="5.80682">
        <ele>1110.054</ele>
        <time>2022-03-22T09:04:59Z</time>
      </trkpt>
      <trkpt lat="44.37498" lon="5.8068">
        <ele>1110.054</ele>
        <time>2022-03-22T09:05:00Z</time>
      </trkpt>
      <trkpt lat="44.37498" lon="5.8068">
        <ele>1109.954</ele>
        <time>2022-03-22T09:05:01Z</time>
      </trkpt>
      <trkpt lat="44.37498" lon="5.80679">
        <ele>1109.654</ele>
        <time>2022-03-22T09:05:11Z</time>
      </trkpt>
      <trkpt lat="44.37501" lon="5.80678">
        <ele>1109.754</ele>
        <time>2022-03-22T09:05:12Z</time>
      </trkpt>
      <trkpt lat="44.37502" lon="5.80678">
        <ele>1109.454</ele>
        <time>2022-03-22T09:05:14Z</time>
      </trkpt>
      <trkpt lat="44.37503" lon="5.80679">
        <ele>1109.454</ele>
        <time>2022-03-22T09:05:17Z</time>
      </trkpt>
      <trkpt lat="44.37503" lon="5.80678">
        <ele>1109.754</ele>
        <time>2022-03-22T09:05:19Z</time>
      </trkpt>
      <trkpt lat="44.37503" lon="5.80678">
        <ele>1109.854</ele>
        <time>2022-03-22T09:05:20Z</time>
      </trkpt>
      <trkpt lat="44.37503" lon="5.80677">
        <ele>1109.954</ele>
        <time>2022-03-22T09:05:59Z</time>
      </trkpt>
      <trkpt lat="44.37511" lon="5.80684">
        <ele>1116.054</ele>
        <time>2022-03-22T09:06:00Z</time>
      </trkpt>
      <trkpt lat="44.37512" lon="5.80684">
        <ele>1115.754</ele>
        <time>2022-03-22T09:06:01Z</time>
      </trkpt>
      <trkpt lat="44.37513" lon="5.80684">
        <ele>1115.854</ele>
        <time>2022-03-22T09:06:03Z</time>
      </trkpt>
      <trkpt lat="44.37513" lon="5.80684">
        <ele>1115.854</ele>
        <time>2022-03-22T09:06:17Z</time>
      </trkpt>
      <trkpt lat="44.37516" lon="5.8068">
        <ele>1117.554</ele>
        <time>2022-03-22T09:06:18Z</time>
      </trkpt>
      <trkpt lat="44.37517" lon="5.80681">
        <ele>1117.554</ele>
        <time>2022-03-22T09:06:20Z</time>
      </trkpt>
      <trkpt lat="44.37517" lon="5.80681">
        <ele>1117.554</ele>
        <time>2022-03-22T09:06:21Z</time>
      </trkpt>
      <trkpt lat="44.37517" lon="5.80682">
        <ele>1117.754</ele>
        <time>2022-03-22T09:06:22Z</time>
      </trkpt>
      <trkpt lat="44.37518" lon="5.80682">
        <ele>1118.154</ele>
        <time>2022-03-22T09:06:49Z</time>
      </trkpt>
      <trkpt lat="44.37524" lon="5.80682">
        <ele>1122.854</ele>
        <time>2022-03-22T09:06:50Z</time>
      </trkpt>
      <trkpt lat="44.37524" lon="5.80682">
        <ele>1122.954</ele>
        <time>2022-03-22T09:06:51Z</time>
      </trkpt>
      <trkpt lat="44.37524" lon="5.80681">
        <ele>1123.054</ele>
        <time>2022-03-22T09:06:52Z</time>
      </trkpt>
      <trkpt lat="44.37524" lon="5.80681">
        <ele>1123.054</ele>
        <time>2022-03-22T09:07:09Z</time>
      </trkpt>
      <trkpt lat="44.37527" lon="5.80677">
        <ele>1125.054</ele>
        <time>2022-03-22T09:07:10Z</time>
      </trkpt>
      <trkpt lat="44.37527" lon="5.80676">
        <ele>1124.954</ele>
        <time>2022-03-22T09:07:11Z</time>
      </trkpt>
      <trkpt lat="44.37528" lon="5.80677">
        <ele>1125.054</ele>
        <time>2022-03-22T09:07:16Z</time>
      </trkpt>
      <trkpt lat="44.3753" lon="5.80677">
        <ele>1126.054</ele>
        <time>2022-03-22T09:07:17Z</time>
      </trkpt>
      <trkpt lat="44.37531" lon="5.80678">
        <ele>1126.554</ele>
        <time>2022-03-22T09:07:19Z</time>
      </trkpt>
      <trkpt lat="44.37531" lon="5.80678">
        <ele>1127.054</ele>
        <time>2022-03-22T09:07:20Z</time>
      </trkpt>
      <trkpt lat="44.37531" lon="5.80679">
        <ele>1127.554</ele>
        <time>2022-03-22T09:07:22Z</time>
      </trkpt>
      <trkpt lat="44.37532" lon="5.80679">
        <ele>1127.654</ele>
        <time>2022-03-22T09:07:23Z</time>
      </trkpt>
      <trkpt lat="44.37532" lon="5.80679">
        <ele>1128.154</ele>
        <time>2022-03-22T09:07:25Z</time>
      </trkpt>
      <trkpt lat="44.37532" lon="5.80679">
        <ele>1128.254</ele>
        <time>2022-03-22T09:07:26Z</time>
      </trkpt>
      <trkpt lat="44.37532" lon="5.8068">
        <ele>1128.654</ele>
        <time>2022-03-22T09:07:32Z</time>
      </trkpt>
      <trkpt lat="44.37533" lon="5.80681">
        <ele>1129.654</ele>
        <time>2022-03-22T09:07:33Z</time>
      </trkpt>
      <trkpt lat="44.37533" lon="5.80682">
        <ele>1129.853</ele>
        <time>2022-03-22T09:07:34Z</time>
      </trkpt>
      <trkpt lat="44.37532" lon="5.80683">
        <ele>1129.953</ele>
        <time>2022-03-22T09:07:35Z</time>
      </trkpt>
      <trkpt lat="44.37533" lon="5.80683">
        <ele>1130.453</ele>
        <time>2022-03-22T09:09:30Z</time>
      </trkpt>
      <trkpt lat="44.37541" lon="5.80688">
        <ele>1139.353</ele>
        <time>2022-03-22T09:09:31Z</time>
      </trkpt>
      <trkpt lat="44.37542" lon="5.80687">
        <ele>1139.453</ele>
        <time>2022-03-22T09:09:32Z</time>
      </trkpt>
      <trkpt lat="44.37542" lon="5.80688">
        <ele>1139.753</ele>
        <time>2022-03-22T09:10:24Z</time>
      </trkpt>
      <trkpt lat="44.37547" lon="5.80688">
        <ele>1144.853</ele>
        <time>2022-03-22T09:10:25Z</time>
      </trkpt>
      <trkpt lat="44.37547" lon="5.80688">
        <ele>1144.853</ele>
        <time>2022-03-22T09:10:26Z</time>
      </trkpt>
      <trkpt lat="44.37547" lon="5.80688">
        <ele>1145.153</ele>
        <time>2022-03-22T09:10:27Z</time>
      </trkpt>
      <trkpt lat="44.37548" lon="5.80689">
        <ele>1145.453</ele>
        <time>2022-03-22T09:11:40Z</time>
      </trkpt>
      <trkpt lat="44.37557" lon="5.80688">
        <ele>1148.253</ele>
        <time>2022-03-22T09:11:41Z</time>
      </trkpt>
      <trkpt lat="44.37558" lon="5.80688">
        <ele>1148.553</ele>
        <time>2022-03-22T09:11:42Z</time>
      </trkpt>
      <trkpt lat="44.37558" lon="5.80687">
        <ele>1148.953</ele>
        <time>2022-03-22T09:12:22Z</time>
      </trkpt>
      <trkpt lat="44.37567" lon="5.80689">
        <ele>1153.353</ele>
        <time>2022-03-22T09:12:23Z</time>
      </trkpt>
      <trkpt lat="44.37567" lon="5.80691">
        <ele>1153.653</ele>
        <time>2022-03-22T09:12:25Z</time>
      </trkpt>
      <trkpt lat="44.37567" lon="5.80692">
        <ele>1154.253</ele>
        <time>2022-03-22T09:12:27Z</time>
      </trkpt>
      <trkpt lat="44.37566" lon="5.80693">
        <ele>1154.553</ele>
        <time>2022-03-22T09:12:28Z</time>
      </trkpt>
      <trkpt lat="44.37566" lon="5.80694">
        <ele>1154.753</ele>
        <time>2022-03-22T09:12:30Z</time>
      </trkpt>
      <trkpt lat="44.37566" lon="5.80694">
        <ele>1154.753</ele>
        <time>2022-03-22T09:13:21Z</time>
      </trkpt>
      <trkpt lat="44.37575" lon="5.80694">
        <ele>1157.752</ele>
        <time>2022-03-22T09:13:22Z</time>
      </trkpt>
      <trkpt lat="44.37576" lon="5.80694">
        <ele>1157.752</ele>
        <time>2022-03-22T09:13:23Z</time>
      </trkpt>
      <trkpt lat="44.37576" lon="5.80694">
        <ele>1157.752</ele>
        <time>2022-03-22T09:13:56Z</time>
      </trkpt>
      <trkpt lat="44.37573" lon="5.80691">
        <ele>1159.552</ele>
        <time>2022-03-22T09:13:57Z</time>
      </trkpt>
      <trkpt lat="44.37573" lon="5.80691">
        <ele>1159.352</ele>
        <time>2022-03-22T09:13:58Z</time>
      </trkpt>
      <trkpt lat="44.37573" lon="5.80691">
        <ele>1159.352</ele>
        <time>2022-03-22T09:15:49Z</time>
      </trkpt>
      <trkpt lat="44.37579" lon="5.80701">
        <ele>1156.452</ele>
        <time>2022-03-22T09:15:50Z</time>
      </trkpt>
      <trkpt lat="44.3758" lon="5.80701">
        <ele>1156.352</ele>
        <time>2022-03-22T09:15:51Z</time>
      </trkpt>
      <trkpt lat="44.3758" lon="5.80701">
        <ele>1156.552</ele>
        <time>2022-03-22T09:17:54Z</time>
      </trkpt>
      <trkpt lat="44.37583" lon="5.80704">
        <ele>1166.452</ele>
        <time>2022-03-22T09:17:55Z</time>
      </trkpt>
      <trkpt lat="44.37582" lon="5.80703">
        <ele>1166.552</ele>
        <time>2022-03-22T09:17:57Z</time>
      </trkpt>
      <trkpt lat="44.37582" lon="5.80703">
        <ele>1166.652</ele>
        <time>2022-03-22T09:17:58Z</time>
      </trkpt>
      <trkpt lat="44.37582" lon="5.80703">
        <ele>1167.152</ele>
        <time>2022-03-22T09:18:49Z</time>
      </trkpt>
      <trkpt lat="44.37587" lon="5.80705">
        <ele>1165.052</ele>
        <time>2022-03-22T09:18:50Z</time>
      </trkpt>
      <trkpt lat="44.37586" lon="5.80704">
        <ele>1165.052</ele>
        <time>2022-03-22T09:18:51Z</time>
      </trkpt>
      <trkpt lat="44.37586" lon="5.80704">
        <ele>1165.052</ele>
        <time>2022-03-22T09:18:52Z</time>
      </trkpt>
      <trkpt lat="44.37586" lon="5.80703">
        <ele>1165.152</ele>
        <time>2022-03-22T09:19:28Z</time>
      </trkpt>
      <trkpt lat="44.37582" lon="5.80716">
        <ele>1165.352</ele>
        <time>2022-03-22T09:19:29Z</time>
      </trkpt>
      <trkpt lat="44.37582" lon="5.80716">
        <ele>1165.452</ele>
        <time>2022-03-22T09:19:30Z</time>
      </trkpt>
      <trkpt lat="44.37583" lon="5.80716">
        <ele>1165.452</ele>
        <time>2022-03-22T09:20:21Z</time>
      </trkpt>
      <trkpt lat="44.37578" lon="5.80727">
        <ele>1174.452</ele>
        <time>2022-03-22T09:20:22Z</time>
      </trkpt>
      <trkpt lat="44.37577" lon="5.80727">
        <ele>1174.752</ele>
        <time>2022-03-22T09:20:23Z</time>
      </trkpt>
      <trkpt lat="44.37577" lon="5.80727">
        <ele>1175.752</ele>
        <time>2022-03-22T09:20:32Z</time>
      </trkpt>
      <trkpt lat="44.37576" lon="5.80731">
        <ele>1178.052</ele>
        <time>2022-03-22T09:20:33Z</time>
      </trkpt>
      <trkpt lat="44.37577" lon="5.80733">
        <ele>1178.452</ele>
        <time>2022-03-22T09:20:35Z</time>
      </trkpt>
      <trkpt lat="44.37577" lon="5.80735">
        <ele>1178.752</ele>
        <time>2022-03-22T09:20:37Z</time>
      </trkpt>
      <trkpt lat="44.37578" lon="5.80737">
        <ele>1178.652</ele>
        <time>2022-03-22T09:20:40Z</time>
      </trkpt>
      <trkpt lat="44.37578" lon="5.80738">
        <ele>1179.252</ele>
        <time>2022-03-22T09:20:42Z</time>
      </trkpt>
      <trkpt lat="44.37579" lon="5.80739">
        <ele>1179.452</ele>
        <time>2022-03-22T09:20:44Z</time>
      </trkpt>
      <trkpt lat="44.3758" lon="5.8074">
        <ele>1179.352</ele>
        <time>2022-03-22T09:20:47Z</time>
      </trkpt>
      <trkpt lat="44.37581" lon="5.80741">
        <ele>1179.052</ele>
        <time>2022-03-22T09:20:49Z</time>
      </trkpt>
      <trkpt lat="44.37582" lon="5.80742">
        <ele>1179.652</ele>
        <time>2022-03-22T09:20:51Z</time>
      </trkpt>
      <trkpt lat="44.37582" lon="5.80743">
        <ele>1180.052</ele>
        <time>2022-03-22T09:20:54Z</time>
      </trkpt>
      <trkpt lat="44.37583" lon="5.80744">
        <ele>1180.052</ele>
        <time>2022-03-22T09:20:56Z</time>
      </trkpt>
      <trkpt lat="44.37583" lon="5.80745">
        <ele>1180.352</ele>
        <time>2022-03-22T09:20:58Z</time>
      </trkpt>
      <trkpt lat="44.37583" lon="5.80745">
        <ele>1180.552</ele>
        <time>2022-03-22T09:20:59Z</time>
      </trkpt>
      <trkpt lat="44.37584" lon="5.80745">
        <ele>1180.852</ele>
        <time>2022-03-22T09:21:07Z</time>
      </trkpt>
      <trkpt lat="44.37584" lon="5.80748">
        <ele>1181.752</ele>
        <time>2022-03-22T09:21:08Z</time>
      </trkpt>
      <trkpt lat="44.37585" lon="5.8075">
        <ele>1182.352</ele>
        <time>2022-03-22T09:21:11Z</time>
      </trkpt>
      <trkpt lat="44.37585" lon="5.80751">
        <ele>1182.652</ele>
        <time>2022-03-22T09:21:13Z</time>
      </trkpt>
      <trkpt lat="44.37585" lon="5.80751">
        <ele>1182.952</ele>
        <time>2022-03-22T09:21:14Z</time>
      </trkpt>
      <trkpt lat="44.37585" lon="5.80752">
        <ele>1182.852</ele>
        <time>2022-03-22T09:21:15Z</time>
      </trkpt>
      <trkpt lat="44.37584" lon="5.80752">
        <ele>1182.852</ele>
        <time>2022-03-22T09:21:16Z</time>
      </trkpt>
      <trkpt lat="44.37584" lon="5.80754">
        <ele>1183.252</ele>
        <time>2022-03-22T09:21:18Z</time>
      </trkpt>
      <trkpt lat="44.37583" lon="5.80755">
        <ele>1183.552</ele>
        <time>2022-03-22T09:21:20Z</time>
      </trkpt>
      <trkpt lat="44.37583" lon="5.80755">
        <ele>1183.652</ele>
        <time>2022-03-22T09:21:21Z</time>
      </trkpt>
      <trkpt lat="44.37583" lon="5.80755">
        <ele>1183.652</ele>
        <time>2022-03-22T09:21:24Z</time>
      </trkpt>
      <trkpt lat="44.37583" lon="5.80756">
        <ele>1183.751</ele>
        <time>2022-03-22T09:21:25Z</time>
      </trkpt>
      <trkpt lat="44.37583" lon="5.80758">
        <ele>1183.951</ele>
        <time>2022-03-22T09:21:27Z</time>
      </trkpt>
      <trkpt lat="44.37584" lon="5.80759">
        <ele>1184.251</ele>
        <time>2022-03-22T09:21:29Z</time>
      </trkpt>
      <trkpt lat="44.37583" lon="5.80761">
        <ele>1184.551</ele>
        <time>2022-03-22T09:21:31Z</time>
      </trkpt>
      <trkpt lat="44.37583" lon="5.80762">
        <ele>1184.751</ele>
        <time>2022-03-22T09:21:33Z</time>
      </trkpt>
      <trkpt lat="44.37583" lon="5.80764">
        <ele>1184.651</ele>
        <time>2022-03-22T09:21:36Z</time>
      </trkpt>
      <trkpt lat="44.37583" lon="5.80766">
        <ele>1185.051</ele>
        <time>2022-03-22T09:21:39Z</time>
      </trkpt>
      <trkpt lat="44.37583" lon="5.80767">
        <ele>1185.451</ele>
        <time>2022-03-22T09:21:42Z</time>
      </trkpt>
      <trkpt lat="44.37583" lon="5.80769">
        <ele>1185.651</ele>
        <time>2022-03-22T09:21:44Z</time>
      </trkpt>
      <trkpt lat="44.37583" lon="5.8077">
        <ele>1185.951</ele>
        <time>2022-03-22T09:21:46Z</time>
      </trkpt>
      <trkpt lat="44.37583" lon="5.80772">
        <ele>1185.951</ele>
        <time>2022-03-22T09:21:49Z</time>
      </trkpt>
      <trkpt lat="44.37583" lon="5.80774">
        <ele>1185.951</ele>
        <time>2022-03-22T09:21:52Z</time>
      </trkpt>
      <trkpt lat="44.37583" lon="5.80776">
        <ele>1185.751</ele>
        <time>2022-03-22T09:21:54Z</time>
      </trkpt>
      <trkpt lat="44.37583" lon="5.80777">
        <ele>1185.751</ele>
        <time>2022-03-22T09:21:56Z</time>
      </trkpt>
      <trkpt lat="44.37583" lon="5.80778">
        <ele>1186.151</ele>
        <time>2022-03-22T09:21:59Z</time>
      </trkpt>
      <trkpt lat="44.37583" lon="5.8078">
        <ele>1186.551</ele>
        <time>2022-03-22T09:22:02Z</time>
      </trkpt>
      <trkpt lat="44.37583" lon="5.8078">
        <ele>1186.551</ele>
        <time>2022-03-22T09:22:03Z</time>
      </trkpt>
      <trkpt lat="44.37583" lon="5.80779">
        <ele>1186.351</ele>
        <time>2022-03-22T09:22:22Z</time>
      </trkpt>
      <trkpt lat="44.37584" lon="5.80787">
        <ele>1185.151</ele>
        <time>2022-03-22T09:22:23Z</time>
      </trkpt>
      <trkpt lat="44.37583" lon="5.80788">
        <ele>1185.351</ele>
        <time>2022-03-22T09:22:25Z</time>
      </trkpt>
      <trkpt lat="44.37582" lon="5.8079">
        <ele>1185.851</ele>
        <time>2022-03-22T09:22:29Z</time>
      </trkpt>
      <trkpt lat="44.37582" lon="5.80791">
        <ele>1186.451</ele>
        <time>2022-03-22T09:22:32Z</time>
      </trkpt>
      <trkpt lat="44.37582" lon="5.80792">
        <ele>1186.651</ele>
        <time>2022-03-22T09:22:33Z</time>
      </trkpt>
      <trkpt lat="44.37582" lon="5.80792">
        <ele>1186.851</ele>
        <time>2022-03-22T09:22:34Z</time>
      </trkpt>
      <trkpt lat="44.37582" lon="5.80793">
        <ele>1187.051</ele>
        <time>2022-03-22T09:22:55Z</time>
      </trkpt>
      <trkpt lat="44.37583" lon="5.80802">
        <ele>1187.151</ele>
        <time>2022-03-22T09:22:56Z</time>
      </trkpt>
      <trkpt lat="44.37584" lon="5.80804">
        <ele>1187.351</ele>
        <time>2022-03-22T09:22:59Z</time>
      </trkpt>
      <trkpt lat="44.37584" lon="5.80805">
        <ele>1187.251</ele>
        <time>2022-03-22T09:23:01Z</time>
      </trkpt>
      <trkpt lat="44.37584" lon="5.80806">
        <ele>1186.751</ele>
        <time>2022-03-22T09:23:04Z</time>
      </trkpt>
      <trkpt lat="44.37584" lon="5.80806">
        <ele>1186.651</ele>
        <time>2022-03-22T09:23:05Z</time>
      </trkpt>
      <trkpt lat="44.37584" lon="5.80806">
        <ele>1186.751</ele>
        <time>2022-03-22T09:23:06Z</time>
      </trkpt>
      <trkpt lat="44.37584" lon="5.80806">
        <ele>1186.951</ele>
        <time>2022-03-22T09:23:16Z</time>
      </trkpt>
      <trkpt lat="44.37585" lon="5.80809">
        <ele>1186.751</ele>
        <time>2022-03-22T09:23:17Z</time>
      </trkpt>
      <trkpt lat="44.37586" lon="5.80809">
        <ele>1186.651</ele>
        <time>2022-03-22T09:23:18Z</time>
      </trkpt>
      <trkpt lat="44.37586" lon="5.8081">
        <ele>1186.751</ele>
        <time>2022-03-22T09:23:20Z</time>
      </trkpt>
      <trkpt lat="44.37586" lon="5.8081">
        <ele>1186.751</ele>
        <time>2022-03-22T09:23:25Z</time>
      </trkpt>
      <trkpt lat="44.37589" lon="5.80812">
        <ele>1187.351</ele>
        <time>2022-03-22T09:23:26Z</time>
      </trkpt>
      <trkpt lat="44.37589" lon="5.80813">
        <ele>1187.551</ele>
        <time>2022-03-22T09:23:27Z</time>
      </trkpt>
      <trkpt lat="44.37589" lon="5.80814">
        <ele>1187.551</ele>
        <time>2022-03-22T09:23:28Z</time>
      </trkpt>
      <trkpt lat="44.3759" lon="5.80814">
        <ele>1187.551</ele>
        <time>2022-03-22T09:23:40Z</time>
      </trkpt>
      <trkpt lat="44.37591" lon="5.80815">
        <ele>1188.551</ele>
        <time>2022-03-22T09:23:41Z</time>
      </trkpt>
      <trkpt lat="44.37592" lon="5.80816">
        <ele>1188.651</ele>
        <time>2022-03-22T09:23:42Z</time>
      </trkpt>
      <trkpt lat="44.37591" lon="5.80817">
        <ele>1188.951</ele>
        <time>2022-03-22T09:23:49Z</time>
      </trkpt>
      <trkpt lat="44.37592" lon="5.80819">
        <ele>1189.751</ele>
        <time>2022-03-22T09:23:50Z</time>
      </trkpt>
      <trkpt lat="44.37593" lon="5.80819">
        <ele>1189.851</ele>
        <time>2022-03-22T09:23:51Z</time>
      </trkpt>
      <trkpt lat="44.37593" lon="5.80819">
        <ele>1190.051</ele>
        <time>2022-03-22T09:23:52Z</time>
      </trkpt>
      <trkpt lat="44.37593" lon="5.8082">
        <ele>1190.451</ele>
        <time>2022-03-22T09:23:56Z</time>
      </trkpt>
      <trkpt lat="44.37593" lon="5.80822">
        <ele>1191.051</ele>
        <time>2022-03-22T09:23:57Z</time>
      </trkpt>
      <trkpt lat="44.37593" lon="5.80823">
        <ele>1191.351</ele>
        <time>2022-03-22T09:23:58Z</time>
      </trkpt>
      <trkpt lat="44.37593" lon="5.80824">
        <ele>1191.551</ele>
        <time>2022-03-22T09:23:59Z</time>
      </trkpt>
      <trkpt lat="44.37593" lon="5.80825">
        <ele>1191.651</ele>
        <time>2022-03-22T09:24:00Z</time>
      </trkpt>
      <trkpt lat="44.37593" lon="5.80826">
        <ele>1191.851</ele>
        <time>2022-03-22T09:24:01Z</time>
      </trkpt>
      <trkpt lat="44.37593" lon="5.80827">
        <ele>1191.751</ele>
        <time>2022-03-22T09:24:03Z</time>
      </trkpt>
      <trkpt lat="44.37593" lon="5.80829">
        <ele>1191.651</ele>
        <time>2022-03-22T09:24:06Z</time>
      </trkpt>
      <trkpt lat="44.37593" lon="5.80829">
        <ele>1191.551</ele>
        <time>2022-03-22T09:24:08Z</time>
      </trkpt>
      <trkpt lat="44.37593" lon="5.8083">
        <ele>1191.651</ele>
        <time>2022-03-22T09:24:09Z</time>
      </trkpt>
      <trkpt lat="44.37593" lon="5.8083">
        <ele>1191.951</ele>
        <time>2022-03-22T09:24:25Z</time>
      </trkpt>
      <trkpt lat="44.37591" lon="5.80831">
        <ele>1193.751</ele>
        <time>2022-03-22T09:24:26Z</time>
      </trkpt>
      <trkpt lat="44.37591" lon="5.80831">
        <ele>1193.451</ele>
        <time>2022-03-22T09:24:27Z</time>
      </trkpt>
      <trkpt lat="44.3759" lon="5.80832">
        <ele>1193.251</ele>
        <time>2022-03-22T09:24:28Z</time>
      </trkpt>
      <trkpt lat="44.3759" lon="5.80832">
        <ele>1193.151</ele>
        <time>2022-03-22T09:24:29Z</time>
      </trkpt>
      <trkpt lat="44.37589" lon="5.80832">
        <ele>1192.951</ele>
        <time>2022-03-22T09:24:30Z</time>
      </trkpt>
      <trkpt lat="44.37589" lon="5.80832">
        <ele>1192.751</ele>
        <time>2022-03-22T09:25:16Z</time>
      </trkpt>
      <trkpt lat="44.37589" lon="5.80831">
        <ele>1191.251</ele>
        <time>2022-03-22T09:25:17Z</time>
      </trkpt>
      <trkpt lat="44.37588" lon="5.80831">
        <ele>1191.251</ele>
        <time>2022-03-22T09:25:18Z</time>
      </trkpt>
      <trkpt lat="44.37588" lon="5.80832">
        <ele>1191.151</ele>
        <time>2022-03-22T09:26:37Z</time>
      </trkpt>
      <trkpt lat="44.37593" lon="5.80827">
        <ele>1189.851</ele>
        <time>2022-03-22T09:26:38Z</time>
      </trkpt>
      <trkpt lat="44.37593" lon="5.80826">
        <ele>1190.151</ele>
        <time>2022-03-22T09:26:39Z</time>
      </trkpt>
      <trkpt lat="44.37594" lon="5.80826">
        <ele>1190.351</ele>
        <time>2022-03-22T09:26:40Z</time>
      </trkpt>
      <trkpt lat="44.37594" lon="5.80826">
        <ele>1190.851</ele>
        <time>2022-03-22T09:26:41Z</time>
      </trkpt>
      <trkpt lat="44.37595" lon="5.80826">
        <ele>1190.951</ele>
        <time>2022-03-22T09:26:42Z</time>
      </trkpt>
      <trkpt lat="44.37596" lon="5.80826">
        <ele>1191.55</ele>
        <time>2022-03-22T09:26:44Z</time>
      </trkpt>
      <trkpt lat="44.37597" lon="5.80826">
        <ele>1192.05</ele>
        <time>2022-03-22T09:26:46Z</time>
      </trkpt>
      <trkpt lat="44.37598" lon="5.80827">
        <ele>1192.25</ele>
        <time>2022-03-22T09:26:50Z</time>
      </trkpt>
      <trkpt lat="44.37598" lon="5.80828">
        <ele>1192.45</ele>
        <time>2022-03-22T09:26:51Z</time>
      </trkpt>
      <trkpt lat="44.37598" lon="5.80828">
        <ele>1192.45</ele>
        <time>2022-03-22T09:27:05Z</time>
      </trkpt>
      <trkpt lat="44.376" lon="5.80834">
        <ele>1193.15</ele>
        <time>2022-03-22T09:27:06Z</time>
      </trkpt>
      <trkpt lat="44.376" lon="5.80836">
        <ele>1193.45</ele>
        <time>2022-03-22T09:27:08Z</time>
      </trkpt>
      <trkpt lat="44.37601" lon="5.80838">
        <ele>1193.65</ele>
        <time>2022-03-22T09:27:10Z</time>
      </trkpt>
      <trkpt lat="44.37601" lon="5.80839">
        <ele>1193.55</ele>
        <time>2022-03-22T09:27:12Z</time>
      </trkpt>
      <trkpt lat="44.37601" lon="5.80841">
        <ele>1193.85</ele>
        <time>2022-03-22T09:27:15Z</time>
      </trkpt>
      <trkpt lat="44.37601" lon="5.80843">
        <ele>1193.95</ele>
        <time>2022-03-22T09:27:18Z</time>
      </trkpt>
      <trkpt lat="44.376" lon="5.80843">
        <ele>1194.35</ele>
        <time>2022-03-22T09:27:21Z</time>
      </trkpt>
      <trkpt lat="44.376" lon="5.80843">
        <ele>1194.45</ele>
        <time>2022-03-22T09:27:22Z</time>
      </trkpt>
      <trkpt lat="44.376" lon="5.80844">
        <ele>1194.55</ele>
        <time>2022-03-22T09:27:55Z</time>
      </trkpt>
      <trkpt lat="44.376" lon="5.80857">
        <ele>1195.45</ele>
        <time>2022-03-22T09:27:56Z</time>
      </trkpt>
      <trkpt lat="44.376" lon="5.80857">
        <ele>1195.45</ele>
        <time>2022-03-22T09:27:57Z</time>
      </trkpt>
      <trkpt lat="44.376" lon="5.80858">
        <ele>1195.55</ele>
        <time>2022-03-22T09:28:02Z</time>
      </trkpt>
      <trkpt lat="44.376" lon="5.80861">
        <ele>1196.05</ele>
        <time>2022-03-22T09:28:03Z</time>
      </trkpt>
      <trkpt lat="44.376" lon="5.80863">
        <ele>1196.25</ele>
        <time>2022-03-22T09:28:05Z</time>
      </trkpt>
      <trkpt lat="44.37599" lon="5.80864">
        <ele>1196.05</ele>
        <time>2022-03-22T09:28:07Z</time>
      </trkpt>
      <trkpt lat="44.37598" lon="5.80865">
        <ele>1195.75</ele>
        <time>2022-03-22T09:28:10Z</time>
      </trkpt>
      <trkpt lat="44.37597" lon="5.80866">
        <ele>1195.75</ele>
        <time>2022-03-22T09:28:11Z</time>
      </trkpt>
      <trkpt lat="44.37597" lon="5.80867">
        <ele>1195.75</ele>
        <time>2022-03-22T09:28:14Z</time>
      </trkpt>
      <trkpt lat="44.37596" lon="5.80868">
        <ele>1196.05</ele>
        <time>2022-03-22T09:28:16Z</time>
      </trkpt>
      <trkpt lat="44.37596" lon="5.8087">
        <ele>1197.05</ele>
        <time>2022-03-22T09:28:19Z</time>
      </trkpt>
      <trkpt lat="44.37596" lon="5.80871">
        <ele>1197.85</ele>
        <time>2022-03-22T09:28:21Z</time>
      </trkpt>
      <trkpt lat="44.37595" lon="5.80873">
        <ele>1198.15</ele>
        <time>2022-03-22T09:28:23Z</time>
      </trkpt>
      <trkpt lat="44.37595" lon="5.80875">
        <ele>1198.15</ele>
        <time>2022-03-22T09:28:25Z</time>
      </trkpt>
      <trkpt lat="44.37595" lon="5.80876">
        <ele>1198.15</ele>
        <time>2022-03-22T09:28:26Z</time>
      </trkpt>
      <trkpt lat="44.37595" lon="5.80877">
        <ele>1198.05</ele>
        <time>2022-03-22T09:28:28Z</time>
      </trkpt>
      <trkpt lat="44.37596" lon="5.80879">
        <ele>1197.95</ele>
        <time>2022-03-22T09:28:31Z</time>
      </trkpt>
      <trkpt lat="44.37596" lon="5.80881">
        <ele>1198.25</ele>
        <time>2022-03-22T09:28:33Z</time>
      </trkpt>
      <trkpt lat="44.37595" lon="5.80883">
        <ele>1198.35</ele>
        <time>2022-03-22T09:28:35Z</time>
      </trkpt>
      <trkpt lat="44.37595" lon="5.80884">
        <ele>1198.55</ele>
        <time>2022-03-22T09:28:37Z</time>
      </trkpt>
      <trkpt lat="44.37595" lon="5.80886">
        <ele>1198.95</ele>
        <time>2022-03-22T09:28:39Z</time>
      </trkpt>
      <trkpt lat="44.37596" lon="5.80888">
        <ele>1199.35</ele>
        <time>2022-03-22T09:28:42Z</time>
      </trkpt>
      <trkpt lat="44.37596" lon="5.80889">
        <ele>1199.55</ele>
        <time>2022-03-22T09:28:44Z</time>
      </trkpt>
      <trkpt lat="44.37596" lon="5.80891">
        <ele>1199.65</ele>
        <time>2022-03-22T09:28:47Z</time>
      </trkpt>
      <trkpt lat="44.37595" lon="5.80893">
        <ele>1200.05</ele>
        <time>2022-03-22T09:28:49Z</time>
      </trkpt>
      <trkpt lat="44.37595" lon="5.80894">
        <ele>1200.75</ele>
        <time>2022-03-22T09:28:51Z</time>
      </trkpt>
      <trkpt lat="44.37594" lon="5.80895">
        <ele>1200.95</ele>
        <time>2022-03-22T09:28:53Z</time>
      </trkpt>
      <trkpt lat="44.37594" lon="5.80897">
        <ele>1201.25</ele>
        <time>2022-03-22T09:28:55Z</time>
      </trkpt>
      <trkpt lat="44.37594" lon="5.80898">
        <ele>1201.55</ele>
        <time>2022-03-22T09:28:57Z</time>
      </trkpt>
      <trkpt lat="44.37593" lon="5.809">
        <ele>1201.75</ele>
        <time>2022-03-22T09:28:59Z</time>
      </trkpt>
      <trkpt lat="44.37593" lon="5.80902">
        <ele>1201.95</ele>
        <time>2022-03-22T09:29:01Z</time>
      </trkpt>
      <trkpt lat="44.37593" lon="5.80903">
        <ele>1202.05</ele>
        <time>2022-03-22T09:29:03Z</time>
      </trkpt>
      <trkpt lat="44.37593" lon="5.80905">
        <ele>1202.05</ele>
        <time>2022-03-22T09:29:05Z</time>
      </trkpt>
      <trkpt lat="44.37592" lon="5.80906">
        <ele>1201.85</ele>
        <time>2022-03-22T09:29:07Z</time>
      </trkpt>
      <trkpt lat="44.37592" lon="5.80907">
        <ele>1201.75</ele>
        <time>2022-03-22T09:29:10Z</time>
      </trkpt>
      <trkpt lat="44.37592" lon="5.80907">
        <ele>1201.75</ele>
        <time>2022-03-22T09:29:11Z</time>
      </trkpt>
      <trkpt lat="44.37592" lon="5.80908">
        <ele>1201.55</ele>
        <time>2022-03-22T09:29:43Z</time>
      </trkpt>
      <trkpt lat="44.37587" lon="5.80919">
        <ele>1203.15</ele>
        <time>2022-03-22T09:29:44Z</time>
      </trkpt>
      <trkpt lat="44.37588" lon="5.80919">
        <ele>1203.25</ele>
        <time>2022-03-22T09:29:45Z</time>
      </trkpt>
      <trkpt lat="44.37588" lon="5.8092">
        <ele>1203.05</ele>
        <time>2022-03-22T09:30:06Z</time>
      </trkpt>
      <trkpt lat="44.3759" lon="5.80923">
        <ele>1202.45</ele>
        <time>2022-03-22T09:30:07Z</time>
      </trkpt>
      <trkpt lat="44.3759" lon="5.80924">
        <ele>1202.45</ele>
        <time>2022-03-22T09:30:08Z</time>
      </trkpt>
      <trkpt lat="44.3759" lon="5.80925">
        <ele>1202.35</ele>
        <time>2022-03-22T09:30:09Z</time>
      </trkpt>
      <trkpt lat="44.3759" lon="5.80925">
        <ele>1201.95</ele>
        <time>2022-03-22T09:30:21Z</time>
      </trkpt>
      <trkpt lat="44.37589" lon="5.80926">
        <ele>1201.15</ele>
        <time>2022-03-22T09:30:22Z</time>
      </trkpt>
      <trkpt lat="44.37589" lon="5.80927">
        <ele>1201.25</ele>
        <time>2022-03-22T09:30:23Z</time>
      </trkpt>
      <trkpt lat="44.37589" lon="5.80928">
        <ele>1201.35</ele>
        <time>2022-03-22T09:30:24Z</time>
      </trkpt>
      <trkpt lat="44.37589" lon="5.80928">
        <ele>1201.45</ele>
        <time>2022-03-22T09:30:25Z</time>
      </trkpt>
      <trkpt lat="44.37589" lon="5.8093">
        <ele>1201.75</ele>
        <time>2022-03-22T09:30:27Z</time>
      </trkpt>
      <trkpt lat="44.3759" lon="5.80931">
        <ele>1201.75</ele>
        <time>2022-03-22T09:30:29Z</time>
      </trkpt>
      <trkpt lat="44.37591" lon="5.80933">
        <ele>1201.85</ele>
        <time>2022-03-22T09:30:31Z</time>
      </trkpt>
      <trkpt lat="44.37592" lon="5.80934">
        <ele>1201.85</ele>
        <time>2022-03-22T09:30:33Z</time>
      </trkpt>
      <trkpt lat="44.37592" lon="5.80935">
        <ele>1202.45</ele>
        <time>2022-03-22T09:30:35Z</time>
      </trkpt>
      <trkpt lat="44.37592" lon="5.80937">
        <ele>1203.15</ele>
        <time>2022-03-22T09:30:37Z</time>
      </trkpt>
      <trkpt lat="44.37591" lon="5.80938">
        <ele>1203.55</ele>
        <time>2022-03-22T09:30:38Z</time>
      </trkpt>
      <trkpt lat="44.37591" lon="5.8094">
        <ele>1203.75</ele>
        <time>2022-03-22T09:30:40Z</time>
      </trkpt>
      <trkpt lat="44.3759" lon="5.80941">
        <ele>1203.65</ele>
        <time>2022-03-22T09:30:42Z</time>
      </trkpt>
      <trkpt lat="44.3759" lon="5.80944">
        <ele>1203.349</ele>
        <time>2022-03-22T09:30:44Z</time>
      </trkpt>
      <trkpt lat="44.37591" lon="5.80945">
        <ele>1203.449</ele>
        <time>2022-03-22T09:30:46Z</time>
      </trkpt>
      <trkpt lat="44.3759" lon="5.80945">
        <ele>1203.349</ele>
        <time>2022-03-22T09:30:49Z</time>
      </trkpt>
      <trkpt lat="44.3759" lon="5.80946">
        <ele>1203.349</ele>
        <time>2022-03-22T09:30:51Z</time>
      </trkpt>
      <trkpt lat="44.3759" lon="5.80946">
        <ele>1203.349</ele>
        <time>2022-03-22T09:30:52Z</time>
      </trkpt>
      <trkpt lat="44.37589" lon="5.80948">
        <ele>1203.449</ele>
        <time>2022-03-22T09:30:54Z</time>
      </trkpt>
      <trkpt lat="44.37589" lon="5.80949">
        <ele>1203.549</ele>
        <time>2022-03-22T09:30:55Z</time>
      </trkpt>
      <trkpt lat="44.37588" lon="5.8095">
        <ele>1203.249</ele>
        <time>2022-03-22T09:30:57Z</time>
      </trkpt>
      <trkpt lat="44.37589" lon="5.80951">
        <ele>1202.949</ele>
        <time>2022-03-22T09:31:00Z</time>
      </trkpt>
      <trkpt lat="44.37589" lon="5.80952">
        <ele>1203.049</ele>
        <time>2022-03-22T09:31:03Z</time>
      </trkpt>
      <trkpt lat="44.37589" lon="5.80952">
        <ele>1202.949</ele>
        <time>2022-03-22T09:31:04Z</time>
      </trkpt>
      <trkpt lat="44.37589" lon="5.80953">
        <ele>1202.849</ele>
        <time>2022-03-22T09:31:06Z</time>
      </trkpt>
      <trkpt lat="44.3759" lon="5.80954">
        <ele>1203.249</ele>
        <time>2022-03-22T09:31:07Z</time>
      </trkpt>
      <trkpt lat="44.3759" lon="5.80954">
        <ele>1203.449</ele>
        <time>2022-03-22T09:31:08Z</time>
      </trkpt>
      <trkpt lat="44.3759" lon="5.80956">
        <ele>1203.449</ele>
        <time>2022-03-22T09:31:10Z</time>
      </trkpt>
      <trkpt lat="44.3759" lon="5.80956">
        <ele>1203.449</ele>
        <time>2022-03-22T09:31:14Z</time>
      </trkpt>
      <trkpt lat="44.37589" lon="5.80959">
        <ele>1203.249</ele>
        <time>2022-03-22T09:31:15Z</time>
      </trkpt>
      <trkpt lat="44.37589" lon="5.8096">
        <ele>1203.349</ele>
        <time>2022-03-22T09:31:16Z</time>
      </trkpt>
      <trkpt lat="44.37589" lon="5.8096">
        <ele>1203.249</ele>
        <time>2022-03-22T09:31:19Z</time>
      </trkpt>
      <trkpt lat="44.37588" lon="5.80961">
        <ele>1203.349</ele>
        <time>2022-03-22T09:31:20Z</time>
      </trkpt>
      <trkpt lat="44.37588" lon="5.80963">
        <ele>1203.449</ele>
        <time>2022-03-22T09:31:22Z</time>
      </trkpt>
      <trkpt lat="44.37587" lon="5.80964">
        <ele>1203.449</ele>
        <time>2022-03-22T09:31:24Z</time>
      </trkpt>
      <trkpt lat="44.37587" lon="5.80965">
        <ele>1203.449</ele>
        <time>2022-03-22T09:31:26Z</time>
      </trkpt>
      <trkpt lat="44.37586" lon="5.80966">
        <ele>1204.049</ele>
        <time>2022-03-22T09:31:29Z</time>
      </trkpt>
      <trkpt lat="44.37586" lon="5.80966">
        <ele>1204.249</ele>
        <time>2022-03-22T09:31:30Z</time>
      </trkpt>
      <trkpt lat="44.37586" lon="5.80966">
        <ele>1204.249</ele>
        <time>2022-03-22T09:31:31Z</time>
      </trkpt>
      <trkpt lat="44.37586" lon="5.80966">
        <ele>1204.449</ele>
        <time>2022-03-22T09:32:17Z</time>
      </trkpt>
      <trkpt lat="44.37583" lon="5.80978">
        <ele>1208.349</ele>
        <time>2022-03-22T09:32:18Z</time>
      </trkpt>
      <trkpt lat="44.37583" lon="5.80978">
        <ele>1208.549</ele>
        <time>2022-03-22T09:32:19Z</time>
      </trkpt>
      <trkpt lat="44.37583" lon="5.80979">
        <ele>1208.949</ele>
        <time>2022-03-22T09:33:09Z</time>
      </trkpt>
      <trkpt lat="44.37589" lon="5.80989">
        <ele>1210.649</ele>
        <time>2022-03-22T09:33:10Z</time>
      </trkpt>
      <trkpt lat="44.37589" lon="5.80989">
        <ele>1210.649</ele>
        <time>2022-03-22T09:33:11Z</time>
      </trkpt>
      <trkpt lat="44.37588" lon="5.80989">
        <ele>1210.649</ele>
        <time>2022-03-22T09:33:50Z</time>
      </trkpt>
      <trkpt lat="44.3758" lon="5.80995">
        <ele>1208.449</ele>
        <time>2022-03-22T09:33:51Z</time>
      </trkpt>
      <trkpt lat="44.3758" lon="5.80995">
        <ele>1208.249</ele>
        <time>2022-03-22T09:33:52Z</time>
      </trkpt>
      <trkpt lat="44.3758" lon="5.80995">
        <ele>1207.649</ele>
        <time>2022-03-22T09:34:28Z</time>
      </trkpt>
      <trkpt lat="44.37577" lon="5.81006">
        <ele>1208.949</ele>
        <time>2022-03-22T09:34:29Z</time>
      </trkpt>
      <trkpt lat="44.37576" lon="5.81006">
        <ele>1209.049</ele>
        <time>2022-03-22T09:34:30Z</time>
      </trkpt>
      <trkpt lat="44.37576" lon="5.81006">
        <ele>1209.249</ele>
        <time>2022-03-22T09:34:31Z</time>
      </trkpt>
      <trkpt lat="44.37576" lon="5.81006">
        <ele>1209.449</ele>
        <time>2022-03-22T09:34:32Z</time>
      </trkpt>
      <trkpt lat="44.37576" lon="5.81007">
        <ele>1209.549</ele>
        <time>2022-03-22T09:34:35Z</time>
      </trkpt>
      <trkpt lat="44.37576" lon="5.81007">
        <ele>1209.549</ele>
        <time>2022-03-22T09:34:36Z</time>
      </trkpt>
      <trkpt lat="44.37576" lon="5.81009">
        <ele>1209.449</ele>
        <time>2022-03-22T09:34:38Z</time>
      </trkpt>
      <trkpt lat="44.37576" lon="5.81009">
        <ele>1209.549</ele>
        <time>2022-03-22T09:34:39Z</time>
      </trkpt>
      <trkpt lat="44.37575" lon="5.8101">
        <ele>1209.549</ele>
        <time>2022-03-22T09:34:40Z</time>
      </trkpt>
      <trkpt lat="44.37575" lon="5.81011">
        <ele>1209.849</ele>
        <time>2022-03-22T09:34:43Z</time>
      </trkpt>
      <trkpt lat="44.37575" lon="5.81013">
        <ele>1209.849</ele>
        <time>2022-03-22T09:34:44Z</time>
      </trkpt>
      <trkpt lat="44.37575" lon="5.81014">
        <ele>1210.549</ele>
        <time>2022-03-22T09:34:46Z</time>
      </trkpt>
      <trkpt lat="44.37575" lon="5.81016">
        <ele>1212.149</ele>
        <time>2022-03-22T09:34:49Z</time>
      </trkpt>
      <trkpt lat="44.37576" lon="5.81017">
        <ele>1212.749</ele>
        <time>2022-03-22T09:34:52Z</time>
      </trkpt>
      <trkpt lat="44.37576" lon="5.81018">
        <ele>1212.749</ele>
        <time>2022-03-22T09:34:55Z</time>
      </trkpt>
      <trkpt lat="44.37575" lon="5.81018">
        <ele>1212.649</ele>
        <time>2022-03-22T09:34:56Z</time>
      </trkpt>
      <trkpt lat="44.37575" lon="5.81018">
        <ele>1212.749</ele>
        <time>2022-03-22T09:36:37Z</time>
      </trkpt>
      <trkpt lat="44.37584" lon="5.81019">
        <ele>1219.349</ele>
        <time>2022-03-22T09:36:38Z</time>
      </trkpt>
      <trkpt lat="44.37585" lon="5.81019">
        <ele>1219.349</ele>
        <time>2022-03-22T09:36:39Z</time>
      </trkpt>
      <trkpt lat="44.37584" lon="5.81019">
        <ele>1219.249</ele>
        <time>2022-03-22T09:36:46Z</time>
      </trkpt>
      <trkpt lat="44.37585" lon="5.8102">
        <ele>1220.149</ele>
        <time>2022-03-22T09:36:47Z</time>
      </trkpt>
      <trkpt lat="44.37585" lon="5.8102">
        <ele>1220.149</ele>
        <time>2022-03-22T09:36:48Z</time>
      </trkpt>
      <trkpt lat="44.37585" lon="5.81021">
        <ele>1220.049</ele>
        <time>2022-03-22T09:37:02Z</time>
      </trkpt>
      <trkpt lat="44.37585" lon="5.81028">
        <ele>1219.649</ele>
        <time>2022-03-22T09:37:03Z</time>
      </trkpt>
      <trkpt lat="44.37585" lon="5.81029">
        <ele>1219.349</ele>
        <time>2022-03-22T09:37:04Z</time>
      </trkpt>
      <trkpt lat="44.37585" lon="5.8103">
        <ele>1219.449</ele>
        <time>2022-03-22T09:37:05Z</time>
      </trkpt>
      <trkpt lat="44.37585" lon="5.81031">
        <ele>1219.549</ele>
        <time>2022-03-22T09:37:06Z</time>
      </trkpt>
      <trkpt lat="44.37584" lon="5.81032">
        <ele>1219.449</ele>
        <time>2022-03-22T09:37:08Z</time>
      </trkpt>
      <trkpt lat="44.37583" lon="5.81034">
        <ele>1219.149</ele>
        <time>2022-03-22T09:37:10Z</time>
      </trkpt>
      <trkpt lat="44.37583" lon="5.81036">
        <ele>1218.649</ele>
        <time>2022-03-22T09:37:12Z</time>
      </trkpt>
      <trkpt lat="44.37582" lon="5.81038">
        <ele>1218.549</ele>
        <time>2022-03-22T09:37:13Z</time>
      </trkpt>
      <trkpt lat="44.37582" lon="5.81039">
        <ele>1218.549</ele>
        <time>2022-03-22T09:37:14Z</time>
      </trkpt>
      <trkpt lat="44.37581" lon="5.81041">
        <ele>1218.349</ele>
        <time>2022-03-22T09:37:16Z</time>
      </trkpt>
      <trkpt lat="44.37581" lon="5.81042">
        <ele>1218.049</ele>
        <time>2022-03-22T09:37:20Z</time>
      </trkpt>
      <trkpt lat="44.3758" lon="5.81043">
        <ele>1217.849</ele>
        <time>2022-03-22T09:37:22Z</time>
      </trkpt>
      <trkpt lat="44.3758" lon="5.81045">
        <ele>1217.849</ele>
        <time>2022-03-22T09:37:24Z</time>
      </trkpt>
      <trkpt lat="44.37581" lon="5.81046">
        <ele>1218.249</ele>
        <time>2022-03-22T09:37:26Z</time>
      </trkpt>
      <trkpt lat="44.37581" lon="5.81048">
        <ele>1218.449</ele>
        <time>2022-03-22T09:37:29Z</time>
      </trkpt>
      <trkpt lat="44.37581" lon="5.81049">
        <ele>1218.449</ele>
        <time>2022-03-22T09:37:31Z</time>
      </trkpt>
      <trkpt lat="44.3758" lon="5.8105">
        <ele>1218.349</ele>
        <time>2022-03-22T09:37:33Z</time>
      </trkpt>
      <trkpt lat="44.3758" lon="5.81051">
        <ele>1218.949</ele>
        <time>2022-03-22T09:37:37Z</time>
      </trkpt>
      <trkpt lat="44.37579" lon="5.81051">
        <ele>1218.949</ele>
        <time>2022-03-22T09:37:38Z</time>
      </trkpt>
      <trkpt lat="44.37579" lon="5.81052">
        <ele>1219.049</ele>
        <time>2022-03-22T09:37:39Z</time>
      </trkpt>
      <trkpt lat="44.37578" lon="5.81053">
        <ele>1219.349</ele>
        <time>2022-03-22T09:37:41Z</time>
      </trkpt>
      <trkpt lat="44.37578" lon="5.81053">
        <ele>1219.349</ele>
        <time>2022-03-22T09:37:49Z</time>
      </trkpt>
      <trkpt lat="44.37577" lon="5.81058">
        <ele>1221.249</ele>
        <time>2022-03-22T09:37:50Z</time>
      </trkpt>
      <trkpt lat="44.37576" lon="5.81059">
        <ele>1221.449</ele>
        <time>2022-03-22T09:37:52Z</time>
      </trkpt>
      <trkpt lat="44.37576" lon="5.81061">
        <ele>1221.049</ele>
        <time>2022-03-22T09:37:54Z</time>
      </trkpt>
      <trkpt lat="44.37575" lon="5.81062">
        <ele>1220.349</ele>
        <time>2022-03-22T09:37:58Z</time>
      </trkpt>
      <trkpt lat="44.37575" lon="5.81061">
        <ele>1220.349</ele>
        <time>2022-03-22T09:37:59Z</time>
      </trkpt>
      <trkpt lat="44.37575" lon="5.81061">
        <ele>1220.349</ele>
        <time>2022-03-22T09:38:00Z</time>
      </trkpt>
      <trkpt lat="44.37574" lon="5.81061">
        <ele>1220.749</ele>
        <time>2022-03-22T09:38:53Z</time>
      </trkpt>
      <trkpt lat="44.37574" lon="5.81065">
        <ele>1220.049</ele>
        <time>2022-03-22T09:38:54Z</time>
      </trkpt>
      <trkpt lat="44.37573" lon="5.81067">
        <ele>1219.849</ele>
        <time>2022-03-22T09:38:56Z</time>
      </trkpt>
      <trkpt lat="44.37573" lon="5.81068">
        <ele>1219.849</ele>
        <time>2022-03-22T09:38:58Z</time>
      </trkpt>
      <trkpt lat="44.37573" lon="5.8107">
        <ele>1219.249</ele>
        <time>2022-03-22T09:39:00Z</time>
      </trkpt>
      <trkpt lat="44.37574" lon="5.81071">
        <ele>1218.849</ele>
        <time>2022-03-22T09:39:02Z</time>
      </trkpt>
      <trkpt lat="44.37573" lon="5.81073">
        <ele>1218.749</ele>
        <time>2022-03-22T09:39:05Z</time>
      </trkpt>
      <trkpt lat="44.37573" lon="5.81075">
        <ele>1218.449</ele>
        <time>2022-03-22T09:39:07Z</time>
      </trkpt>
      <trkpt lat="44.37573" lon="5.81077">
        <ele>1217.849</ele>
        <time>2022-03-22T09:39:09Z</time>
      </trkpt>
      <trkpt lat="44.37572" lon="5.81079">
        <ele>1217.649</ele>
        <time>2022-03-22T09:39:10Z</time>
      </trkpt>
      <trkpt lat="44.37572" lon="5.8108">
        <ele>1216.949</ele>
        <time>2022-03-22T09:39:12Z</time>
      </trkpt>
      <trkpt lat="44.37572" lon="5.81082">
        <ele>1216.349</ele>
        <time>2022-03-22T09:39:14Z</time>
      </trkpt>
      <trkpt lat="44.37572" lon="5.81085">
        <ele>1215.949</ele>
        <time>2022-03-22T09:39:16Z</time>
      </trkpt>
      <trkpt lat="44.37572" lon="5.81086">
        <ele>1216.149</ele>
        <time>2022-03-22T09:39:17Z</time>
      </trkpt>
      <trkpt lat="44.37571" lon="5.81087">
        <ele>1215.949</ele>
        <time>2022-03-22T09:39:18Z</time>
      </trkpt>
      <trkpt lat="44.37571" lon="5.81088">
        <ele>1215.849</ele>
        <time>2022-03-22T09:39:19Z</time>
      </trkpt>
      <trkpt lat="44.3757" lon="5.8109">
        <ele>1215.449</ele>
        <time>2022-03-22T09:39:20Z</time>
      </trkpt>
      <trkpt lat="44.3757" lon="5.81091">
        <ele>1215.149</ele>
        <time>2022-03-22T09:39:21Z</time>
      </trkpt>
      <trkpt lat="44.37569" lon="5.81093">
        <ele>1214.949</ele>
        <time>2022-03-22T09:39:23Z</time>
      </trkpt>
      <trkpt lat="44.37569" lon="5.81094">
        <ele>1214.949</ele>
        <time>2022-03-22T09:39:25Z</time>
      </trkpt>
      <trkpt lat="44.37569" lon="5.81096">
        <ele>1214.749</ele>
        <time>2022-03-22T09:39:27Z</time>
      </trkpt>
      <trkpt lat="44.37569" lon="5.81098">
        <ele>1215.049</ele>
        <time>2022-03-22T09:39:29Z</time>
      </trkpt>
      <trkpt lat="44.3757" lon="5.811">
        <ele>1215.148</ele>
        <time>2022-03-22T09:39:30Z</time>
      </trkpt>
      <trkpt lat="44.3757" lon="5.81101">
        <ele>1215.248</ele>
        <time>2022-03-22T09:39:31Z</time>
      </trkpt>
      <trkpt lat="44.37569" lon="5.81103">
        <ele>1215.348</ele>
        <time>2022-03-22T09:39:32Z</time>
      </trkpt>
      <trkpt lat="44.37569" lon="5.81104">
        <ele>1215.948</ele>
        <time>2022-03-22T09:39:34Z</time>
      </trkpt>
      <trkpt lat="44.37568" lon="5.81106">
        <ele>1216.148</ele>
        <time>2022-03-22T09:39:36Z</time>
      </trkpt>
      <trkpt lat="44.37567" lon="5.81107">
        <ele>1215.648</ele>
        <time>2022-03-22T09:39:38Z</time>
      </trkpt>
      <trkpt lat="44.37567" lon="5.81109">
        <ele>1215.548</ele>
        <time>2022-03-22T09:39:39Z</time>
      </trkpt>
      <trkpt lat="44.37566" lon="5.8111">
        <ele>1215.648</ele>
        <time>2022-03-22T09:39:40Z</time>
      </trkpt>
      <trkpt lat="44.37565" lon="5.81112">
        <ele>1215.948</ele>
        <time>2022-03-22T09:39:42Z</time>
      </trkpt>
      <trkpt lat="44.37566" lon="5.81112">
        <ele>1216.248</ele>
        <time>2022-03-22T09:39:49Z</time>
      </trkpt>
      <trkpt lat="44.37566" lon="5.81112">
        <ele>1216.348</ele>
        <time>2022-03-22T09:39:50Z</time>
      </trkpt>
      <trkpt lat="44.37566" lon="5.81112">
        <ele>1216.348</ele>
        <time>2022-03-22T09:40:06Z</time>
      </trkpt>
      <trkpt lat="44.37565" lon="5.81115">
        <ele>1216.748</ele>
        <time>2022-03-22T09:40:07Z</time>
      </trkpt>
      <trkpt lat="44.37565" lon="5.81117">
        <ele>1217.248</ele>
        <time>2022-03-22T09:40:09Z</time>
      </trkpt>
      <trkpt lat="44.37564" lon="5.81119">
        <ele>1217.348</ele>
        <time>2022-03-22T09:40:11Z</time>
      </trkpt>
      <trkpt lat="44.37565" lon="5.81119">
        <ele>1216.848</ele>
        <time>2022-03-22T09:40:16Z</time>
      </trkpt>
      <trkpt lat="44.37565" lon="5.81119">
        <ele>1216.648</ele>
        <time>2022-03-22T09:40:17Z</time>
      </trkpt>
      <trkpt lat="44.37565" lon="5.81119">
        <ele>1216.748</ele>
        <time>2022-03-22T09:40:18Z</time>
      </trkpt>
      <trkpt lat="44.37563" lon="5.81123">
        <ele>1214.948</ele>
        <time>2022-03-22T09:44:03Z</time>
      </trkpt>
      <trkpt lat="44.37563" lon="5.81123">
        <ele>1214.948</ele>
        <time>2022-03-22T09:46:23Z</time>
      </trkpt>
      <trkpt lat="44.37565" lon="5.81124">
        <ele>1212.948</ele>
        <time>2022-03-22T09:46:24Z</time>
      </trkpt>
      <trkpt lat="44.37564" lon="5.81124">
        <ele>1213.048</ele>
        <time>2022-03-22T09:46:25Z</time>
      </trkpt>
      <trkpt lat="44.37564" lon="5.81124">
        <ele>1213.548</ele>
        <time>2022-03-22T09:46:27Z</time>
      </trkpt>
      <trkpt lat="44.37564" lon="5.81124">
        <ele>1213.548</ele>
        <time>2022-03-22T09:56:40Z</time>
      </trkpt>
      <trkpt lat="44.37564" lon="5.81124">
        <ele>1216.948</ele>
        <time>2022-03-22T09:56:41Z</time>
      </trkpt>
      <trkpt lat="44.37564" lon="5.81126">
        <ele>1216.548</ele>
        <time>2022-03-22T09:56:43Z</time>
      </trkpt>
      <trkpt lat="44.37564" lon="5.81128">
        <ele>1215.948</ele>
        <time>2022-03-22T09:56:45Z</time>
      </trkpt>
      <trkpt lat="44.37564" lon="5.8113">
        <ele>1215.448</ele>
        <time>2022-03-22T09:56:50Z</time>
      </trkpt>
      <trkpt lat="44.37563" lon="5.81132">
        <ele>1215.248</ele>
        <time>2022-03-22T09:56:52Z</time>
      </trkpt>
      <trkpt lat="44.37563" lon="5.81133">
        <ele>1215.048</ele>
        <time>2022-03-22T09:56:53Z</time>
      </trkpt>
      <trkpt lat="44.37562" lon="5.81135">
        <ele>1214.748</ele>
        <time>2022-03-22T09:56:54Z</time>
      </trkpt>
      <trkpt lat="44.37562" lon="5.81137">
        <ele>1214.148</ele>
        <time>2022-03-22T09:56:56Z</time>
      </trkpt>
      <trkpt lat="44.37562" lon="5.81138">
        <ele>1214.048</ele>
        <time>2022-03-22T09:56:57Z</time>
      </trkpt>
      <trkpt lat="44.37561" lon="5.8114">
        <ele>1214.048</ele>
        <time>2022-03-22T09:56:58Z</time>
      </trkpt>
      <trkpt lat="44.37561" lon="5.81142">
        <ele>1213.948</ele>
        <time>2022-03-22T09:57:00Z</time>
      </trkpt>
      <trkpt lat="44.37561" lon="5.81144">
        <ele>1214.548</ele>
        <time>2022-03-22T09:57:02Z</time>
      </trkpt>
      <trkpt lat="44.3756" lon="5.81146">
        <ele>1215.048</ele>
        <time>2022-03-22T09:57:04Z</time>
      </trkpt>
      <trkpt lat="44.37559" lon="5.81148">
        <ele>1215.248</ele>
        <time>2022-03-22T09:57:06Z</time>
      </trkpt>
      <trkpt lat="44.37559" lon="5.8115">
        <ele>1215.548</ele>
        <time>2022-03-22T09:57:08Z</time>
      </trkpt>
      <trkpt lat="44.37558" lon="5.81151">
        <ele>1215.648</ele>
        <time>2022-03-22T09:57:10Z</time>
      </trkpt>
      <trkpt lat="44.37557" lon="5.81153">
        <ele>1215.848</ele>
        <time>2022-03-22T09:57:12Z</time>
      </trkpt>
      <trkpt lat="44.37556" lon="5.81155">
        <ele>1215.948</ele>
        <time>2022-03-22T09:57:14Z</time>
      </trkpt>
      <trkpt lat="44.37555" lon="5.81156">
        <ele>1216.148</ele>
        <time>2022-03-22T09:57:16Z</time>
      </trkpt>
      <trkpt lat="44.37555" lon="5.81157">
        <ele>1216.548</ele>
        <time>2022-03-22T09:57:19Z</time>
      </trkpt>
      <trkpt lat="44.37555" lon="5.81159">
        <ele>1216.648</ele>
        <time>2022-03-22T09:57:21Z</time>
      </trkpt>
      <trkpt lat="44.37554" lon="5.8116">
        <ele>1216.448</ele>
        <time>2022-03-22T09:57:23Z</time>
      </trkpt>
      <trkpt lat="44.37553" lon="5.81162">
        <ele>1216.648</ele>
        <time>2022-03-22T09:57:25Z</time>
      </trkpt>
      <trkpt lat="44.37553" lon="5.81163">
        <ele>1216.548</ele>
        <time>2022-03-22T09:57:27Z</time>
      </trkpt>
      <trkpt lat="44.37552" lon="5.81164">
        <ele>1216.748</ele>
        <time>2022-03-22T09:57:29Z</time>
      </trkpt>
      <trkpt lat="44.37551" lon="5.81165">
        <ele>1216.948</ele>
        <time>2022-03-22T09:57:30Z</time>
      </trkpt>
      <trkpt lat="44.3755" lon="5.81167">
        <ele>1217.048</ele>
        <time>2022-03-22T09:57:32Z</time>
      </trkpt>
      <trkpt lat="44.3755" lon="5.81168">
        <ele>1217.048</ele>
        <time>2022-03-22T09:57:33Z</time>
      </trkpt>
      <trkpt lat="44.37549" lon="5.8117">
        <ele>1217.248</ele>
        <time>2022-03-22T09:57:34Z</time>
      </trkpt>
      <trkpt lat="44.37549" lon="5.81172">
        <ele>1217.448</ele>
        <time>2022-03-22T09:57:36Z</time>
      </trkpt>
      <trkpt lat="44.37548" lon="5.81173">
        <ele>1217.248</ele>
        <time>2022-03-22T09:57:37Z</time>
      </trkpt>
      <trkpt lat="44.37548" lon="5.81175">
        <ele>1217.448</ele>
        <time>2022-03-22T09:57:38Z</time>
      </trkpt>
      <trkpt lat="44.37548" lon="5.81176">
        <ele>1217.348</ele>
        <time>2022-03-22T09:57:40Z</time>
      </trkpt>
      <trkpt lat="44.37548" lon="5.81178">
        <ele>1217.848</ele>
        <time>2022-03-22T09:57:42Z</time>
      </trkpt>
      <trkpt lat="44.37548" lon="5.81179">
        <ele>1217.848</ele>
        <time>2022-03-22T09:57:43Z</time>
      </trkpt>
      <trkpt lat="44.37547" lon="5.81181">
        <ele>1217.848</ele>
        <time>2022-03-22T09:57:45Z</time>
      </trkpt>
      <trkpt lat="44.37546" lon="5.81183">
        <ele>1218.148</ele>
        <time>2022-03-22T09:57:47Z</time>
      </trkpt>
      <trkpt lat="44.37546" lon="5.81184">
        <ele>1218.348</ele>
        <time>2022-03-22T09:57:48Z</time>
      </trkpt>
      <trkpt lat="44.37546" lon="5.81185">
        <ele>1218.548</ele>
        <time>2022-03-22T09:57:49Z</time>
      </trkpt>
      <trkpt lat="44.37545" lon="5.81187">
        <ele>1218.848</ele>
        <time>2022-03-22T09:57:51Z</time>
      </trkpt>
      <trkpt lat="44.37545" lon="5.81189">
        <ele>1219.248</ele>
        <time>2022-03-22T09:57:53Z</time>
      </trkpt>
      <trkpt lat="44.37544" lon="5.8119">
        <ele>1219.548</ele>
        <time>2022-03-22T09:57:55Z</time>
      </trkpt>
      <trkpt lat="44.37544" lon="5.81191">
        <ele>1219.948</ele>
        <time>2022-03-22T09:57:57Z</time>
      </trkpt>
      <trkpt lat="44.37543" lon="5.81192">
        <ele>1220.048</ele>
        <time>2022-03-22T09:57:59Z</time>
      </trkpt>
      <trkpt lat="44.37542" lon="5.81194">
        <ele>1220.348</ele>
        <time>2022-03-22T09:58:04Z</time>
      </trkpt>
      <trkpt lat="44.37542" lon="5.81196">
        <ele>1220.448</ele>
        <time>2022-03-22T09:58:06Z</time>
      </trkpt>
      <trkpt lat="44.37542" lon="5.81198">
        <ele>1220.648</ele>
        <time>2022-03-22T09:58:08Z</time>
      </trkpt>
      <trkpt lat="44.37541" lon="5.812">
        <ele>1220.648</ele>
        <time>2022-03-22T09:58:10Z</time>
      </trkpt>
      <trkpt lat="44.3754" lon="5.81201">
        <ele>1220.848</ele>
        <time>2022-03-22T09:58:12Z</time>
      </trkpt>
      <trkpt lat="44.37539" lon="5.81204">
        <ele>1221.348</ele>
        <time>2022-03-22T09:58:14Z</time>
      </trkpt>
      <trkpt lat="44.37539" lon="5.81205">
        <ele>1221.748</ele>
        <time>2022-03-22T09:58:16Z</time>
      </trkpt>
      <trkpt lat="44.37538" lon="5.81207">
        <ele>1222.248</ele>
        <time>2022-03-22T09:58:18Z</time>
      </trkpt>
      <trkpt lat="44.37537" lon="5.81209">
        <ele>1222.148</ele>
        <time>2022-03-22T09:58:20Z</time>
      </trkpt>
      <trkpt lat="44.37537" lon="5.8121">
        <ele>1222.248</ele>
        <time>2022-03-22T09:58:22Z</time>
      </trkpt>
      <trkpt lat="44.37536" lon="5.81212">
        <ele>1222.548</ele>
        <time>2022-03-22T09:58:24Z</time>
      </trkpt>
      <trkpt lat="44.37537" lon="5.81214">
        <ele>1222.848</ele>
        <time>2022-03-22T09:58:26Z</time>
      </trkpt>
      <trkpt lat="44.37537" lon="5.81216">
        <ele>1222.648</ele>
        <time>2022-03-22T09:58:28Z</time>
      </trkpt>
      <trkpt lat="44.37536" lon="5.81218">
        <ele>1222.548</ele>
        <time>2022-03-22T09:58:29Z</time>
      </trkpt>
      <trkpt lat="44.37535" lon="5.8122">
        <ele>1222.548</ele>
        <time>2022-03-22T09:58:31Z</time>
      </trkpt>
      <trkpt lat="44.37535" lon="5.81222">
        <ele>1222.548</ele>
        <time>2022-03-22T09:58:33Z</time>
      </trkpt>
      <trkpt lat="44.37534" lon="5.81224">
        <ele>1222.948</ele>
        <time>2022-03-22T09:58:35Z</time>
      </trkpt>
      <trkpt lat="44.37534" lon="5.81225">
        <ele>1223.148</ele>
        <time>2022-03-22T09:58:37Z</time>
      </trkpt>
      <trkpt lat="44.37533" lon="5.81227">
        <ele>1223.248</ele>
        <time>2022-03-22T09:58:39Z</time>
      </trkpt>
      <trkpt lat="44.37533" lon="5.81228">
        <ele>1223.048</ele>
        <time>2022-03-22T09:58:43Z</time>
      </trkpt>
      <trkpt lat="44.37533" lon="5.81229">
        <ele>1223.048</ele>
        <time>2022-03-22T09:58:44Z</time>
      </trkpt>
      <trkpt lat="44.37533" lon="5.81229">
        <ele>1222.948</ele>
        <time>2022-03-22T09:58:45Z</time>
      </trkpt>
      <trkpt lat="44.37533" lon="5.8123">
        <ele>1223.148</ele>
        <time>2022-03-22T09:58:51Z</time>
      </trkpt>
      <trkpt lat="44.37533" lon="5.81233">
        <ele>1223.048</ele>
        <time>2022-03-22T09:58:52Z</time>
      </trkpt>
      <trkpt lat="44.37533" lon="5.81234">
        <ele>1222.848</ele>
        <time>2022-03-22T09:58:53Z</time>
      </trkpt>
      <trkpt lat="44.37533" lon="5.81237">
        <ele>1222.448</ele>
        <time>2022-03-22T09:58:55Z</time>
      </trkpt>
      <trkpt lat="44.37533" lon="5.81238">
        <ele>1222.248</ele>
        <time>2022-03-22T09:58:56Z</time>
      </trkpt>
      <trkpt lat="44.37532" lon="5.81239">
        <ele>1222.248</ele>
        <time>2022-03-22T09:58:57Z</time>
      </trkpt>
      <trkpt lat="44.37532" lon="5.81241">
        <ele>1222.148</ele>
        <time>2022-03-22T09:58:58Z</time>
      </trkpt>
      <trkpt lat="44.37532" lon="5.81242">
        <ele>1222.048</ele>
        <time>2022-03-22T09:58:59Z</time>
      </trkpt>
      <trkpt lat="44.37531" lon="5.81245">
        <ele>1221.348</ele>
        <time>2022-03-22T09:59:01Z</time>
      </trkpt>
      <trkpt lat="44.37531" lon="5.81247">
        <ele>1220.748</ele>
        <time>2022-03-22T09:59:03Z</time>
      </trkpt>
      <trkpt lat="44.3753" lon="5.81248">
        <ele>1220.548</ele>
        <time>2022-03-22T09:59:04Z</time>
      </trkpt>
      <trkpt lat="44.3753" lon="5.81249">
        <ele>1220.348</ele>
        <time>2022-03-22T09:59:05Z</time>
      </trkpt>
      <trkpt lat="44.3753" lon="5.8125">
        <ele>1220.248</ele>
        <time>2022-03-22T09:59:06Z</time>
      </trkpt>
      <trkpt lat="44.37529" lon="5.81253">
        <ele>1219.648</ele>
        <time>2022-03-22T09:59:08Z</time>
      </trkpt>
      <trkpt lat="44.37529" lon="5.81255">
        <ele>1219.548</ele>
        <time>2022-03-22T09:59:09Z</time>
      </trkpt>
      <trkpt lat="44.37529" lon="5.81256">
        <ele>1219.548</ele>
        <time>2022-03-22T09:59:10Z</time>
      </trkpt>
      <trkpt lat="44.37528" lon="5.81257">
        <ele>1219.548</ele>
        <time>2022-03-22T09:59:11Z</time>
      </trkpt>
      <trkpt lat="44.37528" lon="5.81259">
        <ele>1219.648</ele>
        <time>2022-03-22T09:59:12Z</time>
      </trkpt>
      <trkpt lat="44.37528" lon="5.8126">
        <ele>1219.448</ele>
        <time>2022-03-22T09:59:13Z</time>
      </trkpt>
      <trkpt lat="44.37527" lon="5.81262">
        <ele>1219.548</ele>
        <time>2022-03-22T09:59:14Z</time>
      </trkpt>
      <trkpt lat="44.37527" lon="5.81263">
        <ele>1219.548</ele>
        <time>2022-03-22T09:59:15Z</time>
      </trkpt>
      <trkpt lat="44.37527" lon="5.81265">
        <ele>1219.748</ele>
        <time>2022-03-22T09:59:16Z</time>
      </trkpt>
      <trkpt lat="44.37527" lon="5.81267">
        <ele>1220.048</ele>
        <time>2022-03-22T09:59:18Z</time>
      </trkpt>
      <trkpt lat="44.37527" lon="5.81269">
        <ele>1220.048</ele>
        <time>2022-03-22T09:59:20Z</time>
      </trkpt>
      <trkpt lat="44.37527" lon="5.81271">
        <ele>1220.148</ele>
        <time>2022-03-22T09:59:22Z</time>
      </trkpt>
      <trkpt lat="44.37527" lon="5.81272">
        <ele>1220.348</ele>
        <time>2022-03-22T09:59:24Z</time>
      </trkpt>
      <trkpt lat="44.37527" lon="5.81274">
        <ele>1220.448</ele>
        <time>2022-03-22T09:59:25Z</time>
      </trkpt>
      <trkpt lat="44.37526" lon="5.81275">
        <ele>1220.248</ele>
        <time>2022-03-22T09:59:26Z</time>
      </trkpt>
      <trkpt lat="44.37526" lon="5.81277">
        <ele>1220.048</ele>
        <time>2022-03-22T09:59:28Z</time>
      </trkpt>
      <trkpt lat="44.37526" lon="5.8128">
        <ele>1219.948</ele>
        <time>2022-03-22T09:59:30Z</time>
      </trkpt>
      <trkpt lat="44.37526" lon="5.81281">
        <ele>1220.048</ele>
        <time>2022-03-22T09:59:31Z</time>
      </trkpt>
      <trkpt lat="44.37526" lon="5.81283">
        <ele>1220.048</ele>
        <time>2022-03-22T09:59:32Z</time>
      </trkpt>
      <trkpt lat="44.37525" lon="5.81284">
        <ele>1220.048</ele>
        <time>2022-03-22T09:59:33Z</time>
      </trkpt>
      <trkpt lat="44.37525" lon="5.81285">
        <ele>1219.948</ele>
        <time>2022-03-22T09:59:34Z</time>
      </trkpt>
      <trkpt lat="44.37525" lon="5.81287">
        <ele>1219.948</ele>
        <time>2022-03-22T09:59:35Z</time>
      </trkpt>
      <trkpt lat="44.37525" lon="5.81289">
        <ele>1219.848</ele>
        <time>2022-03-22T09:59:36Z</time>
      </trkpt>
      <trkpt lat="44.37524" lon="5.8129">
        <ele>1219.548</ele>
        <time>2022-03-22T09:59:37Z</time>
      </trkpt>
      <trkpt lat="44.37524" lon="5.81292">
        <ele>1219.548</ele>
        <time>2022-03-22T09:59:38Z</time>
      </trkpt>
      <trkpt lat="44.37524" lon="5.81294">
        <ele>1219.248</ele>
        <time>2022-03-22T09:59:40Z</time>
      </trkpt>
      <trkpt lat="44.37524" lon="5.81296">
        <ele>1219.148</ele>
        <time>2022-03-22T09:59:41Z</time>
      </trkpt>
      <trkpt lat="44.37524" lon="5.81297">
        <ele>1218.848</ele>
        <time>2022-03-22T09:59:42Z</time>
      </trkpt>
      <trkpt lat="44.37524" lon="5.81299">
        <ele>1219.048</ele>
        <time>2022-03-22T09:59:43Z</time>
      </trkpt>
      <trkpt lat="44.37523" lon="5.81301">
        <ele>1219.248</ele>
        <time>2022-03-22T09:59:44Z</time>
      </trkpt>
      <trkpt lat="44.37523" lon="5.81302">
        <ele>1219.148</ele>
        <time>2022-03-22T09:59:45Z</time>
      </trkpt>
      <trkpt lat="44.37522" lon="5.81303">
        <ele>1219.048</ele>
        <time>2022-03-22T09:59:46Z</time>
      </trkpt>
      <trkpt lat="44.37522" lon="5.81305">
        <ele>1219.448</ele>
        <time>2022-03-22T09:59:48Z</time>
      </trkpt>
      <trkpt lat="44.37522" lon="5.81307">
        <ele>1219.648</ele>
        <time>2022-03-22T09:59:50Z</time>
      </trkpt>
      <trkpt lat="44.37522" lon="5.81309">
        <ele>1219.548</ele>
        <time>2022-03-22T09:59:52Z</time>
      </trkpt>
      <trkpt lat="44.37522" lon="5.8131">
        <ele>1219.848</ele>
        <time>2022-03-22T09:59:56Z</time>
      </trkpt>
      <trkpt lat="44.37522" lon="5.81312">
        <ele>1220.148</ele>
        <time>2022-03-22T09:59:58Z</time>
      </trkpt>
      <trkpt lat="44.37521" lon="5.81314">
        <ele>1220.448</ele>
        <time>2022-03-22T10:00:00Z</time>
      </trkpt>
      <trkpt lat="44.37521" lon="5.81316">
        <ele>1220.648</ele>
        <time>2022-03-22T10:00:01Z</time>
      </trkpt>
      <trkpt lat="44.37521" lon="5.81317">
        <ele>1220.948</ele>
        <time>2022-03-22T10:00:02Z</time>
      </trkpt>
      <trkpt lat="44.3752" lon="5.81318">
        <ele>1220.948</ele>
        <time>2022-03-22T10:00:03Z</time>
      </trkpt>
      <trkpt lat="44.3752" lon="5.8132">
        <ele>1221.348</ele>
        <time>2022-03-22T10:00:05Z</time>
      </trkpt>
      <trkpt lat="44.37519" lon="5.81322">
        <ele>1221.548</ele>
        <time>2022-03-22T10:00:07Z</time>
      </trkpt>
      <trkpt lat="44.37519" lon="5.81323">
        <ele>1221.648</ele>
        <time>2022-03-22T10:00:09Z</time>
      </trkpt>
      <trkpt lat="44.37519" lon="5.81325">
        <ele>1221.848</ele>
        <time>2022-03-22T10:00:11Z</time>
      </trkpt>
      <trkpt lat="44.37518" lon="5.81327">
        <ele>1222.048</ele>
        <time>2022-03-22T10:00:13Z</time>
      </trkpt>
      <trkpt lat="44.37518" lon="5.81328">
        <ele>1222.048</ele>
        <time>2022-03-22T10:00:14Z</time>
      </trkpt>
      <trkpt lat="44.37518" lon="5.81329">
        <ele>1222.048</ele>
        <time>2022-03-22T10:00:15Z</time>
      </trkpt>
      <trkpt lat="44.37518" lon="5.81331">
        <ele>1222.048</ele>
        <time>2022-03-22T10:00:16Z</time>
      </trkpt>
      <trkpt lat="44.37517" lon="5.81333">
        <ele>1222.447</ele>
        <time>2022-03-22T10:00:18Z</time>
      </trkpt>
      <trkpt lat="44.37517" lon="5.81336">
        <ele>1222.347</ele>
        <time>2022-03-22T10:00:20Z</time>
      </trkpt>
      <trkpt lat="44.37517" lon="5.81338">
        <ele>1222.447</ele>
        <time>2022-03-22T10:00:22Z</time>
      </trkpt>
      <trkpt lat="44.37516" lon="5.81339">
        <ele>1222.947</ele>
        <time>2022-03-22T10:00:24Z</time>
      </trkpt>
      <trkpt lat="44.37516" lon="5.8134">
        <ele>1223.047</ele>
        <time>2022-03-22T10:00:26Z</time>
      </trkpt>
      <trkpt lat="44.37515" lon="5.81342">
        <ele>1223.047</ele>
        <time>2022-03-22T10:00:28Z</time>
      </trkpt>
      <trkpt lat="44.37515" lon="5.81343">
        <ele>1223.147</ele>
        <time>2022-03-22T10:00:31Z</time>
      </trkpt>
      <trkpt lat="44.37515" lon="5.81345">
        <ele>1223.247</ele>
        <time>2022-03-22T10:00:34Z</time>
      </trkpt>
      <trkpt lat="44.37514" lon="5.81347">
        <ele>1223.547</ele>
        <time>2022-03-22T10:00:36Z</time>
      </trkpt>
      <trkpt lat="44.37515" lon="5.81349">
        <ele>1223.747</ele>
        <time>2022-03-22T10:00:38Z</time>
      </trkpt>
      <trkpt lat="44.37515" lon="5.81351">
        <ele>1223.847</ele>
        <time>2022-03-22T10:00:40Z</time>
      </trkpt>
      <trkpt lat="44.37515" lon="5.81353">
        <ele>1223.747</ele>
        <time>2022-03-22T10:00:41Z</time>
      </trkpt>
      <trkpt lat="44.37515" lon="5.81354">
        <ele>1223.947</ele>
        <time>2022-03-22T10:00:42Z</time>
      </trkpt>
      <trkpt lat="44.37515" lon="5.81356">
        <ele>1223.947</ele>
        <time>2022-03-22T10:00:44Z</time>
      </trkpt>
      <trkpt lat="44.37515" lon="5.81358">
        <ele>1224.247</ele>
        <time>2022-03-22T10:00:46Z</time>
      </trkpt>
      <trkpt lat="44.37514" lon="5.8136">
        <ele>1224.747</ele>
        <time>2022-03-22T10:00:48Z</time>
      </trkpt>
      <trkpt lat="44.37514" lon="5.81362">
        <ele>1225.047</ele>
        <time>2022-03-22T10:00:50Z</time>
      </trkpt>
      <trkpt lat="44.37513" lon="5.81364">
        <ele>1224.947</ele>
        <time>2022-03-22T10:00:52Z</time>
      </trkpt>
      <trkpt lat="44.37513" lon="5.81366">
        <ele>1225.347</ele>
        <time>2022-03-22T10:00:54Z</time>
      </trkpt>
      <trkpt lat="44.37512" lon="5.81368">
        <ele>1225.547</ele>
        <time>2022-03-22T10:00:56Z</time>
      </trkpt>
      <trkpt lat="44.37512" lon="5.8137">
        <ele>1225.547</ele>
        <time>2022-03-22T10:00:58Z</time>
      </trkpt>
      <trkpt lat="44.37512" lon="5.81372">
        <ele>1225.947</ele>
        <time>2022-03-22T10:01:00Z</time>
      </trkpt>
      <trkpt lat="44.37511" lon="5.81373">
        <ele>1226.447</ele>
        <time>2022-03-22T10:01:02Z</time>
      </trkpt>
      <trkpt lat="44.37511" lon="5.81375">
        <ele>1226.347</ele>
        <time>2022-03-22T10:01:04Z</time>
      </trkpt>
      <trkpt lat="44.37511" lon="5.81377">
        <ele>1226.347</ele>
        <time>2022-03-22T10:01:06Z</time>
      </trkpt>
      <trkpt lat="44.3751" lon="5.81379">
        <ele>1226.247</ele>
        <time>2022-03-22T10:01:08Z</time>
      </trkpt>
      <trkpt lat="44.3751" lon="5.8138">
        <ele>1226.347</ele>
        <time>2022-03-22T10:01:09Z</time>
      </trkpt>
      <trkpt lat="44.37509" lon="5.81382">
        <ele>1226.647</ele>
        <time>2022-03-22T10:01:11Z</time>
      </trkpt>
      <trkpt lat="44.37509" lon="5.81383">
        <ele>1226.847</ele>
        <time>2022-03-22T10:01:13Z</time>
      </trkpt>
      <trkpt lat="44.37508" lon="5.81385">
        <ele>1227.047</ele>
        <time>2022-03-22T10:01:15Z</time>
      </trkpt>
      <trkpt lat="44.37508" lon="5.81387">
        <ele>1227.347</ele>
        <time>2022-03-22T10:01:17Z</time>
      </trkpt>
      <trkpt lat="44.37508" lon="5.81389">
        <ele>1227.647</ele>
        <time>2022-03-22T10:01:19Z</time>
      </trkpt>
      <trkpt lat="44.37507" lon="5.8139">
        <ele>1228.147</ele>
        <time>2022-03-22T10:01:21Z</time>
      </trkpt>
      <trkpt lat="44.37507" lon="5.81392">
        <ele>1228.447</ele>
        <time>2022-03-22T10:01:23Z</time>
      </trkpt>
      <trkpt lat="44.37507" lon="5.81394">
        <ele>1228.647</ele>
        <time>2022-03-22T10:01:25Z</time>
      </trkpt>
      <trkpt lat="44.37507" lon="5.81396">
        <ele>1228.647</ele>
        <time>2022-03-22T10:01:26Z</time>
      </trkpt>
      <trkpt lat="44.37507" lon="5.81397">
        <ele>1228.947</ele>
        <time>2022-03-22T10:01:27Z</time>
      </trkpt>
      <trkpt lat="44.37507" lon="5.81398">
        <ele>1229.247</ele>
        <time>2022-03-22T10:01:28Z</time>
      </trkpt>
      <trkpt lat="44.37507" lon="5.814">
        <ele>1229.447</ele>
        <time>2022-03-22T10:01:30Z</time>
      </trkpt>
      <trkpt lat="44.37506" lon="5.81403">
        <ele>1229.647</ele>
        <time>2022-03-22T10:01:32Z</time>
      </trkpt>
      <trkpt lat="44.37506" lon="5.81404">
        <ele>1229.947</ele>
        <time>2022-03-22T10:01:34Z</time>
      </trkpt>
      <trkpt lat="44.37506" lon="5.81407">
        <ele>1229.947</ele>
        <time>2022-03-22T10:01:36Z</time>
      </trkpt>
      <trkpt lat="44.37506" lon="5.81408">
        <ele>1230.247</ele>
        <time>2022-03-22T10:01:37Z</time>
      </trkpt>
      <trkpt lat="44.37506" lon="5.8141">
        <ele>1230.347</ele>
        <time>2022-03-22T10:01:39Z</time>
      </trkpt>
      <trkpt lat="44.37506" lon="5.81412">
        <ele>1230.547</ele>
        <time>2022-03-22T10:01:40Z</time>
      </trkpt>
      <trkpt lat="44.37506" lon="5.81414">
        <ele>1230.547</ele>
        <time>2022-03-22T10:01:42Z</time>
      </trkpt>
      <trkpt lat="44.37506" lon="5.81415">
        <ele>1231.047</ele>
        <time>2022-03-22T10:01:45Z</time>
      </trkpt>
      <trkpt lat="44.37506" lon="5.81417">
        <ele>1231.247</ele>
        <time>2022-03-22T10:01:47Z</time>
      </trkpt>
      <trkpt lat="44.37505" lon="5.81418">
        <ele>1231.347</ele>
        <time>2022-03-22T10:01:48Z</time>
      </trkpt>
      <trkpt lat="44.37505" lon="5.8142">
        <ele>1231.247</ele>
        <time>2022-03-22T10:01:49Z</time>
      </trkpt>
      <trkpt lat="44.37504" lon="5.81421">
        <ele>1231.247</ele>
        <time>2022-03-22T10:01:51Z</time>
      </trkpt>
      <trkpt lat="44.37504" lon="5.81422">
        <ele>1231.147</ele>
        <time>2022-03-22T10:01:53Z</time>
      </trkpt>
      <trkpt lat="44.37504" lon="5.81423">
        <ele>1230.947</ele>
        <time>2022-03-22T10:01:55Z</time>
      </trkpt>
      <trkpt lat="44.37504" lon="5.81424">
        <ele>1231.147</ele>
        <time>2022-03-22T10:01:59Z</time>
      </trkpt>
      <trkpt lat="44.37504" lon="5.81424">
        <ele>1231.347</ele>
        <time>2022-03-22T10:02:00Z</time>
      </trkpt>
      <trkpt lat="44.37504" lon="5.81425">
        <ele>1231.447</ele>
        <time>2022-03-22T10:02:11Z</time>
      </trkpt>
      <trkpt lat="44.37504" lon="5.81426">
        <ele>1231.047</ele>
        <time>2022-03-22T10:02:12Z</time>
      </trkpt>
      <trkpt lat="44.37505" lon="5.81426">
        <ele>1231.047</ele>
        <time>2022-03-22T10:02:13Z</time>
      </trkpt>
      <trkpt lat="44.37505" lon="5.81427">
        <ele>1230.947</ele>
        <time>2022-03-22T10:02:14Z</time>
      </trkpt>
      <trkpt lat="44.37505" lon="5.81428">
        <ele>1230.747</ele>
        <time>2022-03-22T10:04:59Z</time>
      </trkpt>
      <trkpt lat="44.37505" lon="5.8143">
        <ele>1231.747</ele>
        <time>2022-03-22T10:05:00Z</time>
      </trkpt>
      <trkpt lat="44.37505" lon="5.81431">
        <ele>1231.647</ele>
        <time>2022-03-22T10:05:02Z</time>
      </trkpt>
      <trkpt lat="44.37505" lon="5.81434">
        <ele>1231.847</ele>
        <time>2022-03-22T10:05:04Z</time>
      </trkpt>
      <trkpt lat="44.37505" lon="5.81435">
        <ele>1231.847</ele>
        <time>2022-03-22T10:05:05Z</time>
      </trkpt>
      <trkpt lat="44.37506" lon="5.81437">
        <ele>1231.447</ele>
        <time>2022-03-22T10:05:07Z</time>
      </trkpt>
      <trkpt lat="44.37506" lon="5.81439">
        <ele>1231.247</ele>
        <time>2022-03-22T10:05:08Z</time>
      </trkpt>
      <trkpt lat="44.37506" lon="5.8144">
        <ele>1231.047</ele>
        <time>2022-03-22T10:05:09Z</time>
      </trkpt>
      <trkpt lat="44.37506" lon="5.81441">
        <ele>1230.947</ele>
        <time>2022-03-22T10:05:10Z</time>
      </trkpt>
      <trkpt lat="44.37506" lon="5.81443">
        <ele>1230.747</ele>
        <time>2022-03-22T10:05:11Z</time>
      </trkpt>
      <trkpt lat="44.37505" lon="5.81445">
        <ele>1230.447</ele>
        <time>2022-03-22T10:05:13Z</time>
      </trkpt>
      <trkpt lat="44.37505" lon="5.81447">
        <ele>1230.147</ele>
        <time>2022-03-22T10:05:15Z</time>
      </trkpt>
      <trkpt lat="44.37505" lon="5.81449">
        <ele>1230.047</ele>
        <time>2022-03-22T10:05:17Z</time>
      </trkpt>
      <trkpt lat="44.37505" lon="5.8145">
        <ele>1229.847</ele>
        <time>2022-03-22T10:05:18Z</time>
      </trkpt>
      <trkpt lat="44.37505" lon="5.81452">
        <ele>1229.547</ele>
        <time>2022-03-22T10:05:19Z</time>
      </trkpt>
      <trkpt lat="44.37505" lon="5.81453">
        <ele>1229.247</ele>
        <time>2022-03-22T10:05:20Z</time>
      </trkpt>
      <trkpt lat="44.37505" lon="5.81455">
        <ele>1228.747</ele>
        <time>2022-03-22T10:05:21Z</time>
      </trkpt>
      <trkpt lat="44.37505" lon="5.81456">
        <ele>1228.547</ele>
        <time>2022-03-22T10:05:22Z</time>
      </trkpt>
      <trkpt lat="44.37505" lon="5.81458">
        <ele>1228.647</ele>
        <time>2022-03-22T10:05:23Z</time>
      </trkpt>
      <trkpt lat="44.37504" lon="5.8146">
        <ele>1228.647</ele>
        <time>2022-03-22T10:05:24Z</time>
      </trkpt>
      <trkpt lat="44.37504" lon="5.81462">
        <ele>1228.647</ele>
        <time>2022-03-22T10:05:25Z</time>
      </trkpt>
      <trkpt lat="44.37504" lon="5.81464">
        <ele>1228.447</ele>
        <time>2022-03-22T10:05:27Z</time>
      </trkpt>
      <trkpt lat="44.37504" lon="5.81465">
        <ele>1228.447</ele>
        <time>2022-03-22T10:05:28Z</time>
      </trkpt>
      <trkpt lat="44.37504" lon="5.81466">
        <ele>1228.647</ele>
        <time>2022-03-22T10:05:29Z</time>
      </trkpt>
      <trkpt lat="44.37504" lon="5.81468">
        <ele>1228.947</ele>
        <time>2022-03-22T10:05:30Z</time>
      </trkpt>
      <trkpt lat="44.37504" lon="5.81469">
        <ele>1229.147</ele>
        <time>2022-03-22T10:05:31Z</time>
      </trkpt>
      <trkpt lat="44.37504" lon="5.81471">
        <ele>1229.146</ele>
        <time>2022-03-22T10:05:33Z</time>
      </trkpt>
      <trkpt lat="44.37504" lon="5.81473">
        <ele>1229.046</ele>
        <time>2022-03-22T10:05:35Z</time>
      </trkpt>
      <trkpt lat="44.37504" lon="5.81475">
        <ele>1228.746</ele>
        <time>2022-03-22T10:05:37Z</time>
      </trkpt>
      <trkpt lat="44.37504" lon="5.81477">
        <ele>1228.546</ele>
        <time>2022-03-22T10:05:39Z</time>
      </trkpt>
      <trkpt lat="44.37504" lon="5.81479">
        <ele>1228.446</ele>
        <time>2022-03-22T10:05:41Z</time>
      </trkpt>
      <trkpt lat="44.37505" lon="5.81481">
        <ele>1228.146</ele>
        <time>2022-03-22T10:05:43Z</time>
      </trkpt>
      <trkpt lat="44.37505" lon="5.81483">
        <ele>1227.946</ele>
        <time>2022-03-22T10:05:46Z</time>
      </trkpt>
      <trkpt lat="44.37505" lon="5.81485">
        <ele>1227.446</ele>
        <time>2022-03-22T10:05:48Z</time>
      </trkpt>
      <trkpt lat="44.37504" lon="5.81486">
        <ele>1227.446</ele>
        <time>2022-03-22T10:05:50Z</time>
      </trkpt>
      <trkpt lat="44.37504" lon="5.81487">
        <ele>1227.046</ele>
        <time>2022-03-22T10:05:53Z</time>
      </trkpt>
      <trkpt lat="44.37504" lon="5.81489">
        <ele>1227.246</ele>
        <time>2022-03-22T10:05:55Z</time>
      </trkpt>
      <trkpt lat="44.37504" lon="5.8149">
        <ele>1227.146</ele>
        <time>2022-03-22T10:05:57Z</time>
      </trkpt>
      <trkpt lat="44.37504" lon="5.81493">
        <ele>1226.846</ele>
        <time>2022-03-22T10:05:59Z</time>
      </trkpt>
      <trkpt lat="44.37504" lon="5.81494">
        <ele>1226.446</ele>
        <time>2022-03-22T10:06:00Z</time>
      </trkpt>
      <trkpt lat="44.37504" lon="5.81496">
        <ele>1226.246</ele>
        <time>2022-03-22T10:06:01Z</time>
      </trkpt>
      <trkpt lat="44.37504" lon="5.81497">
        <ele>1226.046</ele>
        <time>2022-03-22T10:06:02Z</time>
      </trkpt>
      <trkpt lat="44.37504" lon="5.81499">
        <ele>1226.046</ele>
        <time>2022-03-22T10:06:03Z</time>
      </trkpt>
      <trkpt lat="44.37504" lon="5.815">
        <ele>1225.946</ele>
        <time>2022-03-22T10:06:04Z</time>
      </trkpt>
      <trkpt lat="44.37504" lon="5.81502">
        <ele>1225.846</ele>
        <time>2022-03-22T10:06:05Z</time>
      </trkpt>
      <trkpt lat="44.37503" lon="5.81504">
        <ele>1225.646</ele>
        <time>2022-03-22T10:06:07Z</time>
      </trkpt>
      <trkpt lat="44.37504" lon="5.81505">
        <ele>1225.446</ele>
        <time>2022-03-22T10:06:08Z</time>
      </trkpt>
      <trkpt lat="44.37504" lon="5.81507">
        <ele>1225.346</ele>
        <time>2022-03-22T10:06:09Z</time>
      </trkpt>
      <trkpt lat="44.37504" lon="5.81509">
        <ele>1225.546</ele>
        <time>2022-03-22T10:06:10Z</time>
      </trkpt>
      <trkpt lat="44.37503" lon="5.81511">
        <ele>1225.646</ele>
        <time>2022-03-22T10:06:12Z</time>
      </trkpt>
      <trkpt lat="44.37503" lon="5.81513">
        <ele>1225.446</ele>
        <time>2022-03-22T10:06:14Z</time>
      </trkpt>
      <trkpt lat="44.37504" lon="5.81515">
        <ele>1225.646</ele>
        <time>2022-03-22T10:06:16Z</time>
      </trkpt>
      <trkpt lat="44.37503" lon="5.81517">
        <ele>1225.846</ele>
        <time>2022-03-22T10:06:18Z</time>
      </trkpt>
      <trkpt lat="44.37503" lon="5.81519">
        <ele>1225.746</ele>
        <time>2022-03-22T10:06:20Z</time>
      </trkpt>
      <trkpt lat="44.37503" lon="5.81521">
        <ele>1226.046</ele>
        <time>2022-03-22T10:06:23Z</time>
      </trkpt>
      <trkpt lat="44.37503" lon="5.81522">
        <ele>1226.046</ele>
        <time>2022-03-22T10:06:25Z</time>
      </trkpt>
      <trkpt lat="44.37503" lon="5.81524">
        <ele>1225.946</ele>
        <time>2022-03-22T10:06:28Z</time>
      </trkpt>
      <trkpt lat="44.37503" lon="5.81525">
        <ele>1225.846</ele>
        <time>2022-03-22T10:06:30Z</time>
      </trkpt>
      <trkpt lat="44.37503" lon="5.81528">
        <ele>1225.946</ele>
        <time>2022-03-22T10:06:32Z</time>
      </trkpt>
      <trkpt lat="44.37503" lon="5.8153">
        <ele>1225.846</ele>
        <time>2022-03-22T10:06:34Z</time>
      </trkpt>
      <trkpt lat="44.37502" lon="5.81531">
        <ele>1225.846</ele>
        <time>2022-03-22T10:06:36Z</time>
      </trkpt>
      <trkpt lat="44.37502" lon="5.81533">
        <ele>1226.446</ele>
        <time>2022-03-22T10:06:38Z</time>
      </trkpt>
      <trkpt lat="44.37502" lon="5.81534">
        <ele>1226.846</ele>
        <time>2022-03-22T10:06:40Z</time>
      </trkpt>
      <trkpt lat="44.37501" lon="5.81537">
        <ele>1227.146</ele>
        <time>2022-03-22T10:06:42Z</time>
      </trkpt>
      <trkpt lat="44.37501" lon="5.81538">
        <ele>1227.246</ele>
        <time>2022-03-22T10:06:43Z</time>
      </trkpt>
      <trkpt lat="44.37501" lon="5.81539">
        <ele>1227.446</ele>
        <time>2022-03-22T10:06:44Z</time>
      </trkpt>
      <trkpt lat="44.37501" lon="5.81541">
        <ele>1227.746</ele>
        <time>2022-03-22T10:06:45Z</time>
      </trkpt>
      <trkpt lat="44.37501" lon="5.81542">
        <ele>1228.246</ele>
        <time>2022-03-22T10:06:46Z</time>
      </trkpt>
      <trkpt lat="44.375" lon="5.81544">
        <ele>1228.846</ele>
        <time>2022-03-22T10:06:48Z</time>
      </trkpt>
      <trkpt lat="44.37499" lon="5.81545">
        <ele>1228.746</ele>
        <time>2022-03-22T10:06:49Z</time>
      </trkpt>
      <trkpt lat="44.37499" lon="5.81548">
        <ele>1228.846</ele>
        <time>2022-03-22T10:06:51Z</time>
      </trkpt>
      <trkpt lat="44.37499" lon="5.81549">
        <ele>1228.946</ele>
        <time>2022-03-22T10:06:52Z</time>
      </trkpt>
      <trkpt lat="44.37499" lon="5.81552">
        <ele>1228.746</ele>
        <time>2022-03-22T10:06:54Z</time>
      </trkpt>
      <trkpt lat="44.37498" lon="5.81554">
        <ele>1228.546</ele>
        <time>2022-03-22T10:06:56Z</time>
      </trkpt>
      <trkpt lat="44.37498" lon="5.81555">
        <ele>1228.046</ele>
        <time>2022-03-22T10:06:58Z</time>
      </trkpt>
      <trkpt lat="44.37498" lon="5.81557">
        <ele>1227.646</ele>
        <time>2022-03-22T10:07:00Z</time>
      </trkpt>
      <trkpt lat="44.37498" lon="5.81559">
        <ele>1227.446</ele>
        <time>2022-03-22T10:07:02Z</time>
      </trkpt>
      <trkpt lat="44.37497" lon="5.8156">
        <ele>1227.346</ele>
        <time>2022-03-22T10:07:04Z</time>
      </trkpt>
      <trkpt lat="44.37498" lon="5.81561">
        <ele>1227.446</ele>
        <time>2022-03-22T10:07:06Z</time>
      </trkpt>
      <trkpt lat="44.37497" lon="5.81563">
        <ele>1227.746</ele>
        <time>2022-03-22T10:07:07Z</time>
      </trkpt>
      <trkpt lat="44.37497" lon="5.81565">
        <ele>1228.146</ele>
        <time>2022-03-22T10:07:09Z</time>
      </trkpt>
      <trkpt lat="44.37497" lon="5.81567">
        <ele>1228.046</ele>
        <time>2022-03-22T10:07:11Z</time>
      </trkpt>
      <trkpt lat="44.37497" lon="5.81569">
        <ele>1228.246</ele>
        <time>2022-03-22T10:07:12Z</time>
      </trkpt>
      <trkpt lat="44.37496" lon="5.81571">
        <ele>1228.346</ele>
        <time>2022-03-22T10:07:14Z</time>
      </trkpt>
      <trkpt lat="44.37496" lon="5.81573">
        <ele>1228.546</ele>
        <time>2022-03-22T10:07:15Z</time>
      </trkpt>
      <trkpt lat="44.37496" lon="5.81575">
        <ele>1228.746</ele>
        <time>2022-03-22T10:07:17Z</time>
      </trkpt>
      <trkpt lat="44.37496" lon="5.81576">
        <ele>1228.846</ele>
        <time>2022-03-22T10:07:18Z</time>
      </trkpt>
      <trkpt lat="44.37495" lon="5.81578">
        <ele>1228.846</ele>
        <time>2022-03-22T10:07:19Z</time>
      </trkpt>
      <trkpt lat="44.37495" lon="5.81579">
        <ele>1228.846</ele>
        <time>2022-03-22T10:07:20Z</time>
      </trkpt>
      <trkpt lat="44.37495" lon="5.8158">
        <ele>1228.946</ele>
        <time>2022-03-22T10:07:21Z</time>
      </trkpt>
      <trkpt lat="44.37495" lon="5.81582">
        <ele>1229.146</ele>
        <time>2022-03-22T10:07:23Z</time>
      </trkpt>
      <trkpt lat="44.37494" lon="5.81584">
        <ele>1228.946</ele>
        <time>2022-03-22T10:07:26Z</time>
      </trkpt>
      <trkpt lat="44.37495" lon="5.81585">
        <ele>1228.946</ele>
        <time>2022-03-22T10:07:28Z</time>
      </trkpt>
      <trkpt lat="44.37495" lon="5.81588">
        <ele>1229.046</ele>
        <time>2022-03-22T10:07:30Z</time>
      </trkpt>
      <trkpt lat="44.37494" lon="5.81589">
        <ele>1229.546</ele>
        <time>2022-03-22T10:07:32Z</time>
      </trkpt>
      <trkpt lat="44.37494" lon="5.81591">
        <ele>1229.746</ele>
        <time>2022-03-22T10:07:34Z</time>
      </trkpt>
      <trkpt lat="44.37493" lon="5.81592">
        <ele>1229.946</ele>
        <time>2022-03-22T10:07:36Z</time>
      </trkpt>
      <trkpt lat="44.37493" lon="5.81594">
        <ele>1229.946</ele>
        <time>2022-03-22T10:07:39Z</time>
      </trkpt>
      <trkpt lat="44.37493" lon="5.81595">
        <ele>1230.246</ele>
        <time>2022-03-22T10:07:41Z</time>
      </trkpt>
      <trkpt lat="44.37492" lon="5.81597">
        <ele>1230.246</ele>
        <time>2022-03-22T10:07:43Z</time>
      </trkpt>
      <trkpt lat="44.37492" lon="5.81598">
        <ele>1230.646</ele>
        <time>2022-03-22T10:07:45Z</time>
      </trkpt>
      <trkpt lat="44.37493" lon="5.816">
        <ele>1230.746</ele>
        <time>2022-03-22T10:07:47Z</time>
      </trkpt>
      <trkpt lat="44.37492" lon="5.81601">
        <ele>1231.446</ele>
        <time>2022-03-22T10:07:49Z</time>
      </trkpt>
      <trkpt lat="44.37492" lon="5.81602">
        <ele>1231.446</ele>
        <time>2022-03-22T10:07:51Z</time>
      </trkpt>
      <trkpt lat="44.37492" lon="5.81603">
        <ele>1231.345</ele>
        <time>2022-03-22T10:07:53Z</time>
      </trkpt>
      <trkpt lat="44.37491" lon="5.81605">
        <ele>1231.145</ele>
        <time>2022-03-22T10:07:55Z</time>
      </trkpt>
      <trkpt lat="44.37491" lon="5.81606">
        <ele>1231.145</ele>
        <time>2022-03-22T10:07:57Z</time>
      </trkpt>
      <trkpt lat="44.3749" lon="5.81608">
        <ele>1230.845</ele>
        <time>2022-03-22T10:07:59Z</time>
      </trkpt>
      <trkpt lat="44.3749" lon="5.8161">
        <ele>1230.945</ele>
        <time>2022-03-22T10:08:02Z</time>
      </trkpt>
      <trkpt lat="44.37491" lon="5.81611">
        <ele>1230.845</ele>
        <time>2022-03-22T10:08:04Z</time>
      </trkpt>
      <trkpt lat="44.37491" lon="5.81614">
        <ele>1230.745</ele>
        <time>2022-03-22T10:08:06Z</time>
      </trkpt>
      <trkpt lat="44.37491" lon="5.81615">
        <ele>1230.645</ele>
        <time>2022-03-22T10:08:07Z</time>
      </trkpt>
      <trkpt lat="44.3749" lon="5.81616">
        <ele>1230.545</ele>
        <time>2022-03-22T10:08:08Z</time>
      </trkpt>
      <trkpt lat="44.3749" lon="5.81618">
        <ele>1230.545</ele>
        <time>2022-03-22T10:08:10Z</time>
      </trkpt>
      <trkpt lat="44.3749" lon="5.81619">
        <ele>1230.545</ele>
        <time>2022-03-22T10:08:11Z</time>
      </trkpt>
      <trkpt lat="44.3749" lon="5.81621">
        <ele>1230.845</ele>
        <time>2022-03-22T10:08:13Z</time>
      </trkpt>
      <trkpt lat="44.37489" lon="5.81623">
        <ele>1231.045</ele>
        <time>2022-03-22T10:08:15Z</time>
      </trkpt>
      <trkpt lat="44.37488" lon="5.81625">
        <ele>1231.045</ele>
        <time>2022-03-22T10:08:17Z</time>
      </trkpt>
      <trkpt lat="44.37488" lon="5.81626">
        <ele>1231.245</ele>
        <time>2022-03-22T10:08:19Z</time>
      </trkpt>
      <trkpt lat="44.37488" lon="5.81628">
        <ele>1231.245</ele>
        <time>2022-03-22T10:08:21Z</time>
      </trkpt>
      <trkpt lat="44.37488" lon="5.8163">
        <ele>1230.945</ele>
        <time>2022-03-22T10:08:23Z</time>
      </trkpt>
      <trkpt lat="44.37489" lon="5.81631">
        <ele>1230.645</ele>
        <time>2022-03-22T10:08:26Z</time>
      </trkpt>
      <trkpt lat="44.37488" lon="5.81633">
        <ele>1230.645</ele>
        <time>2022-03-22T10:08:29Z</time>
      </trkpt>
      <trkpt lat="44.37488" lon="5.81633">
        <ele>1230.545</ele>
        <time>2022-03-22T10:08:30Z</time>
      </trkpt>
      <trkpt lat="44.37488" lon="5.81634">
        <ele>1230.445</ele>
        <time>2022-03-22T10:08:40Z</time>
      </trkpt>
      <trkpt lat="44.3749" lon="5.81638">
        <ele>1230.045</ele>
        <time>2022-03-22T10:08:41Z</time>
      </trkpt>
      <trkpt lat="44.3749" lon="5.8164">
        <ele>1229.445</ele>
        <time>2022-03-22T10:08:43Z</time>
      </trkpt>
      <trkpt lat="44.3749" lon="5.81643">
        <ele>1229.245</ele>
        <time>2022-03-22T10:08:45Z</time>
      </trkpt>
      <trkpt lat="44.3749" lon="5.81645">
        <ele>1228.545</ele>
        <time>2022-03-22T10:08:47Z</time>
      </trkpt>
      <trkpt lat="44.3749" lon="5.81646">
        <ele>1228.545</ele>
        <time>2022-03-22T10:08:49Z</time>
      </trkpt>
      <trkpt lat="44.37489" lon="5.81648">
        <ele>1228.445</ele>
        <time>2022-03-22T10:08:51Z</time>
      </trkpt>
      <trkpt lat="44.37489" lon="5.8165">
        <ele>1228.245</ele>
        <time>2022-03-22T10:08:53Z</time>
      </trkpt>
      <trkpt lat="44.37488" lon="5.81652">
        <ele>1228.645</ele>
        <time>2022-03-22T10:08:55Z</time>
      </trkpt>
      <trkpt lat="44.37487" lon="5.81654">
        <ele>1228.645</ele>
        <time>2022-03-22T10:08:57Z</time>
      </trkpt>
      <trkpt lat="44.37487" lon="5.81656">
        <ele>1228.745</ele>
        <time>2022-03-22T10:08:59Z</time>
      </trkpt>
      <trkpt lat="44.37486" lon="5.81658">
        <ele>1228.945</ele>
        <time>2022-03-22T10:09:01Z</time>
      </trkpt>
      <trkpt lat="44.37486" lon="5.81659">
        <ele>1229.045</ele>
        <time>2022-03-22T10:09:02Z</time>
      </trkpt>
      <trkpt lat="44.37486" lon="5.81661">
        <ele>1229.045</ele>
        <time>2022-03-22T10:09:03Z</time>
      </trkpt>
      <trkpt lat="44.37486" lon="5.81663">
        <ele>1229.045</ele>
        <time>2022-03-22T10:09:05Z</time>
      </trkpt>
      <trkpt lat="44.37486" lon="5.81666">
        <ele>1228.945</ele>
        <time>2022-03-22T10:09:07Z</time>
      </trkpt>
      <trkpt lat="44.37486" lon="5.81667">
        <ele>1228.845</ele>
        <time>2022-03-22T10:09:08Z</time>
      </trkpt>
      <trkpt lat="44.37486" lon="5.81669">
        <ele>1228.645</ele>
        <time>2022-03-22T10:09:09Z</time>
      </trkpt>
      <trkpt lat="44.37486" lon="5.81671">
        <ele>1228.245</ele>
        <time>2022-03-22T10:09:11Z</time>
      </trkpt>
      <trkpt lat="44.37486" lon="5.81672">
        <ele>1228.145</ele>
        <time>2022-03-22T10:09:12Z</time>
      </trkpt>
      <trkpt lat="44.37486" lon="5.81675">
        <ele>1228.245</ele>
        <time>2022-03-22T10:09:14Z</time>
      </trkpt>
      <trkpt lat="44.37486" lon="5.81677">
        <ele>1227.845</ele>
        <time>2022-03-22T10:09:16Z</time>
      </trkpt>
      <trkpt lat="44.37486" lon="5.81678">
        <ele>1228.045</ele>
        <time>2022-03-22T10:09:17Z</time>
      </trkpt>
      <trkpt lat="44.37486" lon="5.8168">
        <ele>1228.145</ele>
        <time>2022-03-22T10:09:18Z</time>
      </trkpt>
      <trkpt lat="44.37485" lon="5.81681">
        <ele>1228.045</ele>
        <time>2022-03-22T10:09:19Z</time>
      </trkpt>
      <trkpt lat="44.37485" lon="5.81683">
        <ele>1227.845</ele>
        <time>2022-03-22T10:09:20Z</time>
      </trkpt>
      <trkpt lat="44.37486" lon="5.81685">
        <ele>1227.345</ele>
        <time>2022-03-22T10:09:22Z</time>
      </trkpt>
      <trkpt lat="44.37486" lon="5.81687">
        <ele>1227.345</ele>
        <time>2022-03-22T10:09:23Z</time>
      </trkpt>
      <trkpt lat="44.37485" lon="5.81688">
        <ele>1227.345</ele>
        <time>2022-03-22T10:09:24Z</time>
      </trkpt>
      <trkpt lat="44.37485" lon="5.8169">
        <ele>1227.045</ele>
        <time>2022-03-22T10:09:25Z</time>
      </trkpt>
      <trkpt lat="44.37485" lon="5.81691">
        <ele>1226.845</ele>
        <time>2022-03-22T10:09:26Z</time>
      </trkpt>
      <trkpt lat="44.37485" lon="5.81693">
        <ele>1226.545</ele>
        <time>2022-03-22T10:09:27Z</time>
      </trkpt>
      <trkpt lat="44.37485" lon="5.81694">
        <ele>1226.545</ele>
        <time>2022-03-22T10:09:28Z</time>
      </trkpt>
      <trkpt lat="44.37485" lon="5.81695">
        <ele>1226.445</ele>
        <time>2022-03-22T10:09:29Z</time>
      </trkpt>
      <trkpt lat="44.37486" lon="5.81697">
        <ele>1226.145</ele>
        <time>2022-03-22T10:09:30Z</time>
      </trkpt>
      <trkpt lat="44.37485" lon="5.81698">
        <ele>1225.945</ele>
        <time>2022-03-22T10:09:31Z</time>
      </trkpt>
      <trkpt lat="44.37485" lon="5.817">
        <ele>1225.845</ele>
        <time>2022-03-22T10:09:32Z</time>
      </trkpt>
      <trkpt lat="44.37485" lon="5.81701">
        <ele>1225.845</ele>
        <time>2022-03-22T10:09:33Z</time>
      </trkpt>
      <trkpt lat="44.37485" lon="5.81703">
        <ele>1225.845</ele>
        <time>2022-03-22T10:09:34Z</time>
      </trkpt>
      <trkpt lat="44.37484" lon="5.81704">
        <ele>1226.145</ele>
        <time>2022-03-22T10:09:35Z</time>
      </trkpt>
      <trkpt lat="44.37484" lon="5.81705">
        <ele>1226.245</ele>
        <time>2022-03-22T10:09:37Z</time>
      </trkpt>
      <trkpt lat="44.37483" lon="5.81707">
        <ele>1225.945</ele>
        <time>2022-03-22T10:09:39Z</time>
      </trkpt>
      <trkpt lat="44.37483" lon="5.81709">
        <ele>1225.945</ele>
        <time>2022-03-22T10:09:42Z</time>
      </trkpt>
      <trkpt lat="44.37483" lon="5.8171">
        <ele>1225.745</ele>
        <time>2022-03-22T10:09:44Z</time>
      </trkpt>
      <trkpt lat="44.37483" lon="5.81712">
        <ele>1226.145</ele>
        <time>2022-03-22T10:09:46Z</time>
      </trkpt>
      <trkpt lat="44.37482" lon="5.81714">
        <ele>1226.145</ele>
        <time>2022-03-22T10:09:47Z</time>
      </trkpt>
      <trkpt lat="44.37482" lon="5.81716">
        <ele>1226.045</ele>
        <time>2022-03-22T10:09:48Z</time>
      </trkpt>
      <trkpt lat="44.37481" lon="5.81718">
        <ele>1226.045</ele>
        <time>2022-03-22T10:09:50Z</time>
      </trkpt>
      <trkpt lat="44.37481" lon="5.81719">
        <ele>1226.045</ele>
        <time>2022-03-22T10:09:51Z</time>
      </trkpt>
      <trkpt lat="44.37481" lon="5.8172">
        <ele>1226.145</ele>
        <time>2022-03-22T10:09:52Z</time>
      </trkpt>
      <trkpt lat="44.37481" lon="5.81721">
        <ele>1226.245</ele>
        <time>2022-03-22T10:09:53Z</time>
      </trkpt>
      <trkpt lat="44.37481" lon="5.81723">
        <ele>1226.445</ele>
        <time>2022-03-22T10:09:54Z</time>
      </trkpt>
      <trkpt lat="44.3748" lon="5.81725">
        <ele>1226.545</ele>
        <time>2022-03-22T10:09:56Z</time>
      </trkpt>
      <trkpt lat="44.37479" lon="5.81727">
        <ele>1226.845</ele>
        <time>2022-03-22T10:09:58Z</time>
      </trkpt>
      <trkpt lat="44.37479" lon="5.81729">
        <ele>1227.145</ele>
        <time>2022-03-22T10:09:59Z</time>
      </trkpt>
      <trkpt lat="44.37479" lon="5.8173">
        <ele>1227.145</ele>
        <time>2022-03-22T10:10:00Z</time>
      </trkpt>
      <trkpt lat="44.37479" lon="5.81732">
        <ele>1227.445</ele>
        <time>2022-03-22T10:10:01Z</time>
      </trkpt>
      <trkpt lat="44.37479" lon="5.81733">
        <ele>1227.445</ele>
        <time>2022-03-22T10:10:02Z</time>
      </trkpt>
      <trkpt lat="44.37479" lon="5.81735">
        <ele>1227.445</ele>
        <time>2022-03-22T10:10:03Z</time>
      </trkpt>
      <trkpt lat="44.37479" lon="5.81737">
        <ele>1227.445</ele>
        <time>2022-03-22T10:10:04Z</time>
      </trkpt>
      <trkpt lat="44.37479" lon="5.81738">
        <ele>1227.344</ele>
        <time>2022-03-22T10:10:05Z</time>
      </trkpt>
      <trkpt lat="44.37479" lon="5.8174">
        <ele>1226.944</ele>
        <time>2022-03-22T10:10:06Z</time>
      </trkpt>
      <trkpt lat="44.37479" lon="5.81742">
        <ele>1226.444</ele>
        <time>2022-03-22T10:10:08Z</time>
      </trkpt>
      <trkpt lat="44.37479" lon="5.81743">
        <ele>1226.344</ele>
        <time>2022-03-22T10:10:09Z</time>
      </trkpt>
      <trkpt lat="44.37478" lon="5.81745">
        <ele>1226.144</ele>
        <time>2022-03-22T10:10:11Z</time>
      </trkpt>
      <trkpt lat="44.37478" lon="5.81747">
        <ele>1226.244</ele>
        <time>2022-03-22T10:10:12Z</time>
      </trkpt>
      <trkpt lat="44.37478" lon="5.81748">
        <ele>1226.044</ele>
        <time>2022-03-22T10:10:13Z</time>
      </trkpt>
      <trkpt lat="44.37477" lon="5.8175">
        <ele>1226.044</ele>
        <time>2022-03-22T10:10:14Z</time>
      </trkpt>
      <trkpt lat="44.37477" lon="5.81751">
        <ele>1225.944</ele>
        <time>2022-03-22T10:10:15Z</time>
      </trkpt>
      <trkpt lat="44.37477" lon="5.81753">
        <ele>1225.744</ele>
        <time>2022-03-22T10:10:16Z</time>
      </trkpt>
      <trkpt lat="44.37477" lon="5.81754">
        <ele>1225.844</ele>
        <time>2022-03-22T10:10:17Z</time>
      </trkpt>
      <trkpt lat="44.37476" lon="5.81756">
        <ele>1226.044</ele>
        <time>2022-03-22T10:10:19Z</time>
      </trkpt>
      <trkpt lat="44.37476" lon="5.81758">
        <ele>1225.944</ele>
        <time>2022-03-22T10:10:20Z</time>
      </trkpt>
      <trkpt lat="44.37475" lon="5.8176">
        <ele>1225.944</ele>
        <time>2022-03-22T10:10:22Z</time>
      </trkpt>
      <trkpt lat="44.37475" lon="5.81761">
        <ele>1226.044</ele>
        <time>2022-03-22T10:10:23Z</time>
      </trkpt>
      <trkpt lat="44.37474" lon="5.81762">
        <ele>1226.144</ele>
        <time>2022-03-22T10:10:24Z</time>
      </trkpt>
      <trkpt lat="44.37474" lon="5.81764">
        <ele>1226.244</ele>
        <time>2022-03-22T10:10:25Z</time>
      </trkpt>
      <trkpt lat="44.37474" lon="5.81765">
        <ele>1226.344</ele>
        <time>2022-03-22T10:10:26Z</time>
      </trkpt>
      <trkpt lat="44.37474" lon="5.81767">
        <ele>1226.644</ele>
        <time>2022-03-22T10:10:28Z</time>
      </trkpt>
      <trkpt lat="44.37474" lon="5.81768">
        <ele>1226.644</ele>
        <time>2022-03-22T10:10:29Z</time>
      </trkpt>
      <trkpt lat="44.37474" lon="5.81771">
        <ele>1226.844</ele>
        <time>2022-03-22T10:10:31Z</time>
      </trkpt>
      <trkpt lat="44.37474" lon="5.81772">
        <ele>1226.844</ele>
        <time>2022-03-22T10:10:32Z</time>
      </trkpt>
      <trkpt lat="44.37473" lon="5.81774">
        <ele>1226.844</ele>
        <time>2022-03-22T10:10:34Z</time>
      </trkpt>
      <trkpt lat="44.37473" lon="5.81776">
        <ele>1226.944</ele>
        <time>2022-03-22T10:10:35Z</time>
      </trkpt>
      <trkpt lat="44.37472" lon="5.81778">
        <ele>1227.144</ele>
        <time>2022-03-22T10:10:37Z</time>
      </trkpt>
      <trkpt lat="44.37472" lon="5.81779">
        <ele>1227.344</ele>
        <time>2022-03-22T10:10:38Z</time>
      </trkpt>
      <trkpt lat="44.37472" lon="5.81781">
        <ele>1227.644</ele>
        <time>2022-03-22T10:10:39Z</time>
      </trkpt>
      <trkpt lat="44.37472" lon="5.81782">
        <ele>1227.944</ele>
        <time>2022-03-22T10:10:40Z</time>
      </trkpt>
      <trkpt lat="44.37472" lon="5.81784">
        <ele>1228.044</ele>
        <time>2022-03-22T10:10:41Z</time>
      </trkpt>
      <trkpt lat="44.37472" lon="5.81786">
        <ele>1228.144</ele>
        <time>2022-03-22T10:10:43Z</time>
      </trkpt>
      <trkpt lat="44.37471" lon="5.81787">
        <ele>1228.144</ele>
        <time>2022-03-22T10:10:44Z</time>
      </trkpt>
      <trkpt lat="44.37471" lon="5.81788">
        <ele>1228.144</ele>
        <time>2022-03-22T10:10:45Z</time>
      </trkpt>
      <trkpt lat="44.3747" lon="5.8179">
        <ele>1228.244</ele>
        <time>2022-03-22T10:10:47Z</time>
      </trkpt>
      <trkpt lat="44.3747" lon="5.81791">
        <ele>1228.544</ele>
        <time>2022-03-22T10:10:48Z</time>
      </trkpt>
      <trkpt lat="44.3747" lon="5.81793">
        <ele>1228.744</ele>
        <time>2022-03-22T10:10:49Z</time>
      </trkpt>
      <trkpt lat="44.3747" lon="5.81794">
        <ele>1228.744</ele>
        <time>2022-03-22T10:10:51Z</time>
      </trkpt>
      <trkpt lat="44.37469" lon="5.81796">
        <ele>1228.544</ele>
        <time>2022-03-22T10:10:53Z</time>
      </trkpt>
      <trkpt lat="44.37469" lon="5.81797">
        <ele>1228.444</ele>
        <time>2022-03-22T10:10:54Z</time>
      </trkpt>
      <trkpt lat="44.37468" lon="5.81799">
        <ele>1228.644</ele>
        <time>2022-03-22T10:10:56Z</time>
      </trkpt>
      <trkpt lat="44.37468" lon="5.81802">
        <ele>1228.744</ele>
        <time>2022-03-22T10:10:58Z</time>
      </trkpt>
      <trkpt lat="44.37467" lon="5.81803">
        <ele>1228.944</ele>
        <time>2022-03-22T10:10:59Z</time>
      </trkpt>
      <trkpt lat="44.37467" lon="5.81804">
        <ele>1229.244</ele>
        <time>2022-03-22T10:11:00Z</time>
      </trkpt>
      <trkpt lat="44.37467" lon="5.81806">
        <ele>1229.444</ele>
        <time>2022-03-22T10:11:02Z</time>
      </trkpt>
      <trkpt lat="44.37466" lon="5.81808">
        <ele>1229.344</ele>
        <time>2022-03-22T10:11:04Z</time>
      </trkpt>
      <trkpt lat="44.37466" lon="5.8181">
        <ele>1229.944</ele>
        <time>2022-03-22T10:11:06Z</time>
      </trkpt>
      <trkpt lat="44.37465" lon="5.81812">
        <ele>1229.944</ele>
        <time>2022-03-22T10:11:08Z</time>
      </trkpt>
      <trkpt lat="44.37465" lon="5.81813">
        <ele>1229.844</ele>
        <time>2022-03-22T10:11:10Z</time>
      </trkpt>
      <trkpt lat="44.37464" lon="5.81815">
        <ele>1230.044</ele>
        <time>2022-03-22T10:11:12Z</time>
      </trkpt>
      <trkpt lat="44.37464" lon="5.81817">
        <ele>1230.344</ele>
        <time>2022-03-22T10:11:14Z</time>
      </trkpt>
      <trkpt lat="44.37463" lon="5.81818">
        <ele>1231.044</ele>
        <time>2022-03-22T10:11:16Z</time>
      </trkpt>
      <trkpt lat="44.37463" lon="5.8182">
        <ele>1231.444</ele>
        <time>2022-03-22T10:11:18Z</time>
      </trkpt>
      <trkpt lat="44.37462" lon="5.81822">
        <ele>1231.644</ele>
        <time>2022-03-22T10:11:21Z</time>
      </trkpt>
      <trkpt lat="44.37462" lon="5.81824">
        <ele>1231.844</ele>
        <time>2022-03-22T10:11:23Z</time>
      </trkpt>
      <trkpt lat="44.37462" lon="5.81826">
        <ele>1231.844</ele>
        <time>2022-03-22T10:11:25Z</time>
      </trkpt>
      <trkpt lat="44.37461" lon="5.81827">
        <ele>1232.144</ele>
        <time>2022-03-22T10:11:27Z</time>
      </trkpt>
      <trkpt lat="44.37461" lon="5.81829">
        <ele>1232.744</ele>
        <time>2022-03-22T10:11:29Z</time>
      </trkpt>
      <trkpt lat="44.37461" lon="5.81831">
        <ele>1233.144</ele>
        <time>2022-03-22T10:11:31Z</time>
      </trkpt>
      <trkpt lat="44.37461" lon="5.81832">
        <ele>1233.344</ele>
        <time>2022-03-22T10:11:32Z</time>
      </trkpt>
      <trkpt lat="44.3746" lon="5.81834">
        <ele>1233.444</ele>
        <time>2022-03-22T10:11:34Z</time>
      </trkpt>
      <trkpt lat="44.3746" lon="5.81835">
        <ele>1233.644</ele>
        <time>2022-03-22T10:11:35Z</time>
      </trkpt>
      <trkpt lat="44.3746" lon="5.81837">
        <ele>1233.644</ele>
        <time>2022-03-22T10:11:36Z</time>
      </trkpt>
      <trkpt lat="44.3746" lon="5.81839">
        <ele>1233.644</ele>
        <time>2022-03-22T10:11:38Z</time>
      </trkpt>
      <trkpt lat="44.3746" lon="5.81841">
        <ele>1233.944</ele>
        <time>2022-03-22T10:11:40Z</time>
      </trkpt>
      <trkpt lat="44.3746" lon="5.81843">
        <ele>1234.044</ele>
        <time>2022-03-22T10:11:41Z</time>
      </trkpt>
      <trkpt lat="44.3746" lon="5.81845">
        <ele>1233.944</ele>
        <time>2022-03-22T10:11:43Z</time>
      </trkpt>
      <trkpt lat="44.37459" lon="5.81847">
        <ele>1234.144</ele>
        <time>2022-03-22T10:11:45Z</time>
      </trkpt>
      <trkpt lat="44.37459" lon="5.81849">
        <ele>1234.144</ele>
        <time>2022-03-22T10:11:47Z</time>
      </trkpt>
      <trkpt lat="44.37458" lon="5.8185">
        <ele>1234.344</ele>
        <time>2022-03-22T10:11:48Z</time>
      </trkpt>
      <trkpt lat="44.37458" lon="5.81852">
        <ele>1234.444</ele>
        <time>2022-03-22T10:11:50Z</time>
      </trkpt>
      <trkpt lat="44.37457" lon="5.81853">
        <ele>1234.644</ele>
        <time>2022-03-22T10:11:52Z</time>
      </trkpt>
      <trkpt lat="44.37456" lon="5.81855">
        <ele>1234.944</ele>
        <time>2022-03-22T10:11:54Z</time>
      </trkpt>
      <trkpt lat="44.37456" lon="5.81857">
        <ele>1236.244</ele>
        <time>2022-03-22T10:11:58Z</time>
      </trkpt>
      <trkpt lat="44.37456" lon="5.81858">
        <ele>1236.444</ele>
        <time>2022-03-22T10:12:00Z</time>
      </trkpt>
      <trkpt lat="44.37455" lon="5.8186">
        <ele>1237.244</ele>
        <time>2022-03-22T10:12:03Z</time>
      </trkpt>
      <trkpt lat="44.37454" lon="5.81861">
        <ele>1237.544</ele>
        <time>2022-03-22T10:12:05Z</time>
      </trkpt>
      <trkpt lat="44.37454" lon="5.81862">
        <ele>1237.744</ele>
        <time>2022-03-22T10:12:07Z</time>
      </trkpt>
      <trkpt lat="44.37453" lon="5.81864">
        <ele>1238.244</ele>
        <time>2022-03-22T10:12:09Z</time>
      </trkpt>
      <trkpt lat="44.37453" lon="5.81866">
        <ele>1238.944</ele>
        <time>2022-03-22T10:12:12Z</time>
      </trkpt>
      <trkpt lat="44.37452" lon="5.81867">
        <ele>1239.444</ele>
        <time>2022-03-22T10:12:15Z</time>
      </trkpt>
      <trkpt lat="44.37452" lon="5.81868">
        <ele>1239.944</ele>
        <time>2022-03-22T10:12:17Z</time>
      </trkpt>
      <trkpt lat="44.37451" lon="5.8187">
        <ele>1240.444</ele>
        <time>2022-03-22T10:12:19Z</time>
      </trkpt>
      <trkpt lat="44.37451" lon="5.81871">
        <ele>1240.944</ele>
        <time>2022-03-22T10:12:21Z</time>
      </trkpt>
      <trkpt lat="44.3745" lon="5.81872">
        <ele>1241.044</ele>
        <time>2022-03-22T10:12:24Z</time>
      </trkpt>
      <trkpt lat="44.3745" lon="5.81873">
        <ele>1241.144</ele>
        <time>2022-03-22T10:12:26Z</time>
      </trkpt>
      <trkpt lat="44.3745" lon="5.81875">
        <ele>1241.444</ele>
        <time>2022-03-22T10:12:28Z</time>
      </trkpt>
      <trkpt lat="44.37449" lon="5.81877">
        <ele>1241.744</ele>
        <time>2022-03-22T10:12:30Z</time>
      </trkpt>
      <trkpt lat="44.37449" lon="5.81879">
        <ele>1241.944</ele>
        <time>2022-03-22T10:12:32Z</time>
      </trkpt>
      <trkpt lat="44.37449" lon="5.81882">
        <ele>1242.144</ele>
        <time>2022-03-22T10:12:34Z</time>
      </trkpt>
      <trkpt lat="44.37449" lon="5.81884">
        <ele>1242.044</ele>
        <time>2022-03-22T10:12:36Z</time>
      </trkpt>
      <trkpt lat="44.37449" lon="5.81885">
        <ele>1242.044</ele>
        <time>2022-03-22T10:12:37Z</time>
      </trkpt>
      <trkpt lat="44.37449" lon="5.81886">
        <ele>1241.944</ele>
        <time>2022-03-22T10:12:38Z</time>
      </trkpt>
      <trkpt lat="44.37449" lon="5.81888">
        <ele>1242.144</ele>
        <time>2022-03-22T10:12:40Z</time>
      </trkpt>
      <trkpt lat="44.3745" lon="5.8189">
        <ele>1242.644</ele>
        <time>2022-03-22T10:12:42Z</time>
      </trkpt>
      <trkpt lat="44.3745" lon="5.81892">
        <ele>1242.744</ele>
        <time>2022-03-22T10:12:44Z</time>
      </trkpt>
      <trkpt lat="44.3745" lon="5.81895">
        <ele>1242.744</ele>
        <time>2022-03-22T10:12:46Z</time>
      </trkpt>
      <trkpt lat="44.37451" lon="5.81897">
        <ele>1242.644</ele>
        <time>2022-03-22T10:12:48Z</time>
      </trkpt>
      <trkpt lat="44.37451" lon="5.81899">
        <ele>1242.544</ele>
        <time>2022-03-22T10:12:50Z</time>
      </trkpt>
      <trkpt lat="44.37451" lon="5.819">
        <ele>1242.644</ele>
        <time>2022-03-22T10:12:51Z</time>
      </trkpt>
      <trkpt lat="44.37451" lon="5.81902">
        <ele>1242.644</ele>
        <time>2022-03-22T10:12:52Z</time>
      </trkpt>
      <trkpt lat="44.37451" lon="5.81903">
        <ele>1242.544</ele>
        <time>2022-03-22T10:12:54Z</time>
      </trkpt>
      <trkpt lat="44.37451" lon="5.81905">
        <ele>1242.144</ele>
        <time>2022-03-22T10:12:56Z</time>
      </trkpt>
      <trkpt lat="44.37451" lon="5.81907">
        <ele>1241.944</ele>
        <time>2022-03-22T10:12:58Z</time>
      </trkpt>
      <trkpt lat="44.37451" lon="5.81908">
        <ele>1241.844</ele>
        <time>2022-03-22T10:12:59Z</time>
      </trkpt>
      <trkpt lat="44.3745" lon="5.81911">
        <ele>1241.944</ele>
        <time>2022-03-22T10:13:01Z</time>
      </trkpt>
      <trkpt lat="44.37451" lon="5.81913">
        <ele>1241.743</ele>
        <time>2022-03-22T10:13:03Z</time>
      </trkpt>
      <trkpt lat="44.37451" lon="5.81915">
        <ele>1241.443</ele>
        <time>2022-03-22T10:13:04Z</time>
      </trkpt>
      <trkpt lat="44.37451" lon="5.81917">
        <ele>1241.243</ele>
        <time>2022-03-22T10:13:06Z</time>
      </trkpt>
      <trkpt lat="44.37451" lon="5.8192">
        <ele>1241.043</ele>
        <time>2022-03-22T10:13:08Z</time>
      </trkpt>
      <trkpt lat="44.37451" lon="5.81921">
        <ele>1241.143</ele>
        <time>2022-03-22T10:13:09Z</time>
      </trkpt>
      <trkpt lat="44.37451" lon="5.81923">
        <ele>1241.343</ele>
        <time>2022-03-22T10:13:11Z</time>
      </trkpt>
      <trkpt lat="44.3745" lon="5.81925">
        <ele>1241.143</ele>
        <time>2022-03-22T10:13:13Z</time>
      </trkpt>
      <trkpt lat="44.3745" lon="5.81928">
        <ele>1241.043</ele>
        <time>2022-03-22T10:13:15Z</time>
      </trkpt>
      <trkpt lat="44.3745" lon="5.81929">
        <ele>1240.743</ele>
        <time>2022-03-22T10:13:16Z</time>
      </trkpt>
      <trkpt lat="44.3745" lon="5.81931">
        <ele>1240.743</ele>
        <time>2022-03-22T10:13:18Z</time>
      </trkpt>
      <trkpt lat="44.3745" lon="5.81932">
        <ele>1240.743</ele>
        <time>2022-03-22T10:13:19Z</time>
      </trkpt>
      <trkpt lat="44.3745" lon="5.81935">
        <ele>1240.543</ele>
        <time>2022-03-22T10:13:21Z</time>
      </trkpt>
      <trkpt lat="44.3745" lon="5.81936">
        <ele>1240.543</ele>
        <time>2022-03-22T10:13:22Z</time>
      </trkpt>
      <trkpt lat="44.3745" lon="5.81937">
        <ele>1240.443</ele>
        <time>2022-03-22T10:13:24Z</time>
      </trkpt>
      <trkpt lat="44.37449" lon="5.81939">
        <ele>1240.743</ele>
        <time>2022-03-22T10:13:28Z</time>
      </trkpt>
      <trkpt lat="44.37449" lon="5.81939">
        <ele>1240.843</ele>
        <time>2022-03-22T10:13:29Z</time>
      </trkpt>
      <trkpt lat="44.37449" lon="5.81939">
        <ele>1240.443</ele>
        <time>2022-03-22T10:13:38Z</time>
      </trkpt>
      <trkpt lat="44.37449" lon="5.81942">
        <ele>1239.243</ele>
        <time>2022-03-22T10:13:39Z</time>
      </trkpt>
      <trkpt lat="44.37449" lon="5.81944">
        <ele>1239.543</ele>
        <time>2022-03-22T10:13:41Z</time>
      </trkpt>
      <trkpt lat="44.37449" lon="5.81947">
        <ele>1239.843</ele>
        <time>2022-03-22T10:13:43Z</time>
      </trkpt>
      <trkpt lat="44.37449" lon="5.81948">
        <ele>1240.143</ele>
        <time>2022-03-22T10:13:44Z</time>
      </trkpt>
      <trkpt lat="44.37449" lon="5.81949">
        <ele>1240.343</ele>
        <time>2022-03-22T10:13:45Z</time>
      </trkpt>
      <trkpt lat="44.37449" lon="5.81951">
        <ele>1240.643</ele>
        <time>2022-03-22T10:13:46Z</time>
      </trkpt>
      <trkpt lat="44.37449" lon="5.81952">
        <ele>1240.743</ele>
        <time>2022-03-22T10:13:47Z</time>
      </trkpt>
      <trkpt lat="44.37449" lon="5.81954">
        <ele>1240.943</ele>
        <time>2022-03-22T10:13:48Z</time>
      </trkpt>
      <trkpt lat="44.37448" lon="5.81955">
        <ele>1240.843</ele>
        <time>2022-03-22T10:13:49Z</time>
      </trkpt>
      <trkpt lat="44.37448" lon="5.81957">
        <ele>1241.143</ele>
        <time>2022-03-22T10:13:50Z</time>
      </trkpt>
      <trkpt lat="44.37448" lon="5.81959">
        <ele>1241.143</ele>
        <time>2022-03-22T10:13:52Z</time>
      </trkpt>
      <trkpt lat="44.37448" lon="5.81961">
        <ele>1241.043</ele>
        <time>2022-03-22T10:13:53Z</time>
      </trkpt>
      <trkpt lat="44.37447" lon="5.81963">
        <ele>1241.143</ele>
        <time>2022-03-22T10:13:54Z</time>
      </trkpt>
      <trkpt lat="44.37447" lon="5.81965">
        <ele>1241.443</ele>
        <time>2022-03-22T10:13:56Z</time>
      </trkpt>
      <trkpt lat="44.37447" lon="5.81966">
        <ele>1241.543</ele>
        <time>2022-03-22T10:13:57Z</time>
      </trkpt>
      <trkpt lat="44.37446" lon="5.81967">
        <ele>1241.443</ele>
        <time>2022-03-22T10:13:58Z</time>
      </trkpt>
      <trkpt lat="44.37446" lon="5.81969">
        <ele>1241.543</ele>
        <time>2022-03-22T10:14:00Z</time>
      </trkpt>
      <trkpt lat="44.37445" lon="5.81971">
        <ele>1242.043</ele>
        <time>2022-03-22T10:14:02Z</time>
      </trkpt>
      <trkpt lat="44.37445" lon="5.81973">
        <ele>1242.443</ele>
        <time>2022-03-22T10:14:04Z</time>
      </trkpt>
      <trkpt lat="44.37444" lon="5.81975">
        <ele>1242.443</ele>
        <time>2022-03-22T10:14:06Z</time>
      </trkpt>
      <trkpt lat="44.37443" lon="5.81977">
        <ele>1242.643</ele>
        <time>2022-03-22T10:14:08Z</time>
      </trkpt>
      <trkpt lat="44.37442" lon="5.81978">
        <ele>1242.643</ele>
        <time>2022-03-22T10:14:10Z</time>
      </trkpt>
      <trkpt lat="44.37442" lon="5.81979">
        <ele>1242.743</ele>
        <time>2022-03-22T10:14:13Z</time>
      </trkpt>
      <trkpt lat="44.37442" lon="5.81979">
        <ele>1242.843</ele>
        <time>2022-03-22T10:14:14Z</time>
      </trkpt>
      <trkpt lat="44.37441" lon="5.81979">
        <ele>1243.143</ele>
        <time>2022-03-22T10:15:30Z</time>
      </trkpt>
      <trkpt lat="44.37441" lon="5.81981">
        <ele>1244.343</ele>
        <time>2022-03-22T10:15:31Z</time>
      </trkpt>
      <trkpt lat="44.37441" lon="5.81984">
        <ele>1244.543</ele>
        <time>2022-03-22T10:15:33Z</time>
      </trkpt>
      <trkpt lat="44.37441" lon="5.81985">
        <ele>1244.543</ele>
        <time>2022-03-22T10:15:34Z</time>
      </trkpt>
      <trkpt lat="44.37441" lon="5.81987">
        <ele>1244.543</ele>
        <time>2022-03-22T10:15:35Z</time>
      </trkpt>
      <trkpt lat="44.37441" lon="5.81988">
        <ele>1244.443</ele>
        <time>2022-03-22T10:15:36Z</time>
      </trkpt>
      <trkpt lat="44.37441" lon="5.8199">
        <ele>1244.143</ele>
        <time>2022-03-22T10:15:37Z</time>
      </trkpt>
      <trkpt lat="44.37442" lon="5.81991">
        <ele>1243.943</ele>
        <time>2022-03-22T10:15:38Z</time>
      </trkpt>
      <trkpt lat="44.37442" lon="5.81992">
        <ele>1243.943</ele>
        <time>2022-03-22T10:15:39Z</time>
      </trkpt>
      <trkpt lat="44.37442" lon="5.81994">
        <ele>1243.643</ele>
        <time>2022-03-22T10:15:40Z</time>
      </trkpt>
      <trkpt lat="44.37442" lon="5.81996">
        <ele>1243.543</ele>
        <time>2022-03-22T10:15:41Z</time>
      </trkpt>
      <trkpt lat="44.37441" lon="5.81997">
        <ele>1243.443</ele>
        <time>2022-03-22T10:15:42Z</time>
      </trkpt>
      <trkpt lat="44.37441" lon="5.81998">
        <ele>1243.443</ele>
        <time>2022-03-22T10:15:43Z</time>
      </trkpt>
      <trkpt lat="44.37441" lon="5.82">
        <ele>1243.543</ele>
        <time>2022-03-22T10:15:44Z</time>
      </trkpt>
      <trkpt lat="44.37441" lon="5.82001">
        <ele>1243.643</ele>
        <time>2022-03-22T10:15:45Z</time>
      </trkpt>
      <trkpt lat="44.3744" lon="5.82003">
        <ele>1243.643</ele>
        <time>2022-03-22T10:15:46Z</time>
      </trkpt>
      <trkpt lat="44.3744" lon="5.82004">
        <ele>1243.543</ele>
        <time>2022-03-22T10:15:47Z</time>
      </trkpt>
      <trkpt lat="44.3744" lon="5.82007">
        <ele>1243.543</ele>
        <time>2022-03-22T10:15:49Z</time>
      </trkpt>
      <trkpt lat="44.3744" lon="5.82008">
        <ele>1243.443</ele>
        <time>2022-03-22T10:15:50Z</time>
      </trkpt>
      <trkpt lat="44.3744" lon="5.82009">
        <ele>1243.243</ele>
        <time>2022-03-22T10:15:51Z</time>
      </trkpt>
      <trkpt lat="44.37439" lon="5.82011">
        <ele>1242.943</ele>
        <time>2022-03-22T10:15:52Z</time>
      </trkpt>
      <trkpt lat="44.37439" lon="5.82013">
        <ele>1242.943</ele>
        <time>2022-03-22T10:15:54Z</time>
      </trkpt>
      <trkpt lat="44.37439" lon="5.82014">
        <ele>1242.843</ele>
        <time>2022-03-22T10:15:55Z</time>
      </trkpt>
      <trkpt lat="44.37439" lon="5.82015">
        <ele>1242.743</ele>
        <time>2022-03-22T10:15:56Z</time>
      </trkpt>
      <trkpt lat="44.37439" lon="5.82017">
        <ele>1242.543</ele>
        <time>2022-03-22T10:15:57Z</time>
      </trkpt>
      <trkpt lat="44.37438" lon="5.82019">
        <ele>1242.643</ele>
        <time>2022-03-22T10:15:59Z</time>
      </trkpt>
      <trkpt lat="44.37438" lon="5.82021">
        <ele>1242.743</ele>
        <time>2022-03-22T10:16:00Z</time>
      </trkpt>
      <trkpt lat="44.37438" lon="5.82022">
        <ele>1242.943</ele>
        <time>2022-03-22T10:16:01Z</time>
      </trkpt>
      <trkpt lat="44.37438" lon="5.82025">
        <ele>1243.043</ele>
        <time>2022-03-22T10:16:03Z</time>
      </trkpt>
      <trkpt lat="44.37438" lon="5.82026">
        <ele>1243.043</ele>
        <time>2022-03-22T10:16:04Z</time>
      </trkpt>
      <trkpt lat="44.37438" lon="5.82029">
        <ele>1243.343</ele>
        <time>2022-03-22T10:16:06Z</time>
      </trkpt>
      <trkpt lat="44.37438" lon="5.8203">
        <ele>1243.443</ele>
        <time>2022-03-22T10:16:08Z</time>
      </trkpt>
      <trkpt lat="44.37439" lon="5.82032">
        <ele>1243.443</ele>
        <time>2022-03-22T10:16:10Z</time>
      </trkpt>
      <trkpt lat="44.37439" lon="5.82034">
        <ele>1243.143</ele>
        <time>2022-03-22T10:16:12Z</time>
      </trkpt>
      <trkpt lat="44.37439" lon="5.82035">
        <ele>1242.843</ele>
        <time>2022-03-22T10:16:14Z</time>
      </trkpt>
      <trkpt lat="44.37439" lon="5.82037">
        <ele>1242.143</ele>
        <time>2022-03-22T10:16:17Z</time>
      </trkpt>
      <trkpt lat="44.37439" lon="5.82039">
        <ele>1241.943</ele>
        <time>2022-03-22T10:16:18Z</time>
      </trkpt>
      <trkpt lat="44.37439" lon="5.8204">
        <ele>1241.743</ele>
        <time>2022-03-22T10:16:19Z</time>
      </trkpt>
      <trkpt lat="44.37439" lon="5.82041">
        <ele>1241.643</ele>
        <time>2022-03-22T10:16:20Z</time>
      </trkpt>
      <trkpt lat="44.37438" lon="5.82044">
        <ele>1241.543</ele>
        <time>2022-03-22T10:16:22Z</time>
      </trkpt>
      <trkpt lat="44.37439" lon="5.82046">
        <ele>1241.443</ele>
        <time>2022-03-22T10:16:23Z</time>
      </trkpt>
      <trkpt lat="44.37439" lon="5.82047">
        <ele>1241.342</ele>
        <time>2022-03-22T10:16:24Z</time>
      </trkpt>
      <trkpt lat="44.37438" lon="5.82049">
        <ele>1241.342</ele>
        <time>2022-03-22T10:16:25Z</time>
      </trkpt>
      <trkpt lat="44.37438" lon="5.8205">
        <ele>1241.242</ele>
        <time>2022-03-22T10:16:26Z</time>
      </trkpt>
      <trkpt lat="44.37438" lon="5.82052">
        <ele>1241.042</ele>
        <time>2022-03-22T10:16:27Z</time>
      </trkpt>
      <trkpt lat="44.37438" lon="5.82053">
        <ele>1241.042</ele>
        <time>2022-03-22T10:16:28Z</time>
      </trkpt>
      <trkpt lat="44.37438" lon="5.82054">
        <ele>1241.042</ele>
        <time>2022-03-22T10:16:29Z</time>
      </trkpt>
      <trkpt lat="44.37438" lon="5.82056">
        <ele>1240.542</ele>
        <time>2022-03-22T10:16:31Z</time>
      </trkpt>
      <trkpt lat="44.37439" lon="5.82058">
        <ele>1239.942</ele>
        <time>2022-03-22T10:16:33Z</time>
      </trkpt>
      <trkpt lat="44.37438" lon="5.82061">
        <ele>1239.642</ele>
        <time>2022-03-22T10:16:35Z</time>
      </trkpt>
      <trkpt lat="44.37438" lon="5.82062">
        <ele>1239.342</ele>
        <time>2022-03-22T10:16:36Z</time>
      </trkpt>
      <trkpt lat="44.37438" lon="5.82063">
        <ele>1239.042</ele>
        <time>2022-03-22T10:16:37Z</time>
      </trkpt>
      <trkpt lat="44.37438" lon="5.82066">
        <ele>1238.942</ele>
        <time>2022-03-22T10:16:39Z</time>
      </trkpt>
      <trkpt lat="44.37439" lon="5.82068">
        <ele>1238.942</ele>
        <time>2022-03-22T10:16:41Z</time>
      </trkpt>
      <trkpt lat="44.37439" lon="5.8207">
        <ele>1238.842</ele>
        <time>2022-03-22T10:16:43Z</time>
      </trkpt>
      <trkpt lat="44.37439" lon="5.82072">
        <ele>1238.642</ele>
        <time>2022-03-22T10:16:45Z</time>
      </trkpt>
      <trkpt lat="44.37439" lon="5.82074">
        <ele>1238.142</ele>
        <time>2022-03-22T10:16:47Z</time>
      </trkpt>
      <trkpt lat="44.37439" lon="5.82076">
        <ele>1237.842</ele>
        <time>2022-03-22T10:16:48Z</time>
      </trkpt>
      <trkpt lat="44.37439" lon="5.82077">
        <ele>1237.642</ele>
        <time>2022-03-22T10:16:49Z</time>
      </trkpt>
      <trkpt lat="44.37439" lon="5.8208">
        <ele>1237.242</ele>
        <time>2022-03-22T10:16:51Z</time>
      </trkpt>
      <trkpt lat="44.37439" lon="5.82081">
        <ele>1237.142</ele>
        <time>2022-03-22T10:16:52Z</time>
      </trkpt>
      <trkpt lat="44.37439" lon="5.82083">
        <ele>1237.042</ele>
        <time>2022-03-22T10:16:53Z</time>
      </trkpt>
      <trkpt lat="44.37439" lon="5.82085">
        <ele>1236.842</ele>
        <time>2022-03-22T10:16:54Z</time>
      </trkpt>
      <trkpt lat="44.37439" lon="5.82087">
        <ele>1236.742</ele>
        <time>2022-03-22T10:16:55Z</time>
      </trkpt>
      <trkpt lat="44.37439" lon="5.82089">
        <ele>1236.642</ele>
        <time>2022-03-22T10:16:56Z</time>
      </trkpt>
      <trkpt lat="44.37439" lon="5.8209">
        <ele>1236.542</ele>
        <time>2022-03-22T10:16:57Z</time>
      </trkpt>
      <trkpt lat="44.37439" lon="5.82092">
        <ele>1236.742</ele>
        <time>2022-03-22T10:16:58Z</time>
      </trkpt>
      <trkpt lat="44.37439" lon="5.82094">
        <ele>1237.042</ele>
        <time>2022-03-22T10:16:59Z</time>
      </trkpt>
      <trkpt lat="44.37439" lon="5.82095">
        <ele>1237.442</ele>
        <time>2022-03-22T10:17:00Z</time>
      </trkpt>
      <trkpt lat="44.37438" lon="5.82097">
        <ele>1237.642</ele>
        <time>2022-03-22T10:17:01Z</time>
      </trkpt>
      <trkpt lat="44.37438" lon="5.82098">
        <ele>1237.642</ele>
        <time>2022-03-22T10:17:02Z</time>
      </trkpt>
      <trkpt lat="44.37438" lon="5.821">
        <ele>1237.842</ele>
        <time>2022-03-22T10:17:03Z</time>
      </trkpt>
      <trkpt lat="44.37438" lon="5.82102">
        <ele>1238.442</ele>
        <time>2022-03-22T10:17:05Z</time>
      </trkpt>
      <trkpt lat="44.37439" lon="5.82104">
        <ele>1238.242</ele>
        <time>2022-03-22T10:17:07Z</time>
      </trkpt>
      <trkpt lat="44.37438" lon="5.82106">
        <ele>1238.042</ele>
        <time>2022-03-22T10:17:08Z</time>
      </trkpt>
      <trkpt lat="44.37439" lon="5.82107">
        <ele>1238.042</ele>
        <time>2022-03-22T10:17:09Z</time>
      </trkpt>
      <trkpt lat="44.37438" lon="5.82108">
        <ele>1237.942</ele>
        <time>2022-03-22T10:17:10Z</time>
      </trkpt>
      <trkpt lat="44.37438" lon="5.8211">
        <ele>1237.942</ele>
        <time>2022-03-22T10:17:11Z</time>
      </trkpt>
      <trkpt lat="44.37438" lon="5.82112">
        <ele>1238.142</ele>
        <time>2022-03-22T10:17:12Z</time>
      </trkpt>
      <trkpt lat="44.37438" lon="5.82114">
        <ele>1238.342</ele>
        <time>2022-03-22T10:17:14Z</time>
      </trkpt>
      <trkpt lat="44.37438" lon="5.82116">
        <ele>1238.442</ele>
        <time>2022-03-22T10:17:16Z</time>
      </trkpt>
      <trkpt lat="44.37438" lon="5.82118">
        <ele>1238.142</ele>
        <time>2022-03-22T10:17:18Z</time>
      </trkpt>
      <trkpt lat="44.37438" lon="5.8212">
        <ele>1238.142</ele>
        <time>2022-03-22T10:17:19Z</time>
      </trkpt>
      <trkpt lat="44.37438" lon="5.82121">
        <ele>1238.142</ele>
        <time>2022-03-22T10:17:20Z</time>
      </trkpt>
      <trkpt lat="44.37437" lon="5.82122">
        <ele>1238.342</ele>
        <time>2022-03-22T10:17:21Z</time>
      </trkpt>
      <trkpt lat="44.37437" lon="5.82124">
        <ele>1238.342</ele>
        <time>2022-03-22T10:17:22Z</time>
      </trkpt>
      <trkpt lat="44.37437" lon="5.82126">
        <ele>1238.542</ele>
        <time>2022-03-22T10:17:24Z</time>
      </trkpt>
      <trkpt lat="44.37437" lon="5.82128">
        <ele>1238.842</ele>
        <time>2022-03-22T10:17:26Z</time>
      </trkpt>
      <trkpt lat="44.37437" lon="5.8213">
        <ele>1238.842</ele>
        <time>2022-03-22T10:17:27Z</time>
      </trkpt>
      <trkpt lat="44.37436" lon="5.82132">
        <ele>1238.942</ele>
        <time>2022-03-22T10:17:29Z</time>
      </trkpt>
      <trkpt lat="44.37436" lon="5.82134">
        <ele>1239.242</ele>
        <time>2022-03-22T10:17:31Z</time>
      </trkpt>
      <trkpt lat="44.37435" lon="5.82135">
        <ele>1239.442</ele>
        <time>2022-03-22T10:17:32Z</time>
      </trkpt>
      <trkpt lat="44.37435" lon="5.82137">
        <ele>1240.042</ele>
        <time>2022-03-22T10:17:34Z</time>
      </trkpt>
      <trkpt lat="44.37434" lon="5.82139">
        <ele>1240.242</ele>
        <time>2022-03-22T10:17:35Z</time>
      </trkpt>
      <trkpt lat="44.37434" lon="5.8214">
        <ele>1240.242</ele>
        <time>2022-03-22T10:17:36Z</time>
      </trkpt>
      <trkpt lat="44.37433" lon="5.82141">
        <ele>1240.442</ele>
        <time>2022-03-22T10:17:37Z</time>
      </trkpt>
      <trkpt lat="44.37433" lon="5.82142">
        <ele>1240.542</ele>
        <time>2022-03-22T10:17:38Z</time>
      </trkpt>
      <trkpt lat="44.37433" lon="5.82144">
        <ele>1240.542</ele>
        <time>2022-03-22T10:17:39Z</time>
      </trkpt>
      <trkpt lat="44.37433" lon="5.82145">
        <ele>1240.742</ele>
        <time>2022-03-22T10:17:40Z</time>
      </trkpt>
      <trkpt lat="44.37432" lon="5.82148">
        <ele>1240.842</ele>
        <time>2022-03-22T10:17:42Z</time>
      </trkpt>
      <trkpt lat="44.37432" lon="5.82151">
        <ele>1241.042</ele>
        <time>2022-03-22T10:17:44Z</time>
      </trkpt>
      <trkpt lat="44.37432" lon="5.82152">
        <ele>1241.042</ele>
        <time>2022-03-22T10:17:45Z</time>
      </trkpt>
      <trkpt lat="44.37432" lon="5.82154">
        <ele>1240.942</ele>
        <time>2022-03-22T10:17:47Z</time>
      </trkpt>
      <trkpt lat="44.37433" lon="5.82155">
        <ele>1240.842</ele>
        <time>2022-03-22T10:17:50Z</time>
      </trkpt>
      <trkpt lat="44.37433" lon="5.82157">
        <ele>1240.442</ele>
        <time>2022-03-22T10:17:52Z</time>
      </trkpt>
      <trkpt lat="44.37432" lon="5.82159">
        <ele>1240.342</ele>
        <time>2022-03-22T10:17:53Z</time>
      </trkpt>
      <trkpt lat="44.37432" lon="5.82161">
        <ele>1240.142</ele>
        <time>2022-03-22T10:17:54Z</time>
      </trkpt>
      <trkpt lat="44.37432" lon="5.82163">
        <ele>1240.342</ele>
        <time>2022-03-22T10:17:56Z</time>
      </trkpt>
      <trkpt lat="44.37432" lon="5.82165">
        <ele>1240.941</ele>
        <time>2022-03-22T10:17:58Z</time>
      </trkpt>
      <trkpt lat="44.37432" lon="5.82168">
        <ele>1241.141</ele>
        <time>2022-03-22T10:18:00Z</time>
      </trkpt>
      <trkpt lat="44.37432" lon="5.82169">
        <ele>1241.041</ele>
        <time>2022-03-22T10:18:01Z</time>
      </trkpt>
      <trkpt lat="44.37432" lon="5.8217">
        <ele>1241.341</ele>
        <time>2022-03-22T10:18:02Z</time>
      </trkpt>
      <trkpt lat="44.37433" lon="5.82171">
        <ele>1241.441</ele>
        <time>2022-03-22T10:18:03Z</time>
      </trkpt>
      <trkpt lat="44.37433" lon="5.82173">
        <ele>1241.641</ele>
        <time>2022-03-22T10:18:04Z</time>
      </trkpt>
      <trkpt lat="44.37433" lon="5.82174">
        <ele>1242.041</ele>
        <time>2022-03-22T10:18:05Z</time>
      </trkpt>
      <trkpt lat="44.37433" lon="5.82177">
        <ele>1242.341</ele>
        <time>2022-03-22T10:18:07Z</time>
      </trkpt>
      <trkpt lat="44.37433" lon="5.82179">
        <ele>1242.641</ele>
        <time>2022-03-22T10:18:09Z</time>
      </trkpt>
      <trkpt lat="44.37433" lon="5.82181">
        <ele>1242.941</ele>
        <time>2022-03-22T10:18:10Z</time>
      </trkpt>
      <trkpt lat="44.37432" lon="5.82183">
        <ele>1243.341</ele>
        <time>2022-03-22T10:18:12Z</time>
      </trkpt>
      <trkpt lat="44.37432" lon="5.82184">
        <ele>1243.641</ele>
        <time>2022-03-22T10:18:13Z</time>
      </trkpt>
      <trkpt lat="44.37431" lon="5.82186">
        <ele>1244.141</ele>
        <time>2022-03-22T10:18:15Z</time>
      </trkpt>
      <trkpt lat="44.37431" lon="5.82187">
        <ele>1244.141</ele>
        <time>2022-03-22T10:18:16Z</time>
      </trkpt>
      <trkpt lat="44.37432" lon="5.82189">
        <ele>1244.341</ele>
        <time>2022-03-22T10:18:18Z</time>
      </trkpt>
      <trkpt lat="44.37432" lon="5.82192">
        <ele>1244.441</ele>
        <time>2022-03-22T10:18:20Z</time>
      </trkpt>
      <trkpt lat="44.37432" lon="5.82193">
        <ele>1244.541</ele>
        <time>2022-03-22T10:18:21Z</time>
      </trkpt>
      <trkpt lat="44.37433" lon="5.82194">
        <ele>1244.541</ele>
        <time>2022-03-22T10:18:22Z</time>
      </trkpt>
      <trkpt lat="44.37433" lon="5.82197">
        <ele>1244.641</ele>
        <time>2022-03-22T10:18:24Z</time>
      </trkpt>
      <trkpt lat="44.37432" lon="5.82199">
        <ele>1244.441</ele>
        <time>2022-03-22T10:18:26Z</time>
      </trkpt>
      <trkpt lat="44.37432" lon="5.82201">
        <ele>1244.241</ele>
        <time>2022-03-22T10:18:28Z</time>
      </trkpt>
      <trkpt lat="44.37431" lon="5.82203">
        <ele>1244.541</ele>
        <time>2022-03-22T10:18:30Z</time>
      </trkpt>
      <trkpt lat="44.3743" lon="5.82204">
        <ele>1244.841</ele>
        <time>2022-03-22T10:18:32Z</time>
      </trkpt>
      <trkpt lat="44.3743" lon="5.82205">
        <ele>1245.241</ele>
        <time>2022-03-22T10:18:34Z</time>
      </trkpt>
      <trkpt lat="44.37429" lon="5.82207">
        <ele>1245.541</ele>
        <time>2022-03-22T10:18:36Z</time>
      </trkpt>
      <trkpt lat="44.37428" lon="5.82209">
        <ele>1245.541</ele>
        <time>2022-03-22T10:18:38Z</time>
      </trkpt>
      <trkpt lat="44.37427" lon="5.8221">
        <ele>1245.741</ele>
        <time>2022-03-22T10:18:40Z</time>
      </trkpt>
      <trkpt lat="44.37427" lon="5.82212">
        <ele>1245.841</ele>
        <time>2022-03-22T10:18:42Z</time>
      </trkpt>
      <trkpt lat="44.37428" lon="5.82214">
        <ele>1245.741</ele>
        <time>2022-03-22T10:18:44Z</time>
      </trkpt>
      <trkpt lat="44.37428" lon="5.82216">
        <ele>1246.341</ele>
        <time>2022-03-22T10:18:46Z</time>
      </trkpt>
      <trkpt lat="44.37428" lon="5.82219">
        <ele>1246.341</ele>
        <time>2022-03-22T10:18:48Z</time>
      </trkpt>
      <trkpt lat="44.37428" lon="5.8222">
        <ele>1246.341</ele>
        <time>2022-03-22T10:18:49Z</time>
      </trkpt>
      <trkpt lat="44.37428" lon="5.82222">
        <ele>1246.541</ele>
        <time>2022-03-22T10:18:50Z</time>
      </trkpt>
      <trkpt lat="44.37428" lon="5.82224">
        <ele>1246.641</ele>
        <time>2022-03-22T10:18:51Z</time>
      </trkpt>
      <trkpt lat="44.37428" lon="5.82225">
        <ele>1246.441</ele>
        <time>2022-03-22T10:18:52Z</time>
      </trkpt>
      <trkpt lat="44.37428" lon="5.82227">
        <ele>1246.341</ele>
        <time>2022-03-22T10:18:53Z</time>
      </trkpt>
      <trkpt lat="44.37427" lon="5.82229">
        <ele>1245.841</ele>
        <time>2022-03-22T10:18:55Z</time>
      </trkpt>
      <trkpt lat="44.37427" lon="5.82231">
        <ele>1245.641</ele>
        <time>2022-03-22T10:18:56Z</time>
      </trkpt>
      <trkpt lat="44.37428" lon="5.82232">
        <ele>1245.541</ele>
        <time>2022-03-22T10:18:57Z</time>
      </trkpt>
      <trkpt lat="44.37428" lon="5.82234">
        <ele>1244.941</ele>
        <time>2022-03-22T10:18:59Z</time>
      </trkpt>
      <trkpt lat="44.37428" lon="5.82236">
        <ele>1244.741</ele>
        <time>2022-03-22T10:19:00Z</time>
      </trkpt>
      <trkpt lat="44.37428" lon="5.82238">
        <ele>1244.641</ele>
        <time>2022-03-22T10:19:01Z</time>
      </trkpt>
      <trkpt lat="44.37428" lon="5.8224">
        <ele>1244.441</ele>
        <time>2022-03-22T10:19:02Z</time>
      </trkpt>
      <trkpt lat="44.37428" lon="5.82241">
        <ele>1244.441</ele>
        <time>2022-03-22T10:19:03Z</time>
      </trkpt>
      <trkpt lat="44.37428" lon="5.82243">
        <ele>1244.541</ele>
        <time>2022-03-22T10:19:04Z</time>
      </trkpt>
      <trkpt lat="44.37428" lon="5.82245">
        <ele>1244.741</ele>
        <time>2022-03-22T10:19:06Z</time>
      </trkpt>
      <trkpt lat="44.37428" lon="5.82247">
        <ele>1244.841</ele>
        <time>2022-03-22T10:19:07Z</time>
      </trkpt>
      <trkpt lat="44.37427" lon="5.82249">
        <ele>1244.841</ele>
        <time>2022-03-22T10:19:09Z</time>
      </trkpt>
      <trkpt lat="44.37426" lon="5.82251">
        <ele>1245.441</ele>
        <time>2022-03-22T10:19:11Z</time>
      </trkpt>
      <trkpt lat="44.37425" lon="5.82252">
        <ele>1245.341</ele>
        <time>2022-03-22T10:19:13Z</time>
      </trkpt>
      <trkpt lat="44.37425" lon="5.82254">
        <ele>1245.341</ele>
        <time>2022-03-22T10:19:15Z</time>
      </trkpt>
      <trkpt lat="44.37425" lon="5.82255">
        <ele>1245.341</ele>
        <time>2022-03-22T10:19:16Z</time>
      </trkpt>
      <trkpt lat="44.37424" lon="5.82256">
        <ele>1245.341</ele>
        <time>2022-03-22T10:19:17Z</time>
      </trkpt>
      <trkpt lat="44.37424" lon="5.82259">
        <ele>1245.441</ele>
        <time>2022-03-22T10:19:19Z</time>
      </trkpt>
      <trkpt lat="44.37424" lon="5.8226">
        <ele>1245.441</ele>
        <time>2022-03-22T10:19:20Z</time>
      </trkpt>
      <trkpt lat="44.37424" lon="5.82261">
        <ele>1245.441</ele>
        <time>2022-03-22T10:19:21Z</time>
      </trkpt>
      <trkpt lat="44.37423" lon="5.82263">
        <ele>1245.341</ele>
        <time>2022-03-22T10:19:22Z</time>
      </trkpt>
      <trkpt lat="44.37422" lon="5.82265">
        <ele>1245.641</ele>
        <time>2022-03-22T10:19:24Z</time>
      </trkpt>
      <trkpt lat="44.37422" lon="5.82268">
        <ele>1246.041</ele>
        <time>2022-03-22T10:19:26Z</time>
      </trkpt>
      <trkpt lat="44.37421" lon="5.8227">
        <ele>1246.441</ele>
        <time>2022-03-22T10:19:28Z</time>
      </trkpt>
      <trkpt lat="44.37421" lon="5.82271">
        <ele>1246.441</ele>
        <time>2022-03-22T10:19:29Z</time>
      </trkpt>
      <trkpt lat="44.3742" lon="5.82273">
        <ele>1246.541</ele>
        <time>2022-03-22T10:19:31Z</time>
      </trkpt>
      <trkpt lat="44.3742" lon="5.82275">
        <ele>1246.741</ele>
        <time>2022-03-22T10:19:32Z</time>
      </trkpt>
      <trkpt lat="44.37419" lon="5.82276">
        <ele>1246.641</ele>
        <time>2022-03-22T10:19:34Z</time>
      </trkpt>
      <trkpt lat="44.37418" lon="5.82279">
        <ele>1246.741</ele>
        <time>2022-03-22T10:19:36Z</time>
      </trkpt>
      <trkpt lat="44.37418" lon="5.8228">
        <ele>1247.041</ele>
        <time>2022-03-22T10:19:37Z</time>
      </trkpt>
      <trkpt lat="44.37418" lon="5.82281">
        <ele>1247.241</ele>
        <time>2022-03-22T10:19:38Z</time>
      </trkpt>
      <trkpt lat="44.37417" lon="5.82283">
        <ele>1247.641</ele>
        <time>2022-03-22T10:19:40Z</time>
      </trkpt>
      <trkpt lat="44.37417" lon="5.82285">
        <ele>1248.041</ele>
        <time>2022-03-22T10:19:42Z</time>
      </trkpt>
      <trkpt lat="44.37416" lon="5.82287">
        <ele>1248.441</ele>
        <time>2022-03-22T10:19:44Z</time>
      </trkpt>
      <trkpt lat="44.37415" lon="5.82288">
        <ele>1248.741</ele>
        <time>2022-03-22T10:19:46Z</time>
      </trkpt>
      <trkpt lat="44.37415" lon="5.82289">
        <ele>1249.041</ele>
        <time>2022-03-22T10:19:48Z</time>
      </trkpt>
      <trkpt lat="44.37414" lon="5.8229">
        <ele>1249.141</ele>
        <time>2022-03-22T10:19:49Z</time>
      </trkpt>
      <trkpt lat="44.37413" lon="5.82293">
        <ele>1248.941</ele>
        <time>2022-03-22T10:19:51Z</time>
      </trkpt>
      <trkpt lat="44.37413" lon="5.82294">
        <ele>1249.141</ele>
        <time>2022-03-22T10:19:52Z</time>
      </trkpt>
      <trkpt lat="44.37412" lon="5.82296">
        <ele>1249.141</ele>
        <time>2022-03-22T10:19:53Z</time>
      </trkpt>
      <trkpt lat="44.37412" lon="5.82297">
        <ele>1249.141</ele>
        <time>2022-03-22T10:19:54Z</time>
      </trkpt>
      <trkpt lat="44.37412" lon="5.82298">
        <ele>1249.141</ele>
        <time>2022-03-22T10:19:55Z</time>
      </trkpt>
      <trkpt lat="44.37411" lon="5.823">
        <ele>1249.441</ele>
        <time>2022-03-22T10:19:56Z</time>
      </trkpt>
      <trkpt lat="44.37411" lon="5.82301">
        <ele>1249.841</ele>
        <time>2022-03-22T10:19:57Z</time>
      </trkpt>
      <trkpt lat="44.37411" lon="5.82303">
        <ele>1250.141</ele>
        <time>2022-03-22T10:19:58Z</time>
      </trkpt>
      <trkpt lat="44.37411" lon="5.82305">
        <ele>1250.241</ele>
        <time>2022-03-22T10:19:59Z</time>
      </trkpt>
      <trkpt lat="44.3741" lon="5.82306">
        <ele>1250.541</ele>
        <time>2022-03-22T10:20:00Z</time>
      </trkpt>
      <trkpt lat="44.3741" lon="5.82307">
        <ele>1250.441</ele>
        <time>2022-03-22T10:20:01Z</time>
      </trkpt>
      <trkpt lat="44.3741" lon="5.82309">
        <ele>1250.441</ele>
        <time>2022-03-22T10:20:02Z</time>
      </trkpt>
      <trkpt lat="44.3741" lon="5.8231">
        <ele>1250.341</ele>
        <time>2022-03-22T10:20:04Z</time>
      </trkpt>
      <trkpt lat="44.3741" lon="5.82312">
        <ele>1250.141</ele>
        <time>2022-03-22T10:20:05Z</time>
      </trkpt>
      <trkpt lat="44.37409" lon="5.82313">
        <ele>1250.041</ele>
        <time>2022-03-22T10:20:06Z</time>
      </trkpt>
      <trkpt lat="44.37409" lon="5.82315">
        <ele>1250.341</ele>
        <time>2022-03-22T10:20:08Z</time>
      </trkpt>
      <trkpt lat="44.37409" lon="5.82317">
        <ele>1250.341</ele>
        <time>2022-03-22T10:20:09Z</time>
      </trkpt>
      <trkpt lat="44.37408" lon="5.82319">
        <ele>1250.541</ele>
        <time>2022-03-22T10:20:11Z</time>
      </trkpt>
      <trkpt lat="44.37408" lon="5.82321">
        <ele>1251.041</ele>
        <time>2022-03-22T10:20:13Z</time>
      </trkpt>
      <trkpt lat="44.37407" lon="5.82323">
        <ele>1251.541</ele>
        <time>2022-03-22T10:20:15Z</time>
      </trkpt>
      <trkpt lat="44.37407" lon="5.82325">
        <ele>1251.941</ele>
        <time>2022-03-22T10:20:17Z</time>
      </trkpt>
      <trkpt lat="44.37407" lon="5.82327">
        <ele>1252.441</ele>
        <time>2022-03-22T10:20:19Z</time>
      </trkpt>
      <trkpt lat="44.37407" lon="5.82328">
        <ele>1252.441</ele>
        <time>2022-03-22T10:20:20Z</time>
      </trkpt>
      <trkpt lat="44.37406" lon="5.82331">
        <ele>1251.941</ele>
        <time>2022-03-22T10:20:22Z</time>
      </trkpt>
      <trkpt lat="44.37406" lon="5.82332">
        <ele>1252.041</ele>
        <time>2022-03-22T10:20:23Z</time>
      </trkpt>
      <trkpt lat="44.37406" lon="5.82334">
        <ele>1252.14</ele>
        <time>2022-03-22T10:20:24Z</time>
      </trkpt>
      <trkpt lat="44.37405" lon="5.82335">
        <ele>1252.541</ele>
        <time>2022-03-22T10:20:26Z</time>
      </trkpt>
      <trkpt lat="44.37404" lon="5.82336">
        <ele>1252.741</ele>
        <time>2022-03-22T10:20:28Z</time>
      </trkpt>
      <trkpt lat="44.37404" lon="5.82337">
        <ele>1252.541</ele>
        <time>2022-03-22T10:20:30Z</time>
      </trkpt>
      <trkpt lat="44.37403" lon="5.8234">
        <ele>1252.341</ele>
        <time>2022-03-22T10:20:32Z</time>
      </trkpt>
      <trkpt lat="44.37403" lon="5.82342">
        <ele>1252.54</ele>
        <time>2022-03-22T10:20:34Z</time>
      </trkpt>
      <trkpt lat="44.37403" lon="5.82343">
        <ele>1252.44</ele>
        <time>2022-03-22T10:20:35Z</time>
      </trkpt>
      <trkpt lat="44.37402" lon="5.82345">
        <ele>1252.24</ele>
        <time>2022-03-22T10:20:37Z</time>
      </trkpt>
      <trkpt lat="44.37402" lon="5.82347">
        <ele>1252.14</ele>
        <time>2022-03-22T10:20:38Z</time>
      </trkpt>
      <trkpt lat="44.37401" lon="5.82348">
        <ele>1251.84</ele>
        <time>2022-03-22T10:20:39Z</time>
      </trkpt>
      <trkpt lat="44.37401" lon="5.82349">
        <ele>1251.44</ele>
        <time>2022-03-22T10:20:40Z</time>
      </trkpt>
      <trkpt lat="44.37401" lon="5.82351">
        <ele>1250.94</ele>
        <time>2022-03-22T10:20:41Z</time>
      </trkpt>
      <trkpt lat="44.37401" lon="5.82353">
        <ele>1250.64</ele>
        <time>2022-03-22T10:20:42Z</time>
      </trkpt>
      <trkpt lat="44.374" lon="5.82355">
        <ele>1250.54</ele>
        <time>2022-03-22T10:20:43Z</time>
      </trkpt>
      <trkpt lat="44.374" lon="5.82356">
        <ele>1250.34</ele>
        <time>2022-03-22T10:20:44Z</time>
      </trkpt>
      <trkpt lat="44.374" lon="5.82358">
        <ele>1250.64</ele>
        <time>2022-03-22T10:20:46Z</time>
      </trkpt>
      <trkpt lat="44.37399" lon="5.82361">
        <ele>1250.94</ele>
        <time>2022-03-22T10:20:48Z</time>
      </trkpt>
      <trkpt lat="44.37398" lon="5.82362">
        <ele>1251.04</ele>
        <time>2022-03-22T10:20:49Z</time>
      </trkpt>
      <trkpt lat="44.37398" lon="5.82363">
        <ele>1250.94</ele>
        <time>2022-03-22T10:20:50Z</time>
      </trkpt>
      <trkpt lat="44.37397" lon="5.82364">
        <ele>1250.84</ele>
        <time>2022-03-22T10:20:51Z</time>
      </trkpt>
      <trkpt lat="44.37397" lon="5.82366">
        <ele>1250.84</ele>
        <time>2022-03-22T10:20:52Z</time>
      </trkpt>
      <trkpt lat="44.37396" lon="5.82367">
        <ele>1250.84</ele>
        <time>2022-03-22T10:20:53Z</time>
      </trkpt>
      <trkpt lat="44.37396" lon="5.82368">
        <ele>1250.84</ele>
        <time>2022-03-22T10:20:54Z</time>
      </trkpt>
      <trkpt lat="44.37396" lon="5.8237">
        <ele>1250.74</ele>
        <time>2022-03-22T10:20:55Z</time>
      </trkpt>
      <trkpt lat="44.37395" lon="5.82371">
        <ele>1250.94</ele>
        <time>2022-03-22T10:20:56Z</time>
      </trkpt>
      <trkpt lat="44.37395" lon="5.82373">
        <ele>1251.24</ele>
        <time>2022-03-22T10:20:58Z</time>
      </trkpt>
      <trkpt lat="44.37395" lon="5.82375">
        <ele>1251.74</ele>
        <time>2022-03-22T10:21:00Z</time>
      </trkpt>
      <trkpt lat="44.37395" lon="5.82378">
        <ele>1252.34</ele>
        <time>2022-03-22T10:21:02Z</time>
      </trkpt>
      <trkpt lat="44.37394" lon="5.8238">
        <ele>1252.74</ele>
        <time>2022-03-22T10:21:04Z</time>
      </trkpt>
      <trkpt lat="44.37394" lon="5.82383">
        <ele>1253.04</ele>
        <time>2022-03-22T10:21:06Z</time>
      </trkpt>
      <trkpt lat="44.37394" lon="5.82384">
        <ele>1253.44</ele>
        <time>2022-03-22T10:21:07Z</time>
      </trkpt>
      <trkpt lat="44.37393" lon="5.82387">
        <ele>1253.44</ele>
        <time>2022-03-22T10:21:09Z</time>
      </trkpt>
      <trkpt lat="44.37393" lon="5.82388">
        <ele>1253.44</ele>
        <time>2022-03-22T10:21:10Z</time>
      </trkpt>
      <trkpt lat="44.37392" lon="5.82389">
        <ele>1253.54</ele>
        <time>2022-03-22T10:21:12Z</time>
      </trkpt>
      <trkpt lat="44.37392" lon="5.82391">
        <ele>1253.54</ele>
        <time>2022-03-22T10:21:13Z</time>
      </trkpt>
      <trkpt lat="44.37392" lon="5.82393">
        <ele>1253.94</ele>
        <time>2022-03-22T10:21:15Z</time>
      </trkpt>
      <trkpt lat="44.37391" lon="5.82396">
        <ele>1254.04</ele>
        <time>2022-03-22T10:21:17Z</time>
      </trkpt>
      <trkpt lat="44.37391" lon="5.82398">
        <ele>1254.14</ele>
        <time>2022-03-22T10:21:19Z</time>
      </trkpt>
      <trkpt lat="44.3739" lon="5.824">
        <ele>1254.34</ele>
        <time>2022-03-22T10:21:21Z</time>
      </trkpt>
      <trkpt lat="44.3739" lon="5.82402">
        <ele>1254.64</ele>
        <time>2022-03-22T10:21:23Z</time>
      </trkpt>
      <trkpt lat="44.3739" lon="5.82404">
        <ele>1254.84</ele>
        <time>2022-03-22T10:21:24Z</time>
      </trkpt>
      <trkpt lat="44.3739" lon="5.82405">
        <ele>1255.24</ele>
        <time>2022-03-22T10:21:25Z</time>
      </trkpt>
      <trkpt lat="44.3739" lon="5.82407">
        <ele>1255.34</ele>
        <time>2022-03-22T10:21:26Z</time>
      </trkpt>
      <trkpt lat="44.3739" lon="5.82409">
        <ele>1255.44</ele>
        <time>2022-03-22T10:21:27Z</time>
      </trkpt>
      <trkpt lat="44.37389" lon="5.8241">
        <ele>1255.34</ele>
        <time>2022-03-22T10:21:28Z</time>
      </trkpt>
      <trkpt lat="44.3739" lon="5.82412">
        <ele>1255.04</ele>
        <time>2022-03-22T10:21:29Z</time>
      </trkpt>
      <trkpt lat="44.3739" lon="5.82413">
        <ele>1254.84</ele>
        <time>2022-03-22T10:21:30Z</time>
      </trkpt>
      <trkpt lat="44.3739" lon="5.82415">
        <ele>1254.64</ele>
        <time>2022-03-22T10:21:31Z</time>
      </trkpt>
      <trkpt lat="44.3739" lon="5.82416">
        <ele>1254.44</ele>
        <time>2022-03-22T10:21:32Z</time>
      </trkpt>
      <trkpt lat="44.3739" lon="5.82419">
        <ele>1254.44</ele>
        <time>2022-03-22T10:21:34Z</time>
      </trkpt>
      <trkpt lat="44.3739" lon="5.8242">
        <ele>1254.44</ele>
        <time>2022-03-22T10:21:35Z</time>
      </trkpt>
      <trkpt lat="44.3739" lon="5.82421">
        <ele>1254.64</ele>
        <time>2022-03-22T10:21:36Z</time>
      </trkpt>
      <trkpt lat="44.3739" lon="5.82423">
        <ele>1254.64</ele>
        <time>2022-03-22T10:21:37Z</time>
      </trkpt>
      <trkpt lat="44.3739" lon="5.82424">
        <ele>1254.64</ele>
        <time>2022-03-22T10:21:38Z</time>
      </trkpt>
      <trkpt lat="44.3739" lon="5.82426">
        <ele>1254.74</ele>
        <time>2022-03-22T10:21:40Z</time>
      </trkpt>
      <trkpt lat="44.3739" lon="5.82427">
        <ele>1254.64</ele>
        <time>2022-03-22T10:21:41Z</time>
      </trkpt>
      <trkpt lat="44.3739" lon="5.82429">
        <ele>1254.84</ele>
        <time>2022-03-22T10:21:43Z</time>
      </trkpt>
      <trkpt lat="44.37389" lon="5.82432">
        <ele>1254.74</ele>
        <time>2022-03-22T10:21:45Z</time>
      </trkpt>
      <trkpt lat="44.37389" lon="5.82434">
        <ele>1255.04</ele>
        <time>2022-03-22T10:21:47Z</time>
      </trkpt>
      <trkpt lat="44.37389" lon="5.82436">
        <ele>1255.24</ele>
        <time>2022-03-22T10:21:49Z</time>
      </trkpt>
      <trkpt lat="44.37388" lon="5.82438">
        <ele>1255.54</ele>
        <time>2022-03-22T10:21:51Z</time>
      </trkpt>
      <trkpt lat="44.37387" lon="5.8244">
        <ele>1255.84</ele>
        <time>2022-03-22T10:21:53Z</time>
      </trkpt>
      <trkpt lat="44.37387" lon="5.82441">
        <ele>1256.04</ele>
        <time>2022-03-22T10:21:54Z</time>
      </trkpt>
      <trkpt lat="44.37387" lon="5.82443">
        <ele>1256.04</ele>
        <time>2022-03-22T10:21:55Z</time>
      </trkpt>
      <trkpt lat="44.37386" lon="5.82444">
        <ele>1256.14</ele>
        <time>2022-03-22T10:21:56Z</time>
      </trkpt>
      <trkpt lat="44.37386" lon="5.82446">
        <ele>1256.44</ele>
        <time>2022-03-22T10:21:58Z</time>
      </trkpt>
      <trkpt lat="44.37386" lon="5.82448">
        <ele>1256.34</ele>
        <time>2022-03-22T10:21:59Z</time>
      </trkpt>
      <trkpt lat="44.37386" lon="5.82449">
        <ele>1256.54</ele>
        <time>2022-03-22T10:22:00Z</time>
      </trkpt>
      <trkpt lat="44.37385" lon="5.82451">
        <ele>1256.74</ele>
        <time>2022-03-22T10:22:02Z</time>
      </trkpt>
      <trkpt lat="44.37385" lon="5.82452">
        <ele>1257.54</ele>
        <time>2022-03-22T10:22:04Z</time>
      </trkpt>
      <trkpt lat="44.37384" lon="5.82454">
        <ele>1258.44</ele>
        <time>2022-03-22T10:22:06Z</time>
      </trkpt>
      <trkpt lat="44.37384" lon="5.82455">
        <ele>1259.14</ele>
        <time>2022-03-22T10:22:08Z</time>
      </trkpt>
      <trkpt lat="44.37383" lon="5.82457">
        <ele>1259.24</ele>
        <time>2022-03-22T10:22:10Z</time>
      </trkpt>
      <trkpt lat="44.37382" lon="5.82459">
        <ele>1259.34</ele>
        <time>2022-03-22T10:22:12Z</time>
      </trkpt>
      <trkpt lat="44.37382" lon="5.82461">
        <ele>1259.34</ele>
        <time>2022-03-22T10:22:14Z</time>
      </trkpt>
      <trkpt lat="44.37382" lon="5.82462">
        <ele>1259.14</ele>
        <time>2022-03-22T10:22:15Z</time>
      </trkpt>
      <trkpt lat="44.37382" lon="5.82464">
        <ele>1259.44</ele>
        <time>2022-03-22T10:22:16Z</time>
      </trkpt>
      <trkpt lat="44.37383" lon="5.82466">
        <ele>1259.54</ele>
        <time>2022-03-22T10:22:18Z</time>
      </trkpt>
      <trkpt lat="44.37382" lon="5.82468">
        <ele>1259.54</ele>
        <time>2022-03-22T10:22:20Z</time>
      </trkpt>
      <trkpt lat="44.37382" lon="5.8247">
        <ele>1259.54</ele>
        <time>2022-03-22T10:22:22Z</time>
      </trkpt>
      <trkpt lat="44.37383" lon="5.82472">
        <ele>1259.64</ele>
        <time>2022-03-22T10:22:23Z</time>
      </trkpt>
      <trkpt lat="44.37383" lon="5.82474">
        <ele>1259.14</ele>
        <time>2022-03-22T10:22:25Z</time>
      </trkpt>
      <trkpt lat="44.37382" lon="5.82476">
        <ele>1258.94</ele>
        <time>2022-03-22T10:22:26Z</time>
      </trkpt>
      <trkpt lat="44.37382" lon="5.82478">
        <ele>1258.24</ele>
        <time>2022-03-22T10:22:28Z</time>
      </trkpt>
      <trkpt lat="44.37383" lon="5.8248">
        <ele>1257.64</ele>
        <time>2022-03-22T10:22:30Z</time>
      </trkpt>
      <trkpt lat="44.37383" lon="5.82482">
        <ele>1257.24</ele>
        <time>2022-03-22T10:22:32Z</time>
      </trkpt>
      <trkpt lat="44.37383" lon="5.82484">
        <ele>1256.34</ele>
        <time>2022-03-22T10:22:34Z</time>
      </trkpt>
      <trkpt lat="44.37383" lon="5.82487">
        <ele>1255.74</ele>
        <time>2022-03-22T10:22:36Z</time>
      </trkpt>
      <trkpt lat="44.37384" lon="5.82488">
        <ele>1255.64</ele>
        <time>2022-03-22T10:22:37Z</time>
      </trkpt>
      <trkpt lat="44.37383" lon="5.8249">
        <ele>1255.34</ele>
        <time>2022-03-22T10:22:38Z</time>
      </trkpt>
      <trkpt lat="44.37383" lon="5.82491">
        <ele>1255.24</ele>
        <time>2022-03-22T10:22:39Z</time>
      </trkpt>
      <trkpt lat="44.37383" lon="5.82493">
        <ele>1255.24</ele>
        <time>2022-03-22T10:22:40Z</time>
      </trkpt>
      <trkpt lat="44.37383" lon="5.82495">
        <ele>1255.139</ele>
        <time>2022-03-22T10:22:41Z</time>
      </trkpt>
      <trkpt lat="44.37383" lon="5.82497">
        <ele>1255.039</ele>
        <time>2022-03-22T10:22:42Z</time>
      </trkpt>
      <trkpt lat="44.37383" lon="5.82499">
        <ele>1254.939</ele>
        <time>2022-03-22T10:22:43Z</time>
      </trkpt>
      <trkpt lat="44.37382" lon="5.825">
        <ele>1254.939</ele>
        <time>2022-03-22T10:22:44Z</time>
      </trkpt>
      <trkpt lat="44.37382" lon="5.82502">
        <ele>1255.139</ele>
        <time>2022-03-22T10:22:46Z</time>
      </trkpt>
      <trkpt lat="44.37382" lon="5.82504">
        <ele>1255.139</ele>
        <time>2022-03-22T10:22:47Z</time>
      </trkpt>
      <trkpt lat="44.37382" lon="5.82506">
        <ele>1255.039</ele>
        <time>2022-03-22T10:22:49Z</time>
      </trkpt>
      <trkpt lat="44.37381" lon="5.82508">
        <ele>1255.139</ele>
        <time>2022-03-22T10:22:50Z</time>
      </trkpt>
      <trkpt lat="44.37381" lon="5.82509">
        <ele>1255.239</ele>
        <time>2022-03-22T10:22:51Z</time>
      </trkpt>
      <trkpt lat="44.37381" lon="5.8251">
        <ele>1254.939</ele>
        <time>2022-03-22T10:22:52Z</time>
      </trkpt>
      <trkpt lat="44.37381" lon="5.82513">
        <ele>1254.839</ele>
        <time>2022-03-22T10:22:54Z</time>
      </trkpt>
      <trkpt lat="44.37381" lon="5.82515">
        <ele>1254.539</ele>
        <time>2022-03-22T10:22:56Z</time>
      </trkpt>
      <trkpt lat="44.37381" lon="5.82517">
        <ele>1254.539</ele>
        <time>2022-03-22T10:22:57Z</time>
      </trkpt>
      <trkpt lat="44.37382" lon="5.8252">
        <ele>1254.139</ele>
        <time>2022-03-22T10:22:59Z</time>
      </trkpt>
      <trkpt lat="44.37381" lon="5.82521">
        <ele>1253.639</ele>
        <time>2022-03-22T10:23:00Z</time>
      </trkpt>
      <trkpt lat="44.37381" lon="5.82522">
        <ele>1253.139</ele>
        <time>2022-03-22T10:23:01Z</time>
      </trkpt>
      <trkpt lat="44.37381" lon="5.82524">
        <ele>1253.039</ele>
        <time>2022-03-22T10:23:02Z</time>
      </trkpt>
      <trkpt lat="44.3738" lon="5.82526">
        <ele>1252.639</ele>
        <time>2022-03-22T10:23:04Z</time>
      </trkpt>
      <trkpt lat="44.3738" lon="5.82528">
        <ele>1252.539</ele>
        <time>2022-03-22T10:23:05Z</time>
      </trkpt>
      <trkpt lat="44.3738" lon="5.82529">
        <ele>1252.539</ele>
        <time>2022-03-22T10:23:06Z</time>
      </trkpt>
      <trkpt lat="44.37379" lon="5.82531">
        <ele>1252.539</ele>
        <time>2022-03-22T10:23:07Z</time>
      </trkpt>
      <trkpt lat="44.37379" lon="5.82532">
        <ele>1252.639</ele>
        <time>2022-03-22T10:23:08Z</time>
      </trkpt>
      <trkpt lat="44.37379" lon="5.82534">
        <ele>1252.639</ele>
        <time>2022-03-22T10:23:09Z</time>
      </trkpt>
      <trkpt lat="44.37379" lon="5.82536">
        <ele>1252.339</ele>
        <time>2022-03-22T10:23:11Z</time>
      </trkpt>
      <trkpt lat="44.37379" lon="5.82538">
        <ele>1252.039</ele>
        <time>2022-03-22T10:23:13Z</time>
      </trkpt>
      <trkpt lat="44.37379" lon="5.8254">
        <ele>1252.139</ele>
        <time>2022-03-22T10:23:15Z</time>
      </trkpt>
      <trkpt lat="44.37379" lon="5.82542">
        <ele>1251.939</ele>
        <time>2022-03-22T10:23:16Z</time>
      </trkpt>
      <trkpt lat="44.3738" lon="5.82543">
        <ele>1252.039</ele>
        <time>2022-03-22T10:23:17Z</time>
      </trkpt>
      <trkpt lat="44.3738" lon="5.82545">
        <ele>1252.039</ele>
        <time>2022-03-22T10:23:18Z</time>
      </trkpt>
      <trkpt lat="44.3738" lon="5.82546">
        <ele>1252.139</ele>
        <time>2022-03-22T10:23:19Z</time>
      </trkpt>
      <trkpt lat="44.3738" lon="5.82549">
        <ele>1252.239</ele>
        <time>2022-03-22T10:23:21Z</time>
      </trkpt>
      <trkpt lat="44.3738" lon="5.82551">
        <ele>1252.039</ele>
        <time>2022-03-22T10:23:23Z</time>
      </trkpt>
      <trkpt lat="44.3738" lon="5.82553">
        <ele>1252.139</ele>
        <time>2022-03-22T10:23:24Z</time>
      </trkpt>
      <trkpt lat="44.37379" lon="5.82555">
        <ele>1252.639</ele>
        <time>2022-03-22T10:23:26Z</time>
      </trkpt>
      <trkpt lat="44.37379" lon="5.82558">
        <ele>1253.239</ele>
        <time>2022-03-22T10:23:28Z</time>
      </trkpt>
      <trkpt lat="44.37378" lon="5.82559">
        <ele>1253.339</ele>
        <time>2022-03-22T10:23:29Z</time>
      </trkpt>
      <trkpt lat="44.37378" lon="5.8256">
        <ele>1253.339</ele>
        <time>2022-03-22T10:23:30Z</time>
      </trkpt>
      <trkpt lat="44.37377" lon="5.82561">
        <ele>1253.539</ele>
        <time>2022-03-22T10:23:31Z</time>
      </trkpt>
      <trkpt lat="44.37377" lon="5.82563">
        <ele>1253.539</ele>
        <time>2022-03-22T10:23:32Z</time>
      </trkpt>
      <trkpt lat="44.37377" lon="5.82565">
        <ele>1253.639</ele>
        <time>2022-03-22T10:23:34Z</time>
      </trkpt>
      <trkpt lat="44.37377" lon="5.82568">
        <ele>1254.039</ele>
        <time>2022-03-22T10:23:36Z</time>
      </trkpt>
      <trkpt lat="44.37377" lon="5.82569">
        <ele>1253.939</ele>
        <time>2022-03-22T10:23:37Z</time>
      </trkpt>
      <trkpt lat="44.37377" lon="5.82571">
        <ele>1253.939</ele>
        <time>2022-03-22T10:23:38Z</time>
      </trkpt>
      <trkpt lat="44.37378" lon="5.82572">
        <ele>1253.839</ele>
        <time>2022-03-22T10:23:39Z</time>
      </trkpt>
      <trkpt lat="44.37378" lon="5.82574">
        <ele>1253.339</ele>
        <time>2022-03-22T10:23:41Z</time>
      </trkpt>
      <trkpt lat="44.37378" lon="5.82575">
        <ele>1253.239</ele>
        <time>2022-03-22T10:23:42Z</time>
      </trkpt>
      <trkpt lat="44.37377" lon="5.82577">
        <ele>1252.839</ele>
        <time>2022-03-22T10:23:44Z</time>
      </trkpt>
      <trkpt lat="44.37377" lon="5.8258">
        <ele>1252.739</ele>
        <time>2022-03-22T10:23:46Z</time>
      </trkpt>
      <trkpt lat="44.37377" lon="5.82582">
        <ele>1252.339</ele>
        <time>2022-03-22T10:23:48Z</time>
      </trkpt>
      <trkpt lat="44.37377" lon="5.82584">
        <ele>1252.139</ele>
        <time>2022-03-22T10:23:50Z</time>
      </trkpt>
      <trkpt lat="44.37377" lon="5.82586">
        <ele>1252.139</ele>
        <time>2022-03-22T10:23:51Z</time>
      </trkpt>
      <trkpt lat="44.37377" lon="5.82587">
        <ele>1252.139</ele>
        <time>2022-03-22T10:23:52Z</time>
      </trkpt>
      <trkpt lat="44.37377" lon="5.82588">
        <ele>1252.139</ele>
        <time>2022-03-22T10:23:53Z</time>
      </trkpt>
      <trkpt lat="44.37377" lon="5.8259">
        <ele>1252.039</ele>
        <time>2022-03-22T10:23:54Z</time>
      </trkpt>
      <trkpt lat="44.37378" lon="5.82591">
        <ele>1251.839</ele>
        <time>2022-03-22T10:23:55Z</time>
      </trkpt>
      <trkpt lat="44.37378" lon="5.82593">
        <ele>1251.739</ele>
        <time>2022-03-22T10:23:56Z</time>
      </trkpt>
      <trkpt lat="44.37379" lon="5.82594">
        <ele>1251.239</ele>
        <time>2022-03-22T10:23:57Z</time>
      </trkpt>
      <trkpt lat="44.37379" lon="5.82595">
        <ele>1251.139</ele>
        <time>2022-03-22T10:23:58Z</time>
      </trkpt>
      <trkpt lat="44.37379" lon="5.82597">
        <ele>1250.939</ele>
        <time>2022-03-22T10:23:59Z</time>
      </trkpt>
      <trkpt lat="44.37379" lon="5.82598">
        <ele>1250.839</ele>
        <time>2022-03-22T10:24:00Z</time>
      </trkpt>
      <trkpt lat="44.37379" lon="5.826">
        <ele>1250.739</ele>
        <time>2022-03-22T10:24:01Z</time>
      </trkpt>
      <trkpt lat="44.37379" lon="5.82601">
        <ele>1250.439</ele>
        <time>2022-03-22T10:24:02Z</time>
      </trkpt>
      <trkpt lat="44.37379" lon="5.82602">
        <ele>1250.339</ele>
        <time>2022-03-22T10:24:03Z</time>
      </trkpt>
      <trkpt lat="44.37379" lon="5.82604">
        <ele>1250.539</ele>
        <time>2022-03-22T10:24:04Z</time>
      </trkpt>
      <trkpt lat="44.37379" lon="5.82606">
        <ele>1250.239</ele>
        <time>2022-03-22T10:24:05Z</time>
      </trkpt>
      <trkpt lat="44.37379" lon="5.82608">
        <ele>1250.238</ele>
        <time>2022-03-22T10:24:06Z</time>
      </trkpt>
      <trkpt lat="44.37379" lon="5.82609">
        <ele>1250.238</ele>
        <time>2022-03-22T10:24:07Z</time>
      </trkpt>
      <trkpt lat="44.37379" lon="5.82611">
        <ele>1250.438</ele>
        <time>2022-03-22T10:24:08Z</time>
      </trkpt>
      <trkpt lat="44.37379" lon="5.82613">
        <ele>1250.438</ele>
        <time>2022-03-22T10:24:09Z</time>
      </trkpt>
      <trkpt lat="44.37379" lon="5.82614">
        <ele>1250.538</ele>
        <time>2022-03-22T10:24:10Z</time>
      </trkpt>
      <trkpt lat="44.37379" lon="5.82616">
        <ele>1250.438</ele>
        <time>2022-03-22T10:24:11Z</time>
      </trkpt>
      <trkpt lat="44.37379" lon="5.82618">
        <ele>1250.438</ele>
        <time>2022-03-22T10:24:12Z</time>
      </trkpt>
      <trkpt lat="44.37378" lon="5.8262">
        <ele>1250.438</ele>
        <time>2022-03-22T10:24:13Z</time>
      </trkpt>
      <trkpt lat="44.37378" lon="5.82622">
        <ele>1250.538</ele>
        <time>2022-03-22T10:24:14Z</time>
      </trkpt>
      <trkpt lat="44.37378" lon="5.82624">
        <ele>1250.538</ele>
        <time>2022-03-22T10:24:15Z</time>
      </trkpt>
      <trkpt lat="44.37377" lon="5.82625">
        <ele>1250.638</ele>
        <time>2022-03-22T10:24:16Z</time>
      </trkpt>
      <trkpt lat="44.37377" lon="5.82627">
        <ele>1251.438</ele>
        <time>2022-03-22T10:24:18Z</time>
      </trkpt>
      <trkpt lat="44.37377" lon="5.82628">
        <ele>1251.538</ele>
        <time>2022-03-22T10:24:19Z</time>
      </trkpt>
      <trkpt lat="44.37377" lon="5.8263">
        <ele>1251.838</ele>
        <time>2022-03-22T10:24:20Z</time>
      </trkpt>
      <trkpt lat="44.37377" lon="5.82632">
        <ele>1251.938</ele>
        <time>2022-03-22T10:24:22Z</time>
      </trkpt>
      <trkpt lat="44.37377" lon="5.82634">
        <ele>1252.338</ele>
        <time>2022-03-22T10:24:24Z</time>
      </trkpt>
      <trkpt lat="44.37377" lon="5.82635">
        <ele>1252.738</ele>
        <time>2022-03-22T10:24:25Z</time>
      </trkpt>
      <trkpt lat="44.37377" lon="5.82638">
        <ele>1252.938</ele>
        <time>2022-03-22T10:24:27Z</time>
      </trkpt>
      <trkpt lat="44.37377" lon="5.8264">
        <ele>1253.638</ele>
        <time>2022-03-22T10:24:29Z</time>
      </trkpt>
      <trkpt lat="44.37377" lon="5.82641">
        <ele>1253.738</ele>
        <time>2022-03-22T10:24:30Z</time>
      </trkpt>
      <trkpt lat="44.37377" lon="5.82644">
        <ele>1254.038</ele>
        <time>2022-03-22T10:24:32Z</time>
      </trkpt>
      <trkpt lat="44.37377" lon="5.82645">
        <ele>1254.338</ele>
        <time>2022-03-22T10:24:34Z</time>
      </trkpt>
      <trkpt lat="44.37377" lon="5.82647">
        <ele>1254.738</ele>
        <time>2022-03-22T10:24:36Z</time>
      </trkpt>
      <trkpt lat="44.37376" lon="5.82648">
        <ele>1255.338</ele>
        <time>2022-03-22T10:24:38Z</time>
      </trkpt>
      <trkpt lat="44.37376" lon="5.8265">
        <ele>1255.338</ele>
        <time>2022-03-22T10:24:40Z</time>
      </trkpt>
      <trkpt lat="44.37376" lon="5.82651">
        <ele>1255.838</ele>
        <time>2022-03-22T10:24:42Z</time>
      </trkpt>
      <trkpt lat="44.37375" lon="5.82653">
        <ele>1256.038</ele>
        <time>2022-03-22T10:24:44Z</time>
      </trkpt>
      <trkpt lat="44.37375" lon="5.82654">
        <ele>1256.338</ele>
        <time>2022-03-22T10:24:47Z</time>
      </trkpt>
      <trkpt lat="44.37375" lon="5.82656">
        <ele>1256.338</ele>
        <time>2022-03-22T10:24:49Z</time>
      </trkpt>
      <trkpt lat="44.37374" lon="5.82657">
        <ele>1256.338</ele>
        <time>2022-03-22T10:24:51Z</time>
      </trkpt>
      <trkpt lat="44.37374" lon="5.82659">
        <ele>1256.538</ele>
        <time>2022-03-22T10:24:53Z</time>
      </trkpt>
      <trkpt lat="44.37374" lon="5.82661">
        <ele>1256.438</ele>
        <time>2022-03-22T10:24:55Z</time>
      </trkpt>
      <trkpt lat="44.37373" lon="5.82662">
        <ele>1256.238</ele>
        <time>2022-03-22T10:24:57Z</time>
      </trkpt>
      <trkpt lat="44.37373" lon="5.82665">
        <ele>1256.238</ele>
        <time>2022-03-22T10:24:59Z</time>
      </trkpt>
      <trkpt lat="44.37373" lon="5.82666">
        <ele>1256.238</ele>
        <time>2022-03-22T10:25:00Z</time>
      </trkpt>
      <trkpt lat="44.37373" lon="5.82668">
        <ele>1256.338</ele>
        <time>2022-03-22T10:25:02Z</time>
      </trkpt>
      <trkpt lat="44.37372" lon="5.8267">
        <ele>1256.338</ele>
        <time>2022-03-22T10:25:04Z</time>
      </trkpt>
      <trkpt lat="44.37372" lon="5.82672">
        <ele>1256.538</ele>
        <time>2022-03-22T10:25:06Z</time>
      </trkpt>
      <trkpt lat="44.37372" lon="5.82674">
        <ele>1256.638</ele>
        <time>2022-03-22T10:25:08Z</time>
      </trkpt>
      <trkpt lat="44.37372" lon="5.82676">
        <ele>1256.838</ele>
        <time>2022-03-22T10:25:10Z</time>
      </trkpt>
      <trkpt lat="44.37371" lon="5.82678">
        <ele>1257.138</ele>
        <time>2022-03-22T10:25:12Z</time>
      </trkpt>
      <trkpt lat="44.37371" lon="5.8268">
        <ele>1257.238</ele>
        <time>2022-03-22T10:25:14Z</time>
      </trkpt>
      <trkpt lat="44.37371" lon="5.82682">
        <ele>1257.538</ele>
        <time>2022-03-22T10:25:16Z</time>
      </trkpt>
      <trkpt lat="44.37371" lon="5.82684">
        <ele>1257.738</ele>
        <time>2022-03-22T10:25:18Z</time>
      </trkpt>
      <trkpt lat="44.37371" lon="5.82686">
        <ele>1258.038</ele>
        <time>2022-03-22T10:25:20Z</time>
      </trkpt>
      <trkpt lat="44.37371" lon="5.82688">
        <ele>1258.238</ele>
        <time>2022-03-22T10:25:22Z</time>
      </trkpt>
      <trkpt lat="44.37372" lon="5.8269">
        <ele>1258.538</ele>
        <time>2022-03-22T10:25:24Z</time>
      </trkpt>
      <trkpt lat="44.37372" lon="5.82692">
        <ele>1258.638</ele>
        <time>2022-03-22T10:25:26Z</time>
      </trkpt>
      <trkpt lat="44.37372" lon="5.82694">
        <ele>1258.538</ele>
        <time>2022-03-22T10:25:28Z</time>
      </trkpt>
      <trkpt lat="44.37372" lon="5.82697">
        <ele>1258.638</ele>
        <time>2022-03-22T10:25:30Z</time>
      </trkpt>
      <trkpt lat="44.37372" lon="5.82698">
        <ele>1258.538</ele>
        <time>2022-03-22T10:25:31Z</time>
      </trkpt>
      <trkpt lat="44.37372" lon="5.827">
        <ele>1258.538</ele>
        <time>2022-03-22T10:25:32Z</time>
      </trkpt>
      <trkpt lat="44.37372" lon="5.82702">
        <ele>1258.538</ele>
        <time>2022-03-22T10:25:34Z</time>
      </trkpt>
      <trkpt lat="44.37372" lon="5.82704">
        <ele>1258.438</ele>
        <time>2022-03-22T10:25:35Z</time>
      </trkpt>
      <trkpt lat="44.37372" lon="5.82705">
        <ele>1258.538</ele>
        <time>2022-03-22T10:25:36Z</time>
      </trkpt>
      <trkpt lat="44.37372" lon="5.82707">
        <ele>1258.638</ele>
        <time>2022-03-22T10:25:37Z</time>
      </trkpt>
      <trkpt lat="44.37373" lon="5.8271">
        <ele>1258.638</ele>
        <time>2022-03-22T10:25:39Z</time>
      </trkpt>
      <trkpt lat="44.37373" lon="5.82711">
        <ele>1258.838</ele>
        <time>2022-03-22T10:25:40Z</time>
      </trkpt>
      <trkpt lat="44.37373" lon="5.82712">
        <ele>1259.238</ele>
        <time>2022-03-22T10:25:41Z</time>
      </trkpt>
      <trkpt lat="44.37373" lon="5.82715">
        <ele>1259.638</ele>
        <time>2022-03-22T10:25:43Z</time>
      </trkpt>
      <trkpt lat="44.37374" lon="5.82716">
        <ele>1259.738</ele>
        <time>2022-03-22T10:25:44Z</time>
      </trkpt>
      <trkpt lat="44.37374" lon="5.82718">
        <ele>1259.838</ele>
        <time>2022-03-22T10:25:45Z</time>
      </trkpt>
      <trkpt lat="44.37374" lon="5.82719">
        <ele>1259.638</ele>
        <time>2022-03-22T10:25:46Z</time>
      </trkpt>
      <trkpt lat="44.37374" lon="5.8272">
        <ele>1259.538</ele>
        <time>2022-03-22T10:25:48Z</time>
      </trkpt>
      <trkpt lat="44.37375" lon="5.82721">
        <ele>1259.437</ele>
        <time>2022-03-22T10:25:50Z</time>
      </trkpt>
      <trkpt lat="44.37375" lon="5.82723">
        <ele>1259.337</ele>
        <time>2022-03-22T10:25:52Z</time>
      </trkpt>
      <trkpt lat="44.37376" lon="5.82725">
        <ele>1258.937</ele>
        <time>2022-03-22T10:25:54Z</time>
      </trkpt>
      <trkpt lat="44.37376" lon="5.82726">
        <ele>1258.937</ele>
        <time>2022-03-22T10:25:55Z</time>
      </trkpt>
      <trkpt lat="44.37376" lon="5.82729">
        <ele>1258.537</ele>
        <time>2022-03-22T10:25:57Z</time>
      </trkpt>
      <trkpt lat="44.37376" lon="5.8273">
        <ele>1258.337</ele>
        <time>2022-03-22T10:25:58Z</time>
      </trkpt>
      <trkpt lat="44.37376" lon="5.82731">
        <ele>1258.337</ele>
        <time>2022-03-22T10:25:59Z</time>
      </trkpt>
      <trkpt lat="44.37375" lon="5.82734">
        <ele>1258.537</ele>
        <time>2022-03-22T10:26:01Z</time>
      </trkpt>
      <trkpt lat="44.37375" lon="5.82736">
        <ele>1258.937</ele>
        <time>2022-03-22T10:26:03Z</time>
      </trkpt>
      <trkpt lat="44.37375" lon="5.82739">
        <ele>1259.137</ele>
        <time>2022-03-22T10:26:05Z</time>
      </trkpt>
      <trkpt lat="44.37375" lon="5.8274">
        <ele>1259.337</ele>
        <time>2022-03-22T10:26:06Z</time>
      </trkpt>
      <trkpt lat="44.37375" lon="5.82742">
        <ele>1259.337</ele>
        <time>2022-03-22T10:26:07Z</time>
      </trkpt>
      <trkpt lat="44.37375" lon="5.82743">
        <ele>1259.337</ele>
        <time>2022-03-22T10:26:08Z</time>
      </trkpt>
      <trkpt lat="44.37375" lon="5.82746">
        <ele>1259.137</ele>
        <time>2022-03-22T10:26:10Z</time>
      </trkpt>
      <trkpt lat="44.37375" lon="5.82747">
        <ele>1258.937</ele>
        <time>2022-03-22T10:26:11Z</time>
      </trkpt>
      <trkpt lat="44.37375" lon="5.8275">
        <ele>1258.437</ele>
        <time>2022-03-22T10:26:13Z</time>
      </trkpt>
      <trkpt lat="44.37375" lon="5.82752">
        <ele>1258.337</ele>
        <time>2022-03-22T10:26:14Z</time>
      </trkpt>
      <trkpt lat="44.37375" lon="5.82753">
        <ele>1258.237</ele>
        <time>2022-03-22T10:26:15Z</time>
      </trkpt>
      <trkpt lat="44.37375" lon="5.82755">
        <ele>1258.037</ele>
        <time>2022-03-22T10:26:16Z</time>
      </trkpt>
      <trkpt lat="44.37375" lon="5.82756">
        <ele>1258.137</ele>
        <time>2022-03-22T10:26:17Z</time>
      </trkpt>
      <trkpt lat="44.37375" lon="5.82757">
        <ele>1258.237</ele>
        <time>2022-03-22T10:26:18Z</time>
      </trkpt>
      <trkpt lat="44.37375" lon="5.8276">
        <ele>1258.337</ele>
        <time>2022-03-22T10:26:20Z</time>
      </trkpt>
      <trkpt lat="44.37375" lon="5.82763">
        <ele>1258.637</ele>
        <time>2022-03-22T10:26:22Z</time>
      </trkpt>
      <trkpt lat="44.37375" lon="5.82765">
        <ele>1258.737</ele>
        <time>2022-03-22T10:26:23Z</time>
      </trkpt>
      <trkpt lat="44.37374" lon="5.82766">
        <ele>1259.237</ele>
        <time>2022-03-22T10:26:24Z</time>
      </trkpt>
      <trkpt lat="44.37374" lon="5.82767">
        <ele>1259.237</ele>
        <time>2022-03-22T10:26:25Z</time>
      </trkpt>
      <trkpt lat="44.37374" lon="5.82769">
        <ele>1259.237</ele>
        <time>2022-03-22T10:26:26Z</time>
      </trkpt>
      <trkpt lat="44.37373" lon="5.8277">
        <ele>1259.437</ele>
        <time>2022-03-22T10:26:27Z</time>
      </trkpt>
      <trkpt lat="44.37372" lon="5.82772">
        <ele>1259.637</ele>
        <time>2022-03-22T10:26:29Z</time>
      </trkpt>
      <trkpt lat="44.37372" lon="5.82774">
        <ele>1259.737</ele>
        <time>2022-03-22T10:26:31Z</time>
      </trkpt>
      <trkpt lat="44.37371" lon="5.82775">
        <ele>1259.537</ele>
        <time>2022-03-22T10:26:33Z</time>
      </trkpt>
      <trkpt lat="44.3737" lon="5.82777">
        <ele>1259.737</ele>
        <time>2022-03-22T10:26:35Z</time>
      </trkpt>
      <trkpt lat="44.3737" lon="5.82779">
        <ele>1259.937</ele>
        <time>2022-03-22T10:26:36Z</time>
      </trkpt>
      <trkpt lat="44.3737" lon="5.8278">
        <ele>1260.137</ele>
        <time>2022-03-22T10:26:37Z</time>
      </trkpt>
      <trkpt lat="44.37369" lon="5.82781">
        <ele>1260.337</ele>
        <time>2022-03-22T10:26:38Z</time>
      </trkpt>
      <trkpt lat="44.3737" lon="5.82783">
        <ele>1260.337</ele>
        <time>2022-03-22T10:26:40Z</time>
      </trkpt>
      <trkpt lat="44.3737" lon="5.82786">
        <ele>1260.337</ele>
        <time>2022-03-22T10:26:42Z</time>
      </trkpt>
      <trkpt lat="44.3737" lon="5.82788">
        <ele>1259.637</ele>
        <time>2022-03-22T10:26:44Z</time>
      </trkpt>
      <trkpt lat="44.3737" lon="5.8279">
        <ele>1258.737</ele>
        <time>2022-03-22T10:26:46Z</time>
      </trkpt>
      <trkpt lat="44.37371" lon="5.82791">
        <ele>1259.037</ele>
        <time>2022-03-22T10:26:51Z</time>
      </trkpt>
      <trkpt lat="44.37371" lon="5.82791">
        <ele>1259.037</ele>
        <time>2022-03-22T10:26:52Z</time>
      </trkpt>
      <trkpt lat="44.37371" lon="5.82791">
        <ele>1259.237</ele>
        <time>2022-03-22T10:26:53Z</time>
      </trkpt>
      <trkpt lat="44.3737" lon="5.82792">
        <ele>1259.237</ele>
        <time>2022-03-22T10:28:20Z</time>
      </trkpt>
      <trkpt lat="44.37371" lon="5.82794">
        <ele>1261.837</ele>
        <time>2022-03-22T10:28:21Z</time>
      </trkpt>
      <trkpt lat="44.37371" lon="5.82796">
        <ele>1261.237</ele>
        <time>2022-03-22T10:28:23Z</time>
      </trkpt>
      <trkpt lat="44.37371" lon="5.82797">
        <ele>1260.837</ele>
        <time>2022-03-22T10:28:25Z</time>
      </trkpt>
      <trkpt lat="44.37371" lon="5.828">
        <ele>1259.837</ele>
        <time>2022-03-22T10:28:27Z</time>
      </trkpt>
      <trkpt lat="44.37372" lon="5.82802">
        <ele>1259.337</ele>
        <time>2022-03-22T10:28:28Z</time>
      </trkpt>
      <trkpt lat="44.37372" lon="5.82804">
        <ele>1258.837</ele>
        <time>2022-03-22T10:28:29Z</time>
      </trkpt>
      <trkpt lat="44.37372" lon="5.82805">
        <ele>1258.137</ele>
        <time>2022-03-22T10:28:30Z</time>
      </trkpt>
      <trkpt lat="44.37372" lon="5.82807">
        <ele>1257.737</ele>
        <time>2022-03-22T10:28:31Z</time>
      </trkpt>
      <trkpt lat="44.37372" lon="5.82808">
        <ele>1257.337</ele>
        <time>2022-03-22T10:28:32Z</time>
      </trkpt>
      <trkpt lat="44.37372" lon="5.82809">
        <ele>1256.937</ele>
        <time>2022-03-22T10:28:33Z</time>
      </trkpt>
      <trkpt lat="44.37372" lon="5.82811">
        <ele>1256.737</ele>
        <time>2022-03-22T10:28:34Z</time>
      </trkpt>
      <trkpt lat="44.37372" lon="5.82812">
        <ele>1256.437</ele>
        <time>2022-03-22T10:28:35Z</time>
      </trkpt>
      <trkpt lat="44.37372" lon="5.82813">
        <ele>1256.037</ele>
        <time>2022-03-22T10:28:36Z</time>
      </trkpt>
      <trkpt lat="44.37373" lon="5.82815">
        <ele>1255.337</ele>
        <time>2022-03-22T10:28:38Z</time>
      </trkpt>
      <trkpt lat="44.37373" lon="5.82816">
        <ele>1255.037</ele>
        <time>2022-03-22T10:28:39Z</time>
      </trkpt>
      <trkpt lat="44.37373" lon="5.82818">
        <ele>1254.837</ele>
        <time>2022-03-22T10:28:40Z</time>
      </trkpt>
      <trkpt lat="44.37373" lon="5.82819">
        <ele>1255.037</ele>
        <time>2022-03-22T10:28:41Z</time>
      </trkpt>
      <trkpt lat="44.37374" lon="5.82821">
        <ele>1254.737</ele>
        <time>2022-03-22T10:28:42Z</time>
      </trkpt>
      <trkpt lat="44.37374" lon="5.82823">
        <ele>1254.637</ele>
        <time>2022-03-22T10:28:43Z</time>
      </trkpt>
      <trkpt lat="44.37373" lon="5.82825">
        <ele>1254.437</ele>
        <time>2022-03-22T10:28:44Z</time>
      </trkpt>
      <trkpt lat="44.37373" lon="5.82826">
        <ele>1254.336</ele>
        <time>2022-03-22T10:28:45Z</time>
      </trkpt>
      <trkpt lat="44.37373" lon="5.82828">
        <ele>1254.236</ele>
        <time>2022-03-22T10:28:46Z</time>
      </trkpt>
      <trkpt lat="44.37373" lon="5.82829">
        <ele>1254.236</ele>
        <time>2022-03-22T10:28:47Z</time>
      </trkpt>
      <trkpt lat="44.37373" lon="5.82831">
        <ele>1254.136</ele>
        <time>2022-03-22T10:28:48Z</time>
      </trkpt>
      <trkpt lat="44.37372" lon="5.82833">
        <ele>1253.736</ele>
        <time>2022-03-22T10:28:50Z</time>
      </trkpt>
      <trkpt lat="44.37372" lon="5.82835">
        <ele>1253.536</ele>
        <time>2022-03-22T10:28:51Z</time>
      </trkpt>
      <trkpt lat="44.37371" lon="5.82837">
        <ele>1253.536</ele>
        <time>2022-03-22T10:28:53Z</time>
      </trkpt>
      <trkpt lat="44.37371" lon="5.82838">
        <ele>1253.836</ele>
        <time>2022-03-22T10:28:54Z</time>
      </trkpt>
      <trkpt lat="44.37371" lon="5.82839">
        <ele>1253.836</ele>
        <time>2022-03-22T10:28:55Z</time>
      </trkpt>
      <trkpt lat="44.37371" lon="5.82841">
        <ele>1253.836</ele>
        <time>2022-03-22T10:28:56Z</time>
      </trkpt>
      <trkpt lat="44.3737" lon="5.82842">
        <ele>1253.836</ele>
        <time>2022-03-22T10:28:57Z</time>
      </trkpt>
      <trkpt lat="44.3737" lon="5.82844">
        <ele>1253.636</ele>
        <time>2022-03-22T10:28:58Z</time>
      </trkpt>
      <trkpt lat="44.3737" lon="5.82846">
        <ele>1253.736</ele>
        <time>2022-03-22T10:29:00Z</time>
      </trkpt>
      <trkpt lat="44.37369" lon="5.82847">
        <ele>1253.736</ele>
        <time>2022-03-22T10:29:01Z</time>
      </trkpt>
      <trkpt lat="44.37369" lon="5.82848">
        <ele>1253.836</ele>
        <time>2022-03-22T10:29:02Z</time>
      </trkpt>
      <trkpt lat="44.37369" lon="5.8285">
        <ele>1253.836</ele>
        <time>2022-03-22T10:29:03Z</time>
      </trkpt>
      <trkpt lat="44.37369" lon="5.82851">
        <ele>1253.836</ele>
        <time>2022-03-22T10:29:04Z</time>
      </trkpt>
      <trkpt lat="44.37369" lon="5.82853">
        <ele>1253.836</ele>
        <time>2022-03-22T10:29:05Z</time>
      </trkpt>
      <trkpt lat="44.37369" lon="5.82854">
        <ele>1253.736</ele>
        <time>2022-03-22T10:29:06Z</time>
      </trkpt>
      <trkpt lat="44.37368" lon="5.82856">
        <ele>1253.536</ele>
        <time>2022-03-22T10:29:07Z</time>
      </trkpt>
      <trkpt lat="44.37368" lon="5.82857">
        <ele>1253.836</ele>
        <time>2022-03-22T10:29:08Z</time>
      </trkpt>
      <trkpt lat="44.37368" lon="5.82858">
        <ele>1253.836</ele>
        <time>2022-03-22T10:29:09Z</time>
      </trkpt>
      <trkpt lat="44.37368" lon="5.8286">
        <ele>1254.336</ele>
        <time>2022-03-22T10:29:11Z</time>
      </trkpt>
      <trkpt lat="44.37368" lon="5.82863">
        <ele>1254.736</ele>
        <time>2022-03-22T10:29:13Z</time>
      </trkpt>
      <trkpt lat="44.37368" lon="5.82864">
        <ele>1254.936</ele>
        <time>2022-03-22T10:29:14Z</time>
      </trkpt>
      <trkpt lat="44.37367" lon="5.82865">
        <ele>1255.136</ele>
        <time>2022-03-22T10:29:15Z</time>
      </trkpt>
      <trkpt lat="44.37367" lon="5.82868">
        <ele>1254.936</ele>
        <time>2022-03-22T10:29:17Z</time>
      </trkpt>
      <trkpt lat="44.37367" lon="5.82869">
        <ele>1255.036</ele>
        <time>2022-03-22T10:29:18Z</time>
      </trkpt>
      <trkpt lat="44.37366" lon="5.82871">
        <ele>1255.236</ele>
        <time>2022-03-22T10:29:19Z</time>
      </trkpt>
      <trkpt lat="44.37367" lon="5.82872">
        <ele>1255.436</ele>
        <time>2022-03-22T10:29:20Z</time>
      </trkpt>
      <trkpt lat="44.37367" lon="5.82874">
        <ele>1255.536</ele>
        <time>2022-03-22T10:29:21Z</time>
      </trkpt>
      <trkpt lat="44.37367" lon="5.82876">
        <ele>1255.336</ele>
        <time>2022-03-22T10:29:22Z</time>
      </trkpt>
      <trkpt lat="44.37366" lon="5.82878">
        <ele>1255.036</ele>
        <time>2022-03-22T10:29:23Z</time>
      </trkpt>
      <trkpt lat="44.37366" lon="5.8288">
        <ele>1254.736</ele>
        <time>2022-03-22T10:29:24Z</time>
      </trkpt>
      <trkpt lat="44.37366" lon="5.82881">
        <ele>1254.536</ele>
        <time>2022-03-22T10:29:25Z</time>
      </trkpt>
      <trkpt lat="44.37366" lon="5.82883">
        <ele>1254.336</ele>
        <time>2022-03-22T10:29:26Z</time>
      </trkpt>
      <trkpt lat="44.37366" lon="5.82885">
        <ele>1254.336</ele>
        <time>2022-03-22T10:29:27Z</time>
      </trkpt>
      <trkpt lat="44.37366" lon="5.82886">
        <ele>1254.536</ele>
        <time>2022-03-22T10:29:28Z</time>
      </trkpt>
      <trkpt lat="44.37365" lon="5.82889">
        <ele>1254.436</ele>
        <time>2022-03-22T10:29:29Z</time>
      </trkpt>
      <trkpt lat="44.37365" lon="5.8289">
        <ele>1254.436</ele>
        <time>2022-03-22T10:29:30Z</time>
      </trkpt>
      <trkpt lat="44.37365" lon="5.82891">
        <ele>1254.136</ele>
        <time>2022-03-22T10:29:31Z</time>
      </trkpt>
      <trkpt lat="44.37365" lon="5.82893">
        <ele>1254.036</ele>
        <time>2022-03-22T10:29:32Z</time>
      </trkpt>
      <trkpt lat="44.37365" lon="5.82896">
        <ele>1254.036</ele>
        <time>2022-03-22T10:29:34Z</time>
      </trkpt>
      <trkpt lat="44.37365" lon="5.82897">
        <ele>1254.436</ele>
        <time>2022-03-22T10:29:35Z</time>
      </trkpt>
      <trkpt lat="44.37365" lon="5.82899">
        <ele>1254.336</ele>
        <time>2022-03-22T10:29:37Z</time>
      </trkpt>
      <trkpt lat="44.37365" lon="5.82901">
        <ele>1254.536</ele>
        <time>2022-03-22T10:29:39Z</time>
      </trkpt>
      <trkpt lat="44.37365" lon="5.82903">
        <ele>1254.436</ele>
        <time>2022-03-22T10:29:40Z</time>
      </trkpt>
      <trkpt lat="44.37365" lon="5.82904">
        <ele>1254.536</ele>
        <time>2022-03-22T10:29:41Z</time>
      </trkpt>
      <trkpt lat="44.37365" lon="5.82906">
        <ele>1254.636</ele>
        <time>2022-03-22T10:29:42Z</time>
      </trkpt>
      <trkpt lat="44.37365" lon="5.82908">
        <ele>1254.936</ele>
        <time>2022-03-22T10:29:43Z</time>
      </trkpt>
      <trkpt lat="44.37365" lon="5.82909">
        <ele>1255.336</ele>
        <time>2022-03-22T10:29:44Z</time>
      </trkpt>
      <trkpt lat="44.37364" lon="5.82911">
        <ele>1255.436</ele>
        <time>2022-03-22T10:29:45Z</time>
      </trkpt>
      <trkpt lat="44.37364" lon="5.82913">
        <ele>1255.536</ele>
        <time>2022-03-22T10:29:46Z</time>
      </trkpt>
      <trkpt lat="44.37364" lon="5.82914">
        <ele>1255.436</ele>
        <time>2022-03-22T10:29:47Z</time>
      </trkpt>
      <trkpt lat="44.37364" lon="5.82915">
        <ele>1255.336</ele>
        <time>2022-03-22T10:29:48Z</time>
      </trkpt>
      <trkpt lat="44.37365" lon="5.82918">
        <ele>1254.836</ele>
        <time>2022-03-22T10:29:50Z</time>
      </trkpt>
      <trkpt lat="44.37365" lon="5.82919">
        <ele>1254.636</ele>
        <time>2022-03-22T10:29:51Z</time>
      </trkpt>
      <trkpt lat="44.37365" lon="5.8292">
        <ele>1254.736</ele>
        <time>2022-03-22T10:29:52Z</time>
      </trkpt>
      <trkpt lat="44.37365" lon="5.82922">
        <ele>1254.536</ele>
        <time>2022-03-22T10:29:53Z</time>
      </trkpt>
      <trkpt lat="44.37366" lon="5.82923">
        <ele>1254.536</ele>
        <time>2022-03-22T10:29:54Z</time>
      </trkpt>
      <trkpt lat="44.37366" lon="5.82924">
        <ele>1254.536</ele>
        <time>2022-03-22T10:29:55Z</time>
      </trkpt>
      <trkpt lat="44.37366" lon="5.82926">
        <ele>1254.436</ele>
        <time>2022-03-22T10:29:57Z</time>
      </trkpt>
      <trkpt lat="44.37366" lon="5.82927">
        <ele>1254.336</ele>
        <time>2022-03-22T10:29:58Z</time>
      </trkpt>
      <trkpt lat="44.37367" lon="5.82929">
        <ele>1254.536</ele>
        <time>2022-03-22T10:29:59Z</time>
      </trkpt>
      <trkpt lat="44.37367" lon="5.82931">
        <ele>1254.536</ele>
        <time>2022-03-22T10:30:00Z</time>
      </trkpt>
      <trkpt lat="44.37367" lon="5.82932">
        <ele>1254.436</ele>
        <time>2022-03-22T10:30:01Z</time>
      </trkpt>
      <trkpt lat="44.37367" lon="5.82934">
        <ele>1254.436</ele>
        <time>2022-03-22T10:30:02Z</time>
      </trkpt>
      <trkpt lat="44.37368" lon="5.82936">
        <ele>1254.336</ele>
        <time>2022-03-22T10:30:03Z</time>
      </trkpt>
      <trkpt lat="44.37368" lon="5.82937">
        <ele>1254.036</ele>
        <time>2022-03-22T10:30:04Z</time>
      </trkpt>
      <trkpt lat="44.37368" lon="5.82939">
        <ele>1253.936</ele>
        <time>2022-03-22T10:30:05Z</time>
      </trkpt>
      <trkpt lat="44.37368" lon="5.8294">
        <ele>1254.136</ele>
        <time>2022-03-22T10:30:06Z</time>
      </trkpt>
      <trkpt lat="44.37368" lon="5.82942">
        <ele>1254.036</ele>
        <time>2022-03-22T10:30:07Z</time>
      </trkpt>
      <trkpt lat="44.37367" lon="5.82944">
        <ele>1254.235</ele>
        <time>2022-03-22T10:30:08Z</time>
      </trkpt>
      <trkpt lat="44.37367" lon="5.82947">
        <ele>1253.935</ele>
        <time>2022-03-22T10:30:10Z</time>
      </trkpt>
      <trkpt lat="44.37367" lon="5.82948">
        <ele>1253.735</ele>
        <time>2022-03-22T10:30:11Z</time>
      </trkpt>
      <trkpt lat="44.37367" lon="5.82949">
        <ele>1253.735</ele>
        <time>2022-03-22T10:30:12Z</time>
      </trkpt>
      <trkpt lat="44.37367" lon="5.82951">
        <ele>1253.735</ele>
        <time>2022-03-22T10:30:14Z</time>
      </trkpt>
      <trkpt lat="44.37367" lon="5.82953">
        <ele>1253.835</ele>
        <time>2022-03-22T10:30:16Z</time>
      </trkpt>
      <trkpt lat="44.37367" lon="5.82954">
        <ele>1253.835</ele>
        <time>2022-03-22T10:30:17Z</time>
      </trkpt>
      <trkpt lat="44.37366" lon="5.82957">
        <ele>1254.235</ele>
        <time>2022-03-22T10:30:19Z</time>
      </trkpt>
      <trkpt lat="44.37365" lon="5.82958">
        <ele>1254.535</ele>
        <time>2022-03-22T10:30:20Z</time>
      </trkpt>
      <trkpt lat="44.37365" lon="5.8296">
        <ele>1254.335</ele>
        <time>2022-03-22T10:30:22Z</time>
      </trkpt>
      <trkpt lat="44.37365" lon="5.82962">
        <ele>1254.335</ele>
        <time>2022-03-22T10:30:24Z</time>
      </trkpt>
      <trkpt lat="44.37365" lon="5.82963">
        <ele>1254.335</ele>
        <time>2022-03-22T10:30:25Z</time>
      </trkpt>
      <trkpt lat="44.37364" lon="5.82966">
        <ele>1254.635</ele>
        <time>2022-03-22T10:30:27Z</time>
      </trkpt>
      <trkpt lat="44.37364" lon="5.82968">
        <ele>1254.635</ele>
        <time>2022-03-22T10:30:29Z</time>
      </trkpt>
      <trkpt lat="44.37363" lon="5.82969">
        <ele>1254.735</ele>
        <time>2022-03-22T10:30:31Z</time>
      </trkpt>
      <trkpt lat="44.37363" lon="5.82971">
        <ele>1255.235</ele>
        <time>2022-03-22T10:30:33Z</time>
      </trkpt>
      <trkpt lat="44.37362" lon="5.82973">
        <ele>1255.735</ele>
        <time>2022-03-22T10:30:35Z</time>
      </trkpt>
      <trkpt lat="44.37362" lon="5.82974">
        <ele>1256.735</ele>
        <time>2022-03-22T10:30:37Z</time>
      </trkpt>
      <trkpt lat="44.37362" lon="5.82976">
        <ele>1257.335</ele>
        <time>2022-03-22T10:30:38Z</time>
      </trkpt>
      <trkpt lat="44.37361" lon="5.82977">
        <ele>1257.835</ele>
        <time>2022-03-22T10:30:40Z</time>
      </trkpt>
      <trkpt lat="44.3736" lon="5.82979">
        <ele>1258.135</ele>
        <time>2022-03-22T10:30:42Z</time>
      </trkpt>
      <trkpt lat="44.37359" lon="5.82981">
        <ele>1258.235</ele>
        <time>2022-03-22T10:30:44Z</time>
      </trkpt>
      <trkpt lat="44.37359" lon="5.82983">
        <ele>1258.835</ele>
        <time>2022-03-22T10:30:46Z</time>
      </trkpt>
      <trkpt lat="44.37359" lon="5.82984">
        <ele>1259.135</ele>
        <time>2022-03-22T10:30:48Z</time>
      </trkpt>
      <trkpt lat="44.37358" lon="5.82986">
        <ele>1259.435</ele>
        <time>2022-03-22T10:30:51Z</time>
      </trkpt>
      <trkpt lat="44.37357" lon="5.82987">
        <ele>1260.135</ele>
        <time>2022-03-22T10:30:54Z</time>
      </trkpt>
      <trkpt lat="44.37357" lon="5.82989">
        <ele>1260.335</ele>
        <time>2022-03-22T10:30:56Z</time>
      </trkpt>
      <trkpt lat="44.37357" lon="5.82991">
        <ele>1260.735</ele>
        <time>2022-03-22T10:30:58Z</time>
      </trkpt>
      <trkpt lat="44.37356" lon="5.82993">
        <ele>1261.235</ele>
        <time>2022-03-22T10:31:00Z</time>
      </trkpt>
      <trkpt lat="44.37355" lon="5.82995">
        <ele>1261.435</ele>
        <time>2022-03-22T10:31:02Z</time>
      </trkpt>
      <trkpt lat="44.37355" lon="5.82996">
        <ele>1261.735</ele>
        <time>2022-03-22T10:31:04Z</time>
      </trkpt>
      <trkpt lat="44.37354" lon="5.82998">
        <ele>1262.135</ele>
        <time>2022-03-22T10:31:06Z</time>
      </trkpt>
      <trkpt lat="44.37354" lon="5.83">
        <ele>1262.035</ele>
        <time>2022-03-22T10:31:08Z</time>
      </trkpt>
      <trkpt lat="44.37354" lon="5.83002">
        <ele>1261.935</ele>
        <time>2022-03-22T10:31:10Z</time>
      </trkpt>
      <trkpt lat="44.37354" lon="5.83005">
        <ele>1261.935</ele>
        <time>2022-03-22T10:31:12Z</time>
      </trkpt>
      <trkpt lat="44.37354" lon="5.83007">
        <ele>1261.835</ele>
        <time>2022-03-22T10:31:14Z</time>
      </trkpt>
      <trkpt lat="44.37354" lon="5.83009">
        <ele>1261.835</ele>
        <time>2022-03-22T10:31:15Z</time>
      </trkpt>
      <trkpt lat="44.37354" lon="5.8301">
        <ele>1261.635</ele>
        <time>2022-03-22T10:31:16Z</time>
      </trkpt>
      <trkpt lat="44.37354" lon="5.83012">
        <ele>1261.635</ele>
        <time>2022-03-22T10:31:17Z</time>
      </trkpt>
      <trkpt lat="44.37354" lon="5.83015">
        <ele>1261.735</ele>
        <time>2022-03-22T10:31:19Z</time>
      </trkpt>
      <trkpt lat="44.37354" lon="5.83016">
        <ele>1261.935</ele>
        <time>2022-03-22T10:31:20Z</time>
      </trkpt>
      <trkpt lat="44.37354" lon="5.83017">
        <ele>1261.935</ele>
        <time>2022-03-22T10:31:21Z</time>
      </trkpt>
      <trkpt lat="44.37353" lon="5.83019">
        <ele>1261.735</ele>
        <time>2022-03-22T10:31:22Z</time>
      </trkpt>
      <trkpt lat="44.37353" lon="5.83021">
        <ele>1261.535</ele>
        <time>2022-03-22T10:31:24Z</time>
      </trkpt>
      <trkpt lat="44.37353" lon="5.83023">
        <ele>1261.935</ele>
        <time>2022-03-22T10:31:25Z</time>
      </trkpt>
      <trkpt lat="44.37352" lon="5.83024">
        <ele>1262.135</ele>
        <time>2022-03-22T10:31:26Z</time>
      </trkpt>
      <trkpt lat="44.37351" lon="5.83026">
        <ele>1262.235</ele>
        <time>2022-03-22T10:31:28Z</time>
      </trkpt>
      <trkpt lat="44.37351" lon="5.83028">
        <ele>1262.335</ele>
        <time>2022-03-22T10:31:29Z</time>
      </trkpt>
      <trkpt lat="44.37351" lon="5.83029">
        <ele>1262.535</ele>
        <time>2022-03-22T10:31:30Z</time>
      </trkpt>
      <trkpt lat="44.37351" lon="5.83031">
        <ele>1262.635</ele>
        <time>2022-03-22T10:31:31Z</time>
      </trkpt>
      <trkpt lat="44.37351" lon="5.83033">
        <ele>1262.835</ele>
        <time>2022-03-22T10:31:32Z</time>
      </trkpt>
      <trkpt lat="44.3735" lon="5.83035">
        <ele>1263.135</ele>
        <time>2022-03-22T10:31:33Z</time>
      </trkpt>
      <trkpt lat="44.3735" lon="5.83036">
        <ele>1263.135</ele>
        <time>2022-03-22T10:31:34Z</time>
      </trkpt>
      <trkpt lat="44.3735" lon="5.83038">
        <ele>1263.235</ele>
        <time>2022-03-22T10:31:35Z</time>
      </trkpt>
      <trkpt lat="44.37349" lon="5.83039">
        <ele>1263.035</ele>
        <time>2022-03-22T10:31:36Z</time>
      </trkpt>
      <trkpt lat="44.37349" lon="5.83041">
        <ele>1262.935</ele>
        <time>2022-03-22T10:31:37Z</time>
      </trkpt>
      <trkpt lat="44.37348" lon="5.83042">
        <ele>1263.035</ele>
        <time>2022-03-22T10:31:38Z</time>
      </trkpt>
      <trkpt lat="44.37348" lon="5.83043">
        <ele>1263.035</ele>
        <time>2022-03-22T10:31:39Z</time>
      </trkpt>
      <trkpt lat="44.37348" lon="5.83045">
        <ele>1263.035</ele>
        <time>2022-03-22T10:31:40Z</time>
      </trkpt>
      <trkpt lat="44.37348" lon="5.83046">
        <ele>1263.135</ele>
        <time>2022-03-22T10:31:41Z</time>
      </trkpt>
      <trkpt lat="44.37347" lon="5.83048">
        <ele>1263.035</ele>
        <time>2022-03-22T10:31:42Z</time>
      </trkpt>
      <trkpt lat="44.37347" lon="5.83049">
        <ele>1263.135</ele>
        <time>2022-03-22T10:31:43Z</time>
      </trkpt>
      <trkpt lat="44.37347" lon="5.8305">
        <ele>1263.135</ele>
        <time>2022-03-22T10:31:44Z</time>
      </trkpt>
      <trkpt lat="44.37346" lon="5.83052">
        <ele>1263.235</ele>
        <time>2022-03-22T10:31:45Z</time>
      </trkpt>
      <trkpt lat="44.37346" lon="5.83053">
        <ele>1263.435</ele>
        <time>2022-03-22T10:31:46Z</time>
      </trkpt>
      <trkpt lat="44.37346" lon="5.83055">
        <ele>1263.735</ele>
        <time>2022-03-22T10:31:47Z</time>
      </trkpt>
      <trkpt lat="44.37346" lon="5.83056">
        <ele>1263.835</ele>
        <time>2022-03-22T10:31:48Z</time>
      </trkpt>
      <trkpt lat="44.37346" lon="5.83057">
        <ele>1263.935</ele>
        <time>2022-03-22T10:31:49Z</time>
      </trkpt>
      <trkpt lat="44.37346" lon="5.83059">
        <ele>1264.135</ele>
        <time>2022-03-22T10:31:50Z</time>
      </trkpt>
      <trkpt lat="44.37346" lon="5.83061">
        <ele>1264.435</ele>
        <time>2022-03-22T10:31:52Z</time>
      </trkpt>
      <trkpt lat="44.37345" lon="5.83062">
        <ele>1264.735</ele>
        <time>2022-03-22T10:31:53Z</time>
      </trkpt>
      <trkpt lat="44.37345" lon="5.83063">
        <ele>1264.935</ele>
        <time>2022-03-22T10:31:54Z</time>
      </trkpt>
      <trkpt lat="44.37345" lon="5.83065">
        <ele>1265.035</ele>
        <time>2022-03-22T10:31:55Z</time>
      </trkpt>
      <trkpt lat="44.37345" lon="5.83066">
        <ele>1265.035</ele>
        <time>2022-03-22T10:31:56Z</time>
      </trkpt>
      <trkpt lat="44.37344" lon="5.83067">
        <ele>1265.035</ele>
        <time>2022-03-22T10:31:57Z</time>
      </trkpt>
      <trkpt lat="44.37344" lon="5.83069">
        <ele>1264.935</ele>
        <time>2022-03-22T10:31:58Z</time>
      </trkpt>
      <trkpt lat="44.37344" lon="5.8307">
        <ele>1264.835</ele>
        <time>2022-03-22T10:31:59Z</time>
      </trkpt>
      <trkpt lat="44.37343" lon="5.83071">
        <ele>1264.935</ele>
        <time>2022-03-22T10:32:00Z</time>
      </trkpt>
      <trkpt lat="44.37343" lon="5.83074">
        <ele>1265.035</ele>
        <time>2022-03-22T10:32:02Z</time>
      </trkpt>
      <trkpt lat="44.37343" lon="5.83075">
        <ele>1265.335</ele>
        <time>2022-03-22T10:32:03Z</time>
      </trkpt>
      <trkpt lat="44.37342" lon="5.83077">
        <ele>1265.835</ele>
        <time>2022-03-22T10:32:05Z</time>
      </trkpt>
      <trkpt lat="44.37342" lon="5.83078">
        <ele>1266.035</ele>
        <time>2022-03-22T10:32:06Z</time>
      </trkpt>
      <trkpt lat="44.37341" lon="5.83079">
        <ele>1266.135</ele>
        <time>2022-03-22T10:32:07Z</time>
      </trkpt>
      <trkpt lat="44.37341" lon="5.83081">
        <ele>1266.635</ele>
        <time>2022-03-22T10:32:09Z</time>
      </trkpt>
      <trkpt lat="44.3734" lon="5.83083">
        <ele>1267.035</ele>
        <time>2022-03-22T10:32:11Z</time>
      </trkpt>
      <trkpt lat="44.3734" lon="5.83085">
        <ele>1267.535</ele>
        <time>2022-03-22T10:32:13Z</time>
      </trkpt>
      <trkpt lat="44.3734" lon="5.83086">
        <ele>1267.435</ele>
        <time>2022-03-22T10:32:14Z</time>
      </trkpt>
      <trkpt lat="44.3734" lon="5.83088">
        <ele>1267.535</ele>
        <time>2022-03-22T10:32:15Z</time>
      </trkpt>
      <trkpt lat="44.37339" lon="5.8309">
        <ele>1267.435</ele>
        <time>2022-03-22T10:32:16Z</time>
      </trkpt>
      <trkpt lat="44.37339" lon="5.83091">
        <ele>1267.535</ele>
        <time>2022-03-22T10:32:17Z</time>
      </trkpt>
      <trkpt lat="44.37339" lon="5.83092">
        <ele>1267.535</ele>
        <time>2022-03-22T10:32:18Z</time>
      </trkpt>
      <trkpt lat="44.37339" lon="5.83095">
        <ele>1267.835</ele>
        <time>2022-03-22T10:32:20Z</time>
      </trkpt>
      <trkpt lat="44.37339" lon="5.83097">
        <ele>1268.335</ele>
        <time>2022-03-22T10:32:22Z</time>
      </trkpt>
      <trkpt lat="44.37338" lon="5.83099">
        <ele>1268.435</ele>
        <time>2022-03-22T10:32:24Z</time>
      </trkpt>
      <trkpt lat="44.37338" lon="5.83101">
        <ele>1268.335</ele>
        <time>2022-03-22T10:32:26Z</time>
      </trkpt>
      <trkpt lat="44.37338" lon="5.83103">
        <ele>1268.335</ele>
        <time>2022-03-22T10:32:28Z</time>
      </trkpt>
      <trkpt lat="44.37338" lon="5.83105">
        <ele>1268.635</ele>
        <time>2022-03-22T10:32:30Z</time>
      </trkpt>
      <trkpt lat="44.37337" lon="5.83106">
        <ele>1269.135</ele>
        <time>2022-03-22T10:32:32Z</time>
      </trkpt>
      <trkpt lat="44.37336" lon="5.83108">
        <ele>1269.135</ele>
        <time>2022-03-22T10:32:34Z</time>
      </trkpt>
      <trkpt lat="44.37335" lon="5.83109">
        <ele>1269.235</ele>
        <time>2022-03-22T10:32:37Z</time>
      </trkpt>
      <trkpt lat="44.37335" lon="5.8311">
        <ele>1269.535</ele>
        <time>2022-03-22T10:32:39Z</time>
      </trkpt>
      <trkpt lat="44.37335" lon="5.83112">
        <ele>1269.635</ele>
        <time>2022-03-22T10:32:41Z</time>
      </trkpt>
      <trkpt lat="44.37335" lon="5.83113">
        <ele>1269.535</ele>
        <time>2022-03-22T10:32:42Z</time>
      </trkpt>
      <trkpt lat="44.37335" lon="5.83113">
        <ele>1269.535</ele>
        <time>2022-03-22T10:32:43Z</time>
      </trkpt>
      <trkpt lat="44.37335" lon="5.83114">
        <ele>1269.735</ele>
        <time>2022-03-22T10:33:04Z</time>
      </trkpt>
      <trkpt lat="44.37334" lon="5.83116">
        <ele>1267.735</ele>
        <time>2022-03-22T10:33:05Z</time>
      </trkpt>
      <trkpt lat="44.37335" lon="5.83117">
        <ele>1267.335</ele>
        <time>2022-03-22T10:33:07Z</time>
      </trkpt>
      <trkpt lat="44.37336" lon="5.83118">
        <ele>1266.935</ele>
        <time>2022-03-22T10:33:09Z</time>
      </trkpt>
      <trkpt lat="44.37337" lon="5.8312">
        <ele>1266.735</ele>
        <time>2022-03-22T10:33:11Z</time>
      </trkpt>
      <trkpt lat="44.37338" lon="5.83121">
        <ele>1266.535</ele>
        <time>2022-03-22T10:33:12Z</time>
      </trkpt>
      <trkpt lat="44.37339" lon="5.83122">
        <ele>1266.434</ele>
        <time>2022-03-22T10:33:14Z</time>
      </trkpt>
      <trkpt lat="44.37339" lon="5.83123">
        <ele>1266.234</ele>
        <time>2022-03-22T10:33:15Z</time>
      </trkpt>
      <trkpt lat="44.3734" lon="5.83125">
        <ele>1266.334</ele>
        <time>2022-03-22T10:33:17Z</time>
      </trkpt>
      <trkpt lat="44.3734" lon="5.83127">
        <ele>1265.834</ele>
        <time>2022-03-22T10:33:19Z</time>
      </trkpt>
      <trkpt lat="44.37341" lon="5.83129">
        <ele>1265.334</ele>
        <time>2022-03-22T10:33:21Z</time>
      </trkpt>
      <trkpt lat="44.37341" lon="5.83131">
        <ele>1264.834</ele>
        <time>2022-03-22T10:33:23Z</time>
      </trkpt>
      <trkpt lat="44.37341" lon="5.83133">
        <ele>1264.534</ele>
        <time>2022-03-22T10:33:25Z</time>
      </trkpt>
      <trkpt lat="44.37342" lon="5.83135">
        <ele>1264.134</ele>
        <time>2022-03-22T10:33:27Z</time>
      </trkpt>
      <trkpt lat="44.37342" lon="5.83136">
        <ele>1263.834</ele>
        <time>2022-03-22T10:33:28Z</time>
      </trkpt>
      <trkpt lat="44.37342" lon="5.83138">
        <ele>1263.434</ele>
        <time>2022-03-22T10:33:30Z</time>
      </trkpt>
      <trkpt lat="44.37342" lon="5.83141">
        <ele>1263.634</ele>
        <time>2022-03-22T10:33:32Z</time>
      </trkpt>
      <trkpt lat="44.37343" lon="5.83142">
        <ele>1263.534</ele>
        <time>2022-03-22T10:33:34Z</time>
      </trkpt>
      <trkpt lat="44.37342" lon="5.83144">
        <ele>1263.434</ele>
        <time>2022-03-22T10:33:36Z</time>
      </trkpt>
      <trkpt lat="44.37342" lon="5.83145">
        <ele>1263.434</ele>
        <time>2022-03-22T10:33:37Z</time>
      </trkpt>
      <trkpt lat="44.37342" lon="5.83147">
        <ele>1263.234</ele>
        <time>2022-03-22T10:33:38Z</time>
      </trkpt>
      <trkpt lat="44.37342" lon="5.83148">
        <ele>1263.134</ele>
        <time>2022-03-22T10:33:39Z</time>
      </trkpt>
      <trkpt lat="44.37341" lon="5.83149">
        <ele>1262.634</ele>
        <time>2022-03-22T10:33:41Z</time>
      </trkpt>
      <trkpt lat="44.37341" lon="5.83151">
        <ele>1262.034</ele>
        <time>2022-03-22T10:33:45Z</time>
      </trkpt>
      <trkpt lat="44.3734" lon="5.83154">
        <ele>1261.034</ele>
        <time>2022-03-22T10:33:47Z</time>
      </trkpt>
      <trkpt lat="44.3734" lon="5.83156">
        <ele>1260.434</ele>
        <time>2022-03-22T10:33:48Z</time>
      </trkpt>
      <trkpt lat="44.3734" lon="5.83157">
        <ele>1260.234</ele>
        <time>2022-03-22T10:33:49Z</time>
      </trkpt>
      <trkpt lat="44.3734" lon="5.83159">
        <ele>1259.934</ele>
        <time>2022-03-22T10:33:50Z</time>
      </trkpt>
      <trkpt lat="44.37339" lon="5.8316">
        <ele>1259.634</ele>
        <time>2022-03-22T10:33:51Z</time>
      </trkpt>
      <trkpt lat="44.3734" lon="5.83162">
        <ele>1259.334</ele>
        <time>2022-03-22T10:33:53Z</time>
      </trkpt>
      <trkpt lat="44.3734" lon="5.83164">
        <ele>1259.334</ele>
        <time>2022-03-22T10:33:55Z</time>
      </trkpt>
      <trkpt lat="44.3734" lon="5.83166">
        <ele>1259.834</ele>
        <time>2022-03-22T10:33:57Z</time>
      </trkpt>
      <trkpt lat="44.37339" lon="5.83168">
        <ele>1260.534</ele>
        <time>2022-03-22T10:33:59Z</time>
      </trkpt>
      <trkpt lat="44.37339" lon="5.8317">
        <ele>1260.834</ele>
        <time>2022-03-22T10:34:01Z</time>
      </trkpt>
      <trkpt lat="44.3734" lon="5.83172">
        <ele>1261.034</ele>
        <time>2022-03-22T10:34:02Z</time>
      </trkpt>
      <trkpt lat="44.3734" lon="5.83173">
        <ele>1261.134</ele>
        <time>2022-03-22T10:34:03Z</time>
      </trkpt>
      <trkpt lat="44.3734" lon="5.83175">
        <ele>1261.234</ele>
        <time>2022-03-22T10:34:04Z</time>
      </trkpt>
      <trkpt lat="44.37341" lon="5.83177">
        <ele>1261.134</ele>
        <time>2022-03-22T10:34:06Z</time>
      </trkpt>
      <trkpt lat="44.37341" lon="5.83178">
        <ele>1260.834</ele>
        <time>2022-03-22T10:34:07Z</time>
      </trkpt>
      <trkpt lat="44.37342" lon="5.83181">
        <ele>1260.434</ele>
        <time>2022-03-22T10:34:09Z</time>
      </trkpt>
      <trkpt lat="44.37342" lon="5.83182">
        <ele>1260.334</ele>
        <time>2022-03-22T10:34:10Z</time>
      </trkpt>
      <trkpt lat="44.37342" lon="5.83184">
        <ele>1260.234</ele>
        <time>2022-03-22T10:34:11Z</time>
      </trkpt>
      <trkpt lat="44.37342" lon="5.83186">
        <ele>1260.034</ele>
        <time>2022-03-22T10:34:12Z</time>
      </trkpt>
      <trkpt lat="44.37342" lon="5.83188">
        <ele>1259.934</ele>
        <time>2022-03-22T10:34:13Z</time>
      </trkpt>
      <trkpt lat="44.37342" lon="5.83189">
        <ele>1259.634</ele>
        <time>2022-03-22T10:34:14Z</time>
      </trkpt>
      <trkpt lat="44.37342" lon="5.83191">
        <ele>1259.634</ele>
        <time>2022-03-22T10:34:15Z</time>
      </trkpt>
      <trkpt lat="44.37342" lon="5.83193">
        <ele>1259.634</ele>
        <time>2022-03-22T10:34:16Z</time>
      </trkpt>
      <trkpt lat="44.37342" lon="5.83195">
        <ele>1259.834</ele>
        <time>2022-03-22T10:34:17Z</time>
      </trkpt>
      <trkpt lat="44.37342" lon="5.83196">
        <ele>1259.734</ele>
        <time>2022-03-22T10:34:18Z</time>
      </trkpt>
      <trkpt lat="44.37342" lon="5.83197">
        <ele>1259.634</ele>
        <time>2022-03-22T10:34:19Z</time>
      </trkpt>
      <trkpt lat="44.37342" lon="5.832">
        <ele>1259.434</ele>
        <time>2022-03-22T10:34:21Z</time>
      </trkpt>
      <trkpt lat="44.37341" lon="5.83201">
        <ele>1259.134</ele>
        <time>2022-03-22T10:34:22Z</time>
      </trkpt>
      <trkpt lat="44.37341" lon="5.83203">
        <ele>1258.934</ele>
        <time>2022-03-22T10:34:23Z</time>
      </trkpt>
      <trkpt lat="44.37341" lon="5.83205">
        <ele>1259.334</ele>
        <time>2022-03-22T10:34:25Z</time>
      </trkpt>
      <trkpt lat="44.3734" lon="5.83207">
        <ele>1259.434</ele>
        <time>2022-03-22T10:34:26Z</time>
      </trkpt>
      <trkpt lat="44.3734" lon="5.83209">
        <ele>1259.334</ele>
        <time>2022-03-22T10:34:27Z</time>
      </trkpt>
      <trkpt lat="44.3734" lon="5.8321">
        <ele>1259.434</ele>
        <time>2022-03-22T10:34:28Z</time>
      </trkpt>
      <trkpt lat="44.3734" lon="5.83212">
        <ele>1259.534</ele>
        <time>2022-03-22T10:34:29Z</time>
      </trkpt>
      <trkpt lat="44.37339" lon="5.83214">
        <ele>1259.634</ele>
        <time>2022-03-22T10:34:30Z</time>
      </trkpt>
      <trkpt lat="44.37339" lon="5.83216">
        <ele>1259.434</ele>
        <time>2022-03-22T10:34:32Z</time>
      </trkpt>
      <trkpt lat="44.37339" lon="5.83218">
        <ele>1259.334</ele>
        <time>2022-03-22T10:34:33Z</time>
      </trkpt>
      <trkpt lat="44.37338" lon="5.8322">
        <ele>1259.734</ele>
        <time>2022-03-22T10:34:35Z</time>
      </trkpt>
      <trkpt lat="44.37338" lon="5.83221">
        <ele>1259.934</ele>
        <time>2022-03-22T10:34:36Z</time>
      </trkpt>
      <trkpt lat="44.37338" lon="5.83223">
        <ele>1260.134</ele>
        <time>2022-03-22T10:34:37Z</time>
      </trkpt>
      <trkpt lat="44.37337" lon="5.83224">
        <ele>1260.234</ele>
        <time>2022-03-22T10:34:38Z</time>
      </trkpt>
      <trkpt lat="44.37337" lon="5.83226">
        <ele>1260.233</ele>
        <time>2022-03-22T10:34:39Z</time>
      </trkpt>
      <trkpt lat="44.37337" lon="5.83227">
        <ele>1260.033</ele>
        <time>2022-03-22T10:34:40Z</time>
      </trkpt>
      <trkpt lat="44.37337" lon="5.83229">
        <ele>1260.033</ele>
        <time>2022-03-22T10:34:41Z</time>
      </trkpt>
      <trkpt lat="44.37336" lon="5.8323">
        <ele>1260.133</ele>
        <time>2022-03-22T10:34:42Z</time>
      </trkpt>
      <trkpt lat="44.37336" lon="5.83232">
        <ele>1260.033</ele>
        <time>2022-03-22T10:34:43Z</time>
      </trkpt>
      <trkpt lat="44.37336" lon="5.83233">
        <ele>1259.733</ele>
        <time>2022-03-22T10:34:44Z</time>
      </trkpt>
      <trkpt lat="44.37336" lon="5.83234">
        <ele>1259.533</ele>
        <time>2022-03-22T10:34:45Z</time>
      </trkpt>
      <trkpt lat="44.37335" lon="5.83236">
        <ele>1259.633</ele>
        <time>2022-03-22T10:34:46Z</time>
      </trkpt>
      <trkpt lat="44.37335" lon="5.83238">
        <ele>1258.933</ele>
        <time>2022-03-22T10:34:48Z</time>
      </trkpt>
      <trkpt lat="44.37335" lon="5.8324">
        <ele>1258.633</ele>
        <time>2022-03-22T10:34:50Z</time>
      </trkpt>
      <trkpt lat="44.37335" lon="5.83243">
        <ele>1257.933</ele>
        <time>2022-03-22T10:34:52Z</time>
      </trkpt>
      <trkpt lat="44.37335" lon="5.83245">
        <ele>1257.333</ele>
        <time>2022-03-22T10:34:54Z</time>
      </trkpt>
      <trkpt lat="44.37334" lon="5.83247">
        <ele>1257.233</ele>
        <time>2022-03-22T10:34:55Z</time>
      </trkpt>
      <trkpt lat="44.37334" lon="5.83248">
        <ele>1257.233</ele>
        <time>2022-03-22T10:34:56Z</time>
      </trkpt>
      <trkpt lat="44.37333" lon="5.83249">
        <ele>1257.033</ele>
        <time>2022-03-22T10:34:57Z</time>
      </trkpt>
      <trkpt lat="44.37333" lon="5.83251">
        <ele>1256.933</ele>
        <time>2022-03-22T10:34:58Z</time>
      </trkpt>
      <trkpt lat="44.37332" lon="5.83252">
        <ele>1256.833</ele>
        <time>2022-03-22T10:34:59Z</time>
      </trkpt>
      <trkpt lat="44.37332" lon="5.83255">
        <ele>1256.833</ele>
        <time>2022-03-22T10:35:01Z</time>
      </trkpt>
      <trkpt lat="44.37332" lon="5.83257">
        <ele>1256.733</ele>
        <time>2022-03-22T10:35:03Z</time>
      </trkpt>
      <trkpt lat="44.37332" lon="5.83259">
        <ele>1256.733</ele>
        <time>2022-03-22T10:35:05Z</time>
      </trkpt>
      <trkpt lat="44.37331" lon="5.8326">
        <ele>1257.033</ele>
        <time>2022-03-22T10:35:06Z</time>
      </trkpt>
      <trkpt lat="44.37331" lon="5.83262">
        <ele>1257.133</ele>
        <time>2022-03-22T10:35:08Z</time>
      </trkpt>
      <trkpt lat="44.37331" lon="5.83263">
        <ele>1257.133</ele>
        <time>2022-03-22T10:35:10Z</time>
      </trkpt>
      <trkpt lat="44.37331" lon="5.83265">
        <ele>1257.133</ele>
        <time>2022-03-22T10:35:12Z</time>
      </trkpt>
      <trkpt lat="44.37331" lon="5.83267">
        <ele>1256.933</ele>
        <time>2022-03-22T10:35:15Z</time>
      </trkpt>
      <trkpt lat="44.37332" lon="5.83268">
        <ele>1256.733</ele>
        <time>2022-03-22T10:35:17Z</time>
      </trkpt>
      <trkpt lat="44.37331" lon="5.83269">
        <ele>1256.433</ele>
        <time>2022-03-22T10:35:20Z</time>
      </trkpt>
      <trkpt lat="44.37331" lon="5.83269">
        <ele>1256.533</ele>
        <time>2022-03-22T10:35:21Z</time>
      </trkpt>
      <trkpt lat="44.37331" lon="5.83269">
        <ele>1256.533</ele>
        <time>2022-03-22T10:37:42Z</time>
      </trkpt>
      <trkpt lat="44.37332" lon="5.83263">
        <ele>1256.133</ele>
        <time>2022-03-22T10:37:43Z</time>
      </trkpt>
      <trkpt lat="44.37332" lon="5.83261">
        <ele>1256.033</ele>
        <time>2022-03-22T10:37:45Z</time>
      </trkpt>
      <trkpt lat="44.37332" lon="5.83259">
        <ele>1256.233</ele>
        <time>2022-03-22T10:37:47Z</time>
      </trkpt>
      <trkpt lat="44.37332" lon="5.83257">
        <ele>1256.333</ele>
        <time>2022-03-22T10:37:49Z</time>
      </trkpt>
      <trkpt lat="44.37332" lon="5.83256">
        <ele>1256.333</ele>
        <time>2022-03-22T10:37:51Z</time>
      </trkpt>
      <trkpt lat="44.37332" lon="5.83254">
        <ele>1256.733</ele>
        <time>2022-03-22T10:37:53Z</time>
      </trkpt>
      <trkpt lat="44.37332" lon="5.83252">
        <ele>1256.933</ele>
        <time>2022-03-22T10:37:55Z</time>
      </trkpt>
      <trkpt lat="44.37332" lon="5.8325">
        <ele>1257.233</ele>
        <time>2022-03-22T10:37:57Z</time>
      </trkpt>
      <trkpt lat="44.37332" lon="5.83249">
        <ele>1258.033</ele>
        <time>2022-03-22T10:38:01Z</time>
      </trkpt>
      <trkpt lat="44.37333" lon="5.83249">
        <ele>1258.333</ele>
        <time>2022-03-22T10:38:03Z</time>
      </trkpt>
      <trkpt lat="44.37334" lon="5.83249">
        <ele>1258.133</ele>
        <time>2022-03-22T10:38:04Z</time>
      </trkpt>
      <trkpt lat="44.37334" lon="5.83249">
        <ele>1258.133</ele>
        <time>2022-03-22T10:38:05Z</time>
      </trkpt>
      <trkpt lat="44.37335" lon="5.83248">
        <ele>1258.233</ele>
        <time>2022-03-22T10:38:06Z</time>
      </trkpt>
      <trkpt lat="44.37336" lon="5.83247">
        <ele>1258.233</ele>
        <time>2022-03-22T10:38:08Z</time>
      </trkpt>
      <trkpt lat="44.37335" lon="5.83246">
        <ele>1258.233</ele>
        <time>2022-03-22T10:38:13Z</time>
      </trkpt>
      <trkpt lat="44.37335" lon="5.83247">
        <ele>1258.133</ele>
        <time>2022-03-22T10:38:14Z</time>
      </trkpt>
      <trkpt lat="44.37335" lon="5.83247">
        <ele>1257.933</ele>
        <time>2022-03-22T10:38:24Z</time>
      </trkpt>
      <trkpt lat="44.37333" lon="5.83247">
        <ele>1256.433</ele>
        <time>2022-03-22T10:38:25Z</time>
      </trkpt>
      <trkpt lat="44.37332" lon="5.83249">
        <ele>1256.433</ele>
        <time>2022-03-22T10:38:27Z</time>
      </trkpt>
      <trkpt lat="44.3733" lon="5.8325">
        <ele>1256.633</ele>
        <time>2022-03-22T10:38:29Z</time>
      </trkpt>
      <trkpt lat="44.37329" lon="5.8325">
        <ele>1257.133</ele>
        <time>2022-03-22T10:38:31Z</time>
      </trkpt>
      <trkpt lat="44.37329" lon="5.8325">
        <ele>1259.033</ele>
        <time>2022-03-22T10:38:37Z</time>
      </trkpt>
      <trkpt lat="44.37329" lon="5.8325">
        <ele>1259.233</ele>
        <time>2022-03-22T10:38:38Z</time>
      </trkpt>
      <trkpt lat="44.3733" lon="5.8325">
        <ele>1259.433</ele>
        <time>2022-03-22T10:39:16Z</time>
      </trkpt>
      <trkpt lat="44.37332" lon="5.83249">
        <ele>1258.933</ele>
        <time>2022-03-22T10:39:17Z</time>
      </trkpt>
      <trkpt lat="44.37334" lon="5.83249">
        <ele>1259.833</ele>
        <time>2022-03-22T10:39:21Z</time>
      </trkpt>
      <trkpt lat="44.37334" lon="5.83249">
        <ele>1260.233</ele>
        <time>2022-03-22T10:39:25Z</time>
      </trkpt>
      <trkpt lat="44.37334" lon="5.83249">
        <ele>1260.233</ele>
        <time>2022-03-22T10:39:26Z</time>
      </trkpt>
      <trkpt lat="44.37334" lon="5.83249">
        <ele>1260.433</ele>
        <time>2022-03-22T10:39:35Z</time>
      </trkpt>
      <trkpt lat="44.37335" lon="5.83248">
        <ele>1258.833</ele>
        <time>2022-03-22T10:39:36Z</time>
      </trkpt>
      <trkpt lat="44.37335" lon="5.83245">
        <ele>1258.633</ele>
        <time>2022-03-22T10:39:38Z</time>
      </trkpt>
      <trkpt lat="44.37336" lon="5.83243">
        <ele>1258.433</ele>
        <time>2022-03-22T10:39:40Z</time>
      </trkpt>
      <trkpt lat="44.37336" lon="5.8324">
        <ele>1258.433</ele>
        <time>2022-03-22T10:39:42Z</time>
      </trkpt>
      <trkpt lat="44.37336" lon="5.83239">
        <ele>1258.333</ele>
        <time>2022-03-22T10:39:43Z</time>
      </trkpt>
      <trkpt lat="44.37336" lon="5.83238">
        <ele>1258.533</ele>
        <time>2022-03-22T10:39:51Z</time>
      </trkpt>
      <trkpt lat="44.37337" lon="5.83236">
        <ele>1258.233</ele>
        <time>2022-03-22T10:39:53Z</time>
      </trkpt>
      <trkpt lat="44.37337" lon="5.83235">
        <ele>1257.933</ele>
        <time>2022-03-22T10:39:54Z</time>
      </trkpt>
      <trkpt lat="44.37337" lon="5.83233">
        <ele>1257.833</ele>
        <time>2022-03-22T10:39:55Z</time>
      </trkpt>
      <trkpt lat="44.37337" lon="5.83232">
        <ele>1258.033</ele>
        <time>2022-03-22T10:39:56Z</time>
      </trkpt>
      <trkpt lat="44.37338" lon="5.83231">
        <ele>1257.933</ele>
        <time>2022-03-22T10:39:57Z</time>
      </trkpt>
      <trkpt lat="44.37338" lon="5.83229">
        <ele>1257.933</ele>
        <time>2022-03-22T10:39:58Z</time>
      </trkpt>
      <trkpt lat="44.37339" lon="5.83228">
        <ele>1258.133</ele>
        <time>2022-03-22T10:39:59Z</time>
      </trkpt>
      <trkpt lat="44.37339" lon="5.83227">
        <ele>1258.533</ele>
        <time>2022-03-22T10:40:00Z</time>
      </trkpt>
      <trkpt lat="44.3734" lon="5.83225">
        <ele>1258.633</ele>
        <time>2022-03-22T10:40:01Z</time>
      </trkpt>
      <trkpt lat="44.3734" lon="5.83224">
        <ele>1258.733</ele>
        <time>2022-03-22T10:40:02Z</time>
      </trkpt>
      <trkpt lat="44.3734" lon="5.83223">
        <ele>1258.733</ele>
        <time>2022-03-22T10:40:03Z</time>
      </trkpt>
      <trkpt lat="44.37341" lon="5.8322">
        <ele>1259.233</ele>
        <time>2022-03-22T10:40:05Z</time>
      </trkpt>
      <trkpt lat="44.37341" lon="5.83219">
        <ele>1259.533</ele>
        <time>2022-03-22T10:40:06Z</time>
      </trkpt>
      <trkpt lat="44.37341" lon="5.83217">
        <ele>1259.733</ele>
        <time>2022-03-22T10:40:07Z</time>
      </trkpt>
      <trkpt lat="44.37341" lon="5.83216">
        <ele>1259.933</ele>
        <time>2022-03-22T10:40:08Z</time>
      </trkpt>
      <trkpt lat="44.37342" lon="5.83215">
        <ele>1260.033</ele>
        <time>2022-03-22T10:40:09Z</time>
      </trkpt>
      <trkpt lat="44.37342" lon="5.83213">
        <ele>1259.933</ele>
        <time>2022-03-22T10:40:10Z</time>
      </trkpt>
      <trkpt lat="44.37343" lon="5.83212">
        <ele>1259.933</ele>
        <time>2022-03-22T10:40:11Z</time>
      </trkpt>
      <trkpt lat="44.37343" lon="5.8321">
        <ele>1260.134</ele>
        <time>2022-03-22T10:40:12Z</time>
      </trkpt>
      <trkpt lat="44.37343" lon="5.83209">
        <ele>1260.334</ele>
        <time>2022-03-22T10:40:13Z</time>
      </trkpt>
      <trkpt lat="44.37343" lon="5.83207">
        <ele>1260.534</ele>
        <time>2022-03-22T10:40:14Z</time>
      </trkpt>
      <trkpt lat="44.37343" lon="5.83205">
        <ele>1260.734</ele>
        <time>2022-03-22T10:40:16Z</time>
      </trkpt>
      <trkpt lat="44.37344" lon="5.83203">
        <ele>1261.034</ele>
        <time>2022-03-22T10:40:18Z</time>
      </trkpt>
      <trkpt lat="44.37344" lon="5.83201">
        <ele>1260.834</ele>
        <time>2022-03-22T10:40:20Z</time>
      </trkpt>
      <trkpt lat="44.37344" lon="5.832">
        <ele>1260.434</ele>
        <time>2022-03-22T10:40:21Z</time>
      </trkpt>
      <trkpt lat="44.37344" lon="5.83199">
        <ele>1260.134</ele>
        <time>2022-03-22T10:40:22Z</time>
      </trkpt>
      <trkpt lat="44.37344" lon="5.83196">
        <ele>1260.134</ele>
        <time>2022-03-22T10:40:24Z</time>
      </trkpt>
      <trkpt lat="44.37344" lon="5.83194">
        <ele>1260.134</ele>
        <time>2022-03-22T10:40:26Z</time>
      </trkpt>
      <trkpt lat="44.37344" lon="5.83193">
        <ele>1260.134</ele>
        <time>2022-03-22T10:40:27Z</time>
      </trkpt>
      <trkpt lat="44.37344" lon="5.8319">
        <ele>1259.734</ele>
        <time>2022-03-22T10:40:29Z</time>
      </trkpt>
      <trkpt lat="44.37344" lon="5.83189">
        <ele>1259.734</ele>
        <time>2022-03-22T10:40:30Z</time>
      </trkpt>
      <trkpt lat="44.37344" lon="5.83188">
        <ele>1259.634</ele>
        <time>2022-03-22T10:40:31Z</time>
      </trkpt>
      <trkpt lat="44.37343" lon="5.83186">
        <ele>1259.834</ele>
        <time>2022-03-22T10:40:32Z</time>
      </trkpt>
      <trkpt lat="44.37343" lon="5.83185">
        <ele>1259.934</ele>
        <time>2022-03-22T10:40:33Z</time>
      </trkpt>
      <trkpt lat="44.37343" lon="5.83183">
        <ele>1259.634</ele>
        <time>2022-03-22T10:40:35Z</time>
      </trkpt>
      <trkpt lat="44.37342" lon="5.83181">
        <ele>1259.934</ele>
        <time>2022-03-22T10:40:37Z</time>
      </trkpt>
      <trkpt lat="44.37342" lon="5.83179">
        <ele>1260.234</ele>
        <time>2022-03-22T10:40:38Z</time>
      </trkpt>
      <trkpt lat="44.37342" lon="5.83178">
        <ele>1260.434</ele>
        <time>2022-03-22T10:40:39Z</time>
      </trkpt>
      <trkpt lat="44.37342" lon="5.83176">
        <ele>1260.234</ele>
        <time>2022-03-22T10:40:41Z</time>
      </trkpt>
      <trkpt lat="44.37341" lon="5.83175">
        <ele>1260.234</ele>
        <time>2022-03-22T10:40:42Z</time>
      </trkpt>
      <trkpt lat="44.37341" lon="5.83174">
        <ele>1260.234</ele>
        <time>2022-03-22T10:40:43Z</time>
      </trkpt>
      <trkpt lat="44.3734" lon="5.83172">
        <ele>1260.334</ele>
        <time>2022-03-22T10:40:45Z</time>
      </trkpt>
      <trkpt lat="44.3734" lon="5.83171">
        <ele>1260.334</ele>
        <time>2022-03-22T10:40:47Z</time>
      </trkpt>
      <trkpt lat="44.37339" lon="5.83169">
        <ele>1260.334</ele>
        <time>2022-03-22T10:40:49Z</time>
      </trkpt>
      <trkpt lat="44.37339" lon="5.83167">
        <ele>1260.234</ele>
        <time>2022-03-22T10:40:51Z</time>
      </trkpt>
      <trkpt lat="44.37339" lon="5.83165">
        <ele>1259.934</ele>
        <time>2022-03-22T10:40:53Z</time>
      </trkpt>
      <trkpt lat="44.37339" lon="5.83163">
        <ele>1260.234</ele>
        <time>2022-03-22T10:40:55Z</time>
      </trkpt>
      <trkpt lat="44.3734" lon="5.83161">
        <ele>1260.134</ele>
        <time>2022-03-22T10:40:57Z</time>
      </trkpt>
      <trkpt lat="44.3734" lon="5.83159">
        <ele>1259.934</ele>
        <time>2022-03-22T10:40:59Z</time>
      </trkpt>
      <trkpt lat="44.37341" lon="5.83157">
        <ele>1259.934</ele>
        <time>2022-03-22T10:41:01Z</time>
      </trkpt>
      <trkpt lat="44.37342" lon="5.83155">
        <ele>1259.434</ele>
        <time>2022-03-22T10:41:03Z</time>
      </trkpt>
      <trkpt lat="44.37343" lon="5.83153">
        <ele>1259.434</ele>
        <time>2022-03-22T10:41:05Z</time>
      </trkpt>
      <trkpt lat="44.37344" lon="5.83152">
        <ele>1259.334</ele>
        <time>2022-03-22T10:41:07Z</time>
      </trkpt>
      <trkpt lat="44.37344" lon="5.83149">
        <ele>1259.234</ele>
        <time>2022-03-22T10:41:09Z</time>
      </trkpt>
      <trkpt lat="44.37345" lon="5.83147">
        <ele>1259.534</ele>
        <time>2022-03-22T10:41:10Z</time>
      </trkpt>
      <trkpt lat="44.37345" lon="5.83145">
        <ele>1259.934</ele>
        <time>2022-03-22T10:41:12Z</time>
      </trkpt>
      <trkpt lat="44.37344" lon="5.83144">
        <ele>1260.134</ele>
        <time>2022-03-22T10:41:14Z</time>
      </trkpt>
      <trkpt lat="44.37344" lon="5.83142">
        <ele>1260.134</ele>
        <time>2022-03-22T10:41:16Z</time>
      </trkpt>
      <trkpt lat="44.37344" lon="5.8314">
        <ele>1259.834</ele>
        <time>2022-03-22T10:41:18Z</time>
      </trkpt>
      <trkpt lat="44.37344" lon="5.83138">
        <ele>1259.334</ele>
        <time>2022-03-22T10:41:20Z</time>
      </trkpt>
      <trkpt lat="44.37344" lon="5.83136">
        <ele>1259.334</ele>
        <time>2022-03-22T10:41:22Z</time>
      </trkpt>
      <trkpt lat="44.37343" lon="5.83134">
        <ele>1259.434</ele>
        <time>2022-03-22T10:41:24Z</time>
      </trkpt>
      <trkpt lat="44.37343" lon="5.83133">
        <ele>1259.634</ele>
        <time>2022-03-22T10:41:25Z</time>
      </trkpt>
      <trkpt lat="44.37344" lon="5.83132">
        <ele>1259.934</ele>
        <time>2022-03-22T10:41:27Z</time>
      </trkpt>
      <trkpt lat="44.37343" lon="5.83129">
        <ele>1260.034</ele>
        <time>2022-03-22T10:41:29Z</time>
      </trkpt>
      <trkpt lat="44.37343" lon="5.83128">
        <ele>1260.234</ele>
        <time>2022-03-22T10:41:31Z</time>
      </trkpt>
      <trkpt lat="44.37342" lon="5.83126">
        <ele>1260.734</ele>
        <time>2022-03-22T10:41:33Z</time>
      </trkpt>
      <trkpt lat="44.37342" lon="5.83125">
        <ele>1261.734</ele>
        <time>2022-03-22T10:41:36Z</time>
      </trkpt>
      <trkpt lat="44.37341" lon="5.83123">
        <ele>1262.234</ele>
        <time>2022-03-22T10:41:38Z</time>
      </trkpt>
      <trkpt lat="44.37341" lon="5.83121">
        <ele>1262.534</ele>
        <time>2022-03-22T10:41:40Z</time>
      </trkpt>
      <trkpt lat="44.37341" lon="5.83119">
        <ele>1262.834</ele>
        <time>2022-03-22T10:41:42Z</time>
      </trkpt>
      <trkpt lat="44.37341" lon="5.83118">
        <ele>1262.834</ele>
        <time>2022-03-22T10:41:43Z</time>
      </trkpt>
      <trkpt lat="44.37341" lon="5.83116">
        <ele>1262.534</ele>
        <time>2022-03-22T10:41:45Z</time>
      </trkpt>
      <trkpt lat="44.37341" lon="5.83113">
        <ele>1262.734</ele>
        <time>2022-03-22T10:41:47Z</time>
      </trkpt>
      <trkpt lat="44.37342" lon="5.83111">
        <ele>1262.934</ele>
        <time>2022-03-22T10:41:49Z</time>
      </trkpt>
      <trkpt lat="44.37341" lon="5.83109">
        <ele>1263.235</ele>
        <time>2022-03-22T10:41:51Z</time>
      </trkpt>
      <trkpt lat="44.37341" lon="5.83108">
        <ele>1263.635</ele>
        <time>2022-03-22T10:41:52Z</time>
      </trkpt>
      <trkpt lat="44.37341" lon="5.83106">
        <ele>1263.735</ele>
        <time>2022-03-22T10:41:53Z</time>
      </trkpt>
      <trkpt lat="44.37341" lon="5.83105">
        <ele>1263.735</ele>
        <time>2022-03-22T10:41:54Z</time>
      </trkpt>
      <trkpt lat="44.37341" lon="5.83103">
        <ele>1264.035</ele>
        <time>2022-03-22T10:41:55Z</time>
      </trkpt>
      <trkpt lat="44.3734" lon="5.83102">
        <ele>1264.335</ele>
        <time>2022-03-22T10:41:56Z</time>
      </trkpt>
      <trkpt lat="44.3734" lon="5.831">
        <ele>1264.835</ele>
        <time>2022-03-22T10:41:57Z</time>
      </trkpt>
      <trkpt lat="44.37341" lon="5.83099">
        <ele>1265.135</ele>
        <time>2022-03-22T10:41:58Z</time>
      </trkpt>
      <trkpt lat="44.37341" lon="5.83097">
        <ele>1265.235</ele>
        <time>2022-03-22T10:41:59Z</time>
      </trkpt>
      <trkpt lat="44.37341" lon="5.83096">
        <ele>1265.335</ele>
        <time>2022-03-22T10:42:00Z</time>
      </trkpt>
      <trkpt lat="44.37341" lon="5.83095">
        <ele>1265.635</ele>
        <time>2022-03-22T10:42:01Z</time>
      </trkpt>
      <trkpt lat="44.37342" lon="5.83093">
        <ele>1265.835</ele>
        <time>2022-03-22T10:42:02Z</time>
      </trkpt>
      <trkpt lat="44.37342" lon="5.83092">
        <ele>1265.835</ele>
        <time>2022-03-22T10:42:03Z</time>
      </trkpt>
      <trkpt lat="44.37343" lon="5.83091">
        <ele>1266.035</ele>
        <time>2022-03-22T10:42:04Z</time>
      </trkpt>
      <trkpt lat="44.37343" lon="5.83089">
        <ele>1266.135</ele>
        <time>2022-03-22T10:42:05Z</time>
      </trkpt>
      <trkpt lat="44.37343" lon="5.83088">
        <ele>1266.235</ele>
        <time>2022-03-22T10:42:06Z</time>
      </trkpt>
      <trkpt lat="44.37344" lon="5.83086">
        <ele>1266.235</ele>
        <time>2022-03-22T10:42:07Z</time>
      </trkpt>
      <trkpt lat="44.37344" lon="5.83085">
        <ele>1266.135</ele>
        <time>2022-03-22T10:42:08Z</time>
      </trkpt>
      <trkpt lat="44.37344" lon="5.83083">
        <ele>1266.235</ele>
        <time>2022-03-22T10:42:09Z</time>
      </trkpt>
      <trkpt lat="44.37344" lon="5.83081">
        <ele>1266.335</ele>
        <time>2022-03-22T10:42:10Z</time>
      </trkpt>
      <trkpt lat="44.37344" lon="5.83079">
        <ele>1266.035</ele>
        <time>2022-03-22T10:42:12Z</time>
      </trkpt>
      <trkpt lat="44.37344" lon="5.83078">
        <ele>1265.935</ele>
        <time>2022-03-22T10:42:13Z</time>
      </trkpt>
      <trkpt lat="44.37345" lon="5.83075">
        <ele>1265.535</ele>
        <time>2022-03-22T10:42:15Z</time>
      </trkpt>
      <trkpt lat="44.37346" lon="5.83073">
        <ele>1265.435</ele>
        <time>2022-03-22T10:42:17Z</time>
      </trkpt>
      <trkpt lat="44.37346" lon="5.83071">
        <ele>1265.635</ele>
        <time>2022-03-22T10:42:18Z</time>
      </trkpt>
      <trkpt lat="44.37346" lon="5.8307">
        <ele>1265.635</ele>
        <time>2022-03-22T10:42:19Z</time>
      </trkpt>
      <trkpt lat="44.37347" lon="5.83068">
        <ele>1266.135</ele>
        <time>2022-03-22T10:42:21Z</time>
      </trkpt>
      <trkpt lat="44.37347" lon="5.83066">
        <ele>1266.035</ele>
        <time>2022-03-22T10:42:22Z</time>
      </trkpt>
      <trkpt lat="44.37348" lon="5.83065">
        <ele>1266.135</ele>
        <time>2022-03-22T10:42:23Z</time>
      </trkpt>
      <trkpt lat="44.37348" lon="5.83063">
        <ele>1266.035</ele>
        <time>2022-03-22T10:42:24Z</time>
      </trkpt>
      <trkpt lat="44.37348" lon="5.83061">
        <ele>1265.835</ele>
        <time>2022-03-22T10:42:25Z</time>
      </trkpt>
      <trkpt lat="44.37349" lon="5.8306">
        <ele>1265.535</ele>
        <time>2022-03-22T10:42:26Z</time>
      </trkpt>
      <trkpt lat="44.37349" lon="5.83057">
        <ele>1265.235</ele>
        <time>2022-03-22T10:42:28Z</time>
      </trkpt>
      <trkpt lat="44.37348" lon="5.83056">
        <ele>1265.235</ele>
        <time>2022-03-22T10:42:29Z</time>
      </trkpt>
      <trkpt lat="44.37348" lon="5.83055">
        <ele>1264.935</ele>
        <time>2022-03-22T10:42:31Z</time>
      </trkpt>
      <trkpt lat="44.37348" lon="5.83055">
        <ele>1265.035</ele>
        <time>2022-03-22T10:42:34Z</time>
      </trkpt>
      <trkpt lat="44.37348" lon="5.83055">
        <ele>1264.835</ele>
        <time>2022-03-22T10:42:35Z</time>
      </trkpt>
      <trkpt lat="44.37348" lon="5.83055">
        <ele>1264.735</ele>
        <time>2022-03-22T10:43:19Z</time>
      </trkpt>
      <trkpt lat="44.37351" lon="5.83053">
        <ele>1264.435</ele>
        <time>2022-03-22T10:43:20Z</time>
      </trkpt>
      <trkpt lat="44.37351" lon="5.83051">
        <ele>1264.135</ele>
        <time>2022-03-22T10:43:22Z</time>
      </trkpt>
      <trkpt lat="44.37352" lon="5.83049">
        <ele>1263.935</ele>
        <time>2022-03-22T10:43:23Z</time>
      </trkpt>
      <trkpt lat="44.37352" lon="5.83046">
        <ele>1263.735</ele>
        <time>2022-03-22T10:43:25Z</time>
      </trkpt>
      <trkpt lat="44.37352" lon="5.83045">
        <ele>1263.635</ele>
        <time>2022-03-22T10:43:26Z</time>
      </trkpt>
      <trkpt lat="44.37352" lon="5.83044">
        <ele>1263.435</ele>
        <time>2022-03-22T10:43:27Z</time>
      </trkpt>
      <trkpt lat="44.37353" lon="5.83042">
        <ele>1263.335</ele>
        <time>2022-03-22T10:43:28Z</time>
      </trkpt>
      <trkpt lat="44.37353" lon="5.83041">
        <ele>1263.135</ele>
        <time>2022-03-22T10:43:29Z</time>
      </trkpt>
      <trkpt lat="44.37353" lon="5.83039">
        <ele>1263.035</ele>
        <time>2022-03-22T10:43:30Z</time>
      </trkpt>
      <trkpt lat="44.37354" lon="5.83038">
        <ele>1263.035</ele>
        <time>2022-03-22T10:43:31Z</time>
      </trkpt>
      <trkpt lat="44.37354" lon="5.83035">
        <ele>1262.735</ele>
        <time>2022-03-22T10:43:33Z</time>
      </trkpt>
      <trkpt lat="44.37354" lon="5.83034">
        <ele>1262.735</ele>
        <time>2022-03-22T10:43:34Z</time>
      </trkpt>
      <trkpt lat="44.37354" lon="5.83031">
        <ele>1262.435</ele>
        <time>2022-03-22T10:43:36Z</time>
      </trkpt>
      <trkpt lat="44.37354" lon="5.8303">
        <ele>1262.335</ele>
        <time>2022-03-22T10:43:37Z</time>
      </trkpt>
      <trkpt lat="44.37354" lon="5.83028">
        <ele>1262.035</ele>
        <time>2022-03-22T10:43:38Z</time>
      </trkpt>
      <trkpt lat="44.37355" lon="5.83027">
        <ele>1261.735</ele>
        <time>2022-03-22T10:43:39Z</time>
      </trkpt>
      <trkpt lat="44.37355" lon="5.83025">
        <ele>1261.735</ele>
        <time>2022-03-22T10:43:40Z</time>
      </trkpt>
      <trkpt lat="44.37355" lon="5.83024">
        <ele>1261.535</ele>
        <time>2022-03-22T10:43:41Z</time>
      </trkpt>
      <trkpt lat="44.37355" lon="5.83023">
        <ele>1261.535</ele>
        <time>2022-03-22T10:43:42Z</time>
      </trkpt>
      <trkpt lat="44.37355" lon="5.83021">
        <ele>1261.535</ele>
        <time>2022-03-22T10:43:43Z</time>
      </trkpt>
      <trkpt lat="44.37356" lon="5.83019">
        <ele>1261.535</ele>
        <time>2022-03-22T10:43:44Z</time>
      </trkpt>
      <trkpt lat="44.37356" lon="5.83018">
        <ele>1261.335</ele>
        <time>2022-03-22T10:43:46Z</time>
      </trkpt>
      <trkpt lat="44.37357" lon="5.83016">
        <ele>1261.535</ele>
        <time>2022-03-22T10:43:48Z</time>
      </trkpt>
      <trkpt lat="44.37357" lon="5.83015">
        <ele>1262.035</ele>
        <time>2022-03-22T10:43:50Z</time>
      </trkpt>
      <trkpt lat="44.37356" lon="5.83013">
        <ele>1262.035</ele>
        <time>2022-03-22T10:43:52Z</time>
      </trkpt>
      <trkpt lat="44.37356" lon="5.83011">
        <ele>1261.935</ele>
        <time>2022-03-22T10:43:53Z</time>
      </trkpt>
      <trkpt lat="44.37356" lon="5.83009">
        <ele>1261.835</ele>
        <time>2022-03-22T10:43:55Z</time>
      </trkpt>
      <trkpt lat="44.37356" lon="5.83007">
        <ele>1262.035</ele>
        <time>2022-03-22T10:43:57Z</time>
      </trkpt>
      <trkpt lat="44.37357" lon="5.83006">
        <ele>1261.735</ele>
        <time>2022-03-22T10:43:58Z</time>
      </trkpt>
      <trkpt lat="44.37357" lon="5.83004">
        <ele>1261.335</ele>
        <time>2022-03-22T10:43:59Z</time>
      </trkpt>
      <trkpt lat="44.37358" lon="5.83002">
        <ele>1261.135</ele>
        <time>2022-03-22T10:44:00Z</time>
      </trkpt>
      <trkpt lat="44.37358" lon="5.83">
        <ele>1261.235</ele>
        <time>2022-03-22T10:44:01Z</time>
      </trkpt>
      <trkpt lat="44.37358" lon="5.82998">
        <ele>1261.335</ele>
        <time>2022-03-22T10:44:02Z</time>
      </trkpt>
      <trkpt lat="44.37358" lon="5.82997">
        <ele>1261.235</ele>
        <time>2022-03-22T10:44:03Z</time>
      </trkpt>
      <trkpt lat="44.37359" lon="5.82995">
        <ele>1261.035</ele>
        <time>2022-03-22T10:44:04Z</time>
      </trkpt>
      <trkpt lat="44.37359" lon="5.82994">
        <ele>1260.735</ele>
        <time>2022-03-22T10:44:05Z</time>
      </trkpt>
      <trkpt lat="44.37359" lon="5.82992">
        <ele>1260.735</ele>
        <time>2022-03-22T10:44:06Z</time>
      </trkpt>
      <trkpt lat="44.3736" lon="5.82991">
        <ele>1260.835</ele>
        <time>2022-03-22T10:44:07Z</time>
      </trkpt>
      <trkpt lat="44.3736" lon="5.82989">
        <ele>1260.835</ele>
        <time>2022-03-22T10:44:08Z</time>
      </trkpt>
      <trkpt lat="44.3736" lon="5.82988">
        <ele>1260.535</ele>
        <time>2022-03-22T10:44:09Z</time>
      </trkpt>
      <trkpt lat="44.37361" lon="5.82987">
        <ele>1260.235</ele>
        <time>2022-03-22T10:44:10Z</time>
      </trkpt>
      <trkpt lat="44.37361" lon="5.82986">
        <ele>1259.935</ele>
        <time>2022-03-22T10:44:11Z</time>
      </trkpt>
      <trkpt lat="44.37361" lon="5.82984">
        <ele>1259.635</ele>
        <time>2022-03-22T10:44:12Z</time>
      </trkpt>
      <trkpt lat="44.37362" lon="5.82982">
        <ele>1259.335</ele>
        <time>2022-03-22T10:44:14Z</time>
      </trkpt>
      <trkpt lat="44.37363" lon="5.82981">
        <ele>1259.535</ele>
        <time>2022-03-22T10:44:16Z</time>
      </trkpt>
      <trkpt lat="44.37363" lon="5.82979">
        <ele>1258.935</ele>
        <time>2022-03-22T10:44:18Z</time>
      </trkpt>
      <trkpt lat="44.37364" lon="5.82977">
        <ele>1258.435</ele>
        <time>2022-03-22T10:44:20Z</time>
      </trkpt>
      <trkpt lat="44.37364" lon="5.82976">
        <ele>1258.235</ele>
        <time>2022-03-22T10:44:21Z</time>
      </trkpt>
      <trkpt lat="44.37365" lon="5.82973">
        <ele>1257.535</ele>
        <time>2022-03-22T10:44:23Z</time>
      </trkpt>
      <trkpt lat="44.37365" lon="5.82972">
        <ele>1257.135</ele>
        <time>2022-03-22T10:44:24Z</time>
      </trkpt>
      <trkpt lat="44.37366" lon="5.82969">
        <ele>1256.435</ele>
        <time>2022-03-22T10:44:26Z</time>
      </trkpt>
      <trkpt lat="44.37366" lon="5.82967">
        <ele>1255.935</ele>
        <time>2022-03-22T10:44:28Z</time>
      </trkpt>
      <trkpt lat="44.37366" lon="5.82965">
        <ele>1254.835</ele>
        <time>2022-03-22T10:44:30Z</time>
      </trkpt>
      <trkpt lat="44.37367" lon="5.82963">
        <ele>1253.735</ele>
        <time>2022-03-22T10:44:32Z</time>
      </trkpt>
      <trkpt lat="44.37367" lon="5.82961">
        <ele>1253.335</ele>
        <time>2022-03-22T10:44:33Z</time>
      </trkpt>
      <trkpt lat="44.37367" lon="5.82959">
        <ele>1252.735</ele>
        <time>2022-03-22T10:44:34Z</time>
      </trkpt>
      <trkpt lat="44.37367" lon="5.82958">
        <ele>1252.435</ele>
        <time>2022-03-22T10:44:35Z</time>
      </trkpt>
      <trkpt lat="44.37368" lon="5.82957">
        <ele>1252.135</ele>
        <time>2022-03-22T10:44:36Z</time>
      </trkpt>
      <trkpt lat="44.37368" lon="5.82955">
        <ele>1251.835</ele>
        <time>2022-03-22T10:44:37Z</time>
      </trkpt>
      <trkpt lat="44.37368" lon="5.82953">
        <ele>1251.635</ele>
        <time>2022-03-22T10:44:38Z</time>
      </trkpt>
      <trkpt lat="44.37368" lon="5.82952">
        <ele>1251.435</ele>
        <time>2022-03-22T10:44:39Z</time>
      </trkpt>
      <trkpt lat="44.37368" lon="5.8295">
        <ele>1251.335</ele>
        <time>2022-03-22T10:44:40Z</time>
      </trkpt>
      <trkpt lat="44.37368" lon="5.82949">
        <ele>1251.235</ele>
        <time>2022-03-22T10:44:41Z</time>
      </trkpt>
      <trkpt lat="44.37369" lon="5.82946">
        <ele>1250.735</ele>
        <time>2022-03-22T10:44:43Z</time>
      </trkpt>
      <trkpt lat="44.37369" lon="5.82945">
        <ele>1250.535</ele>
        <time>2022-03-22T10:44:44Z</time>
      </trkpt>
      <trkpt lat="44.37369" lon="5.82942">
        <ele>1250.635</ele>
        <time>2022-03-22T10:44:46Z</time>
      </trkpt>
      <trkpt lat="44.37369" lon="5.8294">
        <ele>1250.535</ele>
        <time>2022-03-22T10:44:47Z</time>
      </trkpt>
      <trkpt lat="44.3737" lon="5.82938">
        <ele>1250.635</ele>
        <time>2022-03-22T10:44:49Z</time>
      </trkpt>
      <trkpt lat="44.3737" lon="5.82937">
        <ele>1250.636</ele>
        <time>2022-03-22T10:44:50Z</time>
      </trkpt>
      <trkpt lat="44.3737" lon="5.82936">
        <ele>1250.736</ele>
        <time>2022-03-22T10:44:51Z</time>
      </trkpt>
      <trkpt lat="44.3737" lon="5.82934">
        <ele>1250.936</ele>
        <time>2022-03-22T10:44:53Z</time>
      </trkpt>
      <trkpt lat="44.37369" lon="5.82931">
        <ele>1250.936</ele>
        <time>2022-03-22T10:44:55Z</time>
      </trkpt>
      <trkpt lat="44.37368" lon="5.82929">
        <ele>1251.136</ele>
        <time>2022-03-22T10:44:57Z</time>
      </trkpt>
      <trkpt lat="44.37367" lon="5.82928">
        <ele>1251.136</ele>
        <time>2022-03-22T10:44:58Z</time>
      </trkpt>
      <trkpt lat="44.37367" lon="5.82926">
        <ele>1251.036</ele>
        <time>2022-03-22T10:45:00Z</time>
      </trkpt>
      <trkpt lat="44.37367" lon="5.82924">
        <ele>1251.036</ele>
        <time>2022-03-22T10:45:02Z</time>
      </trkpt>
      <trkpt lat="44.37367" lon="5.82922">
        <ele>1251.036</ele>
        <time>2022-03-22T10:45:03Z</time>
      </trkpt>
      <trkpt lat="44.37367" lon="5.8292">
        <ele>1251.336</ele>
        <time>2022-03-22T10:45:05Z</time>
      </trkpt>
      <trkpt lat="44.37366" lon="5.82917">
        <ele>1251.536</ele>
        <time>2022-03-22T10:45:07Z</time>
      </trkpt>
      <trkpt lat="44.37366" lon="5.82916">
        <ele>1251.636</ele>
        <time>2022-03-22T10:45:08Z</time>
      </trkpt>
      <trkpt lat="44.37366" lon="5.82914">
        <ele>1251.636</ele>
        <time>2022-03-22T10:45:09Z</time>
      </trkpt>
      <trkpt lat="44.37367" lon="5.82912">
        <ele>1251.636</ele>
        <time>2022-03-22T10:45:10Z</time>
      </trkpt>
      <trkpt lat="44.37367" lon="5.82911">
        <ele>1251.736</ele>
        <time>2022-03-22T10:45:11Z</time>
      </trkpt>
      <trkpt lat="44.37368" lon="5.82909">
        <ele>1251.836</ele>
        <time>2022-03-22T10:45:12Z</time>
      </trkpt>
      <trkpt lat="44.37368" lon="5.82908">
        <ele>1251.836</ele>
        <time>2022-03-22T10:45:13Z</time>
      </trkpt>
      <trkpt lat="44.37368" lon="5.82906">
        <ele>1251.836</ele>
        <time>2022-03-22T10:45:14Z</time>
      </trkpt>
      <trkpt lat="44.37368" lon="5.82904">
        <ele>1252.036</ele>
        <time>2022-03-22T10:45:15Z</time>
      </trkpt>
      <trkpt lat="44.37368" lon="5.82903">
        <ele>1252.036</ele>
        <time>2022-03-22T10:45:16Z</time>
      </trkpt>
      <trkpt lat="44.37368" lon="5.82901">
        <ele>1252.236</ele>
        <time>2022-03-22T10:45:17Z</time>
      </trkpt>
      <trkpt lat="44.37368" lon="5.829">
        <ele>1252.436</ele>
        <time>2022-03-22T10:45:18Z</time>
      </trkpt>
      <trkpt lat="44.37368" lon="5.82897">
        <ele>1252.736</ele>
        <time>2022-03-22T10:45:20Z</time>
      </trkpt>
      <trkpt lat="44.37368" lon="5.82896">
        <ele>1252.736</ele>
        <time>2022-03-22T10:45:21Z</time>
      </trkpt>
      <trkpt lat="44.37368" lon="5.82894">
        <ele>1252.936</ele>
        <time>2022-03-22T10:45:22Z</time>
      </trkpt>
      <trkpt lat="44.37368" lon="5.82893">
        <ele>1253.036</ele>
        <time>2022-03-22T10:45:23Z</time>
      </trkpt>
      <trkpt lat="44.37368" lon="5.82891">
        <ele>1253.036</ele>
        <time>2022-03-22T10:45:24Z</time>
      </trkpt>
      <trkpt lat="44.37368" lon="5.8289">
        <ele>1253.236</ele>
        <time>2022-03-22T10:45:25Z</time>
      </trkpt>
      <trkpt lat="44.37368" lon="5.82888">
        <ele>1253.336</ele>
        <time>2022-03-22T10:45:26Z</time>
      </trkpt>
      <trkpt lat="44.37368" lon="5.82887">
        <ele>1253.336</ele>
        <time>2022-03-22T10:45:27Z</time>
      </trkpt>
      <trkpt lat="44.37368" lon="5.82885">
        <ele>1253.336</ele>
        <time>2022-03-22T10:45:28Z</time>
      </trkpt>
      <trkpt lat="44.37369" lon="5.82883">
        <ele>1253.036</ele>
        <time>2022-03-22T10:45:29Z</time>
      </trkpt>
      <trkpt lat="44.37369" lon="5.82882">
        <ele>1252.736</ele>
        <time>2022-03-22T10:45:30Z</time>
      </trkpt>
      <trkpt lat="44.37369" lon="5.8288">
        <ele>1252.536</ele>
        <time>2022-03-22T10:45:31Z</time>
      </trkpt>
      <trkpt lat="44.37368" lon="5.82879">
        <ele>1252.436</ele>
        <time>2022-03-22T10:45:32Z</time>
      </trkpt>
      <trkpt lat="44.37368" lon="5.82877">
        <ele>1252.436</ele>
        <time>2022-03-22T10:45:33Z</time>
      </trkpt>
      <trkpt lat="44.37368" lon="5.82875">
        <ele>1252.236</ele>
        <time>2022-03-22T10:45:34Z</time>
      </trkpt>
      <trkpt lat="44.37368" lon="5.82874">
        <ele>1252.336</ele>
        <time>2022-03-22T10:45:35Z</time>
      </trkpt>
      <trkpt lat="44.37368" lon="5.82871">
        <ele>1252.236</ele>
        <time>2022-03-22T10:45:37Z</time>
      </trkpt>
      <trkpt lat="44.37369" lon="5.8287">
        <ele>1252.336</ele>
        <time>2022-03-22T10:45:38Z</time>
      </trkpt>
      <trkpt lat="44.37369" lon="5.82868">
        <ele>1252.336</ele>
        <time>2022-03-22T10:45:39Z</time>
      </trkpt>
      <trkpt lat="44.37369" lon="5.82867">
        <ele>1252.336</ele>
        <time>2022-03-22T10:45:40Z</time>
      </trkpt>
      <trkpt lat="44.3737" lon="5.82864">
        <ele>1252.436</ele>
        <time>2022-03-22T10:45:42Z</time>
      </trkpt>
      <trkpt lat="44.3737" lon="5.82862">
        <ele>1252.436</ele>
        <time>2022-03-22T10:45:44Z</time>
      </trkpt>
      <trkpt lat="44.3737" lon="5.8286">
        <ele>1252.636</ele>
        <time>2022-03-22T10:45:45Z</time>
      </trkpt>
      <trkpt lat="44.37371" lon="5.82858">
        <ele>1252.736</ele>
        <time>2022-03-22T10:45:46Z</time>
      </trkpt>
      <trkpt lat="44.37371" lon="5.82857">
        <ele>1252.836</ele>
        <time>2022-03-22T10:45:47Z</time>
      </trkpt>
      <trkpt lat="44.37372" lon="5.82855">
        <ele>1252.736</ele>
        <time>2022-03-22T10:45:48Z</time>
      </trkpt>
      <trkpt lat="44.37372" lon="5.82854">
        <ele>1252.536</ele>
        <time>2022-03-22T10:45:49Z</time>
      </trkpt>
      <trkpt lat="44.37372" lon="5.82852">
        <ele>1252.436</ele>
        <time>2022-03-22T10:45:50Z</time>
      </trkpt>
      <trkpt lat="44.37372" lon="5.82849">
        <ele>1252.336</ele>
        <time>2022-03-22T10:45:52Z</time>
      </trkpt>
      <trkpt lat="44.37372" lon="5.82848">
        <ele>1252.336</ele>
        <time>2022-03-22T10:45:53Z</time>
      </trkpt>
      <trkpt lat="44.37372" lon="5.82846">
        <ele>1252.336</ele>
        <time>2022-03-22T10:45:54Z</time>
      </trkpt>
      <trkpt lat="44.37373" lon="5.82844">
        <ele>1252.236</ele>
        <time>2022-03-22T10:45:55Z</time>
      </trkpt>
      <trkpt lat="44.37373" lon="5.82843">
        <ele>1252.336</ele>
        <time>2022-03-22T10:45:56Z</time>
      </trkpt>
      <trkpt lat="44.37373" lon="5.8284">
        <ele>1252.336</ele>
        <time>2022-03-22T10:45:58Z</time>
      </trkpt>
      <trkpt lat="44.37374" lon="5.82839">
        <ele>1252.136</ele>
        <time>2022-03-22T10:45:59Z</time>
      </trkpt>
      <trkpt lat="44.37374" lon="5.82837">
        <ele>1252.036</ele>
        <time>2022-03-22T10:46:00Z</time>
      </trkpt>
      <trkpt lat="44.37375" lon="5.82836">
        <ele>1252.036</ele>
        <time>2022-03-22T10:46:01Z</time>
      </trkpt>
      <trkpt lat="44.37375" lon="5.82834">
        <ele>1251.936</ele>
        <time>2022-03-22T10:46:02Z</time>
      </trkpt>
      <trkpt lat="44.37376" lon="5.82832">
        <ele>1251.936</ele>
        <time>2022-03-22T10:46:04Z</time>
      </trkpt>
      <trkpt lat="44.37376" lon="5.8283">
        <ele>1251.836</ele>
        <time>2022-03-22T10:46:06Z</time>
      </trkpt>
      <trkpt lat="44.37376" lon="5.82828">
        <ele>1251.536</ele>
        <time>2022-03-22T10:46:08Z</time>
      </trkpt>
      <trkpt lat="44.37376" lon="5.82827">
        <ele>1251.236</ele>
        <time>2022-03-22T10:46:09Z</time>
      </trkpt>
      <trkpt lat="44.37375" lon="5.82824">
        <ele>1250.936</ele>
        <time>2022-03-22T10:46:11Z</time>
      </trkpt>
      <trkpt lat="44.37375" lon="5.82822">
        <ele>1250.636</ele>
        <time>2022-03-22T10:46:13Z</time>
      </trkpt>
      <trkpt lat="44.37375" lon="5.8282">
        <ele>1250.537</ele>
        <time>2022-03-22T10:46:15Z</time>
      </trkpt>
      <trkpt lat="44.37375" lon="5.82818">
        <ele>1250.537</ele>
        <time>2022-03-22T10:46:17Z</time>
      </trkpt>
      <trkpt lat="44.37375" lon="5.82816">
        <ele>1250.537</ele>
        <time>2022-03-22T10:46:19Z</time>
      </trkpt>
      <trkpt lat="44.37374" lon="5.82813">
        <ele>1250.437</ele>
        <time>2022-03-22T10:46:21Z</time>
      </trkpt>
      <trkpt lat="44.37374" lon="5.82812">
        <ele>1250.637</ele>
        <time>2022-03-22T10:46:22Z</time>
      </trkpt>
      <trkpt lat="44.37374" lon="5.8281">
        <ele>1250.537</ele>
        <time>2022-03-22T10:46:24Z</time>
      </trkpt>
      <trkpt lat="44.37374" lon="5.82808">
        <ele>1250.637</ele>
        <time>2022-03-22T10:46:25Z</time>
      </trkpt>
      <trkpt lat="44.37374" lon="5.82807">
        <ele>1250.837</ele>
        <time>2022-03-22T10:46:26Z</time>
      </trkpt>
      <trkpt lat="44.37373" lon="5.82805">
        <ele>1251.237</ele>
        <time>2022-03-22T10:46:27Z</time>
      </trkpt>
      <trkpt lat="44.37373" lon="5.82803">
        <ele>1251.937</ele>
        <time>2022-03-22T10:46:29Z</time>
      </trkpt>
      <trkpt lat="44.37373" lon="5.82801">
        <ele>1252.337</ele>
        <time>2022-03-22T10:46:31Z</time>
      </trkpt>
      <trkpt lat="44.37373" lon="5.828">
        <ele>1252.537</ele>
        <time>2022-03-22T10:46:33Z</time>
      </trkpt>
      <trkpt lat="44.37373" lon="5.82798">
        <ele>1252.737</ele>
        <time>2022-03-22T10:46:35Z</time>
      </trkpt>
      <trkpt lat="44.37372" lon="5.82796">
        <ele>1252.837</ele>
        <time>2022-03-22T10:46:37Z</time>
      </trkpt>
      <trkpt lat="44.37372" lon="5.82794">
        <ele>1253.137</ele>
        <time>2022-03-22T10:46:39Z</time>
      </trkpt>
      <trkpt lat="44.37372" lon="5.82793">
        <ele>1253.037</ele>
        <time>2022-03-22T10:46:41Z</time>
      </trkpt>
      <trkpt lat="44.37372" lon="5.82791">
        <ele>1253.237</ele>
        <time>2022-03-22T10:46:43Z</time>
      </trkpt>
      <trkpt lat="44.37372" lon="5.8279">
        <ele>1253.337</ele>
        <time>2022-03-22T10:46:45Z</time>
      </trkpt>
      <trkpt lat="44.37372" lon="5.82787">
        <ele>1253.537</ele>
        <time>2022-03-22T10:46:47Z</time>
      </trkpt>
      <trkpt lat="44.37372" lon="5.82786">
        <ele>1254.037</ele>
        <time>2022-03-22T10:46:48Z</time>
      </trkpt>
      <trkpt lat="44.37372" lon="5.82785">
        <ele>1254.237</ele>
        <time>2022-03-22T10:46:49Z</time>
      </trkpt>
      <trkpt lat="44.37372" lon="5.82783">
        <ele>1254.637</ele>
        <time>2022-03-22T10:46:50Z</time>
      </trkpt>
      <trkpt lat="44.37373" lon="5.82782">
        <ele>1254.937</ele>
        <time>2022-03-22T10:46:51Z</time>
      </trkpt>
      <trkpt lat="44.37373" lon="5.8278">
        <ele>1255.237</ele>
        <time>2022-03-22T10:46:52Z</time>
      </trkpt>
      <trkpt lat="44.37373" lon="5.82779">
        <ele>1255.737</ele>
        <time>2022-03-22T10:46:53Z</time>
      </trkpt>
      <trkpt lat="44.37373" lon="5.82777">
        <ele>1256.037</ele>
        <time>2022-03-22T10:46:54Z</time>
      </trkpt>
      <trkpt lat="44.37374" lon="5.82775">
        <ele>1256.037</ele>
        <time>2022-03-22T10:46:55Z</time>
      </trkpt>
      <trkpt lat="44.37374" lon="5.82774">
        <ele>1256.137</ele>
        <time>2022-03-22T10:46:56Z</time>
      </trkpt>
      <trkpt lat="44.37375" lon="5.82772">
        <ele>1256.437</ele>
        <time>2022-03-22T10:46:58Z</time>
      </trkpt>
      <trkpt lat="44.37376" lon="5.8277">
        <ele>1256.537</ele>
        <time>2022-03-22T10:47:00Z</time>
      </trkpt>
      <trkpt lat="44.37376" lon="5.82768">
        <ele>1256.337</ele>
        <time>2022-03-22T10:47:02Z</time>
      </trkpt>
      <trkpt lat="44.37377" lon="5.82766">
        <ele>1256.237</ele>
        <time>2022-03-22T10:47:04Z</time>
      </trkpt>
      <trkpt lat="44.37377" lon="5.82764">
        <ele>1256.137</ele>
        <time>2022-03-22T10:47:05Z</time>
      </trkpt>
      <trkpt lat="44.37377" lon="5.82762">
        <ele>1256.137</ele>
        <time>2022-03-22T10:47:07Z</time>
      </trkpt>
      <trkpt lat="44.37377" lon="5.8276">
        <ele>1256.337</ele>
        <time>2022-03-22T10:47:08Z</time>
      </trkpt>
      <trkpt lat="44.37377" lon="5.82758">
        <ele>1256.137</ele>
        <time>2022-03-22T10:47:09Z</time>
      </trkpt>
      <trkpt lat="44.37378" lon="5.82757">
        <ele>1256.137</ele>
        <time>2022-03-22T10:47:10Z</time>
      </trkpt>
      <trkpt lat="44.37378" lon="5.82755">
        <ele>1256.037</ele>
        <time>2022-03-22T10:47:11Z</time>
      </trkpt>
      <trkpt lat="44.37378" lon="5.82754">
        <ele>1255.837</ele>
        <time>2022-03-22T10:47:12Z</time>
      </trkpt>
      <trkpt lat="44.37378" lon="5.82751">
        <ele>1255.637</ele>
        <time>2022-03-22T10:47:14Z</time>
      </trkpt>
      <trkpt lat="44.37378" lon="5.82749">
        <ele>1255.237</ele>
        <time>2022-03-22T10:47:16Z</time>
      </trkpt>
      <trkpt lat="44.37377" lon="5.82747">
        <ele>1255.137</ele>
        <time>2022-03-22T10:47:18Z</time>
      </trkpt>
      <trkpt lat="44.37377" lon="5.82745">
        <ele>1255.037</ele>
        <time>2022-03-22T10:47:20Z</time>
      </trkpt>
      <trkpt lat="44.37377" lon="5.82744">
        <ele>1254.937</ele>
        <time>2022-03-22T10:47:21Z</time>
      </trkpt>
      <trkpt lat="44.37377" lon="5.82743">
        <ele>1255.237</ele>
        <time>2022-03-22T10:47:22Z</time>
      </trkpt>
      <trkpt lat="44.37377" lon="5.82741">
        <ele>1255.237</ele>
        <time>2022-03-22T10:47:23Z</time>
      </trkpt>
      <trkpt lat="44.37377" lon="5.8274">
        <ele>1255.337</ele>
        <time>2022-03-22T10:47:24Z</time>
      </trkpt>
      <trkpt lat="44.37377" lon="5.82737">
        <ele>1255.537</ele>
        <time>2022-03-22T10:47:26Z</time>
      </trkpt>
      <trkpt lat="44.37377" lon="5.82736">
        <ele>1255.637</ele>
        <time>2022-03-22T10:47:27Z</time>
      </trkpt>
      <trkpt lat="44.37378" lon="5.82735">
        <ele>1255.837</ele>
        <time>2022-03-22T10:47:28Z</time>
      </trkpt>
      <trkpt lat="44.37378" lon="5.82732">
        <ele>1256.037</ele>
        <time>2022-03-22T10:47:30Z</time>
      </trkpt>
      <trkpt lat="44.37378" lon="5.82731">
        <ele>1256.237</ele>
        <time>2022-03-22T10:47:31Z</time>
      </trkpt>
      <trkpt lat="44.37378" lon="5.82729">
        <ele>1256.237</ele>
        <time>2022-03-22T10:47:33Z</time>
      </trkpt>
      <trkpt lat="44.37377" lon="5.82727">
        <ele>1256.537</ele>
        <time>2022-03-22T10:47:35Z</time>
      </trkpt>
      <trkpt lat="44.37377" lon="5.82726">
        <ele>1256.737</ele>
        <time>2022-03-22T10:47:37Z</time>
      </trkpt>
      <trkpt lat="44.37376" lon="5.82724">
        <ele>1257.237</ele>
        <time>2022-03-22T10:47:39Z</time>
      </trkpt>
      <trkpt lat="44.37376" lon="5.82722">
        <ele>1257.537</ele>
        <time>2022-03-22T10:47:41Z</time>
      </trkpt>
      <trkpt lat="44.37376" lon="5.82721">
        <ele>1257.837</ele>
        <time>2022-03-22T10:47:42Z</time>
      </trkpt>
      <trkpt lat="44.37376" lon="5.82718">
        <ele>1257.937</ele>
        <time>2022-03-22T10:47:44Z</time>
      </trkpt>
      <trkpt lat="44.37376" lon="5.82717">
        <ele>1257.838</ele>
        <time>2022-03-22T10:47:45Z</time>
      </trkpt>
      <trkpt lat="44.37376" lon="5.82715">
        <ele>1257.738</ele>
        <time>2022-03-22T10:47:46Z</time>
      </trkpt>
      <trkpt lat="44.37376" lon="5.82714">
        <ele>1257.538</ele>
        <time>2022-03-22T10:47:47Z</time>
      </trkpt>
      <trkpt lat="44.37376" lon="5.82713">
        <ele>1257.638</ele>
        <time>2022-03-22T10:47:48Z</time>
      </trkpt>
      <trkpt lat="44.37375" lon="5.82711">
        <ele>1257.538</ele>
        <time>2022-03-22T10:47:49Z</time>
      </trkpt>
      <trkpt lat="44.37375" lon="5.8271">
        <ele>1257.538</ele>
        <time>2022-03-22T10:47:50Z</time>
      </trkpt>
      <trkpt lat="44.37375" lon="5.82707">
        <ele>1257.238</ele>
        <time>2022-03-22T10:47:52Z</time>
      </trkpt>
      <trkpt lat="44.37375" lon="5.82706">
        <ele>1256.838</ele>
        <time>2022-03-22T10:47:53Z</time>
      </trkpt>
      <trkpt lat="44.37375" lon="5.82704">
        <ele>1256.538</ele>
        <time>2022-03-22T10:47:54Z</time>
      </trkpt>
      <trkpt lat="44.37375" lon="5.82703">
        <ele>1256.438</ele>
        <time>2022-03-22T10:47:55Z</time>
      </trkpt>
      <trkpt lat="44.37375" lon="5.82702">
        <ele>1256.238</ele>
        <time>2022-03-22T10:47:56Z</time>
      </trkpt>
      <trkpt lat="44.37375" lon="5.827">
        <ele>1256.138</ele>
        <time>2022-03-22T10:47:57Z</time>
      </trkpt>
      <trkpt lat="44.37375" lon="5.82698">
        <ele>1256.038</ele>
        <time>2022-03-22T10:47:58Z</time>
      </trkpt>
      <trkpt lat="44.37375" lon="5.82697">
        <ele>1255.938</ele>
        <time>2022-03-22T10:47:59Z</time>
      </trkpt>
      <trkpt lat="44.37374" lon="5.82694">
        <ele>1255.838</ele>
        <time>2022-03-22T10:48:01Z</time>
      </trkpt>
      <trkpt lat="44.37374" lon="5.82693">
        <ele>1255.638</ele>
        <time>2022-03-22T10:48:02Z</time>
      </trkpt>
      <trkpt lat="44.37374" lon="5.82691">
        <ele>1255.538</ele>
        <time>2022-03-22T10:48:04Z</time>
      </trkpt>
      <trkpt lat="44.37374" lon="5.82689">
        <ele>1255.438</ele>
        <time>2022-03-22T10:48:05Z</time>
      </trkpt>
      <trkpt lat="44.37374" lon="5.82688">
        <ele>1255.338</ele>
        <time>2022-03-22T10:48:06Z</time>
      </trkpt>
      <trkpt lat="44.37374" lon="5.82687">
        <ele>1255.138</ele>
        <time>2022-03-22T10:48:07Z</time>
      </trkpt>
      <trkpt lat="44.37374" lon="5.82685">
        <ele>1255.138</ele>
        <time>2022-03-22T10:48:09Z</time>
      </trkpt>
      <trkpt lat="44.37374" lon="5.82683">
        <ele>1255.138</ele>
        <time>2022-03-22T10:48:10Z</time>
      </trkpt>
      <trkpt lat="44.37374" lon="5.82681">
        <ele>1255.138</ele>
        <time>2022-03-22T10:48:12Z</time>
      </trkpt>
      <trkpt lat="44.37374" lon="5.82679">
        <ele>1255.038</ele>
        <time>2022-03-22T10:48:14Z</time>
      </trkpt>
      <trkpt lat="44.37374" lon="5.82677">
        <ele>1254.838</ele>
        <time>2022-03-22T10:48:15Z</time>
      </trkpt>
      <trkpt lat="44.37374" lon="5.82676">
        <ele>1254.638</ele>
        <time>2022-03-22T10:48:16Z</time>
      </trkpt>
      <trkpt lat="44.37375" lon="5.82673">
        <ele>1254.438</ele>
        <time>2022-03-22T10:48:18Z</time>
      </trkpt>
      <trkpt lat="44.37374" lon="5.82671">
        <ele>1254.238</ele>
        <time>2022-03-22T10:48:20Z</time>
      </trkpt>
      <trkpt lat="44.37374" lon="5.82669">
        <ele>1254.138</ele>
        <time>2022-03-22T10:48:21Z</time>
      </trkpt>
      <trkpt lat="44.37375" lon="5.82668">
        <ele>1254.038</ele>
        <time>2022-03-22T10:48:22Z</time>
      </trkpt>
      <trkpt lat="44.37375" lon="5.82666">
        <ele>1254.038</ele>
        <time>2022-03-22T10:48:23Z</time>
      </trkpt>
      <trkpt lat="44.37375" lon="5.82665">
        <ele>1253.838</ele>
        <time>2022-03-22T10:48:24Z</time>
      </trkpt>
      <trkpt lat="44.37375" lon="5.82663">
        <ele>1253.338</ele>
        <time>2022-03-22T10:48:26Z</time>
      </trkpt>
      <trkpt lat="44.37376" lon="5.82661">
        <ele>1253.038</ele>
        <time>2022-03-22T10:48:27Z</time>
      </trkpt>
      <trkpt lat="44.37376" lon="5.8266">
        <ele>1252.938</ele>
        <time>2022-03-22T10:48:28Z</time>
      </trkpt>
      <trkpt lat="44.37376" lon="5.82658">
        <ele>1252.738</ele>
        <time>2022-03-22T10:48:29Z</time>
      </trkpt>
      <trkpt lat="44.37376" lon="5.82656">
        <ele>1252.738</ele>
        <time>2022-03-22T10:48:31Z</time>
      </trkpt>
      <trkpt lat="44.37377" lon="5.82654">
        <ele>1252.838</ele>
        <time>2022-03-22T10:48:33Z</time>
      </trkpt>
      <trkpt lat="44.37378" lon="5.82652">
        <ele>1252.638</ele>
        <time>2022-03-22T10:48:35Z</time>
      </trkpt>
      <trkpt lat="44.37378" lon="5.82651">
        <ele>1252.438</ele>
        <time>2022-03-22T10:48:36Z</time>
      </trkpt>
      <trkpt lat="44.37378" lon="5.8265">
        <ele>1252.238</ele>
        <time>2022-03-22T10:48:37Z</time>
      </trkpt>
      <trkpt lat="44.37379" lon="5.82647">
        <ele>1252.038</ele>
        <time>2022-03-22T10:48:39Z</time>
      </trkpt>
      <trkpt lat="44.37379" lon="5.82646">
        <ele>1251.938</ele>
        <time>2022-03-22T10:48:40Z</time>
      </trkpt>
      <trkpt lat="44.37379" lon="5.82644">
        <ele>1251.838</ele>
        <time>2022-03-22T10:48:41Z</time>
      </trkpt>
      <trkpt lat="44.37379" lon="5.82643">
        <ele>1251.638</ele>
        <time>2022-03-22T10:48:42Z</time>
      </trkpt>
      <trkpt lat="44.37379" lon="5.82641">
        <ele>1251.438</ele>
        <time>2022-03-22T10:48:43Z</time>
      </trkpt>
      <trkpt lat="44.37379" lon="5.82639">
        <ele>1251.238</ele>
        <time>2022-03-22T10:48:44Z</time>
      </trkpt>
      <trkpt lat="44.37379" lon="5.82638">
        <ele>1251.138</ele>
        <time>2022-03-22T10:48:45Z</time>
      </trkpt>
      <trkpt lat="44.37379" lon="5.82637">
        <ele>1250.938</ele>
        <time>2022-03-22T10:48:46Z</time>
      </trkpt>
      <trkpt lat="44.37379" lon="5.82634">
        <ele>1250.838</ele>
        <time>2022-03-22T10:48:48Z</time>
      </trkpt>
      <trkpt lat="44.3738" lon="5.82632">
        <ele>1251.038</ele>
        <time>2022-03-22T10:48:50Z</time>
      </trkpt>
      <trkpt lat="44.3738" lon="5.82631">
        <ele>1251.038</ele>
        <time>2022-03-22T10:48:51Z</time>
      </trkpt>
      <trkpt lat="44.3738" lon="5.82628">
        <ele>1250.838</ele>
        <time>2022-03-22T10:48:53Z</time>
      </trkpt>
      <trkpt lat="44.3738" lon="5.82627">
        <ele>1250.638</ele>
        <time>2022-03-22T10:48:54Z</time>
      </trkpt>
      <trkpt lat="44.3738" lon="5.82625">
        <ele>1250.338</ele>
        <time>2022-03-22T10:48:55Z</time>
      </trkpt>
      <trkpt lat="44.3738" lon="5.82623">
        <ele>1250.138</ele>
        <time>2022-03-22T10:48:56Z</time>
      </trkpt>
      <trkpt lat="44.3738" lon="5.82622">
        <ele>1250.138</ele>
        <time>2022-03-22T10:48:57Z</time>
      </trkpt>
      <trkpt lat="44.37381" lon="5.8262">
        <ele>1249.738</ele>
        <time>2022-03-22T10:48:59Z</time>
      </trkpt>
      <trkpt lat="44.37381" lon="5.82617">
        <ele>1249.338</ele>
        <time>2022-03-22T10:49:01Z</time>
      </trkpt>
      <trkpt lat="44.37381" lon="5.82616">
        <ele>1249.038</ele>
        <time>2022-03-22T10:49:02Z</time>
      </trkpt>
      <trkpt lat="44.3738" lon="5.82614">
        <ele>1248.838</ele>
        <time>2022-03-22T10:49:03Z</time>
      </trkpt>
      <trkpt lat="44.3738" lon="5.82613">
        <ele>1248.638</ele>
        <time>2022-03-22T10:49:04Z</time>
      </trkpt>
      <trkpt lat="44.3738" lon="5.82611">
        <ele>1248.338</ele>
        <time>2022-03-22T10:49:05Z</time>
      </trkpt>
      <trkpt lat="44.3738" lon="5.8261">
        <ele>1248.238</ele>
        <time>2022-03-22T10:49:06Z</time>
      </trkpt>
      <trkpt lat="44.37381" lon="5.82608">
        <ele>1248.238</ele>
        <time>2022-03-22T10:49:07Z</time>
      </trkpt>
      <trkpt lat="44.37381" lon="5.82606">
        <ele>1248.238</ele>
        <time>2022-03-22T10:49:09Z</time>
      </trkpt>
      <trkpt lat="44.37381" lon="5.82604">
        <ele>1248.038</ele>
        <time>2022-03-22T10:49:11Z</time>
      </trkpt>
      <trkpt lat="44.37381" lon="5.82602">
        <ele>1247.939</ele>
        <time>2022-03-22T10:49:13Z</time>
      </trkpt>
      <trkpt lat="44.3738" lon="5.826">
        <ele>1247.939</ele>
        <time>2022-03-22T10:49:15Z</time>
      </trkpt>
      <trkpt lat="44.3738" lon="5.82598">
        <ele>1248.039</ele>
        <time>2022-03-22T10:49:17Z</time>
      </trkpt>
      <trkpt lat="44.37379" lon="5.82597">
        <ele>1247.939</ele>
        <time>2022-03-22T10:49:18Z</time>
      </trkpt>
      <trkpt lat="44.37379" lon="5.82595">
        <ele>1247.939</ele>
        <time>2022-03-22T10:49:20Z</time>
      </trkpt>
      <trkpt lat="44.37379" lon="5.82593">
        <ele>1248.039</ele>
        <time>2022-03-22T10:49:22Z</time>
      </trkpt>
      <trkpt lat="44.37379" lon="5.82591">
        <ele>1248.339</ele>
        <time>2022-03-22T10:49:24Z</time>
      </trkpt>
      <trkpt lat="44.37379" lon="5.82588">
        <ele>1249.039</ele>
        <time>2022-03-22T10:49:26Z</time>
      </trkpt>
      <trkpt lat="44.37379" lon="5.82586">
        <ele>1249.339</ele>
        <time>2022-03-22T10:49:27Z</time>
      </trkpt>
      <trkpt lat="44.37379" lon="5.82584">
        <ele>1249.539</ele>
        <time>2022-03-22T10:49:28Z</time>
      </trkpt>
      <trkpt lat="44.37379" lon="5.82583">
        <ele>1249.939</ele>
        <time>2022-03-22T10:49:30Z</time>
      </trkpt>
      <trkpt lat="44.3738" lon="5.82582">
        <ele>1250.339</ele>
        <time>2022-03-22T10:49:32Z</time>
      </trkpt>
      <trkpt lat="44.3738" lon="5.82581">
        <ele>1250.439</ele>
        <time>2022-03-22T10:49:33Z</time>
      </trkpt>
      <trkpt lat="44.3738" lon="5.82579">
        <ele>1250.539</ele>
        <time>2022-03-22T10:49:34Z</time>
      </trkpt>
      <trkpt lat="44.3738" lon="5.82578">
        <ele>1250.939</ele>
        <time>2022-03-22T10:49:35Z</time>
      </trkpt>
      <trkpt lat="44.3738" lon="5.82575">
        <ele>1251.339</ele>
        <time>2022-03-22T10:49:37Z</time>
      </trkpt>
      <trkpt lat="44.3738" lon="5.82573">
        <ele>1251.239</ele>
        <time>2022-03-22T10:49:39Z</time>
      </trkpt>
      <trkpt lat="44.3738" lon="5.82572">
        <ele>1251.139</ele>
        <time>2022-03-22T10:49:40Z</time>
      </trkpt>
      <trkpt lat="44.37381" lon="5.8257">
        <ele>1250.939</ele>
        <time>2022-03-22T10:49:41Z</time>
      </trkpt>
      <trkpt lat="44.37381" lon="5.82569">
        <ele>1250.939</ele>
        <time>2022-03-22T10:49:42Z</time>
      </trkpt>
      <trkpt lat="44.37381" lon="5.82567">
        <ele>1250.639</ele>
        <time>2022-03-22T10:49:43Z</time>
      </trkpt>
      <trkpt lat="44.37382" lon="5.82566">
        <ele>1250.639</ele>
        <time>2022-03-22T10:49:44Z</time>
      </trkpt>
      <trkpt lat="44.37382" lon="5.82564">
        <ele>1250.739</ele>
        <time>2022-03-22T10:49:45Z</time>
      </trkpt>
      <trkpt lat="44.37382" lon="5.82562">
        <ele>1250.539</ele>
        <time>2022-03-22T10:49:46Z</time>
      </trkpt>
      <trkpt lat="44.37382" lon="5.82561">
        <ele>1250.539</ele>
        <time>2022-03-22T10:49:47Z</time>
      </trkpt>
      <trkpt lat="44.37382" lon="5.82559">
        <ele>1250.739</ele>
        <time>2022-03-22T10:49:48Z</time>
      </trkpt>
      <trkpt lat="44.37382" lon="5.82557">
        <ele>1250.739</ele>
        <time>2022-03-22T10:49:49Z</time>
      </trkpt>
      <trkpt lat="44.37382" lon="5.82556">
        <ele>1251.039</ele>
        <time>2022-03-22T10:49:50Z</time>
      </trkpt>
      <trkpt lat="44.37382" lon="5.82554">
        <ele>1251.139</ele>
        <time>2022-03-22T10:49:52Z</time>
      </trkpt>
      <trkpt lat="44.37382" lon="5.82552">
        <ele>1251.239</ele>
        <time>2022-03-22T10:49:54Z</time>
      </trkpt>
      <trkpt lat="44.37382" lon="5.82549">
        <ele>1251.239</ele>
        <time>2022-03-22T10:49:56Z</time>
      </trkpt>
      <trkpt lat="44.37381" lon="5.82547">
        <ele>1251.139</ele>
        <time>2022-03-22T10:49:58Z</time>
      </trkpt>
      <trkpt lat="44.37381" lon="5.82545">
        <ele>1251.239</ele>
        <time>2022-03-22T10:50:00Z</time>
      </trkpt>
      <trkpt lat="44.37381" lon="5.82544">
        <ele>1251.339</ele>
        <time>2022-03-22T10:50:01Z</time>
      </trkpt>
      <trkpt lat="44.37381" lon="5.82543">
        <ele>1251.339</ele>
        <time>2022-03-22T10:50:02Z</time>
      </trkpt>
      <trkpt lat="44.37381" lon="5.82541">
        <ele>1251.439</ele>
        <time>2022-03-22T10:50:03Z</time>
      </trkpt>
      <trkpt lat="44.3738" lon="5.82539">
        <ele>1251.439</ele>
        <time>2022-03-22T10:50:05Z</time>
      </trkpt>
      <trkpt lat="44.37381" lon="5.82537">
        <ele>1251.539</ele>
        <time>2022-03-22T10:50:06Z</time>
      </trkpt>
      <trkpt lat="44.37381" lon="5.82536">
        <ele>1251.739</ele>
        <time>2022-03-22T10:50:07Z</time>
      </trkpt>
      <trkpt lat="44.3738" lon="5.82534">
        <ele>1251.939</ele>
        <time>2022-03-22T10:50:08Z</time>
      </trkpt>
      <trkpt lat="44.37381" lon="5.82533">
        <ele>1251.639</ele>
        <time>2022-03-22T10:50:09Z</time>
      </trkpt>
      <trkpt lat="44.37381" lon="5.82531">
        <ele>1251.439</ele>
        <time>2022-03-22T10:50:11Z</time>
      </trkpt>
      <trkpt lat="44.37382" lon="5.8253">
        <ele>1251.039</ele>
        <time>2022-03-22T10:50:12Z</time>
      </trkpt>
      <trkpt lat="44.37383" lon="5.82528">
        <ele>1250.539</ele>
        <time>2022-03-22T10:50:14Z</time>
      </trkpt>
      <trkpt lat="44.37383" lon="5.82527">
        <ele>1250.439</ele>
        <time>2022-03-22T10:50:15Z</time>
      </trkpt>
      <trkpt lat="44.37383" lon="5.82525">
        <ele>1250.139</ele>
        <time>2022-03-22T10:50:17Z</time>
      </trkpt>
      <trkpt lat="44.37383" lon="5.82523">
        <ele>1250.039</ele>
        <time>2022-03-22T10:50:19Z</time>
      </trkpt>
      <trkpt lat="44.37383" lon="5.8252">
        <ele>1249.839</ele>
        <time>2022-03-22T10:50:21Z</time>
      </trkpt>
      <trkpt lat="44.37383" lon="5.82518">
        <ele>1249.639</ele>
        <time>2022-03-22T10:50:23Z</time>
      </trkpt>
      <trkpt lat="44.37383" lon="5.82516">
        <ele>1249.439</ele>
        <time>2022-03-22T10:50:24Z</time>
      </trkpt>
      <trkpt lat="44.37383" lon="5.82515">
        <ele>1249.439</ele>
        <time>2022-03-22T10:50:25Z</time>
      </trkpt>
      <trkpt lat="44.37383" lon="5.82513">
        <ele>1249.439</ele>
        <time>2022-03-22T10:50:26Z</time>
      </trkpt>
      <trkpt lat="44.37384" lon="5.82512">
        <ele>1249.539</ele>
        <time>2022-03-22T10:50:27Z</time>
      </trkpt>
      <trkpt lat="44.37385" lon="5.8251">
        <ele>1250.139</ele>
        <time>2022-03-22T10:50:29Z</time>
      </trkpt>
      <trkpt lat="44.37385" lon="5.82508">
        <ele>1250.539</ele>
        <time>2022-03-22T10:50:30Z</time>
      </trkpt>
      <trkpt lat="44.37385" lon="5.82506">
        <ele>1250.739</ele>
        <time>2022-03-22T10:50:31Z</time>
      </trkpt>
      <trkpt lat="44.37385" lon="5.82505">
        <ele>1251.039</ele>
        <time>2022-03-22T10:50:32Z</time>
      </trkpt>
      <trkpt lat="44.37385" lon="5.82504">
        <ele>1251.339</ele>
        <time>2022-03-22T10:50:33Z</time>
      </trkpt>
      <trkpt lat="44.37385" lon="5.82502">
        <ele>1251.739</ele>
        <time>2022-03-22T10:50:34Z</time>
      </trkpt>
      <trkpt lat="44.37385" lon="5.82501">
        <ele>1252.039</ele>
        <time>2022-03-22T10:50:35Z</time>
      </trkpt>
      <trkpt lat="44.37386" lon="5.82498">
        <ele>1252.239</ele>
        <time>2022-03-22T10:50:37Z</time>
      </trkpt>
      <trkpt lat="44.37386" lon="5.82496">
        <ele>1252.339</ele>
        <time>2022-03-22T10:50:39Z</time>
      </trkpt>
      <trkpt lat="44.37386" lon="5.82493">
        <ele>1252.639</ele>
        <time>2022-03-22T10:50:41Z</time>
      </trkpt>
      <trkpt lat="44.37386" lon="5.82491">
        <ele>1252.939</ele>
        <time>2022-03-22T10:50:43Z</time>
      </trkpt>
      <trkpt lat="44.37386" lon="5.82489">
        <ele>1252.839</ele>
        <time>2022-03-22T10:50:45Z</time>
      </trkpt>
      <trkpt lat="44.37386" lon="5.82488">
        <ele>1252.339</ele>
        <time>2022-03-22T10:50:47Z</time>
      </trkpt>
      <trkpt lat="44.37386" lon="5.82485">
        <ele>1252.24</ele>
        <time>2022-03-22T10:50:49Z</time>
      </trkpt>
      <trkpt lat="44.37386" lon="5.82483">
        <ele>1251.74</ele>
        <time>2022-03-22T10:50:51Z</time>
      </trkpt>
      <trkpt lat="44.37386" lon="5.82481">
        <ele>1251.84</ele>
        <time>2022-03-22T10:50:53Z</time>
      </trkpt>
      <trkpt lat="44.37385" lon="5.82479">
        <ele>1251.74</ele>
        <time>2022-03-22T10:50:55Z</time>
      </trkpt>
      <trkpt lat="44.37385" lon="5.82476">
        <ele>1251.64</ele>
        <time>2022-03-22T10:50:57Z</time>
      </trkpt>
      <trkpt lat="44.37384" lon="5.82475">
        <ele>1251.64</ele>
        <time>2022-03-22T10:50:58Z</time>
      </trkpt>
      <trkpt lat="44.37384" lon="5.82474">
        <ele>1251.74</ele>
        <time>2022-03-22T10:50:59Z</time>
      </trkpt>
      <trkpt lat="44.37384" lon="5.82472">
        <ele>1251.64</ele>
        <time>2022-03-22T10:51:01Z</time>
      </trkpt>
      <trkpt lat="44.37385" lon="5.82469">
        <ele>1251.24</ele>
        <time>2022-03-22T10:51:03Z</time>
      </trkpt>
      <trkpt lat="44.37385" lon="5.82467">
        <ele>1251.44</ele>
        <time>2022-03-22T10:51:05Z</time>
      </trkpt>
      <trkpt lat="44.37384" lon="5.82465">
        <ele>1251.64</ele>
        <time>2022-03-22T10:51:06Z</time>
      </trkpt>
      <trkpt lat="44.37384" lon="5.82464">
        <ele>1252.04</ele>
        <time>2022-03-22T10:51:07Z</time>
      </trkpt>
      <trkpt lat="44.37384" lon="5.82462">
        <ele>1252.14</ele>
        <time>2022-03-22T10:51:08Z</time>
      </trkpt>
      <trkpt lat="44.37384" lon="5.82461">
        <ele>1252.34</ele>
        <time>2022-03-22T10:51:09Z</time>
      </trkpt>
      <trkpt lat="44.37385" lon="5.82459">
        <ele>1252.74</ele>
        <time>2022-03-22T10:51:11Z</time>
      </trkpt>
      <trkpt lat="44.37385" lon="5.82457">
        <ele>1252.94</ele>
        <time>2022-03-22T10:51:13Z</time>
      </trkpt>
      <trkpt lat="44.37386" lon="5.82455">
        <ele>1253.14</ele>
        <time>2022-03-22T10:51:15Z</time>
      </trkpt>
      <trkpt lat="44.37387" lon="5.82454">
        <ele>1253.34</ele>
        <time>2022-03-22T10:51:16Z</time>
      </trkpt>
      <trkpt lat="44.37387" lon="5.82452">
        <ele>1253.44</ele>
        <time>2022-03-22T10:51:17Z</time>
      </trkpt>
      <trkpt lat="44.37388" lon="5.8245">
        <ele>1253.54</ele>
        <time>2022-03-22T10:51:18Z</time>
      </trkpt>
      <trkpt lat="44.37388" lon="5.82449">
        <ele>1253.64</ele>
        <time>2022-03-22T10:51:19Z</time>
      </trkpt>
      <trkpt lat="44.37388" lon="5.82447">
        <ele>1253.54</ele>
        <time>2022-03-22T10:51:20Z</time>
      </trkpt>
      <trkpt lat="44.37389" lon="5.82445">
        <ele>1253.34</ele>
        <time>2022-03-22T10:51:22Z</time>
      </trkpt>
      <trkpt lat="44.37389" lon="5.82444">
        <ele>1253.24</ele>
        <time>2022-03-22T10:51:23Z</time>
      </trkpt>
      <trkpt lat="44.3739" lon="5.82442">
        <ele>1253.14</ele>
        <time>2022-03-22T10:51:25Z</time>
      </trkpt>
      <trkpt lat="44.3739" lon="5.82439">
        <ele>1252.94</ele>
        <time>2022-03-22T10:51:27Z</time>
      </trkpt>
      <trkpt lat="44.37391" lon="5.82438">
        <ele>1253.04</ele>
        <time>2022-03-22T10:51:28Z</time>
      </trkpt>
      <trkpt lat="44.37391" lon="5.82435">
        <ele>1253.04</ele>
        <time>2022-03-22T10:51:30Z</time>
      </trkpt>
      <trkpt lat="44.37392" lon="5.82434">
        <ele>1253.14</ele>
        <time>2022-03-22T10:51:31Z</time>
      </trkpt>
      <trkpt lat="44.37392" lon="5.82432">
        <ele>1253.04</ele>
        <time>2022-03-22T10:51:32Z</time>
      </trkpt>
      <trkpt lat="44.37392" lon="5.82431">
        <ele>1253.24</ele>
        <time>2022-03-22T10:51:33Z</time>
      </trkpt>
      <trkpt lat="44.37392" lon="5.82429">
        <ele>1253.44</ele>
        <time>2022-03-22T10:51:34Z</time>
      </trkpt>
      <trkpt lat="44.37392" lon="5.82428">
        <ele>1253.44</ele>
        <time>2022-03-22T10:51:35Z</time>
      </trkpt>
      <trkpt lat="44.37392" lon="5.82427">
        <ele>1253.14</ele>
        <time>2022-03-22T10:51:36Z</time>
      </trkpt>
      <trkpt lat="44.37392" lon="5.82425">
        <ele>1252.74</ele>
        <time>2022-03-22T10:51:37Z</time>
      </trkpt>
      <trkpt lat="44.37392" lon="5.82423">
        <ele>1252.24</ele>
        <time>2022-03-22T10:51:39Z</time>
      </trkpt>
      <trkpt lat="44.37392" lon="5.8242">
        <ele>1252.24</ele>
        <time>2022-03-22T10:51:41Z</time>
      </trkpt>
      <trkpt lat="44.37393" lon="5.82419">
        <ele>1252.14</ele>
        <time>2022-03-22T10:51:42Z</time>
      </trkpt>
      <trkpt lat="44.37393" lon="5.82417">
        <ele>1251.94</ele>
        <time>2022-03-22T10:51:43Z</time>
      </trkpt>
      <trkpt lat="44.37393" lon="5.82415">
        <ele>1251.64</ele>
        <time>2022-03-22T10:51:45Z</time>
      </trkpt>
      <trkpt lat="44.37393" lon="5.82413">
        <ele>1251.34</ele>
        <time>2022-03-22T10:51:47Z</time>
      </trkpt>
      <trkpt lat="44.37393" lon="5.82412">
        <ele>1251.24</ele>
        <time>2022-03-22T10:51:48Z</time>
      </trkpt>
      <trkpt lat="44.37392" lon="5.82411">
        <ele>1251.04</ele>
        <time>2022-03-22T10:51:49Z</time>
      </trkpt>
      <trkpt lat="44.37392" lon="5.82409">
        <ele>1250.84</ele>
        <time>2022-03-22T10:51:50Z</time>
      </trkpt>
      <trkpt lat="44.37392" lon="5.82406">
        <ele>1250.44</ele>
        <time>2022-03-22T10:51:52Z</time>
      </trkpt>
      <trkpt lat="44.37392" lon="5.82404">
        <ele>1250.34</ele>
        <time>2022-03-22T10:51:53Z</time>
      </trkpt>
      <trkpt lat="44.37393" lon="5.82402">
        <ele>1250.14</ele>
        <time>2022-03-22T10:51:54Z</time>
      </trkpt>
      <trkpt lat="44.37393" lon="5.82401">
        <ele>1249.84</ele>
        <time>2022-03-22T10:51:55Z</time>
      </trkpt>
      <trkpt lat="44.37394" lon="5.82399">
        <ele>1250.04</ele>
        <time>2022-03-22T10:51:56Z</time>
      </trkpt>
      <trkpt lat="44.37394" lon="5.82397">
        <ele>1249.94</ele>
        <time>2022-03-22T10:51:57Z</time>
      </trkpt>
      <trkpt lat="44.37394" lon="5.82395">
        <ele>1249.94</ele>
        <time>2022-03-22T10:51:58Z</time>
      </trkpt>
      <trkpt lat="44.37395" lon="5.82392">
        <ele>1250.04</ele>
        <time>2022-03-22T10:52:00Z</time>
      </trkpt>
      <trkpt lat="44.37395" lon="5.82391">
        <ele>1249.94</ele>
        <time>2022-03-22T10:52:01Z</time>
      </trkpt>
      <trkpt lat="44.37396" lon="5.82389">
        <ele>1249.84</ele>
        <time>2022-03-22T10:52:02Z</time>
      </trkpt>
      <trkpt lat="44.37396" lon="5.82388">
        <ele>1249.64</ele>
        <time>2022-03-22T10:52:03Z</time>
      </trkpt>
      <trkpt lat="44.37396" lon="5.82386">
        <ele>1249.44</ele>
        <time>2022-03-22T10:52:04Z</time>
      </trkpt>
      <trkpt lat="44.37396" lon="5.82385">
        <ele>1249.34</ele>
        <time>2022-03-22T10:52:05Z</time>
      </trkpt>
      <trkpt lat="44.37397" lon="5.82383">
        <ele>1249.64</ele>
        <time>2022-03-22T10:52:06Z</time>
      </trkpt>
      <trkpt lat="44.37397" lon="5.82382">
        <ele>1249.64</ele>
        <time>2022-03-22T10:52:07Z</time>
      </trkpt>
      <trkpt lat="44.37396" lon="5.8238">
        <ele>1249.64</ele>
        <time>2022-03-22T10:52:09Z</time>
      </trkpt>
      <trkpt lat="44.37396" lon="5.82378">
        <ele>1249.54</ele>
        <time>2022-03-22T10:52:11Z</time>
      </trkpt>
      <trkpt lat="44.37396" lon="5.82376">
        <ele>1249.44</ele>
        <time>2022-03-22T10:52:12Z</time>
      </trkpt>
      <trkpt lat="44.37397" lon="5.82375">
        <ele>1249.34</ele>
        <time>2022-03-22T10:52:13Z</time>
      </trkpt>
      <trkpt lat="44.37397" lon="5.82374">
        <ele>1249.04</ele>
        <time>2022-03-22T10:52:14Z</time>
      </trkpt>
      <trkpt lat="44.37397" lon="5.82372">
        <ele>1248.74</ele>
        <time>2022-03-22T10:52:15Z</time>
      </trkpt>
      <trkpt lat="44.37398" lon="5.82371">
        <ele>1248.54</ele>
        <time>2022-03-22T10:52:16Z</time>
      </trkpt>
      <trkpt lat="44.37398" lon="5.8237">
        <ele>1248.24</ele>
        <time>2022-03-22T10:52:17Z</time>
      </trkpt>
      <trkpt lat="44.37399" lon="5.82369">
        <ele>1248.24</ele>
        <time>2022-03-22T10:52:18Z</time>
      </trkpt>
      <trkpt lat="44.37399" lon="5.82367">
        <ele>1248.24</ele>
        <time>2022-03-22T10:52:19Z</time>
      </trkpt>
      <trkpt lat="44.37399" lon="5.82365">
        <ele>1248.44</ele>
        <time>2022-03-22T10:52:20Z</time>
      </trkpt>
      <trkpt lat="44.374" lon="5.82363">
        <ele>1248.44</ele>
        <time>2022-03-22T10:52:21Z</time>
      </trkpt>
      <trkpt lat="44.374" lon="5.82362">
        <ele>1248.54</ele>
        <time>2022-03-22T10:52:22Z</time>
      </trkpt>
      <trkpt lat="44.37401" lon="5.8236">
        <ele>1248.64</ele>
        <time>2022-03-22T10:52:24Z</time>
      </trkpt>
      <trkpt lat="44.37401" lon="5.82359">
        <ele>1248.74</ele>
        <time>2022-03-22T10:52:25Z</time>
      </trkpt>
      <trkpt lat="44.37401" lon="5.82357">
        <ele>1248.74</ele>
        <time>2022-03-22T10:52:26Z</time>
      </trkpt>
      <trkpt lat="44.37401" lon="5.82355">
        <ele>1248.74</ele>
        <time>2022-03-22T10:52:27Z</time>
      </trkpt>
      <trkpt lat="44.37401" lon="5.82354">
        <ele>1248.54</ele>
        <time>2022-03-22T10:52:29Z</time>
      </trkpt>
      <trkpt lat="44.37401" lon="5.82352">
        <ele>1248.54</ele>
        <time>2022-03-22T10:52:31Z</time>
      </trkpt>
      <trkpt lat="44.37402" lon="5.8235">
        <ele>1248.84</ele>
        <time>2022-03-22T10:52:33Z</time>
      </trkpt>
      <trkpt lat="44.37402" lon="5.82347">
        <ele>1248.84</ele>
        <time>2022-03-22T10:52:35Z</time>
      </trkpt>
      <trkpt lat="44.37403" lon="5.82346">
        <ele>1248.74</ele>
        <time>2022-03-22T10:52:37Z</time>
      </trkpt>
      <trkpt lat="44.37404" lon="5.82344">
        <ele>1248.64</ele>
        <time>2022-03-22T10:52:39Z</time>
      </trkpt>
      <trkpt lat="44.37404" lon="5.82342">
        <ele>1248.54</ele>
        <time>2022-03-22T10:52:41Z</time>
      </trkpt>
      <trkpt lat="44.37405" lon="5.8234">
        <ele>1248.24</ele>
        <time>2022-03-22T10:52:43Z</time>
      </trkpt>
      <trkpt lat="44.37405" lon="5.82339">
        <ele>1248.14</ele>
        <time>2022-03-22T10:52:45Z</time>
      </trkpt>
      <trkpt lat="44.37405" lon="5.82337">
        <ele>1247.64</ele>
        <time>2022-03-22T10:52:47Z</time>
      </trkpt>
      <trkpt lat="44.37406" lon="5.82336">
        <ele>1247.54</ele>
        <time>2022-03-22T10:52:49Z</time>
      </trkpt>
      <trkpt lat="44.37407" lon="5.82334">
        <ele>1247.44</ele>
        <time>2022-03-22T10:52:51Z</time>
      </trkpt>
      <trkpt lat="44.37408" lon="5.82333">
        <ele>1247.44</ele>
        <time>2022-03-22T10:52:52Z</time>
      </trkpt>
      <trkpt lat="44.37408" lon="5.82331">
        <ele>1247.44</ele>
        <time>2022-03-22T10:52:53Z</time>
      </trkpt>
      <trkpt lat="44.37408" lon="5.8233">
        <ele>1247.34</ele>
        <time>2022-03-22T10:52:54Z</time>
      </trkpt>
      <trkpt lat="44.37409" lon="5.82329">
        <ele>1247.14</ele>
        <time>2022-03-22T10:52:55Z</time>
      </trkpt>
      <trkpt lat="44.37409" lon="5.82327">
        <ele>1246.84</ele>
        <time>2022-03-22T10:52:57Z</time>
      </trkpt>
      <trkpt lat="44.3741" lon="5.82325">
        <ele>1246.84</ele>
        <time>2022-03-22T10:52:58Z</time>
      </trkpt>
      <trkpt lat="44.3741" lon="5.82323">
        <ele>1246.64</ele>
        <time>2022-03-22T10:53:00Z</time>
      </trkpt>
      <trkpt lat="44.37411" lon="5.82321">
        <ele>1246.041</ele>
        <time>2022-03-22T10:53:02Z</time>
      </trkpt>
      <trkpt lat="44.37411" lon="5.8232">
        <ele>1245.741</ele>
        <time>2022-03-22T10:53:03Z</time>
      </trkpt>
      <trkpt lat="44.37412" lon="5.82318">
        <ele>1245.441</ele>
        <time>2022-03-22T10:53:05Z</time>
      </trkpt>
      <trkpt lat="44.37412" lon="5.82316">
        <ele>1245.241</ele>
        <time>2022-03-22T10:53:06Z</time>
      </trkpt>
      <trkpt lat="44.37412" lon="5.82315">
        <ele>1245.041</ele>
        <time>2022-03-22T10:53:07Z</time>
      </trkpt>
      <trkpt lat="44.37412" lon="5.82313">
        <ele>1244.441</ele>
        <time>2022-03-22T10:53:09Z</time>
      </trkpt>
      <trkpt lat="44.37413" lon="5.82312">
        <ele>1244.241</ele>
        <time>2022-03-22T10:53:10Z</time>
      </trkpt>
      <trkpt lat="44.37414" lon="5.8231">
        <ele>1243.841</ele>
        <time>2022-03-22T10:53:12Z</time>
      </trkpt>
      <trkpt lat="44.37414" lon="5.82309">
        <ele>1243.541</ele>
        <time>2022-03-22T10:53:13Z</time>
      </trkpt>
      <trkpt lat="44.37414" lon="5.82307">
        <ele>1243.141</ele>
        <time>2022-03-22T10:53:15Z</time>
      </trkpt>
      <trkpt lat="44.37414" lon="5.82305">
        <ele>1242.541</ele>
        <time>2022-03-22T10:53:17Z</time>
      </trkpt>
      <trkpt lat="44.37415" lon="5.82303">
        <ele>1242.441</ele>
        <time>2022-03-22T10:53:18Z</time>
      </trkpt>
      <trkpt lat="44.37415" lon="5.82301">
        <ele>1242.241</ele>
        <time>2022-03-22T10:53:20Z</time>
      </trkpt>
      <trkpt lat="44.37415" lon="5.82299">
        <ele>1242.141</ele>
        <time>2022-03-22T10:53:21Z</time>
      </trkpt>
      <trkpt lat="44.37415" lon="5.82298">
        <ele>1241.941</ele>
        <time>2022-03-22T10:53:22Z</time>
      </trkpt>
      <trkpt lat="44.37415" lon="5.82296">
        <ele>1241.641</ele>
        <time>2022-03-22T10:53:23Z</time>
      </trkpt>
      <trkpt lat="44.37415" lon="5.82294">
        <ele>1241.141</ele>
        <time>2022-03-22T10:53:25Z</time>
      </trkpt>
      <trkpt lat="44.37416" lon="5.82292">
        <ele>1240.541</ele>
        <time>2022-03-22T10:53:27Z</time>
      </trkpt>
      <trkpt lat="44.37417" lon="5.8229">
        <ele>1240.141</ele>
        <time>2022-03-22T10:53:29Z</time>
      </trkpt>
      <trkpt lat="44.37417" lon="5.82288">
        <ele>1239.841</ele>
        <time>2022-03-22T10:53:30Z</time>
      </trkpt>
      <trkpt lat="44.37418" lon="5.82287">
        <ele>1239.641</ele>
        <time>2022-03-22T10:53:31Z</time>
      </trkpt>
      <trkpt lat="44.37418" lon="5.82286">
        <ele>1239.641</ele>
        <time>2022-03-22T10:53:32Z</time>
      </trkpt>
      <trkpt lat="44.37419" lon="5.82284">
        <ele>1239.641</ele>
        <time>2022-03-22T10:53:34Z</time>
      </trkpt>
      <trkpt lat="44.3742" lon="5.82282">
        <ele>1239.541</ele>
        <time>2022-03-22T10:53:36Z</time>
      </trkpt>
      <trkpt lat="44.3742" lon="5.8228">
        <ele>1239.441</ele>
        <time>2022-03-22T10:53:38Z</time>
      </trkpt>
      <trkpt lat="44.3742" lon="5.82279">
        <ele>1239.441</ele>
        <time>2022-03-22T10:53:39Z</time>
      </trkpt>
      <trkpt lat="44.37421" lon="5.82277">
        <ele>1239.241</ele>
        <time>2022-03-22T10:53:41Z</time>
      </trkpt>
      <trkpt lat="44.37421" lon="5.82275">
        <ele>1238.941</ele>
        <time>2022-03-22T10:53:43Z</time>
      </trkpt>
      <trkpt lat="44.37422" lon="5.82274">
        <ele>1238.741</ele>
        <time>2022-03-22T10:53:44Z</time>
      </trkpt>
      <trkpt lat="44.37422" lon="5.82272">
        <ele>1238.641</ele>
        <time>2022-03-22T10:53:45Z</time>
      </trkpt>
      <trkpt lat="44.37422" lon="5.82271">
        <ele>1238.641</ele>
        <time>2022-03-22T10:53:46Z</time>
      </trkpt>
      <trkpt lat="44.37423" lon="5.82269">
        <ele>1238.341</ele>
        <time>2022-03-22T10:53:48Z</time>
      </trkpt>
      <trkpt lat="44.37424" lon="5.82267">
        <ele>1238.441</ele>
        <time>2022-03-22T10:53:50Z</time>
      </trkpt>
      <trkpt lat="44.37425" lon="5.82266">
        <ele>1238.541</ele>
        <time>2022-03-22T10:53:51Z</time>
      </trkpt>
      <trkpt lat="44.37425" lon="5.82264">
        <ele>1238.741</ele>
        <time>2022-03-22T10:53:52Z</time>
      </trkpt>
      <trkpt lat="44.37426" lon="5.82263">
        <ele>1238.641</ele>
        <time>2022-03-22T10:53:53Z</time>
      </trkpt>
      <trkpt lat="44.37426" lon="5.82261">
        <ele>1238.641</ele>
        <time>2022-03-22T10:53:54Z</time>
      </trkpt>
      <trkpt lat="44.37427" lon="5.82259">
        <ele>1238.441</ele>
        <time>2022-03-22T10:53:56Z</time>
      </trkpt>
      <trkpt lat="44.37427" lon="5.82258">
        <ele>1238.241</ele>
        <time>2022-03-22T10:53:58Z</time>
      </trkpt>
      <trkpt lat="44.37427" lon="5.82256">
        <ele>1237.841</ele>
        <time>2022-03-22T10:54:00Z</time>
      </trkpt>
      <trkpt lat="44.37429" lon="5.82255">
        <ele>1237.541</ele>
        <time>2022-03-22T10:54:02Z</time>
      </trkpt>
      <trkpt lat="44.37429" lon="5.82253">
        <ele>1237.041</ele>
        <time>2022-03-22T10:54:04Z</time>
      </trkpt>
      <trkpt lat="44.3743" lon="5.82252">
        <ele>1237.041</ele>
        <time>2022-03-22T10:54:05Z</time>
      </trkpt>
      <trkpt lat="44.3743" lon="5.82251">
        <ele>1237.041</ele>
        <time>2022-03-22T10:54:06Z</time>
      </trkpt>
      <trkpt lat="44.3743" lon="5.82248">
        <ele>1236.441</ele>
        <time>2022-03-22T10:54:08Z</time>
      </trkpt>
      <trkpt lat="44.3743" lon="5.82247">
        <ele>1236.141</ele>
        <time>2022-03-22T10:54:09Z</time>
      </trkpt>
      <trkpt lat="44.3743" lon="5.82245">
        <ele>1236.141</ele>
        <time>2022-03-22T10:54:10Z</time>
      </trkpt>
      <trkpt lat="44.37431" lon="5.82244">
        <ele>1236.141</ele>
        <time>2022-03-22T10:54:11Z</time>
      </trkpt>
      <trkpt lat="44.37431" lon="5.82243">
        <ele>1236.141</ele>
        <time>2022-03-22T10:54:12Z</time>
      </trkpt>
      <trkpt lat="44.37431" lon="5.82241">
        <ele>1236.241</ele>
        <time>2022-03-22T10:54:13Z</time>
      </trkpt>
      <trkpt lat="44.37431" lon="5.82239">
        <ele>1236.141</ele>
        <time>2022-03-22T10:54:15Z</time>
      </trkpt>
      <trkpt lat="44.37431" lon="5.82238">
        <ele>1236.041</ele>
        <time>2022-03-22T10:54:17Z</time>
      </trkpt>
      <trkpt lat="44.3743" lon="5.82236">
        <ele>1236.041</ele>
        <time>2022-03-22T10:54:19Z</time>
      </trkpt>
      <trkpt lat="44.3743" lon="5.82234">
        <ele>1236.041</ele>
        <time>2022-03-22T10:54:21Z</time>
      </trkpt>
      <trkpt lat="44.3743" lon="5.82232">
        <ele>1236.141</ele>
        <time>2022-03-22T10:54:22Z</time>
      </trkpt>
      <trkpt lat="44.3743" lon="5.82231">
        <ele>1236.041</ele>
        <time>2022-03-22T10:54:23Z</time>
      </trkpt>
      <trkpt lat="44.3743" lon="5.82228">
        <ele>1235.941</ele>
        <time>2022-03-22T10:54:25Z</time>
      </trkpt>
      <trkpt lat="44.3743" lon="5.82227">
        <ele>1235.941</ele>
        <time>2022-03-22T10:54:26Z</time>
      </trkpt>
      <trkpt lat="44.3743" lon="5.82226">
        <ele>1236.041</ele>
        <time>2022-03-22T10:54:27Z</time>
      </trkpt>
      <trkpt lat="44.3743" lon="5.82224">
        <ele>1236.741</ele>
        <time>2022-03-22T10:54:29Z</time>
      </trkpt>
      <trkpt lat="44.3743" lon="5.82221">
        <ele>1237.241</ele>
        <time>2022-03-22T10:54:31Z</time>
      </trkpt>
      <trkpt lat="44.3743" lon="5.8222">
        <ele>1237.441</ele>
        <time>2022-03-22T10:54:33Z</time>
      </trkpt>
      <trkpt lat="44.3743" lon="5.82218">
        <ele>1237.841</ele>
        <time>2022-03-22T10:54:35Z</time>
      </trkpt>
      <trkpt lat="44.37431" lon="5.82215">
        <ele>1237.841</ele>
        <time>2022-03-22T10:54:37Z</time>
      </trkpt>
      <trkpt lat="44.37431" lon="5.82214">
        <ele>1237.741</ele>
        <time>2022-03-22T10:54:38Z</time>
      </trkpt>
      <trkpt lat="44.37431" lon="5.82212">
        <ele>1237.741</ele>
        <time>2022-03-22T10:54:39Z</time>
      </trkpt>
      <trkpt lat="44.37431" lon="5.82211">
        <ele>1237.541</ele>
        <time>2022-03-22T10:54:40Z</time>
      </trkpt>
      <trkpt lat="44.37431" lon="5.8221">
        <ele>1237.541</ele>
        <time>2022-03-22T10:54:41Z</time>
      </trkpt>
      <trkpt lat="44.37431" lon="5.82208">
        <ele>1237.041</ele>
        <time>2022-03-22T10:54:43Z</time>
      </trkpt>
      <trkpt lat="44.37432" lon="5.82207">
        <ele>1236.841</ele>
        <time>2022-03-22T10:54:44Z</time>
      </trkpt>
      <trkpt lat="44.37433" lon="5.82205">
        <ele>1236.641</ele>
        <time>2022-03-22T10:54:46Z</time>
      </trkpt>
      <trkpt lat="44.37434" lon="5.82203">
        <ele>1236.341</ele>
        <time>2022-03-22T10:54:48Z</time>
      </trkpt>
      <trkpt lat="44.37434" lon="5.82202">
        <ele>1236.241</ele>
        <time>2022-03-22T10:54:49Z</time>
      </trkpt>
      <trkpt lat="44.37434" lon="5.822">
        <ele>1235.641</ele>
        <time>2022-03-22T10:54:51Z</time>
      </trkpt>
      <trkpt lat="44.37435" lon="5.82199">
        <ele>1235.541</ele>
        <time>2022-03-22T10:54:52Z</time>
      </trkpt>
      <trkpt lat="44.37435" lon="5.82197">
        <ele>1235.341</ele>
        <time>2022-03-22T10:54:53Z</time>
      </trkpt>
      <trkpt lat="44.37435" lon="5.82195">
        <ele>1235.741</ele>
        <time>2022-03-22T10:54:55Z</time>
      </trkpt>
      <trkpt lat="44.37435" lon="5.82193">
        <ele>1236.041</ele>
        <time>2022-03-22T10:54:57Z</time>
      </trkpt>
      <trkpt lat="44.37435" lon="5.82191">
        <ele>1236.041</ele>
        <time>2022-03-22T10:54:59Z</time>
      </trkpt>
      <trkpt lat="44.37434" lon="5.8219">
        <ele>1235.741</ele>
        <time>2022-03-22T10:55:00Z</time>
      </trkpt>
      <trkpt lat="44.37435" lon="5.82187">
        <ele>1235.941</ele>
        <time>2022-03-22T10:55:02Z</time>
      </trkpt>
      <trkpt lat="44.37435" lon="5.82185">
        <ele>1235.941</ele>
        <time>2022-03-22T10:55:04Z</time>
      </trkpt>
      <trkpt lat="44.37435" lon="5.82184">
        <ele>1235.841</ele>
        <time>2022-03-22T10:55:05Z</time>
      </trkpt>
      <trkpt lat="44.37436" lon="5.82182">
        <ele>1235.541</ele>
        <time>2022-03-22T10:55:07Z</time>
      </trkpt>
      <trkpt lat="44.37436" lon="5.82181">
        <ele>1235.441</ele>
        <time>2022-03-22T10:55:08Z</time>
      </trkpt>
      <trkpt lat="44.37436" lon="5.8218">
        <ele>1235.141</ele>
        <time>2022-03-22T10:55:09Z</time>
      </trkpt>
      <trkpt lat="44.37436" lon="5.82178">
        <ele>1235.241</ele>
        <time>2022-03-22T10:55:11Z</time>
      </trkpt>
      <trkpt lat="44.37435" lon="5.82176">
        <ele>1234.741</ele>
        <time>2022-03-22T10:55:13Z</time>
      </trkpt>
      <trkpt lat="44.37435" lon="5.82174">
        <ele>1234.541</ele>
        <time>2022-03-22T10:55:15Z</time>
      </trkpt>
      <trkpt lat="44.37435" lon="5.82173">
        <ele>1234.541</ele>
        <time>2022-03-22T10:55:16Z</time>
      </trkpt>
      <trkpt lat="44.37436" lon="5.82171">
        <ele>1234.341</ele>
        <time>2022-03-22T10:55:17Z</time>
      </trkpt>
      <trkpt lat="44.37436" lon="5.82169">
        <ele>1234.041</ele>
        <time>2022-03-22T10:55:19Z</time>
      </trkpt>
      <trkpt lat="44.37436" lon="5.82167">
        <ele>1233.941</ele>
        <time>2022-03-22T10:55:20Z</time>
      </trkpt>
      <trkpt lat="44.37436" lon="5.82166">
        <ele>1234.041</ele>
        <time>2022-03-22T10:55:21Z</time>
      </trkpt>
      <trkpt lat="44.37436" lon="5.82164">
        <ele>1234.141</ele>
        <time>2022-03-22T10:55:23Z</time>
      </trkpt>
      <trkpt lat="44.37435" lon="5.82163">
        <ele>1234.341</ele>
        <time>2022-03-22T10:55:25Z</time>
      </trkpt>
      <trkpt lat="44.37435" lon="5.8216">
        <ele>1234.541</ele>
        <time>2022-03-22T10:55:28Z</time>
      </trkpt>
      <trkpt lat="44.37435" lon="5.82158">
        <ele>1234.541</ele>
        <time>2022-03-22T10:55:29Z</time>
      </trkpt>
      <trkpt lat="44.37435" lon="5.82157">
        <ele>1234.541</ele>
        <time>2022-03-22T10:55:30Z</time>
      </trkpt>
      <trkpt lat="44.37435" lon="5.82155">
        <ele>1234.542</ele>
        <time>2022-03-22T10:55:31Z</time>
      </trkpt>
      <trkpt lat="44.37435" lon="5.82153">
        <ele>1234.442</ele>
        <time>2022-03-22T10:55:32Z</time>
      </trkpt>
      <trkpt lat="44.37435" lon="5.82151">
        <ele>1234.242</ele>
        <time>2022-03-22T10:55:33Z</time>
      </trkpt>
      <trkpt lat="44.37435" lon="5.8215">
        <ele>1234.442</ele>
        <time>2022-03-22T10:55:34Z</time>
      </trkpt>
      <trkpt lat="44.37435" lon="5.82148">
        <ele>1234.442</ele>
        <time>2022-03-22T10:55:35Z</time>
      </trkpt>
      <trkpt lat="44.37435" lon="5.82147">
        <ele>1234.442</ele>
        <time>2022-03-22T10:55:36Z</time>
      </trkpt>
      <trkpt lat="44.37436" lon="5.82145">
        <ele>1234.342</ele>
        <time>2022-03-22T10:55:37Z</time>
      </trkpt>
      <trkpt lat="44.37436" lon="5.82144">
        <ele>1234.042</ele>
        <time>2022-03-22T10:55:38Z</time>
      </trkpt>
      <trkpt lat="44.37437" lon="5.82143">
        <ele>1233.842</ele>
        <time>2022-03-22T10:55:39Z</time>
      </trkpt>
      <trkpt lat="44.37437" lon="5.82141">
        <ele>1233.742</ele>
        <time>2022-03-22T10:55:40Z</time>
      </trkpt>
      <trkpt lat="44.37438" lon="5.82139">
        <ele>1233.642</ele>
        <time>2022-03-22T10:55:42Z</time>
      </trkpt>
      <trkpt lat="44.37438" lon="5.82138">
        <ele>1233.642</ele>
        <time>2022-03-22T10:55:43Z</time>
      </trkpt>
      <trkpt lat="44.37439" lon="5.82135">
        <ele>1233.442</ele>
        <time>2022-03-22T10:55:45Z</time>
      </trkpt>
      <trkpt lat="44.37439" lon="5.82134">
        <ele>1233.042</ele>
        <time>2022-03-22T10:55:47Z</time>
      </trkpt>
      <trkpt lat="44.3744" lon="5.82131">
        <ele>1232.742</ele>
        <time>2022-03-22T10:55:49Z</time>
      </trkpt>
      <trkpt lat="44.3744" lon="5.8213">
        <ele>1232.642</ele>
        <time>2022-03-22T10:55:50Z</time>
      </trkpt>
      <trkpt lat="44.3744" lon="5.82128">
        <ele>1232.542</ele>
        <time>2022-03-22T10:55:51Z</time>
      </trkpt>
      <trkpt lat="44.37441" lon="5.82127">
        <ele>1232.642</ele>
        <time>2022-03-22T10:55:53Z</time>
      </trkpt>
      <trkpt lat="44.37441" lon="5.82124">
        <ele>1232.742</ele>
        <time>2022-03-22T10:55:55Z</time>
      </trkpt>
      <trkpt lat="44.37441" lon="5.82123">
        <ele>1232.642</ele>
        <time>2022-03-22T10:55:57Z</time>
      </trkpt>
      <trkpt lat="44.37441" lon="5.8212">
        <ele>1232.442</ele>
        <time>2022-03-22T10:55:59Z</time>
      </trkpt>
      <trkpt lat="44.37441" lon="5.82118">
        <ele>1232.142</ele>
        <time>2022-03-22T10:56:01Z</time>
      </trkpt>
      <trkpt lat="44.37441" lon="5.82116">
        <ele>1231.942</ele>
        <time>2022-03-22T10:56:02Z</time>
      </trkpt>
      <trkpt lat="44.3744" lon="5.82114">
        <ele>1231.542</ele>
        <time>2022-03-22T10:56:03Z</time>
      </trkpt>
      <trkpt lat="44.37441" lon="5.82113">
        <ele>1231.342</ele>
        <time>2022-03-22T10:56:04Z</time>
      </trkpt>
      <trkpt lat="44.37441" lon="5.82111">
        <ele>1231.242</ele>
        <time>2022-03-22T10:56:05Z</time>
      </trkpt>
      <trkpt lat="44.37442" lon="5.8211">
        <ele>1231.042</ele>
        <time>2022-03-22T10:56:06Z</time>
      </trkpt>
      <trkpt lat="44.37441" lon="5.82107">
        <ele>1230.842</ele>
        <time>2022-03-22T10:56:08Z</time>
      </trkpt>
      <trkpt lat="44.37441" lon="5.82106">
        <ele>1230.842</ele>
        <time>2022-03-22T10:56:09Z</time>
      </trkpt>
      <trkpt lat="44.37441" lon="5.82104">
        <ele>1230.742</ele>
        <time>2022-03-22T10:56:10Z</time>
      </trkpt>
      <trkpt lat="44.37441" lon="5.82103">
        <ele>1230.542</ele>
        <time>2022-03-22T10:56:11Z</time>
      </trkpt>
      <trkpt lat="44.37442" lon="5.82101">
        <ele>1230.342</ele>
        <time>2022-03-22T10:56:12Z</time>
      </trkpt>
      <trkpt lat="44.37442" lon="5.821">
        <ele>1230.142</ele>
        <time>2022-03-22T10:56:13Z</time>
      </trkpt>
      <trkpt lat="44.37442" lon="5.82098">
        <ele>1229.742</ele>
        <time>2022-03-22T10:56:14Z</time>
      </trkpt>
      <trkpt lat="44.37442" lon="5.82097">
        <ele>1229.642</ele>
        <time>2022-03-22T10:56:15Z</time>
      </trkpt>
      <trkpt lat="44.37442" lon="5.82095">
        <ele>1229.442</ele>
        <time>2022-03-22T10:56:16Z</time>
      </trkpt>
      <trkpt lat="44.37443" lon="5.82094">
        <ele>1229.242</ele>
        <time>2022-03-22T10:56:17Z</time>
      </trkpt>
      <trkpt lat="44.37443" lon="5.82092">
        <ele>1229.042</ele>
        <time>2022-03-22T10:56:19Z</time>
      </trkpt>
      <trkpt lat="44.37443" lon="5.8209">
        <ele>1228.842</ele>
        <time>2022-03-22T10:56:21Z</time>
      </trkpt>
      <trkpt lat="44.37443" lon="5.82088">
        <ele>1228.742</ele>
        <time>2022-03-22T10:56:23Z</time>
      </trkpt>
      <trkpt lat="44.37443" lon="5.82086">
        <ele>1228.642</ele>
        <time>2022-03-22T10:56:24Z</time>
      </trkpt>
      <trkpt lat="44.37443" lon="5.82085">
        <ele>1228.542</ele>
        <time>2022-03-22T10:56:25Z</time>
      </trkpt>
      <trkpt lat="44.37443" lon="5.82083">
        <ele>1228.442</ele>
        <time>2022-03-22T10:56:27Z</time>
      </trkpt>
      <trkpt lat="44.37443" lon="5.82081">
        <ele>1228.642</ele>
        <time>2022-03-22T10:56:29Z</time>
      </trkpt>
      <trkpt lat="44.37443" lon="5.82079">
        <ele>1228.642</ele>
        <time>2022-03-22T10:56:31Z</time>
      </trkpt>
      <trkpt lat="44.37443" lon="5.82078">
        <ele>1228.242</ele>
        <time>2022-03-22T10:56:33Z</time>
      </trkpt>
      <trkpt lat="44.37443" lon="5.82076">
        <ele>1228.242</ele>
        <time>2022-03-22T10:56:34Z</time>
      </trkpt>
      <trkpt lat="44.37443" lon="5.82074">
        <ele>1228.342</ele>
        <time>2022-03-22T10:56:36Z</time>
      </trkpt>
      <trkpt lat="44.37443" lon="5.82072">
        <ele>1228.242</ele>
        <time>2022-03-22T10:56:37Z</time>
      </trkpt>
      <trkpt lat="44.37443" lon="5.82071">
        <ele>1228.442</ele>
        <time>2022-03-22T10:56:38Z</time>
      </trkpt>
      <trkpt lat="44.37443" lon="5.8207">
        <ele>1228.442</ele>
        <time>2022-03-22T10:56:39Z</time>
      </trkpt>
      <trkpt lat="44.37443" lon="5.82067">
        <ele>1228.242</ele>
        <time>2022-03-22T10:56:41Z</time>
      </trkpt>
      <trkpt lat="44.37442" lon="5.82065">
        <ele>1228.542</ele>
        <time>2022-03-22T10:56:42Z</time>
      </trkpt>
      <trkpt lat="44.37443" lon="5.82063">
        <ele>1228.742</ele>
        <time>2022-03-22T10:56:43Z</time>
      </trkpt>
      <trkpt lat="44.37443" lon="5.82062">
        <ele>1228.842</ele>
        <time>2022-03-22T10:56:44Z</time>
      </trkpt>
      <trkpt lat="44.37443" lon="5.8206">
        <ele>1228.942</ele>
        <time>2022-03-22T10:56:45Z</time>
      </trkpt>
      <trkpt lat="44.37442" lon="5.82058">
        <ele>1228.942</ele>
        <time>2022-03-22T10:56:47Z</time>
      </trkpt>
      <trkpt lat="44.37442" lon="5.82056">
        <ele>1228.842</ele>
        <time>2022-03-22T10:56:49Z</time>
      </trkpt>
      <trkpt lat="44.37443" lon="5.82054">
        <ele>1228.742</ele>
        <time>2022-03-22T10:56:50Z</time>
      </trkpt>
      <trkpt lat="44.37443" lon="5.82053">
        <ele>1228.842</ele>
        <time>2022-03-22T10:56:51Z</time>
      </trkpt>
      <trkpt lat="44.37443" lon="5.82051">
        <ele>1228.842</ele>
        <time>2022-03-22T10:56:52Z</time>
      </trkpt>
      <trkpt lat="44.37443" lon="5.82049">
        <ele>1229.042</ele>
        <time>2022-03-22T10:56:54Z</time>
      </trkpt>
      <trkpt lat="44.37442" lon="5.82047">
        <ele>1229.042</ele>
        <time>2022-03-22T10:56:56Z</time>
      </trkpt>
      <trkpt lat="44.37442" lon="5.82045">
        <ele>1229.142</ele>
        <time>2022-03-22T10:56:57Z</time>
      </trkpt>
      <trkpt lat="44.37443" lon="5.82043">
        <ele>1229.242</ele>
        <time>2022-03-22T10:56:59Z</time>
      </trkpt>
      <trkpt lat="44.37443" lon="5.82041">
        <ele>1229.442</ele>
        <time>2022-03-22T10:57:01Z</time>
      </trkpt>
      <trkpt lat="44.37442" lon="5.8204">
        <ele>1229.642</ele>
        <time>2022-03-22T10:57:03Z</time>
      </trkpt>
      <trkpt lat="44.37443" lon="5.82038">
        <ele>1229.942</ele>
        <time>2022-03-22T10:57:05Z</time>
      </trkpt>
      <trkpt lat="44.37443" lon="5.82036">
        <ele>1230.242</ele>
        <time>2022-03-22T10:57:07Z</time>
      </trkpt>
      <trkpt lat="44.37444" lon="5.82034">
        <ele>1230.142</ele>
        <time>2022-03-22T10:57:09Z</time>
      </trkpt>
      <trkpt lat="44.37444" lon="5.82032">
        <ele>1230.043</ele>
        <time>2022-03-22T10:57:11Z</time>
      </trkpt>
      <trkpt lat="44.37444" lon="5.8203">
        <ele>1230.143</ele>
        <time>2022-03-22T10:57:12Z</time>
      </trkpt>
      <trkpt lat="44.37444" lon="5.82029">
        <ele>1230.243</ele>
        <time>2022-03-22T10:57:13Z</time>
      </trkpt>
      <trkpt lat="44.37443" lon="5.82028">
        <ele>1230.943</ele>
        <time>2022-03-22T10:57:15Z</time>
      </trkpt>
      <trkpt lat="44.37443" lon="5.82026">
        <ele>1231.643</ele>
        <time>2022-03-22T10:57:17Z</time>
      </trkpt>
      <trkpt lat="44.37443" lon="5.82024">
        <ele>1232.243</ele>
        <time>2022-03-22T10:57:19Z</time>
      </trkpt>
      <trkpt lat="44.37443" lon="5.82023">
        <ele>1232.743</ele>
        <time>2022-03-22T10:57:22Z</time>
      </trkpt>
      <trkpt lat="44.37442" lon="5.82021">
        <ele>1233.143</ele>
        <time>2022-03-22T10:57:24Z</time>
      </trkpt>
      <trkpt lat="44.37442" lon="5.8202">
        <ele>1233.743</ele>
        <time>2022-03-22T10:57:26Z</time>
      </trkpt>
      <trkpt lat="44.37442" lon="5.82018">
        <ele>1234.043</ele>
        <time>2022-03-22T10:57:28Z</time>
      </trkpt>
      <trkpt lat="44.37442" lon="5.82016">
        <ele>1233.943</ele>
        <time>2022-03-22T10:57:29Z</time>
      </trkpt>
      <trkpt lat="44.37442" lon="5.82014">
        <ele>1233.943</ele>
        <time>2022-03-22T10:57:31Z</time>
      </trkpt>
      <trkpt lat="44.37442" lon="5.82012">
        <ele>1233.843</ele>
        <time>2022-03-22T10:57:32Z</time>
      </trkpt>
      <trkpt lat="44.37442" lon="5.82011">
        <ele>1233.643</ele>
        <time>2022-03-22T10:57:33Z</time>
      </trkpt>
      <trkpt lat="44.37442" lon="5.82009">
        <ele>1233.643</ele>
        <time>2022-03-22T10:57:34Z</time>
      </trkpt>
      <trkpt lat="44.37443" lon="5.82007">
        <ele>1233.443</ele>
        <time>2022-03-22T10:57:35Z</time>
      </trkpt>
      <trkpt lat="44.37443" lon="5.82006">
        <ele>1233.343</ele>
        <time>2022-03-22T10:57:36Z</time>
      </trkpt>
      <trkpt lat="44.37443" lon="5.82004">
        <ele>1233.343</ele>
        <time>2022-03-22T10:57:37Z</time>
      </trkpt>
      <trkpt lat="44.37443" lon="5.82002">
        <ele>1233.443</ele>
        <time>2022-03-22T10:57:38Z</time>
      </trkpt>
      <trkpt lat="44.37443" lon="5.82001">
        <ele>1233.643</ele>
        <time>2022-03-22T10:57:39Z</time>
      </trkpt>
      <trkpt lat="44.37444" lon="5.81999">
        <ele>1233.343</ele>
        <time>2022-03-22T10:57:41Z</time>
      </trkpt>
      <trkpt lat="44.37444" lon="5.81997">
        <ele>1233.143</ele>
        <time>2022-03-22T10:57:43Z</time>
      </trkpt>
      <trkpt lat="44.37445" lon="5.81995">
        <ele>1233.243</ele>
        <time>2022-03-22T10:57:45Z</time>
      </trkpt>
      <trkpt lat="44.37444" lon="5.81993">
        <ele>1233.643</ele>
        <time>2022-03-22T10:57:47Z</time>
      </trkpt>
      <trkpt lat="44.37444" lon="5.81992">
        <ele>1233.943</ele>
        <time>2022-03-22T10:57:49Z</time>
      </trkpt>
      <trkpt lat="44.37444" lon="5.8199">
        <ele>1234.243</ele>
        <time>2022-03-22T10:57:51Z</time>
      </trkpt>
      <trkpt lat="44.37444" lon="5.81989">
        <ele>1234.443</ele>
        <time>2022-03-22T10:57:52Z</time>
      </trkpt>
      <trkpt lat="44.37444" lon="5.81987">
        <ele>1234.443</ele>
        <time>2022-03-22T10:57:53Z</time>
      </trkpt>
      <trkpt lat="44.37444" lon="5.81986">
        <ele>1234.343</ele>
        <time>2022-03-22T10:57:54Z</time>
      </trkpt>
      <trkpt lat="44.37445" lon="5.81984">
        <ele>1234.243</ele>
        <time>2022-03-22T10:57:55Z</time>
      </trkpt>
      <trkpt lat="44.37445" lon="5.81983">
        <ele>1234.243</ele>
        <time>2022-03-22T10:57:56Z</time>
      </trkpt>
      <trkpt lat="44.37446" lon="5.8198">
        <ele>1234.243</ele>
        <time>2022-03-22T10:57:58Z</time>
      </trkpt>
      <trkpt lat="44.37447" lon="5.81978">
        <ele>1234.343</ele>
        <time>2022-03-22T10:58:00Z</time>
      </trkpt>
      <trkpt lat="44.37447" lon="5.81976">
        <ele>1234.743</ele>
        <time>2022-03-22T10:58:02Z</time>
      </trkpt>
      <trkpt lat="44.37448" lon="5.81974">
        <ele>1234.643</ele>
        <time>2022-03-22T10:58:04Z</time>
      </trkpt>
      <trkpt lat="44.37448" lon="5.81972">
        <ele>1234.543</ele>
        <time>2022-03-22T10:58:06Z</time>
      </trkpt>
      <trkpt lat="44.37448" lon="5.81971">
        <ele>1234.643</ele>
        <time>2022-03-22T10:58:07Z</time>
      </trkpt>
      <trkpt lat="44.37449" lon="5.8197">
        <ele>1234.543</ele>
        <time>2022-03-22T10:58:08Z</time>
      </trkpt>
      <trkpt lat="44.3745" lon="5.81968">
        <ele>1234.243</ele>
        <time>2022-03-22T10:58:09Z</time>
      </trkpt>
      <trkpt lat="44.3745" lon="5.81966">
        <ele>1234.243</ele>
        <time>2022-03-22T10:58:11Z</time>
      </trkpt>
      <trkpt lat="44.37451" lon="5.81965">
        <ele>1234.243</ele>
        <time>2022-03-22T10:58:13Z</time>
      </trkpt>
      <trkpt lat="44.3745" lon="5.81963">
        <ele>1234.443</ele>
        <time>2022-03-22T10:58:16Z</time>
      </trkpt>
      <trkpt lat="44.3745" lon="5.81961">
        <ele>1234.143</ele>
        <time>2022-03-22T10:58:19Z</time>
      </trkpt>
      <trkpt lat="44.37451" lon="5.81959">
        <ele>1233.743</ele>
        <time>2022-03-22T10:58:21Z</time>
      </trkpt>
      <trkpt lat="44.37451" lon="5.81958">
        <ele>1233.543</ele>
        <time>2022-03-22T10:58:22Z</time>
      </trkpt>
      <trkpt lat="44.37451" lon="5.81956">
        <ele>1233.443</ele>
        <time>2022-03-22T10:58:23Z</time>
      </trkpt>
      <trkpt lat="44.37451" lon="5.81954">
        <ele>1233.043</ele>
        <time>2022-03-22T10:58:25Z</time>
      </trkpt>
      <trkpt lat="44.37451" lon="5.81952">
        <ele>1232.543</ele>
        <time>2022-03-22T10:58:27Z</time>
      </trkpt>
      <trkpt lat="44.37451" lon="5.8195">
        <ele>1232.543</ele>
        <time>2022-03-22T10:58:28Z</time>
      </trkpt>
      <trkpt lat="44.37451" lon="5.81949">
        <ele>1232.243</ele>
        <time>2022-03-22T10:58:29Z</time>
      </trkpt>
      <trkpt lat="44.37452" lon="5.81946">
        <ele>1232.043</ele>
        <time>2022-03-22T10:58:31Z</time>
      </trkpt>
      <trkpt lat="44.37452" lon="5.81944">
        <ele>1231.943</ele>
        <time>2022-03-22T10:58:33Z</time>
      </trkpt>
      <trkpt lat="44.37452" lon="5.81942">
        <ele>1231.743</ele>
        <time>2022-03-22T10:58:34Z</time>
      </trkpt>
      <trkpt lat="44.37453" lon="5.81941">
        <ele>1231.643</ele>
        <time>2022-03-22T10:58:35Z</time>
      </trkpt>
      <trkpt lat="44.37453" lon="5.81939">
        <ele>1231.443</ele>
        <time>2022-03-22T10:58:36Z</time>
      </trkpt>
      <trkpt lat="44.37453" lon="5.81937">
        <ele>1231.543</ele>
        <time>2022-03-22T10:58:38Z</time>
      </trkpt>
      <trkpt lat="44.37453" lon="5.81935">
        <ele>1231.643</ele>
        <time>2022-03-22T10:58:40Z</time>
      </trkpt>
      <trkpt lat="44.37453" lon="5.81933">
        <ele>1231.643</ele>
        <time>2022-03-22T10:58:41Z</time>
      </trkpt>
      <trkpt lat="44.37453" lon="5.81931">
        <ele>1231.543</ele>
        <time>2022-03-22T10:58:43Z</time>
      </trkpt>
      <trkpt lat="44.37454" lon="5.81929">
        <ele>1231.943</ele>
        <time>2022-03-22T10:58:45Z</time>
      </trkpt>
      <trkpt lat="44.37454" lon="5.81927">
        <ele>1231.843</ele>
        <time>2022-03-22T10:58:47Z</time>
      </trkpt>
      <trkpt lat="44.37455" lon="5.81925">
        <ele>1231.743</ele>
        <time>2022-03-22T10:58:48Z</time>
      </trkpt>
      <trkpt lat="44.37455" lon="5.81924">
        <ele>1231.643</ele>
        <time>2022-03-22T10:58:49Z</time>
      </trkpt>
      <trkpt lat="44.37455" lon="5.81923">
        <ele>1231.643</ele>
        <time>2022-03-22T10:58:50Z</time>
      </trkpt>
      <trkpt lat="44.37455" lon="5.81921">
        <ele>1231.743</ele>
        <time>2022-03-22T10:58:51Z</time>
      </trkpt>
      <trkpt lat="44.37455" lon="5.8192">
        <ele>1231.543</ele>
        <time>2022-03-22T10:58:52Z</time>
      </trkpt>
      <trkpt lat="44.37455" lon="5.81918">
        <ele>1231.443</ele>
        <time>2022-03-22T10:58:53Z</time>
      </trkpt>
      <trkpt lat="44.37455" lon="5.81916">
        <ele>1231.243</ele>
        <time>2022-03-22T10:58:55Z</time>
      </trkpt>
      <trkpt lat="44.37455" lon="5.81914">
        <ele>1231.143</ele>
        <time>2022-03-22T10:58:57Z</time>
      </trkpt>
      <trkpt lat="44.37455" lon="5.81913">
        <ele>1231.243</ele>
        <time>2022-03-22T10:58:58Z</time>
      </trkpt>
      <trkpt lat="44.37455" lon="5.81911">
        <ele>1231.243</ele>
        <time>2022-03-22T10:58:59Z</time>
      </trkpt>
      <trkpt lat="44.37455" lon="5.81909">
        <ele>1231.243</ele>
        <time>2022-03-22T10:59:00Z</time>
      </trkpt>
      <trkpt lat="44.37455" lon="5.81908">
        <ele>1231.443</ele>
        <time>2022-03-22T10:59:01Z</time>
      </trkpt>
      <trkpt lat="44.37454" lon="5.81905">
        <ele>1231.543</ele>
        <time>2022-03-22T10:59:03Z</time>
      </trkpt>
      <trkpt lat="44.37454" lon="5.81904">
        <ele>1231.443</ele>
        <time>2022-03-22T10:59:04Z</time>
      </trkpt>
      <trkpt lat="44.37454" lon="5.81902">
        <ele>1231.644</ele>
        <time>2022-03-22T10:59:05Z</time>
      </trkpt>
      <trkpt lat="44.37454" lon="5.819">
        <ele>1231.744</ele>
        <time>2022-03-22T10:59:07Z</time>
      </trkpt>
      <trkpt lat="44.37454" lon="5.81899">
        <ele>1231.544</ele>
        <time>2022-03-22T10:59:09Z</time>
      </trkpt>
      <trkpt lat="44.37454" lon="5.81897">
        <ele>1231.644</ele>
        <time>2022-03-22T10:59:11Z</time>
      </trkpt>
      <trkpt lat="44.37453" lon="5.81895">
        <ele>1231.644</ele>
        <time>2022-03-22T10:59:13Z</time>
      </trkpt>
      <trkpt lat="44.37453" lon="5.81893">
        <ele>1231.444</ele>
        <time>2022-03-22T10:59:14Z</time>
      </trkpt>
      <trkpt lat="44.37453" lon="5.81891">
        <ele>1231.344</ele>
        <time>2022-03-22T10:59:15Z</time>
      </trkpt>
      <trkpt lat="44.37453" lon="5.8189">
        <ele>1231.144</ele>
        <time>2022-03-22T10:59:16Z</time>
      </trkpt>
      <trkpt lat="44.37453" lon="5.81888">
        <ele>1231.144</ele>
        <time>2022-03-22T10:59:17Z</time>
      </trkpt>
      <trkpt lat="44.37453" lon="5.81887">
        <ele>1231.244</ele>
        <time>2022-03-22T10:59:19Z</time>
      </trkpt>
      <trkpt lat="44.37453" lon="5.81885">
        <ele>1231.144</ele>
        <time>2022-03-22T10:59:22Z</time>
      </trkpt>
      <trkpt lat="44.37453" lon="5.81883">
        <ele>1231.044</ele>
        <time>2022-03-22T10:59:24Z</time>
      </trkpt>
      <trkpt lat="44.37453" lon="5.8188">
        <ele>1231.344</ele>
        <time>2022-03-22T10:59:26Z</time>
      </trkpt>
      <trkpt lat="44.37453" lon="5.81879">
        <ele>1231.344</ele>
        <time>2022-03-22T10:59:27Z</time>
      </trkpt>
      <trkpt lat="44.37453" lon="5.81877">
        <ele>1231.544</ele>
        <time>2022-03-22T10:59:29Z</time>
      </trkpt>
      <trkpt lat="44.37453" lon="5.81876">
        <ele>1231.444</ele>
        <time>2022-03-22T10:59:30Z</time>
      </trkpt>
      <trkpt lat="44.37452" lon="5.81874">
        <ele>1231.344</ele>
        <time>2022-03-22T10:59:31Z</time>
      </trkpt>
      <trkpt lat="44.37452" lon="5.81873">
        <ele>1231.544</ele>
        <time>2022-03-22T10:59:32Z</time>
      </trkpt>
      <trkpt lat="44.37453" lon="5.8187">
        <ele>1231.744</ele>
        <time>2022-03-22T10:59:34Z</time>
      </trkpt>
      <trkpt lat="44.37453" lon="5.81869">
        <ele>1231.944</ele>
        <time>2022-03-22T10:59:35Z</time>
      </trkpt>
      <trkpt lat="44.37453" lon="5.81868">
        <ele>1231.844</ele>
        <time>2022-03-22T10:59:36Z</time>
      </trkpt>
      <trkpt lat="44.37454" lon="5.81866">
        <ele>1231.944</ele>
        <time>2022-03-22T10:59:38Z</time>
      </trkpt>
      <trkpt lat="44.37455" lon="5.81865">
        <ele>1231.744</ele>
        <time>2022-03-22T10:59:39Z</time>
      </trkpt>
      <trkpt lat="44.37455" lon="5.81863">
        <ele>1231.444</ele>
        <time>2022-03-22T10:59:41Z</time>
      </trkpt>
      <trkpt lat="44.37456" lon="5.81861">
        <ele>1231.144</ele>
        <time>2022-03-22T10:59:43Z</time>
      </trkpt>
      <trkpt lat="44.37457" lon="5.8186">
        <ele>1231.044</ele>
        <time>2022-03-22T10:59:44Z</time>
      </trkpt>
      <trkpt lat="44.37458" lon="5.81858">
        <ele>1230.544</ele>
        <time>2022-03-22T10:59:46Z</time>
      </trkpt>
      <trkpt lat="44.37458" lon="5.81857">
        <ele>1230.344</ele>
        <time>2022-03-22T10:59:47Z</time>
      </trkpt>
      <trkpt lat="44.37459" lon="5.81856">
        <ele>1230.144</ele>
        <time>2022-03-22T10:59:48Z</time>
      </trkpt>
      <trkpt lat="44.37459" lon="5.81854">
        <ele>1229.944</ele>
        <time>2022-03-22T10:59:50Z</time>
      </trkpt>
      <trkpt lat="44.3746" lon="5.81853">
        <ele>1229.744</ele>
        <time>2022-03-22T10:59:52Z</time>
      </trkpt>
      <trkpt lat="44.37461" lon="5.81851">
        <ele>1229.444</ele>
        <time>2022-03-22T10:59:54Z</time>
      </trkpt>
      <trkpt lat="44.37461" lon="5.81849">
        <ele>1229.244</ele>
        <time>2022-03-22T10:59:56Z</time>
      </trkpt>
      <trkpt lat="44.37461" lon="5.81848">
        <ele>1229.044</ele>
        <time>2022-03-22T10:59:58Z</time>
      </trkpt>
      <trkpt lat="44.37462" lon="5.81845">
        <ele>1228.944</ele>
        <time>2022-03-22T11:00:00Z</time>
      </trkpt>
      <trkpt lat="44.37462" lon="5.81844">
        <ele>1229.044</ele>
        <time>2022-03-22T11:00:02Z</time>
      </trkpt>
      <trkpt lat="44.37462" lon="5.81842">
        <ele>1228.944</ele>
        <time>2022-03-22T11:00:04Z</time>
      </trkpt>
      <trkpt lat="44.37463" lon="5.8184">
        <ele>1228.844</ele>
        <time>2022-03-22T11:00:06Z</time>
      </trkpt>
      <trkpt lat="44.37463" lon="5.81838">
        <ele>1228.644</ele>
        <time>2022-03-22T11:00:08Z</time>
      </trkpt>
      <trkpt lat="44.37463" lon="5.81836">
        <ele>1228.444</ele>
        <time>2022-03-22T11:00:10Z</time>
      </trkpt>
      <trkpt lat="44.37463" lon="5.81835">
        <ele>1228.244</ele>
        <time>2022-03-22T11:00:11Z</time>
      </trkpt>
      <trkpt lat="44.37464" lon="5.81833">
        <ele>1227.844</ele>
        <time>2022-03-22T11:00:13Z</time>
      </trkpt>
      <trkpt lat="44.37464" lon="5.8183">
        <ele>1227.244</ele>
        <time>2022-03-22T11:00:15Z</time>
      </trkpt>
      <trkpt lat="44.37464" lon="5.81828">
        <ele>1226.844</ele>
        <time>2022-03-22T11:00:17Z</time>
      </trkpt>
      <trkpt lat="44.37465" lon="5.81827">
        <ele>1226.344</ele>
        <time>2022-03-22T11:00:19Z</time>
      </trkpt>
      <trkpt lat="44.37466" lon="5.81825">
        <ele>1225.544</ele>
        <time>2022-03-22T11:00:21Z</time>
      </trkpt>
      <trkpt lat="44.37466" lon="5.81823">
        <ele>1225.144</ele>
        <time>2022-03-22T11:00:23Z</time>
      </trkpt>
      <trkpt lat="44.37467" lon="5.81821">
        <ele>1224.744</ele>
        <time>2022-03-22T11:00:25Z</time>
      </trkpt>
      <trkpt lat="44.37467" lon="5.81819">
        <ele>1224.844</ele>
        <time>2022-03-22T11:00:27Z</time>
      </trkpt>
      <trkpt lat="44.37468" lon="5.81818">
        <ele>1225.044</ele>
        <time>2022-03-22T11:00:29Z</time>
      </trkpt>
      <trkpt lat="44.37468" lon="5.81816">
        <ele>1224.844</ele>
        <time>2022-03-22T11:00:31Z</time>
      </trkpt>
      <trkpt lat="44.37469" lon="5.81815">
        <ele>1224.944</ele>
        <time>2022-03-22T11:00:33Z</time>
      </trkpt>
      <trkpt lat="44.37469" lon="5.81814">
        <ele>1224.844</ele>
        <time>2022-03-22T11:00:35Z</time>
      </trkpt>
      <trkpt lat="44.37469" lon="5.81813">
        <ele>1224.444</ele>
        <time>2022-03-22T11:00:36Z</time>
      </trkpt>
      <trkpt lat="44.37469" lon="5.81811">
        <ele>1224.144</ele>
        <time>2022-03-22T11:00:37Z</time>
      </trkpt>
      <trkpt lat="44.37469" lon="5.81809">
        <ele>1223.744</ele>
        <time>2022-03-22T11:00:39Z</time>
      </trkpt>
      <trkpt lat="44.37469" lon="5.81808">
        <ele>1223.344</ele>
        <time>2022-03-22T11:00:40Z</time>
      </trkpt>
      <trkpt lat="44.37469" lon="5.81806">
        <ele>1223.044</ele>
        <time>2022-03-22T11:00:42Z</time>
      </trkpt>
      <trkpt lat="44.37469" lon="5.81804">
        <ele>1222.544</ele>
        <time>2022-03-22T11:00:44Z</time>
      </trkpt>
      <trkpt lat="44.37469" lon="5.81802">
        <ele>1222.344</ele>
        <time>2022-03-22T11:00:45Z</time>
      </trkpt>
      <trkpt lat="44.37469" lon="5.81801">
        <ele>1221.944</ele>
        <time>2022-03-22T11:00:46Z</time>
      </trkpt>
      <trkpt lat="44.3747" lon="5.81799">
        <ele>1221.744</ele>
        <time>2022-03-22T11:00:47Z</time>
      </trkpt>
      <trkpt lat="44.3747" lon="5.81798">
        <ele>1221.444</ele>
        <time>2022-03-22T11:00:48Z</time>
      </trkpt>
      <trkpt lat="44.3747" lon="5.81797">
        <ele>1221.244</ele>
        <time>2022-03-22T11:00:49Z</time>
      </trkpt>
      <trkpt lat="44.3747" lon="5.81795">
        <ele>1221.144</ele>
        <time>2022-03-22T11:00:50Z</time>
      </trkpt>
      <trkpt lat="44.37471" lon="5.81794">
        <ele>1221.044</ele>
        <time>2022-03-22T11:00:51Z</time>
      </trkpt>
      <trkpt lat="44.37471" lon="5.81792">
        <ele>1220.944</ele>
        <time>2022-03-22T11:00:52Z</time>
      </trkpt>
      <trkpt lat="44.37471" lon="5.81791">
        <ele>1220.744</ele>
        <time>2022-03-22T11:00:53Z</time>
      </trkpt>
      <trkpt lat="44.37471" lon="5.8179">
        <ele>1220.544</ele>
        <time>2022-03-22T11:00:54Z</time>
      </trkpt>
      <trkpt lat="44.37471" lon="5.81788">
        <ele>1220.344</ele>
        <time>2022-03-22T11:00:55Z</time>
      </trkpt>
      <trkpt lat="44.37471" lon="5.81787">
        <ele>1220.244</ele>
        <time>2022-03-22T11:00:56Z</time>
      </trkpt>
      <trkpt lat="44.37472" lon="5.81785">
        <ele>1219.944</ele>
        <time>2022-03-22T11:00:58Z</time>
      </trkpt>
      <trkpt lat="44.37472" lon="5.81782">
        <ele>1219.844</ele>
        <time>2022-03-22T11:01:00Z</time>
      </trkpt>
      <trkpt lat="44.37472" lon="5.8178">
        <ele>1219.744</ele>
        <time>2022-03-22T11:01:02Z</time>
      </trkpt>
      <trkpt lat="44.37473" lon="5.81778">
        <ele>1219.444</ele>
        <time>2022-03-22T11:01:04Z</time>
      </trkpt>
      <trkpt lat="44.37473" lon="5.81776">
        <ele>1219.744</ele>
        <time>2022-03-22T11:01:06Z</time>
      </trkpt>
      <trkpt lat="44.37474" lon="5.81775">
        <ele>1220.044</ele>
        <time>2022-03-22T11:01:07Z</time>
      </trkpt>
      <trkpt lat="44.37474" lon="5.81773">
        <ele>1220.544</ele>
        <time>2022-03-22T11:01:09Z</time>
      </trkpt>
      <trkpt lat="44.37474" lon="5.81771">
        <ele>1220.644</ele>
        <time>2022-03-22T11:01:10Z</time>
      </trkpt>
      <trkpt lat="44.37475" lon="5.81769">
        <ele>1220.644</ele>
        <time>2022-03-22T11:01:12Z</time>
      </trkpt>
      <trkpt lat="44.37475" lon="5.81767">
        <ele>1220.344</ele>
        <time>2022-03-22T11:01:14Z</time>
      </trkpt>
      <trkpt lat="44.37475" lon="5.81765">
        <ele>1220.444</ele>
        <time>2022-03-22T11:01:16Z</time>
      </trkpt>
      <trkpt lat="44.37475" lon="5.81763">
        <ele>1220.844</ele>
        <time>2022-03-22T11:01:17Z</time>
      </trkpt>
      <trkpt lat="44.37476" lon="5.81761">
        <ele>1220.944</ele>
        <time>2022-03-22T11:01:19Z</time>
      </trkpt>
      <trkpt lat="44.37476" lon="5.8176">
        <ele>1220.844</ele>
        <time>2022-03-22T11:01:20Z</time>
      </trkpt>
      <trkpt lat="44.37476" lon="5.81758">
        <ele>1220.744</ele>
        <time>2022-03-22T11:01:22Z</time>
      </trkpt>
      <trkpt lat="44.37476" lon="5.81755">
        <ele>1220.144</ele>
        <time>2022-03-22T11:01:24Z</time>
      </trkpt>
      <trkpt lat="44.37476" lon="5.81753">
        <ele>1219.744</ele>
        <time>2022-03-22T11:01:26Z</time>
      </trkpt>
      <trkpt lat="44.37476" lon="5.81752">
        <ele>1219.644</ele>
        <time>2022-03-22T11:01:27Z</time>
      </trkpt>
      <trkpt lat="44.37477" lon="5.81749">
        <ele>1219.744</ele>
        <time>2022-03-22T11:01:29Z</time>
      </trkpt>
      <trkpt lat="44.37477" lon="5.81748">
        <ele>1220.044</ele>
        <time>2022-03-22T11:01:30Z</time>
      </trkpt>
      <trkpt lat="44.37477" lon="5.81746">
        <ele>1220.044</ele>
        <time>2022-03-22T11:01:32Z</time>
      </trkpt>
      <trkpt lat="44.37477" lon="5.81745">
        <ele>1220.144</ele>
        <time>2022-03-22T11:01:33Z</time>
      </trkpt>
      <trkpt lat="44.37477" lon="5.81742">
        <ele>1220.144</ele>
        <time>2022-03-22T11:01:35Z</time>
      </trkpt>
      <trkpt lat="44.37478" lon="5.8174">
        <ele>1220.844</ele>
        <time>2022-03-22T11:01:37Z</time>
      </trkpt>
      <trkpt lat="44.37478" lon="5.81738">
        <ele>1220.845</ele>
        <time>2022-03-22T11:01:39Z</time>
      </trkpt>
      <trkpt lat="44.37479" lon="5.81736">
        <ele>1221.045</ele>
        <time>2022-03-22T11:01:41Z</time>
      </trkpt>
      <trkpt lat="44.37479" lon="5.81734">
        <ele>1221.345</ele>
        <time>2022-03-22T11:01:43Z</time>
      </trkpt>
      <trkpt lat="44.3748" lon="5.81733">
        <ele>1221.445</ele>
        <time>2022-03-22T11:01:44Z</time>
      </trkpt>
      <trkpt lat="44.3748" lon="5.81731">
        <ele>1221.245</ele>
        <time>2022-03-22T11:01:46Z</time>
      </trkpt>
      <trkpt lat="44.3748" lon="5.8173">
        <ele>1221.145</ele>
        <time>2022-03-22T11:01:47Z</time>
      </trkpt>
      <trkpt lat="44.37479" lon="5.81727">
        <ele>1221.245</ele>
        <time>2022-03-22T11:01:49Z</time>
      </trkpt>
      <trkpt lat="44.3748" lon="5.81726">
        <ele>1221.445</ele>
        <time>2022-03-22T11:01:50Z</time>
      </trkpt>
      <trkpt lat="44.3748" lon="5.81724">
        <ele>1221.545</ele>
        <time>2022-03-22T11:01:51Z</time>
      </trkpt>
      <trkpt lat="44.3748" lon="5.81723">
        <ele>1221.745</ele>
        <time>2022-03-22T11:01:53Z</time>
      </trkpt>
      <trkpt lat="44.37481" lon="5.81721">
        <ele>1222.145</ele>
        <time>2022-03-22T11:01:55Z</time>
      </trkpt>
      <trkpt lat="44.37482" lon="5.8172">
        <ele>1222.345</ele>
        <time>2022-03-22T11:01:57Z</time>
      </trkpt>
      <trkpt lat="44.37482" lon="5.81718">
        <ele>1222.345</ele>
        <time>2022-03-22T11:01:59Z</time>
      </trkpt>
      <trkpt lat="44.37482" lon="5.81717">
        <ele>1222.445</ele>
        <time>2022-03-22T11:02:00Z</time>
      </trkpt>
      <trkpt lat="44.37483" lon="5.81715">
        <ele>1222.545</ele>
        <time>2022-03-22T11:02:01Z</time>
      </trkpt>
      <trkpt lat="44.37482" lon="5.81713">
        <ele>1222.545</ele>
        <time>2022-03-22T11:02:03Z</time>
      </trkpt>
      <trkpt lat="44.37483" lon="5.81711">
        <ele>1222.145</ele>
        <time>2022-03-22T11:02:05Z</time>
      </trkpt>
      <trkpt lat="44.37482" lon="5.8171">
        <ele>1222.045</ele>
        <time>2022-03-22T11:02:07Z</time>
      </trkpt>
      <trkpt lat="44.37481" lon="5.8171">
        <ele>1221.945</ele>
        <time>2022-03-22T11:02:11Z</time>
      </trkpt>
      <trkpt lat="44.37481" lon="5.8171">
        <ele>1222.145</ele>
        <time>2022-03-22T11:02:12Z</time>
      </trkpt>
      <trkpt lat="44.3748" lon="5.81711">
        <ele>1222.445</ele>
        <time>2022-03-22T11:02:51Z</time>
      </trkpt>
      <trkpt lat="44.3748" lon="5.81711">
        <ele>1225.745</ele>
        <time>2022-03-22T11:02:52Z</time>
      </trkpt>
      <trkpt lat="44.3748" lon="5.81709">
        <ele>1225.445</ele>
        <time>2022-03-22T11:02:53Z</time>
      </trkpt>
      <trkpt lat="44.37481" lon="5.81708">
        <ele>1225.345</ele>
        <time>2022-03-22T11:02:55Z</time>
      </trkpt>
      <trkpt lat="44.37481" lon="5.81707">
        <ele>1225.345</ele>
        <time>2022-03-22T11:02:56Z</time>
      </trkpt>
      <trkpt lat="44.37481" lon="5.81706">
        <ele>1225.345</ele>
        <time>2022-03-22T11:02:57Z</time>
      </trkpt>
      <trkpt lat="44.37481" lon="5.81705">
        <ele>1225.645</ele>
        <time>2022-03-22T11:03:05Z</time>
      </trkpt>
      <trkpt lat="44.37483" lon="5.817">
        <ele>1226.345</ele>
        <time>2022-03-22T11:03:06Z</time>
      </trkpt>
      <trkpt lat="44.37484" lon="5.81698">
        <ele>1226.445</ele>
        <time>2022-03-22T11:03:08Z</time>
      </trkpt>
      <trkpt lat="44.37484" lon="5.81697">
        <ele>1226.545</ele>
        <time>2022-03-22T11:03:09Z</time>
      </trkpt>
      <trkpt lat="44.37485" lon="5.81697">
        <ele>1226.545</ele>
        <time>2022-03-22T11:03:10Z</time>
      </trkpt>
      <trkpt lat="44.37485" lon="5.81695">
        <ele>1226.445</ele>
        <time>2022-03-22T11:03:12Z</time>
      </trkpt>
      <trkpt lat="44.37486" lon="5.81694">
        <ele>1226.345</ele>
        <time>2022-03-22T11:03:13Z</time>
      </trkpt>
      <trkpt lat="44.37487" lon="5.81692">
        <ele>1226.445</ele>
        <time>2022-03-22T11:03:15Z</time>
      </trkpt>
      <trkpt lat="44.37487" lon="5.81691">
        <ele>1226.445</ele>
        <time>2022-03-22T11:03:16Z</time>
      </trkpt>
      <trkpt lat="44.37488" lon="5.8169">
        <ele>1226.445</ele>
        <time>2022-03-22T11:03:17Z</time>
      </trkpt>
      <trkpt lat="44.37488" lon="5.81689">
        <ele>1226.245</ele>
        <time>2022-03-22T11:03:18Z</time>
      </trkpt>
      <trkpt lat="44.37488" lon="5.81686">
        <ele>1225.445</ele>
        <time>2022-03-22T11:03:20Z</time>
      </trkpt>
      <trkpt lat="44.37488" lon="5.81685">
        <ele>1225.245</ele>
        <time>2022-03-22T11:03:21Z</time>
      </trkpt>
      <trkpt lat="44.37487" lon="5.81684">
        <ele>1224.945</ele>
        <time>2022-03-22T11:03:22Z</time>
      </trkpt>
      <trkpt lat="44.37487" lon="5.81682">
        <ele>1224.645</ele>
        <time>2022-03-22T11:03:23Z</time>
      </trkpt>
      <trkpt lat="44.37487" lon="5.81681">
        <ele>1224.045</ele>
        <time>2022-03-22T11:03:25Z</time>
      </trkpt>
      <trkpt lat="44.37487" lon="5.81679">
        <ele>1223.745</ele>
        <time>2022-03-22T11:03:27Z</time>
      </trkpt>
      <trkpt lat="44.37487" lon="5.81677">
        <ele>1223.645</ele>
        <time>2022-03-22T11:03:29Z</time>
      </trkpt>
      <trkpt lat="44.37487" lon="5.81676">
        <ele>1223.845</ele>
        <time>2022-03-22T11:03:30Z</time>
      </trkpt>
      <trkpt lat="44.37487" lon="5.81674">
        <ele>1223.945</ele>
        <time>2022-03-22T11:03:31Z</time>
      </trkpt>
      <trkpt lat="44.37487" lon="5.81673">
        <ele>1223.745</ele>
        <time>2022-03-22T11:03:32Z</time>
      </trkpt>
      <trkpt lat="44.37487" lon="5.8167">
        <ele>1223.545</ele>
        <time>2022-03-22T11:03:34Z</time>
      </trkpt>
      <trkpt lat="44.37487" lon="5.81669">
        <ele>1223.845</ele>
        <time>2022-03-22T11:03:35Z</time>
      </trkpt>
      <trkpt lat="44.37487" lon="5.81667">
        <ele>1224.145</ele>
        <time>2022-03-22T11:03:36Z</time>
      </trkpt>
      <trkpt lat="44.37487" lon="5.81666">
        <ele>1224.445</ele>
        <time>2022-03-22T11:03:37Z</time>
      </trkpt>
      <trkpt lat="44.37487" lon="5.81664">
        <ele>1224.445</ele>
        <time>2022-03-22T11:03:38Z</time>
      </trkpt>
      <trkpt lat="44.37487" lon="5.81663">
        <ele>1224.445</ele>
        <time>2022-03-22T11:03:39Z</time>
      </trkpt>
      <trkpt lat="44.37487" lon="5.81661">
        <ele>1224.245</ele>
        <time>2022-03-22T11:03:41Z</time>
      </trkpt>
      <trkpt lat="44.37488" lon="5.8166">
        <ele>1224.445</ele>
        <time>2022-03-22T11:03:42Z</time>
      </trkpt>
      <trkpt lat="44.37488" lon="5.81657">
        <ele>1224.145</ele>
        <time>2022-03-22T11:03:44Z</time>
      </trkpt>
      <trkpt lat="44.37487" lon="5.81655">
        <ele>1223.645</ele>
        <time>2022-03-22T11:03:46Z</time>
      </trkpt>
      <trkpt lat="44.37488" lon="5.81652">
        <ele>1223.645</ele>
        <time>2022-03-22T11:03:48Z</time>
      </trkpt>
      <trkpt lat="44.37489" lon="5.81651">
        <ele>1223.345</ele>
        <time>2022-03-22T11:03:50Z</time>
      </trkpt>
      <trkpt lat="44.37489" lon="5.81649">
        <ele>1223.045</ele>
        <time>2022-03-22T11:03:51Z</time>
      </trkpt>
      <trkpt lat="44.3749" lon="5.81648">
        <ele>1222.945</ele>
        <time>2022-03-22T11:03:52Z</time>
      </trkpt>
      <trkpt lat="44.37491" lon="5.81646">
        <ele>1222.945</ele>
        <time>2022-03-22T11:03:54Z</time>
      </trkpt>
      <trkpt lat="44.37491" lon="5.81645">
        <ele>1222.945</ele>
        <time>2022-03-22T11:03:56Z</time>
      </trkpt>
      <trkpt lat="44.37492" lon="5.81643">
        <ele>1222.545</ele>
        <time>2022-03-22T11:03:58Z</time>
      </trkpt>
      <trkpt lat="44.37492" lon="5.81641">
        <ele>1222.245</ele>
        <time>2022-03-22T11:04:00Z</time>
      </trkpt>
      <trkpt lat="44.37493" lon="5.81639">
        <ele>1221.945</ele>
        <time>2022-03-22T11:04:02Z</time>
      </trkpt>
      <trkpt lat="44.37493" lon="5.81637">
        <ele>1221.745</ele>
        <time>2022-03-22T11:04:04Z</time>
      </trkpt>
      <trkpt lat="44.37493" lon="5.81635">
        <ele>1221.445</ele>
        <time>2022-03-22T11:04:05Z</time>
      </trkpt>
      <trkpt lat="44.37493" lon="5.81634">
        <ele>1221.045</ele>
        <time>2022-03-22T11:04:07Z</time>
      </trkpt>
      <trkpt lat="44.37493" lon="5.81632">
        <ele>1220.945</ele>
        <time>2022-03-22T11:04:09Z</time>
      </trkpt>
      <trkpt lat="44.37492" lon="5.8163">
        <ele>1220.845</ele>
        <time>2022-03-22T11:04:11Z</time>
      </trkpt>
      <trkpt lat="44.37492" lon="5.81628">
        <ele>1220.645</ele>
        <time>2022-03-22T11:04:12Z</time>
      </trkpt>
      <trkpt lat="44.37492" lon="5.81626">
        <ele>1220.645</ele>
        <time>2022-03-22T11:04:14Z</time>
      </trkpt>
      <trkpt lat="44.37493" lon="5.81625">
        <ele>1220.445</ele>
        <time>2022-03-22T11:04:15Z</time>
      </trkpt>
      <trkpt lat="44.37493" lon="5.81623">
        <ele>1220.445</ele>
        <time>2022-03-22T11:04:16Z</time>
      </trkpt>
      <trkpt lat="44.37493" lon="5.81622">
        <ele>1220.145</ele>
        <time>2022-03-22T11:04:17Z</time>
      </trkpt>
      <trkpt lat="44.37493" lon="5.8162">
        <ele>1220.045</ele>
        <time>2022-03-22T11:04:18Z</time>
      </trkpt>
      <trkpt lat="44.37493" lon="5.81619">
        <ele>1220.045</ele>
        <time>2022-03-22T11:04:20Z</time>
      </trkpt>
      <trkpt lat="44.37492" lon="5.81618">
        <ele>1220.045</ele>
        <time>2022-03-22T11:04:21Z</time>
      </trkpt>
      <trkpt lat="44.37492" lon="5.81616">
        <ele>1220.045</ele>
        <time>2022-03-22T11:04:24Z</time>
      </trkpt>
      <trkpt lat="44.37491" lon="5.81614">
        <ele>1220.445</ele>
        <time>2022-03-22T11:04:27Z</time>
      </trkpt>
      <trkpt lat="44.37491" lon="5.81612">
        <ele>1221.145</ele>
        <time>2022-03-22T11:04:29Z</time>
      </trkpt>
      <trkpt lat="44.37491" lon="5.8161">
        <ele>1221.545</ele>
        <time>2022-03-22T11:04:30Z</time>
      </trkpt>
      <trkpt lat="44.37492" lon="5.81608">
        <ele>1222.045</ele>
        <time>2022-03-22T11:04:32Z</time>
      </trkpt>
      <trkpt lat="44.37491" lon="5.81607">
        <ele>1222.145</ele>
        <time>2022-03-22T11:04:34Z</time>
      </trkpt>
      <trkpt lat="44.37492" lon="5.81605">
        <ele>1222.145</ele>
        <time>2022-03-22T11:04:36Z</time>
      </trkpt>
      <trkpt lat="44.37493" lon="5.81603">
        <ele>1222.345</ele>
        <time>2022-03-22T11:04:38Z</time>
      </trkpt>
      <trkpt lat="44.37493" lon="5.81601">
        <ele>1222.445</ele>
        <time>2022-03-22T11:04:40Z</time>
      </trkpt>
      <trkpt lat="44.37493" lon="5.816">
        <ele>1222.545</ele>
        <time>2022-03-22T11:04:42Z</time>
      </trkpt>
      <trkpt lat="44.37494" lon="5.81598">
        <ele>1222.345</ele>
        <time>2022-03-22T11:04:45Z</time>
      </trkpt>
      <trkpt lat="44.37494" lon="5.81598">
        <ele>1222.145</ele>
        <time>2022-03-22T11:04:47Z</time>
      </trkpt>
      <trkpt lat="44.37495" lon="5.81598">
        <ele>1221.945</ele>
        <time>2022-03-22T11:04:48Z</time>
      </trkpt>
      <trkpt lat="44.37495" lon="5.81597">
        <ele>1222.145</ele>
        <time>2022-03-22T11:04:52Z</time>
      </trkpt>
      <trkpt lat="44.37496" lon="5.81595">
        <ele>1222.345</ele>
        <time>2022-03-22T11:04:53Z</time>
      </trkpt>
      <trkpt lat="44.37496" lon="5.81593">
        <ele>1223.045</ele>
        <time>2022-03-22T11:04:55Z</time>
      </trkpt>
      <trkpt lat="44.37497" lon="5.81592">
        <ele>1223.345</ele>
        <time>2022-03-22T11:04:58Z</time>
      </trkpt>
      <trkpt lat="44.37497" lon="5.81591">
        <ele>1223.445</ele>
        <time>2022-03-22T11:04:59Z</time>
      </trkpt>
      <trkpt lat="44.37497" lon="5.81591">
        <ele>1223.545</ele>
        <time>2022-03-22T11:05:00Z</time>
      </trkpt>
      <trkpt lat="44.37498" lon="5.8159">
        <ele>1223.445</ele>
        <time>2022-03-22T11:05:02Z</time>
      </trkpt>
      <trkpt lat="44.37498" lon="5.8159">
        <ele>1223.445</ele>
        <time>2022-03-22T11:05:03Z</time>
      </trkpt>
      <trkpt lat="44.37498" lon="5.81589">
        <ele>1223.345</ele>
        <time>2022-03-22T11:05:04Z</time>
      </trkpt>
      <trkpt lat="44.37499" lon="5.81587">
        <ele>1223.145</ele>
        <time>2022-03-22T11:05:06Z</time>
      </trkpt>
      <trkpt lat="44.37499" lon="5.81585">
        <ele>1223.045</ele>
        <time>2022-03-22T11:05:07Z</time>
      </trkpt>
      <trkpt lat="44.375" lon="5.81584">
        <ele>1222.845</ele>
        <time>2022-03-22T11:05:08Z</time>
      </trkpt>
      <trkpt lat="44.375" lon="5.81582">
        <ele>1223.146</ele>
        <time>2022-03-22T11:05:09Z</time>
      </trkpt>
      <trkpt lat="44.375" lon="5.81581">
        <ele>1223.146</ele>
        <time>2022-03-22T11:05:10Z</time>
      </trkpt>
      <trkpt lat="44.375" lon="5.81579">
        <ele>1223.146</ele>
        <time>2022-03-22T11:05:11Z</time>
      </trkpt>
      <trkpt lat="44.375" lon="5.81577">
        <ele>1223.246</ele>
        <time>2022-03-22T11:05:12Z</time>
      </trkpt>
      <trkpt lat="44.375" lon="5.81575">
        <ele>1222.546</ele>
        <time>2022-03-22T11:05:14Z</time>
      </trkpt>
      <trkpt lat="44.375" lon="5.81572">
        <ele>1222.346</ele>
        <time>2022-03-22T11:05:16Z</time>
      </trkpt>
      <trkpt lat="44.375" lon="5.81571">
        <ele>1222.146</ele>
        <time>2022-03-22T11:05:17Z</time>
      </trkpt>
      <trkpt lat="44.375" lon="5.81569">
        <ele>1222.046</ele>
        <time>2022-03-22T11:05:18Z</time>
      </trkpt>
      <trkpt lat="44.37501" lon="5.81568">
        <ele>1221.946</ele>
        <time>2022-03-22T11:05:19Z</time>
      </trkpt>
      <trkpt lat="44.37501" lon="5.81566">
        <ele>1221.646</ele>
        <time>2022-03-22T11:05:20Z</time>
      </trkpt>
      <trkpt lat="44.37501" lon="5.81565">
        <ele>1221.346</ele>
        <time>2022-03-22T11:05:21Z</time>
      </trkpt>
      <trkpt lat="44.37502" lon="5.81564">
        <ele>1221.046</ele>
        <time>2022-03-22T11:05:22Z</time>
      </trkpt>
      <trkpt lat="44.37502" lon="5.81562">
        <ele>1220.946</ele>
        <time>2022-03-22T11:05:23Z</time>
      </trkpt>
      <trkpt lat="44.37501" lon="5.8156">
        <ele>1220.546</ele>
        <time>2022-03-22T11:05:25Z</time>
      </trkpt>
      <trkpt lat="44.37501" lon="5.81557">
        <ele>1220.346</ele>
        <time>2022-03-22T11:05:27Z</time>
      </trkpt>
      <trkpt lat="44.37501" lon="5.81556">
        <ele>1220.346</ele>
        <time>2022-03-22T11:05:28Z</time>
      </trkpt>
      <trkpt lat="44.37501" lon="5.81553">
        <ele>1220.346</ele>
        <time>2022-03-22T11:05:30Z</time>
      </trkpt>
      <trkpt lat="44.37501" lon="5.81551">
        <ele>1220.346</ele>
        <time>2022-03-22T11:05:31Z</time>
      </trkpt>
      <trkpt lat="44.37501" lon="5.8155">
        <ele>1219.746</ele>
        <time>2022-03-22T11:05:33Z</time>
      </trkpt>
      <trkpt lat="44.37501" lon="5.81548">
        <ele>1219.646</ele>
        <time>2022-03-22T11:05:34Z</time>
      </trkpt>
      <trkpt lat="44.375" lon="5.81547">
        <ele>1219.446</ele>
        <time>2022-03-22T11:05:36Z</time>
      </trkpt>
      <trkpt lat="44.375" lon="5.81546">
        <ele>1219.446</ele>
        <time>2022-03-22T11:05:39Z</time>
      </trkpt>
      <trkpt lat="44.375" lon="5.81544">
        <ele>1219.346</ele>
        <time>2022-03-22T11:05:41Z</time>
      </trkpt>
      <trkpt lat="44.375" lon="5.81542">
        <ele>1219.346</ele>
        <time>2022-03-22T11:05:42Z</time>
      </trkpt>
      <trkpt lat="44.375" lon="5.81541">
        <ele>1219.646</ele>
        <time>2022-03-22T11:05:43Z</time>
      </trkpt>
      <trkpt lat="44.37501" lon="5.81539">
        <ele>1219.746</ele>
        <time>2022-03-22T11:05:44Z</time>
      </trkpt>
      <trkpt lat="44.37501" lon="5.81538">
        <ele>1219.946</ele>
        <time>2022-03-22T11:05:45Z</time>
      </trkpt>
      <trkpt lat="44.37502" lon="5.81536">
        <ele>1220.346</ele>
        <time>2022-03-22T11:05:46Z</time>
      </trkpt>
      <trkpt lat="44.37502" lon="5.81535">
        <ele>1220.346</ele>
        <time>2022-03-22T11:05:47Z</time>
      </trkpt>
      <trkpt lat="44.37502" lon="5.81533">
        <ele>1220.346</ele>
        <time>2022-03-22T11:05:49Z</time>
      </trkpt>
      <trkpt lat="44.37502" lon="5.81531">
        <ele>1220.146</ele>
        <time>2022-03-22T11:05:51Z</time>
      </trkpt>
      <trkpt lat="44.37502" lon="5.81529">
        <ele>1219.846</ele>
        <time>2022-03-22T11:05:54Z</time>
      </trkpt>
      <trkpt lat="44.37503" lon="5.81528">
        <ele>1219.846</ele>
        <time>2022-03-22T11:05:56Z</time>
      </trkpt>
      <trkpt lat="44.37503" lon="5.81526">
        <ele>1219.646</ele>
        <time>2022-03-22T11:05:58Z</time>
      </trkpt>
      <trkpt lat="44.37503" lon="5.81525">
        <ele>1219.146</ele>
        <time>2022-03-22T11:05:59Z</time>
      </trkpt>
      <trkpt lat="44.37503" lon="5.81523">
        <ele>1218.946</ele>
        <time>2022-03-22T11:06:00Z</time>
      </trkpt>
      <trkpt lat="44.37503" lon="5.81522">
        <ele>1219.046</ele>
        <time>2022-03-22T11:06:01Z</time>
      </trkpt>
      <trkpt lat="44.37504" lon="5.81521">
        <ele>1218.846</ele>
        <time>2022-03-22T11:06:02Z</time>
      </trkpt>
      <trkpt lat="44.37504" lon="5.81519">
        <ele>1218.446</ele>
        <time>2022-03-22T11:06:03Z</time>
      </trkpt>
      <trkpt lat="44.37505" lon="5.81518">
        <ele>1218.346</ele>
        <time>2022-03-22T11:06:04Z</time>
      </trkpt>
      <trkpt lat="44.37505" lon="5.81516">
        <ele>1218.046</ele>
        <time>2022-03-22T11:06:06Z</time>
      </trkpt>
      <trkpt lat="44.37505" lon="5.81513">
        <ele>1217.946</ele>
        <time>2022-03-22T11:06:08Z</time>
      </trkpt>
      <trkpt lat="44.37506" lon="5.81511">
        <ele>1217.446</ele>
        <time>2022-03-22T11:06:10Z</time>
      </trkpt>
      <trkpt lat="44.37506" lon="5.8151">
        <ele>1217.346</ele>
        <time>2022-03-22T11:06:11Z</time>
      </trkpt>
      <trkpt lat="44.37506" lon="5.81508">
        <ele>1217.246</ele>
        <time>2022-03-22T11:06:12Z</time>
      </trkpt>
      <trkpt lat="44.37506" lon="5.81506">
        <ele>1217.246</ele>
        <time>2022-03-22T11:06:14Z</time>
      </trkpt>
      <trkpt lat="44.37506" lon="5.81505">
        <ele>1217.446</ele>
        <time>2022-03-22T11:06:15Z</time>
      </trkpt>
      <trkpt lat="44.37507" lon="5.81503">
        <ele>1217.246</ele>
        <time>2022-03-22T11:06:16Z</time>
      </trkpt>
      <trkpt lat="44.37507" lon="5.81502">
        <ele>1217.146</ele>
        <time>2022-03-22T11:06:17Z</time>
      </trkpt>
      <trkpt lat="44.37507" lon="5.81499">
        <ele>1217.246</ele>
        <time>2022-03-22T11:06:19Z</time>
      </trkpt>
      <trkpt lat="44.37507" lon="5.81498">
        <ele>1217.046</ele>
        <time>2022-03-22T11:06:20Z</time>
      </trkpt>
      <trkpt lat="44.37506" lon="5.81496">
        <ele>1217.046</ele>
        <time>2022-03-22T11:06:21Z</time>
      </trkpt>
      <trkpt lat="44.37507" lon="5.81495">
        <ele>1217.046</ele>
        <time>2022-03-22T11:06:22Z</time>
      </trkpt>
      <trkpt lat="44.37507" lon="5.81494">
        <ele>1216.946</ele>
        <time>2022-03-22T11:06:23Z</time>
      </trkpt>
      <trkpt lat="44.37507" lon="5.81492">
        <ele>1216.746</ele>
        <time>2022-03-22T11:06:25Z</time>
      </trkpt>
      <trkpt lat="44.37507" lon="5.8149">
        <ele>1216.646</ele>
        <time>2022-03-22T11:06:27Z</time>
      </trkpt>
      <trkpt lat="44.37507" lon="5.81488">
        <ele>1216.746</ele>
        <time>2022-03-22T11:06:28Z</time>
      </trkpt>
      <trkpt lat="44.37508" lon="5.81487">
        <ele>1216.746</ele>
        <time>2022-03-22T11:06:29Z</time>
      </trkpt>
      <trkpt lat="44.37508" lon="5.81486">
        <ele>1216.646</ele>
        <time>2022-03-22T11:06:30Z</time>
      </trkpt>
      <trkpt lat="44.37509" lon="5.81485">
        <ele>1216.646</ele>
        <time>2022-03-22T11:06:31Z</time>
      </trkpt>
      <trkpt lat="44.37509" lon="5.81483">
        <ele>1216.546</ele>
        <time>2022-03-22T11:06:32Z</time>
      </trkpt>
      <trkpt lat="44.3751" lon="5.81482">
        <ele>1216.446</ele>
        <time>2022-03-22T11:06:33Z</time>
      </trkpt>
      <trkpt lat="44.3751" lon="5.81481">
        <ele>1216.346</ele>
        <time>2022-03-22T11:06:34Z</time>
      </trkpt>
      <trkpt lat="44.3751" lon="5.81478">
        <ele>1215.946</ele>
        <time>2022-03-22T11:06:36Z</time>
      </trkpt>
      <trkpt lat="44.37511" lon="5.81477">
        <ele>1215.746</ele>
        <time>2022-03-22T11:06:37Z</time>
      </trkpt>
      <trkpt lat="44.37511" lon="5.81475">
        <ele>1215.646</ele>
        <time>2022-03-22T11:06:38Z</time>
      </trkpt>
      <trkpt lat="44.37511" lon="5.81474">
        <ele>1215.746</ele>
        <time>2022-03-22T11:06:39Z</time>
      </trkpt>
      <trkpt lat="44.37511" lon="5.81472">
        <ele>1215.946</ele>
        <time>2022-03-22T11:06:40Z</time>
      </trkpt>
      <trkpt lat="44.37511" lon="5.81471">
        <ele>1216.046</ele>
        <time>2022-03-22T11:06:41Z</time>
      </trkpt>
      <trkpt lat="44.37511" lon="5.81469">
        <ele>1216.246</ele>
        <time>2022-03-22T11:06:42Z</time>
      </trkpt>
      <trkpt lat="44.37512" lon="5.81468">
        <ele>1216.146</ele>
        <time>2022-03-22T11:06:43Z</time>
      </trkpt>
      <trkpt lat="44.37512" lon="5.81466">
        <ele>1216.046</ele>
        <time>2022-03-22T11:06:45Z</time>
      </trkpt>
      <trkpt lat="44.37513" lon="5.81464">
        <ele>1215.846</ele>
        <time>2022-03-22T11:06:47Z</time>
      </trkpt>
      <trkpt lat="44.37513" lon="5.81461">
        <ele>1215.446</ele>
        <time>2022-03-22T11:06:49Z</time>
      </trkpt>
      <trkpt lat="44.37514" lon="5.81459">
        <ele>1215.046</ele>
        <time>2022-03-22T11:06:51Z</time>
      </trkpt>
      <trkpt lat="44.37515" lon="5.81458">
        <ele>1214.946</ele>
        <time>2022-03-22T11:06:52Z</time>
      </trkpt>
      <trkpt lat="44.37515" lon="5.81457">
        <ele>1214.746</ele>
        <time>2022-03-22T11:06:53Z</time>
      </trkpt>
      <trkpt lat="44.37516" lon="5.81455">
        <ele>1214.546</ele>
        <time>2022-03-22T11:06:54Z</time>
      </trkpt>
      <trkpt lat="44.37516" lon="5.81454">
        <ele>1214.546</ele>
        <time>2022-03-22T11:06:55Z</time>
      </trkpt>
      <trkpt lat="44.37517" lon="5.81452">
        <ele>1214.446</ele>
        <time>2022-03-22T11:06:57Z</time>
      </trkpt>
      <trkpt lat="44.37517" lon="5.8145">
        <ele>1214.346</ele>
        <time>2022-03-22T11:06:58Z</time>
      </trkpt>
      <trkpt lat="44.37517" lon="5.81449">
        <ele>1214.246</ele>
        <time>2022-03-22T11:06:59Z</time>
      </trkpt>
      <trkpt lat="44.37518" lon="5.81446">
        <ele>1213.946</ele>
        <time>2022-03-22T11:07:01Z</time>
      </trkpt>
      <trkpt lat="44.37518" lon="5.81444">
        <ele>1213.746</ele>
        <time>2022-03-22T11:07:02Z</time>
      </trkpt>
      <trkpt lat="44.37518" lon="5.81442">
        <ele>1213.446</ele>
        <time>2022-03-22T11:07:04Z</time>
      </trkpt>
      <trkpt lat="44.37519" lon="5.81441">
        <ele>1213.446</ele>
        <time>2022-03-22T11:07:05Z</time>
      </trkpt>
      <trkpt lat="44.37519" lon="5.81439">
        <ele>1213.646</ele>
        <time>2022-03-22T11:07:06Z</time>
      </trkpt>
      <trkpt lat="44.37519" lon="5.81438">
        <ele>1213.646</ele>
        <time>2022-03-22T11:07:07Z</time>
      </trkpt>
      <trkpt lat="44.3752" lon="5.81437">
        <ele>1213.546</ele>
        <time>2022-03-22T11:07:08Z</time>
      </trkpt>
      <trkpt lat="44.3752" lon="5.81435">
        <ele>1213.646</ele>
        <time>2022-03-22T11:07:09Z</time>
      </trkpt>
      <trkpt lat="44.3752" lon="5.81434">
        <ele>1213.446</ele>
        <time>2022-03-22T11:07:11Z</time>
      </trkpt>
      <trkpt lat="44.3752" lon="5.81431">
        <ele>1213.246</ele>
        <time>2022-03-22T11:07:13Z</time>
      </trkpt>
      <trkpt lat="44.37521" lon="5.8143">
        <ele>1213.846</ele>
        <time>2022-03-22T11:07:14Z</time>
      </trkpt>
      <trkpt lat="44.37521" lon="5.81429">
        <ele>1213.546</ele>
        <time>2022-03-22T11:07:15Z</time>
      </trkpt>
      <trkpt lat="44.37521" lon="5.81427">
        <ele>1213.746</ele>
        <time>2022-03-22T11:07:16Z</time>
      </trkpt>
      <trkpt lat="44.37521" lon="5.81425">
        <ele>1213.947</ele>
        <time>2022-03-22T11:07:18Z</time>
      </trkpt>
      <trkpt lat="44.37521" lon="5.81422">
        <ele>1214.247</ele>
        <time>2022-03-22T11:07:20Z</time>
      </trkpt>
      <trkpt lat="44.37521" lon="5.8142">
        <ele>1214.247</ele>
        <time>2022-03-22T11:07:22Z</time>
      </trkpt>
      <trkpt lat="44.37522" lon="5.81418">
        <ele>1213.747</ele>
        <time>2022-03-22T11:07:24Z</time>
      </trkpt>
      <trkpt lat="44.37522" lon="5.81417">
        <ele>1213.547</ele>
        <time>2022-03-22T11:07:25Z</time>
      </trkpt>
      <trkpt lat="44.37522" lon="5.81414">
        <ele>1213.147</ele>
        <time>2022-03-22T11:07:27Z</time>
      </trkpt>
      <trkpt lat="44.37522" lon="5.81413">
        <ele>1212.947</ele>
        <time>2022-03-22T11:07:28Z</time>
      </trkpt>
      <trkpt lat="44.37522" lon="5.81411">
        <ele>1212.447</ele>
        <time>2022-03-22T11:07:30Z</time>
      </trkpt>
      <trkpt lat="44.37522" lon="5.81409">
        <ele>1212.147</ele>
        <time>2022-03-22T11:07:31Z</time>
      </trkpt>
      <trkpt lat="44.37522" lon="5.81407">
        <ele>1211.647</ele>
        <time>2022-03-22T11:07:33Z</time>
      </trkpt>
      <trkpt lat="44.37522" lon="5.81405">
        <ele>1210.947</ele>
        <time>2022-03-22T11:07:35Z</time>
      </trkpt>
      <trkpt lat="44.37522" lon="5.81403">
        <ele>1210.847</ele>
        <time>2022-03-22T11:07:37Z</time>
      </trkpt>
      <trkpt lat="44.37522" lon="5.814">
        <ele>1210.647</ele>
        <time>2022-03-22T11:07:39Z</time>
      </trkpt>
      <trkpt lat="44.37522" lon="5.81398">
        <ele>1210.947</ele>
        <time>2022-03-22T11:07:41Z</time>
      </trkpt>
      <trkpt lat="44.37522" lon="5.81396">
        <ele>1210.647</ele>
        <time>2022-03-22T11:07:43Z</time>
      </trkpt>
      <trkpt lat="44.37522" lon="5.81394">
        <ele>1210.547</ele>
        <time>2022-03-22T11:07:45Z</time>
      </trkpt>
      <trkpt lat="44.37523" lon="5.81392">
        <ele>1210.547</ele>
        <time>2022-03-22T11:07:46Z</time>
      </trkpt>
      <trkpt lat="44.37523" lon="5.8139">
        <ele>1210.647</ele>
        <time>2022-03-22T11:07:48Z</time>
      </trkpt>
      <trkpt lat="44.37523" lon="5.81388">
        <ele>1210.547</ele>
        <time>2022-03-22T11:07:49Z</time>
      </trkpt>
      <trkpt lat="44.37523" lon="5.81387">
        <ele>1210.647</ele>
        <time>2022-03-22T11:07:50Z</time>
      </trkpt>
      <trkpt lat="44.37523" lon="5.81385">
        <ele>1210.447</ele>
        <time>2022-03-22T11:07:52Z</time>
      </trkpt>
      <trkpt lat="44.37523" lon="5.81384">
        <ele>1210.647</ele>
        <time>2022-03-22T11:07:53Z</time>
      </trkpt>
      <trkpt lat="44.37523" lon="5.81383">
        <ele>1210.647</ele>
        <time>2022-03-22T11:07:54Z</time>
      </trkpt>
      <trkpt lat="44.37523" lon="5.8138">
        <ele>1210.747</ele>
        <time>2022-03-22T11:07:56Z</time>
      </trkpt>
      <trkpt lat="44.37523" lon="5.81378">
        <ele>1210.547</ele>
        <time>2022-03-22T11:07:58Z</time>
      </trkpt>
      <trkpt lat="44.37523" lon="5.81376">
        <ele>1210.447</ele>
        <time>2022-03-22T11:07:59Z</time>
      </trkpt>
      <trkpt lat="44.37524" lon="5.81375">
        <ele>1210.147</ele>
        <time>2022-03-22T11:08:00Z</time>
      </trkpt>
      <trkpt lat="44.37524" lon="5.81374">
        <ele>1209.947</ele>
        <time>2022-03-22T11:08:01Z</time>
      </trkpt>
      <trkpt lat="44.37525" lon="5.81372">
        <ele>1209.747</ele>
        <time>2022-03-22T11:08:02Z</time>
      </trkpt>
      <trkpt lat="44.37525" lon="5.81371">
        <ele>1209.747</ele>
        <time>2022-03-22T11:08:03Z</time>
      </trkpt>
      <trkpt lat="44.37525" lon="5.81369">
        <ele>1209.347</ele>
        <time>2022-03-22T11:08:05Z</time>
      </trkpt>
      <trkpt lat="44.37525" lon="5.81367">
        <ele>1209.347</ele>
        <time>2022-03-22T11:08:06Z</time>
      </trkpt>
      <trkpt lat="44.37525" lon="5.81366">
        <ele>1208.947</ele>
        <time>2022-03-22T11:08:07Z</time>
      </trkpt>
      <trkpt lat="44.37526" lon="5.81364">
        <ele>1208.247</ele>
        <time>2022-03-22T11:08:09Z</time>
      </trkpt>
      <trkpt lat="44.37526" lon="5.81361">
        <ele>1208.047</ele>
        <time>2022-03-22T11:08:11Z</time>
      </trkpt>
      <trkpt lat="44.37526" lon="5.81359">
        <ele>1207.947</ele>
        <time>2022-03-22T11:08:13Z</time>
      </trkpt>
      <trkpt lat="44.37526" lon="5.81358">
        <ele>1207.647</ele>
        <time>2022-03-22T11:08:14Z</time>
      </trkpt>
      <trkpt lat="44.37526" lon="5.81356">
        <ele>1207.547</ele>
        <time>2022-03-22T11:08:15Z</time>
      </trkpt>
      <trkpt lat="44.37526" lon="5.81355">
        <ele>1207.047</ele>
        <time>2022-03-22T11:08:16Z</time>
      </trkpt>
      <trkpt lat="44.37526" lon="5.81353">
        <ele>1206.647</ele>
        <time>2022-03-22T11:08:18Z</time>
      </trkpt>
      <trkpt lat="44.37526" lon="5.81351">
        <ele>1206.647</ele>
        <time>2022-03-22T11:08:19Z</time>
      </trkpt>
      <trkpt lat="44.37526" lon="5.8135">
        <ele>1206.647</ele>
        <time>2022-03-22T11:08:20Z</time>
      </trkpt>
      <trkpt lat="44.37526" lon="5.81348">
        <ele>1206.547</ele>
        <time>2022-03-22T11:08:22Z</time>
      </trkpt>
      <trkpt lat="44.37526" lon="5.81346">
        <ele>1206.547</ele>
        <time>2022-03-22T11:08:24Z</time>
      </trkpt>
      <trkpt lat="44.37526" lon="5.81344">
        <ele>1206.547</ele>
        <time>2022-03-22T11:08:26Z</time>
      </trkpt>
      <trkpt lat="44.37526" lon="5.81342">
        <ele>1206.247</ele>
        <time>2022-03-22T11:08:28Z</time>
      </trkpt>
      <trkpt lat="44.37526" lon="5.8134">
        <ele>1206.347</ele>
        <time>2022-03-22T11:08:30Z</time>
      </trkpt>
      <trkpt lat="44.37526" lon="5.81337">
        <ele>1206.647</ele>
        <time>2022-03-22T11:08:32Z</time>
      </trkpt>
      <trkpt lat="44.37526" lon="5.81336">
        <ele>1206.747</ele>
        <time>2022-03-22T11:08:33Z</time>
      </trkpt>
      <trkpt lat="44.37526" lon="5.81334">
        <ele>1207.047</ele>
        <time>2022-03-22T11:08:35Z</time>
      </trkpt>
      <trkpt lat="44.37526" lon="5.81332">
        <ele>1207.147</ele>
        <time>2022-03-22T11:08:36Z</time>
      </trkpt>
      <trkpt lat="44.37527" lon="5.8133">
        <ele>1207.547</ele>
        <time>2022-03-22T11:08:38Z</time>
      </trkpt>
      <trkpt lat="44.37527" lon="5.81329">
        <ele>1207.647</ele>
        <time>2022-03-22T11:08:39Z</time>
      </trkpt>
      <trkpt lat="44.37528" lon="5.81327">
        <ele>1207.747</ele>
        <time>2022-03-22T11:08:41Z</time>
      </trkpt>
      <trkpt lat="44.37528" lon="5.81325">
        <ele>1207.147</ele>
        <time>2022-03-22T11:08:43Z</time>
      </trkpt>
      <trkpt lat="44.37528" lon="5.81323">
        <ele>1206.647</ele>
        <time>2022-03-22T11:08:45Z</time>
      </trkpt>
      <trkpt lat="44.37529" lon="5.81322">
        <ele>1206.447</ele>
        <time>2022-03-22T11:08:46Z</time>
      </trkpt>
      <trkpt lat="44.37529" lon="5.81321">
        <ele>1206.347</ele>
        <time>2022-03-22T11:08:47Z</time>
      </trkpt>
      <trkpt lat="44.37529" lon="5.81319">
        <ele>1205.847</ele>
        <time>2022-03-22T11:08:49Z</time>
      </trkpt>
      <trkpt lat="44.37529" lon="5.81317">
        <ele>1205.747</ele>
        <time>2022-03-22T11:08:50Z</time>
      </trkpt>
      <trkpt lat="44.3753" lon="5.81315">
        <ele>1205.447</ele>
        <time>2022-03-22T11:08:52Z</time>
      </trkpt>
      <trkpt lat="44.37531" lon="5.81313">
        <ele>1204.947</ele>
        <time>2022-03-22T11:08:54Z</time>
      </trkpt>
      <trkpt lat="44.37531" lon="5.81311">
        <ele>1204.947</ele>
        <time>2022-03-22T11:08:55Z</time>
      </trkpt>
      <trkpt lat="44.37532" lon="5.8131">
        <ele>1204.947</ele>
        <time>2022-03-22T11:08:56Z</time>
      </trkpt>
      <trkpt lat="44.37532" lon="5.81308">
        <ele>1205.047</ele>
        <time>2022-03-22T11:08:57Z</time>
      </trkpt>
      <trkpt lat="44.37532" lon="5.81307">
        <ele>1205.047</ele>
        <time>2022-03-22T11:08:58Z</time>
      </trkpt>
      <trkpt lat="44.37532" lon="5.81305">
        <ele>1205.347</ele>
        <time>2022-03-22T11:09:00Z</time>
      </trkpt>
      <trkpt lat="44.37532" lon="5.81303">
        <ele>1205.147</ele>
        <time>2022-03-22T11:09:02Z</time>
      </trkpt>
      <trkpt lat="44.37531" lon="5.81301">
        <ele>1205.147</ele>
        <time>2022-03-22T11:09:04Z</time>
      </trkpt>
      <trkpt lat="44.37531" lon="5.813">
        <ele>1205.647</ele>
        <time>2022-03-22T11:09:06Z</time>
      </trkpt>
      <trkpt lat="44.37531" lon="5.81298">
        <ele>1205.648</ele>
        <time>2022-03-22T11:09:08Z</time>
      </trkpt>
      <trkpt lat="44.37531" lon="5.81296">
        <ele>1205.848</ele>
        <time>2022-03-22T11:09:09Z</time>
      </trkpt>
      <trkpt lat="44.37531" lon="5.81294">
        <ele>1205.848</ele>
        <time>2022-03-22T11:09:11Z</time>
      </trkpt>
      <trkpt lat="44.37532" lon="5.81293">
        <ele>1206.148</ele>
        <time>2022-03-22T11:09:13Z</time>
      </trkpt>
      <trkpt lat="44.37532" lon="5.81291">
        <ele>1206.448</ele>
        <time>2022-03-22T11:09:15Z</time>
      </trkpt>
      <trkpt lat="44.37532" lon="5.8129">
        <ele>1206.848</ele>
        <time>2022-03-22T11:09:17Z</time>
      </trkpt>
      <trkpt lat="44.37532" lon="5.81289">
        <ele>1206.948</ele>
        <time>2022-03-22T11:09:19Z</time>
      </trkpt>
      <trkpt lat="44.37532" lon="5.81287">
        <ele>1207.248</ele>
        <time>2022-03-22T11:09:21Z</time>
      </trkpt>
      <trkpt lat="44.37532" lon="5.81285">
        <ele>1207.248</ele>
        <time>2022-03-22T11:09:23Z</time>
      </trkpt>
      <trkpt lat="44.37532" lon="5.81283">
        <ele>1207.348</ele>
        <time>2022-03-22T11:09:25Z</time>
      </trkpt>
      <trkpt lat="44.37532" lon="5.81282">
        <ele>1207.548</ele>
        <time>2022-03-22T11:09:27Z</time>
      </trkpt>
      <trkpt lat="44.37532" lon="5.8128">
        <ele>1207.948</ele>
        <time>2022-03-22T11:09:30Z</time>
      </trkpt>
      <trkpt lat="44.37532" lon="5.81279">
        <ele>1208.248</ele>
        <time>2022-03-22T11:09:33Z</time>
      </trkpt>
      <trkpt lat="44.37532" lon="5.81277">
        <ele>1208.248</ele>
        <time>2022-03-22T11:09:35Z</time>
      </trkpt>
      <trkpt lat="44.37532" lon="5.81275">
        <ele>1208.648</ele>
        <time>2022-03-22T11:09:37Z</time>
      </trkpt>
      <trkpt lat="44.37532" lon="5.81274">
        <ele>1208.848</ele>
        <time>2022-03-22T11:09:38Z</time>
      </trkpt>
      <trkpt lat="44.37532" lon="5.81272">
        <ele>1208.748</ele>
        <time>2022-03-22T11:09:40Z</time>
      </trkpt>
      <trkpt lat="44.37532" lon="5.8127">
        <ele>1208.948</ele>
        <time>2022-03-22T11:09:42Z</time>
      </trkpt>
      <trkpt lat="44.37532" lon="5.81268">
        <ele>1208.748</ele>
        <time>2022-03-22T11:09:44Z</time>
      </trkpt>
      <trkpt lat="44.37532" lon="5.81266">
        <ele>1208.948</ele>
        <time>2022-03-22T11:09:46Z</time>
      </trkpt>
      <trkpt lat="44.37532" lon="5.81265">
        <ele>1209.348</ele>
        <time>2022-03-22T11:09:48Z</time>
      </trkpt>
      <trkpt lat="44.37532" lon="5.81263">
        <ele>1209.648</ele>
        <time>2022-03-22T11:09:50Z</time>
      </trkpt>
      <trkpt lat="44.37532" lon="5.81261">
        <ele>1209.948</ele>
        <time>2022-03-22T11:09:52Z</time>
      </trkpt>
      <trkpt lat="44.37532" lon="5.81259">
        <ele>1210.248</ele>
        <time>2022-03-22T11:09:54Z</time>
      </trkpt>
      <trkpt lat="44.37532" lon="5.81257">
        <ele>1210.648</ele>
        <time>2022-03-22T11:09:55Z</time>
      </trkpt>
      <trkpt lat="44.37533" lon="5.81255">
        <ele>1211.048</ele>
        <time>2022-03-22T11:09:57Z</time>
      </trkpt>
      <trkpt lat="44.37533" lon="5.81253">
        <ele>1211.148</ele>
        <time>2022-03-22T11:09:58Z</time>
      </trkpt>
      <trkpt lat="44.37533" lon="5.81251">
        <ele>1211.348</ele>
        <time>2022-03-22T11:10:00Z</time>
      </trkpt>
      <trkpt lat="44.37534" lon="5.81249">
        <ele>1211.348</ele>
        <time>2022-03-22T11:10:02Z</time>
      </trkpt>
      <trkpt lat="44.37534" lon="5.81247">
        <ele>1211.848</ele>
        <time>2022-03-22T11:10:04Z</time>
      </trkpt>
      <trkpt lat="44.37534" lon="5.81246">
        <ele>1212.448</ele>
        <time>2022-03-22T11:10:06Z</time>
      </trkpt>
      <trkpt lat="44.37534" lon="5.81244">
        <ele>1212.648</ele>
        <time>2022-03-22T11:10:08Z</time>
      </trkpt>
      <trkpt lat="44.37534" lon="5.81242">
        <ele>1212.948</ele>
        <time>2022-03-22T11:10:10Z</time>
      </trkpt>
      <trkpt lat="44.37535" lon="5.8124">
        <ele>1213.348</ele>
        <time>2022-03-22T11:10:12Z</time>
      </trkpt>
      <trkpt lat="44.37534" lon="5.81239">
        <ele>1213.548</ele>
        <time>2022-03-22T11:10:14Z</time>
      </trkpt>
      <trkpt lat="44.37534" lon="5.81238">
        <ele>1213.848</ele>
        <time>2022-03-22T11:10:16Z</time>
      </trkpt>
      <trkpt lat="44.37535" lon="5.81236">
        <ele>1214.248</ele>
        <time>2022-03-22T11:10:18Z</time>
      </trkpt>
      <trkpt lat="44.37535" lon="5.81233">
        <ele>1214.848</ele>
        <time>2022-03-22T11:10:20Z</time>
      </trkpt>
      <trkpt lat="44.37535" lon="5.81232">
        <ele>1215.048</ele>
        <time>2022-03-22T11:10:22Z</time>
      </trkpt>
      <trkpt lat="44.37536" lon="5.8123">
        <ele>1215.348</ele>
        <time>2022-03-22T11:10:24Z</time>
      </trkpt>
      <trkpt lat="44.37536" lon="5.81229">
        <ele>1215.348</ele>
        <time>2022-03-22T11:10:26Z</time>
      </trkpt>
      <trkpt lat="44.37536" lon="5.81227">
        <ele>1215.448</ele>
        <time>2022-03-22T11:10:28Z</time>
      </trkpt>
      <trkpt lat="44.37536" lon="5.81225">
        <ele>1215.848</ele>
        <time>2022-03-22T11:10:30Z</time>
      </trkpt>
      <trkpt lat="44.37536" lon="5.81223">
        <ele>1215.948</ele>
        <time>2022-03-22T11:10:32Z</time>
      </trkpt>
      <trkpt lat="44.37536" lon="5.81221">
        <ele>1216.348</ele>
        <time>2022-03-22T11:10:34Z</time>
      </trkpt>
      <trkpt lat="44.37536" lon="5.81219">
        <ele>1216.648</ele>
        <time>2022-03-22T11:10:36Z</time>
      </trkpt>
      <trkpt lat="44.37536" lon="5.81218">
        <ele>1216.648</ele>
        <time>2022-03-22T11:10:38Z</time>
      </trkpt>
      <trkpt lat="44.37536" lon="5.81216">
        <ele>1217.148</ele>
        <time>2022-03-22T11:10:40Z</time>
      </trkpt>
      <trkpt lat="44.37537" lon="5.81214">
        <ele>1217.448</ele>
        <time>2022-03-22T11:10:42Z</time>
      </trkpt>
      <trkpt lat="44.37536" lon="5.81212">
        <ele>1217.848</ele>
        <time>2022-03-22T11:10:44Z</time>
      </trkpt>
      <trkpt lat="44.37536" lon="5.81211">
        <ele>1218.148</ele>
        <time>2022-03-22T11:10:46Z</time>
      </trkpt>
      <trkpt lat="44.37536" lon="5.81209">
        <ele>1218.548</ele>
        <time>2022-03-22T11:10:48Z</time>
      </trkpt>
      <trkpt lat="44.37536" lon="5.81207">
        <ele>1218.948</ele>
        <time>2022-03-22T11:10:52Z</time>
      </trkpt>
      <trkpt lat="44.37537" lon="5.81206">
        <ele>1219.048</ele>
        <time>2022-03-22T11:10:54Z</time>
      </trkpt>
      <trkpt lat="44.37537" lon="5.81205">
        <ele>1219.148</ele>
        <time>2022-03-22T11:10:55Z</time>
      </trkpt>
      <trkpt lat="44.37537" lon="5.81204">
        <ele>1219.348</ele>
        <time>2022-03-22T11:11:36Z</time>
      </trkpt>
      <trkpt lat="44.3754" lon="5.81204">
        <ele>1221.048</ele>
        <time>2022-03-22T11:11:37Z</time>
      </trkpt>
      <trkpt lat="44.3754" lon="5.81202">
        <ele>1220.748</ele>
        <time>2022-03-22T11:11:39Z</time>
      </trkpt>
      <trkpt lat="44.37541" lon="5.81201">
        <ele>1220.648</ele>
        <time>2022-03-22T11:11:40Z</time>
      </trkpt>
      <trkpt lat="44.37541" lon="5.81199">
        <ele>1220.348</ele>
        <time>2022-03-22T11:11:42Z</time>
      </trkpt>
      <trkpt lat="44.37542" lon="5.81197">
        <ele>1219.748</ele>
        <time>2022-03-22T11:11:44Z</time>
      </trkpt>
      <trkpt lat="44.37542" lon="5.81195">
        <ele>1219.248</ele>
        <time>2022-03-22T11:11:46Z</time>
      </trkpt>
      <trkpt lat="44.37543" lon="5.81194">
        <ele>1219.048</ele>
        <time>2022-03-22T11:11:48Z</time>
      </trkpt>
      <trkpt lat="44.37544" lon="5.81192">
        <ele>1218.948</ele>
        <time>2022-03-22T11:11:50Z</time>
      </trkpt>
      <trkpt lat="44.37544" lon="5.81191">
        <ele>1218.448</ele>
        <time>2022-03-22T11:11:52Z</time>
      </trkpt>
      <trkpt lat="44.37544" lon="5.81189">
        <ele>1217.948</ele>
        <time>2022-03-22T11:11:54Z</time>
      </trkpt>
      <trkpt lat="44.37545" lon="5.81188">
        <ele>1217.448</ele>
        <time>2022-03-22T11:11:56Z</time>
      </trkpt>
      <trkpt lat="44.37546" lon="5.81186">
        <ele>1217.048</ele>
        <time>2022-03-22T11:11:58Z</time>
      </trkpt>
      <trkpt lat="44.37546" lon="5.81185">
        <ele>1217.148</ele>
        <time>2022-03-22T11:11:59Z</time>
      </trkpt>
      <trkpt lat="44.37547" lon="5.81184">
        <ele>1217.148</ele>
        <time>2022-03-22T11:12:00Z</time>
      </trkpt>
      <trkpt lat="44.37547" lon="5.81182">
        <ele>1217.148</ele>
        <time>2022-03-22T11:12:01Z</time>
      </trkpt>
      <trkpt lat="44.37548" lon="5.8118">
        <ele>1217.148</ele>
        <time>2022-03-22T11:12:03Z</time>
      </trkpt>
      <trkpt lat="44.37548" lon="5.81179">
        <ele>1216.948</ele>
        <time>2022-03-22T11:12:04Z</time>
      </trkpt>
      <trkpt lat="44.37549" lon="5.81178">
        <ele>1216.848</ele>
        <time>2022-03-22T11:12:05Z</time>
      </trkpt>
      <trkpt lat="44.37549" lon="5.81176">
        <ele>1216.648</ele>
        <time>2022-03-22T11:12:06Z</time>
      </trkpt>
      <trkpt lat="44.37549" lon="5.81175">
        <ele>1216.448</ele>
        <time>2022-03-22T11:12:07Z</time>
      </trkpt>
      <trkpt lat="44.37549" lon="5.81174">
        <ele>1216.448</ele>
        <time>2022-03-22T11:12:08Z</time>
      </trkpt>
      <trkpt lat="44.3755" lon="5.81173">
        <ele>1216.348</ele>
        <time>2022-03-22T11:12:09Z</time>
      </trkpt>
      <trkpt lat="44.3755" lon="5.81171">
        <ele>1216.348</ele>
        <time>2022-03-22T11:12:11Z</time>
      </trkpt>
      <trkpt lat="44.37551" lon="5.8117">
        <ele>1216.148</ele>
        <time>2022-03-22T11:12:12Z</time>
      </trkpt>
      <trkpt lat="44.37551" lon="5.81168">
        <ele>1215.948</ele>
        <time>2022-03-22T11:12:13Z</time>
      </trkpt>
      <trkpt lat="44.37552" lon="5.81167">
        <ele>1215.548</ele>
        <time>2022-03-22T11:12:15Z</time>
      </trkpt>
      <trkpt lat="44.37553" lon="5.81165">
        <ele>1214.948</ele>
        <time>2022-03-22T11:12:17Z</time>
      </trkpt>
      <trkpt lat="44.37553" lon="5.81162">
        <ele>1214.548</ele>
        <time>2022-03-22T11:12:19Z</time>
      </trkpt>
      <trkpt lat="44.37554" lon="5.8116">
        <ele>1214.348</ele>
        <time>2022-03-22T11:12:21Z</time>
      </trkpt>
      <trkpt lat="44.37555" lon="5.81159">
        <ele>1213.748</ele>
        <time>2022-03-22T11:12:23Z</time>
      </trkpt>
      <trkpt lat="44.37556" lon="5.81157">
        <ele>1213.248</ele>
        <time>2022-03-22T11:12:25Z</time>
      </trkpt>
      <trkpt lat="44.37557" lon="5.81155">
        <ele>1212.648</ele>
        <time>2022-03-22T11:12:27Z</time>
      </trkpt>
      <trkpt lat="44.37557" lon="5.81152">
        <ele>1212.448</ele>
        <time>2022-03-22T11:12:29Z</time>
      </trkpt>
      <trkpt lat="44.37558" lon="5.81152">
        <ele>1212.448</ele>
        <time>2022-03-22T11:12:31Z</time>
      </trkpt>
      <trkpt lat="44.3756" lon="5.8115">
        <ele>1212.348</ele>
        <time>2022-03-22T11:12:33Z</time>
      </trkpt>
      <trkpt lat="44.3756" lon="5.81149">
        <ele>1212.048</ele>
        <time>2022-03-22T11:12:34Z</time>
      </trkpt>
      <trkpt lat="44.3756" lon="5.81146">
        <ele>1211.548</ele>
        <time>2022-03-22T11:12:36Z</time>
      </trkpt>
      <trkpt lat="44.37561" lon="5.81143">
        <ele>1211.248</ele>
        <time>2022-03-22T11:12:38Z</time>
      </trkpt>
      <trkpt lat="44.37561" lon="5.81142">
        <ele>1211.248</ele>
        <time>2022-03-22T11:12:39Z</time>
      </trkpt>
      <trkpt lat="44.37562" lon="5.81141">
        <ele>1211.248</ele>
        <time>2022-03-22T11:12:40Z</time>
      </trkpt>
      <trkpt lat="44.37562" lon="5.81139">
        <ele>1211.348</ele>
        <time>2022-03-22T11:12:41Z</time>
      </trkpt>
      <trkpt lat="44.37562" lon="5.81137">
        <ele>1211.048</ele>
        <time>2022-03-22T11:12:42Z</time>
      </trkpt>
      <trkpt lat="44.37562" lon="5.81136">
        <ele>1210.748</ele>
        <time>2022-03-22T11:12:43Z</time>
      </trkpt>
      <trkpt lat="44.37562" lon="5.81133">
        <ele>1210.148</ele>
        <time>2022-03-22T11:12:45Z</time>
      </trkpt>
      <trkpt lat="44.37563" lon="5.8113">
        <ele>1210.348</ele>
        <time>2022-03-22T11:12:47Z</time>
      </trkpt>
      <trkpt lat="44.37564" lon="5.81128">
        <ele>1210.548</ele>
        <time>2022-03-22T11:12:49Z</time>
      </trkpt>
      <trkpt lat="44.37564" lon="5.81127">
        <ele>1210.548</ele>
        <time>2022-03-22T11:12:50Z</time>
      </trkpt>
      <trkpt lat="44.37565" lon="5.81125">
        <ele>1210.648</ele>
        <time>2022-03-22T11:12:52Z</time>
      </trkpt>
      <trkpt lat="44.37565" lon="5.81122">
        <ele>1210.648</ele>
        <time>2022-03-22T11:12:54Z</time>
      </trkpt>
      <trkpt lat="44.37565" lon="5.8112">
        <ele>1210.448</ele>
        <time>2022-03-22T11:12:56Z</time>
      </trkpt>
      <trkpt lat="44.37565" lon="5.81119">
        <ele>1210.248</ele>
        <time>2022-03-22T11:12:57Z</time>
      </trkpt>
      <trkpt lat="44.37566" lon="5.81117">
        <ele>1210.248</ele>
        <time>2022-03-22T11:12:58Z</time>
      </trkpt>
      <trkpt lat="44.37566" lon="5.81116">
        <ele>1209.948</ele>
        <time>2022-03-22T11:12:59Z</time>
      </trkpt>
      <trkpt lat="44.37565" lon="5.81114">
        <ele>1210.148</ele>
        <time>2022-03-22T11:13:01Z</time>
      </trkpt>
      <trkpt lat="44.37565" lon="5.81113">
        <ele>1210.348</ele>
        <time>2022-03-22T11:13:03Z</time>
      </trkpt>
      <trkpt lat="44.37566" lon="5.81111">
        <ele>1210.448</ele>
        <time>2022-03-22T11:13:04Z</time>
      </trkpt>
      <trkpt lat="44.37566" lon="5.8111">
        <ele>1210.648</ele>
        <time>2022-03-22T11:13:05Z</time>
      </trkpt>
      <trkpt lat="44.37566" lon="5.81108">
        <ele>1210.848</ele>
        <time>2022-03-22T11:13:06Z</time>
      </trkpt>
      <trkpt lat="44.37566" lon="5.81107">
        <ele>1211.148</ele>
        <time>2022-03-22T11:13:07Z</time>
      </trkpt>
      <trkpt lat="44.37566" lon="5.81105">
        <ele>1211.249</ele>
        <time>2022-03-22T11:13:08Z</time>
      </trkpt>
      <trkpt lat="44.37567" lon="5.81103">
        <ele>1211.449</ele>
        <time>2022-03-22T11:13:10Z</time>
      </trkpt>
      <trkpt lat="44.37568" lon="5.81102">
        <ele>1211.648</ele>
        <time>2022-03-22T11:13:12Z</time>
      </trkpt>
      <trkpt lat="44.37568" lon="5.81099">
        <ele>1211.849</ele>
        <time>2022-03-22T11:13:14Z</time>
      </trkpt>
      <trkpt lat="44.37569" lon="5.81097">
        <ele>1211.549</ele>
        <time>2022-03-22T11:13:16Z</time>
      </trkpt>
      <trkpt lat="44.37569" lon="5.81096">
        <ele>1211.249</ele>
        <time>2022-03-22T11:13:17Z</time>
      </trkpt>
      <trkpt lat="44.37569" lon="5.81094">
        <ele>1210.949</ele>
        <time>2022-03-22T11:13:19Z</time>
      </trkpt>
      <trkpt lat="44.37569" lon="5.81092">
        <ele>1210.749</ele>
        <time>2022-03-22T11:13:21Z</time>
      </trkpt>
      <trkpt lat="44.37569" lon="5.8109">
        <ele>1210.849</ele>
        <time>2022-03-22T11:13:23Z</time>
      </trkpt>
      <trkpt lat="44.3757" lon="5.81089">
        <ele>1210.949</ele>
        <time>2022-03-22T11:13:24Z</time>
      </trkpt>
      <trkpt lat="44.3757" lon="5.81087">
        <ele>1211.249</ele>
        <time>2022-03-22T11:13:25Z</time>
      </trkpt>
      <trkpt lat="44.3757" lon="5.81086">
        <ele>1211.349</ele>
        <time>2022-03-22T11:13:26Z</time>
      </trkpt>
      <trkpt lat="44.37571" lon="5.81085">
        <ele>1211.249</ele>
        <time>2022-03-22T11:13:27Z</time>
      </trkpt>
      <trkpt lat="44.37572" lon="5.81083">
        <ele>1211.349</ele>
        <time>2022-03-22T11:13:29Z</time>
      </trkpt>
      <trkpt lat="44.37572" lon="5.81081">
        <ele>1211.449</ele>
        <time>2022-03-22T11:13:31Z</time>
      </trkpt>
      <trkpt lat="44.37572" lon="5.81079">
        <ele>1211.749</ele>
        <time>2022-03-22T11:13:33Z</time>
      </trkpt>
      <trkpt lat="44.37572" lon="5.81077">
        <ele>1211.849</ele>
        <time>2022-03-22T11:13:35Z</time>
      </trkpt>
      <trkpt lat="44.37572" lon="5.81076">
        <ele>1211.949</ele>
        <time>2022-03-22T11:13:37Z</time>
      </trkpt>
      <trkpt lat="44.37573" lon="5.81074">
        <ele>1212.149</ele>
        <time>2022-03-22T11:13:39Z</time>
      </trkpt>
      <trkpt lat="44.37573" lon="5.81072">
        <ele>1212.349</ele>
        <time>2022-03-22T11:13:41Z</time>
      </trkpt>
      <trkpt lat="44.37573" lon="5.81071">
        <ele>1212.349</ele>
        <time>2022-03-22T11:13:43Z</time>
      </trkpt>
      <trkpt lat="44.37574" lon="5.81069">
        <ele>1212.749</ele>
        <time>2022-03-22T11:13:45Z</time>
      </trkpt>
      <trkpt lat="44.37575" lon="5.81068">
        <ele>1212.849</ele>
        <time>2022-03-22T11:13:47Z</time>
      </trkpt>
      <trkpt lat="44.37574" lon="5.81066">
        <ele>1213.249</ele>
        <time>2022-03-22T11:13:49Z</time>
      </trkpt>
      <trkpt lat="44.37575" lon="5.81064">
        <ele>1213.349</ele>
        <time>2022-03-22T11:13:51Z</time>
      </trkpt>
      <trkpt lat="44.37575" lon="5.81063">
        <ele>1213.549</ele>
        <time>2022-03-22T11:13:53Z</time>
      </trkpt>
      <trkpt lat="44.37575" lon="5.81061">
        <ele>1213.649</ele>
        <time>2022-03-22T11:13:55Z</time>
      </trkpt>
      <trkpt lat="44.37576" lon="5.81059">
        <ele>1214.149</ele>
        <time>2022-03-22T11:13:57Z</time>
      </trkpt>
      <trkpt lat="44.37577" lon="5.81058">
        <ele>1214.249</ele>
        <time>2022-03-22T11:13:59Z</time>
      </trkpt>
      <trkpt lat="44.37578" lon="5.81056">
        <ele>1214.649</ele>
        <time>2022-03-22T11:14:01Z</time>
      </trkpt>
      <trkpt lat="44.37578" lon="5.81055">
        <ele>1214.749</ele>
        <time>2022-03-22T11:14:02Z</time>
      </trkpt>
      <trkpt lat="44.37579" lon="5.81053">
        <ele>1214.949</ele>
        <time>2022-03-22T11:14:04Z</time>
      </trkpt>
      <trkpt lat="44.37579" lon="5.81052">
        <ele>1215.349</ele>
        <time>2022-03-22T11:14:06Z</time>
      </trkpt>
      <trkpt lat="44.37579" lon="5.8105">
        <ele>1215.649</ele>
        <time>2022-03-22T11:14:08Z</time>
      </trkpt>
      <trkpt lat="44.37579" lon="5.81048">
        <ele>1216.049</ele>
        <time>2022-03-22T11:14:10Z</time>
      </trkpt>
      <trkpt lat="44.37579" lon="5.81047">
        <ele>1216.249</ele>
        <time>2022-03-22T11:14:12Z</time>
      </trkpt>
      <trkpt lat="44.37579" lon="5.81045">
        <ele>1216.549</ele>
        <time>2022-03-22T11:14:14Z</time>
      </trkpt>
      <trkpt lat="44.37579" lon="5.81043">
        <ele>1216.549</ele>
        <time>2022-03-22T11:14:16Z</time>
      </trkpt>
      <trkpt lat="44.37579" lon="5.81042">
        <ele>1216.749</ele>
        <time>2022-03-22T11:14:19Z</time>
      </trkpt>
      <trkpt lat="44.3758" lon="5.8104">
        <ele>1217.049</ele>
        <time>2022-03-22T11:14:21Z</time>
      </trkpt>
      <trkpt lat="44.3758" lon="5.81039">
        <ele>1217.049</ele>
        <time>2022-03-22T11:14:22Z</time>
      </trkpt>
      <trkpt lat="44.37581" lon="5.81038">
        <ele>1216.949</ele>
        <time>2022-03-22T11:14:23Z</time>
      </trkpt>
      <trkpt lat="44.37581" lon="5.81036">
        <ele>1216.749</ele>
        <time>2022-03-22T11:14:25Z</time>
      </trkpt>
      <trkpt lat="44.37582" lon="5.81035">
        <ele>1216.949</ele>
        <time>2022-03-22T11:14:28Z</time>
      </trkpt>
      <trkpt lat="44.37583" lon="5.81033">
        <ele>1217.149</ele>
        <time>2022-03-22T11:14:30Z</time>
      </trkpt>
      <trkpt lat="44.37583" lon="5.81032">
        <ele>1217.249</ele>
        <time>2022-03-22T11:14:32Z</time>
      </trkpt>
      <trkpt lat="44.37584" lon="5.81031">
        <ele>1217.749</ele>
        <time>2022-03-22T11:14:34Z</time>
      </trkpt>
      <trkpt lat="44.37584" lon="5.81029">
        <ele>1217.249</ele>
        <time>2022-03-22T11:14:36Z</time>
      </trkpt>
      <trkpt lat="44.37585" lon="5.81027">
        <ele>1216.849</ele>
        <time>2022-03-22T11:14:38Z</time>
      </trkpt>
      <trkpt lat="44.37585" lon="5.81025">
        <ele>1216.449</ele>
        <time>2022-03-22T11:14:40Z</time>
      </trkpt>
      <trkpt lat="44.37586" lon="5.81024">
        <ele>1216.049</ele>
        <time>2022-03-22T11:14:43Z</time>
      </trkpt>
      <trkpt lat="44.37587" lon="5.81023">
        <ele>1215.449</ele>
        <time>2022-03-22T11:14:46Z</time>
      </trkpt>
      <trkpt lat="44.37587" lon="5.81021">
        <ele>1215.449</ele>
        <time>2022-03-22T11:14:48Z</time>
      </trkpt>
      <trkpt lat="44.37588" lon="5.81019">
        <ele>1215.249</ele>
        <time>2022-03-22T11:14:50Z</time>
      </trkpt>
      <trkpt lat="44.37589" lon="5.81018">
        <ele>1215.749</ele>
        <time>2022-03-22T11:14:53Z</time>
      </trkpt>
      <trkpt lat="44.37589" lon="5.81015">
        <ele>1215.749</ele>
        <time>2022-03-22T11:14:55Z</time>
      </trkpt>
      <trkpt lat="44.37589" lon="5.81014">
        <ele>1216.049</ele>
        <time>2022-03-22T11:14:56Z</time>
      </trkpt>
      <trkpt lat="44.37589" lon="5.81013">
        <ele>1216.549</ele>
        <time>2022-03-22T11:14:58Z</time>
      </trkpt>
      <trkpt lat="44.37589" lon="5.81011">
        <ele>1216.849</ele>
        <time>2022-03-22T11:15:00Z</time>
      </trkpt>
      <trkpt lat="44.3759" lon="5.81009">
        <ele>1216.649</ele>
        <time>2022-03-22T11:15:02Z</time>
      </trkpt>
      <trkpt lat="44.3759" lon="5.81008">
        <ele>1216.449</ele>
        <time>2022-03-22T11:15:03Z</time>
      </trkpt>
      <trkpt lat="44.37591" lon="5.81006">
        <ele>1216.549</ele>
        <time>2022-03-22T11:15:05Z</time>
      </trkpt>
      <trkpt lat="44.37591" lon="5.81004">
        <ele>1216.449</ele>
        <time>2022-03-22T11:15:07Z</time>
      </trkpt>
      <trkpt lat="44.37592" lon="5.81002">
        <ele>1216.149</ele>
        <time>2022-03-22T11:15:09Z</time>
      </trkpt>
      <trkpt lat="44.37592" lon="5.81001">
        <ele>1215.649</ele>
        <time>2022-03-22T11:15:10Z</time>
      </trkpt>
      <trkpt lat="44.37593" lon="5.80999">
        <ele>1215.349</ele>
        <time>2022-03-22T11:15:11Z</time>
      </trkpt>
      <trkpt lat="44.37592" lon="5.80997">
        <ele>1215.049</ele>
        <time>2022-03-22T11:15:12Z</time>
      </trkpt>
      <trkpt lat="44.37592" lon="5.80996">
        <ele>1215.149</ele>
        <time>2022-03-22T11:15:13Z</time>
      </trkpt>
      <trkpt lat="44.37593" lon="5.80995">
        <ele>1215.349</ele>
        <time>2022-03-22T11:15:14Z</time>
      </trkpt>
      <trkpt lat="44.37593" lon="5.80993">
        <ele>1215.449</ele>
        <time>2022-03-22T11:15:15Z</time>
      </trkpt>
      <trkpt lat="44.37593" lon="5.80991">
        <ele>1215.549</ele>
        <time>2022-03-22T11:15:17Z</time>
      </trkpt>
      <trkpt lat="44.37593" lon="5.8099">
        <ele>1215.249</ele>
        <time>2022-03-22T11:15:19Z</time>
      </trkpt>
      <trkpt lat="44.37593" lon="5.80988">
        <ele>1214.449</ele>
        <time>2022-03-22T11:15:22Z</time>
      </trkpt>
      <trkpt lat="44.37593" lon="5.80986">
        <ele>1213.749</ele>
        <time>2022-03-22T11:15:24Z</time>
      </trkpt>
      <trkpt lat="44.37594" lon="5.80984">
        <ele>1213.049</ele>
        <time>2022-03-22T11:15:26Z</time>
      </trkpt>
      <trkpt lat="44.37594" lon="5.80982">
        <ele>1212.849</ele>
        <time>2022-03-22T11:15:27Z</time>
      </trkpt>
      <trkpt lat="44.37594" lon="5.8098">
        <ele>1212.849</ele>
        <time>2022-03-22T11:15:29Z</time>
      </trkpt>
      <trkpt lat="44.37594" lon="5.80979">
        <ele>1212.949</ele>
        <time>2022-03-22T11:15:30Z</time>
      </trkpt>
      <trkpt lat="44.37595" lon="5.80977">
        <ele>1212.749</ele>
        <time>2022-03-22T11:15:32Z</time>
      </trkpt>
      <trkpt lat="44.37595" lon="5.80976">
        <ele>1212.349</ele>
        <time>2022-03-22T11:15:34Z</time>
      </trkpt>
      <trkpt lat="44.37595" lon="5.80974">
        <ele>1212.349</ele>
        <time>2022-03-22T11:15:36Z</time>
      </trkpt>
      <trkpt lat="44.37595" lon="5.80972">
        <ele>1212.449</ele>
        <time>2022-03-22T11:15:37Z</time>
      </trkpt>
      <trkpt lat="44.37595" lon="5.80971">
        <ele>1212.249</ele>
        <time>2022-03-22T11:15:38Z</time>
      </trkpt>
      <trkpt lat="44.37596" lon="5.80969">
        <ele>1212.149</ele>
        <time>2022-03-22T11:15:39Z</time>
      </trkpt>
      <trkpt lat="44.37596" lon="5.80968">
        <ele>1211.249</ele>
        <time>2022-03-22T11:15:41Z</time>
      </trkpt>
      <trkpt lat="44.37597" lon="5.80966">
        <ele>1211.149</ele>
        <time>2022-03-22T11:15:42Z</time>
      </trkpt>
      <trkpt lat="44.37597" lon="5.80965">
        <ele>1210.949</ele>
        <time>2022-03-22T11:15:44Z</time>
      </trkpt>
      <trkpt lat="44.37597" lon="5.80962">
        <ele>1210.449</ele>
        <time>2022-03-22T11:15:46Z</time>
      </trkpt>
      <trkpt lat="44.37597" lon="5.80961">
        <ele>1210.349</ele>
        <time>2022-03-22T11:15:47Z</time>
      </trkpt>
      <trkpt lat="44.37598" lon="5.80959">
        <ele>1210.449</ele>
        <time>2022-03-22T11:15:49Z</time>
      </trkpt>
      <trkpt lat="44.37599" lon="5.80957">
        <ele>1210.449</ele>
        <time>2022-03-22T11:15:51Z</time>
      </trkpt>
      <trkpt lat="44.376" lon="5.80955">
        <ele>1209.949</ele>
        <time>2022-03-22T11:15:53Z</time>
      </trkpt>
      <trkpt lat="44.376" lon="5.80953">
        <ele>1209.349</ele>
        <time>2022-03-22T11:15:55Z</time>
      </trkpt>
      <trkpt lat="44.37601" lon="5.80951">
        <ele>1209.049</ele>
        <time>2022-03-22T11:15:57Z</time>
      </trkpt>
      <trkpt lat="44.37601" lon="5.80949">
        <ele>1208.949</ele>
        <time>2022-03-22T11:15:58Z</time>
      </trkpt>
      <trkpt lat="44.37601" lon="5.80948">
        <ele>1208.549</ele>
        <time>2022-03-22T11:16:00Z</time>
      </trkpt>
      <trkpt lat="44.376" lon="5.80946">
        <ele>1208.349</ele>
        <time>2022-03-22T11:16:02Z</time>
      </trkpt>
      <trkpt lat="44.37601" lon="5.80946">
        <ele>1207.649</ele>
        <time>2022-03-22T11:16:06Z</time>
      </trkpt>
      <trkpt lat="44.37602" lon="5.80943">
        <ele>1207.249</ele>
        <time>2022-03-22T11:16:08Z</time>
      </trkpt>
      <trkpt lat="44.37602" lon="5.80942">
        <ele>1206.849</ele>
        <time>2022-03-22T11:16:09Z</time>
      </trkpt>
      <trkpt lat="44.37603" lon="5.8094">
        <ele>1206.449</ele>
        <time>2022-03-22T11:16:11Z</time>
      </trkpt>
      <trkpt lat="44.37603" lon="5.80938">
        <ele>1206.349</ele>
        <time>2022-03-22T11:16:12Z</time>
      </trkpt>
      <trkpt lat="44.37603" lon="5.80936">
        <ele>1206.049</ele>
        <time>2022-03-22T11:16:13Z</time>
      </trkpt>
      <trkpt lat="44.37603" lon="5.80935">
        <ele>1205.649</ele>
        <time>2022-03-22T11:16:15Z</time>
      </trkpt>
      <trkpt lat="44.37604" lon="5.80932">
        <ele>1206.149</ele>
        <time>2022-03-22T11:16:17Z</time>
      </trkpt>
      <trkpt lat="44.37603" lon="5.80931">
        <ele>1206.249</ele>
        <time>2022-03-22T11:16:19Z</time>
      </trkpt>
      <trkpt lat="44.37602" lon="5.8093">
        <ele>1205.949</ele>
        <time>2022-03-22T11:16:21Z</time>
      </trkpt>
      <trkpt lat="44.37602" lon="5.80928">
        <ele>1205.249</ele>
        <time>2022-03-22T11:16:23Z</time>
      </trkpt>
      <trkpt lat="44.37602" lon="5.80927">
        <ele>1205.149</ele>
        <time>2022-03-22T11:16:25Z</time>
      </trkpt>
      <trkpt lat="44.37601" lon="5.80926">
        <ele>1205.249</ele>
        <time>2022-03-22T11:16:27Z</time>
      </trkpt>
      <trkpt lat="44.376" lon="5.80925">
        <ele>1205.549</ele>
        <time>2022-03-22T11:16:30Z</time>
      </trkpt>
      <trkpt lat="44.376" lon="5.80923">
        <ele>1206.049</ele>
        <time>2022-03-22T11:16:32Z</time>
      </trkpt>
      <trkpt lat="44.376" lon="5.80922">
        <ele>1205.949</ele>
        <time>2022-03-22T11:16:33Z</time>
      </trkpt>
      <trkpt lat="44.376" lon="5.8092">
        <ele>1205.849</ele>
        <time>2022-03-22T11:16:34Z</time>
      </trkpt>
      <trkpt lat="44.37601" lon="5.80918">
        <ele>1206.049</ele>
        <time>2022-03-22T11:16:35Z</time>
      </trkpt>
      <trkpt lat="44.37601" lon="5.80917">
        <ele>1206.249</ele>
        <time>2022-03-22T11:16:36Z</time>
      </trkpt>
      <trkpt lat="44.37601" lon="5.80915">
        <ele>1206.149</ele>
        <time>2022-03-22T11:16:37Z</time>
      </trkpt>
      <trkpt lat="44.37602" lon="5.80913">
        <ele>1206.15</ele>
        <time>2022-03-22T11:16:38Z</time>
      </trkpt>
      <trkpt lat="44.37602" lon="5.80912">
        <ele>1206.05</ele>
        <time>2022-03-22T11:16:39Z</time>
      </trkpt>
      <trkpt lat="44.37602" lon="5.8091">
        <ele>1205.85</ele>
        <time>2022-03-22T11:16:40Z</time>
      </trkpt>
      <trkpt lat="44.37602" lon="5.80908">
        <ele>1205.65</ele>
        <time>2022-03-22T11:16:41Z</time>
      </trkpt>
      <trkpt lat="44.37602" lon="5.80907">
        <ele>1205.65</ele>
        <time>2022-03-22T11:16:42Z</time>
      </trkpt>
      <trkpt lat="44.37602" lon="5.80905">
        <ele>1205.35</ele>
        <time>2022-03-22T11:16:43Z</time>
      </trkpt>
      <trkpt lat="44.37602" lon="5.80903">
        <ele>1205.25</ele>
        <time>2022-03-22T11:16:45Z</time>
      </trkpt>
      <trkpt lat="44.37603" lon="5.80901">
        <ele>1205.05</ele>
        <time>2022-03-22T11:16:46Z</time>
      </trkpt>
      <trkpt lat="44.37603" lon="5.80899">
        <ele>1205.05</ele>
        <time>2022-03-22T11:16:47Z</time>
      </trkpt>
      <trkpt lat="44.37604" lon="5.80897">
        <ele>1204.95</ele>
        <time>2022-03-22T11:16:49Z</time>
      </trkpt>
      <trkpt lat="44.37604" lon="5.80896">
        <ele>1205.35</ele>
        <time>2022-03-22T11:16:50Z</time>
      </trkpt>
      <trkpt lat="44.37604" lon="5.80894">
        <ele>1205.35</ele>
        <time>2022-03-22T11:16:51Z</time>
      </trkpt>
      <trkpt lat="44.37604" lon="5.80893">
        <ele>1205.35</ele>
        <time>2022-03-22T11:16:52Z</time>
      </trkpt>
      <trkpt lat="44.37604" lon="5.8089">
        <ele>1204.65</ele>
        <time>2022-03-22T11:16:54Z</time>
      </trkpt>
      <trkpt lat="44.37604" lon="5.80888">
        <ele>1204.35</ele>
        <time>2022-03-22T11:16:56Z</time>
      </trkpt>
      <trkpt lat="44.37604" lon="5.80886">
        <ele>1204.15</ele>
        <time>2022-03-22T11:16:57Z</time>
      </trkpt>
      <trkpt lat="44.37604" lon="5.80884">
        <ele>1203.95</ele>
        <time>2022-03-22T11:16:58Z</time>
      </trkpt>
      <trkpt lat="44.37604" lon="5.80883">
        <ele>1203.75</ele>
        <time>2022-03-22T11:16:59Z</time>
      </trkpt>
      <trkpt lat="44.37604" lon="5.80881">
        <ele>1203.85</ele>
        <time>2022-03-22T11:17:01Z</time>
      </trkpt>
      <trkpt lat="44.37605" lon="5.80879">
        <ele>1203.85</ele>
        <time>2022-03-22T11:17:02Z</time>
      </trkpt>
      <trkpt lat="44.37605" lon="5.80878">
        <ele>1204.05</ele>
        <time>2022-03-22T11:17:03Z</time>
      </trkpt>
      <trkpt lat="44.37605" lon="5.80876">
        <ele>1203.95</ele>
        <time>2022-03-22T11:17:05Z</time>
      </trkpt>
      <trkpt lat="44.37606" lon="5.80874">
        <ele>1203.95</ele>
        <time>2022-03-22T11:17:07Z</time>
      </trkpt>
      <trkpt lat="44.37606" lon="5.80872">
        <ele>1203.95</ele>
        <time>2022-03-22T11:17:08Z</time>
      </trkpt>
      <trkpt lat="44.37606" lon="5.80871">
        <ele>1203.95</ele>
        <time>2022-03-22T11:17:09Z</time>
      </trkpt>
      <trkpt lat="44.37606" lon="5.8087">
        <ele>1203.75</ele>
        <time>2022-03-22T11:17:10Z</time>
      </trkpt>
      <trkpt lat="44.37607" lon="5.80869">
        <ele>1203.65</ele>
        <time>2022-03-22T11:17:11Z</time>
      </trkpt>
      <trkpt lat="44.37608" lon="5.80868">
        <ele>1203.35</ele>
        <time>2022-03-22T11:17:12Z</time>
      </trkpt>
      <trkpt lat="44.37608" lon="5.80866">
        <ele>1202.95</ele>
        <time>2022-03-22T11:17:14Z</time>
      </trkpt>
      <trkpt lat="44.37608" lon="5.80864">
        <ele>1202.95</ele>
        <time>2022-03-22T11:17:15Z</time>
      </trkpt>
      <trkpt lat="44.37609" lon="5.80863">
        <ele>1203.15</ele>
        <time>2022-03-22T11:17:16Z</time>
      </trkpt>
      <trkpt lat="44.37609" lon="5.80862">
        <ele>1203.35</ele>
        <time>2022-03-22T11:17:17Z</time>
      </trkpt>
      <trkpt lat="44.37609" lon="5.8086">
        <ele>1203.35</ele>
        <time>2022-03-22T11:17:18Z</time>
      </trkpt>
      <trkpt lat="44.37609" lon="5.80859">
        <ele>1203.25</ele>
        <time>2022-03-22T11:17:19Z</time>
      </trkpt>
      <trkpt lat="44.3761" lon="5.80858">
        <ele>1203.35</ele>
        <time>2022-03-22T11:17:20Z</time>
      </trkpt>
      <trkpt lat="44.3761" lon="5.80856">
        <ele>1203.45</ele>
        <time>2022-03-22T11:17:21Z</time>
      </trkpt>
      <trkpt lat="44.3761" lon="5.80854">
        <ele>1203.55</ele>
        <time>2022-03-22T11:17:22Z</time>
      </trkpt>
      <trkpt lat="44.37611" lon="5.80853">
        <ele>1203.65</ele>
        <time>2022-03-22T11:17:24Z</time>
      </trkpt>
      <trkpt lat="44.37612" lon="5.80852">
        <ele>1203.35</ele>
        <time>2022-03-22T11:17:26Z</time>
      </trkpt>
      <trkpt lat="44.37612" lon="5.8085">
        <ele>1202.75</ele>
        <time>2022-03-22T11:17:28Z</time>
      </trkpt>
      <trkpt lat="44.37612" lon="5.80849">
        <ele>1202.55</ele>
        <time>2022-03-22T11:17:29Z</time>
      </trkpt>
      <trkpt lat="44.37612" lon="5.80846">
        <ele>1202.05</ele>
        <time>2022-03-22T11:17:31Z</time>
      </trkpt>
      <trkpt lat="44.37612" lon="5.80844">
        <ele>1201.85</ele>
        <time>2022-03-22T11:17:33Z</time>
      </trkpt>
      <trkpt lat="44.37612" lon="5.80843">
        <ele>1201.85</ele>
        <time>2022-03-22T11:17:34Z</time>
      </trkpt>
      <trkpt lat="44.37612" lon="5.80841">
        <ele>1201.85</ele>
        <time>2022-03-22T11:17:36Z</time>
      </trkpt>
      <trkpt lat="44.37612" lon="5.80839">
        <ele>1201.85</ele>
        <time>2022-03-22T11:17:38Z</time>
      </trkpt>
      <trkpt lat="44.37613" lon="5.80836">
        <ele>1201.75</ele>
        <time>2022-03-22T11:17:40Z</time>
      </trkpt>
      <trkpt lat="44.37613" lon="5.80833">
        <ele>1201.15</ele>
        <time>2022-03-22T11:17:42Z</time>
      </trkpt>
      <trkpt lat="44.37613" lon="5.80831">
        <ele>1200.75</ele>
        <time>2022-03-22T11:17:44Z</time>
      </trkpt>
      <trkpt lat="44.37613" lon="5.80829">
        <ele>1200.35</ele>
        <time>2022-03-22T11:17:46Z</time>
      </trkpt>
      <trkpt lat="44.37613" lon="5.80827">
        <ele>1199.95</ele>
        <time>2022-03-22T11:17:48Z</time>
      </trkpt>
      <trkpt lat="44.37613" lon="5.80825">
        <ele>1199.85</ele>
        <time>2022-03-22T11:17:50Z</time>
      </trkpt>
      <trkpt lat="44.37613" lon="5.80823">
        <ele>1199.85</ele>
        <time>2022-03-22T11:17:52Z</time>
      </trkpt>
      <trkpt lat="44.37614" lon="5.80822">
        <ele>1200.25</ele>
        <time>2022-03-22T11:17:53Z</time>
      </trkpt>
      <trkpt lat="44.37614" lon="5.8082">
        <ele>1200.45</ele>
        <time>2022-03-22T11:17:54Z</time>
      </trkpt>
      <trkpt lat="44.37613" lon="5.80818">
        <ele>1200.65</ele>
        <time>2022-03-22T11:17:56Z</time>
      </trkpt>
      <trkpt lat="44.37613" lon="5.80817">
        <ele>1200.75</ele>
        <time>2022-03-22T11:17:58Z</time>
      </trkpt>
      <trkpt lat="44.37613" lon="5.80816">
        <ele>1201.05</ele>
        <time>2022-03-22T11:18:00Z</time>
      </trkpt>
      <trkpt lat="44.37613" lon="5.80814">
        <ele>1201.35</ele>
        <time>2022-03-22T11:18:02Z</time>
      </trkpt>
      <trkpt lat="44.37614" lon="5.80813">
        <ele>1201.95</ele>
        <time>2022-03-22T11:18:04Z</time>
      </trkpt>
      <trkpt lat="44.37614" lon="5.80812">
        <ele>1202.35</ele>
        <time>2022-03-22T11:18:07Z</time>
      </trkpt>
      <trkpt lat="44.37614" lon="5.80811">
        <ele>1202.45</ele>
        <time>2022-03-22T11:18:08Z</time>
      </trkpt>
      <trkpt lat="44.37613" lon="5.80811">
        <ele>1202.65</ele>
        <time>2022-03-22T11:18:09Z</time>
      </trkpt>
      <trkpt lat="44.37613" lon="5.8081">
        <ele>1203.15</ele>
        <time>2022-03-22T11:18:11Z</time>
      </trkpt>
      <trkpt lat="44.37613" lon="5.80809">
        <ele>1203.65</ele>
        <time>2022-03-22T11:18:12Z</time>
      </trkpt>
      <trkpt lat="44.37614" lon="5.80806">
        <ele>1204.15</ele>
        <time>2022-03-22T11:18:14Z</time>
      </trkpt>
      <trkpt lat="44.37614" lon="5.80805">
        <ele>1204.25</ele>
        <time>2022-03-22T11:18:16Z</time>
      </trkpt>
      <trkpt lat="44.37615" lon="5.80804">
        <ele>1204.45</ele>
        <time>2022-03-22T11:18:18Z</time>
      </trkpt>
      <trkpt lat="44.37616" lon="5.80801">
        <ele>1204.45</ele>
        <time>2022-03-22T11:18:20Z</time>
      </trkpt>
      <trkpt lat="44.37617" lon="5.80799">
        <ele>1204.35</ele>
        <time>2022-03-22T11:18:22Z</time>
      </trkpt>
      <trkpt lat="44.37618" lon="5.80797">
        <ele>1203.95</ele>
        <time>2022-03-22T11:18:24Z</time>
      </trkpt>
      <trkpt lat="44.37618" lon="5.80795">
        <ele>1203.95</ele>
        <time>2022-03-22T11:18:26Z</time>
      </trkpt>
      <trkpt lat="44.37618" lon="5.80793">
        <ele>1204.05</ele>
        <time>2022-03-22T11:18:27Z</time>
      </trkpt>
      <trkpt lat="44.37618" lon="5.80792">
        <ele>1203.85</ele>
        <time>2022-03-22T11:18:28Z</time>
      </trkpt>
      <trkpt lat="44.37618" lon="5.8079">
        <ele>1203.95</ele>
        <time>2022-03-22T11:18:30Z</time>
      </trkpt>
      <trkpt lat="44.37618" lon="5.80788">
        <ele>1203.95</ele>
        <time>2022-03-22T11:18:32Z</time>
      </trkpt>
      <trkpt lat="44.37617" lon="5.80786">
        <ele>1203.45</ele>
        <time>2022-03-22T11:18:34Z</time>
      </trkpt>
      <trkpt lat="44.37617" lon="5.80784">
        <ele>1203.15</ele>
        <time>2022-03-22T11:18:36Z</time>
      </trkpt>
      <trkpt lat="44.37617" lon="5.80782">
        <ele>1202.85</ele>
        <time>2022-03-22T11:18:38Z</time>
      </trkpt>
      <trkpt lat="44.37617" lon="5.80781">
        <ele>1202.85</ele>
        <time>2022-03-22T11:18:39Z</time>
      </trkpt>
      <trkpt lat="44.37617" lon="5.80779">
        <ele>1202.85</ele>
        <time>2022-03-22T11:18:40Z</time>
      </trkpt>
      <trkpt lat="44.37617" lon="5.80778">
        <ele>1202.75</ele>
        <time>2022-03-22T11:18:42Z</time>
      </trkpt>
      <trkpt lat="44.37616" lon="5.80776">
        <ele>1202.75</ele>
        <time>2022-03-22T11:18:46Z</time>
      </trkpt>
      <trkpt lat="44.37617" lon="5.80774">
        <ele>1202.85</ele>
        <time>2022-03-22T11:18:48Z</time>
      </trkpt>
      <trkpt lat="44.37617" lon="5.80774">
        <ele>1202.95</ele>
        <time>2022-03-22T11:18:50Z</time>
      </trkpt>
      <trkpt lat="44.37617" lon="5.80773">
        <ele>1203.05</ele>
        <time>2022-03-22T11:18:51Z</time>
      </trkpt>
      <trkpt lat="44.37618" lon="5.80772">
        <ele>1203.15</ele>
        <time>2022-03-22T11:18:55Z</time>
      </trkpt>
      <trkpt lat="44.37619" lon="5.8077">
        <ele>1202.95</ele>
        <time>2022-03-22T11:18:56Z</time>
      </trkpt>
      <trkpt lat="44.37619" lon="5.80769">
        <ele>1203.05</ele>
        <time>2022-03-22T11:18:58Z</time>
      </trkpt>
      <trkpt lat="44.37619" lon="5.80768">
        <ele>1203.25</ele>
        <time>2022-03-22T11:18:59Z</time>
      </trkpt>
      <trkpt lat="44.37619" lon="5.80767">
        <ele>1203.25</ele>
        <time>2022-03-22T11:19:02Z</time>
      </trkpt>
      <trkpt lat="44.37619" lon="5.80766">
        <ele>1202.851</ele>
        <time>2022-03-22T11:19:03Z</time>
      </trkpt>
      <trkpt lat="44.37619" lon="5.80764">
        <ele>1202.851</ele>
        <time>2022-03-22T11:19:05Z</time>
      </trkpt>
      <trkpt lat="44.37619" lon="5.80763">
        <ele>1202.751</ele>
        <time>2022-03-22T11:19:06Z</time>
      </trkpt>
      <trkpt lat="44.37619" lon="5.8076">
        <ele>1202.751</ele>
        <time>2022-03-22T11:19:08Z</time>
      </trkpt>
      <trkpt lat="44.37618" lon="5.80758">
        <ele>1202.851</ele>
        <time>2022-03-22T11:19:10Z</time>
      </trkpt>
      <trkpt lat="44.37617" lon="5.80757">
        <ele>1202.751</ele>
        <time>2022-03-22T11:19:11Z</time>
      </trkpt>
      <trkpt lat="44.37617" lon="5.80756">
        <ele>1202.851</ele>
        <time>2022-03-22T11:19:13Z</time>
      </trkpt>
      <trkpt lat="44.37617" lon="5.80753">
        <ele>1202.751</ele>
        <time>2022-03-22T11:19:15Z</time>
      </trkpt>
      <trkpt lat="44.37617" lon="5.80751">
        <ele>1202.551</ele>
        <time>2022-03-22T11:19:17Z</time>
      </trkpt>
      <trkpt lat="44.37617" lon="5.80749">
        <ele>1202.251</ele>
        <time>2022-03-22T11:19:19Z</time>
      </trkpt>
      <trkpt lat="44.37617" lon="5.80747">
        <ele>1202.151</ele>
        <time>2022-03-22T11:19:21Z</time>
      </trkpt>
      <trkpt lat="44.37617" lon="5.80746">
        <ele>1201.851</ele>
        <time>2022-03-22T11:19:22Z</time>
      </trkpt>
      <trkpt lat="44.37617" lon="5.80744">
        <ele>1202.251</ele>
        <time>2022-03-22T11:19:23Z</time>
      </trkpt>
      <trkpt lat="44.37616" lon="5.80743">
        <ele>1202.151</ele>
        <time>2022-03-22T11:19:24Z</time>
      </trkpt>
      <trkpt lat="44.37616" lon="5.80742">
        <ele>1202.051</ele>
        <time>2022-03-22T11:19:25Z</time>
      </trkpt>
      <trkpt lat="44.37617" lon="5.8074">
        <ele>1201.451</ele>
        <time>2022-03-22T11:19:27Z</time>
      </trkpt>
      <trkpt lat="44.37618" lon="5.80738">
        <ele>1201.151</ele>
        <time>2022-03-22T11:19:29Z</time>
      </trkpt>
      <trkpt lat="44.37618" lon="5.80736">
        <ele>1201.151</ele>
        <time>2022-03-22T11:19:30Z</time>
      </trkpt>
      <trkpt lat="44.37619" lon="5.80734">
        <ele>1200.651</ele>
        <time>2022-03-22T11:19:32Z</time>
      </trkpt>
      <trkpt lat="44.37619" lon="5.80733">
        <ele>1200.451</ele>
        <time>2022-03-22T11:19:33Z</time>
      </trkpt>
      <trkpt lat="44.37619" lon="5.80731">
        <ele>1200.051</ele>
        <time>2022-03-22T11:19:34Z</time>
      </trkpt>
      <trkpt lat="44.3762" lon="5.8073">
        <ele>1199.951</ele>
        <time>2022-03-22T11:19:35Z</time>
      </trkpt>
      <trkpt lat="44.3762" lon="5.80728">
        <ele>1199.451</ele>
        <time>2022-03-22T11:19:37Z</time>
      </trkpt>
      <trkpt lat="44.3762" lon="5.80726">
        <ele>1199.051</ele>
        <time>2022-03-22T11:19:39Z</time>
      </trkpt>
      <trkpt lat="44.3762" lon="5.80724">
        <ele>1198.551</ele>
        <time>2022-03-22T11:19:41Z</time>
      </trkpt>
      <trkpt lat="44.3762" lon="5.80723">
        <ele>1198.351</ele>
        <time>2022-03-22T11:19:43Z</time>
      </trkpt>
      <trkpt lat="44.3762" lon="5.8072">
        <ele>1198.151</ele>
        <time>2022-03-22T11:19:45Z</time>
      </trkpt>
      <trkpt lat="44.3762" lon="5.80718">
        <ele>1197.751</ele>
        <time>2022-03-22T11:19:47Z</time>
      </trkpt>
      <trkpt lat="44.3762" lon="5.80716">
        <ele>1197.751</ele>
        <time>2022-03-22T11:19:48Z</time>
      </trkpt>
      <trkpt lat="44.37621" lon="5.80714">
        <ele>1197.751</ele>
        <time>2022-03-22T11:19:50Z</time>
      </trkpt>
      <trkpt lat="44.37621" lon="5.80711">
        <ele>1197.851</ele>
        <time>2022-03-22T11:19:52Z</time>
      </trkpt>
      <trkpt lat="44.37622" lon="5.8071">
        <ele>1197.851</ele>
        <time>2022-03-22T11:19:54Z</time>
      </trkpt>
      <trkpt lat="44.37621" lon="5.80708">
        <ele>1197.451</ele>
        <time>2022-03-22T11:19:56Z</time>
      </trkpt>
      <trkpt lat="44.37621" lon="5.80706">
        <ele>1197.251</ele>
        <time>2022-03-22T11:19:58Z</time>
      </trkpt>
      <trkpt lat="44.3762" lon="5.80705">
        <ele>1197.151</ele>
        <time>2022-03-22T11:19:59Z</time>
      </trkpt>
      <trkpt lat="44.37619" lon="5.80703">
        <ele>1197.051</ele>
        <time>2022-03-22T11:20:00Z</time>
      </trkpt>
      <trkpt lat="44.37618" lon="5.80701">
        <ele>1197.551</ele>
        <time>2022-03-22T11:20:02Z</time>
      </trkpt>
      <trkpt lat="44.37618" lon="5.807">
        <ele>1197.951</ele>
        <time>2022-03-22T11:20:03Z</time>
      </trkpt>
      <trkpt lat="44.37617" lon="5.80699">
        <ele>1198.151</ele>
        <time>2022-03-22T11:20:05Z</time>
      </trkpt>
      <trkpt lat="44.37616" lon="5.80697">
        <ele>1198.251</ele>
        <time>2022-03-22T11:20:07Z</time>
      </trkpt>
      <trkpt lat="44.37616" lon="5.80696">
        <ele>1198.251</ele>
        <time>2022-03-22T11:20:08Z</time>
      </trkpt>
      <trkpt lat="44.37615" lon="5.80694">
        <ele>1198.451</ele>
        <time>2022-03-22T11:20:10Z</time>
      </trkpt>
      <trkpt lat="44.37614" lon="5.80692">
        <ele>1198.551</ele>
        <time>2022-03-22T11:20:12Z</time>
      </trkpt>
      <trkpt lat="44.37614" lon="5.80691">
        <ele>1198.651</ele>
        <time>2022-03-22T11:20:14Z</time>
      </trkpt>
      <trkpt lat="44.37613" lon="5.80689">
        <ele>1198.551</ele>
        <time>2022-03-22T11:20:16Z</time>
      </trkpt>
      <trkpt lat="44.37613" lon="5.80688">
        <ele>1198.851</ele>
        <time>2022-03-22T11:20:18Z</time>
      </trkpt>
      <trkpt lat="44.37612" lon="5.80688">
        <ele>1199.151</ele>
        <time>2022-03-22T11:20:21Z</time>
      </trkpt>
      <trkpt lat="44.37612" lon="5.80687">
        <ele>1199.151</ele>
        <time>2022-03-22T11:20:22Z</time>
      </trkpt>
      <trkpt lat="44.37612" lon="5.80687">
        <ele>1199.351</ele>
        <time>2022-03-22T11:20:23Z</time>
      </trkpt>
      <trkpt lat="44.37612" lon="5.80686">
        <ele>1199.351</ele>
        <time>2022-03-22T11:20:36Z</time>
      </trkpt>
      <trkpt lat="44.3761" lon="5.80683">
        <ele>1203.652</ele>
        <time>2022-03-22T11:20:37Z</time>
      </trkpt>
      <trkpt lat="44.3761" lon="5.80681">
        <ele>1204.252</ele>
        <time>2022-03-22T11:20:39Z</time>
      </trkpt>
      <trkpt lat="44.3761" lon="5.80679">
        <ele>1204.552</ele>
        <time>2022-03-22T11:20:41Z</time>
      </trkpt>
      <trkpt lat="44.3761" lon="5.80676">
        <ele>1205.252</ele>
        <time>2022-03-22T11:20:43Z</time>
      </trkpt>
      <trkpt lat="44.3761" lon="5.80675">
        <ele>1205.152</ele>
        <time>2022-03-22T11:20:44Z</time>
      </trkpt>
      <trkpt lat="44.37611" lon="5.80672">
        <ele>1205.152</ele>
        <time>2022-03-22T11:20:46Z</time>
      </trkpt>
      <trkpt lat="44.37611" lon="5.80671">
        <ele>1205.152</ele>
        <time>2022-03-22T11:20:47Z</time>
      </trkpt>
      <trkpt lat="44.37611" lon="5.80669">
        <ele>1205.252</ele>
        <time>2022-03-22T11:20:49Z</time>
      </trkpt>
      <trkpt lat="44.37612" lon="5.80667">
        <ele>1205.252</ele>
        <time>2022-03-22T11:20:51Z</time>
      </trkpt>
      <trkpt lat="44.37612" lon="5.80666">
        <ele>1205.152</ele>
        <time>2022-03-22T11:20:52Z</time>
      </trkpt>
      <trkpt lat="44.37612" lon="5.80663">
        <ele>1205.152</ele>
        <time>2022-03-22T11:20:54Z</time>
      </trkpt>
      <trkpt lat="44.37612" lon="5.80662">
        <ele>1204.952</ele>
        <time>2022-03-22T11:20:55Z</time>
      </trkpt>
      <trkpt lat="44.37612" lon="5.80661">
        <ele>1204.952</ele>
        <time>2022-03-22T11:20:56Z</time>
      </trkpt>
      <trkpt lat="44.37612" lon="5.80658">
        <ele>1204.852</ele>
        <time>2022-03-22T11:20:58Z</time>
      </trkpt>
      <trkpt lat="44.37612" lon="5.80656">
        <ele>1204.552</ele>
        <time>2022-03-22T11:21:00Z</time>
      </trkpt>
      <trkpt lat="44.37613" lon="5.80655">
        <ele>1204.452</ele>
        <time>2022-03-22T11:21:01Z</time>
      </trkpt>
      <trkpt lat="44.37613" lon="5.80653">
        <ele>1204.452</ele>
        <time>2022-03-22T11:21:02Z</time>
      </trkpt>
      <trkpt lat="44.37613" lon="5.80651">
        <ele>1204.352</ele>
        <time>2022-03-22T11:21:04Z</time>
      </trkpt>
      <trkpt lat="44.37613" lon="5.80649">
        <ele>1203.852</ele>
        <time>2022-03-22T11:21:06Z</time>
      </trkpt>
      <trkpt lat="44.37613" lon="5.80647">
        <ele>1203.552</ele>
        <time>2022-03-22T11:21:07Z</time>
      </trkpt>
      <trkpt lat="44.37613" lon="5.80646">
        <ele>1203.352</ele>
        <time>2022-03-22T11:21:08Z</time>
      </trkpt>
      <trkpt lat="44.37613" lon="5.80645">
        <ele>1202.952</ele>
        <time>2022-03-22T11:21:09Z</time>
      </trkpt>
      <trkpt lat="44.37614" lon="5.80643">
        <ele>1201.952</ele>
        <time>2022-03-22T11:21:11Z</time>
      </trkpt>
      <trkpt lat="44.37614" lon="5.8064">
        <ele>1201.352</ele>
        <time>2022-03-22T11:21:13Z</time>
      </trkpt>
      <trkpt lat="44.37614" lon="5.80639">
        <ele>1200.952</ele>
        <time>2022-03-22T11:21:14Z</time>
      </trkpt>
      <trkpt lat="44.37615" lon="5.80637">
        <ele>1200.752</ele>
        <time>2022-03-22T11:21:15Z</time>
      </trkpt>
      <trkpt lat="44.37615" lon="5.80635">
        <ele>1200.152</ele>
        <time>2022-03-22T11:21:17Z</time>
      </trkpt>
      <trkpt lat="44.37615" lon="5.80633">
        <ele>1199.752</ele>
        <time>2022-03-22T11:21:19Z</time>
      </trkpt>
      <trkpt lat="44.37615" lon="5.80632">
        <ele>1199.652</ele>
        <time>2022-03-22T11:21:20Z</time>
      </trkpt>
      <trkpt lat="44.37616" lon="5.8063">
        <ele>1199.552</ele>
        <time>2022-03-22T11:21:21Z</time>
      </trkpt>
      <trkpt lat="44.37616" lon="5.80629">
        <ele>1199.552</ele>
        <time>2022-03-22T11:21:22Z</time>
      </trkpt>
      <trkpt lat="44.37617" lon="5.80627">
        <ele>1199.552</ele>
        <time>2022-03-22T11:21:23Z</time>
      </trkpt>
      <trkpt lat="44.37618" lon="5.80626">
        <ele>1199.652</ele>
        <time>2022-03-22T11:21:25Z</time>
      </trkpt>
      <trkpt lat="44.37618" lon="5.80624">
        <ele>1199.552</ele>
        <time>2022-03-22T11:21:27Z</time>
      </trkpt>
      <trkpt lat="44.37618" lon="5.80622">
        <ele>1199.852</ele>
        <time>2022-03-22T11:21:29Z</time>
      </trkpt>
      <trkpt lat="44.37618" lon="5.8062">
        <ele>1199.752</ele>
        <time>2022-03-22T11:21:31Z</time>
      </trkpt>
      <trkpt lat="44.37617" lon="5.80618">
        <ele>1199.752</ele>
        <time>2022-03-22T11:21:33Z</time>
      </trkpt>
      <trkpt lat="44.37618" lon="5.80616">
        <ele>1199.452</ele>
        <time>2022-03-22T11:21:35Z</time>
      </trkpt>
      <trkpt lat="44.37618" lon="5.80615">
        <ele>1199.352</ele>
        <time>2022-03-22T11:21:36Z</time>
      </trkpt>
      <trkpt lat="44.37619" lon="5.80613">
        <ele>1198.852</ele>
        <time>2022-03-22T11:21:38Z</time>
      </trkpt>
      <trkpt lat="44.37619" lon="5.80612">
        <ele>1198.452</ele>
        <time>2022-03-22T11:21:39Z</time>
      </trkpt>
      <trkpt lat="44.37619" lon="5.8061">
        <ele>1197.852</ele>
        <time>2022-03-22T11:21:41Z</time>
      </trkpt>
      <trkpt lat="44.37619" lon="5.80608">
        <ele>1197.752</ele>
        <time>2022-03-22T11:21:42Z</time>
      </trkpt>
      <trkpt lat="44.37619" lon="5.80606">
        <ele>1197.252</ele>
        <time>2022-03-22T11:21:44Z</time>
      </trkpt>
      <trkpt lat="44.37619" lon="5.80604">
        <ele>1196.752</ele>
        <time>2022-03-22T11:21:46Z</time>
      </trkpt>
      <trkpt lat="44.37619" lon="5.80602">
        <ele>1196.352</ele>
        <time>2022-03-22T11:21:47Z</time>
      </trkpt>
      <trkpt lat="44.37619" lon="5.806">
        <ele>1196.652</ele>
        <time>2022-03-22T11:21:48Z</time>
      </trkpt>
      <trkpt lat="44.37619" lon="5.80598">
        <ele>1196.852</ele>
        <time>2022-03-22T11:21:50Z</time>
      </trkpt>
      <trkpt lat="44.3762" lon="5.80596">
        <ele>1196.852</ele>
        <time>2022-03-22T11:21:51Z</time>
      </trkpt>
      <trkpt lat="44.3762" lon="5.80594">
        <ele>1197.052</ele>
        <time>2022-03-22T11:21:53Z</time>
      </trkpt>
      <trkpt lat="44.3762" lon="5.80591">
        <ele>1197.252</ele>
        <time>2022-03-22T11:21:55Z</time>
      </trkpt>
      <trkpt lat="44.3762" lon="5.8059">
        <ele>1197.452</ele>
        <time>2022-03-22T11:21:56Z</time>
      </trkpt>
      <trkpt lat="44.3762" lon="5.80588">
        <ele>1197.552</ele>
        <time>2022-03-22T11:21:57Z</time>
      </trkpt>
      <trkpt lat="44.3762" lon="5.80586">
        <ele>1197.152</ele>
        <time>2022-03-22T11:21:59Z</time>
      </trkpt>
      <trkpt lat="44.3762" lon="5.80585">
        <ele>1197.152</ele>
        <time>2022-03-22T11:22:01Z</time>
      </trkpt>
      <trkpt lat="44.3762" lon="5.80583">
        <ele>1197.052</ele>
        <time>2022-03-22T11:22:02Z</time>
      </trkpt>
      <trkpt lat="44.3762" lon="5.80582">
        <ele>1197.152</ele>
        <time>2022-03-22T11:22:03Z</time>
      </trkpt>
      <trkpt lat="44.3762" lon="5.80579">
        <ele>1196.652</ele>
        <time>2022-03-22T11:22:05Z</time>
      </trkpt>
      <trkpt lat="44.37621" lon="5.80578">
        <ele>1196.552</ele>
        <time>2022-03-22T11:22:06Z</time>
      </trkpt>
      <trkpt lat="44.37621" lon="5.80576">
        <ele>1196.452</ele>
        <time>2022-03-22T11:22:07Z</time>
      </trkpt>
      <trkpt lat="44.37621" lon="5.80575">
        <ele>1196.552</ele>
        <time>2022-03-22T11:22:08Z</time>
      </trkpt>
      <trkpt lat="44.37622" lon="5.80573">
        <ele>1196.552</ele>
        <time>2022-03-22T11:22:09Z</time>
      </trkpt>
      <trkpt lat="44.37623" lon="5.80572">
        <ele>1196.552</ele>
        <time>2022-03-22T11:22:10Z</time>
      </trkpt>
      <trkpt lat="44.37623" lon="5.8057">
        <ele>1196.552</ele>
        <time>2022-03-22T11:22:11Z</time>
      </trkpt>
      <trkpt lat="44.37624" lon="5.8057">
        <ele>1196.352</ele>
        <time>2022-03-22T11:22:12Z</time>
      </trkpt>
      <trkpt lat="44.37625" lon="5.80568">
        <ele>1196.052</ele>
        <time>2022-03-22T11:22:14Z</time>
      </trkpt>
      <trkpt lat="44.37626" lon="5.80566">
        <ele>1195.952</ele>
        <time>2022-03-22T11:22:15Z</time>
      </trkpt>
      <trkpt lat="44.37626" lon="5.80565">
        <ele>1195.852</ele>
        <time>2022-03-22T11:22:16Z</time>
      </trkpt>
      <trkpt lat="44.37627" lon="5.80563">
        <ele>1196.052</ele>
        <time>2022-03-22T11:22:17Z</time>
      </trkpt>
      <trkpt lat="44.37627" lon="5.80562">
        <ele>1196.052</ele>
        <time>2022-03-22T11:22:18Z</time>
      </trkpt>
      <trkpt lat="44.37628" lon="5.80561">
        <ele>1195.752</ele>
        <time>2022-03-22T11:22:20Z</time>
      </trkpt>
      <trkpt lat="44.37627" lon="5.8056">
        <ele>1195.652</ele>
        <time>2022-03-22T11:22:23Z</time>
      </trkpt>
      <trkpt lat="44.37627" lon="5.80558">
        <ele>1195.452</ele>
        <time>2022-03-22T11:22:25Z</time>
      </trkpt>
      <trkpt lat="44.37628" lon="5.80557">
        <ele>1195.252</ele>
        <time>2022-03-22T11:22:26Z</time>
      </trkpt>
      <trkpt lat="44.37629" lon="5.80554">
        <ele>1195.352</ele>
        <time>2022-03-22T11:22:28Z</time>
      </trkpt>
      <trkpt lat="44.37629" lon="5.80553">
        <ele>1195.352</ele>
        <time>2022-03-22T11:22:29Z</time>
      </trkpt>
      <trkpt lat="44.37629" lon="5.80551">
        <ele>1195.652</ele>
        <time>2022-03-22T11:22:31Z</time>
      </trkpt>
      <trkpt lat="44.3763" lon="5.8055">
        <ele>1195.852</ele>
        <time>2022-03-22T11:22:33Z</time>
      </trkpt>
      <trkpt lat="44.37631" lon="5.80548">
        <ele>1195.952</ele>
        <time>2022-03-22T11:22:35Z</time>
      </trkpt>
      <trkpt lat="44.37631" lon="5.80546">
        <ele>1196.052</ele>
        <time>2022-03-22T11:22:36Z</time>
      </trkpt>
      <trkpt lat="44.37632" lon="5.80545">
        <ele>1196.452</ele>
        <time>2022-03-22T11:22:37Z</time>
      </trkpt>
      <trkpt lat="44.37633" lon="5.80543">
        <ele>1196.952</ele>
        <time>2022-03-22T11:22:39Z</time>
      </trkpt>
      <trkpt lat="44.37633" lon="5.80541">
        <ele>1197.452</ele>
        <time>2022-03-22T11:22:41Z</time>
      </trkpt>
      <trkpt lat="44.37633" lon="5.8054">
        <ele>1197.652</ele>
        <time>2022-03-22T11:22:42Z</time>
      </trkpt>
      <trkpt lat="44.37634" lon="5.80538">
        <ele>1197.752</ele>
        <time>2022-03-22T11:22:43Z</time>
      </trkpt>
      <trkpt lat="44.37634" lon="5.80537">
        <ele>1197.852</ele>
        <time>2022-03-22T11:22:44Z</time>
      </trkpt>
      <trkpt lat="44.37635" lon="5.80535">
        <ele>1197.752</ele>
        <time>2022-03-22T11:22:46Z</time>
      </trkpt>
      <trkpt lat="44.37635" lon="5.80533">
        <ele>1197.552</ele>
        <time>2022-03-22T11:22:47Z</time>
      </trkpt>
      <trkpt lat="44.37635" lon="5.80532">
        <ele>1197.652</ele>
        <time>2022-03-22T11:22:48Z</time>
      </trkpt>
      <trkpt lat="44.37636" lon="5.8053">
        <ele>1197.952</ele>
        <time>2022-03-22T11:22:50Z</time>
      </trkpt>
      <trkpt lat="44.37636" lon="5.80529">
        <ele>1198.052</ele>
        <time>2022-03-22T11:22:52Z</time>
      </trkpt>
      <trkpt lat="44.37637" lon="5.80528">
        <ele>1197.952</ele>
        <time>2022-03-22T11:22:54Z</time>
      </trkpt>
      <trkpt lat="44.37638" lon="5.80526">
        <ele>1198.252</ele>
        <time>2022-03-22T11:22:56Z</time>
      </trkpt>
      <trkpt lat="44.37638" lon="5.80525">
        <ele>1198.252</ele>
        <time>2022-03-22T11:22:58Z</time>
      </trkpt>
      <trkpt lat="44.37638" lon="5.80522">
        <ele>1198.752</ele>
        <time>2022-03-22T11:23:00Z</time>
      </trkpt>
      <trkpt lat="44.37638" lon="5.8052">
        <ele>1199.852</ele>
        <time>2022-03-22T11:23:02Z</time>
      </trkpt>
      <trkpt lat="44.37639" lon="5.80519">
        <ele>1200.452</ele>
        <time>2022-03-22T11:23:04Z</time>
      </trkpt>
      <trkpt lat="44.37639" lon="5.80517">
        <ele>1201.052</ele>
        <time>2022-03-22T11:23:06Z</time>
      </trkpt>
      <trkpt lat="44.37641" lon="5.80516">
        <ele>1201.152</ele>
        <time>2022-03-22T11:23:08Z</time>
      </trkpt>
      <trkpt lat="44.37641" lon="5.80515">
        <ele>1201.252</ele>
        <time>2022-03-22T11:23:11Z</time>
      </trkpt>
      <trkpt lat="44.37641" lon="5.80513">
        <ele>1201.052</ele>
        <time>2022-03-22T11:23:13Z</time>
      </trkpt>
      <trkpt lat="44.3764" lon="5.80512">
        <ele>1200.852</ele>
        <time>2022-03-22T11:23:15Z</time>
      </trkpt>
      <trkpt lat="44.37639" lon="5.8051">
        <ele>1201.153</ele>
        <time>2022-03-22T11:23:17Z</time>
      </trkpt>
      <trkpt lat="44.37639" lon="5.80508">
        <ele>1201.353</ele>
        <time>2022-03-22T11:23:19Z</time>
      </trkpt>
      <trkpt lat="44.37638" lon="5.80507">
        <ele>1201.653</ele>
        <time>2022-03-22T11:23:21Z</time>
      </trkpt>
      <trkpt lat="44.37637" lon="5.80505">
        <ele>1202.053</ele>
        <time>2022-03-22T11:23:23Z</time>
      </trkpt>
      <trkpt lat="44.37636" lon="5.80505">
        <ele>1202.153</ele>
        <time>2022-03-22T11:23:25Z</time>
      </trkpt>
      <trkpt lat="44.37635" lon="5.80503">
        <ele>1201.953</ele>
        <time>2022-03-22T11:23:27Z</time>
      </trkpt>
      <trkpt lat="44.37634" lon="5.80502">
        <ele>1201.753</ele>
        <time>2022-03-22T11:23:30Z</time>
      </trkpt>
      <trkpt lat="44.37633" lon="5.80501">
        <ele>1201.553</ele>
        <time>2022-03-22T11:23:32Z</time>
      </trkpt>
      <trkpt lat="44.37632" lon="5.80501">
        <ele>1201.953</ele>
        <time>2022-03-22T11:23:34Z</time>
      </trkpt>
      <trkpt lat="44.37632" lon="5.805">
        <ele>1202.853</ele>
        <time>2022-03-22T11:23:37Z</time>
      </trkpt>
      <trkpt lat="44.37632" lon="5.805">
        <ele>1203.353</ele>
        <time>2022-03-22T11:23:38Z</time>
      </trkpt>
      <trkpt lat="44.37631" lon="5.805">
        <ele>1203.853</ele>
        <time>2022-03-22T11:23:39Z</time>
      </trkpt>
      <trkpt lat="44.37631" lon="5.805">
        <ele>1204.853</ele>
        <time>2022-03-22T11:23:54Z</time>
      </trkpt>
      <trkpt lat="44.37633" lon="5.80495">
        <ele>1207.953</ele>
        <time>2022-03-22T11:23:55Z</time>
      </trkpt>
      <trkpt lat="44.37633" lon="5.80494">
        <ele>1208.453</ele>
        <time>2022-03-22T11:23:56Z</time>
      </trkpt>
      <trkpt lat="44.37633" lon="5.80493">
        <ele>1208.853</ele>
        <time>2022-03-22T11:24:01Z</time>
      </trkpt>
      <trkpt lat="44.37634" lon="5.80492">
        <ele>1209.453</ele>
        <time>2022-03-22T11:24:02Z</time>
      </trkpt>
      <trkpt lat="44.37635" lon="5.80491">
        <ele>1209.753</ele>
        <time>2022-03-22T11:24:04Z</time>
      </trkpt>
      <trkpt lat="44.37635" lon="5.80491">
        <ele>1209.853</ele>
        <time>2022-03-22T11:24:05Z</time>
      </trkpt>
      <trkpt lat="44.37636" lon="5.8049">
        <ele>1210.253</ele>
        <time>2022-03-22T11:24:07Z</time>
      </trkpt>
      <trkpt lat="44.37636" lon="5.8049">
        <ele>1210.253</ele>
        <time>2022-03-22T11:24:08Z</time>
      </trkpt>
      <trkpt lat="44.37636" lon="5.80489">
        <ele>1210.753</ele>
        <time>2022-03-22T11:24:09Z</time>
      </trkpt>
      <trkpt lat="44.37637" lon="5.80488">
        <ele>1211.053</ele>
        <time>2022-03-22T11:24:11Z</time>
      </trkpt>
      <trkpt lat="44.37638" lon="5.80487">
        <ele>1211.253</ele>
        <time>2022-03-22T11:24:13Z</time>
      </trkpt>
      <trkpt lat="44.37639" lon="5.80486">
        <ele>1211.653</ele>
        <time>2022-03-22T11:24:16Z</time>
      </trkpt>
      <trkpt lat="44.37639" lon="5.80484">
        <ele>1211.453</ele>
        <time>2022-03-22T11:24:18Z</time>
      </trkpt>
      <trkpt lat="44.37639" lon="5.80483">
        <ele>1211.353</ele>
        <time>2022-03-22T11:24:20Z</time>
      </trkpt>
      <trkpt lat="44.3764" lon="5.80481">
        <ele>1211.553</ele>
        <time>2022-03-22T11:24:22Z</time>
      </trkpt>
      <trkpt lat="44.3764" lon="5.8048">
        <ele>1211.553</ele>
        <time>2022-03-22T11:24:24Z</time>
      </trkpt>
      <trkpt lat="44.37642" lon="5.80479">
        <ele>1211.853</ele>
        <time>2022-03-22T11:24:26Z</time>
      </trkpt>
      <trkpt lat="44.37643" lon="5.80477">
        <ele>1211.853</ele>
        <time>2022-03-22T11:24:28Z</time>
      </trkpt>
      <trkpt lat="44.37643" lon="5.80476">
        <ele>1211.953</ele>
        <time>2022-03-22T11:24:30Z</time>
      </trkpt>
      <trkpt lat="44.37644" lon="5.80474">
        <ele>1212.353</ele>
        <time>2022-03-22T11:24:32Z</time>
      </trkpt>
      <trkpt lat="44.37644" lon="5.80473">
        <ele>1212.853</ele>
        <time>2022-03-22T11:24:34Z</time>
      </trkpt>
      <trkpt lat="44.37645" lon="5.80471">
        <ele>1213.353</ele>
        <time>2022-03-22T11:24:36Z</time>
      </trkpt>
      <trkpt lat="44.37645" lon="5.8047">
        <ele>1213.253</ele>
        <time>2022-03-22T11:24:37Z</time>
      </trkpt>
      <trkpt lat="44.37645" lon="5.80469">
        <ele>1213.353</ele>
        <time>2022-03-22T11:24:38Z</time>
      </trkpt>
      <trkpt lat="44.37646" lon="5.80468">
        <ele>1213.553</ele>
        <time>2022-03-22T11:24:39Z</time>
      </trkpt>
      <trkpt lat="44.37647" lon="5.80466">
        <ele>1213.753</ele>
        <time>2022-03-22T11:24:40Z</time>
      </trkpt>
      <trkpt lat="44.37648" lon="5.80465">
        <ele>1214.153</ele>
        <time>2022-03-22T11:24:41Z</time>
      </trkpt>
      <trkpt lat="44.37648" lon="5.80464">
        <ele>1214.653</ele>
        <time>2022-03-22T11:24:42Z</time>
      </trkpt>
      <trkpt lat="44.37648" lon="5.80462">
        <ele>1214.753</ele>
        <time>2022-03-22T11:24:43Z</time>
      </trkpt>
      <trkpt lat="44.3765" lon="5.8046">
        <ele>1215.053</ele>
        <time>2022-03-22T11:24:45Z</time>
      </trkpt>
      <trkpt lat="44.3765" lon="5.80459">
        <ele>1215.353</ele>
        <time>2022-03-22T11:24:46Z</time>
      </trkpt>
      <trkpt lat="44.37651" lon="5.80458">
        <ele>1215.453</ele>
        <time>2022-03-22T11:24:47Z</time>
      </trkpt>
      <trkpt lat="44.37651" lon="5.80456">
        <ele>1215.253</ele>
        <time>2022-03-22T11:24:49Z</time>
      </trkpt>
      <trkpt lat="44.37651" lon="5.80454">
        <ele>1215.653</ele>
        <time>2022-03-22T11:24:51Z</time>
      </trkpt>
      <trkpt lat="44.37651" lon="5.80453">
        <ele>1215.753</ele>
        <time>2022-03-22T11:24:53Z</time>
      </trkpt>
      <trkpt lat="44.37652" lon="5.80451">
        <ele>1215.553</ele>
        <time>2022-03-22T11:24:55Z</time>
      </trkpt>
      <trkpt lat="44.37652" lon="5.80448">
        <ele>1215.153</ele>
        <time>2022-03-22T11:24:57Z</time>
      </trkpt>
      <trkpt lat="44.37652" lon="5.80446">
        <ele>1215.153</ele>
        <time>2022-03-22T11:24:59Z</time>
      </trkpt>
      <trkpt lat="44.37652" lon="5.80445">
        <ele>1215.253</ele>
        <time>2022-03-22T11:25:00Z</time>
      </trkpt>
      <trkpt lat="44.37653" lon="5.80443">
        <ele>1215.453</ele>
        <time>2022-03-22T11:25:02Z</time>
      </trkpt>
      <trkpt lat="44.37653" lon="5.80442">
        <ele>1215.153</ele>
        <time>2022-03-22T11:25:04Z</time>
      </trkpt>
      <trkpt lat="44.37654" lon="5.8044">
        <ele>1214.553</ele>
        <time>2022-03-22T11:25:06Z</time>
      </trkpt>
      <trkpt lat="44.37654" lon="5.80438">
        <ele>1214.153</ele>
        <time>2022-03-22T11:25:08Z</time>
      </trkpt>
      <trkpt lat="44.37654" lon="5.80437">
        <ele>1213.753</ele>
        <time>2022-03-22T11:25:10Z</time>
      </trkpt>
      <trkpt lat="44.37654" lon="5.80436">
        <ele>1213.853</ele>
        <time>2022-03-22T11:25:12Z</time>
      </trkpt>
      <trkpt lat="44.37654" lon="5.80436">
        <ele>1213.853</ele>
        <time>2022-03-22T11:25:13Z</time>
      </trkpt>
      <trkpt lat="44.37651" lon="5.80436">
        <ele>1212.553</ele>
        <time>2022-03-22T12:21:54Z</time>
      </trkpt>
      <trkpt lat="44.37651" lon="5.80438">
        <ele>1211.253</ele>
        <time>2022-03-22T12:21:57Z</time>
      </trkpt>
      <trkpt lat="44.37651" lon="5.80439">
        <ele>1210.353</ele>
        <time>2022-03-22T12:21:58Z</time>
      </trkpt>
      <trkpt lat="44.3765" lon="5.8044">
        <ele>1209.053</ele>
        <time>2022-03-22T12:22:02Z</time>
      </trkpt>
      <trkpt lat="44.37649" lon="5.8044">
        <ele>1208.753</ele>
        <time>2022-03-22T12:22:05Z</time>
      </trkpt>
      <trkpt lat="44.37648" lon="5.8044">
        <ele>1207.253</ele>
        <time>2022-03-22T12:22:19Z</time>
      </trkpt>
      <trkpt lat="44.37648" lon="5.8044">
        <ele>1207.153</ele>
        <time>2022-03-22T12:22:20Z</time>
      </trkpt>
      <trkpt lat="44.37648" lon="5.8044">
        <ele>1207.053</ele>
        <time>2022-03-22T12:26:05Z</time>
      </trkpt>
      <trkpt lat="44.3765" lon="5.80434">
        <ele>1211.753</ele>
        <time>2022-03-22T12:26:06Z</time>
      </trkpt>
      <trkpt lat="44.37651" lon="5.80432">
        <ele>1211.853</ele>
        <time>2022-03-22T12:26:08Z</time>
      </trkpt>
      <trkpt lat="44.37651" lon="5.80431">
        <ele>1211.953</ele>
        <time>2022-03-22T12:26:10Z</time>
      </trkpt>
      <trkpt lat="44.37651" lon="5.80428">
        <ele>1212.053</ele>
        <time>2022-03-22T12:26:12Z</time>
      </trkpt>
      <trkpt lat="44.37651" lon="5.80426">
        <ele>1212.053</ele>
        <time>2022-03-22T12:26:14Z</time>
      </trkpt>
      <trkpt lat="44.37652" lon="5.80424">
        <ele>1212.153</ele>
        <time>2022-03-22T12:26:16Z</time>
      </trkpt>
      <trkpt lat="44.37652" lon="5.80422">
        <ele>1212.153</ele>
        <time>2022-03-22T12:26:18Z</time>
      </trkpt>
      <trkpt lat="44.37653" lon="5.8042">
        <ele>1211.953</ele>
        <time>2022-03-22T12:26:20Z</time>
      </trkpt>
      <trkpt lat="44.37653" lon="5.80417">
        <ele>1211.953</ele>
        <time>2022-03-22T12:26:22Z</time>
      </trkpt>
      <trkpt lat="44.37654" lon="5.80416">
        <ele>1211.653</ele>
        <time>2022-03-22T12:26:24Z</time>
      </trkpt>
      <trkpt lat="44.37653" lon="5.80414">
        <ele>1211.253</ele>
        <time>2022-03-22T12:26:26Z</time>
      </trkpt>
      <trkpt lat="44.37653" lon="5.80412">
        <ele>1210.553</ele>
        <time>2022-03-22T12:26:28Z</time>
      </trkpt>
      <trkpt lat="44.37653" lon="5.80411">
        <ele>1210.453</ele>
        <time>2022-03-22T12:26:30Z</time>
      </trkpt>
      <trkpt lat="44.37653" lon="5.8041">
        <ele>1210.253</ele>
        <time>2022-03-22T12:26:32Z</time>
      </trkpt>
      <trkpt lat="44.37652" lon="5.80409">
        <ele>1210.253</ele>
        <time>2022-03-22T12:26:34Z</time>
      </trkpt>
      <trkpt lat="44.37652" lon="5.80407">
        <ele>1209.953</ele>
        <time>2022-03-22T12:26:36Z</time>
      </trkpt>
      <trkpt lat="44.37652" lon="5.80405">
        <ele>1209.753</ele>
        <time>2022-03-22T12:26:38Z</time>
      </trkpt>
      <trkpt lat="44.37652" lon="5.80403">
        <ele>1209.353</ele>
        <time>2022-03-22T12:26:40Z</time>
      </trkpt>
      <trkpt lat="44.37651" lon="5.80401">
        <ele>1208.853</ele>
        <time>2022-03-22T12:26:42Z</time>
      </trkpt>
      <trkpt lat="44.37651" lon="5.80398">
        <ele>1208.153</ele>
        <time>2022-03-22T12:26:44Z</time>
      </trkpt>
      <trkpt lat="44.37651" lon="5.80396">
        <ele>1207.253</ele>
        <time>2022-03-22T12:26:46Z</time>
      </trkpt>
      <trkpt lat="44.37651" lon="5.80394">
        <ele>1206.653</ele>
        <time>2022-03-22T12:26:48Z</time>
      </trkpt>
      <trkpt lat="44.37651" lon="5.80392">
        <ele>1206.153</ele>
        <time>2022-03-22T12:26:50Z</time>
      </trkpt>
      <trkpt lat="44.37652" lon="5.8039">
        <ele>1205.753</ele>
        <time>2022-03-22T12:26:52Z</time>
      </trkpt>
      <trkpt lat="44.37652" lon="5.80388">
        <ele>1204.953</ele>
        <time>2022-03-22T12:26:54Z</time>
      </trkpt>
      <trkpt lat="44.37652" lon="5.80387">
        <ele>1204.853</ele>
        <time>2022-03-22T12:26:55Z</time>
      </trkpt>
      <trkpt lat="44.37652" lon="5.80385">
        <ele>1204.853</ele>
        <time>2022-03-22T12:26:56Z</time>
      </trkpt>
      <trkpt lat="44.37652" lon="5.80384">
        <ele>1204.753</ele>
        <time>2022-03-22T12:26:58Z</time>
      </trkpt>
      <trkpt lat="44.37652" lon="5.80382">
        <ele>1204.753</ele>
        <time>2022-03-22T12:27:00Z</time>
      </trkpt>
      <trkpt lat="44.37652" lon="5.8038">
        <ele>1204.653</ele>
        <time>2022-03-22T12:27:02Z</time>
      </trkpt>
      <trkpt lat="44.37652" lon="5.80378">
        <ele>1204.653</ele>
        <time>2022-03-22T12:27:04Z</time>
      </trkpt>
      <trkpt lat="44.37652" lon="5.80376">
        <ele>1204.754</ele>
        <time>2022-03-22T12:27:05Z</time>
      </trkpt>
      <trkpt lat="44.37652" lon="5.80374">
        <ele>1204.854</ele>
        <time>2022-03-22T12:27:07Z</time>
      </trkpt>
      <trkpt lat="44.37652" lon="5.80373">
        <ele>1205.154</ele>
        <time>2022-03-22T12:27:08Z</time>
      </trkpt>
      <trkpt lat="44.37651" lon="5.80371">
        <ele>1205.554</ele>
        <time>2022-03-22T12:27:10Z</time>
      </trkpt>
      <trkpt lat="44.37651" lon="5.8037">
        <ele>1205.754</ele>
        <time>2022-03-22T12:27:11Z</time>
      </trkpt>
      <trkpt lat="44.37651" lon="5.80368">
        <ele>1205.854</ele>
        <time>2022-03-22T12:27:13Z</time>
      </trkpt>
      <trkpt lat="44.37651" lon="5.80367">
        <ele>1205.954</ele>
        <time>2022-03-22T12:27:14Z</time>
      </trkpt>
      <trkpt lat="44.37651" lon="5.80365">
        <ele>1205.954</ele>
        <time>2022-03-22T12:27:15Z</time>
      </trkpt>
      <trkpt lat="44.37651" lon="5.80364">
        <ele>1206.054</ele>
        <time>2022-03-22T12:27:16Z</time>
      </trkpt>
      <trkpt lat="44.37651" lon="5.80362">
        <ele>1206.154</ele>
        <time>2022-03-22T12:27:17Z</time>
      </trkpt>
      <trkpt lat="44.37651" lon="5.8036">
        <ele>1205.854</ele>
        <time>2022-03-22T12:27:18Z</time>
      </trkpt>
      <trkpt lat="44.37651" lon="5.80359">
        <ele>1205.754</ele>
        <time>2022-03-22T12:27:19Z</time>
      </trkpt>
      <trkpt lat="44.37651" lon="5.80358">
        <ele>1205.854</ele>
        <time>2022-03-22T12:27:20Z</time>
      </trkpt>
      <trkpt lat="44.37651" lon="5.80355">
        <ele>1206.154</ele>
        <time>2022-03-22T12:27:22Z</time>
      </trkpt>
      <trkpt lat="44.37652" lon="5.80353">
        <ele>1206.354</ele>
        <time>2022-03-22T12:27:24Z</time>
      </trkpt>
      <trkpt lat="44.37652" lon="5.80352">
        <ele>1206.454</ele>
        <time>2022-03-22T12:27:25Z</time>
      </trkpt>
      <trkpt lat="44.37652" lon="5.8035">
        <ele>1206.854</ele>
        <time>2022-03-22T12:27:27Z</time>
      </trkpt>
      <trkpt lat="44.37652" lon="5.80347">
        <ele>1207.354</ele>
        <time>2022-03-22T12:27:29Z</time>
      </trkpt>
      <trkpt lat="44.37652" lon="5.80346">
        <ele>1207.354</ele>
        <time>2022-03-22T12:27:31Z</time>
      </trkpt>
      <trkpt lat="44.37652" lon="5.80343">
        <ele>1207.354</ele>
        <time>2022-03-22T12:27:33Z</time>
      </trkpt>
      <trkpt lat="44.37652" lon="5.80342">
        <ele>1206.954</ele>
        <time>2022-03-22T12:27:34Z</time>
      </trkpt>
      <trkpt lat="44.37652" lon="5.80341">
        <ele>1206.754</ele>
        <time>2022-03-22T12:27:35Z</time>
      </trkpt>
      <trkpt lat="44.37652" lon="5.80338">
        <ele>1206.754</ele>
        <time>2022-03-22T12:27:37Z</time>
      </trkpt>
      <trkpt lat="44.37653" lon="5.80337">
        <ele>1206.854</ele>
        <time>2022-03-22T12:27:38Z</time>
      </trkpt>
      <trkpt lat="44.37653" lon="5.80336">
        <ele>1206.854</ele>
        <time>2022-03-22T12:27:39Z</time>
      </trkpt>
      <trkpt lat="44.37653" lon="5.80334">
        <ele>1206.454</ele>
        <time>2022-03-22T12:27:41Z</time>
      </trkpt>
      <trkpt lat="44.37653" lon="5.80332">
        <ele>1206.354</ele>
        <time>2022-03-22T12:27:43Z</time>
      </trkpt>
      <trkpt lat="44.37653" lon="5.8033">
        <ele>1206.454</ele>
        <time>2022-03-22T12:27:45Z</time>
      </trkpt>
      <trkpt lat="44.37653" lon="5.80327">
        <ele>1206.554</ele>
        <time>2022-03-22T12:27:47Z</time>
      </trkpt>
      <trkpt lat="44.37653" lon="5.80325">
        <ele>1205.954</ele>
        <time>2022-03-22T12:27:49Z</time>
      </trkpt>
      <trkpt lat="44.37653" lon="5.80323">
        <ele>1205.954</ele>
        <time>2022-03-22T12:27:51Z</time>
      </trkpt>
      <trkpt lat="44.37654" lon="5.80322">
        <ele>1206.154</ele>
        <time>2022-03-22T12:27:52Z</time>
      </trkpt>
      <trkpt lat="44.37654" lon="5.80321">
        <ele>1206.354</ele>
        <time>2022-03-22T12:27:53Z</time>
      </trkpt>
      <trkpt lat="44.37654" lon="5.8032">
        <ele>1206.454</ele>
        <time>2022-03-22T12:27:54Z</time>
      </trkpt>
      <trkpt lat="44.37654" lon="5.80318">
        <ele>1206.454</ele>
        <time>2022-03-22T12:27:55Z</time>
      </trkpt>
      <trkpt lat="44.37654" lon="5.80316">
        <ele>1206.354</ele>
        <time>2022-03-22T12:27:57Z</time>
      </trkpt>
      <trkpt lat="44.37654" lon="5.80313">
        <ele>1206.454</ele>
        <time>2022-03-22T12:27:59Z</time>
      </trkpt>
      <trkpt lat="44.37654" lon="5.80312">
        <ele>1206.554</ele>
        <time>2022-03-22T12:28:00Z</time>
      </trkpt>
      <trkpt lat="44.37654" lon="5.80311">
        <ele>1206.454</ele>
        <time>2022-03-22T12:28:01Z</time>
      </trkpt>
      <trkpt lat="44.37654" lon="5.80308">
        <ele>1206.254</ele>
        <time>2022-03-22T12:28:03Z</time>
      </trkpt>
      <trkpt lat="44.37654" lon="5.80306">
        <ele>1206.354</ele>
        <time>2022-03-22T12:28:05Z</time>
      </trkpt>
      <trkpt lat="44.37654" lon="5.80305">
        <ele>1206.054</ele>
        <time>2022-03-22T12:28:06Z</time>
      </trkpt>
      <trkpt lat="44.37654" lon="5.80303">
        <ele>1205.354</ele>
        <time>2022-03-22T12:28:08Z</time>
      </trkpt>
      <trkpt lat="44.37654" lon="5.80302">
        <ele>1205.054</ele>
        <time>2022-03-22T12:28:09Z</time>
      </trkpt>
      <trkpt lat="44.37654" lon="5.803">
        <ele>1205.054</ele>
        <time>2022-03-22T12:28:11Z</time>
      </trkpt>
      <trkpt lat="44.37654" lon="5.80299">
        <ele>1205.154</ele>
        <time>2022-03-22T12:28:12Z</time>
      </trkpt>
      <trkpt lat="44.37655" lon="5.80297">
        <ele>1205.254</ele>
        <time>2022-03-22T12:28:13Z</time>
      </trkpt>
      <trkpt lat="44.37655" lon="5.80296">
        <ele>1205.454</ele>
        <time>2022-03-22T12:28:14Z</time>
      </trkpt>
      <trkpt lat="44.37654" lon="5.80294">
        <ele>1205.554</ele>
        <time>2022-03-22T12:28:16Z</time>
      </trkpt>
      <trkpt lat="44.37654" lon="5.80293">
        <ele>1205.654</ele>
        <time>2022-03-22T12:28:17Z</time>
      </trkpt>
      <trkpt lat="44.37653" lon="5.80291">
        <ele>1205.854</ele>
        <time>2022-03-22T12:28:19Z</time>
      </trkpt>
      <trkpt lat="44.37653" lon="5.80289">
        <ele>1206.054</ele>
        <time>2022-03-22T12:28:21Z</time>
      </trkpt>
      <trkpt lat="44.37652" lon="5.80288">
        <ele>1206.054</ele>
        <time>2022-03-22T12:28:23Z</time>
      </trkpt>
      <trkpt lat="44.37652" lon="5.80286">
        <ele>1206.154</ele>
        <time>2022-03-22T12:28:25Z</time>
      </trkpt>
      <trkpt lat="44.37651" lon="5.80285">
        <ele>1207.254</ele>
        <time>2022-03-22T12:28:27Z</time>
      </trkpt>
      <trkpt lat="44.37651" lon="5.80284">
        <ele>1207.954</ele>
        <time>2022-03-22T12:28:29Z</time>
      </trkpt>
      <trkpt lat="44.37651" lon="5.80282">
        <ele>1208.754</ele>
        <time>2022-03-22T12:28:31Z</time>
      </trkpt>
      <trkpt lat="44.37651" lon="5.8028">
        <ele>1208.754</ele>
        <time>2022-03-22T12:28:32Z</time>
      </trkpt>
      <trkpt lat="44.37651" lon="5.80279">
        <ele>1208.954</ele>
        <time>2022-03-22T12:28:33Z</time>
      </trkpt>
      <trkpt lat="44.37651" lon="5.80276">
        <ele>1209.055</ele>
        <time>2022-03-22T12:28:35Z</time>
      </trkpt>
      <trkpt lat="44.3765" lon="5.80274">
        <ele>1209.355</ele>
        <time>2022-03-22T12:28:37Z</time>
      </trkpt>
      <trkpt lat="44.3765" lon="5.80272">
        <ele>1209.455</ele>
        <time>2022-03-22T12:28:39Z</time>
      </trkpt>
      <trkpt lat="44.37651" lon="5.80271">
        <ele>1209.455</ele>
        <time>2022-03-22T12:28:41Z</time>
      </trkpt>
      <trkpt lat="44.37651" lon="5.80269">
        <ele>1209.355</ele>
        <time>2022-03-22T12:28:43Z</time>
      </trkpt>
      <trkpt lat="44.3765" lon="5.80267">
        <ele>1209.455</ele>
        <time>2022-03-22T12:28:45Z</time>
      </trkpt>
      <trkpt lat="44.3765" lon="5.80265">
        <ele>1209.455</ele>
        <time>2022-03-22T12:28:47Z</time>
      </trkpt>
      <trkpt lat="44.37651" lon="5.80264">
        <ele>1209.455</ele>
        <time>2022-03-22T12:28:48Z</time>
      </trkpt>
      <trkpt lat="44.37651" lon="5.80262">
        <ele>1209.355</ele>
        <time>2022-03-22T12:28:49Z</time>
      </trkpt>
      <trkpt lat="44.37652" lon="5.8026">
        <ele>1209.255</ele>
        <time>2022-03-22T12:28:50Z</time>
      </trkpt>
      <trkpt lat="44.37652" lon="5.80259">
        <ele>1209.455</ele>
        <time>2022-03-22T12:28:51Z</time>
      </trkpt>
      <trkpt lat="44.37652" lon="5.80256">
        <ele>1209.455</ele>
        <time>2022-03-22T12:28:53Z</time>
      </trkpt>
      <trkpt lat="44.37653" lon="5.80257">
        <ele>1209.055</ele>
        <time>2022-03-22T12:28:57Z</time>
      </trkpt>
      <trkpt lat="44.37653" lon="5.80255">
        <ele>1208.655</ele>
        <time>2022-03-22T12:28:59Z</time>
      </trkpt>
      <trkpt lat="44.37654" lon="5.80254">
        <ele>1208.355</ele>
        <time>2022-03-22T12:29:00Z</time>
      </trkpt>
      <trkpt lat="44.37654" lon="5.80252">
        <ele>1207.955</ele>
        <time>2022-03-22T12:29:01Z</time>
      </trkpt>
      <trkpt lat="44.37654" lon="5.80251">
        <ele>1207.655</ele>
        <time>2022-03-22T12:29:02Z</time>
      </trkpt>
      <trkpt lat="44.37654" lon="5.80248">
        <ele>1206.455</ele>
        <time>2022-03-22T12:29:04Z</time>
      </trkpt>
      <trkpt lat="44.37655" lon="5.80247">
        <ele>1206.155</ele>
        <time>2022-03-22T12:29:05Z</time>
      </trkpt>
      <trkpt lat="44.37655" lon="5.80245">
        <ele>1205.755</ele>
        <time>2022-03-22T12:29:07Z</time>
      </trkpt>
      <trkpt lat="44.37656" lon="5.80243">
        <ele>1205.055</ele>
        <time>2022-03-22T12:29:09Z</time>
      </trkpt>
      <trkpt lat="44.37656" lon="5.80241">
        <ele>1204.955</ele>
        <time>2022-03-22T12:29:11Z</time>
      </trkpt>
      <trkpt lat="44.37657" lon="5.80239">
        <ele>1205.055</ele>
        <time>2022-03-22T12:29:13Z</time>
      </trkpt>
      <trkpt lat="44.37657" lon="5.80237">
        <ele>1204.655</ele>
        <time>2022-03-22T12:29:15Z</time>
      </trkpt>
      <trkpt lat="44.37658" lon="5.80235">
        <ele>1204.355</ele>
        <time>2022-03-22T12:29:16Z</time>
      </trkpt>
      <trkpt lat="44.37658" lon="5.80234">
        <ele>1204.055</ele>
        <time>2022-03-22T12:29:17Z</time>
      </trkpt>
      <trkpt lat="44.37658" lon="5.80232">
        <ele>1203.855</ele>
        <time>2022-03-22T12:29:18Z</time>
      </trkpt>
      <trkpt lat="44.37658" lon="5.8023">
        <ele>1203.655</ele>
        <time>2022-03-22T12:29:20Z</time>
      </trkpt>
      <trkpt lat="44.37659" lon="5.80228">
        <ele>1204.155</ele>
        <time>2022-03-22T12:29:22Z</time>
      </trkpt>
      <trkpt lat="44.37659" lon="5.80226">
        <ele>1203.955</ele>
        <time>2022-03-22T12:29:24Z</time>
      </trkpt>
      <trkpt lat="44.3766" lon="5.80224">
        <ele>1203.655</ele>
        <time>2022-03-22T12:29:26Z</time>
      </trkpt>
      <trkpt lat="44.37661" lon="5.80222">
        <ele>1203.455</ele>
        <time>2022-03-22T12:29:28Z</time>
      </trkpt>
      <trkpt lat="44.37661" lon="5.8022">
        <ele>1203.455</ele>
        <time>2022-03-22T12:29:29Z</time>
      </trkpt>
      <trkpt lat="44.37661" lon="5.80219">
        <ele>1203.355</ele>
        <time>2022-03-22T12:29:30Z</time>
      </trkpt>
      <trkpt lat="44.37661" lon="5.80217">
        <ele>1203.155</ele>
        <time>2022-03-22T12:29:31Z</time>
      </trkpt>
      <trkpt lat="44.37662" lon="5.80216">
        <ele>1203.055</ele>
        <time>2022-03-22T12:29:32Z</time>
      </trkpt>
      <trkpt lat="44.37662" lon="5.80215">
        <ele>1203.155</ele>
        <time>2022-03-22T12:29:33Z</time>
      </trkpt>
      <trkpt lat="44.37662" lon="5.80213">
        <ele>1203.455</ele>
        <time>2022-03-22T12:29:34Z</time>
      </trkpt>
      <trkpt lat="44.37662" lon="5.80211">
        <ele>1203.355</ele>
        <time>2022-03-22T12:29:36Z</time>
      </trkpt>
      <trkpt lat="44.37662" lon="5.8021">
        <ele>1203.455</ele>
        <time>2022-03-22T12:29:37Z</time>
      </trkpt>
      <trkpt lat="44.37663" lon="5.80209">
        <ele>1203.355</ele>
        <time>2022-03-22T12:29:38Z</time>
      </trkpt>
      <trkpt lat="44.37663" lon="5.80207">
        <ele>1203.455</ele>
        <time>2022-03-22T12:29:40Z</time>
      </trkpt>
      <trkpt lat="44.37663" lon="5.80204">
        <ele>1203.755</ele>
        <time>2022-03-22T12:29:42Z</time>
      </trkpt>
      <trkpt lat="44.37664" lon="5.80203">
        <ele>1204.155</ele>
        <time>2022-03-22T12:29:44Z</time>
      </trkpt>
      <trkpt lat="44.37664" lon="5.80201">
        <ele>1204.255</ele>
        <time>2022-03-22T12:29:46Z</time>
      </trkpt>
      <trkpt lat="44.37664" lon="5.80199">
        <ele>1204.555</ele>
        <time>2022-03-22T12:29:48Z</time>
      </trkpt>
      <trkpt lat="44.37665" lon="5.80197">
        <ele>1204.655</ele>
        <time>2022-03-22T12:29:49Z</time>
      </trkpt>
      <trkpt lat="44.37665" lon="5.80196">
        <ele>1204.755</ele>
        <time>2022-03-22T12:29:50Z</time>
      </trkpt>
      <trkpt lat="44.37664" lon="5.80194">
        <ele>1204.755</ele>
        <time>2022-03-22T12:29:52Z</time>
      </trkpt>
      <trkpt lat="44.37664" lon="5.80192">
        <ele>1203.955</ele>
        <time>2022-03-22T12:29:54Z</time>
      </trkpt>
      <trkpt lat="44.37664" lon="5.8019">
        <ele>1203.655</ele>
        <time>2022-03-22T12:29:56Z</time>
      </trkpt>
      <trkpt lat="44.37664" lon="5.80188">
        <ele>1203.555</ele>
        <time>2022-03-22T12:29:58Z</time>
      </trkpt>
      <trkpt lat="44.37664" lon="5.80187">
        <ele>1203.455</ele>
        <time>2022-03-22T12:30:00Z</time>
      </trkpt>
      <trkpt lat="44.37664" lon="5.80185">
        <ele>1203.255</ele>
        <time>2022-03-22T12:30:02Z</time>
      </trkpt>
      <trkpt lat="44.37665" lon="5.80183">
        <ele>1203.455</ele>
        <time>2022-03-22T12:30:04Z</time>
      </trkpt>
      <trkpt lat="44.37665" lon="5.80181">
        <ele>1203.555</ele>
        <time>2022-03-22T12:30:06Z</time>
      </trkpt>
      <trkpt lat="44.37665" lon="5.80179">
        <ele>1203.755</ele>
        <time>2022-03-22T12:30:07Z</time>
      </trkpt>
      <trkpt lat="44.37664" lon="5.80177">
        <ele>1203.955</ele>
        <time>2022-03-22T12:30:09Z</time>
      </trkpt>
      <trkpt lat="44.37664" lon="5.80175">
        <ele>1204.155</ele>
        <time>2022-03-22T12:30:10Z</time>
      </trkpt>
      <trkpt lat="44.37663" lon="5.80174">
        <ele>1203.955</ele>
        <time>2022-03-22T12:30:11Z</time>
      </trkpt>
      <trkpt lat="44.37663" lon="5.80173">
        <ele>1203.955</ele>
        <time>2022-03-22T12:30:12Z</time>
      </trkpt>
      <trkpt lat="44.37662" lon="5.80171">
        <ele>1204.155</ele>
        <time>2022-03-22T12:30:13Z</time>
      </trkpt>
      <trkpt lat="44.37662" lon="5.80169">
        <ele>1204.555</ele>
        <time>2022-03-22T12:30:15Z</time>
      </trkpt>
      <trkpt lat="44.37662" lon="5.80167">
        <ele>1204.455</ele>
        <time>2022-03-22T12:30:17Z</time>
      </trkpt>
      <trkpt lat="44.37662" lon="5.80165">
        <ele>1204.455</ele>
        <time>2022-03-22T12:30:19Z</time>
      </trkpt>
      <trkpt lat="44.37662" lon="5.80162">
        <ele>1204.055</ele>
        <time>2022-03-22T12:30:21Z</time>
      </trkpt>
      <trkpt lat="44.37662" lon="5.8016">
        <ele>1204.055</ele>
        <time>2022-03-22T12:30:22Z</time>
      </trkpt>
      <trkpt lat="44.37662" lon="5.80158">
        <ele>1204.055</ele>
        <time>2022-03-22T12:30:24Z</time>
      </trkpt>
      <trkpt lat="44.37662" lon="5.80156">
        <ele>1204.155</ele>
        <time>2022-03-22T12:30:25Z</time>
      </trkpt>
      <trkpt lat="44.37662" lon="5.80155">
        <ele>1203.655</ele>
        <time>2022-03-22T12:30:27Z</time>
      </trkpt>
      <trkpt lat="44.37662" lon="5.80153">
        <ele>1203.455</ele>
        <time>2022-03-22T12:30:28Z</time>
      </trkpt>
      <trkpt lat="44.37663" lon="5.80151">
        <ele>1203.855</ele>
        <time>2022-03-22T12:30:30Z</time>
      </trkpt>
      <trkpt lat="44.37663" lon="5.80149">
        <ele>1203.655</ele>
        <time>2022-03-22T12:30:32Z</time>
      </trkpt>
      <trkpt lat="44.37663" lon="5.80146">
        <ele>1203.155</ele>
        <time>2022-03-22T12:30:34Z</time>
      </trkpt>
      <trkpt lat="44.37663" lon="5.80145">
        <ele>1202.855</ele>
        <time>2022-03-22T12:30:35Z</time>
      </trkpt>
      <trkpt lat="44.37664" lon="5.80144">
        <ele>1202.755</ele>
        <time>2022-03-22T12:30:36Z</time>
      </trkpt>
      <trkpt lat="44.37664" lon="5.80141">
        <ele>1202.456</ele>
        <time>2022-03-22T12:30:38Z</time>
      </trkpt>
      <trkpt lat="44.37664" lon="5.8014">
        <ele>1202.456</ele>
        <time>2022-03-22T12:30:39Z</time>
      </trkpt>
      <trkpt lat="44.37664" lon="5.80139">
        <ele>1202.256</ele>
        <time>2022-03-22T12:30:40Z</time>
      </trkpt>
      <trkpt lat="44.37665" lon="5.80137">
        <ele>1201.956</ele>
        <time>2022-03-22T12:30:42Z</time>
      </trkpt>
      <trkpt lat="44.37665" lon="5.80135">
        <ele>1201.856</ele>
        <time>2022-03-22T12:30:43Z</time>
      </trkpt>
      <trkpt lat="44.37665" lon="5.80133">
        <ele>1201.656</ele>
        <time>2022-03-22T12:30:45Z</time>
      </trkpt>
      <trkpt lat="44.37665" lon="5.80131">
        <ele>1201.056</ele>
        <time>2022-03-22T12:30:47Z</time>
      </trkpt>
      <trkpt lat="44.37664" lon="5.80128">
        <ele>1201.156</ele>
        <time>2022-03-22T12:30:49Z</time>
      </trkpt>
      <trkpt lat="44.37665" lon="5.80127">
        <ele>1200.756</ele>
        <time>2022-03-22T12:30:50Z</time>
      </trkpt>
      <trkpt lat="44.37665" lon="5.80126">
        <ele>1200.656</ele>
        <time>2022-03-22T12:30:51Z</time>
      </trkpt>
      <trkpt lat="44.37665" lon="5.80124">
        <ele>1200.456</ele>
        <time>2022-03-22T12:30:52Z</time>
      </trkpt>
      <trkpt lat="44.37665" lon="5.80122">
        <ele>1200.156</ele>
        <time>2022-03-22T12:30:54Z</time>
      </trkpt>
      <trkpt lat="44.37665" lon="5.80121">
        <ele>1199.556</ele>
        <time>2022-03-22T12:30:56Z</time>
      </trkpt>
      <trkpt lat="44.37665" lon="5.80119">
        <ele>1198.556</ele>
        <time>2022-03-22T12:30:58Z</time>
      </trkpt>
      <trkpt lat="44.37666" lon="5.80117">
        <ele>1198.056</ele>
        <time>2022-03-22T12:31:00Z</time>
      </trkpt>
      <trkpt lat="44.37666" lon="5.80115">
        <ele>1197.756</ele>
        <time>2022-03-22T12:31:01Z</time>
      </trkpt>
      <trkpt lat="44.37666" lon="5.80113">
        <ele>1196.756</ele>
        <time>2022-03-22T12:31:04Z</time>
      </trkpt>
      <trkpt lat="44.37666" lon="5.80111">
        <ele>1195.856</ele>
        <time>2022-03-22T12:31:07Z</time>
      </trkpt>
      <trkpt lat="44.37666" lon="5.8011">
        <ele>1195.756</ele>
        <time>2022-03-22T12:31:08Z</time>
      </trkpt>
      <trkpt lat="44.37666" lon="5.80108">
        <ele>1195.556</ele>
        <time>2022-03-22T12:31:10Z</time>
      </trkpt>
      <trkpt lat="44.37666" lon="5.80107">
        <ele>1195.656</ele>
        <time>2022-03-22T12:31:11Z</time>
      </trkpt>
      <trkpt lat="44.37666" lon="5.80105">
        <ele>1196.556</ele>
        <time>2022-03-22T12:31:14Z</time>
      </trkpt>
      <trkpt lat="44.37666" lon="5.80104">
        <ele>1196.956</ele>
        <time>2022-03-22T12:31:17Z</time>
      </trkpt>
      <trkpt lat="44.37666" lon="5.80102">
        <ele>1196.756</ele>
        <time>2022-03-22T12:31:19Z</time>
      </trkpt>
      <trkpt lat="44.37667" lon="5.801">
        <ele>1196.756</ele>
        <time>2022-03-22T12:31:21Z</time>
      </trkpt>
      <trkpt lat="44.37667" lon="5.80098">
        <ele>1196.656</ele>
        <time>2022-03-22T12:31:23Z</time>
      </trkpt>
      <trkpt lat="44.37667" lon="5.80097">
        <ele>1196.156</ele>
        <time>2022-03-22T12:31:29Z</time>
      </trkpt>
      <trkpt lat="44.37667" lon="5.80095">
        <ele>1195.756</ele>
        <time>2022-03-22T12:31:31Z</time>
      </trkpt>
      <trkpt lat="44.37667" lon="5.80093">
        <ele>1195.756</ele>
        <time>2022-03-22T12:31:33Z</time>
      </trkpt>
      <trkpt lat="44.37667" lon="5.80092">
        <ele>1195.956</ele>
        <time>2022-03-22T12:31:34Z</time>
      </trkpt>
      <trkpt lat="44.37666" lon="5.8009">
        <ele>1196.156</ele>
        <time>2022-03-22T12:31:36Z</time>
      </trkpt>
      <trkpt lat="44.37665" lon="5.80088">
        <ele>1196.356</ele>
        <time>2022-03-22T12:31:38Z</time>
      </trkpt>
      <trkpt lat="44.37665" lon="5.80087">
        <ele>1196.556</ele>
        <time>2022-03-22T12:31:39Z</time>
      </trkpt>
      <trkpt lat="44.37665" lon="5.80085">
        <ele>1196.556</ele>
        <time>2022-03-22T12:31:41Z</time>
      </trkpt>
      <trkpt lat="44.37664" lon="5.80083">
        <ele>1197.356</ele>
        <time>2022-03-22T12:31:43Z</time>
      </trkpt>
      <trkpt lat="44.37663" lon="5.80083">
        <ele>1198.056</ele>
        <time>2022-03-22T12:31:45Z</time>
      </trkpt>
      <trkpt lat="44.37662" lon="5.80083">
        <ele>1198.756</ele>
        <time>2022-03-22T12:31:48Z</time>
      </trkpt>
      <trkpt lat="44.37662" lon="5.80083">
        <ele>1199.056</ele>
        <time>2022-03-22T12:31:49Z</time>
      </trkpt>
      <trkpt lat="44.37662" lon="5.80083">
        <ele>1199.356</ele>
        <time>2022-03-22T12:31:50Z</time>
      </trkpt>
      <trkpt lat="44.37662" lon="5.80083">
        <ele>1199.856</ele>
        <time>2022-03-22T12:32:00Z</time>
      </trkpt>
      <trkpt lat="44.37661" lon="5.80079">
        <ele>1200.756</ele>
        <time>2022-03-22T12:32:01Z</time>
      </trkpt>
      <trkpt lat="44.37661" lon="5.80077">
        <ele>1200.756</ele>
        <time>2022-03-22T12:32:03Z</time>
      </trkpt>
      <trkpt lat="44.37662" lon="5.80077">
        <ele>1200.556</ele>
        <time>2022-03-22T12:32:04Z</time>
      </trkpt>
      <trkpt lat="44.37662" lon="5.80077">
        <ele>1200.556</ele>
        <time>2022-03-22T12:32:09Z</time>
      </trkpt>
      <trkpt lat="44.37663" lon="5.80076">
        <ele>1200.456</ele>
        <time>2022-03-22T12:32:10Z</time>
      </trkpt>
      <trkpt lat="44.37664" lon="5.80074">
        <ele>1199.756</ele>
        <time>2022-03-22T12:32:12Z</time>
      </trkpt>
      <trkpt lat="44.37665" lon="5.80073">
        <ele>1199.256</ele>
        <time>2022-03-22T12:32:14Z</time>
      </trkpt>
      <trkpt lat="44.37666" lon="5.80072">
        <ele>1199.156</ele>
        <time>2022-03-22T12:32:16Z</time>
      </trkpt>
      <trkpt lat="44.37666" lon="5.80071">
        <ele>1199.456</ele>
        <time>2022-03-22T12:32:19Z</time>
      </trkpt>
      <trkpt lat="44.37666" lon="5.8007">
        <ele>1199.856</ele>
        <time>2022-03-22T12:32:20Z</time>
      </trkpt>
      <trkpt lat="44.37666" lon="5.80069">
        <ele>1200.356</ele>
        <time>2022-03-22T12:32:26Z</time>
      </trkpt>
      <trkpt lat="44.37666" lon="5.80068">
        <ele>1200.956</ele>
        <time>2022-03-22T12:32:27Z</time>
      </trkpt>
      <trkpt lat="44.37667" lon="5.80067">
        <ele>1200.956</ele>
        <time>2022-03-22T12:32:29Z</time>
      </trkpt>
      <trkpt lat="44.37667" lon="5.80065">
        <ele>1200.856</ele>
        <time>2022-03-22T12:32:31Z</time>
      </trkpt>
      <trkpt lat="44.37667" lon="5.80063">
        <ele>1200.656</ele>
        <time>2022-03-22T12:32:33Z</time>
      </trkpt>
      <trkpt lat="44.37668" lon="5.80062">
        <ele>1200.656</ele>
        <time>2022-03-22T12:32:34Z</time>
      </trkpt>
      <trkpt lat="44.37668" lon="5.8006">
        <ele>1200.656</ele>
        <time>2022-03-22T12:32:36Z</time>
      </trkpt>
      <trkpt lat="44.37668" lon="5.80058">
        <ele>1200.156</ele>
        <time>2022-03-22T12:32:38Z</time>
      </trkpt>
      <trkpt lat="44.37668" lon="5.80055">
        <ele>1199.456</ele>
        <time>2022-03-22T12:32:40Z</time>
      </trkpt>
      <trkpt lat="44.37668" lon="5.80053">
        <ele>1199.256</ele>
        <time>2022-03-22T12:32:42Z</time>
      </trkpt>
      <trkpt lat="44.37668" lon="5.80052">
        <ele>1199.056</ele>
        <time>2022-03-22T12:32:43Z</time>
      </trkpt>
      <trkpt lat="44.37669" lon="5.80051">
        <ele>1198.856</ele>
        <time>2022-03-22T12:32:45Z</time>
      </trkpt>
      <trkpt lat="44.37669" lon="5.80048">
        <ele>1197.956</ele>
        <time>2022-03-22T12:32:47Z</time>
      </trkpt>
      <trkpt lat="44.37669" lon="5.80047">
        <ele>1197.356</ele>
        <time>2022-03-22T12:32:49Z</time>
      </trkpt>
      <trkpt lat="44.37669" lon="5.80045">
        <ele>1197.056</ele>
        <time>2022-03-22T12:32:50Z</time>
      </trkpt>
      <trkpt lat="44.37669" lon="5.80043">
        <ele>1196.256</ele>
        <time>2022-03-22T12:32:52Z</time>
      </trkpt>
      <trkpt lat="44.37669" lon="5.80042">
        <ele>1194.856</ele>
        <time>2022-03-22T12:32:56Z</time>
      </trkpt>
      <trkpt lat="44.37669" lon="5.8004">
        <ele>1194.456</ele>
        <time>2022-03-22T12:32:58Z</time>
      </trkpt>
      <trkpt lat="44.37669" lon="5.80039">
        <ele>1194.356</ele>
        <time>2022-03-22T12:32:59Z</time>
      </trkpt>
      <trkpt lat="44.3767" lon="5.80037">
        <ele>1194.056</ele>
        <time>2022-03-22T12:33:01Z</time>
      </trkpt>
      <trkpt lat="44.37671" lon="5.80035">
        <ele>1193.656</ele>
        <time>2022-03-22T12:33:03Z</time>
      </trkpt>
      <trkpt lat="44.37671" lon="5.80033">
        <ele>1193.056</ele>
        <time>2022-03-22T12:33:05Z</time>
      </trkpt>
      <trkpt lat="44.37671" lon="5.80032">
        <ele>1192.856</ele>
        <time>2022-03-22T12:33:06Z</time>
      </trkpt>
      <trkpt lat="44.37671" lon="5.80031">
        <ele>1192.356</ele>
        <time>2022-03-22T12:33:07Z</time>
      </trkpt>
      <trkpt lat="44.37671" lon="5.80029">
        <ele>1192.156</ele>
        <time>2022-03-22T12:33:08Z</time>
      </trkpt>
      <trkpt lat="44.37672" lon="5.80028">
        <ele>1191.856</ele>
        <time>2022-03-22T12:33:09Z</time>
      </trkpt>
      <trkpt lat="44.37672" lon="5.80026">
        <ele>1191.256</ele>
        <time>2022-03-22T12:33:11Z</time>
      </trkpt>
      <trkpt lat="44.37672" lon="5.80024">
        <ele>1190.656</ele>
        <time>2022-03-22T12:33:13Z</time>
      </trkpt>
      <trkpt lat="44.37672" lon="5.80022">
        <ele>1190.056</ele>
        <time>2022-03-22T12:33:15Z</time>
      </trkpt>
      <trkpt lat="44.37673" lon="5.8002">
        <ele>1189.356</ele>
        <time>2022-03-22T12:33:18Z</time>
      </trkpt>
      <trkpt lat="44.37672" lon="5.80018">
        <ele>1188.457</ele>
        <time>2022-03-22T12:33:20Z</time>
      </trkpt>
      <trkpt lat="44.37672" lon="5.80017">
        <ele>1188.357</ele>
        <time>2022-03-22T12:33:21Z</time>
      </trkpt>
      <trkpt lat="44.37672" lon="5.80016">
        <ele>1188.057</ele>
        <time>2022-03-22T12:33:22Z</time>
      </trkpt>
      <trkpt lat="44.37672" lon="5.80013">
        <ele>1187.957</ele>
        <time>2022-03-22T12:33:24Z</time>
      </trkpt>
      <trkpt lat="44.37672" lon="5.80012">
        <ele>1187.957</ele>
        <time>2022-03-22T12:33:25Z</time>
      </trkpt>
      <trkpt lat="44.37671" lon="5.8001">
        <ele>1187.957</ele>
        <time>2022-03-22T12:33:26Z</time>
      </trkpt>
      <trkpt lat="44.37671" lon="5.80008">
        <ele>1188.157</ele>
        <time>2022-03-22T12:33:27Z</time>
      </trkpt>
      <trkpt lat="44.37672" lon="5.80007">
        <ele>1188.257</ele>
        <time>2022-03-22T12:33:28Z</time>
      </trkpt>
      <trkpt lat="44.37671" lon="5.80006">
        <ele>1187.857</ele>
        <time>2022-03-22T12:33:30Z</time>
      </trkpt>
      <trkpt lat="44.37671" lon="5.80004">
        <ele>1187.657</ele>
        <time>2022-03-22T12:33:32Z</time>
      </trkpt>
      <trkpt lat="44.37671" lon="5.80003">
        <ele>1187.557</ele>
        <time>2022-03-22T12:33:33Z</time>
      </trkpt>
      <trkpt lat="44.37671" lon="5.8">
        <ele>1186.957</ele>
        <time>2022-03-22T12:33:35Z</time>
      </trkpt>
      <trkpt lat="44.37671" lon="5.79999">
        <ele>1186.657</ele>
        <time>2022-03-22T12:33:36Z</time>
      </trkpt>
      <trkpt lat="44.37671" lon="5.79997">
        <ele>1185.657</ele>
        <time>2022-03-22T12:33:38Z</time>
      </trkpt>
      <trkpt lat="44.3767" lon="5.79995">
        <ele>1185.557</ele>
        <time>2022-03-22T12:33:40Z</time>
      </trkpt>
      <trkpt lat="44.3767" lon="5.79993">
        <ele>1185.557</ele>
        <time>2022-03-22T12:33:41Z</time>
      </trkpt>
      <trkpt lat="44.3767" lon="5.79992">
        <ele>1186.057</ele>
        <time>2022-03-22T12:33:42Z</time>
      </trkpt>
      <trkpt lat="44.3767" lon="5.79991">
        <ele>1186.357</ele>
        <time>2022-03-22T12:33:43Z</time>
      </trkpt>
      <trkpt lat="44.37669" lon="5.79989">
        <ele>1186.457</ele>
        <time>2022-03-22T12:33:45Z</time>
      </trkpt>
      <trkpt lat="44.37669" lon="5.79987">
        <ele>1186.157</ele>
        <time>2022-03-22T12:33:47Z</time>
      </trkpt>
      <trkpt lat="44.37669" lon="5.79985">
        <ele>1185.957</ele>
        <time>2022-03-22T12:33:49Z</time>
      </trkpt>
      <trkpt lat="44.37669" lon="5.79983">
        <ele>1185.657</ele>
        <time>2022-03-22T12:33:51Z</time>
      </trkpt>
      <trkpt lat="44.37669" lon="5.79982">
        <ele>1185.657</ele>
        <time>2022-03-22T12:33:52Z</time>
      </trkpt>
      <trkpt lat="44.37669" lon="5.79981">
        <ele>1185.757</ele>
        <time>2022-03-22T12:33:54Z</time>
      </trkpt>
      <trkpt lat="44.3767" lon="5.79979">
        <ele>1185.757</ele>
        <time>2022-03-22T12:33:56Z</time>
      </trkpt>
      <trkpt lat="44.37671" lon="5.79977">
        <ele>1186.257</ele>
        <time>2022-03-22T12:33:58Z</time>
      </trkpt>
      <trkpt lat="44.37671" lon="5.79976">
        <ele>1186.257</ele>
        <time>2022-03-22T12:33:59Z</time>
      </trkpt>
      <trkpt lat="44.37671" lon="5.79974">
        <ele>1186.657</ele>
        <time>2022-03-22T12:34:01Z</time>
      </trkpt>
      <trkpt lat="44.37672" lon="5.79972">
        <ele>1186.857</ele>
        <time>2022-03-22T12:34:03Z</time>
      </trkpt>
      <trkpt lat="44.37672" lon="5.7997">
        <ele>1186.957</ele>
        <time>2022-03-22T12:34:04Z</time>
      </trkpt>
      <trkpt lat="44.37672" lon="5.79969">
        <ele>1187.257</ele>
        <time>2022-03-22T12:34:05Z</time>
      </trkpt>
      <trkpt lat="44.37673" lon="5.79967">
        <ele>1187.257</ele>
        <time>2022-03-22T12:34:06Z</time>
      </trkpt>
      <trkpt lat="44.37673" lon="5.79965">
        <ele>1187.257</ele>
        <time>2022-03-22T12:34:07Z</time>
      </trkpt>
      <trkpt lat="44.37673" lon="5.79964">
        <ele>1187.257</ele>
        <time>2022-03-22T12:34:09Z</time>
      </trkpt>
      <trkpt lat="44.37674" lon="5.79963">
        <ele>1187.257</ele>
        <time>2022-03-22T12:34:10Z</time>
      </trkpt>
      <trkpt lat="44.37675" lon="5.79961">
        <ele>1187.157</ele>
        <time>2022-03-22T12:34:11Z</time>
      </trkpt>
      <trkpt lat="44.37675" lon="5.7996">
        <ele>1187.257</ele>
        <time>2022-03-22T12:34:12Z</time>
      </trkpt>
      <trkpt lat="44.37675" lon="5.79959">
        <ele>1187.257</ele>
        <time>2022-03-22T12:34:13Z</time>
      </trkpt>
      <trkpt lat="44.37675" lon="5.79957">
        <ele>1187.157</ele>
        <time>2022-03-22T12:34:14Z</time>
      </trkpt>
      <trkpt lat="44.37676" lon="5.79956">
        <ele>1187.157</ele>
        <time>2022-03-22T12:34:15Z</time>
      </trkpt>
      <trkpt lat="44.37676" lon="5.79954">
        <ele>1187.157</ele>
        <time>2022-03-22T12:34:16Z</time>
      </trkpt>
      <trkpt lat="44.37676" lon="5.79953">
        <ele>1187.057</ele>
        <time>2022-03-22T12:34:17Z</time>
      </trkpt>
      <trkpt lat="44.37676" lon="5.79951">
        <ele>1186.957</ele>
        <time>2022-03-22T12:34:18Z</time>
      </trkpt>
      <trkpt lat="44.37676" lon="5.79949">
        <ele>1187.257</ele>
        <time>2022-03-22T12:34:20Z</time>
      </trkpt>
      <trkpt lat="44.37676" lon="5.79947">
        <ele>1186.857</ele>
        <time>2022-03-22T12:34:22Z</time>
      </trkpt>
      <trkpt lat="44.37676" lon="5.79945">
        <ele>1186.857</ele>
        <time>2022-03-22T12:34:23Z</time>
      </trkpt>
      <trkpt lat="44.37676" lon="5.79944">
        <ele>1186.657</ele>
        <time>2022-03-22T12:34:24Z</time>
      </trkpt>
      <trkpt lat="44.37676" lon="5.79941">
        <ele>1186.657</ele>
        <time>2022-03-22T12:34:26Z</time>
      </trkpt>
      <trkpt lat="44.37677" lon="5.79939">
        <ele>1186.457</ele>
        <time>2022-03-22T12:34:28Z</time>
      </trkpt>
      <trkpt lat="44.37677" lon="5.79938">
        <ele>1186.257</ele>
        <time>2022-03-22T12:34:29Z</time>
      </trkpt>
      <trkpt lat="44.37678" lon="5.79936">
        <ele>1185.657</ele>
        <time>2022-03-22T12:34:31Z</time>
      </trkpt>
      <trkpt lat="44.37679" lon="5.79935">
        <ele>1185.157</ele>
        <time>2022-03-22T12:34:32Z</time>
      </trkpt>
      <trkpt lat="44.3768" lon="5.79934">
        <ele>1185.057</ele>
        <time>2022-03-22T12:34:33Z</time>
      </trkpt>
      <trkpt lat="44.3768" lon="5.79932">
        <ele>1184.957</ele>
        <time>2022-03-22T12:34:35Z</time>
      </trkpt>
      <trkpt lat="44.37681" lon="5.79931">
        <ele>1184.357</ele>
        <time>2022-03-22T12:34:37Z</time>
      </trkpt>
      <trkpt lat="44.37682" lon="5.7993">
        <ele>1183.957</ele>
        <time>2022-03-22T12:34:39Z</time>
      </trkpt>
      <trkpt lat="44.37682" lon="5.7993">
        <ele>1182.257</ele>
        <time>2022-03-22T12:34:43Z</time>
      </trkpt>
      <trkpt lat="44.37682" lon="5.7993">
        <ele>1182.057</ele>
        <time>2022-03-22T12:34:44Z</time>
      </trkpt>
      <trkpt lat="44.37682" lon="5.7993">
        <ele>1181.857</ele>
        <time>2022-03-22T12:36:22Z</time>
      </trkpt>
      <trkpt lat="44.37682" lon="5.79926">
        <ele>1182.657</ele>
        <time>2022-03-22T12:36:23Z</time>
      </trkpt>
      <trkpt lat="44.37682" lon="5.79926">
        <ele>1182.357</ele>
        <time>2022-03-22T12:36:24Z</time>
      </trkpt>
      <trkpt lat="44.37683" lon="5.79926">
        <ele>1182.457</ele>
        <time>2022-03-22T12:36:27Z</time>
      </trkpt>
      <trkpt lat="44.37683" lon="5.79925">
        <ele>1182.657</ele>
        <time>2022-03-22T12:36:28Z</time>
      </trkpt>
      <trkpt lat="44.37684" lon="5.79923">
        <ele>1182.957</ele>
        <time>2022-03-22T12:36:30Z</time>
      </trkpt>
      <trkpt lat="44.37684" lon="5.79923">
        <ele>1183.057</ele>
        <time>2022-03-22T12:36:31Z</time>
      </trkpt>
      <trkpt lat="44.37684" lon="5.79922">
        <ele>1183.157</ele>
        <time>2022-03-22T12:36:32Z</time>
      </trkpt>
      <trkpt lat="44.37684" lon="5.79922">
        <ele>1183.157</ele>
        <time>2022-03-22T12:37:00Z</time>
      </trkpt>
      <trkpt lat="44.37683" lon="5.79919">
        <ele>1183.957</ele>
        <time>2022-03-22T12:37:01Z</time>
      </trkpt>
      <trkpt lat="44.37683" lon="5.79917">
        <ele>1184.057</ele>
        <time>2022-03-22T12:37:02Z</time>
      </trkpt>
      <trkpt lat="44.37683" lon="5.79916">
        <ele>1183.957</ele>
        <time>2022-03-22T12:37:03Z</time>
      </trkpt>
      <trkpt lat="44.37683" lon="5.79914">
        <ele>1184.257</ele>
        <time>2022-03-22T12:37:05Z</time>
      </trkpt>
      <trkpt lat="44.37683" lon="5.79912">
        <ele>1184.057</ele>
        <time>2022-03-22T12:37:06Z</time>
      </trkpt>
      <trkpt lat="44.37682" lon="5.7991">
        <ele>1184.157</ele>
        <time>2022-03-22T12:37:08Z</time>
      </trkpt>
      <trkpt lat="44.37682" lon="5.79908">
        <ele>1183.757</ele>
        <time>2022-03-22T12:37:10Z</time>
      </trkpt>
      <trkpt lat="44.37683" lon="5.79906">
        <ele>1183.357</ele>
        <time>2022-03-22T12:37:11Z</time>
      </trkpt>
      <trkpt lat="44.37683" lon="5.79905">
        <ele>1183.257</ele>
        <time>2022-03-22T12:37:12Z</time>
      </trkpt>
      <trkpt lat="44.37683" lon="5.79903">
        <ele>1182.857</ele>
        <time>2022-03-22T12:37:14Z</time>
      </trkpt>
      <trkpt lat="44.37683" lon="5.799">
        <ele>1182.357</ele>
        <time>2022-03-22T12:37:16Z</time>
      </trkpt>
      <trkpt lat="44.37684" lon="5.79899">
        <ele>1182.157</ele>
        <time>2022-03-22T12:37:17Z</time>
      </trkpt>
      <trkpt lat="44.37684" lon="5.79897">
        <ele>1181.657</ele>
        <time>2022-03-22T12:37:19Z</time>
      </trkpt>
      <trkpt lat="44.37686" lon="5.79896">
        <ele>1181.457</ele>
        <time>2022-03-22T12:37:21Z</time>
      </trkpt>
      <trkpt lat="44.37687" lon="5.79894">
        <ele>1181.157</ele>
        <time>2022-03-22T12:37:23Z</time>
      </trkpt>
      <trkpt lat="44.37687" lon="5.79893">
        <ele>1181.057</ele>
        <time>2022-03-22T12:37:25Z</time>
      </trkpt>
      <trkpt lat="44.37688" lon="5.79892">
        <ele>1180.757</ele>
        <time>2022-03-22T12:37:27Z</time>
      </trkpt>
      <trkpt lat="44.37689" lon="5.7989">
        <ele>1180.557</ele>
        <time>2022-03-22T12:37:30Z</time>
      </trkpt>
      <trkpt lat="44.3769" lon="5.79889">
        <ele>1180.357</ele>
        <time>2022-03-22T12:37:31Z</time>
      </trkpt>
      <trkpt lat="44.37691" lon="5.79888">
        <ele>1179.857</ele>
        <time>2022-03-22T12:37:33Z</time>
      </trkpt>
      <trkpt lat="44.37691" lon="5.79887">
        <ele>1179.957</ele>
        <time>2022-03-22T12:37:35Z</time>
      </trkpt>
      <trkpt lat="44.37691" lon="5.79885">
        <ele>1180.157</ele>
        <time>2022-03-22T12:37:37Z</time>
      </trkpt>
      <trkpt lat="44.37691" lon="5.79884">
        <ele>1180.257</ele>
        <time>2022-03-22T12:37:39Z</time>
      </trkpt>
      <trkpt lat="44.37692" lon="5.79882">
        <ele>1180.657</ele>
        <time>2022-03-22T12:37:41Z</time>
      </trkpt>
      <trkpt lat="44.37692" lon="5.79881">
        <ele>1180.957</ele>
        <time>2022-03-22T12:37:43Z</time>
      </trkpt>
      <trkpt lat="44.37692" lon="5.79879">
        <ele>1181.057</ele>
        <time>2022-03-22T12:37:45Z</time>
      </trkpt>
      <trkpt lat="44.37693" lon="5.79878">
        <ele>1181.257</ele>
        <time>2022-03-22T12:37:47Z</time>
      </trkpt>
      <trkpt lat="44.37694" lon="5.79877">
        <ele>1182.057</ele>
        <time>2022-03-22T12:37:51Z</time>
      </trkpt>
      <trkpt lat="44.37694" lon="5.79876">
        <ele>1182.457</ele>
        <time>2022-03-22T12:37:53Z</time>
      </trkpt>
      <trkpt lat="44.37694" lon="5.79874">
        <ele>1183.157</ele>
        <time>2022-03-22T12:37:56Z</time>
      </trkpt>
      <trkpt lat="44.37694" lon="5.79873">
        <ele>1183.857</ele>
        <time>2022-03-22T12:37:58Z</time>
      </trkpt>
      <trkpt lat="44.37694" lon="5.79873">
        <ele>1184.157</ele>
        <time>2022-03-22T12:37:59Z</time>
      </trkpt>
      <trkpt lat="44.37694" lon="5.79873">
        <ele>1184.157</ele>
        <time>2022-03-22T12:38:05Z</time>
      </trkpt>
      <trkpt lat="44.37695" lon="5.7987">
        <ele>1184.757</ele>
        <time>2022-03-22T12:38:06Z</time>
      </trkpt>
      <trkpt lat="44.37696" lon="5.79868">
        <ele>1184.957</ele>
        <time>2022-03-22T12:38:08Z</time>
      </trkpt>
      <trkpt lat="44.37695" lon="5.79867">
        <ele>1185.557</ele>
        <time>2022-03-22T12:38:10Z</time>
      </trkpt>
      <trkpt lat="44.37695" lon="5.79865">
        <ele>1186.157</ele>
        <time>2022-03-22T12:38:12Z</time>
      </trkpt>
      <trkpt lat="44.37695" lon="5.79864">
        <ele>1187.057</ele>
        <time>2022-03-22T12:38:14Z</time>
      </trkpt>
      <trkpt lat="44.37694" lon="5.79862">
        <ele>1187.657</ele>
        <time>2022-03-22T12:38:16Z</time>
      </trkpt>
      <trkpt lat="44.37693" lon="5.7986">
        <ele>1188.158</ele>
        <time>2022-03-22T12:38:18Z</time>
      </trkpt>
      <trkpt lat="44.37693" lon="5.79858">
        <ele>1188.658</ele>
        <time>2022-03-22T12:38:20Z</time>
      </trkpt>
      <trkpt lat="44.37692" lon="5.79856">
        <ele>1188.758</ele>
        <time>2022-03-22T12:38:22Z</time>
      </trkpt>
      <trkpt lat="44.37692" lon="5.79854">
        <ele>1188.858</ele>
        <time>2022-03-22T12:38:24Z</time>
      </trkpt>
      <trkpt lat="44.37692" lon="5.79851">
        <ele>1188.958</ele>
        <time>2022-03-22T12:38:26Z</time>
      </trkpt>
      <trkpt lat="44.37692" lon="5.79849">
        <ele>1189.258</ele>
        <time>2022-03-22T12:38:28Z</time>
      </trkpt>
      <trkpt lat="44.37692" lon="5.79848">
        <ele>1189.858</ele>
        <time>2022-03-22T12:38:30Z</time>
      </trkpt>
      <trkpt lat="44.37692" lon="5.79847">
        <ele>1190.158</ele>
        <time>2022-03-22T12:38:32Z</time>
      </trkpt>
      <trkpt lat="44.37693" lon="5.79845">
        <ele>1190.458</ele>
        <time>2022-03-22T12:38:34Z</time>
      </trkpt>
      <trkpt lat="44.37693" lon="5.79844">
        <ele>1190.658</ele>
        <time>2022-03-22T12:38:36Z</time>
      </trkpt>
      <trkpt lat="44.37694" lon="5.79842">
        <ele>1191.158</ele>
        <time>2022-03-22T12:38:39Z</time>
      </trkpt>
      <trkpt lat="44.37694" lon="5.7984">
        <ele>1191.458</ele>
        <time>2022-03-22T12:38:41Z</time>
      </trkpt>
      <trkpt lat="44.37694" lon="5.79838">
        <ele>1191.658</ele>
        <time>2022-03-22T12:38:42Z</time>
      </trkpt>
      <trkpt lat="44.37694" lon="5.79837">
        <ele>1191.858</ele>
        <time>2022-03-22T12:38:43Z</time>
      </trkpt>
      <trkpt lat="44.37694" lon="5.79835">
        <ele>1192.458</ele>
        <time>2022-03-22T12:38:45Z</time>
      </trkpt>
      <trkpt lat="44.37695" lon="5.79833">
        <ele>1192.658</ele>
        <time>2022-03-22T12:38:47Z</time>
      </trkpt>
      <trkpt lat="44.37695" lon="5.79832">
        <ele>1192.458</ele>
        <time>2022-03-22T12:38:51Z</time>
      </trkpt>
      <trkpt lat="44.37695" lon="5.7983">
        <ele>1192.558</ele>
        <time>2022-03-22T12:38:53Z</time>
      </trkpt>
      <trkpt lat="44.37696" lon="5.79829">
        <ele>1192.858</ele>
        <time>2022-03-22T12:38:55Z</time>
      </trkpt>
      <trkpt lat="44.37696" lon="5.79827">
        <ele>1192.958</ele>
        <time>2022-03-22T12:38:56Z</time>
      </trkpt>
      <trkpt lat="44.37696" lon="5.79825">
        <ele>1193.358</ele>
        <time>2022-03-22T12:38:58Z</time>
      </trkpt>
      <trkpt lat="44.37696" lon="5.79823">
        <ele>1193.658</ele>
        <time>2022-03-22T12:39:00Z</time>
      </trkpt>
      <trkpt lat="44.37696" lon="5.79821">
        <ele>1193.658</ele>
        <time>2022-03-22T12:39:02Z</time>
      </trkpt>
      <trkpt lat="44.37695" lon="5.79819">
        <ele>1193.858</ele>
        <time>2022-03-22T12:39:04Z</time>
      </trkpt>
      <trkpt lat="44.37695" lon="5.79818">
        <ele>1194.258</ele>
        <time>2022-03-22T12:39:06Z</time>
      </trkpt>
      <trkpt lat="44.37695" lon="5.79816">
        <ele>1194.458</ele>
        <time>2022-03-22T12:39:08Z</time>
      </trkpt>
      <trkpt lat="44.37695" lon="5.79814">
        <ele>1194.558</ele>
        <time>2022-03-22T12:39:10Z</time>
      </trkpt>
      <trkpt lat="44.37695" lon="5.79812">
        <ele>1194.658</ele>
        <time>2022-03-22T12:39:12Z</time>
      </trkpt>
      <trkpt lat="44.37695" lon="5.7981">
        <ele>1194.758</ele>
        <time>2022-03-22T12:39:14Z</time>
      </trkpt>
      <trkpt lat="44.37695" lon="5.79808">
        <ele>1194.958</ele>
        <time>2022-03-22T12:39:16Z</time>
      </trkpt>
      <trkpt lat="44.37695" lon="5.79805">
        <ele>1195.158</ele>
        <time>2022-03-22T12:39:18Z</time>
      </trkpt>
      <trkpt lat="44.37695" lon="5.79803">
        <ele>1195.158</ele>
        <time>2022-03-22T12:39:20Z</time>
      </trkpt>
      <trkpt lat="44.37695" lon="5.79801">
        <ele>1195.458</ele>
        <time>2022-03-22T12:39:22Z</time>
      </trkpt>
      <trkpt lat="44.37696" lon="5.79799">
        <ele>1195.558</ele>
        <time>2022-03-22T12:39:25Z</time>
      </trkpt>
      <trkpt lat="44.37696" lon="5.79798">
        <ele>1195.358</ele>
        <time>2022-03-22T12:39:27Z</time>
      </trkpt>
      <trkpt lat="44.37697" lon="5.79796">
        <ele>1195.458</ele>
        <time>2022-03-22T12:39:29Z</time>
      </trkpt>
      <trkpt lat="44.37697" lon="5.79795">
        <ele>1195.558</ele>
        <time>2022-03-22T12:39:30Z</time>
      </trkpt>
      <trkpt lat="44.37698" lon="5.79793">
        <ele>1195.658</ele>
        <time>2022-03-22T12:39:32Z</time>
      </trkpt>
      <trkpt lat="44.37699" lon="5.79792">
        <ele>1195.558</ele>
        <time>2022-03-22T12:39:34Z</time>
      </trkpt>
      <trkpt lat="44.37699" lon="5.7979">
        <ele>1195.358</ele>
        <time>2022-03-22T12:39:36Z</time>
      </trkpt>
      <trkpt lat="44.37699" lon="5.79789">
        <ele>1195.158</ele>
        <time>2022-03-22T12:39:38Z</time>
      </trkpt>
      <trkpt lat="44.377" lon="5.79787">
        <ele>1194.558</ele>
        <time>2022-03-22T12:39:41Z</time>
      </trkpt>
      <trkpt lat="44.377" lon="5.79786">
        <ele>1194.158</ele>
        <time>2022-03-22T12:39:43Z</time>
      </trkpt>
      <trkpt lat="44.37701" lon="5.79784">
        <ele>1193.258</ele>
        <time>2022-03-22T12:39:45Z</time>
      </trkpt>
      <trkpt lat="44.37701" lon="5.79783">
        <ele>1192.558</ele>
        <time>2022-03-22T12:39:47Z</time>
      </trkpt>
      <trkpt lat="44.37701" lon="5.79781">
        <ele>1191.758</ele>
        <time>2022-03-22T12:39:49Z</time>
      </trkpt>
      <trkpt lat="44.37701" lon="5.79778">
        <ele>1190.858</ele>
        <time>2022-03-22T12:39:51Z</time>
      </trkpt>
      <trkpt lat="44.37702" lon="5.79777">
        <ele>1190.558</ele>
        <time>2022-03-22T12:39:52Z</time>
      </trkpt>
      <trkpt lat="44.37701" lon="5.79776">
        <ele>1189.958</ele>
        <time>2022-03-22T12:39:54Z</time>
      </trkpt>
      <trkpt lat="44.37702" lon="5.79774">
        <ele>1189.258</ele>
        <time>2022-03-22T12:39:56Z</time>
      </trkpt>
      <trkpt lat="44.37702" lon="5.79773">
        <ele>1188.758</ele>
        <time>2022-03-22T12:39:59Z</time>
      </trkpt>
      <trkpt lat="44.37703" lon="5.79771">
        <ele>1188.558</ele>
        <time>2022-03-22T12:40:01Z</time>
      </trkpt>
      <trkpt lat="44.37704" lon="5.7977">
        <ele>1188.558</ele>
        <time>2022-03-22T12:40:02Z</time>
      </trkpt>
      <trkpt lat="44.37704" lon="5.79768">
        <ele>1188.358</ele>
        <time>2022-03-22T12:40:04Z</time>
      </trkpt>
      <trkpt lat="44.37705" lon="5.79765">
        <ele>1188.258</ele>
        <time>2022-03-22T12:40:06Z</time>
      </trkpt>
      <trkpt lat="44.37705" lon="5.79763">
        <ele>1187.958</ele>
        <time>2022-03-22T12:40:08Z</time>
      </trkpt>
      <trkpt lat="44.37705" lon="5.79761">
        <ele>1187.658</ele>
        <time>2022-03-22T12:40:10Z</time>
      </trkpt>
      <trkpt lat="44.37705" lon="5.7976">
        <ele>1187.658</ele>
        <time>2022-03-22T12:40:12Z</time>
      </trkpt>
      <trkpt lat="44.37706" lon="5.79759">
        <ele>1186.358</ele>
        <time>2022-03-22T12:40:16Z</time>
      </trkpt>
      <trkpt lat="44.37707" lon="5.79757">
        <ele>1185.958</ele>
        <time>2022-03-22T12:40:19Z</time>
      </trkpt>
      <trkpt lat="44.37708" lon="5.79755">
        <ele>1186.158</ele>
        <time>2022-03-22T12:40:21Z</time>
      </trkpt>
      <trkpt lat="44.37708" lon="5.79754">
        <ele>1186.458</ele>
        <time>2022-03-22T12:40:25Z</time>
      </trkpt>
      <trkpt lat="44.37708" lon="5.79754">
        <ele>1186.358</ele>
        <time>2022-03-22T12:40:26Z</time>
      </trkpt>
      <trkpt lat="44.37708" lon="5.79754">
        <ele>1186.258</ele>
        <time>2022-03-22T12:40:27Z</time>
      </trkpt>
      <trkpt lat="44.37708" lon="5.79753">
        <ele>1186.458</ele>
        <time>2022-03-22T12:41:30Z</time>
      </trkpt>
      <trkpt lat="44.37708" lon="5.79752">
        <ele>1184.558</ele>
        <time>2022-03-22T12:41:31Z</time>
      </trkpt>
      <trkpt lat="44.37709" lon="5.7975">
        <ele>1184.658</ele>
        <time>2022-03-22T12:41:33Z</time>
      </trkpt>
      <trkpt lat="44.37709" lon="5.79749">
        <ele>1184.558</ele>
        <time>2022-03-22T12:41:35Z</time>
      </trkpt>
      <trkpt lat="44.37709" lon="5.79749">
        <ele>1184.458</ele>
        <time>2022-03-22T12:41:36Z</time>
      </trkpt>
      <trkpt lat="44.37709" lon="5.79748">
        <ele>1184.358</ele>
        <time>2022-03-22T12:41:37Z</time>
      </trkpt>
      <trkpt lat="44.3771" lon="5.79747">
        <ele>1184.158</ele>
        <time>2022-03-22T12:41:40Z</time>
      </trkpt>
      <trkpt lat="44.37711" lon="5.79746">
        <ele>1183.958</ele>
        <time>2022-03-22T12:41:43Z</time>
      </trkpt>
      <trkpt lat="44.37712" lon="5.79745">
        <ele>1183.658</ele>
        <time>2022-03-22T12:41:45Z</time>
      </trkpt>
      <trkpt lat="44.37713" lon="5.79744">
        <ele>1183.458</ele>
        <time>2022-03-22T12:41:47Z</time>
      </trkpt>
      <trkpt lat="44.37713" lon="5.79744">
        <ele>1183.258</ele>
        <time>2022-03-22T12:41:50Z</time>
      </trkpt>
      <trkpt lat="44.37713" lon="5.79743">
        <ele>1183.358</ele>
        <time>2022-03-22T12:41:51Z</time>
      </trkpt>
      <trkpt lat="44.37713" lon="5.79743">
        <ele>1183.558</ele>
        <time>2022-03-22T12:41:58Z</time>
      </trkpt>
      <trkpt lat="44.37713" lon="5.79742">
        <ele>1183.558</ele>
        <time>2022-03-22T12:41:59Z</time>
      </trkpt>
      <trkpt lat="44.37713" lon="5.7974">
        <ele>1183.458</ele>
        <time>2022-03-22T12:42:01Z</time>
      </trkpt>
      <trkpt lat="44.37714" lon="5.79739">
        <ele>1183.058</ele>
        <time>2022-03-22T12:42:03Z</time>
      </trkpt>
      <trkpt lat="44.37714" lon="5.79738">
        <ele>1182.458</ele>
        <time>2022-03-22T12:42:05Z</time>
      </trkpt>
      <trkpt lat="44.37715" lon="5.79736">
        <ele>1181.758</ele>
        <time>2022-03-22T12:42:08Z</time>
      </trkpt>
      <trkpt lat="44.37715" lon="5.79735">
        <ele>1181.458</ele>
        <time>2022-03-22T12:42:10Z</time>
      </trkpt>
      <trkpt lat="44.37716" lon="5.79734">
        <ele>1180.958</ele>
        <time>2022-03-22T12:42:13Z</time>
      </trkpt>
      <trkpt lat="44.37717" lon="5.79733">
        <ele>1180.258</ele>
        <time>2022-03-22T12:42:16Z</time>
      </trkpt>
      <trkpt lat="44.37717" lon="5.79731">
        <ele>1179.458</ele>
        <time>2022-03-22T12:42:19Z</time>
      </trkpt>
      <trkpt lat="44.37718" lon="5.7973">
        <ele>1178.858</ele>
        <time>2022-03-22T12:42:21Z</time>
      </trkpt>
      <trkpt lat="44.37719" lon="5.79728">
        <ele>1178.058</ele>
        <time>2022-03-22T12:42:23Z</time>
      </trkpt>
      <trkpt lat="44.3772" lon="5.79726">
        <ele>1177.658</ele>
        <time>2022-03-22T12:42:25Z</time>
      </trkpt>
      <trkpt lat="44.3772" lon="5.79724">
        <ele>1177.158</ele>
        <time>2022-03-22T12:42:27Z</time>
      </trkpt>
      <trkpt lat="44.3772" lon="5.79722">
        <ele>1177.058</ele>
        <time>2022-03-22T12:42:29Z</time>
      </trkpt>
      <trkpt lat="44.37721" lon="5.79721">
        <ele>1176.858</ele>
        <time>2022-03-22T12:42:30Z</time>
      </trkpt>
      <trkpt lat="44.37721" lon="5.79719">
        <ele>1176.358</ele>
        <time>2022-03-22T12:42:32Z</time>
      </trkpt>
      <trkpt lat="44.37722" lon="5.79718">
        <ele>1175.558</ele>
        <time>2022-03-22T12:42:34Z</time>
      </trkpt>
      <trkpt lat="44.37722" lon="5.79717">
        <ele>1174.558</ele>
        <time>2022-03-22T12:42:37Z</time>
      </trkpt>
      <trkpt lat="44.37723" lon="5.79717">
        <ele>1174.458</ele>
        <time>2022-03-22T12:42:39Z</time>
      </trkpt>
      <trkpt lat="44.37724" lon="5.79716">
        <ele>1174.058</ele>
        <time>2022-03-22T12:42:41Z</time>
      </trkpt>
      <trkpt lat="44.37725" lon="5.79714">
        <ele>1173.758</ele>
        <time>2022-03-22T12:42:43Z</time>
      </trkpt>
      <trkpt lat="44.37725" lon="5.79713">
        <ele>1173.558</ele>
        <time>2022-03-22T12:42:44Z</time>
      </trkpt>
      <trkpt lat="44.37726" lon="5.79712">
        <ele>1173.358</ele>
        <time>2022-03-22T12:42:45Z</time>
      </trkpt>
      <trkpt lat="44.37726" lon="5.79711">
        <ele>1173.058</ele>
        <time>2022-03-22T12:42:46Z</time>
      </trkpt>
      <trkpt lat="44.37727" lon="5.79709">
        <ele>1172.658</ele>
        <time>2022-03-22T12:42:48Z</time>
      </trkpt>
      <trkpt lat="44.37727" lon="5.79708">
        <ele>1172.458</ele>
        <time>2022-03-22T12:42:50Z</time>
      </trkpt>
      <trkpt lat="44.37728" lon="5.79706">
        <ele>1172.258</ele>
        <time>2022-03-22T12:42:52Z</time>
      </trkpt>
      <trkpt lat="44.37728" lon="5.79704">
        <ele>1172.058</ele>
        <time>2022-03-22T12:42:53Z</time>
      </trkpt>
      <trkpt lat="44.37728" lon="5.79703">
        <ele>1172.158</ele>
        <time>2022-03-22T12:42:54Z</time>
      </trkpt>
      <trkpt lat="44.37729" lon="5.79701">
        <ele>1172.058</ele>
        <time>2022-03-22T12:42:56Z</time>
      </trkpt>
      <trkpt lat="44.37728" lon="5.79699">
        <ele>1171.858</ele>
        <time>2022-03-22T12:42:58Z</time>
      </trkpt>
      <trkpt lat="44.37727" lon="5.79697">
        <ele>1171.858</ele>
        <time>2022-03-22T12:43:00Z</time>
      </trkpt>
      <trkpt lat="44.37728" lon="5.79695">
        <ele>1171.958</ele>
        <time>2022-03-22T12:43:02Z</time>
      </trkpt>
      <trkpt lat="44.37727" lon="5.79693">
        <ele>1172.058</ele>
        <time>2022-03-22T12:43:04Z</time>
      </trkpt>
      <trkpt lat="44.37727" lon="5.79691">
        <ele>1172.058</ele>
        <time>2022-03-22T12:43:06Z</time>
      </trkpt>
      <trkpt lat="44.37726" lon="5.79689">
        <ele>1172.458</ele>
        <time>2022-03-22T12:43:08Z</time>
      </trkpt>
      <trkpt lat="44.37726" lon="5.79688">
        <ele>1172.658</ele>
        <time>2022-03-22T12:43:10Z</time>
      </trkpt>
      <trkpt lat="44.37726" lon="5.79685">
        <ele>1172.658</ele>
        <time>2022-03-22T12:43:12Z</time>
      </trkpt>
      <trkpt lat="44.37726" lon="5.79684">
        <ele>1172.658</ele>
        <time>2022-03-22T12:43:13Z</time>
      </trkpt>
      <trkpt lat="44.37727" lon="5.79682">
        <ele>1172.558</ele>
        <time>2022-03-22T12:43:15Z</time>
      </trkpt>
      <trkpt lat="44.37727" lon="5.7968">
        <ele>1172.558</ele>
        <time>2022-03-22T12:43:16Z</time>
      </trkpt>
      <trkpt lat="44.37727" lon="5.79679">
        <ele>1172.458</ele>
        <time>2022-03-22T12:43:17Z</time>
      </trkpt>
      <trkpt lat="44.37727" lon="5.79678">
        <ele>1172.358</ele>
        <time>2022-03-22T12:43:19Z</time>
      </trkpt>
      <trkpt lat="44.37728" lon="5.79675">
        <ele>1172.758</ele>
        <time>2022-03-22T12:43:21Z</time>
      </trkpt>
      <trkpt lat="44.37728" lon="5.79673">
        <ele>1172.559</ele>
        <time>2022-03-22T12:43:23Z</time>
      </trkpt>
      <trkpt lat="44.37728" lon="5.79673">
        <ele>1169.859</ele>
        <time>2022-03-22T12:43:29Z</time>
      </trkpt>
      <trkpt lat="44.37728" lon="5.79673">
        <ele>1169.659</ele>
        <time>2022-03-22T12:43:30Z</time>
      </trkpt>
      <trkpt lat="44.37728" lon="5.79673">
        <ele>1169.358</ele>
        <time>2022-03-22T12:44:03Z</time>
      </trkpt>
      <trkpt lat="44.3773" lon="5.79668">
        <ele>1173.158</ele>
        <time>2022-03-22T12:44:04Z</time>
      </trkpt>
      <trkpt lat="44.37731" lon="5.79667">
        <ele>1173.458</ele>
        <time>2022-03-22T12:44:05Z</time>
      </trkpt>
      <trkpt lat="44.37731" lon="5.79667">
        <ele>1173.658</ele>
        <time>2022-03-22T12:44:06Z</time>
      </trkpt>
      <trkpt lat="44.37731" lon="5.79667">
        <ele>1173.658</ele>
        <time>2022-03-22T12:44:07Z</time>
      </trkpt>
      <trkpt lat="44.37732" lon="5.79667">
        <ele>1173.958</ele>
        <time>2022-03-22T12:44:08Z</time>
      </trkpt>
      <trkpt lat="44.37732" lon="5.79666">
        <ele>1173.858</ele>
        <time>2022-03-22T12:44:09Z</time>
      </trkpt>
      <trkpt lat="44.37732" lon="5.79667">
        <ele>1173.558</ele>
        <time>2022-03-22T12:44:57Z</time>
      </trkpt>
      <trkpt lat="44.37732" lon="5.79663">
        <ele>1172.458</ele>
        <time>2022-03-22T12:44:58Z</time>
      </trkpt>
      <trkpt lat="44.37732" lon="5.79662">
        <ele>1172.359</ele>
        <time>2022-03-22T12:45:00Z</time>
      </trkpt>
      <trkpt lat="44.37732" lon="5.79662">
        <ele>1172.359</ele>
        <time>2022-03-22T12:45:01Z</time>
      </trkpt>
      <trkpt lat="44.37732" lon="5.79661">
        <ele>1172.159</ele>
        <time>2022-03-22T12:45:03Z</time>
      </trkpt>
      <trkpt lat="44.37732" lon="5.7966">
        <ele>1172.059</ele>
        <time>2022-03-22T12:45:04Z</time>
      </trkpt>
      <trkpt lat="44.37732" lon="5.79658">
        <ele>1171.959</ele>
        <time>2022-03-22T12:45:06Z</time>
      </trkpt>
      <trkpt lat="44.37732" lon="5.79658">
        <ele>1171.759</ele>
        <time>2022-03-22T12:45:07Z</time>
      </trkpt>
      <trkpt lat="44.37732" lon="5.79657">
        <ele>1171.659</ele>
        <time>2022-03-22T12:45:08Z</time>
      </trkpt>
      <trkpt lat="44.37731" lon="5.79656">
        <ele>1171.759</ele>
        <time>2022-03-22T12:45:09Z</time>
      </trkpt>
      <trkpt lat="44.37731" lon="5.79655">
        <ele>1171.759</ele>
        <time>2022-03-22T12:45:10Z</time>
      </trkpt>
      <trkpt lat="44.37731" lon="5.79654">
        <ele>1171.759</ele>
        <time>2022-03-22T12:45:11Z</time>
      </trkpt>
      <trkpt lat="44.3773" lon="5.79653">
        <ele>1171.759</ele>
        <time>2022-03-22T12:45:13Z</time>
      </trkpt>
      <trkpt lat="44.3773" lon="5.79653">
        <ele>1171.759</ele>
        <time>2022-03-22T12:45:35Z</time>
      </trkpt>
      <trkpt lat="44.37727" lon="5.79641">
        <ele>1173.959</ele>
        <time>2022-03-22T12:45:36Z</time>
      </trkpt>
      <trkpt lat="44.37727" lon="5.7964">
        <ele>1174.359</ele>
        <time>2022-03-22T12:45:38Z</time>
      </trkpt>
      <trkpt lat="44.37727" lon="5.79638">
        <ele>1174.459</ele>
        <time>2022-03-22T12:45:41Z</time>
      </trkpt>
      <trkpt lat="44.37727" lon="5.79636">
        <ele>1174.559</ele>
        <time>2022-03-22T12:45:44Z</time>
      </trkpt>
      <trkpt lat="44.37727" lon="5.79634">
        <ele>1174.959</ele>
        <time>2022-03-22T12:45:46Z</time>
      </trkpt>
      <trkpt lat="44.37727" lon="5.79632">
        <ele>1175.059</ele>
        <time>2022-03-22T12:45:48Z</time>
      </trkpt>
      <trkpt lat="44.37728" lon="5.7963">
        <ele>1175.259</ele>
        <time>2022-03-22T12:45:50Z</time>
      </trkpt>
      <trkpt lat="44.37728" lon="5.79628">
        <ele>1175.359</ele>
        <time>2022-03-22T12:45:52Z</time>
      </trkpt>
      <trkpt lat="44.37728" lon="5.79627">
        <ele>1175.459</ele>
        <time>2022-03-22T12:45:53Z</time>
      </trkpt>
      <trkpt lat="44.37728" lon="5.79625">
        <ele>1175.559</ele>
        <time>2022-03-22T12:45:54Z</time>
      </trkpt>
      <trkpt lat="44.37727" lon="5.79623">
        <ele>1175.959</ele>
        <time>2022-03-22T12:45:56Z</time>
      </trkpt>
      <trkpt lat="44.37727" lon="5.79622">
        <ele>1175.859</ele>
        <time>2022-03-22T12:45:57Z</time>
      </trkpt>
      <trkpt lat="44.37727" lon="5.7962">
        <ele>1175.859</ele>
        <time>2022-03-22T12:45:58Z</time>
      </trkpt>
      <trkpt lat="44.37727" lon="5.79619">
        <ele>1175.859</ele>
        <time>2022-03-22T12:45:59Z</time>
      </trkpt>
      <trkpt lat="44.37727" lon="5.79618">
        <ele>1175.759</ele>
        <time>2022-03-22T12:46:00Z</time>
      </trkpt>
      <trkpt lat="44.37727" lon="5.79615">
        <ele>1175.959</ele>
        <time>2022-03-22T12:46:02Z</time>
      </trkpt>
      <trkpt lat="44.37727" lon="5.79613">
        <ele>1175.559</ele>
        <time>2022-03-22T12:46:04Z</time>
      </trkpt>
      <trkpt lat="44.37727" lon="5.79611">
        <ele>1175.759</ele>
        <time>2022-03-22T12:46:06Z</time>
      </trkpt>
      <trkpt lat="44.37727" lon="5.79608">
        <ele>1176.259</ele>
        <time>2022-03-22T12:46:08Z</time>
      </trkpt>
      <trkpt lat="44.37727" lon="5.79606">
        <ele>1176.359</ele>
        <time>2022-03-22T12:46:10Z</time>
      </trkpt>
      <trkpt lat="44.37727" lon="5.79604">
        <ele>1176.459</ele>
        <time>2022-03-22T12:46:12Z</time>
      </trkpt>
      <trkpt lat="44.37727" lon="5.79602">
        <ele>1176.559</ele>
        <time>2022-03-22T12:46:13Z</time>
      </trkpt>
      <trkpt lat="44.37727" lon="5.79601">
        <ele>1176.659</ele>
        <time>2022-03-22T12:46:14Z</time>
      </trkpt>
      <trkpt lat="44.37727" lon="5.79599">
        <ele>1176.459</ele>
        <time>2022-03-22T12:46:16Z</time>
      </trkpt>
      <trkpt lat="44.37728" lon="5.79597">
        <ele>1176.459</ele>
        <time>2022-03-22T12:46:17Z</time>
      </trkpt>
      <trkpt lat="44.37728" lon="5.79595">
        <ele>1176.059</ele>
        <time>2022-03-22T12:46:19Z</time>
      </trkpt>
      <trkpt lat="44.37728" lon="5.79593">
        <ele>1175.859</ele>
        <time>2022-03-22T12:46:21Z</time>
      </trkpt>
      <trkpt lat="44.37729" lon="5.7959">
        <ele>1175.859</ele>
        <time>2022-03-22T12:46:23Z</time>
      </trkpt>
      <trkpt lat="44.37729" lon="5.79588">
        <ele>1175.759</ele>
        <time>2022-03-22T12:46:25Z</time>
      </trkpt>
      <trkpt lat="44.37729" lon="5.79586">
        <ele>1175.559</ele>
        <time>2022-03-22T12:46:27Z</time>
      </trkpt>
      <trkpt lat="44.3773" lon="5.79584">
        <ele>1175.959</ele>
        <time>2022-03-22T12:46:29Z</time>
      </trkpt>
      <trkpt lat="44.3773" lon="5.79582">
        <ele>1176.059</ele>
        <time>2022-03-22T12:46:30Z</time>
      </trkpt>
      <trkpt lat="44.3773" lon="5.79581">
        <ele>1176.459</ele>
        <time>2022-03-22T12:46:31Z</time>
      </trkpt>
      <trkpt lat="44.37729" lon="5.79579">
        <ele>1176.759</ele>
        <time>2022-03-22T12:46:33Z</time>
      </trkpt>
      <trkpt lat="44.3773" lon="5.79577">
        <ele>1177.059</ele>
        <time>2022-03-22T12:46:34Z</time>
      </trkpt>
      <trkpt lat="44.3773" lon="5.79575">
        <ele>1176.959</ele>
        <time>2022-03-22T12:46:36Z</time>
      </trkpt>
      <trkpt lat="44.3773" lon="5.79574">
        <ele>1176.959</ele>
        <time>2022-03-22T12:46:37Z</time>
      </trkpt>
      <trkpt lat="44.3773" lon="5.79572">
        <ele>1176.659</ele>
        <time>2022-03-22T12:46:39Z</time>
      </trkpt>
      <trkpt lat="44.3773" lon="5.7957">
        <ele>1176.359</ele>
        <time>2022-03-22T12:46:41Z</time>
      </trkpt>
      <trkpt lat="44.3773" lon="5.79569">
        <ele>1176.159</ele>
        <time>2022-03-22T12:46:42Z</time>
      </trkpt>
      <trkpt lat="44.3773" lon="5.79566">
        <ele>1175.86</ele>
        <time>2022-03-22T12:46:44Z</time>
      </trkpt>
      <trkpt lat="44.3773" lon="5.79564">
        <ele>1175.86</ele>
        <time>2022-03-22T12:46:46Z</time>
      </trkpt>
      <trkpt lat="44.3773" lon="5.79562">
        <ele>1175.76</ele>
        <time>2022-03-22T12:46:48Z</time>
      </trkpt>
      <trkpt lat="44.3773" lon="5.7956">
        <ele>1175.86</ele>
        <time>2022-03-22T12:46:50Z</time>
      </trkpt>
      <trkpt lat="44.3773" lon="5.79558">
        <ele>1175.96</ele>
        <time>2022-03-22T12:46:52Z</time>
      </trkpt>
      <trkpt lat="44.37731" lon="5.79555">
        <ele>1175.76</ele>
        <time>2022-03-22T12:46:54Z</time>
      </trkpt>
      <trkpt lat="44.37731" lon="5.79554">
        <ele>1175.36</ele>
        <time>2022-03-22T12:46:56Z</time>
      </trkpt>
      <trkpt lat="44.37732" lon="5.79553">
        <ele>1175.16</ele>
        <time>2022-03-22T12:46:58Z</time>
      </trkpt>
      <trkpt lat="44.37732" lon="5.79551">
        <ele>1175.16</ele>
        <time>2022-03-22T12:47:01Z</time>
      </trkpt>
      <trkpt lat="44.37732" lon="5.79549">
        <ele>1175.06</ele>
        <time>2022-03-22T12:47:03Z</time>
      </trkpt>
      <trkpt lat="44.37732" lon="5.79547">
        <ele>1174.96</ele>
        <time>2022-03-22T12:47:05Z</time>
      </trkpt>
      <trkpt lat="44.37732" lon="5.79546">
        <ele>1174.86</ele>
        <time>2022-03-22T12:47:07Z</time>
      </trkpt>
      <trkpt lat="44.37733" lon="5.79544">
        <ele>1174.86</ele>
        <time>2022-03-22T12:47:08Z</time>
      </trkpt>
      <trkpt lat="44.37733" lon="5.79542">
        <ele>1174.56</ele>
        <time>2022-03-22T12:47:10Z</time>
      </trkpt>
      <trkpt lat="44.37733" lon="5.7954">
        <ele>1174.66</ele>
        <time>2022-03-22T12:47:12Z</time>
      </trkpt>
      <trkpt lat="44.37733" lon="5.79538">
        <ele>1174.76</ele>
        <time>2022-03-22T12:47:14Z</time>
      </trkpt>
      <trkpt lat="44.37732" lon="5.79536">
        <ele>1174.96</ele>
        <time>2022-03-22T12:47:16Z</time>
      </trkpt>
      <trkpt lat="44.37732" lon="5.79535">
        <ele>1175.36</ele>
        <time>2022-03-22T12:47:18Z</time>
      </trkpt>
      <trkpt lat="44.37731" lon="5.79533">
        <ele>1175.26</ele>
        <time>2022-03-22T12:47:20Z</time>
      </trkpt>
      <trkpt lat="44.37731" lon="5.79531">
        <ele>1175.06</ele>
        <time>2022-03-22T12:47:22Z</time>
      </trkpt>
      <trkpt lat="44.37731" lon="5.79529">
        <ele>1174.86</ele>
        <time>2022-03-22T12:47:24Z</time>
      </trkpt>
      <trkpt lat="44.37731" lon="5.79528">
        <ele>1174.86</ele>
        <time>2022-03-22T12:47:26Z</time>
      </trkpt>
      <trkpt lat="44.37731" lon="5.79526">
        <ele>1174.96</ele>
        <time>2022-03-22T12:47:28Z</time>
      </trkpt>
      <trkpt lat="44.37731" lon="5.79524">
        <ele>1174.66</ele>
        <time>2022-03-22T12:47:29Z</time>
      </trkpt>
      <trkpt lat="44.37731" lon="5.79523">
        <ele>1174.66</ele>
        <time>2022-03-22T12:47:31Z</time>
      </trkpt>
      <trkpt lat="44.3773" lon="5.79521">
        <ele>1174.76</ele>
        <time>2022-03-22T12:47:33Z</time>
      </trkpt>
      <trkpt lat="44.3773" lon="5.7952">
        <ele>1175.06</ele>
        <time>2022-03-22T12:47:35Z</time>
      </trkpt>
      <trkpt lat="44.3773" lon="5.79518">
        <ele>1175.36</ele>
        <time>2022-03-22T12:47:37Z</time>
      </trkpt>
      <trkpt lat="44.3773" lon="5.79516">
        <ele>1175.56</ele>
        <time>2022-03-22T12:47:39Z</time>
      </trkpt>
      <trkpt lat="44.37729" lon="5.79514">
        <ele>1176.16</ele>
        <time>2022-03-22T12:47:41Z</time>
      </trkpt>
      <trkpt lat="44.37729" lon="5.79512">
        <ele>1176.26</ele>
        <time>2022-03-22T12:47:43Z</time>
      </trkpt>
      <trkpt lat="44.37729" lon="5.7951">
        <ele>1176.06</ele>
        <time>2022-03-22T12:47:45Z</time>
      </trkpt>
      <trkpt lat="44.37729" lon="5.79509">
        <ele>1176.06</ele>
        <time>2022-03-22T12:47:46Z</time>
      </trkpt>
      <trkpt lat="44.37729" lon="5.79507">
        <ele>1175.96</ele>
        <time>2022-03-22T12:47:47Z</time>
      </trkpt>
      <trkpt lat="44.37729" lon="5.79506">
        <ele>1175.96</ele>
        <time>2022-03-22T12:47:48Z</time>
      </trkpt>
      <trkpt lat="44.37728" lon="5.79504">
        <ele>1175.86</ele>
        <time>2022-03-22T12:47:50Z</time>
      </trkpt>
      <trkpt lat="44.37728" lon="5.79502">
        <ele>1176.06</ele>
        <time>2022-03-22T12:47:52Z</time>
      </trkpt>
      <trkpt lat="44.37728" lon="5.79501">
        <ele>1176.56</ele>
        <time>2022-03-22T12:47:58Z</time>
      </trkpt>
      <trkpt lat="44.37728" lon="5.79501">
        <ele>1176.76</ele>
        <time>2022-03-22T12:47:59Z</time>
      </trkpt>
      <trkpt lat="44.37728" lon="5.79501">
        <ele>1176.76</ele>
        <time>2022-03-22T12:48:00Z</time>
      </trkpt>
      <trkpt lat="44.37727" lon="5.79501">
        <ele>1176.86</ele>
        <time>2022-03-22T12:48:01Z</time>
      </trkpt>
      <trkpt lat="44.37727" lon="5.795">
        <ele>1176.86</ele>
        <time>2022-03-22T12:48:02Z</time>
      </trkpt>
      <trkpt lat="44.37727" lon="5.795">
        <ele>1176.66</ele>
        <time>2022-03-22T12:48:03Z</time>
      </trkpt>
      <trkpt lat="44.37727" lon="5.79499">
        <ele>1176.76</ele>
        <time>2022-03-22T12:48:04Z</time>
      </trkpt>
      <trkpt lat="44.37727" lon="5.79497">
        <ele>1176.66</ele>
        <time>2022-03-22T12:48:06Z</time>
      </trkpt>
      <trkpt lat="44.37727" lon="5.79496">
        <ele>1176.96</ele>
        <time>2022-03-22T12:48:08Z</time>
      </trkpt>
      <trkpt lat="44.37727" lon="5.79494">
        <ele>1176.96</ele>
        <time>2022-03-22T12:48:10Z</time>
      </trkpt>
      <trkpt lat="44.37727" lon="5.79493">
        <ele>1177.16</ele>
        <time>2022-03-22T12:48:12Z</time>
      </trkpt>
      <trkpt lat="44.37726" lon="5.79491">
        <ele>1176.86</ele>
        <time>2022-03-22T12:48:14Z</time>
      </trkpt>
      <trkpt lat="44.37726" lon="5.79489">
        <ele>1177.26</ele>
        <time>2022-03-22T12:48:16Z</time>
      </trkpt>
      <trkpt lat="44.37725" lon="5.79487">
        <ele>1177.86</ele>
        <time>2022-03-22T12:48:18Z</time>
      </trkpt>
      <trkpt lat="44.37725" lon="5.79486">
        <ele>1178.16</ele>
        <time>2022-03-22T12:48:20Z</time>
      </trkpt>
      <trkpt lat="44.37725" lon="5.79484">
        <ele>1178.46</ele>
        <time>2022-03-22T12:48:22Z</time>
      </trkpt>
      <trkpt lat="44.37725" lon="5.79482">
        <ele>1178.76</ele>
        <time>2022-03-22T12:48:24Z</time>
      </trkpt>
      <trkpt lat="44.37724" lon="5.7948">
        <ele>1178.66</ele>
        <time>2022-03-22T12:48:26Z</time>
      </trkpt>
      <trkpt lat="44.37724" lon="5.79479">
        <ele>1178.761</ele>
        <time>2022-03-22T12:48:28Z</time>
      </trkpt>
      <trkpt lat="44.37724" lon="5.79476">
        <ele>1178.761</ele>
        <time>2022-03-22T12:48:30Z</time>
      </trkpt>
      <trkpt lat="44.37723" lon="5.79475">
        <ele>1178.861</ele>
        <time>2022-03-22T12:48:32Z</time>
      </trkpt>
      <trkpt lat="44.37723" lon="5.79474">
        <ele>1179.261</ele>
        <time>2022-03-22T12:48:35Z</time>
      </trkpt>
      <trkpt lat="44.37722" lon="5.79472">
        <ele>1179.361</ele>
        <time>2022-03-22T12:48:37Z</time>
      </trkpt>
      <trkpt lat="44.37722" lon="5.79471">
        <ele>1179.161</ele>
        <time>2022-03-22T12:48:39Z</time>
      </trkpt>
      <trkpt lat="44.37722" lon="5.7947">
        <ele>1177.561</ele>
        <time>2022-03-22T12:48:43Z</time>
      </trkpt>
      <trkpt lat="44.37722" lon="5.79468">
        <ele>1177.261</ele>
        <time>2022-03-22T12:48:47Z</time>
      </trkpt>
      <trkpt lat="44.37722" lon="5.79466">
        <ele>1177.561</ele>
        <time>2022-03-22T12:48:49Z</time>
      </trkpt>
      <trkpt lat="44.37722" lon="5.79464">
        <ele>1177.761</ele>
        <time>2022-03-22T12:48:50Z</time>
      </trkpt>
      <trkpt lat="44.37721" lon="5.79462">
        <ele>1177.961</ele>
        <time>2022-03-22T12:48:51Z</time>
      </trkpt>
      <trkpt lat="44.37721" lon="5.79461">
        <ele>1178.161</ele>
        <time>2022-03-22T12:48:52Z</time>
      </trkpt>
      <trkpt lat="44.37721" lon="5.79459">
        <ele>1178.461</ele>
        <time>2022-03-22T12:48:54Z</time>
      </trkpt>
      <trkpt lat="44.37721" lon="5.79457">
        <ele>1178.561</ele>
        <time>2022-03-22T12:48:56Z</time>
      </trkpt>
      <trkpt lat="44.37721" lon="5.79455">
        <ele>1179.161</ele>
        <time>2022-03-22T12:48:58Z</time>
      </trkpt>
      <trkpt lat="44.3772" lon="5.79453">
        <ele>1179.361</ele>
        <time>2022-03-22T12:49:00Z</time>
      </trkpt>
      <trkpt lat="44.3772" lon="5.79451">
        <ele>1179.561</ele>
        <time>2022-03-22T12:49:02Z</time>
      </trkpt>
      <trkpt lat="44.37719" lon="5.7945">
        <ele>1179.461</ele>
        <time>2022-03-22T12:49:03Z</time>
      </trkpt>
      <trkpt lat="44.37719" lon="5.79447">
        <ele>1179.461</ele>
        <time>2022-03-22T12:49:05Z</time>
      </trkpt>
      <trkpt lat="44.37719" lon="5.79446">
        <ele>1179.461</ele>
        <time>2022-03-22T12:49:06Z</time>
      </trkpt>
      <trkpt lat="44.37719" lon="5.79445">
        <ele>1179.361</ele>
        <time>2022-03-22T12:49:07Z</time>
      </trkpt>
      <trkpt lat="44.37719" lon="5.79443">
        <ele>1179.361</ele>
        <time>2022-03-22T12:49:08Z</time>
      </trkpt>
      <trkpt lat="44.37719" lon="5.79441">
        <ele>1178.761</ele>
        <time>2022-03-22T12:49:10Z</time>
      </trkpt>
      <trkpt lat="44.37719" lon="5.7944">
        <ele>1178.561</ele>
        <time>2022-03-22T12:49:11Z</time>
      </trkpt>
      <trkpt lat="44.37718" lon="5.79438">
        <ele>1178.361</ele>
        <time>2022-03-22T12:49:13Z</time>
      </trkpt>
      <trkpt lat="44.37718" lon="5.79435">
        <ele>1178.361</ele>
        <time>2022-03-22T12:49:15Z</time>
      </trkpt>
      <trkpt lat="44.37718" lon="5.79434">
        <ele>1178.261</ele>
        <time>2022-03-22T12:49:16Z</time>
      </trkpt>
      <trkpt lat="44.37717" lon="5.79433">
        <ele>1177.761</ele>
        <time>2022-03-22T12:49:19Z</time>
      </trkpt>
      <trkpt lat="44.37716" lon="5.79431">
        <ele>1177.361</ele>
        <time>2022-03-22T12:49:22Z</time>
      </trkpt>
      <trkpt lat="44.37716" lon="5.7943">
        <ele>1177.661</ele>
        <time>2022-03-22T12:49:24Z</time>
      </trkpt>
      <trkpt lat="44.37716" lon="5.79428">
        <ele>1177.461</ele>
        <time>2022-03-22T12:49:27Z</time>
      </trkpt>
      <trkpt lat="44.37715" lon="5.79426">
        <ele>1177.361</ele>
        <time>2022-03-22T12:49:28Z</time>
      </trkpt>
      <trkpt lat="44.37715" lon="5.79425">
        <ele>1177.361</ele>
        <time>2022-03-22T12:49:29Z</time>
      </trkpt>
      <trkpt lat="44.37715" lon="5.79423">
        <ele>1177.161</ele>
        <time>2022-03-22T12:49:31Z</time>
      </trkpt>
      <trkpt lat="44.37714" lon="5.79422">
        <ele>1177.361</ele>
        <time>2022-03-22T12:49:33Z</time>
      </trkpt>
      <trkpt lat="44.37713" lon="5.7942">
        <ele>1177.861</ele>
        <time>2022-03-22T12:49:35Z</time>
      </trkpt>
      <trkpt lat="44.37713" lon="5.79419">
        <ele>1178.061</ele>
        <time>2022-03-22T12:49:37Z</time>
      </trkpt>
      <trkpt lat="44.37713" lon="5.79418">
        <ele>1178.161</ele>
        <time>2022-03-22T12:49:38Z</time>
      </trkpt>
      <trkpt lat="44.37713" lon="5.79416">
        <ele>1178.061</ele>
        <time>2022-03-22T12:49:39Z</time>
      </trkpt>
      <trkpt lat="44.37713" lon="5.79415">
        <ele>1177.861</ele>
        <time>2022-03-22T12:49:41Z</time>
      </trkpt>
      <trkpt lat="44.37713" lon="5.79413">
        <ele>1177.361</ele>
        <time>2022-03-22T12:49:44Z</time>
      </trkpt>
      <trkpt lat="44.37714" lon="5.79413">
        <ele>1175.361</ele>
        <time>2022-03-22T12:49:50Z</time>
      </trkpt>
      <trkpt lat="44.37714" lon="5.79412">
        <ele>1175.261</ele>
        <time>2022-03-22T12:49:51Z</time>
      </trkpt>
      <trkpt lat="44.37715" lon="5.79411">
        <ele>1175.161</ele>
        <time>2022-03-22T12:49:53Z</time>
      </trkpt>
      <trkpt lat="44.37715" lon="5.79411">
        <ele>1175.161</ele>
        <time>2022-03-22T12:49:54Z</time>
      </trkpt>
      <trkpt lat="44.37715" lon="5.7941">
        <ele>1174.561</ele>
        <time>2022-03-22T12:49:55Z</time>
      </trkpt>
      <trkpt lat="44.37715" lon="5.79409">
        <ele>1174.361</ele>
        <time>2022-03-22T12:49:56Z</time>
      </trkpt>
      <trkpt lat="44.37715" lon="5.79408">
        <ele>1174.261</ele>
        <time>2022-03-22T12:49:57Z</time>
      </trkpt>
      <trkpt lat="44.37715" lon="5.79408">
        <ele>1174.061</ele>
        <time>2022-03-22T12:49:58Z</time>
      </trkpt>
      <trkpt lat="44.37716" lon="5.79406">
        <ele>1173.661</ele>
        <time>2022-03-22T12:50:00Z</time>
      </trkpt>
      <trkpt lat="44.37716" lon="5.79404">
        <ele>1173.661</ele>
        <time>2022-03-22T12:50:02Z</time>
      </trkpt>
      <trkpt lat="44.37716" lon="5.79402">
        <ele>1173.061</ele>
        <time>2022-03-22T12:50:04Z</time>
      </trkpt>
      <trkpt lat="44.37716" lon="5.794">
        <ele>1172.861</ele>
        <time>2022-03-22T12:50:06Z</time>
      </trkpt>
      <trkpt lat="44.37715" lon="5.79398">
        <ele>1172.062</ele>
        <time>2022-03-22T12:50:09Z</time>
      </trkpt>
      <trkpt lat="44.37714" lon="5.79397">
        <ele>1171.962</ele>
        <time>2022-03-22T12:50:11Z</time>
      </trkpt>
      <trkpt lat="44.37714" lon="5.79395">
        <ele>1171.762</ele>
        <time>2022-03-22T12:50:13Z</time>
      </trkpt>
      <trkpt lat="44.37714" lon="5.79394">
        <ele>1171.662</ele>
        <time>2022-03-22T12:50:16Z</time>
      </trkpt>
      <trkpt lat="44.37714" lon="5.79393">
        <ele>1171.562</ele>
        <time>2022-03-22T12:50:19Z</time>
      </trkpt>
      <trkpt lat="44.37714" lon="5.79392">
        <ele>1171.362</ele>
        <time>2022-03-22T12:50:20Z</time>
      </trkpt>
      <trkpt lat="44.37714" lon="5.79392">
        <ele>1171.162</ele>
        <time>2022-03-22T12:50:23Z</time>
      </trkpt>
      <trkpt lat="44.37715" lon="5.79391">
        <ele>1170.962</ele>
        <time>2022-03-22T12:50:24Z</time>
      </trkpt>
      <trkpt lat="44.37715" lon="5.7939">
        <ele>1170.662</ele>
        <time>2022-03-22T12:50:26Z</time>
      </trkpt>
      <trkpt lat="44.37716" lon="5.79388">
        <ele>1170.562</ele>
        <time>2022-03-22T12:50:28Z</time>
      </trkpt>
      <trkpt lat="44.37716" lon="5.79387">
        <ele>1170.562</ele>
        <time>2022-03-22T12:50:29Z</time>
      </trkpt>
      <trkpt lat="44.37716" lon="5.79385">
        <ele>1170.362</ele>
        <time>2022-03-22T12:50:30Z</time>
      </trkpt>
      <trkpt lat="44.37716" lon="5.79383">
        <ele>1170.462</ele>
        <time>2022-03-22T12:50:32Z</time>
      </trkpt>
      <trkpt lat="44.37716" lon="5.79381">
        <ele>1170.262</ele>
        <time>2022-03-22T12:50:34Z</time>
      </trkpt>
      <trkpt lat="44.37716" lon="5.79379">
        <ele>1170.162</ele>
        <time>2022-03-22T12:50:36Z</time>
      </trkpt>
      <trkpt lat="44.37716" lon="5.79378">
        <ele>1169.762</ele>
        <time>2022-03-22T12:50:38Z</time>
      </trkpt>
      <trkpt lat="44.37716" lon="5.79376">
        <ele>1169.362</ele>
        <time>2022-03-22T12:50:40Z</time>
      </trkpt>
      <trkpt lat="44.37716" lon="5.79373">
        <ele>1169.162</ele>
        <time>2022-03-22T12:50:42Z</time>
      </trkpt>
      <trkpt lat="44.37716" lon="5.79371">
        <ele>1168.962</ele>
        <time>2022-03-22T12:50:44Z</time>
      </trkpt>
      <trkpt lat="44.37715" lon="5.7937">
        <ele>1168.862</ele>
        <time>2022-03-22T12:50:45Z</time>
      </trkpt>
      <trkpt lat="44.37715" lon="5.79368">
        <ele>1168.962</ele>
        <time>2022-03-22T12:50:47Z</time>
      </trkpt>
      <trkpt lat="44.37715" lon="5.79368">
        <ele>1166.262</ele>
        <time>2022-03-22T12:50:53Z</time>
      </trkpt>
      <trkpt lat="44.37715" lon="5.79369">
        <ele>1166.162</ele>
        <time>2022-03-22T12:50:54Z</time>
      </trkpt>
      <trkpt lat="44.37715" lon="5.79369">
        <ele>1165.962</ele>
        <time>2022-03-22T12:53:17Z</time>
      </trkpt>
      <trkpt lat="44.37715" lon="5.79364">
        <ele>1166.662</ele>
        <time>2022-03-22T12:53:18Z</time>
      </trkpt>
      <trkpt lat="44.37715" lon="5.79362">
        <ele>1166.562</ele>
        <time>2022-03-22T12:53:20Z</time>
      </trkpt>
      <trkpt lat="44.37715" lon="5.79361">
        <ele>1166.862</ele>
        <time>2022-03-22T12:53:22Z</time>
      </trkpt>
      <trkpt lat="44.37715" lon="5.79358">
        <ele>1166.862</ele>
        <time>2022-03-22T12:53:24Z</time>
      </trkpt>
      <trkpt lat="44.37715" lon="5.79356">
        <ele>1166.862</ele>
        <time>2022-03-22T12:53:26Z</time>
      </trkpt>
      <trkpt lat="44.37715" lon="5.79354">
        <ele>1167.062</ele>
        <time>2022-03-22T12:53:28Z</time>
      </trkpt>
      <trkpt lat="44.37715" lon="5.79353">
        <ele>1167.062</ele>
        <time>2022-03-22T12:53:29Z</time>
      </trkpt>
      <trkpt lat="44.37715" lon="5.79351">
        <ele>1166.962</ele>
        <time>2022-03-22T12:53:30Z</time>
      </trkpt>
      <trkpt lat="44.37714" lon="5.79349">
        <ele>1166.462</ele>
        <time>2022-03-22T12:53:32Z</time>
      </trkpt>
      <trkpt lat="44.37714" lon="5.79347">
        <ele>1166.362</ele>
        <time>2022-03-22T12:53:34Z</time>
      </trkpt>
      <trkpt lat="44.37714" lon="5.79346">
        <ele>1165.962</ele>
        <time>2022-03-22T12:53:36Z</time>
      </trkpt>
      <trkpt lat="44.37714" lon="5.79343">
        <ele>1165.362</ele>
        <time>2022-03-22T12:53:38Z</time>
      </trkpt>
      <trkpt lat="44.37714" lon="5.79342">
        <ele>1165.262</ele>
        <time>2022-03-22T12:53:40Z</time>
      </trkpt>
      <trkpt lat="44.37713" lon="5.7934">
        <ele>1165.062</ele>
        <time>2022-03-22T12:53:42Z</time>
      </trkpt>
      <trkpt lat="44.37713" lon="5.79339">
        <ele>1165.162</ele>
        <time>2022-03-22T12:53:43Z</time>
      </trkpt>
      <trkpt lat="44.37713" lon="5.79337">
        <ele>1165.162</ele>
        <time>2022-03-22T12:53:44Z</time>
      </trkpt>
      <trkpt lat="44.37713" lon="5.79335">
        <ele>1165.262</ele>
        <time>2022-03-22T12:53:46Z</time>
      </trkpt>
      <trkpt lat="44.37712" lon="5.79334">
        <ele>1165.362</ele>
        <time>2022-03-22T12:53:47Z</time>
      </trkpt>
      <trkpt lat="44.37712" lon="5.79331">
        <ele>1165.062</ele>
        <time>2022-03-22T12:53:49Z</time>
      </trkpt>
      <trkpt lat="44.37712" lon="5.79329">
        <ele>1164.962</ele>
        <time>2022-03-22T12:53:50Z</time>
      </trkpt>
      <trkpt lat="44.37712" lon="5.79328">
        <ele>1164.862</ele>
        <time>2022-03-22T12:53:51Z</time>
      </trkpt>
      <trkpt lat="44.37711" lon="5.79326">
        <ele>1164.762</ele>
        <time>2022-03-22T12:53:53Z</time>
      </trkpt>
      <trkpt lat="44.37711" lon="5.79324">
        <ele>1164.762</ele>
        <time>2022-03-22T12:53:54Z</time>
      </trkpt>
      <trkpt lat="44.3771" lon="5.79323">
        <ele>1164.662</ele>
        <time>2022-03-22T12:53:56Z</time>
      </trkpt>
      <trkpt lat="44.3771" lon="5.79321">
        <ele>1164.562</ele>
        <time>2022-03-22T12:53:58Z</time>
      </trkpt>
      <trkpt lat="44.3771" lon="5.79319">
        <ele>1164.662</ele>
        <time>2022-03-22T12:54:00Z</time>
      </trkpt>
      <trkpt lat="44.3771" lon="5.79316">
        <ele>1164.462</ele>
        <time>2022-03-22T12:54:02Z</time>
      </trkpt>
      <trkpt lat="44.3771" lon="5.79314">
        <ele>1164.562</ele>
        <time>2022-03-22T12:54:04Z</time>
      </trkpt>
      <trkpt lat="44.3771" lon="5.79312">
        <ele>1164.363</ele>
        <time>2022-03-22T12:54:06Z</time>
      </trkpt>
      <trkpt lat="44.3771" lon="5.79311">
        <ele>1164.263</ele>
        <time>2022-03-22T12:54:07Z</time>
      </trkpt>
      <trkpt lat="44.3771" lon="5.79309">
        <ele>1164.263</ele>
        <time>2022-03-22T12:54:08Z</time>
      </trkpt>
      <trkpt lat="44.3771" lon="5.79308">
        <ele>1164.263</ele>
        <time>2022-03-22T12:54:09Z</time>
      </trkpt>
      <trkpt lat="44.3771" lon="5.79306">
        <ele>1164.763</ele>
        <time>2022-03-22T12:54:11Z</time>
      </trkpt>
      <trkpt lat="44.3771" lon="5.79304">
        <ele>1165.163</ele>
        <time>2022-03-22T12:54:13Z</time>
      </trkpt>
      <trkpt lat="44.37709" lon="5.79303">
        <ele>1165.263</ele>
        <time>2022-03-22T12:54:14Z</time>
      </trkpt>
      <trkpt lat="44.37709" lon="5.79301">
        <ele>1165.263</ele>
        <time>2022-03-22T12:54:15Z</time>
      </trkpt>
      <trkpt lat="44.37709" lon="5.793">
        <ele>1165.263</ele>
        <time>2022-03-22T12:54:16Z</time>
      </trkpt>
      <trkpt lat="44.37709" lon="5.79297">
        <ele>1165.063</ele>
        <time>2022-03-22T12:54:18Z</time>
      </trkpt>
      <trkpt lat="44.37708" lon="5.79295">
        <ele>1164.563</ele>
        <time>2022-03-22T12:54:20Z</time>
      </trkpt>
      <trkpt lat="44.37708" lon="5.79292">
        <ele>1164.263</ele>
        <time>2022-03-22T12:54:22Z</time>
      </trkpt>
      <trkpt lat="44.37708" lon="5.79291">
        <ele>1164.463</ele>
        <time>2022-03-22T12:54:23Z</time>
      </trkpt>
      <trkpt lat="44.37708" lon="5.79289">
        <ele>1164.263</ele>
        <time>2022-03-22T12:54:24Z</time>
      </trkpt>
      <trkpt lat="44.37709" lon="5.79288">
        <ele>1163.863</ele>
        <time>2022-03-22T12:54:25Z</time>
      </trkpt>
      <trkpt lat="44.37709" lon="5.79286">
        <ele>1163.463</ele>
        <time>2022-03-22T12:54:27Z</time>
      </trkpt>
      <trkpt lat="44.37709" lon="5.79284">
        <ele>1163.563</ele>
        <time>2022-03-22T12:54:29Z</time>
      </trkpt>
      <trkpt lat="44.37709" lon="5.79282">
        <ele>1163.563</ele>
        <time>2022-03-22T12:54:31Z</time>
      </trkpt>
      <trkpt lat="44.37709" lon="5.79279">
        <ele>1163.463</ele>
        <time>2022-03-22T12:54:33Z</time>
      </trkpt>
      <trkpt lat="44.37709" lon="5.79277">
        <ele>1163.163</ele>
        <time>2022-03-22T12:54:35Z</time>
      </trkpt>
      <trkpt lat="44.37709" lon="5.79275">
        <ele>1163.063</ele>
        <time>2022-03-22T12:54:37Z</time>
      </trkpt>
      <trkpt lat="44.37709" lon="5.79273">
        <ele>1163.063</ele>
        <time>2022-03-22T12:54:39Z</time>
      </trkpt>
      <trkpt lat="44.37708" lon="5.79271">
        <ele>1162.963</ele>
        <time>2022-03-22T12:54:41Z</time>
      </trkpt>
      <trkpt lat="44.37709" lon="5.79269">
        <ele>1162.963</ele>
        <time>2022-03-22T12:54:43Z</time>
      </trkpt>
      <trkpt lat="44.37709" lon="5.79266">
        <ele>1163.163</ele>
        <time>2022-03-22T12:54:45Z</time>
      </trkpt>
      <trkpt lat="44.37709" lon="5.79265">
        <ele>1163.363</ele>
        <time>2022-03-22T12:54:46Z</time>
      </trkpt>
      <trkpt lat="44.37708" lon="5.79263">
        <ele>1163.063</ele>
        <time>2022-03-22T12:54:48Z</time>
      </trkpt>
      <trkpt lat="44.37709" lon="5.79261">
        <ele>1162.963</ele>
        <time>2022-03-22T12:54:49Z</time>
      </trkpt>
      <trkpt lat="44.37709" lon="5.7926">
        <ele>1162.763</ele>
        <time>2022-03-22T12:54:50Z</time>
      </trkpt>
      <trkpt lat="44.37708" lon="5.79259">
        <ele>1161.763</ele>
        <time>2022-03-22T12:54:52Z</time>
      </trkpt>
      <trkpt lat="44.37708" lon="5.79257">
        <ele>1161.063</ele>
        <time>2022-03-22T12:54:54Z</time>
      </trkpt>
      <trkpt lat="44.37707" lon="5.79255">
        <ele>1160.563</ele>
        <time>2022-03-22T12:54:56Z</time>
      </trkpt>
      <trkpt lat="44.37707" lon="5.79254">
        <ele>1160.263</ele>
        <time>2022-03-22T12:54:57Z</time>
      </trkpt>
      <trkpt lat="44.37707" lon="5.79252">
        <ele>1159.963</ele>
        <time>2022-03-22T12:54:59Z</time>
      </trkpt>
      <trkpt lat="44.37706" lon="5.79251">
        <ele>1160.563</ele>
        <time>2022-03-22T12:55:03Z</time>
      </trkpt>
      <trkpt lat="44.37706" lon="5.79249">
        <ele>1160.863</ele>
        <time>2022-03-22T12:55:04Z</time>
      </trkpt>
      <trkpt lat="44.37706" lon="5.79247">
        <ele>1161.263</ele>
        <time>2022-03-22T12:55:06Z</time>
      </trkpt>
      <trkpt lat="44.37706" lon="5.79247">
        <ele>1161.463</ele>
        <time>2022-03-22T12:55:08Z</time>
      </trkpt>
      <trkpt lat="44.37706" lon="5.79247">
        <ele>1161.463</ele>
        <time>2022-03-22T12:55:09Z</time>
      </trkpt>
      <trkpt lat="44.37705" lon="5.79247">
        <ele>1161.063</ele>
        <time>2022-03-22T12:55:44Z</time>
      </trkpt>
      <trkpt lat="44.37705" lon="5.79245">
        <ele>1163.063</ele>
        <time>2022-03-22T12:55:45Z</time>
      </trkpt>
      <trkpt lat="44.37705" lon="5.79244">
        <ele>1163.463</ele>
        <time>2022-03-22T12:55:47Z</time>
      </trkpt>
      <trkpt lat="44.37704" lon="5.79242">
        <ele>1163.963</ele>
        <time>2022-03-22T12:55:49Z</time>
      </trkpt>
      <trkpt lat="44.37704" lon="5.7924">
        <ele>1164.263</ele>
        <time>2022-03-22T12:55:51Z</time>
      </trkpt>
      <trkpt lat="44.37705" lon="5.79238">
        <ele>1164.263</ele>
        <time>2022-03-22T12:55:52Z</time>
      </trkpt>
      <trkpt lat="44.37705" lon="5.79237">
        <ele>1164.263</ele>
        <time>2022-03-22T12:55:53Z</time>
      </trkpt>
      <trkpt lat="44.37705" lon="5.79235">
        <ele>1164.363</ele>
        <time>2022-03-22T12:55:55Z</time>
      </trkpt>
      <trkpt lat="44.37705" lon="5.79233">
        <ele>1164.463</ele>
        <time>2022-03-22T12:55:57Z</time>
      </trkpt>
      <trkpt lat="44.37705" lon="5.79232">
        <ele>1164.563</ele>
        <time>2022-03-22T12:55:58Z</time>
      </trkpt>
      <trkpt lat="44.37705" lon="5.7923">
        <ele>1164.663</ele>
        <time>2022-03-22T12:55:59Z</time>
      </trkpt>
      <trkpt lat="44.37705" lon="5.79229">
        <ele>1164.863</ele>
        <time>2022-03-22T12:56:00Z</time>
      </trkpt>
      <trkpt lat="44.37705" lon="5.79227">
        <ele>1164.863</ele>
        <time>2022-03-22T12:56:02Z</time>
      </trkpt>
      <trkpt lat="44.37705" lon="5.79225">
        <ele>1165.063</ele>
        <time>2022-03-22T12:56:04Z</time>
      </trkpt>
      <trkpt lat="44.37704" lon="5.79223">
        <ele>1165.364</ele>
        <time>2022-03-22T12:56:06Z</time>
      </trkpt>
      <trkpt lat="44.37704" lon="5.79222">
        <ele>1165.264</ele>
        <time>2022-03-22T12:56:08Z</time>
      </trkpt>
      <trkpt lat="44.37704" lon="5.7922">
        <ele>1165.564</ele>
        <time>2022-03-22T12:56:10Z</time>
      </trkpt>
      <trkpt lat="44.37704" lon="5.79219">
        <ele>1165.764</ele>
        <time>2022-03-22T12:56:12Z</time>
      </trkpt>
      <trkpt lat="44.37704" lon="5.79217">
        <ele>1166.164</ele>
        <time>2022-03-22T12:56:14Z</time>
      </trkpt>
      <trkpt lat="44.37703" lon="5.79217">
        <ele>1165.964</ele>
        <time>2022-03-22T12:56:17Z</time>
      </trkpt>
      <trkpt lat="44.37704" lon="5.79217">
        <ele>1165.764</ele>
        <time>2022-03-22T12:56:18Z</time>
      </trkpt>
      <trkpt lat="44.37703" lon="5.79217">
        <ele>1165.464</ele>
        <time>2022-03-22T12:56:43Z</time>
      </trkpt>
      <trkpt lat="44.37703" lon="5.79214">
        <ele>1165.064</ele>
        <time>2022-03-22T12:56:44Z</time>
      </trkpt>
      <trkpt lat="44.37702" lon="5.79212">
        <ele>1165.764</ele>
        <time>2022-03-22T12:56:47Z</time>
      </trkpt>
      <trkpt lat="44.37702" lon="5.79211">
        <ele>1165.964</ele>
        <time>2022-03-22T12:56:48Z</time>
      </trkpt>
      <trkpt lat="44.37702" lon="5.79211">
        <ele>1166.064</ele>
        <time>2022-03-22T12:56:49Z</time>
      </trkpt>
      <trkpt lat="44.37702" lon="5.79209">
        <ele>1166.564</ele>
        <time>2022-03-22T12:56:51Z</time>
      </trkpt>
      <trkpt lat="44.37701" lon="5.79208">
        <ele>1167.164</ele>
        <time>2022-03-22T12:56:53Z</time>
      </trkpt>
      <trkpt lat="44.37701" lon="5.79206">
        <ele>1167.564</ele>
        <time>2022-03-22T12:56:55Z</time>
      </trkpt>
      <trkpt lat="44.37701" lon="5.79204">
        <ele>1167.864</ele>
        <time>2022-03-22T12:56:57Z</time>
      </trkpt>
      <trkpt lat="44.37701" lon="5.79201">
        <ele>1167.964</ele>
        <time>2022-03-22T12:56:59Z</time>
      </trkpt>
      <trkpt lat="44.377" lon="5.79199">
        <ele>1168.064</ele>
        <time>2022-03-22T12:57:01Z</time>
      </trkpt>
      <trkpt lat="44.377" lon="5.79197">
        <ele>1168.264</ele>
        <time>2022-03-22T12:57:03Z</time>
      </trkpt>
      <trkpt lat="44.37699" lon="5.79196">
        <ele>1168.664</ele>
        <time>2022-03-22T12:57:05Z</time>
      </trkpt>
      <trkpt lat="44.37699" lon="5.79194">
        <ele>1168.864</ele>
        <time>2022-03-22T12:57:07Z</time>
      </trkpt>
      <trkpt lat="44.37698" lon="5.79193">
        <ele>1169.164</ele>
        <time>2022-03-22T12:57:09Z</time>
      </trkpt>
      <trkpt lat="44.37698" lon="5.79192">
        <ele>1169.364</ele>
        <time>2022-03-22T12:57:11Z</time>
      </trkpt>
      <trkpt lat="44.37698" lon="5.7919">
        <ele>1169.864</ele>
        <time>2022-03-22T12:57:13Z</time>
      </trkpt>
      <trkpt lat="44.37697" lon="5.79188">
        <ele>1170.464</ele>
        <time>2022-03-22T12:57:15Z</time>
      </trkpt>
      <trkpt lat="44.37697" lon="5.79186">
        <ele>1170.564</ele>
        <time>2022-03-22T12:57:17Z</time>
      </trkpt>
      <trkpt lat="44.37697" lon="5.79184">
        <ele>1170.864</ele>
        <time>2022-03-22T12:57:19Z</time>
      </trkpt>
      <trkpt lat="44.37697" lon="5.79182">
        <ele>1171.264</ele>
        <time>2022-03-22T12:57:20Z</time>
      </trkpt>
      <trkpt lat="44.37697" lon="5.79181">
        <ele>1171.664</ele>
        <time>2022-03-22T12:57:21Z</time>
      </trkpt>
      <trkpt lat="44.37697" lon="5.7918">
        <ele>1171.864</ele>
        <time>2022-03-22T12:57:22Z</time>
      </trkpt>
      <trkpt lat="44.37696" lon="5.79177">
        <ele>1172.164</ele>
        <time>2022-03-22T12:57:24Z</time>
      </trkpt>
      <trkpt lat="44.37696" lon="5.79176">
        <ele>1172.464</ele>
        <time>2022-03-22T12:57:26Z</time>
      </trkpt>
      <trkpt lat="44.37696" lon="5.79174">
        <ele>1172.864</ele>
        <time>2022-03-22T12:57:28Z</time>
      </trkpt>
      <trkpt lat="44.37696" lon="5.79171">
        <ele>1173.264</ele>
        <time>2022-03-22T12:57:30Z</time>
      </trkpt>
      <trkpt lat="44.37696" lon="5.79169">
        <ele>1173.564</ele>
        <time>2022-03-22T12:57:31Z</time>
      </trkpt>
      <trkpt lat="44.37696" lon="5.79168">
        <ele>1173.664</ele>
        <time>2022-03-22T12:57:32Z</time>
      </trkpt>
      <trkpt lat="44.37696" lon="5.79166">
        <ele>1173.864</ele>
        <time>2022-03-22T12:57:33Z</time>
      </trkpt>
      <trkpt lat="44.37696" lon="5.79165">
        <ele>1173.764</ele>
        <time>2022-03-22T12:57:34Z</time>
      </trkpt>
      <trkpt lat="44.37696" lon="5.79163">
        <ele>1173.464</ele>
        <time>2022-03-22T12:57:36Z</time>
      </trkpt>
      <trkpt lat="44.37696" lon="5.7916">
        <ele>1173.164</ele>
        <time>2022-03-22T12:57:38Z</time>
      </trkpt>
      <trkpt lat="44.37696" lon="5.79159">
        <ele>1172.964</ele>
        <time>2022-03-22T12:57:39Z</time>
      </trkpt>
      <trkpt lat="44.37697" lon="5.79158">
        <ele>1172.964</ele>
        <time>2022-03-22T12:57:40Z</time>
      </trkpt>
      <trkpt lat="44.37697" lon="5.79155">
        <ele>1172.764</ele>
        <time>2022-03-22T12:57:42Z</time>
      </trkpt>
      <trkpt lat="44.37697" lon="5.79154">
        <ele>1173.064</ele>
        <time>2022-03-22T12:57:44Z</time>
      </trkpt>
      <trkpt lat="44.37697" lon="5.79152">
        <ele>1173.564</ele>
        <time>2022-03-22T12:57:46Z</time>
      </trkpt>
      <trkpt lat="44.37696" lon="5.7915">
        <ele>1173.364</ele>
        <time>2022-03-22T12:57:48Z</time>
      </trkpt>
      <trkpt lat="44.37695" lon="5.79149">
        <ele>1173.164</ele>
        <time>2022-03-22T12:57:50Z</time>
      </trkpt>
      <trkpt lat="44.37694" lon="5.79147">
        <ele>1173.465</ele>
        <time>2022-03-22T12:57:52Z</time>
      </trkpt>
      <trkpt lat="44.37694" lon="5.79146">
        <ele>1173.465</ele>
        <time>2022-03-22T12:57:53Z</time>
      </trkpt>
      <trkpt lat="44.37693" lon="5.79145">
        <ele>1172.865</ele>
        <time>2022-03-22T12:57:55Z</time>
      </trkpt>
      <trkpt lat="44.37693" lon="5.79143">
        <ele>1173.165</ele>
        <time>2022-03-22T12:57:57Z</time>
      </trkpt>
      <trkpt lat="44.37692" lon="5.79141">
        <ele>1173.365</ele>
        <time>2022-03-22T12:57:58Z</time>
      </trkpt>
      <trkpt lat="44.37692" lon="5.79139">
        <ele>1173.765</ele>
        <time>2022-03-22T12:58:00Z</time>
      </trkpt>
      <trkpt lat="44.37692" lon="5.79136">
        <ele>1174.165</ele>
        <time>2022-03-22T12:58:02Z</time>
      </trkpt>
      <trkpt lat="44.37692" lon="5.79134">
        <ele>1174.165</ele>
        <time>2022-03-22T12:58:04Z</time>
      </trkpt>
      <trkpt lat="44.37692" lon="5.79132">
        <ele>1174.065</ele>
        <time>2022-03-22T12:58:06Z</time>
      </trkpt>
      <trkpt lat="44.37692" lon="5.7913">
        <ele>1173.965</ele>
        <time>2022-03-22T12:58:08Z</time>
      </trkpt>
      <trkpt lat="44.37692" lon="5.79128">
        <ele>1173.965</ele>
        <time>2022-03-22T12:58:09Z</time>
      </trkpt>
      <trkpt lat="44.37692" lon="5.79126">
        <ele>1174.065</ele>
        <time>2022-03-22T12:58:10Z</time>
      </trkpt>
      <trkpt lat="44.37692" lon="5.79125">
        <ele>1174.265</ele>
        <time>2022-03-22T12:58:11Z</time>
      </trkpt>
      <trkpt lat="44.37692" lon="5.79124">
        <ele>1174.565</ele>
        <time>2022-03-22T12:58:13Z</time>
      </trkpt>
      <trkpt lat="44.37691" lon="5.79123">
        <ele>1174.265</ele>
        <time>2022-03-22T12:58:17Z</time>
      </trkpt>
      <trkpt lat="44.37691" lon="5.79123">
        <ele>1174.165</ele>
        <time>2022-03-22T12:58:18Z</time>
      </trkpt>
      <trkpt lat="44.37692" lon="5.79123">
        <ele>1173.965</ele>
        <time>2022-03-22T12:58:19Z</time>
      </trkpt>
      <trkpt lat="44.37692" lon="5.79122">
        <ele>1173.765</ele>
        <time>2022-03-22T12:58:57Z</time>
      </trkpt>
      <trkpt lat="44.37692" lon="5.79119">
        <ele>1174.165</ele>
        <time>2022-03-22T12:58:58Z</time>
      </trkpt>
      <trkpt lat="44.37692" lon="5.79118">
        <ele>1174.565</ele>
        <time>2022-03-22T12:58:59Z</time>
      </trkpt>
      <trkpt lat="44.37692" lon="5.79116">
        <ele>1174.965</ele>
        <time>2022-03-22T12:59:00Z</time>
      </trkpt>
      <trkpt lat="44.37692" lon="5.79115">
        <ele>1175.265</ele>
        <time>2022-03-22T12:59:01Z</time>
      </trkpt>
      <trkpt lat="44.37692" lon="5.79113">
        <ele>1175.665</ele>
        <time>2022-03-22T12:59:02Z</time>
      </trkpt>
      <trkpt lat="44.37692" lon="5.79112">
        <ele>1175.965</ele>
        <time>2022-03-22T12:59:03Z</time>
      </trkpt>
      <trkpt lat="44.37691" lon="5.7911">
        <ele>1175.765</ele>
        <time>2022-03-22T12:59:05Z</time>
      </trkpt>
      <trkpt lat="44.37691" lon="5.79108">
        <ele>1176.065</ele>
        <time>2022-03-22T12:59:07Z</time>
      </trkpt>
      <trkpt lat="44.37691" lon="5.79106">
        <ele>1176.065</ele>
        <time>2022-03-22T12:59:09Z</time>
      </trkpt>
      <trkpt lat="44.37691" lon="5.79104">
        <ele>1176.165</ele>
        <time>2022-03-22T12:59:10Z</time>
      </trkpt>
      <trkpt lat="44.37692" lon="5.79103">
        <ele>1176.065</ele>
        <time>2022-03-22T12:59:12Z</time>
      </trkpt>
      <trkpt lat="44.37692" lon="5.79101">
        <ele>1175.565</ele>
        <time>2022-03-22T12:59:14Z</time>
      </trkpt>
      <trkpt lat="44.37692" lon="5.79099">
        <ele>1175.065</ele>
        <time>2022-03-22T12:59:16Z</time>
      </trkpt>
      <trkpt lat="44.37692" lon="5.79098">
        <ele>1174.965</ele>
        <time>2022-03-22T12:59:17Z</time>
      </trkpt>
      <trkpt lat="44.37692" lon="5.79096">
        <ele>1174.665</ele>
        <time>2022-03-22T12:59:18Z</time>
      </trkpt>
      <trkpt lat="44.37692" lon="5.79095">
        <ele>1174.565</ele>
        <time>2022-03-22T12:59:19Z</time>
      </trkpt>
      <trkpt lat="44.37692" lon="5.79093">
        <ele>1174.265</ele>
        <time>2022-03-22T12:59:21Z</time>
      </trkpt>
      <trkpt lat="44.37692" lon="5.79092">
        <ele>1174.065</ele>
        <time>2022-03-22T12:59:22Z</time>
      </trkpt>
      <trkpt lat="44.37692" lon="5.79089">
        <ele>1174.265</ele>
        <time>2022-03-22T12:59:24Z</time>
      </trkpt>
      <trkpt lat="44.37692" lon="5.79088">
        <ele>1174.265</ele>
        <time>2022-03-22T12:59:25Z</time>
      </trkpt>
      <trkpt lat="44.37692" lon="5.79086">
        <ele>1174.565</ele>
        <time>2022-03-22T12:59:27Z</time>
      </trkpt>
      <trkpt lat="44.37691" lon="5.79084">
        <ele>1174.665</ele>
        <time>2022-03-22T12:59:29Z</time>
      </trkpt>
      <trkpt lat="44.37691" lon="5.79082">
        <ele>1174.765</ele>
        <time>2022-03-22T12:59:31Z</time>
      </trkpt>
      <trkpt lat="44.3769" lon="5.7908">
        <ele>1174.465</ele>
        <time>2022-03-22T12:59:33Z</time>
      </trkpt>
      <trkpt lat="44.3769" lon="5.79078">
        <ele>1174.665</ele>
        <time>2022-03-22T12:59:35Z</time>
      </trkpt>
      <trkpt lat="44.3769" lon="5.79076">
        <ele>1175.065</ele>
        <time>2022-03-22T12:59:37Z</time>
      </trkpt>
      <trkpt lat="44.3769" lon="5.79074">
        <ele>1175.165</ele>
        <time>2022-03-22T12:59:39Z</time>
      </trkpt>
      <trkpt lat="44.37689" lon="5.79071">
        <ele>1175.365</ele>
        <time>2022-03-22T12:59:41Z</time>
      </trkpt>
      <trkpt lat="44.3769" lon="5.79068">
        <ele>1175.365</ele>
        <time>2022-03-22T12:59:43Z</time>
      </trkpt>
      <trkpt lat="44.3769" lon="5.79066">
        <ele>1175.365</ele>
        <time>2022-03-22T12:59:45Z</time>
      </trkpt>
      <trkpt lat="44.3769" lon="5.79064">
        <ele>1175.365</ele>
        <time>2022-03-22T12:59:46Z</time>
      </trkpt>
      <trkpt lat="44.3769" lon="5.79063">
        <ele>1175.465</ele>
        <time>2022-03-22T12:59:47Z</time>
      </trkpt>
      <trkpt lat="44.3769" lon="5.79061">
        <ele>1175.465</ele>
        <time>2022-03-22T12:59:48Z</time>
      </trkpt>
      <trkpt lat="44.37689" lon="5.7906">
        <ele>1175.565</ele>
        <time>2022-03-22T12:59:49Z</time>
      </trkpt>
      <trkpt lat="44.37689" lon="5.79058">
        <ele>1175.766</ele>
        <time>2022-03-22T12:59:50Z</time>
      </trkpt>
      <trkpt lat="44.37689" lon="5.79057">
        <ele>1176.066</ele>
        <time>2022-03-22T12:59:51Z</time>
      </trkpt>
      <trkpt lat="44.37689" lon="5.79055">
        <ele>1176.366</ele>
        <time>2022-03-22T12:59:53Z</time>
      </trkpt>
      <trkpt lat="44.37689" lon="5.79052">
        <ele>1176.566</ele>
        <time>2022-03-22T12:59:55Z</time>
      </trkpt>
      <trkpt lat="44.37688" lon="5.7905">
        <ele>1176.666</ele>
        <time>2022-03-22T12:59:57Z</time>
      </trkpt>
      <trkpt lat="44.37688" lon="5.79048">
        <ele>1177.066</ele>
        <time>2022-03-22T12:59:59Z</time>
      </trkpt>
      <trkpt lat="44.37688" lon="5.79046">
        <ele>1177.366</ele>
        <time>2022-03-22T13:00:01Z</time>
      </trkpt>
      <trkpt lat="44.37688" lon="5.79043">
        <ele>1177.366</ele>
        <time>2022-03-22T13:00:03Z</time>
      </trkpt>
      <trkpt lat="44.37688" lon="5.79041">
        <ele>1177.566</ele>
        <time>2022-03-22T13:00:05Z</time>
      </trkpt>
      <trkpt lat="44.37687" lon="5.7904">
        <ele>1177.566</ele>
        <time>2022-03-22T13:00:06Z</time>
      </trkpt>
      <trkpt lat="44.37687" lon="5.79037">
        <ele>1177.466</ele>
        <time>2022-03-22T13:00:08Z</time>
      </trkpt>
      <trkpt lat="44.37687" lon="5.79036">
        <ele>1177.466</ele>
        <time>2022-03-22T13:00:09Z</time>
      </trkpt>
      <trkpt lat="44.37687" lon="5.79034">
        <ele>1177.366</ele>
        <time>2022-03-22T13:00:11Z</time>
      </trkpt>
      <trkpt lat="44.37687" lon="5.79032">
        <ele>1177.066</ele>
        <time>2022-03-22T13:00:13Z</time>
      </trkpt>
      <trkpt lat="44.37688" lon="5.7903">
        <ele>1176.466</ele>
        <time>2022-03-22T13:00:15Z</time>
      </trkpt>
      <trkpt lat="44.37689" lon="5.79028">
        <ele>1175.966</ele>
        <time>2022-03-22T13:00:17Z</time>
      </trkpt>
      <trkpt lat="44.37689" lon="5.79026">
        <ele>1175.366</ele>
        <time>2022-03-22T13:00:20Z</time>
      </trkpt>
      <trkpt lat="44.37689" lon="5.79025">
        <ele>1175.166</ele>
        <time>2022-03-22T13:00:22Z</time>
      </trkpt>
      <trkpt lat="44.37689" lon="5.79022">
        <ele>1175.166</ele>
        <time>2022-03-22T13:00:24Z</time>
      </trkpt>
      <trkpt lat="44.37689" lon="5.7902">
        <ele>1174.966</ele>
        <time>2022-03-22T13:00:26Z</time>
      </trkpt>
      <trkpt lat="44.37689" lon="5.79019">
        <ele>1175.066</ele>
        <time>2022-03-22T13:00:28Z</time>
      </trkpt>
      <trkpt lat="44.37688" lon="5.79017">
        <ele>1174.866</ele>
        <time>2022-03-22T13:00:30Z</time>
      </trkpt>
      <trkpt lat="44.37688" lon="5.79015">
        <ele>1174.966</ele>
        <time>2022-03-22T13:00:32Z</time>
      </trkpt>
      <trkpt lat="44.37688" lon="5.79013">
        <ele>1174.466</ele>
        <time>2022-03-22T13:00:36Z</time>
      </trkpt>
      <trkpt lat="44.37688" lon="5.79013">
        <ele>1174.566</ele>
        <time>2022-03-22T13:00:38Z</time>
      </trkpt>
      <trkpt lat="44.37688" lon="5.79013">
        <ele>1174.466</ele>
        <time>2022-03-22T13:00:39Z</time>
      </trkpt>
      <trkpt lat="44.37689" lon="5.79013">
        <ele>1173.966</ele>
        <time>2022-03-22T13:00:44Z</time>
      </trkpt>
      <trkpt lat="44.37689" lon="5.79011">
        <ele>1173.866</ele>
        <time>2022-03-22T13:00:45Z</time>
      </trkpt>
      <trkpt lat="44.37689" lon="5.7901">
        <ele>1173.766</ele>
        <time>2022-03-22T13:00:46Z</time>
      </trkpt>
      <trkpt lat="44.37689" lon="5.79008">
        <ele>1173.866</ele>
        <time>2022-03-22T13:00:47Z</time>
      </trkpt>
      <trkpt lat="44.3769" lon="5.79006">
        <ele>1173.766</ele>
        <time>2022-03-22T13:00:49Z</time>
      </trkpt>
      <trkpt lat="44.3769" lon="5.79003">
        <ele>1173.866</ele>
        <time>2022-03-22T13:00:51Z</time>
      </trkpt>
      <trkpt lat="44.37689" lon="5.79001">
        <ele>1173.866</ele>
        <time>2022-03-22T13:00:53Z</time>
      </trkpt>
      <trkpt lat="44.37689" lon="5.78999">
        <ele>1173.966</ele>
        <time>2022-03-22T13:00:55Z</time>
      </trkpt>
      <trkpt lat="44.37688" lon="5.78997">
        <ele>1174.366</ele>
        <time>2022-03-22T13:00:57Z</time>
      </trkpt>
      <trkpt lat="44.37688" lon="5.78995">
        <ele>1174.366</ele>
        <time>2022-03-22T13:00:58Z</time>
      </trkpt>
      <trkpt lat="44.37688" lon="5.78994">
        <ele>1174.366</ele>
        <time>2022-03-22T13:00:59Z</time>
      </trkpt>
      <trkpt lat="44.37688" lon="5.78992">
        <ele>1174.566</ele>
        <time>2022-03-22T13:01:01Z</time>
      </trkpt>
      <trkpt lat="44.37688" lon="5.78989">
        <ele>1174.966</ele>
        <time>2022-03-22T13:01:03Z</time>
      </trkpt>
      <trkpt lat="44.37687" lon="5.78988">
        <ele>1175.366</ele>
        <time>2022-03-22T13:01:05Z</time>
      </trkpt>
      <trkpt lat="44.37687" lon="5.78987">
        <ele>1175.366</ele>
        <time>2022-03-22T13:01:06Z</time>
      </trkpt>
      <trkpt lat="44.37687" lon="5.78985">
        <ele>1175.466</ele>
        <time>2022-03-22T13:01:08Z</time>
      </trkpt>
      <trkpt lat="44.37686" lon="5.78983">
        <ele>1175.666</ele>
        <time>2022-03-22T13:01:11Z</time>
      </trkpt>
      <trkpt lat="44.37686" lon="5.78982">
        <ele>1175.666</ele>
        <time>2022-03-22T13:01:12Z</time>
      </trkpt>
      <trkpt lat="44.37685" lon="5.7898">
        <ele>1175.766</ele>
        <time>2022-03-22T13:01:14Z</time>
      </trkpt>
      <trkpt lat="44.37686" lon="5.78979">
        <ele>1175.666</ele>
        <time>2022-03-22T13:01:15Z</time>
      </trkpt>
      <trkpt lat="44.37686" lon="5.78977">
        <ele>1175.566</ele>
        <time>2022-03-22T13:01:16Z</time>
      </trkpt>
      <trkpt lat="44.37686" lon="5.78976">
        <ele>1175.666</ele>
        <time>2022-03-22T13:01:17Z</time>
      </trkpt>
      <trkpt lat="44.37685" lon="5.78975">
        <ele>1175.566</ele>
        <time>2022-03-22T13:01:18Z</time>
      </trkpt>
      <trkpt lat="44.37685" lon="5.78972">
        <ele>1175.966</ele>
        <time>2022-03-22T13:01:20Z</time>
      </trkpt>
      <trkpt lat="44.37685" lon="5.78971">
        <ele>1176.366</ele>
        <time>2022-03-22T13:01:21Z</time>
      </trkpt>
      <trkpt lat="44.37685" lon="5.78969">
        <ele>1176.466</ele>
        <time>2022-03-22T13:01:22Z</time>
      </trkpt>
      <trkpt lat="44.37685" lon="5.78968">
        <ele>1176.767</ele>
        <time>2022-03-22T13:01:23Z</time>
      </trkpt>
      <trkpt lat="44.37685" lon="5.78966">
        <ele>1176.967</ele>
        <time>2022-03-22T13:01:24Z</time>
      </trkpt>
      <trkpt lat="44.37685" lon="5.78965">
        <ele>1177.267</ele>
        <time>2022-03-22T13:01:25Z</time>
      </trkpt>
      <trkpt lat="44.37685" lon="5.78963">
        <ele>1177.567</ele>
        <time>2022-03-22T13:01:26Z</time>
      </trkpt>
      <trkpt lat="44.37685" lon="5.78962">
        <ele>1177.867</ele>
        <time>2022-03-22T13:01:27Z</time>
      </trkpt>
      <trkpt lat="44.37685" lon="5.7896">
        <ele>1177.967</ele>
        <time>2022-03-22T13:01:28Z</time>
      </trkpt>
      <trkpt lat="44.37684" lon="5.78959">
        <ele>1177.867</ele>
        <time>2022-03-22T13:01:29Z</time>
      </trkpt>
      <trkpt lat="44.37684" lon="5.78957">
        <ele>1177.767</ele>
        <time>2022-03-22T13:01:30Z</time>
      </trkpt>
      <trkpt lat="44.37684" lon="5.78956">
        <ele>1177.667</ele>
        <time>2022-03-22T13:01:31Z</time>
      </trkpt>
      <trkpt lat="44.37684" lon="5.78955">
        <ele>1177.667</ele>
        <time>2022-03-22T13:01:32Z</time>
      </trkpt>
      <trkpt lat="44.37684" lon="5.78953">
        <ele>1177.567</ele>
        <time>2022-03-22T13:01:33Z</time>
      </trkpt>
      <trkpt lat="44.37684" lon="5.78952">
        <ele>1177.267</ele>
        <time>2022-03-22T13:01:34Z</time>
      </trkpt>
      <trkpt lat="44.37684" lon="5.78951">
        <ele>1177.367</ele>
        <time>2022-03-22T13:01:35Z</time>
      </trkpt>
      <trkpt lat="44.37684" lon="5.78948">
        <ele>1177.367</ele>
        <time>2022-03-22T13:01:37Z</time>
      </trkpt>
      <trkpt lat="44.37683" lon="5.78947">
        <ele>1176.867</ele>
        <time>2022-03-22T13:01:39Z</time>
      </trkpt>
      <trkpt lat="44.37682" lon="5.78945">
        <ele>1176.667</ele>
        <time>2022-03-22T13:01:41Z</time>
      </trkpt>
      <trkpt lat="44.37682" lon="5.78944">
        <ele>1176.667</ele>
        <time>2022-03-22T13:01:43Z</time>
      </trkpt>
      <trkpt lat="44.37681" lon="5.78942">
        <ele>1176.867</ele>
        <time>2022-03-22T13:01:45Z</time>
      </trkpt>
      <trkpt lat="44.37681" lon="5.7894">
        <ele>1177.067</ele>
        <time>2022-03-22T13:01:47Z</time>
      </trkpt>
      <trkpt lat="44.3768" lon="5.78938">
        <ele>1177.367</ele>
        <time>2022-03-22T13:01:49Z</time>
      </trkpt>
      <trkpt lat="44.37679" lon="5.78935">
        <ele>1177.567</ele>
        <time>2022-03-22T13:01:51Z</time>
      </trkpt>
      <trkpt lat="44.37679" lon="5.78934">
        <ele>1177.367</ele>
        <time>2022-03-22T13:01:53Z</time>
      </trkpt>
      <trkpt lat="44.37678" lon="5.78932">
        <ele>1177.367</ele>
        <time>2022-03-22T13:01:55Z</time>
      </trkpt>
      <trkpt lat="44.37678" lon="5.78931">
        <ele>1176.767</ele>
        <time>2022-03-22T13:01:59Z</time>
      </trkpt>
      <trkpt lat="44.37678" lon="5.7893">
        <ele>1176.867</ele>
        <time>2022-03-22T13:02:01Z</time>
      </trkpt>
      <trkpt lat="44.37678" lon="5.78927">
        <ele>1177.067</ele>
        <time>2022-03-22T13:02:03Z</time>
      </trkpt>
      <trkpt lat="44.37678" lon="5.78926">
        <ele>1177.067</ele>
        <time>2022-03-22T13:02:05Z</time>
      </trkpt>
      <trkpt lat="44.37677" lon="5.78924">
        <ele>1177.067</ele>
        <time>2022-03-22T13:02:07Z</time>
      </trkpt>
      <trkpt lat="44.37677" lon="5.78922">
        <ele>1177.167</ele>
        <time>2022-03-22T13:02:09Z</time>
      </trkpt>
      <trkpt lat="44.37677" lon="5.78921">
        <ele>1177.467</ele>
        <time>2022-03-22T13:02:10Z</time>
      </trkpt>
      <trkpt lat="44.37677" lon="5.7892">
        <ele>1177.767</ele>
        <time>2022-03-22T13:02:12Z</time>
      </trkpt>
      <trkpt lat="44.37676" lon="5.78918">
        <ele>1178.267</ele>
        <time>2022-03-22T13:02:14Z</time>
      </trkpt>
      <trkpt lat="44.37676" lon="5.78917">
        <ele>1178.767</ele>
        <time>2022-03-22T13:02:16Z</time>
      </trkpt>
      <trkpt lat="44.37675" lon="5.78914">
        <ele>1179.267</ele>
        <time>2022-03-22T13:02:18Z</time>
      </trkpt>
      <trkpt lat="44.37675" lon="5.78912">
        <ele>1179.367</ele>
        <time>2022-03-22T13:02:20Z</time>
      </trkpt>
      <trkpt lat="44.37675" lon="5.7891">
        <ele>1179.867</ele>
        <time>2022-03-22T13:02:22Z</time>
      </trkpt>
      <trkpt lat="44.37675" lon="5.78908">
        <ele>1180.267</ele>
        <time>2022-03-22T13:02:24Z</time>
      </trkpt>
      <trkpt lat="44.37675" lon="5.78906">
        <ele>1180.667</ele>
        <time>2022-03-22T13:02:25Z</time>
      </trkpt>
      <trkpt lat="44.37675" lon="5.78904">
        <ele>1181.067</ele>
        <time>2022-03-22T13:02:27Z</time>
      </trkpt>
      <trkpt lat="44.37675" lon="5.78902">
        <ele>1181.467</ele>
        <time>2022-03-22T13:02:29Z</time>
      </trkpt>
      <trkpt lat="44.37675" lon="5.789">
        <ele>1182.167</ele>
        <time>2022-03-22T13:02:31Z</time>
      </trkpt>
      <trkpt lat="44.37674" lon="5.78898">
        <ele>1182.567</ele>
        <time>2022-03-22T13:02:33Z</time>
      </trkpt>
      <trkpt lat="44.37674" lon="5.78896">
        <ele>1182.467</ele>
        <time>2022-03-22T13:02:35Z</time>
      </trkpt>
      <trkpt lat="44.37674" lon="5.78894">
        <ele>1182.367</ele>
        <time>2022-03-22T13:02:36Z</time>
      </trkpt>
      <trkpt lat="44.37674" lon="5.78893">
        <ele>1182.268</ele>
        <time>2022-03-22T13:02:38Z</time>
      </trkpt>
      <trkpt lat="44.37673" lon="5.78891">
        <ele>1182.568</ele>
        <time>2022-03-22T13:02:40Z</time>
      </trkpt>
      <trkpt lat="44.37673" lon="5.7889">
        <ele>1183.168</ele>
        <time>2022-03-22T13:02:43Z</time>
      </trkpt>
      <trkpt lat="44.37672" lon="5.78889">
        <ele>1183.268</ele>
        <time>2022-03-22T13:02:45Z</time>
      </trkpt>
      <trkpt lat="44.37672" lon="5.78887">
        <ele>1183.368</ele>
        <time>2022-03-22T13:02:47Z</time>
      </trkpt>
      <trkpt lat="44.37671" lon="5.78885">
        <ele>1183.268</ele>
        <time>2022-03-22T13:02:49Z</time>
      </trkpt>
      <trkpt lat="44.3767" lon="5.78885">
        <ele>1182.468</ele>
        <time>2022-03-22T13:02:53Z</time>
      </trkpt>
      <trkpt lat="44.3767" lon="5.78885">
        <ele>1182.168</ele>
        <time>2022-03-22T13:02:54Z</time>
      </trkpt>
      <trkpt lat="44.3767" lon="5.78885">
        <ele>1181.768</ele>
        <time>2022-03-22T13:02:55Z</time>
      </trkpt>
      <trkpt lat="44.3767" lon="5.78885">
        <ele>1181.068</ele>
        <time>2022-03-22T13:03:59Z</time>
      </trkpt>
      <trkpt lat="44.3767" lon="5.78884">
        <ele>1178.368</ele>
        <time>2022-03-22T13:04:00Z</time>
      </trkpt>
      <trkpt lat="44.37671" lon="5.78882">
        <ele>1178.568</ele>
        <time>2022-03-22T13:04:02Z</time>
      </trkpt>
      <trkpt lat="44.37671" lon="5.78881">
        <ele>1178.868</ele>
        <time>2022-03-22T13:04:04Z</time>
      </trkpt>
      <trkpt lat="44.37671" lon="5.7888">
        <ele>1179.068</ele>
        <time>2022-03-22T13:04:05Z</time>
      </trkpt>
      <trkpt lat="44.37672" lon="5.78878">
        <ele>1179.468</ele>
        <time>2022-03-22T13:04:07Z</time>
      </trkpt>
      <trkpt lat="44.37671" lon="5.78876">
        <ele>1179.568</ele>
        <time>2022-03-22T13:04:09Z</time>
      </trkpt>
      <trkpt lat="44.37671" lon="5.78876">
        <ele>1179.568</ele>
        <time>2022-03-22T13:04:13Z</time>
      </trkpt>
      <trkpt lat="44.37671" lon="5.78876">
        <ele>1179.568</ele>
        <time>2022-03-22T13:04:14Z</time>
      </trkpt>
      <trkpt lat="44.37672" lon="5.78877">
        <ele>1179.368</ele>
        <time>2022-03-22T13:04:41Z</time>
      </trkpt>
      <trkpt lat="44.37671" lon="5.78875">
        <ele>1180.968</ele>
        <time>2022-03-22T13:04:42Z</time>
      </trkpt>
      <trkpt lat="44.37671" lon="5.78874">
        <ele>1180.668</ele>
        <time>2022-03-22T13:04:44Z</time>
      </trkpt>
      <trkpt lat="44.37672" lon="5.78872">
        <ele>1180.568</ele>
        <time>2022-03-22T13:04:46Z</time>
      </trkpt>
      <trkpt lat="44.37672" lon="5.78871">
        <ele>1180.568</ele>
        <time>2022-03-22T13:04:47Z</time>
      </trkpt>
      <trkpt lat="44.37672" lon="5.7887">
        <ele>1180.768</ele>
        <time>2022-03-22T13:04:48Z</time>
      </trkpt>
      <trkpt lat="44.37672" lon="5.78868">
        <ele>1180.968</ele>
        <time>2022-03-22T13:04:49Z</time>
      </trkpt>
      <trkpt lat="44.37672" lon="5.78866">
        <ele>1180.968</ele>
        <time>2022-03-22T13:04:51Z</time>
      </trkpt>
      <trkpt lat="44.37673" lon="5.78865">
        <ele>1180.568</ele>
        <time>2022-03-22T13:04:53Z</time>
      </trkpt>
      <trkpt lat="44.37673" lon="5.78862">
        <ele>1180.468</ele>
        <time>2022-03-22T13:04:55Z</time>
      </trkpt>
      <trkpt lat="44.37673" lon="5.78861">
        <ele>1180.768</ele>
        <time>2022-03-22T13:04:57Z</time>
      </trkpt>
      <trkpt lat="44.37673" lon="5.7886">
        <ele>1181.168</ele>
        <time>2022-03-22T13:05:01Z</time>
      </trkpt>
      <trkpt lat="44.37673" lon="5.7886">
        <ele>1181.268</ele>
        <time>2022-03-22T13:05:02Z</time>
      </trkpt>
      <trkpt lat="44.37673" lon="5.7886">
        <ele>1181.068</ele>
        <time>2022-03-22T13:05:06Z</time>
      </trkpt>
      <trkpt lat="44.37674" lon="5.78861">
        <ele>1180.668</ele>
        <time>2022-03-22T13:05:07Z</time>
      </trkpt>
      <trkpt lat="44.37674" lon="5.78858">
        <ele>1180.268</ele>
        <time>2022-03-22T13:05:10Z</time>
      </trkpt>
      <trkpt lat="44.37674" lon="5.78857">
        <ele>1180.468</ele>
        <time>2022-03-22T13:05:11Z</time>
      </trkpt>
      <trkpt lat="44.37674" lon="5.78855">
        <ele>1180.368</ele>
        <time>2022-03-22T13:05:12Z</time>
      </trkpt>
      <trkpt lat="44.37674" lon="5.78854">
        <ele>1180.268</ele>
        <time>2022-03-22T13:05:13Z</time>
      </trkpt>
      <trkpt lat="44.37675" lon="5.78852">
        <ele>1179.668</ele>
        <time>2022-03-22T13:05:15Z</time>
      </trkpt>
      <trkpt lat="44.37675" lon="5.7885">
        <ele>1179.268</ele>
        <time>2022-03-22T13:05:17Z</time>
      </trkpt>
      <trkpt lat="44.37675" lon="5.78847">
        <ele>1178.968</ele>
        <time>2022-03-22T13:05:19Z</time>
      </trkpt>
      <trkpt lat="44.37675" lon="5.78846">
        <ele>1178.968</ele>
        <time>2022-03-22T13:05:20Z</time>
      </trkpt>
      <trkpt lat="44.37675" lon="5.78844">
        <ele>1179.068</ele>
        <time>2022-03-22T13:05:22Z</time>
      </trkpt>
      <trkpt lat="44.37675" lon="5.78842">
        <ele>1179.068</ele>
        <time>2022-03-22T13:05:24Z</time>
      </trkpt>
      <trkpt lat="44.37676" lon="5.78839">
        <ele>1178.768</ele>
        <time>2022-03-22T13:05:26Z</time>
      </trkpt>
      <trkpt lat="44.37676" lon="5.78838">
        <ele>1178.868</ele>
        <time>2022-03-22T13:05:27Z</time>
      </trkpt>
      <trkpt lat="44.37676" lon="5.78836">
        <ele>1178.668</ele>
        <time>2022-03-22T13:05:29Z</time>
      </trkpt>
      <trkpt lat="44.37676" lon="5.78833">
        <ele>1178.468</ele>
        <time>2022-03-22T13:05:31Z</time>
      </trkpt>
      <trkpt lat="44.37675" lon="5.78831">
        <ele>1178.168</ele>
        <time>2022-03-22T13:05:33Z</time>
      </trkpt>
      <trkpt lat="44.37675" lon="5.78829">
        <ele>1178.068</ele>
        <time>2022-03-22T13:05:35Z</time>
      </trkpt>
      <trkpt lat="44.37675" lon="5.78827">
        <ele>1177.768</ele>
        <time>2022-03-22T13:05:37Z</time>
      </trkpt>
      <trkpt lat="44.37675" lon="5.78826">
        <ele>1177.868</ele>
        <time>2022-03-22T13:05:38Z</time>
      </trkpt>
      <trkpt lat="44.37676" lon="5.78824">
        <ele>1177.768</ele>
        <time>2022-03-22T13:05:40Z</time>
      </trkpt>
      <trkpt lat="44.37676" lon="5.78823">
        <ele>1177.768</ele>
        <time>2022-03-22T13:05:41Z</time>
      </trkpt>
      <trkpt lat="44.37677" lon="5.78821">
        <ele>1177.568</ele>
        <time>2022-03-22T13:05:43Z</time>
      </trkpt>
      <trkpt lat="44.37676" lon="5.78819">
        <ele>1177.768</ele>
        <time>2022-03-22T13:05:45Z</time>
      </trkpt>
      <trkpt lat="44.37677" lon="5.78816">
        <ele>1177.568</ele>
        <time>2022-03-22T13:05:47Z</time>
      </trkpt>
      <trkpt lat="44.37677" lon="5.78815">
        <ele>1177.468</ele>
        <time>2022-03-22T13:05:49Z</time>
      </trkpt>
      <trkpt lat="44.37677" lon="5.78813">
        <ele>1177.468</ele>
        <time>2022-03-22T13:05:54Z</time>
      </trkpt>
      <trkpt lat="44.37677" lon="5.78811">
        <ele>1177.168</ele>
        <time>2022-03-22T13:05:56Z</time>
      </trkpt>
      <trkpt lat="44.37678" lon="5.78809">
        <ele>1176.968</ele>
        <time>2022-03-22T13:05:58Z</time>
      </trkpt>
      <trkpt lat="44.37678" lon="5.78807">
        <ele>1177.068</ele>
        <time>2022-03-22T13:05:59Z</time>
      </trkpt>
      <trkpt lat="44.37678" lon="5.78806">
        <ele>1177.368</ele>
        <time>2022-03-22T13:06:00Z</time>
      </trkpt>
      <trkpt lat="44.37678" lon="5.78804">
        <ele>1177.168</ele>
        <time>2022-03-22T13:06:01Z</time>
      </trkpt>
      <trkpt lat="44.37678" lon="5.78803">
        <ele>1177.268</ele>
        <time>2022-03-22T13:06:02Z</time>
      </trkpt>
      <trkpt lat="44.37678" lon="5.788">
        <ele>1177.368</ele>
        <time>2022-03-22T13:06:04Z</time>
      </trkpt>
      <trkpt lat="44.37678" lon="5.78798">
        <ele>1177.368</ele>
        <time>2022-03-22T13:06:06Z</time>
      </trkpt>
      <trkpt lat="44.37677" lon="5.78796">
        <ele>1177.268</ele>
        <time>2022-03-22T13:06:08Z</time>
      </trkpt>
      <trkpt lat="44.37677" lon="5.78795">
        <ele>1177.368</ele>
        <time>2022-03-22T13:06:10Z</time>
      </trkpt>
      <trkpt lat="44.37676" lon="5.78793">
        <ele>1177.368</ele>
        <time>2022-03-22T13:06:12Z</time>
      </trkpt>
      <trkpt lat="44.37676" lon="5.78792">
        <ele>1177.468</ele>
        <time>2022-03-22T13:06:13Z</time>
      </trkpt>
      <trkpt lat="44.37676" lon="5.78789">
        <ele>1177.468</ele>
        <time>2022-03-22T13:06:15Z</time>
      </trkpt>
      <trkpt lat="44.37675" lon="5.78788">
        <ele>1177.369</ele>
        <time>2022-03-22T13:06:16Z</time>
      </trkpt>
      <trkpt lat="44.37676" lon="5.78786">
        <ele>1177.369</ele>
        <time>2022-03-22T13:06:17Z</time>
      </trkpt>
      <trkpt lat="44.37675" lon="5.78784">
        <ele>1177.169</ele>
        <time>2022-03-22T13:06:19Z</time>
      </trkpt>
      <trkpt lat="44.37675" lon="5.78782">
        <ele>1177.069</ele>
        <time>2022-03-22T13:06:20Z</time>
      </trkpt>
      <trkpt lat="44.37675" lon="5.7878">
        <ele>1176.969</ele>
        <time>2022-03-22T13:06:22Z</time>
      </trkpt>
      <trkpt lat="44.37675" lon="5.78778">
        <ele>1176.869</ele>
        <time>2022-03-22T13:06:24Z</time>
      </trkpt>
      <trkpt lat="44.37675" lon="5.78777">
        <ele>1176.869</ele>
        <time>2022-03-22T13:06:25Z</time>
      </trkpt>
      <trkpt lat="44.37675" lon="5.78775">
        <ele>1177.069</ele>
        <time>2022-03-22T13:06:27Z</time>
      </trkpt>
      <trkpt lat="44.37674" lon="5.78773">
        <ele>1176.969</ele>
        <time>2022-03-22T13:06:29Z</time>
      </trkpt>
      <trkpt lat="44.37674" lon="5.78771">
        <ele>1176.869</ele>
        <time>2022-03-22T13:06:31Z</time>
      </trkpt>
      <trkpt lat="44.37673" lon="5.78768">
        <ele>1176.569</ele>
        <time>2022-03-22T13:06:33Z</time>
      </trkpt>
      <trkpt lat="44.37673" lon="5.78766">
        <ele>1176.169</ele>
        <time>2022-03-22T13:06:35Z</time>
      </trkpt>
      <trkpt lat="44.37673" lon="5.78764">
        <ele>1175.969</ele>
        <time>2022-03-22T13:06:37Z</time>
      </trkpt>
      <trkpt lat="44.37673" lon="5.78762">
        <ele>1175.969</ele>
        <time>2022-03-22T13:06:38Z</time>
      </trkpt>
      <trkpt lat="44.37673" lon="5.7876">
        <ele>1175.769</ele>
        <time>2022-03-22T13:06:40Z</time>
      </trkpt>
      <trkpt lat="44.37673" lon="5.78758">
        <ele>1175.669</ele>
        <time>2022-03-22T13:06:41Z</time>
      </trkpt>
      <trkpt lat="44.37674" lon="5.78756">
        <ele>1175.369</ele>
        <time>2022-03-22T13:06:43Z</time>
      </trkpt>
      <trkpt lat="44.37674" lon="5.78755">
        <ele>1175.369</ele>
        <time>2022-03-22T13:06:44Z</time>
      </trkpt>
      <trkpt lat="44.37674" lon="5.78754">
        <ele>1175.169</ele>
        <time>2022-03-22T13:06:45Z</time>
      </trkpt>
      <trkpt lat="44.37674" lon="5.78752">
        <ele>1175.069</ele>
        <time>2022-03-22T13:06:46Z</time>
      </trkpt>
      <trkpt lat="44.37675" lon="5.78751">
        <ele>1174.669</ele>
        <time>2022-03-22T13:06:47Z</time>
      </trkpt>
      <trkpt lat="44.37675" lon="5.78749">
        <ele>1174.269</ele>
        <time>2022-03-22T13:06:48Z</time>
      </trkpt>
      <trkpt lat="44.37675" lon="5.78747">
        <ele>1173.869</ele>
        <time>2022-03-22T13:06:50Z</time>
      </trkpt>
      <trkpt lat="44.37675" lon="5.78745">
        <ele>1173.669</ele>
        <time>2022-03-22T13:06:52Z</time>
      </trkpt>
      <trkpt lat="44.37676" lon="5.78744">
        <ele>1173.569</ele>
        <time>2022-03-22T13:06:53Z</time>
      </trkpt>
      <trkpt lat="44.37676" lon="5.78742">
        <ele>1173.569</ele>
        <time>2022-03-22T13:06:55Z</time>
      </trkpt>
      <trkpt lat="44.37677" lon="5.7874">
        <ele>1173.269</ele>
        <time>2022-03-22T13:06:57Z</time>
      </trkpt>
      <trkpt lat="44.37678" lon="5.78738">
        <ele>1173.069</ele>
        <time>2022-03-22T13:06:59Z</time>
      </trkpt>
      <trkpt lat="44.37678" lon="5.78735">
        <ele>1172.669</ele>
        <time>2022-03-22T13:07:01Z</time>
      </trkpt>
      <trkpt lat="44.37679" lon="5.78734">
        <ele>1172.269</ele>
        <time>2022-03-22T13:07:03Z</time>
      </trkpt>
      <trkpt lat="44.3768" lon="5.78732">
        <ele>1172.369</ele>
        <time>2022-03-22T13:07:04Z</time>
      </trkpt>
      <trkpt lat="44.3768" lon="5.78731">
        <ele>1172.469</ele>
        <time>2022-03-22T13:07:05Z</time>
      </trkpt>
      <trkpt lat="44.3768" lon="5.78728">
        <ele>1172.269</ele>
        <time>2022-03-22T13:07:07Z</time>
      </trkpt>
      <trkpt lat="44.3768" lon="5.78726">
        <ele>1172.169</ele>
        <time>2022-03-22T13:07:08Z</time>
      </trkpt>
      <trkpt lat="44.3768" lon="5.78723">
        <ele>1172.169</ele>
        <time>2022-03-22T13:07:10Z</time>
      </trkpt>
      <trkpt lat="44.37681" lon="5.78722">
        <ele>1172.369</ele>
        <time>2022-03-22T13:07:11Z</time>
      </trkpt>
      <trkpt lat="44.37681" lon="5.7872">
        <ele>1172.369</ele>
        <time>2022-03-22T13:07:12Z</time>
      </trkpt>
      <trkpt lat="44.37681" lon="5.78719">
        <ele>1172.669</ele>
        <time>2022-03-22T13:07:13Z</time>
      </trkpt>
      <trkpt lat="44.37681" lon="5.78717">
        <ele>1172.769</ele>
        <time>2022-03-22T13:07:14Z</time>
      </trkpt>
      <trkpt lat="44.37681" lon="5.78715">
        <ele>1172.669</ele>
        <time>2022-03-22T13:07:16Z</time>
      </trkpt>
      <trkpt lat="44.37681" lon="5.78714">
        <ele>1172.169</ele>
        <time>2022-03-22T13:07:18Z</time>
      </trkpt>
      <trkpt lat="44.37682" lon="5.78712">
        <ele>1171.869</ele>
        <time>2022-03-22T13:07:19Z</time>
      </trkpt>
      <trkpt lat="44.37683" lon="5.78711">
        <ele>1171.469</ele>
        <time>2022-03-22T13:07:21Z</time>
      </trkpt>
      <trkpt lat="44.37683" lon="5.78709">
        <ele>1171.469</ele>
        <time>2022-03-22T13:07:22Z</time>
      </trkpt>
      <trkpt lat="44.37683" lon="5.78708">
        <ele>1171.369</ele>
        <time>2022-03-22T13:07:23Z</time>
      </trkpt>
      <trkpt lat="44.37683" lon="5.78707">
        <ele>1171.469</ele>
        <time>2022-03-22T13:07:24Z</time>
      </trkpt>
      <trkpt lat="44.37683" lon="5.78704">
        <ele>1171.269</ele>
        <time>2022-03-22T13:07:26Z</time>
      </trkpt>
      <trkpt lat="44.37683" lon="5.78703">
        <ele>1171.169</ele>
        <time>2022-03-22T13:07:28Z</time>
      </trkpt>
      <trkpt lat="44.37682" lon="5.78701">
        <ele>1170.969</ele>
        <time>2022-03-22T13:07:30Z</time>
      </trkpt>
      <trkpt lat="44.37682" lon="5.78699">
        <ele>1170.969</ele>
        <time>2022-03-22T13:07:31Z</time>
      </trkpt>
      <trkpt lat="44.37682" lon="5.78698">
        <ele>1170.969</ele>
        <time>2022-03-22T13:07:32Z</time>
      </trkpt>
      <trkpt lat="44.37682" lon="5.78697">
        <ele>1170.969</ele>
        <time>2022-03-22T13:07:33Z</time>
      </trkpt>
      <trkpt lat="44.37681" lon="5.78695">
        <ele>1170.869</ele>
        <time>2022-03-22T13:07:35Z</time>
      </trkpt>
      <trkpt lat="44.37681" lon="5.78692">
        <ele>1171.069</ele>
        <time>2022-03-22T13:07:37Z</time>
      </trkpt>
      <trkpt lat="44.37681" lon="5.78691">
        <ele>1171.169</ele>
        <time>2022-03-22T13:07:39Z</time>
      </trkpt>
      <trkpt lat="44.37681" lon="5.78689">
        <ele>1171.169</ele>
        <time>2022-03-22T13:07:41Z</time>
      </trkpt>
      <trkpt lat="44.37681" lon="5.78688">
        <ele>1171.169</ele>
        <time>2022-03-22T13:07:43Z</time>
      </trkpt>
      <trkpt lat="44.37681" lon="5.78686">
        <ele>1171.269</ele>
        <time>2022-03-22T13:07:45Z</time>
      </trkpt>
      <trkpt lat="44.37681" lon="5.78684">
        <ele>1171.569</ele>
        <time>2022-03-22T13:07:47Z</time>
      </trkpt>
      <trkpt lat="44.37681" lon="5.78683">
        <ele>1171.769</ele>
        <time>2022-03-22T13:07:49Z</time>
      </trkpt>
      <trkpt lat="44.37681" lon="5.78681">
        <ele>1171.769</ele>
        <time>2022-03-22T13:07:51Z</time>
      </trkpt>
      <trkpt lat="44.37681" lon="5.78679">
        <ele>1171.869</ele>
        <time>2022-03-22T13:07:52Z</time>
      </trkpt>
      <trkpt lat="44.3768" lon="5.78678">
        <ele>1171.969</ele>
        <time>2022-03-22T13:07:54Z</time>
      </trkpt>
      <trkpt lat="44.3768" lon="5.78676">
        <ele>1171.869</ele>
        <time>2022-03-22T13:07:56Z</time>
      </trkpt>
      <trkpt lat="44.3768" lon="5.78674">
        <ele>1172.469</ele>
        <time>2022-03-22T13:07:58Z</time>
      </trkpt>
      <trkpt lat="44.37681" lon="5.78672">
        <ele>1172.87</ele>
        <time>2022-03-22T13:08:00Z</time>
      </trkpt>
      <trkpt lat="44.37681" lon="5.7867">
        <ele>1173.17</ele>
        <time>2022-03-22T13:08:02Z</time>
      </trkpt>
      <trkpt lat="44.37681" lon="5.78669">
        <ele>1173.37</ele>
        <time>2022-03-22T13:08:03Z</time>
      </trkpt>
      <trkpt lat="44.37681" lon="5.78667">
        <ele>1173.97</ele>
        <time>2022-03-22T13:08:05Z</time>
      </trkpt>
      <trkpt lat="44.3768" lon="5.78665">
        <ele>1174.07</ele>
        <time>2022-03-22T13:08:07Z</time>
      </trkpt>
      <trkpt lat="44.37679" lon="5.78664">
        <ele>1174.07</ele>
        <time>2022-03-22T13:08:09Z</time>
      </trkpt>
      <trkpt lat="44.37679" lon="5.78662">
        <ele>1174.47</ele>
        <time>2022-03-22T13:08:11Z</time>
      </trkpt>
      <trkpt lat="44.37679" lon="5.7866">
        <ele>1174.87</ele>
        <time>2022-03-22T13:08:13Z</time>
      </trkpt>
      <trkpt lat="44.37678" lon="5.78659">
        <ele>1175.37</ele>
        <time>2022-03-22T13:08:15Z</time>
      </trkpt>
      <trkpt lat="44.37677" lon="5.78657">
        <ele>1175.47</ele>
        <time>2022-03-22T13:08:17Z</time>
      </trkpt>
      <trkpt lat="44.37677" lon="5.78656">
        <ele>1176.17</ele>
        <time>2022-03-22T13:08:20Z</time>
      </trkpt>
      <trkpt lat="44.37677" lon="5.78654">
        <ele>1176.47</ele>
        <time>2022-03-22T13:08:22Z</time>
      </trkpt>
      <trkpt lat="44.37676" lon="5.78652">
        <ele>1176.67</ele>
        <time>2022-03-22T13:08:24Z</time>
      </trkpt>
      <trkpt lat="44.37676" lon="5.78651">
        <ele>1176.97</ele>
        <time>2022-03-22T13:08:26Z</time>
      </trkpt>
      <trkpt lat="44.37675" lon="5.7865">
        <ele>1177.07</ele>
        <time>2022-03-22T13:08:28Z</time>
      </trkpt>
      <trkpt lat="44.37675" lon="5.78648">
        <ele>1177.47</ele>
        <time>2022-03-22T13:08:31Z</time>
      </trkpt>
      <trkpt lat="44.37675" lon="5.78646">
        <ele>1177.87</ele>
        <time>2022-03-22T13:08:34Z</time>
      </trkpt>
      <trkpt lat="44.37675" lon="5.78644">
        <ele>1177.97</ele>
        <time>2022-03-22T13:08:36Z</time>
      </trkpt>
      <trkpt lat="44.37674" lon="5.78643">
        <ele>1177.57</ele>
        <time>2022-03-22T13:08:40Z</time>
      </trkpt>
      <trkpt lat="44.37673" lon="5.78642">
        <ele>1177.47</ele>
        <time>2022-03-22T13:08:42Z</time>
      </trkpt>
      <trkpt lat="44.37672" lon="5.78641">
        <ele>1177.47</ele>
        <time>2022-03-22T13:08:44Z</time>
      </trkpt>
      <trkpt lat="44.37671" lon="5.78641">
        <ele>1176.97</ele>
        <time>2022-03-22T13:08:46Z</time>
      </trkpt>
      <trkpt lat="44.3767" lon="5.78643">
        <ele>1175.97</ele>
        <time>2022-03-22T13:08:49Z</time>
      </trkpt>
      <trkpt lat="44.37669" lon="5.78644">
        <ele>1176.07</ele>
        <time>2022-03-22T13:08:51Z</time>
      </trkpt>
      <trkpt lat="44.37667" lon="5.78644">
        <ele>1176.07</ele>
        <time>2022-03-22T13:08:53Z</time>
      </trkpt>
      <trkpt lat="44.37666" lon="5.78645">
        <ele>1176.07</ele>
        <time>2022-03-22T13:08:55Z</time>
      </trkpt>
      <trkpt lat="44.37665" lon="5.78647">
        <ele>1176.07</ele>
        <time>2022-03-22T13:08:57Z</time>
      </trkpt>
      <trkpt lat="44.37664" lon="5.78649">
        <ele>1175.97</ele>
        <time>2022-03-22T13:08:59Z</time>
      </trkpt>
      <trkpt lat="44.37663" lon="5.7865">
        <ele>1176.07</ele>
        <time>2022-03-22T13:09:01Z</time>
      </trkpt>
      <trkpt lat="44.37662" lon="5.78652">
        <ele>1176.17</ele>
        <time>2022-03-22T13:09:03Z</time>
      </trkpt>
      <trkpt lat="44.3766" lon="5.78653">
        <ele>1176.27</ele>
        <time>2022-03-22T13:09:05Z</time>
      </trkpt>
      <trkpt lat="44.37659" lon="5.78655">
        <ele>1176.27</ele>
        <time>2022-03-22T13:09:07Z</time>
      </trkpt>
      <trkpt lat="44.37659" lon="5.78656">
        <ele>1176.57</ele>
        <time>2022-03-22T13:09:09Z</time>
      </trkpt>
      <trkpt lat="44.37659" lon="5.78656">
        <ele>1176.37</ele>
        <time>2022-03-22T13:09:14Z</time>
      </trkpt>
      <trkpt lat="44.37658" lon="5.78656">
        <ele>1176.77</ele>
        <time>2022-03-22T13:09:15Z</time>
      </trkpt>
      <trkpt lat="44.37658" lon="5.78655">
        <ele>1176.97</ele>
        <time>2022-03-22T13:09:16Z</time>
      </trkpt>
      <trkpt lat="44.37658" lon="5.78654">
        <ele>1177.37</ele>
        <time>2022-03-22T13:09:17Z</time>
      </trkpt>
      <trkpt lat="44.37659" lon="5.78653">
        <ele>1177.57</ele>
        <time>2022-03-22T13:09:18Z</time>
      </trkpt>
      <trkpt lat="44.37659" lon="5.78651">
        <ele>1177.87</ele>
        <time>2022-03-22T13:09:19Z</time>
      </trkpt>
      <trkpt lat="44.3766" lon="5.7865">
        <ele>1178.37</ele>
        <time>2022-03-22T13:09:21Z</time>
      </trkpt>
      <trkpt lat="44.3766" lon="5.78649">
        <ele>1178.47</ele>
        <time>2022-03-22T13:09:22Z</time>
      </trkpt>
      <trkpt lat="44.37661" lon="5.78648">
        <ele>1178.47</ele>
        <time>2022-03-22T13:09:24Z</time>
      </trkpt>
      <trkpt lat="44.37662" lon="5.7865">
        <ele>1177.27</ele>
        <time>2022-03-22T13:09:27Z</time>
      </trkpt>
      <trkpt lat="44.37663" lon="5.78652">
        <ele>1176.97</ele>
        <time>2022-03-22T13:09:29Z</time>
      </trkpt>
      <trkpt lat="44.37663" lon="5.78653">
        <ele>1176.67</ele>
        <time>2022-03-22T13:09:32Z</time>
      </trkpt>
      <trkpt lat="44.37663" lon="5.78653">
        <ele>1176.57</ele>
        <time>2022-03-22T13:09:33Z</time>
      </trkpt>
      <trkpt lat="44.37663" lon="5.78653">
        <ele>1176.37</ele>
        <time>2022-03-22T13:09:40Z</time>
      </trkpt>
      <trkpt lat="44.37663" lon="5.78653">
        <ele>1176.57</ele>
        <time>2022-03-22T13:09:41Z</time>
      </trkpt>
      <trkpt lat="44.37662" lon="5.78653">
        <ele>1176.67</ele>
        <time>2022-03-22T13:09:43Z</time>
      </trkpt>
      <trkpt lat="44.3766" lon="5.78654">
        <ele>1176.87</ele>
        <time>2022-03-22T13:09:45Z</time>
      </trkpt>
      <trkpt lat="44.37659" lon="5.78655">
        <ele>1176.57</ele>
        <time>2022-03-22T13:09:47Z</time>
      </trkpt>
      <trkpt lat="44.37658" lon="5.78656">
        <ele>1176.87</ele>
        <time>2022-03-22T13:09:49Z</time>
      </trkpt>
      <trkpt lat="44.37656" lon="5.78655">
        <ele>1177.57</ele>
        <time>2022-03-22T13:09:51Z</time>
      </trkpt>
      <trkpt lat="44.37656" lon="5.78655">
        <ele>1178.87</ele>
        <time>2022-03-22T13:09:55Z</time>
      </trkpt>
      <trkpt lat="44.37656" lon="5.78655">
        <ele>1179.07</ele>
        <time>2022-03-22T13:09:56Z</time>
      </trkpt>
      <trkpt lat="44.37656" lon="5.78655">
        <ele>1179.47</ele>
        <time>2022-03-22T13:10:31Z</time>
      </trkpt>
      <trkpt lat="44.37655" lon="5.78651">
        <ele>1180.77</ele>
        <time>2022-03-22T13:10:32Z</time>
      </trkpt>
      <trkpt lat="44.37655" lon="5.7865">
        <ele>1180.77</ele>
        <time>2022-03-22T13:10:33Z</time>
      </trkpt>
      <trkpt lat="44.37655" lon="5.78649">
        <ele>1180.27</ele>
        <time>2022-03-22T13:10:34Z</time>
      </trkpt>
      <trkpt lat="44.37655" lon="5.78649">
        <ele>1180.27</ele>
        <time>2022-03-22T13:10:35Z</time>
      </trkpt>
      <trkpt lat="44.37655" lon="5.78649">
        <ele>1180.07</ele>
        <time>2022-03-22T13:10:36Z</time>
      </trkpt>
      <trkpt lat="44.37655" lon="5.78649">
        <ele>1179.97</ele>
        <time>2022-03-22T13:12:22Z</time>
      </trkpt>
      <trkpt lat="44.37657" lon="5.78645">
        <ele>1183.37</ele>
        <time>2022-03-22T13:12:23Z</time>
      </trkpt>
      <trkpt lat="44.37657" lon="5.78645">
        <ele>1183.57</ele>
        <time>2022-03-22T13:12:24Z</time>
      </trkpt>
      <trkpt lat="44.37657" lon="5.78644">
        <ele>1183.87</ele>
        <time>2022-03-22T13:12:30Z</time>
      </trkpt>
      <trkpt lat="44.37658" lon="5.78643">
        <ele>1183.67</ele>
        <time>2022-03-22T13:12:31Z</time>
      </trkpt>
      <trkpt lat="44.37659" lon="5.78641">
        <ele>1183.37</ele>
        <time>2022-03-22T13:12:34Z</time>
      </trkpt>
      <trkpt lat="44.3766" lon="5.78639">
        <ele>1183.17</ele>
        <time>2022-03-22T13:12:36Z</time>
      </trkpt>
      <trkpt lat="44.3766" lon="5.78638">
        <ele>1183.17</ele>
        <time>2022-03-22T13:12:38Z</time>
      </trkpt>
      <trkpt lat="44.37662" lon="5.78636">
        <ele>1183.07</ele>
        <time>2022-03-22T13:12:40Z</time>
      </trkpt>
      <trkpt lat="44.37663" lon="5.78635">
        <ele>1182.97</ele>
        <time>2022-03-22T13:12:42Z</time>
      </trkpt>
      <trkpt lat="44.37663" lon="5.78633">
        <ele>1182.47</ele>
        <time>2022-03-22T13:12:44Z</time>
      </trkpt>
      <trkpt lat="44.37663" lon="5.78631">
        <ele>1181.07</ele>
        <time>2022-03-22T13:12:47Z</time>
      </trkpt>
      <trkpt lat="44.37663" lon="5.7863">
        <ele>1180.37</ele>
        <time>2022-03-22T13:12:49Z</time>
      </trkpt>
      <trkpt lat="44.37664" lon="5.78628">
        <ele>1180.37</ele>
        <time>2022-03-22T13:12:51Z</time>
      </trkpt>
      <trkpt lat="44.37664" lon="5.78626">
        <ele>1180.27</ele>
        <time>2022-03-22T13:12:53Z</time>
      </trkpt>
      <trkpt lat="44.37664" lon="5.78624">
        <ele>1179.67</ele>
        <time>2022-03-22T13:12:55Z</time>
      </trkpt>
      <trkpt lat="44.37665" lon="5.78622">
        <ele>1178.77</ele>
        <time>2022-03-22T13:12:57Z</time>
      </trkpt>
      <trkpt lat="44.37666" lon="5.7862">
        <ele>1178.37</ele>
        <time>2022-03-22T13:12:59Z</time>
      </trkpt>
      <trkpt lat="44.37666" lon="5.78619">
        <ele>1177.77</ele>
        <time>2022-03-22T13:13:01Z</time>
      </trkpt>
      <trkpt lat="44.37667" lon="5.78617">
        <ele>1177.27</ele>
        <time>2022-03-22T13:13:03Z</time>
      </trkpt>
      <trkpt lat="44.37667" lon="5.78617">
        <ele>1176.17</ele>
        <time>2022-03-22T13:13:08Z</time>
      </trkpt>
      <trkpt lat="44.37667" lon="5.78617">
        <ele>1175.97</ele>
        <time>2022-03-22T13:13:09Z</time>
      </trkpt>
      <trkpt lat="44.37667" lon="5.78617">
        <ele>1175.87</ele>
        <time>2022-03-22T13:13:25Z</time>
      </trkpt>
      <trkpt lat="44.37666" lon="5.78615">
        <ele>1176.17</ele>
        <time>2022-03-22T13:13:26Z</time>
      </trkpt>
      <trkpt lat="44.37667" lon="5.78613">
        <ele>1176.37</ele>
        <time>2022-03-22T13:13:28Z</time>
      </trkpt>
      <trkpt lat="44.37667" lon="5.78612">
        <ele>1176.27</ele>
        <time>2022-03-22T13:13:29Z</time>
      </trkpt>
      <trkpt lat="44.37667" lon="5.7861">
        <ele>1175.97</ele>
        <time>2022-03-22T13:13:31Z</time>
      </trkpt>
      <trkpt lat="44.37668" lon="5.78609">
        <ele>1175.77</ele>
        <time>2022-03-22T13:13:33Z</time>
      </trkpt>
      <trkpt lat="44.37668" lon="5.78607">
        <ele>1175.67</ele>
        <time>2022-03-22T13:13:35Z</time>
      </trkpt>
      <trkpt lat="44.37668" lon="5.78605">
        <ele>1175.27</ele>
        <time>2022-03-22T13:13:37Z</time>
      </trkpt>
      <trkpt lat="44.37668" lon="5.78604">
        <ele>1174.97</ele>
        <time>2022-03-22T13:13:38Z</time>
      </trkpt>
      <trkpt lat="44.37669" lon="5.78603">
        <ele>1174.47</ele>
        <time>2022-03-22T13:13:40Z</time>
      </trkpt>
      <trkpt lat="44.3767" lon="5.78601">
        <ele>1174.07</ele>
        <time>2022-03-22T13:13:42Z</time>
      </trkpt>
      <trkpt lat="44.3767" lon="5.78599">
        <ele>1173.67</ele>
        <time>2022-03-22T13:13:44Z</time>
      </trkpt>
      <trkpt lat="44.37671" lon="5.78598">
        <ele>1173.47</ele>
        <time>2022-03-22T13:13:45Z</time>
      </trkpt>
      <trkpt lat="44.37672" lon="5.78596">
        <ele>1173.17</ele>
        <time>2022-03-22T13:13:47Z</time>
      </trkpt>
      <trkpt lat="44.37673" lon="5.78595">
        <ele>1172.97</ele>
        <time>2022-03-22T13:13:48Z</time>
      </trkpt>
      <trkpt lat="44.37674" lon="5.78594">
        <ele>1173.27</ele>
        <time>2022-03-22T13:13:49Z</time>
      </trkpt>
      <trkpt lat="44.37675" lon="5.78593">
        <ele>1173.37</ele>
        <time>2022-03-22T13:13:50Z</time>
      </trkpt>
      <trkpt lat="44.37675" lon="5.78592">
        <ele>1173.47</ele>
        <time>2022-03-22T13:13:51Z</time>
      </trkpt>
      <trkpt lat="44.37676" lon="5.78591">
        <ele>1173.57</ele>
        <time>2022-03-22T13:13:52Z</time>
      </trkpt>
      <trkpt lat="44.37677" lon="5.7859">
        <ele>1173.67</ele>
        <time>2022-03-22T13:13:53Z</time>
      </trkpt>
      <trkpt lat="44.37678" lon="5.78589">
        <ele>1173.87</ele>
        <time>2022-03-22T13:13:54Z</time>
      </trkpt>
      <trkpt lat="44.37679" lon="5.78588">
        <ele>1173.87</ele>
        <time>2022-03-22T13:13:55Z</time>
      </trkpt>
      <trkpt lat="44.3768" lon="5.78586">
        <ele>1173.87</ele>
        <time>2022-03-22T13:13:57Z</time>
      </trkpt>
      <trkpt lat="44.37682" lon="5.78584">
        <ele>1173.87</ele>
        <time>2022-03-22T13:13:59Z</time>
      </trkpt>
      <trkpt lat="44.37683" lon="5.78583">
        <ele>1173.67</ele>
        <time>2022-03-22T13:14:00Z</time>
      </trkpt>
      <trkpt lat="44.37683" lon="5.78582">
        <ele>1173.37</ele>
        <time>2022-03-22T13:14:01Z</time>
      </trkpt>
      <trkpt lat="44.37684" lon="5.78581">
        <ele>1173.17</ele>
        <time>2022-03-22T13:14:02Z</time>
      </trkpt>
      <trkpt lat="44.37685" lon="5.7858">
        <ele>1173.07</ele>
        <time>2022-03-22T13:14:03Z</time>
      </trkpt>
      <trkpt lat="44.37686" lon="5.78578">
        <ele>1172.87</ele>
        <time>2022-03-22T13:14:04Z</time>
      </trkpt>
      <trkpt lat="44.37686" lon="5.78577">
        <ele>1172.87</ele>
        <time>2022-03-22T13:14:05Z</time>
      </trkpt>
      <trkpt lat="44.37687" lon="5.78575">
        <ele>1172.87</ele>
        <time>2022-03-22T13:14:06Z</time>
      </trkpt>
      <trkpt lat="44.37688" lon="5.78574">
        <ele>1172.67</ele>
        <time>2022-03-22T13:14:07Z</time>
      </trkpt>
      <trkpt lat="44.37689" lon="5.78572">
        <ele>1172.27</ele>
        <time>2022-03-22T13:14:09Z</time>
      </trkpt>
      <trkpt lat="44.3769" lon="5.7857">
        <ele>1171.67</ele>
        <time>2022-03-22T13:14:11Z</time>
      </trkpt>
      <trkpt lat="44.3769" lon="5.78569">
        <ele>1171.77</ele>
        <time>2022-03-22T13:14:12Z</time>
      </trkpt>
      <trkpt lat="44.37691" lon="5.78568">
        <ele>1171.77</ele>
        <time>2022-03-22T13:14:13Z</time>
      </trkpt>
      <trkpt lat="44.37691" lon="5.78567">
        <ele>1171.67</ele>
        <time>2022-03-22T13:14:14Z</time>
      </trkpt>
      <trkpt lat="44.37692" lon="5.78564">
        <ele>1171.67</ele>
        <time>2022-03-22T13:14:16Z</time>
      </trkpt>
      <trkpt lat="44.37692" lon="5.78563">
        <ele>1171.67</ele>
        <time>2022-03-22T13:14:17Z</time>
      </trkpt>
      <trkpt lat="44.37692" lon="5.78561">
        <ele>1171.77</ele>
        <time>2022-03-22T13:14:18Z</time>
      </trkpt>
      <trkpt lat="44.37692" lon="5.7856">
        <ele>1171.97</ele>
        <time>2022-03-22T13:14:19Z</time>
      </trkpt>
      <trkpt lat="44.37693" lon="5.78557">
        <ele>1171.87</ele>
        <time>2022-03-22T13:14:21Z</time>
      </trkpt>
      <trkpt lat="44.37693" lon="5.78556">
        <ele>1172.07</ele>
        <time>2022-03-22T13:14:22Z</time>
      </trkpt>
      <trkpt lat="44.37694" lon="5.78554">
        <ele>1171.97</ele>
        <time>2022-03-22T13:14:24Z</time>
      </trkpt>
      <trkpt lat="44.37695" lon="5.78552">
        <ele>1171.57</ele>
        <time>2022-03-22T13:14:26Z</time>
      </trkpt>
      <trkpt lat="44.37696" lon="5.7855">
        <ele>1171.27</ele>
        <time>2022-03-22T13:14:28Z</time>
      </trkpt>
      <trkpt lat="44.37696" lon="5.78548">
        <ele>1170.67</ele>
        <time>2022-03-22T13:14:30Z</time>
      </trkpt>
      <trkpt lat="44.37697" lon="5.78547">
        <ele>1170.67</ele>
        <time>2022-03-22T13:14:31Z</time>
      </trkpt>
      <trkpt lat="44.37698" lon="5.78546">
        <ele>1170.77</ele>
        <time>2022-03-22T13:14:32Z</time>
      </trkpt>
      <trkpt lat="44.37698" lon="5.78544">
        <ele>1170.57</ele>
        <time>2022-03-22T13:14:33Z</time>
      </trkpt>
      <trkpt lat="44.37699" lon="5.78543">
        <ele>1170.37</ele>
        <time>2022-03-22T13:14:34Z</time>
      </trkpt>
      <trkpt lat="44.37699" lon="5.78542">
        <ele>1169.97</ele>
        <time>2022-03-22T13:14:35Z</time>
      </trkpt>
      <trkpt lat="44.377" lon="5.78541">
        <ele>1169.67</ele>
        <time>2022-03-22T13:14:36Z</time>
      </trkpt>
      <trkpt lat="44.377" lon="5.78539">
        <ele>1169.77</ele>
        <time>2022-03-22T13:14:37Z</time>
      </trkpt>
      <trkpt lat="44.37701" lon="5.78537">
        <ele>1169.57</ele>
        <time>2022-03-22T13:14:38Z</time>
      </trkpt>
      <trkpt lat="44.37701" lon="5.78536">
        <ele>1169.67</ele>
        <time>2022-03-22T13:14:39Z</time>
      </trkpt>
      <trkpt lat="44.37702" lon="5.78534">
        <ele>1169.47</ele>
        <time>2022-03-22T13:14:41Z</time>
      </trkpt>
      <trkpt lat="44.37702" lon="5.78533">
        <ele>1168.97</ele>
        <time>2022-03-22T13:14:42Z</time>
      </trkpt>
      <trkpt lat="44.37703" lon="5.78531">
        <ele>1168.47</ele>
        <time>2022-03-22T13:14:44Z</time>
      </trkpt>
      <trkpt lat="44.37704" lon="5.78529">
        <ele>1168.17</ele>
        <time>2022-03-22T13:14:45Z</time>
      </trkpt>
      <trkpt lat="44.37704" lon="5.78527">
        <ele>1168.07</ele>
        <time>2022-03-22T13:14:47Z</time>
      </trkpt>
      <trkpt lat="44.37704" lon="5.78526">
        <ele>1167.87</ele>
        <time>2022-03-22T13:14:48Z</time>
      </trkpt>
      <trkpt lat="44.37705" lon="5.78524">
        <ele>1167.77</ele>
        <time>2022-03-22T13:14:50Z</time>
      </trkpt>
      <trkpt lat="44.37706" lon="5.78522">
        <ele>1167.87</ele>
        <time>2022-03-22T13:14:52Z</time>
      </trkpt>
      <trkpt lat="44.37707" lon="5.78522">
        <ele>1167.67</ele>
        <time>2022-03-22T13:14:53Z</time>
      </trkpt>
      <trkpt lat="44.37708" lon="5.78521">
        <ele>1167.57</ele>
        <time>2022-03-22T13:14:54Z</time>
      </trkpt>
      <trkpt lat="44.37709" lon="5.7852">
        <ele>1166.77</ele>
        <time>2022-03-22T13:14:56Z</time>
      </trkpt>
      <trkpt lat="44.3771" lon="5.78518">
        <ele>1166.17</ele>
        <time>2022-03-22T13:14:58Z</time>
      </trkpt>
      <trkpt lat="44.37711" lon="5.78515">
        <ele>1165.87</ele>
        <time>2022-03-22T13:15:00Z</time>
      </trkpt>
      <trkpt lat="44.37712" lon="5.78514">
        <ele>1165.57</ele>
        <time>2022-03-22T13:15:02Z</time>
      </trkpt>
      <trkpt lat="44.37712" lon="5.78512">
        <ele>1165.37</ele>
        <time>2022-03-22T13:15:04Z</time>
      </trkpt>
      <trkpt lat="44.37713" lon="5.7851">
        <ele>1165.37</ele>
        <time>2022-03-22T13:15:06Z</time>
      </trkpt>
      <trkpt lat="44.37713" lon="5.78508">
        <ele>1164.97</ele>
        <time>2022-03-22T13:15:08Z</time>
      </trkpt>
      <trkpt lat="44.37714" lon="5.78506">
        <ele>1164.17</ele>
        <time>2022-03-22T13:15:10Z</time>
      </trkpt>
      <trkpt lat="44.37714" lon="5.78504">
        <ele>1163.57</ele>
        <time>2022-03-22T13:15:12Z</time>
      </trkpt>
      <trkpt lat="44.37714" lon="5.78503">
        <ele>1162.47</ele>
        <time>2022-03-22T13:15:14Z</time>
      </trkpt>
      <trkpt lat="44.37715" lon="5.785">
        <ele>1161.67</ele>
        <time>2022-03-22T13:15:16Z</time>
      </trkpt>
      <trkpt lat="44.37715" lon="5.78498">
        <ele>1161.27</ele>
        <time>2022-03-22T13:15:18Z</time>
      </trkpt>
      <trkpt lat="44.37715" lon="5.78497">
        <ele>1161.27</ele>
        <time>2022-03-22T13:15:19Z</time>
      </trkpt>
      <trkpt lat="44.37715" lon="5.78494">
        <ele>1160.87</ele>
        <time>2022-03-22T13:15:21Z</time>
      </trkpt>
      <trkpt lat="44.37715" lon="5.78493">
        <ele>1160.57</ele>
        <time>2022-03-22T13:15:22Z</time>
      </trkpt>
      <trkpt lat="44.37715" lon="5.78491">
        <ele>1160.37</ele>
        <time>2022-03-22T13:15:24Z</time>
      </trkpt>
      <trkpt lat="44.37715" lon="5.78488">
        <ele>1160.47</ele>
        <time>2022-03-22T13:15:26Z</time>
      </trkpt>
      <trkpt lat="44.37715" lon="5.78487">
        <ele>1160.57</ele>
        <time>2022-03-22T13:15:27Z</time>
      </trkpt>
      <trkpt lat="44.37715" lon="5.78485">
        <ele>1160.47</ele>
        <time>2022-03-22T13:15:28Z</time>
      </trkpt>
      <trkpt lat="44.37716" lon="5.78483">
        <ele>1160.67</ele>
        <time>2022-03-22T13:15:30Z</time>
      </trkpt>
      <trkpt lat="44.37715" lon="5.78481">
        <ele>1160.571</ele>
        <time>2022-03-22T13:15:32Z</time>
      </trkpt>
      <trkpt lat="44.37715" lon="5.78479">
        <ele>1160.471</ele>
        <time>2022-03-22T13:15:33Z</time>
      </trkpt>
      <trkpt lat="44.37716" lon="5.78478">
        <ele>1160.271</ele>
        <time>2022-03-22T13:15:34Z</time>
      </trkpt>
      <trkpt lat="44.37716" lon="5.78477">
        <ele>1159.571</ele>
        <time>2022-03-22T13:15:35Z</time>
      </trkpt>
      <trkpt lat="44.37716" lon="5.78475">
        <ele>1159.171</ele>
        <time>2022-03-22T13:15:36Z</time>
      </trkpt>
      <trkpt lat="44.37716" lon="5.78473">
        <ele>1159.271</ele>
        <time>2022-03-22T13:15:38Z</time>
      </trkpt>
      <trkpt lat="44.37716" lon="5.7847">
        <ele>1159.171</ele>
        <time>2022-03-22T13:15:40Z</time>
      </trkpt>
      <trkpt lat="44.37717" lon="5.78469">
        <ele>1159.171</ele>
        <time>2022-03-22T13:15:42Z</time>
      </trkpt>
      <trkpt lat="44.37717" lon="5.78467">
        <ele>1159.371</ele>
        <time>2022-03-22T13:15:44Z</time>
      </trkpt>
      <trkpt lat="44.37717" lon="5.78465">
        <ele>1159.571</ele>
        <time>2022-03-22T13:15:46Z</time>
      </trkpt>
      <trkpt lat="44.37717" lon="5.78463">
        <ele>1159.171</ele>
        <time>2022-03-22T13:15:48Z</time>
      </trkpt>
      <trkpt lat="44.37718" lon="5.78462">
        <ele>1159.171</ele>
        <time>2022-03-22T13:15:49Z</time>
      </trkpt>
      <trkpt lat="44.37718" lon="5.7846">
        <ele>1158.471</ele>
        <time>2022-03-22T13:15:51Z</time>
      </trkpt>
      <trkpt lat="44.37719" lon="5.78458">
        <ele>1158.071</ele>
        <time>2022-03-22T13:15:53Z</time>
      </trkpt>
      <trkpt lat="44.3772" lon="5.78456">
        <ele>1157.471</ele>
        <time>2022-03-22T13:15:55Z</time>
      </trkpt>
      <trkpt lat="44.37721" lon="5.78454">
        <ele>1156.971</ele>
        <time>2022-03-22T13:15:57Z</time>
      </trkpt>
      <trkpt lat="44.37721" lon="5.78453">
        <ele>1156.871</ele>
        <time>2022-03-22T13:15:58Z</time>
      </trkpt>
      <trkpt lat="44.37721" lon="5.78451">
        <ele>1156.671</ele>
        <time>2022-03-22T13:15:59Z</time>
      </trkpt>
      <trkpt lat="44.37721" lon="5.7845">
        <ele>1156.371</ele>
        <time>2022-03-22T13:16:00Z</time>
      </trkpt>
      <trkpt lat="44.37722" lon="5.78449">
        <ele>1156.071</ele>
        <time>2022-03-22T13:16:01Z</time>
      </trkpt>
      <trkpt lat="44.37722" lon="5.78447">
        <ele>1156.071</ele>
        <time>2022-03-22T13:16:03Z</time>
      </trkpt>
      <trkpt lat="44.37722" lon="5.78445">
        <ele>1156.171</ele>
        <time>2022-03-22T13:16:04Z</time>
      </trkpt>
      <trkpt lat="44.37722" lon="5.78444">
        <ele>1156.271</ele>
        <time>2022-03-22T13:16:06Z</time>
      </trkpt>
      <trkpt lat="44.37722" lon="5.78442">
        <ele>1155.971</ele>
        <time>2022-03-22T13:16:08Z</time>
      </trkpt>
      <trkpt lat="44.37723" lon="5.78441">
        <ele>1155.371</ele>
        <time>2022-03-22T13:16:10Z</time>
      </trkpt>
      <trkpt lat="44.37724" lon="5.78439">
        <ele>1155.171</ele>
        <time>2022-03-22T13:16:12Z</time>
      </trkpt>
      <trkpt lat="44.37725" lon="5.78438">
        <ele>1154.871</ele>
        <time>2022-03-22T13:16:14Z</time>
      </trkpt>
      <trkpt lat="44.37725" lon="5.78437">
        <ele>1154.271</ele>
        <time>2022-03-22T13:16:16Z</time>
      </trkpt>
      <trkpt lat="44.37725" lon="5.78436">
        <ele>1153.871</ele>
        <time>2022-03-22T13:16:21Z</time>
      </trkpt>
      <trkpt lat="44.37725" lon="5.78436">
        <ele>1153.871</ele>
        <time>2022-03-22T13:16:22Z</time>
      </trkpt>
      <trkpt lat="44.37725" lon="5.78435">
        <ele>1153.871</ele>
        <time>2022-03-22T13:18:20Z</time>
      </trkpt>
      <trkpt lat="44.37724" lon="5.78433">
        <ele>1154.371</ele>
        <time>2022-03-22T13:18:21Z</time>
      </trkpt>
      <trkpt lat="44.37725" lon="5.78432">
        <ele>1154.071</ele>
        <time>2022-03-22T13:18:23Z</time>
      </trkpt>
      <trkpt lat="44.37725" lon="5.78431">
        <ele>1153.771</ele>
        <time>2022-03-22T13:18:24Z</time>
      </trkpt>
      <trkpt lat="44.37725" lon="5.7843">
        <ele>1153.671</ele>
        <time>2022-03-22T13:18:25Z</time>
      </trkpt>
      <trkpt lat="44.37725" lon="5.7843">
        <ele>1153.671</ele>
        <time>2022-03-22T13:18:34Z</time>
      </trkpt>
      <trkpt lat="44.37727" lon="5.78429">
        <ele>1153.471</ele>
        <time>2022-03-22T13:18:35Z</time>
      </trkpt>
      <trkpt lat="44.37728" lon="5.78429">
        <ele>1153.171</ele>
        <time>2022-03-22T13:18:36Z</time>
      </trkpt>
      <trkpt lat="44.37729" lon="5.78428">
        <ele>1152.571</ele>
        <time>2022-03-22T13:18:40Z</time>
      </trkpt>
      <trkpt lat="44.37729" lon="5.78427">
        <ele>1152.471</ele>
        <time>2022-03-22T13:18:42Z</time>
      </trkpt>
      <trkpt lat="44.37729" lon="5.78425">
        <ele>1151.971</ele>
        <time>2022-03-22T13:18:44Z</time>
      </trkpt>
      <trkpt lat="44.37729" lon="5.78423">
        <ele>1151.571</ele>
        <time>2022-03-22T13:18:46Z</time>
      </trkpt>
      <trkpt lat="44.37729" lon="5.78422">
        <ele>1151.171</ele>
        <time>2022-03-22T13:18:48Z</time>
      </trkpt>
      <trkpt lat="44.3773" lon="5.7842">
        <ele>1150.771</ele>
        <time>2022-03-22T13:18:50Z</time>
      </trkpt>
      <trkpt lat="44.3773" lon="5.78419">
        <ele>1150.371</ele>
        <time>2022-03-22T13:18:52Z</time>
      </trkpt>
      <trkpt lat="44.37731" lon="5.78417">
        <ele>1150.171</ele>
        <time>2022-03-22T13:18:54Z</time>
      </trkpt>
      <trkpt lat="44.37732" lon="5.78415">
        <ele>1149.571</ele>
        <time>2022-03-22T13:18:56Z</time>
      </trkpt>
      <trkpt lat="44.37732" lon="5.78414">
        <ele>1149.271</ele>
        <time>2022-03-22T13:18:57Z</time>
      </trkpt>
      <trkpt lat="44.37733" lon="5.78412">
        <ele>1148.571</ele>
        <time>2022-03-22T13:18:59Z</time>
      </trkpt>
      <trkpt lat="44.37733" lon="5.7841">
        <ele>1148.071</ele>
        <time>2022-03-22T13:19:01Z</time>
      </trkpt>
      <trkpt lat="44.37734" lon="5.78408">
        <ele>1147.671</ele>
        <time>2022-03-22T13:19:03Z</time>
      </trkpt>
      <trkpt lat="44.37734" lon="5.78407">
        <ele>1147.371</ele>
        <time>2022-03-22T13:19:04Z</time>
      </trkpt>
      <trkpt lat="44.37734" lon="5.78405">
        <ele>1147.171</ele>
        <time>2022-03-22T13:19:06Z</time>
      </trkpt>
      <trkpt lat="44.37735" lon="5.78403">
        <ele>1146.671</ele>
        <time>2022-03-22T13:19:08Z</time>
      </trkpt>
      <trkpt lat="44.37735" lon="5.78401">
        <ele>1146.071</ele>
        <time>2022-03-22T13:19:10Z</time>
      </trkpt>
      <trkpt lat="44.37736" lon="5.78399">
        <ele>1145.671</ele>
        <time>2022-03-22T13:19:12Z</time>
      </trkpt>
      <trkpt lat="44.37737" lon="5.78397">
        <ele>1145.371</ele>
        <time>2022-03-22T13:19:14Z</time>
      </trkpt>
      <trkpt lat="44.37737" lon="5.78395">
        <ele>1144.871</ele>
        <time>2022-03-22T13:19:16Z</time>
      </trkpt>
      <trkpt lat="44.37738" lon="5.78394">
        <ele>1144.571</ele>
        <time>2022-03-22T13:19:18Z</time>
      </trkpt>
      <trkpt lat="44.37739" lon="5.78391">
        <ele>1144.471</ele>
        <time>2022-03-22T13:19:20Z</time>
      </trkpt>
      <trkpt lat="44.37739" lon="5.7839">
        <ele>1144.271</ele>
        <time>2022-03-22T13:19:21Z</time>
      </trkpt>
      <trkpt lat="44.3774" lon="5.78389">
        <ele>1144.071</ele>
        <time>2022-03-22T13:19:22Z</time>
      </trkpt>
      <trkpt lat="44.3774" lon="5.78387">
        <ele>1143.871</ele>
        <time>2022-03-22T13:19:24Z</time>
      </trkpt>
      <trkpt lat="44.3774" lon="5.78384">
        <ele>1143.671</ele>
        <time>2022-03-22T13:19:26Z</time>
      </trkpt>
      <trkpt lat="44.37741" lon="5.78382">
        <ele>1143.171</ele>
        <time>2022-03-22T13:19:28Z</time>
      </trkpt>
      <trkpt lat="44.37741" lon="5.78381">
        <ele>1142.671</ele>
        <time>2022-03-22T13:19:30Z</time>
      </trkpt>
      <trkpt lat="44.37742" lon="5.78379">
        <ele>1142.371</ele>
        <time>2022-03-22T13:19:32Z</time>
      </trkpt>
      <trkpt lat="44.37743" lon="5.78377">
        <ele>1141.471</ele>
        <time>2022-03-22T13:19:34Z</time>
      </trkpt>
      <trkpt lat="44.37743" lon="5.78375">
        <ele>1140.971</ele>
        <time>2022-03-22T13:19:36Z</time>
      </trkpt>
      <trkpt lat="44.37744" lon="5.78374">
        <ele>1140.471</ele>
        <time>2022-03-22T13:19:38Z</time>
      </trkpt>
      <trkpt lat="44.37745" lon="5.78372">
        <ele>1140.271</ele>
        <time>2022-03-22T13:19:40Z</time>
      </trkpt>
      <trkpt lat="44.37746" lon="5.78371">
        <ele>1140.171</ele>
        <time>2022-03-22T13:19:41Z</time>
      </trkpt>
      <trkpt lat="44.37746" lon="5.78369">
        <ele>1139.971</ele>
        <time>2022-03-22T13:19:43Z</time>
      </trkpt>
      <trkpt lat="44.37747" lon="5.78367">
        <ele>1139.571</ele>
        <time>2022-03-22T13:19:45Z</time>
      </trkpt>
      <trkpt lat="44.37748" lon="5.78365">
        <ele>1139.071</ele>
        <time>2022-03-22T13:19:47Z</time>
      </trkpt>
      <trkpt lat="44.37749" lon="5.78363">
        <ele>1138.871</ele>
        <time>2022-03-22T13:19:49Z</time>
      </trkpt>
      <trkpt lat="44.3775" lon="5.78361">
        <ele>1138.571</ele>
        <time>2022-03-22T13:19:51Z</time>
      </trkpt>
      <trkpt lat="44.3775" lon="5.78359">
        <ele>1138.271</ele>
        <time>2022-03-22T13:19:53Z</time>
      </trkpt>
      <trkpt lat="44.37751" lon="5.78357">
        <ele>1137.871</ele>
        <time>2022-03-22T13:19:55Z</time>
      </trkpt>
      <trkpt lat="44.37751" lon="5.78355">
        <ele>1137.871</ele>
        <time>2022-03-22T13:19:57Z</time>
      </trkpt>
      <trkpt lat="44.37751" lon="5.78354">
        <ele>1137.671</ele>
        <time>2022-03-22T13:20:00Z</time>
      </trkpt>
      <trkpt lat="44.3775" lon="5.78353">
        <ele>1137.571</ele>
        <time>2022-03-22T13:20:02Z</time>
      </trkpt>
      <trkpt lat="44.37749" lon="5.78353">
        <ele>1136.671</ele>
        <time>2022-03-22T13:20:05Z</time>
      </trkpt>
      <trkpt lat="44.37748" lon="5.78354">
        <ele>1136.171</ele>
        <time>2022-03-22T13:20:07Z</time>
      </trkpt>
      <trkpt lat="44.37747" lon="5.78355">
        <ele>1135.571</ele>
        <time>2022-03-22T13:20:09Z</time>
      </trkpt>
      <trkpt lat="44.37747" lon="5.78357">
        <ele>1135.271</ele>
        <time>2022-03-22T13:20:11Z</time>
      </trkpt>
      <trkpt lat="44.37746" lon="5.78358">
        <ele>1134.671</ele>
        <time>2022-03-22T13:20:14Z</time>
      </trkpt>
      <trkpt lat="44.37745" lon="5.7836">
        <ele>1133.871</ele>
        <time>2022-03-22T13:20:16Z</time>
      </trkpt>
      <trkpt lat="44.37745" lon="5.78361">
        <ele>1132.971</ele>
        <time>2022-03-22T13:20:18Z</time>
      </trkpt>
      <trkpt lat="44.37744" lon="5.78362">
        <ele>1131.571</ele>
        <time>2022-03-22T13:20:22Z</time>
      </trkpt>
      <trkpt lat="44.37743" lon="5.78363">
        <ele>1131.171</ele>
        <time>2022-03-22T13:20:24Z</time>
      </trkpt>
      <trkpt lat="44.37743" lon="5.78363">
        <ele>1131.071</ele>
        <time>2022-03-22T13:20:25Z</time>
      </trkpt>
      <trkpt lat="44.37743" lon="5.78364">
        <ele>1131.071</ele>
        <time>2022-03-22T13:21:16Z</time>
      </trkpt>
      <trkpt lat="44.37744" lon="5.78362">
        <ele>1132.671</ele>
        <time>2022-03-22T13:21:17Z</time>
      </trkpt>
      <trkpt lat="44.37744" lon="5.78361">
        <ele>1132.471</ele>
        <time>2022-03-22T13:21:18Z</time>
      </trkpt>
      <trkpt lat="44.37745" lon="5.78361">
        <ele>1132.471</ele>
        <time>2022-03-22T13:21:19Z</time>
      </trkpt>
      <trkpt lat="44.37745" lon="5.78361">
        <ele>1132.571</ele>
        <time>2022-03-22T13:21:20Z</time>
      </trkpt>
      <trkpt lat="44.37745" lon="5.7836">
        <ele>1132.671</ele>
        <time>2022-03-22T13:21:21Z</time>
      </trkpt>
      <trkpt lat="44.37745" lon="5.78361">
        <ele>1132.471</ele>
        <time>2022-03-22T13:21:22Z</time>
      </trkpt>
      <trkpt lat="44.37746" lon="5.78361">
        <ele>1132.571</ele>
        <time>2022-03-22T13:21:45Z</time>
      </trkpt>
      <trkpt lat="44.37747" lon="5.78355">
        <ele>1134.071</ele>
        <time>2022-03-22T13:21:46Z</time>
      </trkpt>
      <trkpt lat="44.37748" lon="5.78354">
        <ele>1133.971</ele>
        <time>2022-03-22T13:21:49Z</time>
      </trkpt>
      <trkpt lat="44.37749" lon="5.78353">
        <ele>1133.971</ele>
        <time>2022-03-22T13:21:50Z</time>
      </trkpt>
      <trkpt lat="44.37749" lon="5.78352">
        <ele>1134.171</ele>
        <time>2022-03-22T13:21:52Z</time>
      </trkpt>
      <trkpt lat="44.37749" lon="5.7835">
        <ele>1134.371</ele>
        <time>2022-03-22T13:21:54Z</time>
      </trkpt>
      <trkpt lat="44.37748" lon="5.78348">
        <ele>1134.171</ele>
        <time>2022-03-22T13:21:56Z</time>
      </trkpt>
      <trkpt lat="44.37748" lon="5.78346">
        <ele>1134.271</ele>
        <time>2022-03-22T13:21:58Z</time>
      </trkpt>
      <trkpt lat="44.37747" lon="5.78345">
        <ele>1134.171</ele>
        <time>2022-03-22T13:22:00Z</time>
      </trkpt>
      <trkpt lat="44.37747" lon="5.78343">
        <ele>1133.871</ele>
        <time>2022-03-22T13:22:03Z</time>
      </trkpt>
      <trkpt lat="44.37747" lon="5.78341">
        <ele>1134.071</ele>
        <time>2022-03-22T13:22:05Z</time>
      </trkpt>
      <trkpt lat="44.37748" lon="5.7834">
        <ele>1133.771</ele>
        <time>2022-03-22T13:22:07Z</time>
      </trkpt>
      <trkpt lat="44.37749" lon="5.78339">
        <ele>1133.471</ele>
        <time>2022-03-22T13:22:08Z</time>
      </trkpt>
      <trkpt lat="44.3775" lon="5.78338">
        <ele>1133.271</ele>
        <time>2022-03-22T13:22:09Z</time>
      </trkpt>
      <trkpt lat="44.37751" lon="5.78337">
        <ele>1133.071</ele>
        <time>2022-03-22T13:22:10Z</time>
      </trkpt>
      <trkpt lat="44.37751" lon="5.78335">
        <ele>1133.071</ele>
        <time>2022-03-22T13:22:11Z</time>
      </trkpt>
      <trkpt lat="44.37752" lon="5.78334">
        <ele>1133.071</ele>
        <time>2022-03-22T13:22:12Z</time>
      </trkpt>
      <trkpt lat="44.37753" lon="5.78333">
        <ele>1132.871</ele>
        <time>2022-03-22T13:22:14Z</time>
      </trkpt>
      <trkpt lat="44.37753" lon="5.78331">
        <ele>1132.771</ele>
        <time>2022-03-22T13:22:16Z</time>
      </trkpt>
      <trkpt lat="44.37754" lon="5.78329">
        <ele>1133.071</ele>
        <time>2022-03-22T13:22:18Z</time>
      </trkpt>
      <trkpt lat="44.37754" lon="5.78327">
        <ele>1132.971</ele>
        <time>2022-03-22T13:22:19Z</time>
      </trkpt>
      <trkpt lat="44.37754" lon="5.78325">
        <ele>1132.871</ele>
        <time>2022-03-22T13:22:21Z</time>
      </trkpt>
      <trkpt lat="44.37754" lon="5.78323">
        <ele>1132.471</ele>
        <time>2022-03-22T13:22:22Z</time>
      </trkpt>
      <trkpt lat="44.37754" lon="5.78322">
        <ele>1132.271</ele>
        <time>2022-03-22T13:22:23Z</time>
      </trkpt>
      <trkpt lat="44.37754" lon="5.7832">
        <ele>1132.371</ele>
        <time>2022-03-22T13:22:24Z</time>
      </trkpt>
      <trkpt lat="44.37753" lon="5.78318">
        <ele>1132.171</ele>
        <time>2022-03-22T13:22:26Z</time>
      </trkpt>
      <trkpt lat="44.37752" lon="5.78318">
        <ele>1132.071</ele>
        <time>2022-03-22T13:22:28Z</time>
      </trkpt>
      <trkpt lat="44.3775" lon="5.78318">
        <ele>1131.271</ele>
        <time>2022-03-22T13:22:30Z</time>
      </trkpt>
      <trkpt lat="44.37748" lon="5.7832">
        <ele>1130.671</ele>
        <time>2022-03-22T13:22:32Z</time>
      </trkpt>
      <trkpt lat="44.37747" lon="5.78321">
        <ele>1130.371</ele>
        <time>2022-03-22T13:22:33Z</time>
      </trkpt>
      <trkpt lat="44.37747" lon="5.78321">
        <ele>1130.071</ele>
        <time>2022-03-22T13:22:34Z</time>
      </trkpt>
      <trkpt lat="44.37746" lon="5.78322">
        <ele>1129.871</ele>
        <time>2022-03-22T13:22:35Z</time>
      </trkpt>
      <trkpt lat="44.37745" lon="5.78324">
        <ele>1129.671</ele>
        <time>2022-03-22T13:22:37Z</time>
      </trkpt>
      <trkpt lat="44.37743" lon="5.78325">
        <ele>1129.371</ele>
        <time>2022-03-22T13:22:39Z</time>
      </trkpt>
      <trkpt lat="44.37742" lon="5.78326">
        <ele>1129.271</ele>
        <time>2022-03-22T13:22:41Z</time>
      </trkpt>
      <trkpt lat="44.37741" lon="5.78329">
        <ele>1128.671</ele>
        <time>2022-03-22T13:22:43Z</time>
      </trkpt>
      <trkpt lat="44.3774" lon="5.7833">
        <ele>1127.971</ele>
        <time>2022-03-22T13:22:45Z</time>
      </trkpt>
      <trkpt lat="44.37739" lon="5.78331">
        <ele>1127.571</ele>
        <time>2022-03-22T13:22:46Z</time>
      </trkpt>
      <trkpt lat="44.37738" lon="5.78332">
        <ele>1126.971</ele>
        <time>2022-03-22T13:22:47Z</time>
      </trkpt>
      <trkpt lat="44.37737" lon="5.78333">
        <ele>1126.271</ele>
        <time>2022-03-22T13:22:48Z</time>
      </trkpt>
      <trkpt lat="44.37736" lon="5.78334">
        <ele>1125.871</ele>
        <time>2022-03-22T13:22:49Z</time>
      </trkpt>
      <trkpt lat="44.37736" lon="5.78335">
        <ele>1125.071</ele>
        <time>2022-03-22T13:22:51Z</time>
      </trkpt>
      <trkpt lat="44.37735" lon="5.78335">
        <ele>1124.771</ele>
        <time>2022-03-22T13:22:53Z</time>
      </trkpt>
      <trkpt lat="44.37733" lon="5.78335">
        <ele>1124.371</ele>
        <time>2022-03-22T13:22:55Z</time>
      </trkpt>
      <trkpt lat="44.37732" lon="5.78335">
        <ele>1124.172</ele>
        <time>2022-03-22T13:22:56Z</time>
      </trkpt>
      <trkpt lat="44.37731" lon="5.78336">
        <ele>1123.772</ele>
        <time>2022-03-22T13:22:57Z</time>
      </trkpt>
      <trkpt lat="44.3773" lon="5.78336">
        <ele>1123.472</ele>
        <time>2022-03-22T13:22:58Z</time>
      </trkpt>
      <trkpt lat="44.37728" lon="5.78337">
        <ele>1123.172</ele>
        <time>2022-03-22T13:22:59Z</time>
      </trkpt>
      <trkpt lat="44.37728" lon="5.78337">
        <ele>1122.872</ele>
        <time>2022-03-22T13:23:00Z</time>
      </trkpt>
      <trkpt lat="44.37727" lon="5.78338">
        <ele>1122.672</ele>
        <time>2022-03-22T13:23:01Z</time>
      </trkpt>
      <trkpt lat="44.37726" lon="5.78338">
        <ele>1122.472</ele>
        <time>2022-03-22T13:23:02Z</time>
      </trkpt>
      <trkpt lat="44.37725" lon="5.78339">
        <ele>1122.272</ele>
        <time>2022-03-22T13:23:03Z</time>
      </trkpt>
      <trkpt lat="44.37724" lon="5.78339">
        <ele>1122.172</ele>
        <time>2022-03-22T13:23:04Z</time>
      </trkpt>
      <trkpt lat="44.37723" lon="5.7834">
        <ele>1121.872</ele>
        <time>2022-03-22T13:23:05Z</time>
      </trkpt>
      <trkpt lat="44.37722" lon="5.78341">
        <ele>1121.572</ele>
        <time>2022-03-22T13:23:06Z</time>
      </trkpt>
      <trkpt lat="44.37721" lon="5.78341">
        <ele>1121.472</ele>
        <time>2022-03-22T13:23:07Z</time>
      </trkpt>
      <trkpt lat="44.37719" lon="5.78342">
        <ele>1121.472</ele>
        <time>2022-03-22T13:23:09Z</time>
      </trkpt>
      <trkpt lat="44.37718" lon="5.78343">
        <ele>1121.372</ele>
        <time>2022-03-22T13:23:10Z</time>
      </trkpt>
      <trkpt lat="44.37717" lon="5.78344">
        <ele>1121.272</ele>
        <time>2022-03-22T13:23:11Z</time>
      </trkpt>
      <trkpt lat="44.37716" lon="5.78345">
        <ele>1121.072</ele>
        <time>2022-03-22T13:23:12Z</time>
      </trkpt>
      <trkpt lat="44.37714" lon="5.78345">
        <ele>1120.872</ele>
        <time>2022-03-22T13:23:14Z</time>
      </trkpt>
      <trkpt lat="44.37713" lon="5.78346">
        <ele>1120.672</ele>
        <time>2022-03-22T13:23:15Z</time>
      </trkpt>
      <trkpt lat="44.37712" lon="5.78346">
        <ele>1120.272</ele>
        <time>2022-03-22T13:23:16Z</time>
      </trkpt>
      <trkpt lat="44.3771" lon="5.78346">
        <ele>1120.072</ele>
        <time>2022-03-22T13:23:18Z</time>
      </trkpt>
      <trkpt lat="44.37709" lon="5.78346">
        <ele>1119.972</ele>
        <time>2022-03-22T13:23:19Z</time>
      </trkpt>
      <trkpt lat="44.37708" lon="5.78345">
        <ele>1119.472</ele>
        <time>2022-03-22T13:23:22Z</time>
      </trkpt>
      <trkpt lat="44.37707" lon="5.78345">
        <ele>1119.272</ele>
        <time>2022-03-22T13:23:24Z</time>
      </trkpt>
      <trkpt lat="44.37706" lon="5.78345">
        <ele>1119.472</ele>
        <time>2022-03-22T13:23:26Z</time>
      </trkpt>
      <trkpt lat="44.37706" lon="5.78345">
        <ele>1119.672</ele>
        <time>2022-03-22T13:23:27Z</time>
      </trkpt>
      <trkpt lat="44.37706" lon="5.78345">
        <ele>1119.972</ele>
        <time>2022-03-22T13:25:51Z</time>
      </trkpt>
      <trkpt lat="44.37704" lon="5.7835">
        <ele>1125.372</ele>
        <time>2022-03-22T13:25:52Z</time>
      </trkpt>
      <trkpt lat="44.37703" lon="5.78351">
        <ele>1125.272</ele>
        <time>2022-03-22T13:25:53Z</time>
      </trkpt>
      <trkpt lat="44.37702" lon="5.78351">
        <ele>1124.572</ele>
        <time>2022-03-22T13:25:55Z</time>
      </trkpt>
      <trkpt lat="44.37701" lon="5.78351">
        <ele>1123.572</ele>
        <time>2022-03-22T13:25:57Z</time>
      </trkpt>
      <trkpt lat="44.37699" lon="5.7835">
        <ele>1122.172</ele>
        <time>2022-03-22T13:26:02Z</time>
      </trkpt>
      <trkpt lat="44.37698" lon="5.78351">
        <ele>1121.572</ele>
        <time>2022-03-22T13:26:04Z</time>
      </trkpt>
      <trkpt lat="44.37697" lon="5.78351">
        <ele>1121.272</ele>
        <time>2022-03-22T13:26:05Z</time>
      </trkpt>
      <trkpt lat="44.37696" lon="5.78352">
        <ele>1121.072</ele>
        <time>2022-03-22T13:26:06Z</time>
      </trkpt>
      <trkpt lat="44.37696" lon="5.78352">
        <ele>1120.272</ele>
        <time>2022-03-22T13:26:08Z</time>
      </trkpt>
      <trkpt lat="44.37695" lon="5.78352">
        <ele>1119.672</ele>
        <time>2022-03-22T13:26:10Z</time>
      </trkpt>
      <trkpt lat="44.37694" lon="5.78352">
        <ele>1119.072</ele>
        <time>2022-03-22T13:26:12Z</time>
      </trkpt>
      <trkpt lat="44.37692" lon="5.78352">
        <ele>1118.672</ele>
        <time>2022-03-22T13:26:14Z</time>
      </trkpt>
      <trkpt lat="44.37691" lon="5.78353">
        <ele>1118.072</ele>
        <time>2022-03-22T13:26:16Z</time>
      </trkpt>
      <trkpt lat="44.3769" lon="5.78353">
        <ele>1117.372</ele>
        <time>2022-03-22T13:26:18Z</time>
      </trkpt>
      <trkpt lat="44.37688" lon="5.78353">
        <ele>1116.772</ele>
        <time>2022-03-22T13:26:20Z</time>
      </trkpt>
      <trkpt lat="44.37687" lon="5.78355">
        <ele>1116.172</ele>
        <time>2022-03-22T13:26:22Z</time>
      </trkpt>
      <trkpt lat="44.37686" lon="5.78356">
        <ele>1115.472</ele>
        <time>2022-03-22T13:26:24Z</time>
      </trkpt>
      <trkpt lat="44.37685" lon="5.78357">
        <ele>1115.072</ele>
        <time>2022-03-22T13:26:26Z</time>
      </trkpt>
      <trkpt lat="44.37684" lon="5.78358">
        <ele>1114.772</ele>
        <time>2022-03-22T13:26:29Z</time>
      </trkpt>
      <trkpt lat="44.37683" lon="5.78358">
        <ele>1114.473</ele>
        <time>2022-03-22T13:26:31Z</time>
      </trkpt>
      <trkpt lat="44.37682" lon="5.78358">
        <ele>1114.273</ele>
        <time>2022-03-22T13:26:33Z</time>
      </trkpt>
      <trkpt lat="44.37682" lon="5.7836">
        <ele>1114.173</ele>
        <time>2022-03-22T13:26:35Z</time>
      </trkpt>
      <trkpt lat="44.37681" lon="5.78361">
        <ele>1114.373</ele>
        <time>2022-03-22T13:26:36Z</time>
      </trkpt>
      <trkpt lat="44.3768" lon="5.78363">
        <ele>1114.873</ele>
        <time>2022-03-22T13:26:38Z</time>
      </trkpt>
      <trkpt lat="44.3768" lon="5.78364">
        <ele>1114.973</ele>
        <time>2022-03-22T13:26:40Z</time>
      </trkpt>
      <trkpt lat="44.37679" lon="5.78365">
        <ele>1114.973</ele>
        <time>2022-03-22T13:26:42Z</time>
      </trkpt>
      <trkpt lat="44.37678" lon="5.78367">
        <ele>1114.873</ele>
        <time>2022-03-22T13:26:44Z</time>
      </trkpt>
      <trkpt lat="44.37677" lon="5.78368">
        <ele>1114.773</ele>
        <time>2022-03-22T13:26:46Z</time>
      </trkpt>
      <trkpt lat="44.37675" lon="5.7837">
        <ele>1115.073</ele>
        <time>2022-03-22T13:26:48Z</time>
      </trkpt>
      <trkpt lat="44.37674" lon="5.78371">
        <ele>1115.073</ele>
        <time>2022-03-22T13:26:50Z</time>
      </trkpt>
      <trkpt lat="44.37673" lon="5.78372">
        <ele>1114.873</ele>
        <time>2022-03-22T13:26:52Z</time>
      </trkpt>
      <trkpt lat="44.37671" lon="5.78373">
        <ele>1114.773</ele>
        <time>2022-03-22T13:26:54Z</time>
      </trkpt>
      <trkpt lat="44.37671" lon="5.78373">
        <ele>1114.873</ele>
        <time>2022-03-22T13:26:55Z</time>
      </trkpt>
      <trkpt lat="44.3767" lon="5.78374">
        <ele>1114.773</ele>
        <time>2022-03-22T13:26:56Z</time>
      </trkpt>
      <trkpt lat="44.37669" lon="5.78375">
        <ele>1114.673</ele>
        <time>2022-03-22T13:26:57Z</time>
      </trkpt>
      <trkpt lat="44.37668" lon="5.78376">
        <ele>1114.573</ele>
        <time>2022-03-22T13:26:58Z</time>
      </trkpt>
      <trkpt lat="44.37667" lon="5.78376">
        <ele>1114.373</ele>
        <time>2022-03-22T13:26:59Z</time>
      </trkpt>
      <trkpt lat="44.37666" lon="5.78378">
        <ele>1114.173</ele>
        <time>2022-03-22T13:27:01Z</time>
      </trkpt>
      <trkpt lat="44.37665" lon="5.78378">
        <ele>1113.573</ele>
        <time>2022-03-22T13:27:03Z</time>
      </trkpt>
      <trkpt lat="44.37664" lon="5.78379">
        <ele>1113.273</ele>
        <time>2022-03-22T13:27:05Z</time>
      </trkpt>
      <trkpt lat="44.37663" lon="5.7838">
        <ele>1113.073</ele>
        <time>2022-03-22T13:27:07Z</time>
      </trkpt>
      <trkpt lat="44.37662" lon="5.78381">
        <ele>1112.973</ele>
        <time>2022-03-22T13:27:08Z</time>
      </trkpt>
      <trkpt lat="44.37661" lon="5.78382">
        <ele>1112.673</ele>
        <time>2022-03-22T13:27:10Z</time>
      </trkpt>
      <trkpt lat="44.3766" lon="5.78383">
        <ele>1112.273</ele>
        <time>2022-03-22T13:27:12Z</time>
      </trkpt>
      <trkpt lat="44.37658" lon="5.78383">
        <ele>1111.773</ele>
        <time>2022-03-22T13:27:14Z</time>
      </trkpt>
      <trkpt lat="44.37657" lon="5.78384">
        <ele>1111.273</ele>
        <time>2022-03-22T13:27:16Z</time>
      </trkpt>
      <trkpt lat="44.37656" lon="5.78385">
        <ele>1110.973</ele>
        <time>2022-03-22T13:27:18Z</time>
      </trkpt>
      <trkpt lat="44.37655" lon="5.78386">
        <ele>1110.373</ele>
        <time>2022-03-22T13:27:20Z</time>
      </trkpt>
      <trkpt lat="44.37654" lon="5.78387">
        <ele>1109.873</ele>
        <time>2022-03-22T13:27:22Z</time>
      </trkpt>
      <trkpt lat="44.37653" lon="5.78388">
        <ele>1109.273</ele>
        <time>2022-03-22T13:27:24Z</time>
      </trkpt>
      <trkpt lat="44.37652" lon="5.78389">
        <ele>1108.573</ele>
        <time>2022-03-22T13:27:26Z</time>
      </trkpt>
      <trkpt lat="44.37651" lon="5.7839">
        <ele>1108.273</ele>
        <time>2022-03-22T13:27:28Z</time>
      </trkpt>
      <trkpt lat="44.3765" lon="5.78391">
        <ele>1107.973</ele>
        <time>2022-03-22T13:27:30Z</time>
      </trkpt>
      <trkpt lat="44.37649" lon="5.78393">
        <ele>1107.373</ele>
        <time>2022-03-22T13:27:32Z</time>
      </trkpt>
      <trkpt lat="44.37648" lon="5.78394">
        <ele>1107.273</ele>
        <time>2022-03-22T13:27:33Z</time>
      </trkpt>
      <trkpt lat="44.37647" lon="5.78396">
        <ele>1106.873</ele>
        <time>2022-03-22T13:27:35Z</time>
      </trkpt>
      <trkpt lat="44.37646" lon="5.78397">
        <ele>1106.873</ele>
        <time>2022-03-22T13:27:37Z</time>
      </trkpt>
      <trkpt lat="44.37645" lon="5.78399">
        <ele>1106.973</ele>
        <time>2022-03-22T13:27:39Z</time>
      </trkpt>
      <trkpt lat="44.37644" lon="5.78401">
        <ele>1106.873</ele>
        <time>2022-03-22T13:27:41Z</time>
      </trkpt>
      <trkpt lat="44.37643" lon="5.78402">
        <ele>1106.873</ele>
        <time>2022-03-22T13:27:42Z</time>
      </trkpt>
      <trkpt lat="44.37643" lon="5.78403">
        <ele>1106.673</ele>
        <time>2022-03-22T13:27:43Z</time>
      </trkpt>
      <trkpt lat="44.37641" lon="5.78405">
        <ele>1105.773</ele>
        <time>2022-03-22T13:27:45Z</time>
      </trkpt>
      <trkpt lat="44.3764" lon="5.78406">
        <ele>1105.473</ele>
        <time>2022-03-22T13:27:47Z</time>
      </trkpt>
      <trkpt lat="44.37639" lon="5.78407">
        <ele>1104.773</ele>
        <time>2022-03-22T13:27:49Z</time>
      </trkpt>
      <trkpt lat="44.37638" lon="5.78409">
        <ele>1103.873</ele>
        <time>2022-03-22T13:27:51Z</time>
      </trkpt>
      <trkpt lat="44.37637" lon="5.7841">
        <ele>1103.473</ele>
        <time>2022-03-22T13:27:52Z</time>
      </trkpt>
      <trkpt lat="44.37636" lon="5.78411">
        <ele>1103.273</ele>
        <time>2022-03-22T13:27:53Z</time>
      </trkpt>
      <trkpt lat="44.37636" lon="5.78412">
        <ele>1102.673</ele>
        <time>2022-03-22T13:27:55Z</time>
      </trkpt>
      <trkpt lat="44.37635" lon="5.78414">
        <ele>1101.873</ele>
        <time>2022-03-22T13:27:57Z</time>
      </trkpt>
      <trkpt lat="44.37634" lon="5.78416">
        <ele>1101.073</ele>
        <time>2022-03-22T13:27:59Z</time>
      </trkpt>
      <trkpt lat="44.37634" lon="5.78417">
        <ele>1101.073</ele>
        <time>2022-03-22T13:28:00Z</time>
      </trkpt>
      <trkpt lat="44.37633" lon="5.78418">
        <ele>1100.973</ele>
        <time>2022-03-22T13:28:01Z</time>
      </trkpt>
      <trkpt lat="44.37633" lon="5.7842">
        <ele>1100.873</ele>
        <time>2022-03-22T13:28:02Z</time>
      </trkpt>
      <trkpt lat="44.37632" lon="5.78421">
        <ele>1100.673</ele>
        <time>2022-03-22T13:28:03Z</time>
      </trkpt>
      <trkpt lat="44.37632" lon="5.78422">
        <ele>1100.573</ele>
        <time>2022-03-22T13:28:04Z</time>
      </trkpt>
      <trkpt lat="44.37631" lon="5.78423">
        <ele>1100.473</ele>
        <time>2022-03-22T13:28:06Z</time>
      </trkpt>
      <trkpt lat="44.37631" lon="5.78425">
        <ele>1100.273</ele>
        <time>2022-03-22T13:28:08Z</time>
      </trkpt>
      <trkpt lat="44.3763" lon="5.78426">
        <ele>1100.373</ele>
        <time>2022-03-22T13:28:09Z</time>
      </trkpt>
      <trkpt lat="44.37629" lon="5.78428">
        <ele>1100.173</ele>
        <time>2022-03-22T13:28:11Z</time>
      </trkpt>
      <trkpt lat="44.37629" lon="5.7843">
        <ele>1100.073</ele>
        <time>2022-03-22T13:28:12Z</time>
      </trkpt>
      <trkpt lat="44.37628" lon="5.78431">
        <ele>1099.773</ele>
        <time>2022-03-22T13:28:13Z</time>
      </trkpt>
      <trkpt lat="44.37628" lon="5.78432">
        <ele>1099.773</ele>
        <time>2022-03-22T13:28:14Z</time>
      </trkpt>
      <trkpt lat="44.37628" lon="5.78434">
        <ele>1099.273</ele>
        <time>2022-03-22T13:28:16Z</time>
      </trkpt>
      <trkpt lat="44.37628" lon="5.78436">
        <ele>1098.973</ele>
        <time>2022-03-22T13:28:18Z</time>
      </trkpt>
      <trkpt lat="44.37627" lon="5.78438">
        <ele>1098.173</ele>
        <time>2022-03-22T13:28:20Z</time>
      </trkpt>
      <trkpt lat="44.37627" lon="5.7844">
        <ele>1097.073</ele>
        <time>2022-03-22T13:28:22Z</time>
      </trkpt>
      <trkpt lat="44.37627" lon="5.78442">
        <ele>1096.573</ele>
        <time>2022-03-22T13:28:24Z</time>
      </trkpt>
      <trkpt lat="44.37627" lon="5.78444">
        <ele>1096.073</ele>
        <time>2022-03-22T13:28:26Z</time>
      </trkpt>
      <trkpt lat="44.37626" lon="5.78447">
        <ele>1095.873</ele>
        <time>2022-03-22T13:28:28Z</time>
      </trkpt>
      <trkpt lat="44.37625" lon="5.78448">
        <ele>1095.673</ele>
        <time>2022-03-22T13:28:30Z</time>
      </trkpt>
      <trkpt lat="44.37624" lon="5.7845">
        <ele>1095.473</ele>
        <time>2022-03-22T13:28:32Z</time>
      </trkpt>
      <trkpt lat="44.37623" lon="5.78451">
        <ele>1095.073</ele>
        <time>2022-03-22T13:28:34Z</time>
      </trkpt>
      <trkpt lat="44.37623" lon="5.78453">
        <ele>1094.773</ele>
        <time>2022-03-22T13:28:36Z</time>
      </trkpt>
      <trkpt lat="44.37622" lon="5.78454">
        <ele>1094.673</ele>
        <time>2022-03-22T13:28:38Z</time>
      </trkpt>
      <trkpt lat="44.3762" lon="5.78456">
        <ele>1094.673</ele>
        <time>2022-03-22T13:28:40Z</time>
      </trkpt>
      <trkpt lat="44.37619" lon="5.78457">
        <ele>1094.573</ele>
        <time>2022-03-22T13:28:42Z</time>
      </trkpt>
      <trkpt lat="44.37618" lon="5.78459">
        <ele>1094.173</ele>
        <time>2022-03-22T13:28:44Z</time>
      </trkpt>
      <trkpt lat="44.37617" lon="5.7846">
        <ele>1093.773</ele>
        <time>2022-03-22T13:28:46Z</time>
      </trkpt>
      <trkpt lat="44.37615" lon="5.7846">
        <ele>1093.473</ele>
        <time>2022-03-22T13:28:48Z</time>
      </trkpt>
      <trkpt lat="44.37614" lon="5.78459">
        <ele>1093.473</ele>
        <time>2022-03-22T13:28:50Z</time>
      </trkpt>
      <trkpt lat="44.37613" lon="5.78459">
        <ele>1093.173</ele>
        <time>2022-03-22T13:28:52Z</time>
      </trkpt>
      <trkpt lat="44.37612" lon="5.78458">
        <ele>1093.073</ele>
        <time>2022-03-22T13:28:53Z</time>
      </trkpt>
      <trkpt lat="44.37611" lon="5.78458">
        <ele>1092.873</ele>
        <time>2022-03-22T13:28:54Z</time>
      </trkpt>
      <trkpt lat="44.3761" lon="5.78458">
        <ele>1092.873</ele>
        <time>2022-03-22T13:28:55Z</time>
      </trkpt>
      <trkpt lat="44.37609" lon="5.78458">
        <ele>1092.773</ele>
        <time>2022-03-22T13:28:56Z</time>
      </trkpt>
      <trkpt lat="44.37608" lon="5.78458">
        <ele>1092.373</ele>
        <time>2022-03-22T13:28:58Z</time>
      </trkpt>
      <trkpt lat="44.37606" lon="5.78457">
        <ele>1092.073</ele>
        <time>2022-03-22T13:29:00Z</time>
      </trkpt>
      <trkpt lat="44.37606" lon="5.78457">
        <ele>1092.073</ele>
        <time>2022-03-22T13:29:01Z</time>
      </trkpt>
      <trkpt lat="44.37605" lon="5.78457">
        <ele>1091.974</ele>
        <time>2022-03-22T13:29:02Z</time>
      </trkpt>
      <trkpt lat="44.37603" lon="5.78457">
        <ele>1091.574</ele>
        <time>2022-03-22T13:29:04Z</time>
      </trkpt>
      <trkpt lat="44.37602" lon="5.78457">
        <ele>1091.374</ele>
        <time>2022-03-22T13:29:06Z</time>
      </trkpt>
      <trkpt lat="44.37601" lon="5.78456">
        <ele>1091.274</ele>
        <time>2022-03-22T13:29:08Z</time>
      </trkpt>
      <trkpt lat="44.376" lon="5.78455">
        <ele>1090.774</ele>
        <time>2022-03-22T13:29:10Z</time>
      </trkpt>
      <trkpt lat="44.37599" lon="5.78454">
        <ele>1090.174</ele>
        <time>2022-03-22T13:29:12Z</time>
      </trkpt>
      <trkpt lat="44.37598" lon="5.78453">
        <ele>1089.474</ele>
        <time>2022-03-22T13:29:14Z</time>
      </trkpt>
      <trkpt lat="44.37597" lon="5.78452">
        <ele>1089.274</ele>
        <time>2022-03-22T13:29:15Z</time>
      </trkpt>
      <trkpt lat="44.37596" lon="5.78452">
        <ele>1088.874</ele>
        <time>2022-03-22T13:29:16Z</time>
      </trkpt>
      <trkpt lat="44.37595" lon="5.78451">
        <ele>1088.474</ele>
        <time>2022-03-22T13:29:17Z</time>
      </trkpt>
      <trkpt lat="44.37594" lon="5.7845">
        <ele>1087.774</ele>
        <time>2022-03-22T13:29:19Z</time>
      </trkpt>
      <trkpt lat="44.37593" lon="5.78449">
        <ele>1087.374</ele>
        <time>2022-03-22T13:29:21Z</time>
      </trkpt>
      <trkpt lat="44.37591" lon="5.78448">
        <ele>1086.874</ele>
        <time>2022-03-22T13:29:23Z</time>
      </trkpt>
      <trkpt lat="44.3759" lon="5.78447">
        <ele>1086.474</ele>
        <time>2022-03-22T13:29:25Z</time>
      </trkpt>
      <trkpt lat="44.37589" lon="5.78447">
        <ele>1085.974</ele>
        <time>2022-03-22T13:29:27Z</time>
      </trkpt>
      <trkpt lat="44.37588" lon="5.78446">
        <ele>1085.774</ele>
        <time>2022-03-22T13:29:29Z</time>
      </trkpt>
      <trkpt lat="44.37587" lon="5.78446">
        <ele>1085.574</ele>
        <time>2022-03-22T13:29:30Z</time>
      </trkpt>
      <trkpt lat="44.37586" lon="5.78445">
        <ele>1085.474</ele>
        <time>2022-03-22T13:29:31Z</time>
      </trkpt>
      <trkpt lat="44.37586" lon="5.78445">
        <ele>1085.474</ele>
        <time>2022-03-22T13:29:32Z</time>
      </trkpt>
      <trkpt lat="44.37584" lon="5.78443">
        <ele>1085.274</ele>
        <time>2022-03-22T13:29:34Z</time>
      </trkpt>
      <trkpt lat="44.37583" lon="5.78442">
        <ele>1084.674</ele>
        <time>2022-03-22T13:29:36Z</time>
      </trkpt>
      <trkpt lat="44.37582" lon="5.78442">
        <ele>1084.274</ele>
        <time>2022-03-22T13:29:38Z</time>
      </trkpt>
      <trkpt lat="44.3758" lon="5.78442">
        <ele>1083.674</ele>
        <time>2022-03-22T13:29:40Z</time>
      </trkpt>
      <trkpt lat="44.37578" lon="5.78443">
        <ele>1082.974</ele>
        <time>2022-03-22T13:29:42Z</time>
      </trkpt>
      <trkpt lat="44.37577" lon="5.78443">
        <ele>1082.174</ele>
        <time>2022-03-22T13:29:44Z</time>
      </trkpt>
      <trkpt lat="44.37576" lon="5.78444">
        <ele>1081.474</ele>
        <time>2022-03-22T13:29:46Z</time>
      </trkpt>
      <trkpt lat="44.37575" lon="5.78444">
        <ele>1081.274</ele>
        <time>2022-03-22T13:29:48Z</time>
      </trkpt>
      <trkpt lat="44.37574" lon="5.78444">
        <ele>1080.674</ele>
        <time>2022-03-22T13:29:50Z</time>
      </trkpt>
      <trkpt lat="44.37573" lon="5.78443">
        <ele>1080.374</ele>
        <time>2022-03-22T13:29:51Z</time>
      </trkpt>
      <trkpt lat="44.37572" lon="5.78443">
        <ele>1080.274</ele>
        <time>2022-03-22T13:29:52Z</time>
      </trkpt>
      <trkpt lat="44.37571" lon="5.78443">
        <ele>1080.075</ele>
        <time>2022-03-22T13:29:53Z</time>
      </trkpt>
      <trkpt lat="44.37569" lon="5.78443">
        <ele>1079.775</ele>
        <time>2022-03-22T13:29:55Z</time>
      </trkpt>
      <trkpt lat="44.37567" lon="5.78443">
        <ele>1079.275</ele>
        <time>2022-03-22T13:29:57Z</time>
      </trkpt>
      <trkpt lat="44.37567" lon="5.78443">
        <ele>1079.275</ele>
        <time>2022-03-22T13:29:58Z</time>
      </trkpt>
      <trkpt lat="44.37566" lon="5.78444">
        <ele>1078.975</ele>
        <time>2022-03-22T13:29:59Z</time>
      </trkpt>
      <trkpt lat="44.37564" lon="5.78445">
        <ele>1078.875</ele>
        <time>2022-03-22T13:30:01Z</time>
      </trkpt>
      <trkpt lat="44.37563" lon="5.78445">
        <ele>1078.675</ele>
        <time>2022-03-22T13:30:03Z</time>
      </trkpt>
      <trkpt lat="44.37562" lon="5.78445">
        <ele>1078.675</ele>
        <time>2022-03-22T13:30:04Z</time>
      </trkpt>
      <trkpt lat="44.37561" lon="5.78446">
        <ele>1078.475</ele>
        <time>2022-03-22T13:30:05Z</time>
      </trkpt>
      <trkpt lat="44.3756" lon="5.78447">
        <ele>1078.275</ele>
        <time>2022-03-22T13:30:07Z</time>
      </trkpt>
      <trkpt lat="44.37559" lon="5.78448">
        <ele>1077.775</ele>
        <time>2022-03-22T13:30:09Z</time>
      </trkpt>
      <trkpt lat="44.37558" lon="5.78447">
        <ele>1077.375</ele>
        <time>2022-03-22T13:30:11Z</time>
      </trkpt>
      <trkpt lat="44.37556" lon="5.78447">
        <ele>1077.275</ele>
        <time>2022-03-22T13:30:13Z</time>
      </trkpt>
      <trkpt lat="44.37555" lon="5.78446">
        <ele>1076.975</ele>
        <time>2022-03-22T13:30:15Z</time>
      </trkpt>
      <trkpt lat="44.37554" lon="5.78445">
        <ele>1076.575</ele>
        <time>2022-03-22T13:30:17Z</time>
      </trkpt>
      <trkpt lat="44.37553" lon="5.78444">
        <ele>1076.375</ele>
        <time>2022-03-22T13:30:19Z</time>
      </trkpt>
      <trkpt lat="44.37551" lon="5.78443">
        <ele>1075.975</ele>
        <time>2022-03-22T13:30:21Z</time>
      </trkpt>
      <trkpt lat="44.3755" lon="5.78443">
        <ele>1075.175</ele>
        <time>2022-03-22T13:30:23Z</time>
      </trkpt>
      <trkpt lat="44.37549" lon="5.78443">
        <ele>1074.775</ele>
        <time>2022-03-22T13:30:26Z</time>
      </trkpt>
      <trkpt lat="44.37548" lon="5.78443">
        <ele>1074.675</ele>
        <time>2022-03-22T13:30:28Z</time>
      </trkpt>
      <trkpt lat="44.37548" lon="5.78443">
        <ele>1074.475</ele>
        <time>2022-03-22T13:30:29Z</time>
      </trkpt>
      <trkpt lat="44.37549" lon="5.78443">
        <ele>1074.475</ele>
        <time>2022-03-22T13:30:47Z</time>
      </trkpt>
      <trkpt lat="44.37548" lon="5.78439">
        <ele>1075.575</ele>
        <time>2022-03-22T13:30:48Z</time>
      </trkpt>
      <trkpt lat="44.37548" lon="5.78437">
        <ele>1075.975</ele>
        <time>2022-03-22T13:30:50Z</time>
      </trkpt>
      <trkpt lat="44.37549" lon="5.78436">
        <ele>1076.375</ele>
        <time>2022-03-22T13:30:52Z</time>
      </trkpt>
      <trkpt lat="44.37549" lon="5.78434">
        <ele>1076.675</ele>
        <time>2022-03-22T13:30:54Z</time>
      </trkpt>
      <trkpt lat="44.3755" lon="5.78433">
        <ele>1076.875</ele>
        <time>2022-03-22T13:30:56Z</time>
      </trkpt>
      <trkpt lat="44.3755" lon="5.78432">
        <ele>1076.975</ele>
        <time>2022-03-22T13:30:58Z</time>
      </trkpt>
      <trkpt lat="44.3755" lon="5.7843">
        <ele>1076.675</ele>
        <time>2022-03-22T13:31:00Z</time>
      </trkpt>
      <trkpt lat="44.3755" lon="5.78428">
        <ele>1076.375</ele>
        <time>2022-03-22T13:31:02Z</time>
      </trkpt>
      <trkpt lat="44.37549" lon="5.78426">
        <ele>1076.275</ele>
        <time>2022-03-22T13:31:04Z</time>
      </trkpt>
      <trkpt lat="44.37549" lon="5.78424">
        <ele>1076.175</ele>
        <time>2022-03-22T13:31:05Z</time>
      </trkpt>
      <trkpt lat="44.37549" lon="5.78422">
        <ele>1076.375</ele>
        <time>2022-03-22T13:31:06Z</time>
      </trkpt>
      <trkpt lat="44.37549" lon="5.78421">
        <ele>1076.175</ele>
        <time>2022-03-22T13:31:07Z</time>
      </trkpt>
      <trkpt lat="44.37549" lon="5.7842">
        <ele>1075.975</ele>
        <time>2022-03-22T13:31:08Z</time>
      </trkpt>
      <trkpt lat="44.37549" lon="5.78418">
        <ele>1076.075</ele>
        <time>2022-03-22T13:31:09Z</time>
      </trkpt>
      <trkpt lat="44.37549" lon="5.78417">
        <ele>1076.175</ele>
        <time>2022-03-22T13:31:10Z</time>
      </trkpt>
      <trkpt lat="44.3755" lon="5.78415">
        <ele>1076.175</ele>
        <time>2022-03-22T13:31:12Z</time>
      </trkpt>
      <trkpt lat="44.37551" lon="5.78413">
        <ele>1076.075</ele>
        <time>2022-03-22T13:31:14Z</time>
      </trkpt>
      <trkpt lat="44.3755" lon="5.78411">
        <ele>1075.575</ele>
        <time>2022-03-22T13:31:16Z</time>
      </trkpt>
      <trkpt lat="44.3755" lon="5.7841">
        <ele>1074.875</ele>
        <time>2022-03-22T13:31:18Z</time>
      </trkpt>
      <trkpt lat="44.3755" lon="5.78408">
        <ele>1074.575</ele>
        <time>2022-03-22T13:31:20Z</time>
      </trkpt>
      <trkpt lat="44.37551" lon="5.78407">
        <ele>1073.875</ele>
        <time>2022-03-22T13:31:22Z</time>
      </trkpt>
      <trkpt lat="44.37551" lon="5.78405">
        <ele>1073.575</ele>
        <time>2022-03-22T13:31:24Z</time>
      </trkpt>
      <trkpt lat="44.37552" lon="5.78403">
        <ele>1073.075</ele>
        <time>2022-03-22T13:31:26Z</time>
      </trkpt>
      <trkpt lat="44.37552" lon="5.78401">
        <ele>1072.375</ele>
        <time>2022-03-22T13:31:28Z</time>
      </trkpt>
      <trkpt lat="44.37552" lon="5.78398">
        <ele>1072.075</ele>
        <time>2022-03-22T13:31:30Z</time>
      </trkpt>
      <trkpt lat="44.37552" lon="5.78397">
        <ele>1071.875</ele>
        <time>2022-03-22T13:31:31Z</time>
      </trkpt>
      <trkpt lat="44.37552" lon="5.78395">
        <ele>1071.175</ele>
        <time>2022-03-22T13:31:33Z</time>
      </trkpt>
      <trkpt lat="44.37552" lon="5.78393">
        <ele>1070.575</ele>
        <time>2022-03-22T13:31:35Z</time>
      </trkpt>
      <trkpt lat="44.37552" lon="5.78391">
        <ele>1070.175</ele>
        <time>2022-03-22T13:31:37Z</time>
      </trkpt>
      <trkpt lat="44.37552" lon="5.7839">
        <ele>1069.975</ele>
        <time>2022-03-22T13:31:38Z</time>
      </trkpt>
      <trkpt lat="44.37553" lon="5.78388">
        <ele>1069.675</ele>
        <time>2022-03-22T13:31:40Z</time>
      </trkpt>
      <trkpt lat="44.37553" lon="5.78386">
        <ele>1069.175</ele>
        <time>2022-03-22T13:31:42Z</time>
      </trkpt>
      <trkpt lat="44.37553" lon="5.78384">
        <ele>1068.576</ele>
        <time>2022-03-22T13:31:44Z</time>
      </trkpt>
      <trkpt lat="44.37553" lon="5.78381">
        <ele>1067.576</ele>
        <time>2022-03-22T13:31:47Z</time>
      </trkpt>
      <trkpt lat="44.37552" lon="5.7838">
        <ele>1067.276</ele>
        <time>2022-03-22T13:31:49Z</time>
      </trkpt>
      <trkpt lat="44.37552" lon="5.78379">
        <ele>1067.076</ele>
        <time>2022-03-22T13:31:50Z</time>
      </trkpt>
      <trkpt lat="44.37551" lon="5.78378">
        <ele>1066.376</ele>
        <time>2022-03-22T13:31:52Z</time>
      </trkpt>
      <trkpt lat="44.37551" lon="5.78376">
        <ele>1066.076</ele>
        <time>2022-03-22T13:31:54Z</time>
      </trkpt>
      <trkpt lat="44.37551" lon="5.78374">
        <ele>1065.976</ele>
        <time>2022-03-22T13:31:56Z</time>
      </trkpt>
      <trkpt lat="44.37551" lon="5.78372">
        <ele>1065.576</ele>
        <time>2022-03-22T13:31:58Z</time>
      </trkpt>
      <trkpt lat="44.37549" lon="5.78371">
        <ele>1064.576</ele>
        <time>2022-03-22T13:32:00Z</time>
      </trkpt>
      <trkpt lat="44.37548" lon="5.78371">
        <ele>1064.076</ele>
        <time>2022-03-22T13:32:02Z</time>
      </trkpt>
      <trkpt lat="44.37547" lon="5.78369">
        <ele>1063.776</ele>
        <time>2022-03-22T13:32:04Z</time>
      </trkpt>
      <trkpt lat="44.37547" lon="5.78368">
        <ele>1063.876</ele>
        <time>2022-03-22T13:32:06Z</time>
      </trkpt>
      <trkpt lat="44.37545" lon="5.78366">
        <ele>1064.376</ele>
        <time>2022-03-22T13:32:08Z</time>
      </trkpt>
      <trkpt lat="44.37544" lon="5.78365">
        <ele>1063.876</ele>
        <time>2022-03-22T13:32:10Z</time>
      </trkpt>
      <trkpt lat="44.37543" lon="5.78364">
        <ele>1063.476</ele>
        <time>2022-03-22T13:32:12Z</time>
      </trkpt>
      <trkpt lat="44.37541" lon="5.78364">
        <ele>1062.676</ele>
        <time>2022-03-22T13:32:14Z</time>
      </trkpt>
      <trkpt lat="44.3754" lon="5.78365">
        <ele>1061.876</ele>
        <time>2022-03-22T13:32:16Z</time>
      </trkpt>
      <trkpt lat="44.37539" lon="5.78365">
        <ele>1060.976</ele>
        <time>2022-03-22T13:32:18Z</time>
      </trkpt>
      <trkpt lat="44.37537" lon="5.78365">
        <ele>1060.276</ele>
        <time>2022-03-22T13:32:20Z</time>
      </trkpt>
      <trkpt lat="44.37536" lon="5.78365">
        <ele>1059.576</ele>
        <time>2022-03-22T13:32:22Z</time>
      </trkpt>
      <trkpt lat="44.37534" lon="5.78365">
        <ele>1059.076</ele>
        <time>2022-03-22T13:32:24Z</time>
      </trkpt>
      <trkpt lat="44.37533" lon="5.78364">
        <ele>1058.176</ele>
        <time>2022-03-22T13:32:26Z</time>
      </trkpt>
      <trkpt lat="44.37532" lon="5.78363">
        <ele>1057.976</ele>
        <time>2022-03-22T13:32:28Z</time>
      </trkpt>
      <trkpt lat="44.37532" lon="5.78361">
        <ele>1057.776</ele>
        <time>2022-03-22T13:32:30Z</time>
      </trkpt>
      <trkpt lat="44.37531" lon="5.78359">
        <ele>1058.176</ele>
        <time>2022-03-22T13:32:32Z</time>
      </trkpt>
      <trkpt lat="44.37531" lon="5.78357">
        <ele>1058.176</ele>
        <time>2022-03-22T13:32:34Z</time>
      </trkpt>
      <trkpt lat="44.37529" lon="5.78356">
        <ele>1058.176</ele>
        <time>2022-03-22T13:32:36Z</time>
      </trkpt>
      <trkpt lat="44.37528" lon="5.78354">
        <ele>1057.976</ele>
        <time>2022-03-22T13:32:38Z</time>
      </trkpt>
      <trkpt lat="44.37527" lon="5.78353">
        <ele>1057.776</ele>
        <time>2022-03-22T13:32:39Z</time>
      </trkpt>
      <trkpt lat="44.37527" lon="5.78352">
        <ele>1057.576</ele>
        <time>2022-03-22T13:32:40Z</time>
      </trkpt>
      <trkpt lat="44.37526" lon="5.78351">
        <ele>1057.477</ele>
        <time>2022-03-22T13:32:42Z</time>
      </trkpt>
      <trkpt lat="44.37525" lon="5.7835">
        <ele>1057.077</ele>
        <time>2022-03-22T13:32:44Z</time>
      </trkpt>
      <trkpt lat="44.37523" lon="5.7835">
        <ele>1056.777</ele>
        <time>2022-03-22T13:32:46Z</time>
      </trkpt>
      <trkpt lat="44.37522" lon="5.78349">
        <ele>1056.777</ele>
        <time>2022-03-22T13:32:48Z</time>
      </trkpt>
      <trkpt lat="44.37521" lon="5.78348">
        <ele>1056.677</ele>
        <time>2022-03-22T13:32:50Z</time>
      </trkpt>
      <trkpt lat="44.3752" lon="5.78347">
        <ele>1056.577</ele>
        <time>2022-03-22T13:32:52Z</time>
      </trkpt>
      <trkpt lat="44.37519" lon="5.78345">
        <ele>1056.277</ele>
        <time>2022-03-22T13:32:54Z</time>
      </trkpt>
      <trkpt lat="44.37519" lon="5.78343">
        <ele>1055.877</ele>
        <time>2022-03-22T13:32:56Z</time>
      </trkpt>
      <trkpt lat="44.37519" lon="5.78341">
        <ele>1055.577</ele>
        <time>2022-03-22T13:32:58Z</time>
      </trkpt>
      <trkpt lat="44.37518" lon="5.7834">
        <ele>1055.477</ele>
        <time>2022-03-22T13:32:59Z</time>
      </trkpt>
      <trkpt lat="44.37517" lon="5.78337">
        <ele>1054.877</ele>
        <time>2022-03-22T13:33:01Z</time>
      </trkpt>
      <trkpt lat="44.37518" lon="5.78334">
        <ele>1054.577</ele>
        <time>2022-03-22T13:33:03Z</time>
      </trkpt>
      <trkpt lat="44.37518" lon="5.78333">
        <ele>1054.777</ele>
        <time>2022-03-22T13:33:05Z</time>
      </trkpt>
      <trkpt lat="44.37517" lon="5.78331">
        <ele>1054.577</ele>
        <time>2022-03-22T13:33:07Z</time>
      </trkpt>
      <trkpt lat="44.37518" lon="5.78329">
        <ele>1054.477</ele>
        <time>2022-03-22T13:33:09Z</time>
      </trkpt>
      <trkpt lat="44.37519" lon="5.78328">
        <ele>1054.377</ele>
        <time>2022-03-22T13:33:11Z</time>
      </trkpt>
      <trkpt lat="44.37519" lon="5.78326">
        <ele>1054.377</ele>
        <time>2022-03-22T13:33:13Z</time>
      </trkpt>
      <trkpt lat="44.37519" lon="5.78324">
        <ele>1054.177</ele>
        <time>2022-03-22T13:33:15Z</time>
      </trkpt>
      <trkpt lat="44.37518" lon="5.78323">
        <ele>1053.977</ele>
        <time>2022-03-22T13:33:18Z</time>
      </trkpt>
      <trkpt lat="44.37518" lon="5.78322">
        <ele>1053.477</ele>
        <time>2022-03-22T13:33:21Z</time>
      </trkpt>
      <trkpt lat="44.37518" lon="5.78321">
        <ele>1053.477</ele>
        <time>2022-03-22T13:33:22Z</time>
      </trkpt>
      <trkpt lat="44.37517" lon="5.78321">
        <ele>1053.577</ele>
        <time>2022-03-22T13:33:23Z</time>
      </trkpt>
      <trkpt lat="44.37516" lon="5.7832">
        <ele>1053.277</ele>
        <time>2022-03-22T13:33:25Z</time>
      </trkpt>
      <trkpt lat="44.37516" lon="5.78319">
        <ele>1053.077</ele>
        <time>2022-03-22T13:33:26Z</time>
      </trkpt>
      <trkpt lat="44.37516" lon="5.78317">
        <ele>1052.677</ele>
        <time>2022-03-22T13:33:28Z</time>
      </trkpt>
      <trkpt lat="44.37516" lon="5.78315">
        <ele>1052.277</ele>
        <time>2022-03-22T13:33:30Z</time>
      </trkpt>
      <trkpt lat="44.37515" lon="5.78313">
        <ele>1051.877</ele>
        <time>2022-03-22T13:33:31Z</time>
      </trkpt>
      <trkpt lat="44.37515" lon="5.78312">
        <ele>1051.577</ele>
        <time>2022-03-22T13:33:32Z</time>
      </trkpt>
      <trkpt lat="44.37516" lon="5.7831">
        <ele>1051.377</ele>
        <time>2022-03-22T13:33:33Z</time>
      </trkpt>
      <trkpt lat="44.37516" lon="5.78308">
        <ele>1050.777</ele>
        <time>2022-03-22T13:33:35Z</time>
      </trkpt>
      <trkpt lat="44.37516" lon="5.78306">
        <ele>1050.377</ele>
        <time>2022-03-22T13:33:37Z</time>
      </trkpt>
      <trkpt lat="44.37517" lon="5.78303">
        <ele>1049.677</ele>
        <time>2022-03-22T13:33:39Z</time>
      </trkpt>
      <trkpt lat="44.37518" lon="5.78301">
        <ele>1049.177</ele>
        <time>2022-03-22T13:33:41Z</time>
      </trkpt>
      <trkpt lat="44.37518" lon="5.783">
        <ele>1048.677</ele>
        <time>2022-03-22T13:33:42Z</time>
      </trkpt>
      <trkpt lat="44.37518" lon="5.78299">
        <ele>1048.377</ele>
        <time>2022-03-22T13:33:43Z</time>
      </trkpt>
      <trkpt lat="44.37519" lon="5.78297">
        <ele>1047.777</ele>
        <time>2022-03-22T13:33:45Z</time>
      </trkpt>
      <trkpt lat="44.37519" lon="5.78295">
        <ele>1047.077</ele>
        <time>2022-03-22T13:33:47Z</time>
      </trkpt>
      <trkpt lat="44.3752" lon="5.78294">
        <ele>1046.977</ele>
        <time>2022-03-22T13:33:48Z</time>
      </trkpt>
      <trkpt lat="44.37521" lon="5.78293">
        <ele>1047.077</ele>
        <time>2022-03-22T13:33:49Z</time>
      </trkpt>
      <trkpt lat="44.37521" lon="5.78292">
        <ele>1047.077</ele>
        <time>2022-03-22T13:33:50Z</time>
      </trkpt>
      <trkpt lat="44.37522" lon="5.78291">
        <ele>1047.077</ele>
        <time>2022-03-22T13:33:51Z</time>
      </trkpt>
      <trkpt lat="44.37523" lon="5.7829">
        <ele>1046.777</ele>
        <time>2022-03-22T13:33:53Z</time>
      </trkpt>
      <trkpt lat="44.37524" lon="5.78288">
        <ele>1046.377</ele>
        <time>2022-03-22T13:33:55Z</time>
      </trkpt>
      <trkpt lat="44.37525" lon="5.78286">
        <ele>1045.977</ele>
        <time>2022-03-22T13:33:57Z</time>
      </trkpt>
      <trkpt lat="44.37526" lon="5.78285">
        <ele>1045.777</ele>
        <time>2022-03-22T13:33:59Z</time>
      </trkpt>
      <trkpt lat="44.37527" lon="5.78283">
        <ele>1045.277</ele>
        <time>2022-03-22T13:34:01Z</time>
      </trkpt>
      <trkpt lat="44.37528" lon="5.78282">
        <ele>1044.977</ele>
        <time>2022-03-22T13:34:03Z</time>
      </trkpt>
      <trkpt lat="44.37529" lon="5.78281">
        <ele>1044.977</ele>
        <time>2022-03-22T13:34:04Z</time>
      </trkpt>
      <trkpt lat="44.3753" lon="5.78279">
        <ele>1044.877</ele>
        <time>2022-03-22T13:34:06Z</time>
      </trkpt>
      <trkpt lat="44.37531" lon="5.78277">
        <ele>1044.577</ele>
        <time>2022-03-22T13:34:08Z</time>
      </trkpt>
      <trkpt lat="44.37532" lon="5.78275">
        <ele>1044.177</ele>
        <time>2022-03-22T13:34:10Z</time>
      </trkpt>
      <trkpt lat="44.37533" lon="5.78274">
        <ele>1043.777</ele>
        <time>2022-03-22T13:34:11Z</time>
      </trkpt>
      <trkpt lat="44.37533" lon="5.78273">
        <ele>1043.577</ele>
        <time>2022-03-22T13:34:12Z</time>
      </trkpt>
      <trkpt lat="44.37534" lon="5.78271">
        <ele>1043.277</ele>
        <time>2022-03-22T13:34:13Z</time>
      </trkpt>
      <trkpt lat="44.37535" lon="5.7827">
        <ele>1043.177</ele>
        <time>2022-03-22T13:34:15Z</time>
      </trkpt>
      <trkpt lat="44.37536" lon="5.78269">
        <ele>1042.977</ele>
        <time>2022-03-22T13:34:17Z</time>
      </trkpt>
      <trkpt lat="44.37537" lon="5.78268">
        <ele>1042.977</ele>
        <time>2022-03-22T13:34:19Z</time>
      </trkpt>
      <trkpt lat="44.37538" lon="5.78267">
        <ele>1042.477</ele>
        <time>2022-03-22T13:34:21Z</time>
      </trkpt>
      <trkpt lat="44.37539" lon="5.78267">
        <ele>1042.077</ele>
        <time>2022-03-22T13:34:23Z</time>
      </trkpt>
      <trkpt lat="44.3754" lon="5.78266">
        <ele>1041.877</ele>
        <time>2022-03-22T13:34:25Z</time>
      </trkpt>
      <trkpt lat="44.37541" lon="5.78264">
        <ele>1041.277</ele>
        <time>2022-03-22T13:34:27Z</time>
      </trkpt>
      <trkpt lat="44.37542" lon="5.78262">
        <ele>1041.177</ele>
        <time>2022-03-22T13:34:29Z</time>
      </trkpt>
      <trkpt lat="44.37543" lon="5.78262">
        <ele>1040.977</ele>
        <time>2022-03-22T13:34:30Z</time>
      </trkpt>
      <trkpt lat="44.37544" lon="5.78259">
        <ele>1041.077</ele>
        <time>2022-03-22T13:34:32Z</time>
      </trkpt>
      <trkpt lat="44.37545" lon="5.78258">
        <ele>1041.077</ele>
        <time>2022-03-22T13:34:33Z</time>
      </trkpt>
      <trkpt lat="44.37545" lon="5.78257">
        <ele>1041.177</ele>
        <time>2022-03-22T13:34:34Z</time>
      </trkpt>
      <trkpt lat="44.37546" lon="5.78256">
        <ele>1041.077</ele>
        <time>2022-03-22T13:34:35Z</time>
      </trkpt>
      <trkpt lat="44.37547" lon="5.78254">
        <ele>1040.577</ele>
        <time>2022-03-22T13:34:37Z</time>
      </trkpt>
      <trkpt lat="44.37548" lon="5.78252">
        <ele>1040.077</ele>
        <time>2022-03-22T13:34:39Z</time>
      </trkpt>
      <trkpt lat="44.37549" lon="5.78251">
        <ele>1039.677</ele>
        <time>2022-03-22T13:34:41Z</time>
      </trkpt>
      <trkpt lat="44.37549" lon="5.7825">
        <ele>1039.377</ele>
        <time>2022-03-22T13:34:42Z</time>
      </trkpt>
      <trkpt lat="44.3755" lon="5.78249">
        <ele>1039.177</ele>
        <time>2022-03-22T13:34:44Z</time>
      </trkpt>
      <trkpt lat="44.37551" lon="5.78248">
        <ele>1038.577</ele>
        <time>2022-03-22T13:34:46Z</time>
      </trkpt>
      <trkpt lat="44.37552" lon="5.78247">
        <ele>1038.677</ele>
        <time>2022-03-22T13:34:48Z</time>
      </trkpt>
      <trkpt lat="44.37553" lon="5.78245">
        <ele>1038.377</ele>
        <time>2022-03-22T13:34:50Z</time>
      </trkpt>
      <trkpt lat="44.37554" lon="5.78243">
        <ele>1038.077</ele>
        <time>2022-03-22T13:34:52Z</time>
      </trkpt>
      <trkpt lat="44.37554" lon="5.78242">
        <ele>1037.977</ele>
        <time>2022-03-22T13:34:53Z</time>
      </trkpt>
      <trkpt lat="44.37555" lon="5.7824">
        <ele>1038.077</ele>
        <time>2022-03-22T13:34:55Z</time>
      </trkpt>
      <trkpt lat="44.37556" lon="5.78239">
        <ele>1037.977</ele>
        <time>2022-03-22T13:34:57Z</time>
      </trkpt>
      <trkpt lat="44.37557" lon="5.78237">
        <ele>1037.977</ele>
        <time>2022-03-22T13:34:59Z</time>
      </trkpt>
      <trkpt lat="44.37558" lon="5.78236">
        <ele>1037.877</ele>
        <time>2022-03-22T13:35:01Z</time>
      </trkpt>
      <trkpt lat="44.37558" lon="5.78235">
        <ele>1037.577</ele>
        <time>2022-03-22T13:35:03Z</time>
      </trkpt>
      <trkpt lat="44.37559" lon="5.78233">
        <ele>1036.877</ele>
        <time>2022-03-22T13:35:05Z</time>
      </trkpt>
      <trkpt lat="44.37558" lon="5.78231">
        <ele>1036.377</ele>
        <time>2022-03-22T13:35:07Z</time>
      </trkpt>
      <trkpt lat="44.37557" lon="5.7823">
        <ele>1035.877</ele>
        <time>2022-03-22T13:35:09Z</time>
      </trkpt>
      <trkpt lat="44.37557" lon="5.78228">
        <ele>1035.477</ele>
        <time>2022-03-22T13:35:11Z</time>
      </trkpt>
      <trkpt lat="44.37557" lon="5.78226">
        <ele>1035.177</ele>
        <time>2022-03-22T13:35:13Z</time>
      </trkpt>
      <trkpt lat="44.37557" lon="5.78225">
        <ele>1034.777</ele>
        <time>2022-03-22T13:35:14Z</time>
      </trkpt>
      <trkpt lat="44.37557" lon="5.78223">
        <ele>1034.177</ele>
        <time>2022-03-22T13:35:16Z</time>
      </trkpt>
      <trkpt lat="44.37557" lon="5.78221">
        <ele>1033.177</ele>
        <time>2022-03-22T13:35:18Z</time>
      </trkpt>
      <trkpt lat="44.37558" lon="5.7822">
        <ele>1032.977</ele>
        <time>2022-03-22T13:35:19Z</time>
      </trkpt>
      <trkpt lat="44.37558" lon="5.78218">
        <ele>1032.577</ele>
        <time>2022-03-22T13:35:21Z</time>
      </trkpt>
      <trkpt lat="44.37558" lon="5.78217">
        <ele>1032.277</ele>
        <time>2022-03-22T13:35:23Z</time>
      </trkpt>
      <trkpt lat="44.37558" lon="5.78215">
        <ele>1031.877</ele>
        <time>2022-03-22T13:35:25Z</time>
      </trkpt>
      <trkpt lat="44.37557" lon="5.78214">
        <ele>1030.777</ele>
        <time>2022-03-22T13:35:27Z</time>
      </trkpt>
      <trkpt lat="44.37558" lon="5.78213">
        <ele>1030.477</ele>
        <time>2022-03-22T13:35:30Z</time>
      </trkpt>
      <trkpt lat="44.37558" lon="5.78213">
        <ele>1030.277</ele>
        <time>2022-03-22T13:35:31Z</time>
      </trkpt>
      <trkpt lat="44.37558" lon="5.78213">
        <ele>1029.877</ele>
        <time>2022-03-22T13:38:00Z</time>
      </trkpt>
      <trkpt lat="44.37557" lon="5.78211">
        <ele>1033.477</ele>
        <time>2022-03-22T13:38:01Z</time>
      </trkpt>
      <trkpt lat="44.37555" lon="5.78212">
        <ele>1033.177</ele>
        <time>2022-03-22T13:38:03Z</time>
      </trkpt>
      <trkpt lat="44.37555" lon="5.78212">
        <ele>1033.077</ele>
        <time>2022-03-22T13:38:04Z</time>
      </trkpt>
      <trkpt lat="44.37553" lon="5.78213">
        <ele>1032.877</ele>
        <time>2022-03-22T13:38:06Z</time>
      </trkpt>
      <trkpt lat="44.37552" lon="5.78213">
        <ele>1032.577</ele>
        <time>2022-03-22T13:38:08Z</time>
      </trkpt>
      <trkpt lat="44.37551" lon="5.78214">
        <ele>1032.177</ele>
        <time>2022-03-22T13:38:10Z</time>
      </trkpt>
      <trkpt lat="44.3755" lon="5.78215">
        <ele>1031.577</ele>
        <time>2022-03-22T13:38:12Z</time>
      </trkpt>
      <trkpt lat="44.37548" lon="5.78215">
        <ele>1031.177</ele>
        <time>2022-03-22T13:38:14Z</time>
      </trkpt>
      <trkpt lat="44.37547" lon="5.78215">
        <ele>1030.877</ele>
        <time>2022-03-22T13:38:15Z</time>
      </trkpt>
      <trkpt lat="44.37546" lon="5.78215">
        <ele>1030.577</ele>
        <time>2022-03-22T13:38:16Z</time>
      </trkpt>
      <trkpt lat="44.37544" lon="5.78216">
        <ele>1029.777</ele>
        <time>2022-03-22T13:38:18Z</time>
      </trkpt>
      <trkpt lat="44.37543" lon="5.78217">
        <ele>1029.377</ele>
        <time>2022-03-22T13:38:20Z</time>
      </trkpt>
      <trkpt lat="44.37541" lon="5.78217">
        <ele>1029.177</ele>
        <time>2022-03-22T13:38:22Z</time>
      </trkpt>
      <trkpt lat="44.3754" lon="5.78218">
        <ele>1028.777</ele>
        <time>2022-03-22T13:38:24Z</time>
      </trkpt>
      <trkpt lat="44.37539" lon="5.78218">
        <ele>1028.677</ele>
        <time>2022-03-22T13:38:25Z</time>
      </trkpt>
      <trkpt lat="44.37538" lon="5.78218">
        <ele>1027.678</ele>
        <time>2022-03-22T13:38:27Z</time>
      </trkpt>
      <trkpt lat="44.37537" lon="5.78218">
        <ele>1026.878</ele>
        <time>2022-03-22T13:38:29Z</time>
      </trkpt>
      <trkpt lat="44.37536" lon="5.78217">
        <ele>1026.078</ele>
        <time>2022-03-22T13:38:31Z</time>
      </trkpt>
      <trkpt lat="44.37535" lon="5.78216">
        <ele>1025.778</ele>
        <time>2022-03-22T13:38:33Z</time>
      </trkpt>
      <trkpt lat="44.37534" lon="5.78216">
        <ele>1025.078</ele>
        <time>2022-03-22T13:38:36Z</time>
      </trkpt>
      <trkpt lat="44.37533" lon="5.78215">
        <ele>1024.578</ele>
        <time>2022-03-22T13:38:39Z</time>
      </trkpt>
      <trkpt lat="44.37533" lon="5.78214">
        <ele>1024.478</ele>
        <time>2022-03-22T13:38:40Z</time>
      </trkpt>
      <trkpt lat="44.37532" lon="5.78213">
        <ele>1024.078</ele>
        <time>2022-03-22T13:38:42Z</time>
      </trkpt>
      <trkpt lat="44.37532" lon="5.78213">
        <ele>1024.078</ele>
        <time>2022-03-22T13:38:43Z</time>
      </trkpt>
      <trkpt lat="44.3753" lon="5.78212">
        <ele>1023.478</ele>
        <time>2022-03-22T13:38:44Z</time>
      </trkpt>
      <trkpt lat="44.37529" lon="5.78211">
        <ele>1022.778</ele>
        <time>2022-03-22T13:38:46Z</time>
      </trkpt>
      <trkpt lat="44.37528" lon="5.78209">
        <ele>1022.378</ele>
        <time>2022-03-22T13:38:47Z</time>
      </trkpt>
      <trkpt lat="44.37528" lon="5.78208">
        <ele>1021.978</ele>
        <time>2022-03-22T13:38:48Z</time>
      </trkpt>
      <trkpt lat="44.37528" lon="5.78207">
        <ele>1021.778</ele>
        <time>2022-03-22T13:38:49Z</time>
      </trkpt>
      <trkpt lat="44.37528" lon="5.78205">
        <ele>1021.478</ele>
        <time>2022-03-22T13:38:51Z</time>
      </trkpt>
      <trkpt lat="44.37528" lon="5.78203">
        <ele>1020.978</ele>
        <time>2022-03-22T13:38:53Z</time>
      </trkpt>
      <trkpt lat="44.37529" lon="5.78201">
        <ele>1020.278</ele>
        <time>2022-03-22T13:38:55Z</time>
      </trkpt>
      <trkpt lat="44.37529" lon="5.782">
        <ele>1019.978</ele>
        <time>2022-03-22T13:38:56Z</time>
      </trkpt>
      <trkpt lat="44.3753" lon="5.78199">
        <ele>1019.678</ele>
        <time>2022-03-22T13:38:57Z</time>
      </trkpt>
      <trkpt lat="44.37531" lon="5.78197">
        <ele>1019.178</ele>
        <time>2022-03-22T13:38:59Z</time>
      </trkpt>
      <trkpt lat="44.37532" lon="5.78195">
        <ele>1018.578</ele>
        <time>2022-03-22T13:39:01Z</time>
      </trkpt>
      <trkpt lat="44.37532" lon="5.78194">
        <ele>1018.378</ele>
        <time>2022-03-22T13:39:02Z</time>
      </trkpt>
      <trkpt lat="44.37533" lon="5.78193">
        <ele>1018.178</ele>
        <time>2022-03-22T13:39:03Z</time>
      </trkpt>
      <trkpt lat="44.37533" lon="5.78192">
        <ele>1017.978</ele>
        <time>2022-03-22T13:39:04Z</time>
      </trkpt>
      <trkpt lat="44.37533" lon="5.78189">
        <ele>1017.478</ele>
        <time>2022-03-22T13:39:06Z</time>
      </trkpt>
      <trkpt lat="44.37534" lon="5.78188">
        <ele>1017.378</ele>
        <time>2022-03-22T13:39:07Z</time>
      </trkpt>
      <trkpt lat="44.37534" lon="5.78187">
        <ele>1017.378</ele>
        <time>2022-03-22T13:39:08Z</time>
      </trkpt>
      <trkpt lat="44.37535" lon="5.78185">
        <ele>1017.078</ele>
        <time>2022-03-22T13:39:10Z</time>
      </trkpt>
      <trkpt lat="44.37535" lon="5.78184">
        <ele>1016.878</ele>
        <time>2022-03-22T13:39:11Z</time>
      </trkpt>
      <trkpt lat="44.37536" lon="5.78183">
        <ele>1016.578</ele>
        <time>2022-03-22T13:39:13Z</time>
      </trkpt>
      <trkpt lat="44.37537" lon="5.78182">
        <ele>1015.978</ele>
        <time>2022-03-22T13:39:15Z</time>
      </trkpt>
      <trkpt lat="44.37538" lon="5.7818">
        <ele>1015.778</ele>
        <time>2022-03-22T13:39:17Z</time>
      </trkpt>
      <trkpt lat="44.37538" lon="5.78177">
        <ele>1015.178</ele>
        <time>2022-03-22T13:39:19Z</time>
      </trkpt>
      <trkpt lat="44.37538" lon="5.78175">
        <ele>1014.478</ele>
        <time>2022-03-22T13:39:21Z</time>
      </trkpt>
      <trkpt lat="44.37538" lon="5.78173">
        <ele>1013.778</ele>
        <time>2022-03-22T13:39:23Z</time>
      </trkpt>
      <trkpt lat="44.37538" lon="5.78172">
        <ele>1013.378</ele>
        <time>2022-03-22T13:39:24Z</time>
      </trkpt>
      <trkpt lat="44.3754" lon="5.78171">
        <ele>1012.878</ele>
        <time>2022-03-22T13:39:26Z</time>
      </trkpt>
      <trkpt lat="44.37541" lon="5.78171">
        <ele>1012.378</ele>
        <time>2022-03-22T13:39:28Z</time>
      </trkpt>
      <trkpt lat="44.37542" lon="5.7817">
        <ele>1012.078</ele>
        <time>2022-03-22T13:39:30Z</time>
      </trkpt>
      <trkpt lat="44.37543" lon="5.78169">
        <ele>1011.778</ele>
        <time>2022-03-22T13:39:32Z</time>
      </trkpt>
      <trkpt lat="44.37544" lon="5.78167">
        <ele>1011.378</ele>
        <time>2022-03-22T13:39:34Z</time>
      </trkpt>
      <trkpt lat="44.37545" lon="5.78166">
        <ele>1010.878</ele>
        <time>2022-03-22T13:39:36Z</time>
      </trkpt>
      <trkpt lat="44.37546" lon="5.78165">
        <ele>1010.878</ele>
        <time>2022-03-22T13:39:38Z</time>
      </trkpt>
      <trkpt lat="44.37548" lon="5.78164">
        <ele>1010.778</ele>
        <time>2022-03-22T13:39:40Z</time>
      </trkpt>
      <trkpt lat="44.37549" lon="5.78164">
        <ele>1010.878</ele>
        <time>2022-03-22T13:39:42Z</time>
      </trkpt>
      <trkpt lat="44.37549" lon="5.78163">
        <ele>1010.878</ele>
        <time>2022-03-22T13:39:43Z</time>
      </trkpt>
      <trkpt lat="44.3755" lon="5.78162">
        <ele>1010.978</ele>
        <time>2022-03-22T13:39:45Z</time>
      </trkpt>
      <trkpt lat="44.37552" lon="5.78161">
        <ele>1011.278</ele>
        <time>2022-03-22T13:39:48Z</time>
      </trkpt>
      <trkpt lat="44.37552" lon="5.7816">
        <ele>1011.178</ele>
        <time>2022-03-22T13:39:50Z</time>
      </trkpt>
      <trkpt lat="44.37553" lon="5.78159">
        <ele>1011.178</ele>
        <time>2022-03-22T13:39:51Z</time>
      </trkpt>
      <trkpt lat="44.37554" lon="5.78158">
        <ele>1010.978</ele>
        <time>2022-03-22T13:39:53Z</time>
      </trkpt>
      <trkpt lat="44.37554" lon="5.78156">
        <ele>1010.378</ele>
        <time>2022-03-22T13:39:55Z</time>
      </trkpt>
      <trkpt lat="44.37554" lon="5.78154">
        <ele>1010.078</ele>
        <time>2022-03-22T13:39:57Z</time>
      </trkpt>
      <trkpt lat="44.37554" lon="5.78152">
        <ele>1009.678</ele>
        <time>2022-03-22T13:39:59Z</time>
      </trkpt>
      <trkpt lat="44.37554" lon="5.78151">
        <ele>1009.078</ele>
        <time>2022-03-22T13:40:01Z</time>
      </trkpt>
      <trkpt lat="44.37554" lon="5.78149">
        <ele>1008.578</ele>
        <time>2022-03-22T13:40:03Z</time>
      </trkpt>
      <trkpt lat="44.37554" lon="5.78147">
        <ele>1008.378</ele>
        <time>2022-03-22T13:40:05Z</time>
      </trkpt>
      <trkpt lat="44.37555" lon="5.78146">
        <ele>1007.978</ele>
        <time>2022-03-22T13:40:07Z</time>
      </trkpt>
      <trkpt lat="44.37555" lon="5.78144">
        <ele>1007.878</ele>
        <time>2022-03-22T13:40:09Z</time>
      </trkpt>
      <trkpt lat="44.37555" lon="5.78143">
        <ele>1007.778</ele>
        <time>2022-03-22T13:40:11Z</time>
      </trkpt>
      <trkpt lat="44.37554" lon="5.78141">
        <ele>1007.578</ele>
        <time>2022-03-22T13:40:13Z</time>
      </trkpt>
      <trkpt lat="44.37554" lon="5.78139">
        <ele>1007.378</ele>
        <time>2022-03-22T13:40:15Z</time>
      </trkpt>
      <trkpt lat="44.37555" lon="5.78137">
        <ele>1007.278</ele>
        <time>2022-03-22T13:40:17Z</time>
      </trkpt>
      <trkpt lat="44.37555" lon="5.78136">
        <ele>1007.278</ele>
        <time>2022-03-22T13:40:19Z</time>
      </trkpt>
      <trkpt lat="44.37554" lon="5.78135">
        <ele>1007.078</ele>
        <time>2022-03-22T13:40:21Z</time>
      </trkpt>
      <trkpt lat="44.37552" lon="5.78134">
        <ele>1006.978</ele>
        <time>2022-03-22T13:40:23Z</time>
      </trkpt>
      <trkpt lat="44.37551" lon="5.78133">
        <ele>1006.778</ele>
        <time>2022-03-22T13:40:24Z</time>
      </trkpt>
      <trkpt lat="44.3755" lon="5.78132">
        <ele>1006.678</ele>
        <time>2022-03-22T13:40:25Z</time>
      </trkpt>
      <trkpt lat="44.37549" lon="5.78132">
        <ele>1005.978</ele>
        <time>2022-03-22T13:40:27Z</time>
      </trkpt>
      <trkpt lat="44.37548" lon="5.7813">
        <ele>1005.578</ele>
        <time>2022-03-22T13:40:28Z</time>
      </trkpt>
      <trkpt lat="44.37547" lon="5.78128">
        <ele>1004.878</ele>
        <time>2022-03-22T13:40:30Z</time>
      </trkpt>
      <trkpt lat="44.37547" lon="5.78127">
        <ele>1003.878</ele>
        <time>2022-03-22T13:40:32Z</time>
      </trkpt>
      <trkpt lat="44.37546" lon="5.78125">
        <ele>1003.078</ele>
        <time>2022-03-22T13:40:35Z</time>
      </trkpt>
      <trkpt lat="44.37546" lon="5.78124">
        <ele>1001.878</ele>
        <time>2022-03-22T13:40:38Z</time>
      </trkpt>
      <trkpt lat="44.37546" lon="5.78123">
        <ele>1001.578</ele>
        <time>2022-03-22T13:40:39Z</time>
      </trkpt>
      <trkpt lat="44.37546" lon="5.78122">
        <ele>1000.878</ele>
        <time>2022-03-22T13:40:41Z</time>
      </trkpt>
      <trkpt lat="44.37546" lon="5.78122">
        <ele>1000.878</ele>
        <time>2022-03-22T13:40:42Z</time>
      </trkpt>
      <trkpt lat="44.37546" lon="5.78119">
        <ele>1000.378</ele>
        <time>2022-03-22T13:40:43Z</time>
      </trkpt>
      <trkpt lat="44.37546" lon="5.78117">
        <ele>1000.178</ele>
        <time>2022-03-22T13:40:44Z</time>
      </trkpt>
      <trkpt lat="44.37546" lon="5.78116">
        <ele>999.578</ele>
        <time>2022-03-22T13:40:46Z</time>
      </trkpt>
      <trkpt lat="44.37546" lon="5.78115">
        <ele>998.978</ele>
        <time>2022-03-22T13:40:48Z</time>
      </trkpt>
      <trkpt lat="44.37546" lon="5.78113">
        <ele>998.778</ele>
        <time>2022-03-22T13:40:49Z</time>
      </trkpt>
      <trkpt lat="44.37546" lon="5.78111">
        <ele>997.978</ele>
        <time>2022-03-22T13:40:51Z</time>
      </trkpt>
      <trkpt lat="44.37546" lon="5.78109">
        <ele>997.378</ele>
        <time>2022-03-22T13:40:53Z</time>
      </trkpt>
      <trkpt lat="44.37546" lon="5.78107">
        <ele>996.978</ele>
        <time>2022-03-22T13:40:55Z</time>
      </trkpt>
      <trkpt lat="44.37547" lon="5.78105">
        <ele>996.878</ele>
        <time>2022-03-22T13:40:56Z</time>
      </trkpt>
      <trkpt lat="44.37547" lon="5.78104">
        <ele>996.278</ele>
        <time>2022-03-22T13:40:58Z</time>
      </trkpt>
      <trkpt lat="44.37548" lon="5.78103">
        <ele>996.078</ele>
        <time>2022-03-22T13:41:00Z</time>
      </trkpt>
      <trkpt lat="44.37549" lon="5.78102">
        <ele>995.678</ele>
        <time>2022-03-22T13:41:02Z</time>
      </trkpt>
      <trkpt lat="44.3755" lon="5.781">
        <ele>995.178</ele>
        <time>2022-03-22T13:41:04Z</time>
      </trkpt>
      <trkpt lat="44.37551" lon="5.78099">
        <ele>994.678</ele>
        <time>2022-03-22T13:41:06Z</time>
      </trkpt>
      <trkpt lat="44.37551" lon="5.78097">
        <ele>994.478</ele>
        <time>2022-03-22T13:41:08Z</time>
      </trkpt>
      <trkpt lat="44.37552" lon="5.78096">
        <ele>994.178</ele>
        <time>2022-03-22T13:41:10Z</time>
      </trkpt>
      <trkpt lat="44.37553" lon="5.78094">
        <ele>993.678</ele>
        <time>2022-03-22T13:41:12Z</time>
      </trkpt>
      <trkpt lat="44.37553" lon="5.78093">
        <ele>993.078</ele>
        <time>2022-03-22T13:41:14Z</time>
      </trkpt>
      <trkpt lat="44.37554" lon="5.78092">
        <ele>993.178</ele>
        <time>2022-03-22T13:41:17Z</time>
      </trkpt>
      <trkpt lat="44.37554" lon="5.78091">
        <ele>993.278</ele>
        <time>2022-03-22T13:41:18Z</time>
      </trkpt>
      <trkpt lat="44.37555" lon="5.78089">
        <ele>993.078</ele>
        <time>2022-03-22T13:41:20Z</time>
      </trkpt>
      <trkpt lat="44.37555" lon="5.78088">
        <ele>992.878</ele>
        <time>2022-03-22T13:41:21Z</time>
      </trkpt>
      <trkpt lat="44.37555" lon="5.78088">
        <ele>992.778</ele>
        <time>2022-03-22T13:41:22Z</time>
      </trkpt>
      <trkpt lat="44.37556" lon="5.78087">
        <ele>992.578</ele>
        <time>2022-03-22T13:41:23Z</time>
      </trkpt>
      <trkpt lat="44.37556" lon="5.78087">
        <ele>992.478</ele>
        <time>2022-03-22T13:41:24Z</time>
      </trkpt>
      <trkpt lat="44.37557" lon="5.78085">
        <ele>992.178</ele>
        <time>2022-03-22T13:41:26Z</time>
      </trkpt>
      <trkpt lat="44.37557" lon="5.78084">
        <ele>992.378</ele>
        <time>2022-03-22T13:41:28Z</time>
      </trkpt>
      <trkpt lat="44.37557" lon="5.78083">
        <ele>992.578</ele>
        <time>2022-03-22T13:41:29Z</time>
      </trkpt>
      <trkpt lat="44.37556" lon="5.78082">
        <ele>992.378</ele>
        <time>2022-03-22T13:41:31Z</time>
      </trkpt>
      <trkpt lat="44.37556" lon="5.78082">
        <ele>992.378</ele>
        <time>2022-03-22T13:41:33Z</time>
      </trkpt>
      <trkpt lat="44.37554" lon="5.78079">
        <ele>991.878</ele>
        <time>2022-03-22T13:41:34Z</time>
      </trkpt>
      <trkpt lat="44.37553" lon="5.78077">
        <ele>991.479</ele>
        <time>2022-03-22T13:41:36Z</time>
      </trkpt>
      <trkpt lat="44.37553" lon="5.78075">
        <ele>990.779</ele>
        <time>2022-03-22T13:41:39Z</time>
      </trkpt>
      <trkpt lat="44.37553" lon="5.78076">
        <ele>990.579</ele>
        <time>2022-03-22T13:41:42Z</time>
      </trkpt>
      <trkpt lat="44.37553" lon="5.78076">
        <ele>990.779</ele>
        <time>2022-03-22T13:41:43Z</time>
      </trkpt>
      <trkpt lat="44.37553" lon="5.78076">
        <ele>990.779</ele>
        <time>2022-03-22T13:41:48Z</time>
      </trkpt>
      <trkpt lat="44.37552" lon="5.78074">
        <ele>990.679</ele>
        <time>2022-03-22T13:41:49Z</time>
      </trkpt>
      <trkpt lat="44.37551" lon="5.78073">
        <ele>990.479</ele>
        <time>2022-03-22T13:41:50Z</time>
      </trkpt>
      <trkpt lat="44.37551" lon="5.78073">
        <ele>990.179</ele>
        <time>2022-03-22T13:41:51Z</time>
      </trkpt>
      <trkpt lat="44.37549" lon="5.78072">
        <ele>989.679</ele>
        <time>2022-03-22T13:41:53Z</time>
      </trkpt>
      <trkpt lat="44.37549" lon="5.78072">
        <ele>989.679</ele>
        <time>2022-03-22T13:41:56Z</time>
      </trkpt>
      <trkpt lat="44.37548" lon="5.7807">
        <ele>988.879</ele>
        <time>2022-03-22T13:41:57Z</time>
      </trkpt>
      <trkpt lat="44.37547" lon="5.78069">
        <ele>988.479</ele>
        <time>2022-03-22T13:41:59Z</time>
      </trkpt>
      <trkpt lat="44.37546" lon="5.78068">
        <ele>988.379</ele>
        <time>2022-03-22T13:42:01Z</time>
      </trkpt>
      <trkpt lat="44.37545" lon="5.78067">
        <ele>987.779</ele>
        <time>2022-03-22T13:42:03Z</time>
      </trkpt>
      <trkpt lat="44.37544" lon="5.78066">
        <ele>986.979</ele>
        <time>2022-03-22T13:42:05Z</time>
      </trkpt>
      <trkpt lat="44.37543" lon="5.78065">
        <ele>986.079</ele>
        <time>2022-03-22T13:42:07Z</time>
      </trkpt>
      <trkpt lat="44.37542" lon="5.78065">
        <ele>985.579</ele>
        <time>2022-03-22T13:42:09Z</time>
      </trkpt>
      <trkpt lat="44.37541" lon="5.78064">
        <ele>984.879</ele>
        <time>2022-03-22T13:42:11Z</time>
      </trkpt>
      <trkpt lat="44.3754" lon="5.78064">
        <ele>984.079</ele>
        <time>2022-03-22T13:42:13Z</time>
      </trkpt>
      <trkpt lat="44.37539" lon="5.78065">
        <ele>983.779</ele>
        <time>2022-03-22T13:42:15Z</time>
      </trkpt>
      <trkpt lat="44.37539" lon="5.78064">
        <ele>983.579</ele>
        <time>2022-03-22T13:42:17Z</time>
      </trkpt>
      <trkpt lat="44.37539" lon="5.78065">
        <ele>983.579</ele>
        <time>2022-03-22T13:42:18Z</time>
      </trkpt>
      <trkpt lat="44.37538" lon="5.78066">
        <ele>983.679</ele>
        <time>2022-03-22T13:42:20Z</time>
      </trkpt>
      <trkpt lat="44.37538" lon="5.78066">
        <ele>983.679</ele>
        <time>2022-03-22T13:42:27Z</time>
      </trkpt>
      <trkpt lat="44.37533" lon="5.78066">
        <ele>984.179</ele>
        <time>2022-03-22T13:42:28Z</time>
      </trkpt>
      <trkpt lat="44.37532" lon="5.78066">
        <ele>984.179</ele>
        <time>2022-03-22T13:42:29Z</time>
      </trkpt>
      <trkpt lat="44.37531" lon="5.78066">
        <ele>984.179</ele>
        <time>2022-03-22T13:42:30Z</time>
      </trkpt>
      <trkpt lat="44.3753" lon="5.78066">
        <ele>983.979</ele>
        <time>2022-03-22T13:42:31Z</time>
      </trkpt>
      <trkpt lat="44.37529" lon="5.78067">
        <ele>983.779</ele>
        <time>2022-03-22T13:42:32Z</time>
      </trkpt>
      <trkpt lat="44.37528" lon="5.78068">
        <ele>983.179</ele>
        <time>2022-03-22T13:42:34Z</time>
      </trkpt>
      <trkpt lat="44.37527" lon="5.78068">
        <ele>982.679</ele>
        <time>2022-03-22T13:42:37Z</time>
      </trkpt>
      <trkpt lat="44.37526" lon="5.78068">
        <ele>982.279</ele>
        <time>2022-03-22T13:42:39Z</time>
      </trkpt>
      <trkpt lat="44.37524" lon="5.78067">
        <ele>982.179</ele>
        <time>2022-03-22T13:42:41Z</time>
      </trkpt>
      <trkpt lat="44.37523" lon="5.78066">
        <ele>981.479</ele>
        <time>2022-03-22T13:42:43Z</time>
      </trkpt>
      <trkpt lat="44.37522" lon="5.78066">
        <ele>980.779</ele>
        <time>2022-03-22T13:42:45Z</time>
      </trkpt>
      <trkpt lat="44.37521" lon="5.78067">
        <ele>980.379</ele>
        <time>2022-03-22T13:42:47Z</time>
      </trkpt>
      <trkpt lat="44.3752" lon="5.78066">
        <ele>979.679</ele>
        <time>2022-03-22T13:42:49Z</time>
      </trkpt>
      <trkpt lat="44.37519" lon="5.78065">
        <ele>979.079</ele>
        <time>2022-03-22T13:42:52Z</time>
      </trkpt>
      <trkpt lat="44.37518" lon="5.78065">
        <ele>978.68</ele>
        <time>2022-03-22T13:42:54Z</time>
      </trkpt>
      <trkpt lat="44.37517" lon="5.78065">
        <ele>978.18</ele>
        <time>2022-03-22T13:42:56Z</time>
      </trkpt>
      <trkpt lat="44.37516" lon="5.78065">
        <ele>977.78</ele>
        <time>2022-03-22T13:42:58Z</time>
      </trkpt>
      <trkpt lat="44.37514" lon="5.78065">
        <ele>977.08</ele>
        <time>2022-03-22T13:43:00Z</time>
      </trkpt>
      <trkpt lat="44.37513" lon="5.78065">
        <ele>976.58</ele>
        <time>2022-03-22T13:43:02Z</time>
      </trkpt>
      <trkpt lat="44.37512" lon="5.78064">
        <ele>976.08</ele>
        <time>2022-03-22T13:43:04Z</time>
      </trkpt>
      <trkpt lat="44.37511" lon="5.78063">
        <ele>975.18</ele>
        <time>2022-03-22T13:43:06Z</time>
      </trkpt>
      <trkpt lat="44.37511" lon="5.78062">
        <ele>974.78</ele>
        <time>2022-03-22T13:43:08Z</time>
      </trkpt>
      <trkpt lat="44.3751" lon="5.78061">
        <ele>974.68</ele>
        <time>2022-03-22T13:43:09Z</time>
      </trkpt>
      <trkpt lat="44.37508" lon="5.7806">
        <ele>974.18</ele>
        <time>2022-03-22T13:43:11Z</time>
      </trkpt>
      <trkpt lat="44.37508" lon="5.7806">
        <ele>973.98</ele>
        <time>2022-03-22T13:43:12Z</time>
      </trkpt>
      <trkpt lat="44.37506" lon="5.78059">
        <ele>973.48</ele>
        <time>2022-03-22T13:43:14Z</time>
      </trkpt>
      <trkpt lat="44.37505" lon="5.78059">
        <ele>972.68</ele>
        <time>2022-03-22T13:43:16Z</time>
      </trkpt>
      <trkpt lat="44.37503" lon="5.7806">
        <ele>971.78</ele>
        <time>2022-03-22T13:43:18Z</time>
      </trkpt>
      <trkpt lat="44.37502" lon="5.7806">
        <ele>971.58</ele>
        <time>2022-03-22T13:43:19Z</time>
      </trkpt>
      <trkpt lat="44.375" lon="5.78059">
        <ele>970.98</ele>
        <time>2022-03-22T13:43:22Z</time>
      </trkpt>
      <trkpt lat="44.37499" lon="5.78059">
        <ele>970.48</ele>
        <time>2022-03-22T13:43:24Z</time>
      </trkpt>
      <trkpt lat="44.37498" lon="5.78059">
        <ele>970.28</ele>
        <time>2022-03-22T13:43:25Z</time>
      </trkpt>
      <trkpt lat="44.37497" lon="5.78059">
        <ele>970.18</ele>
        <time>2022-03-22T13:43:26Z</time>
      </trkpt>
      <trkpt lat="44.37495" lon="5.78059">
        <ele>969.68</ele>
        <time>2022-03-22T13:43:28Z</time>
      </trkpt>
      <trkpt lat="44.37494" lon="5.78058">
        <ele>969.28</ele>
        <time>2022-03-22T13:43:29Z</time>
      </trkpt>
      <trkpt lat="44.37493" lon="5.78058">
        <ele>968.88</ele>
        <time>2022-03-22T13:43:30Z</time>
      </trkpt>
      <trkpt lat="44.37491" lon="5.78057">
        <ele>968.28</ele>
        <time>2022-03-22T13:43:32Z</time>
      </trkpt>
      <trkpt lat="44.3749" lon="5.78057">
        <ele>968.08</ele>
        <time>2022-03-22T13:43:33Z</time>
      </trkpt>
      <trkpt lat="44.37488" lon="5.78056">
        <ele>967.58</ele>
        <time>2022-03-22T13:43:35Z</time>
      </trkpt>
      <trkpt lat="44.37488" lon="5.78057">
        <ele>966.78</ele>
        <time>2022-03-22T13:43:37Z</time>
      </trkpt>
      <trkpt lat="44.37487" lon="5.78059">
        <ele>966.38</ele>
        <time>2022-03-22T13:43:39Z</time>
      </trkpt>
      <trkpt lat="44.37486" lon="5.7806">
        <ele>965.98</ele>
        <time>2022-03-22T13:43:41Z</time>
      </trkpt>
      <trkpt lat="44.37485" lon="5.78061">
        <ele>965.78</ele>
        <time>2022-03-22T13:43:43Z</time>
      </trkpt>
      <trkpt lat="44.37484" lon="5.78061">
        <ele>965.68</ele>
        <time>2022-03-22T13:43:45Z</time>
      </trkpt>
      <trkpt lat="44.37482" lon="5.78061">
        <ele>965.38</ele>
        <time>2022-03-22T13:43:47Z</time>
      </trkpt>
      <trkpt lat="44.37481" lon="5.78061">
        <ele>965.28</ele>
        <time>2022-03-22T13:43:49Z</time>
      </trkpt>
      <trkpt lat="44.37479" lon="5.78061">
        <ele>965.181</ele>
        <time>2022-03-22T13:43:51Z</time>
      </trkpt>
      <trkpt lat="44.37477" lon="5.78062">
        <ele>965.181</ele>
        <time>2022-03-22T13:43:53Z</time>
      </trkpt>
      <trkpt lat="44.37476" lon="5.78062">
        <ele>964.681</ele>
        <time>2022-03-22T13:43:55Z</time>
      </trkpt>
      <trkpt lat="44.37475" lon="5.78063">
        <ele>964.281</ele>
        <time>2022-03-22T13:43:57Z</time>
      </trkpt>
      <trkpt lat="44.37474" lon="5.78063">
        <ele>964.081</ele>
        <time>2022-03-22T13:43:58Z</time>
      </trkpt>
      <trkpt lat="44.37472" lon="5.78064">
        <ele>963.681</ele>
        <time>2022-03-22T13:44:00Z</time>
      </trkpt>
      <trkpt lat="44.37471" lon="5.78065">
        <ele>963.281</ele>
        <time>2022-03-22T13:44:02Z</time>
      </trkpt>
      <trkpt lat="44.3747" lon="5.78066">
        <ele>962.681</ele>
        <time>2022-03-22T13:44:04Z</time>
      </trkpt>
      <trkpt lat="44.37469" lon="5.78066">
        <ele>962.081</ele>
        <time>2022-03-22T13:44:06Z</time>
      </trkpt>
      <trkpt lat="44.37468" lon="5.78066">
        <ele>962.081</ele>
        <time>2022-03-22T13:44:07Z</time>
      </trkpt>
      <trkpt lat="44.37467" lon="5.78066">
        <ele>961.881</ele>
        <time>2022-03-22T13:44:08Z</time>
      </trkpt>
      <trkpt lat="44.37466" lon="5.78067">
        <ele>961.681</ele>
        <time>2022-03-22T13:44:09Z</time>
      </trkpt>
      <trkpt lat="44.37464" lon="5.78066">
        <ele>961.081</ele>
        <time>2022-03-22T13:44:11Z</time>
      </trkpt>
      <trkpt lat="44.37463" lon="5.78066">
        <ele>960.281</ele>
        <time>2022-03-22T13:44:13Z</time>
      </trkpt>
      <trkpt lat="44.37461" lon="5.78066">
        <ele>959.981</ele>
        <time>2022-03-22T13:44:15Z</time>
      </trkpt>
      <trkpt lat="44.37459" lon="5.78067">
        <ele>959.681</ele>
        <time>2022-03-22T13:44:17Z</time>
      </trkpt>
      <trkpt lat="44.37458" lon="5.78068">
        <ele>959.581</ele>
        <time>2022-03-22T13:44:18Z</time>
      </trkpt>
      <trkpt lat="44.37457" lon="5.78069">
        <ele>959.481</ele>
        <time>2022-03-22T13:44:19Z</time>
      </trkpt>
      <trkpt lat="44.37456" lon="5.7807">
        <ele>959.381</ele>
        <time>2022-03-22T13:44:21Z</time>
      </trkpt>
      <trkpt lat="44.37455" lon="5.7807">
        <ele>959.081</ele>
        <time>2022-03-22T13:44:23Z</time>
      </trkpt>
      <trkpt lat="44.37453" lon="5.7807">
        <ele>958.781</ele>
        <time>2022-03-22T13:44:25Z</time>
      </trkpt>
      <trkpt lat="44.37452" lon="5.7807">
        <ele>958.681</ele>
        <time>2022-03-22T13:44:26Z</time>
      </trkpt>
      <trkpt lat="44.37451" lon="5.78071">
        <ele>958.681</ele>
        <time>2022-03-22T13:44:27Z</time>
      </trkpt>
      <trkpt lat="44.3745" lon="5.78071">
        <ele>958.481</ele>
        <time>2022-03-22T13:44:29Z</time>
      </trkpt>
      <trkpt lat="44.37448" lon="5.78071">
        <ele>958.081</ele>
        <time>2022-03-22T13:44:31Z</time>
      </trkpt>
      <trkpt lat="44.37446" lon="5.78072">
        <ele>958.081</ele>
        <time>2022-03-22T13:44:33Z</time>
      </trkpt>
      <trkpt lat="44.37444" lon="5.78072">
        <ele>957.681</ele>
        <time>2022-03-22T13:44:35Z</time>
      </trkpt>
      <trkpt lat="44.37444" lon="5.78073">
        <ele>957.481</ele>
        <time>2022-03-22T13:44:36Z</time>
      </trkpt>
      <trkpt lat="44.37443" lon="5.78073">
        <ele>957.181</ele>
        <time>2022-03-22T13:44:38Z</time>
      </trkpt>
      <trkpt lat="44.37441" lon="5.78073">
        <ele>956.781</ele>
        <time>2022-03-22T13:44:40Z</time>
      </trkpt>
      <trkpt lat="44.3744" lon="5.78071">
        <ele>956.381</ele>
        <time>2022-03-22T13:44:42Z</time>
      </trkpt>
      <trkpt lat="44.37439" lon="5.78071">
        <ele>956.281</ele>
        <time>2022-03-22T13:44:44Z</time>
      </trkpt>
      <trkpt lat="44.37437" lon="5.78071">
        <ele>956.081</ele>
        <time>2022-03-22T13:44:46Z</time>
      </trkpt>
      <trkpt lat="44.37436" lon="5.78069">
        <ele>955.482</ele>
        <time>2022-03-22T13:44:48Z</time>
      </trkpt>
      <trkpt lat="44.37435" lon="5.78069">
        <ele>954.982</ele>
        <time>2022-03-22T13:44:50Z</time>
      </trkpt>
      <trkpt lat="44.37434" lon="5.78068">
        <ele>954.782</ele>
        <time>2022-03-22T13:44:51Z</time>
      </trkpt>
      <trkpt lat="44.37433" lon="5.78069">
        <ele>954.482</ele>
        <time>2022-03-22T13:44:53Z</time>
      </trkpt>
      <trkpt lat="44.37432" lon="5.78069">
        <ele>954.282</ele>
        <time>2022-03-22T13:44:54Z</time>
      </trkpt>
      <trkpt lat="44.3743" lon="5.7807">
        <ele>954.082</ele>
        <time>2022-03-22T13:44:56Z</time>
      </trkpt>
      <trkpt lat="44.37429" lon="5.7807">
        <ele>953.682</ele>
        <time>2022-03-22T13:44:58Z</time>
      </trkpt>
      <trkpt lat="44.37428" lon="5.7807">
        <ele>953.182</ele>
        <time>2022-03-22T13:45:00Z</time>
      </trkpt>
      <trkpt lat="44.37426" lon="5.7807">
        <ele>952.882</ele>
        <time>2022-03-22T13:45:02Z</time>
      </trkpt>
      <trkpt lat="44.37426" lon="5.7807">
        <ele>952.582</ele>
        <time>2022-03-22T13:45:04Z</time>
      </trkpt>
      <trkpt lat="44.37425" lon="5.7807">
        <ele>952.282</ele>
        <time>2022-03-22T13:45:06Z</time>
      </trkpt>
      <trkpt lat="44.37424" lon="5.7807">
        <ele>951.882</ele>
        <time>2022-03-22T13:45:08Z</time>
      </trkpt>
      <trkpt lat="44.37422" lon="5.78069">
        <ele>951.482</ele>
        <time>2022-03-22T13:45:10Z</time>
      </trkpt>
      <trkpt lat="44.37421" lon="5.78069">
        <ele>950.882</ele>
        <time>2022-03-22T13:45:12Z</time>
      </trkpt>
      <trkpt lat="44.3742" lon="5.78068">
        <ele>950.282</ele>
        <time>2022-03-22T13:45:14Z</time>
      </trkpt>
      <trkpt lat="44.3742" lon="5.78067">
        <ele>949.382</ele>
        <time>2022-03-22T13:45:16Z</time>
      </trkpt>
      <trkpt lat="44.37419" lon="5.78067">
        <ele>949.182</ele>
        <time>2022-03-22T13:45:17Z</time>
      </trkpt>
      <trkpt lat="44.3742" lon="5.78066">
        <ele>949.082</ele>
        <time>2022-03-22T13:47:53Z</time>
      </trkpt>
      <trkpt lat="44.37416" lon="5.78064">
        <ele>950.482</ele>
        <time>2022-03-22T13:47:54Z</time>
      </trkpt>
      <trkpt lat="44.37415" lon="5.78066">
        <ele>950.482</ele>
        <time>2022-03-22T13:47:56Z</time>
      </trkpt>
      <trkpt lat="44.37414" lon="5.78067">
        <ele>950.182</ele>
        <time>2022-03-22T13:47:57Z</time>
      </trkpt>
      <trkpt lat="44.37413" lon="5.78068">
        <ele>950.282</ele>
        <time>2022-03-22T13:47:58Z</time>
      </trkpt>
      <trkpt lat="44.37411" lon="5.78068">
        <ele>949.882</ele>
        <time>2022-03-22T13:48:00Z</time>
      </trkpt>
      <trkpt lat="44.3741" lon="5.78069">
        <ele>949.782</ele>
        <time>2022-03-22T13:48:01Z</time>
      </trkpt>
      <trkpt lat="44.37408" lon="5.7807">
        <ele>949.482</ele>
        <time>2022-03-22T13:48:03Z</time>
      </trkpt>
      <trkpt lat="44.37407" lon="5.78072">
        <ele>948.782</ele>
        <time>2022-03-22T13:48:05Z</time>
      </trkpt>
      <trkpt lat="44.37406" lon="5.78072">
        <ele>948.382</ele>
        <time>2022-03-22T13:48:07Z</time>
      </trkpt>
      <trkpt lat="44.37405" lon="5.78072">
        <ele>948.182</ele>
        <time>2022-03-22T13:48:08Z</time>
      </trkpt>
      <trkpt lat="44.37403" lon="5.78073">
        <ele>947.882</ele>
        <time>2022-03-22T13:48:10Z</time>
      </trkpt>
      <trkpt lat="44.37403" lon="5.78074">
        <ele>947.582</ele>
        <time>2022-03-22T13:48:11Z</time>
      </trkpt>
      <trkpt lat="44.37401" lon="5.78075">
        <ele>946.982</ele>
        <time>2022-03-22T13:48:13Z</time>
      </trkpt>
      <trkpt lat="44.374" lon="5.78077">
        <ele>946.682</ele>
        <time>2022-03-22T13:48:15Z</time>
      </trkpt>
      <trkpt lat="44.37399" lon="5.78077">
        <ele>946.482</ele>
        <time>2022-03-22T13:48:17Z</time>
      </trkpt>
      <trkpt lat="44.37398" lon="5.78078">
        <ele>946.282</ele>
        <time>2022-03-22T13:48:20Z</time>
      </trkpt>
      <trkpt lat="44.37397" lon="5.78079">
        <ele>945.882</ele>
        <time>2022-03-22T13:48:22Z</time>
      </trkpt>
      <trkpt lat="44.37396" lon="5.78079">
        <ele>945.582</ele>
        <time>2022-03-22T13:48:24Z</time>
      </trkpt>
      <trkpt lat="44.37395" lon="5.78078">
        <ele>945.482</ele>
        <time>2022-03-22T13:48:26Z</time>
      </trkpt>
      <trkpt lat="44.37394" lon="5.78077">
        <ele>945.082</ele>
        <time>2022-03-22T13:48:28Z</time>
      </trkpt>
      <trkpt lat="44.37393" lon="5.78078">
        <ele>944.583</ele>
        <time>2022-03-22T13:48:30Z</time>
      </trkpt>
      <trkpt lat="44.37391" lon="5.78077">
        <ele>943.983</ele>
        <time>2022-03-22T13:48:32Z</time>
      </trkpt>
      <trkpt lat="44.3739" lon="5.78076">
        <ele>943.183</ele>
        <time>2022-03-22T13:48:34Z</time>
      </trkpt>
      <trkpt lat="44.37389" lon="5.78074">
        <ele>942.683</ele>
        <time>2022-03-22T13:48:36Z</time>
      </trkpt>
      <trkpt lat="44.37388" lon="5.78073">
        <ele>942.083</ele>
        <time>2022-03-22T13:48:38Z</time>
      </trkpt>
      <trkpt lat="44.37387" lon="5.78072">
        <ele>941.683</ele>
        <time>2022-03-22T13:48:40Z</time>
      </trkpt>
      <trkpt lat="44.37386" lon="5.78072">
        <ele>940.983</ele>
        <time>2022-03-22T13:48:42Z</time>
      </trkpt>
      <trkpt lat="44.37384" lon="5.78072">
        <ele>940.683</ele>
        <time>2022-03-22T13:48:43Z</time>
      </trkpt>
      <trkpt lat="44.37383" lon="5.78072">
        <ele>940.283</ele>
        <time>2022-03-22T13:48:45Z</time>
      </trkpt>
      <trkpt lat="44.37382" lon="5.78073">
        <ele>940.083</ele>
        <time>2022-03-22T13:48:46Z</time>
      </trkpt>
      <trkpt lat="44.3738" lon="5.78074">
        <ele>939.883</ele>
        <time>2022-03-22T13:48:48Z</time>
      </trkpt>
      <trkpt lat="44.37379" lon="5.78074">
        <ele>939.383</ele>
        <time>2022-03-22T13:48:50Z</time>
      </trkpt>
      <trkpt lat="44.37379" lon="5.78071">
        <ele>938.783</ele>
        <time>2022-03-22T13:48:53Z</time>
      </trkpt>
      <trkpt lat="44.37379" lon="5.7807">
        <ele>938.383</ele>
        <time>2022-03-22T13:48:55Z</time>
      </trkpt>
      <trkpt lat="44.37378" lon="5.78068">
        <ele>938.083</ele>
        <time>2022-03-22T13:48:56Z</time>
      </trkpt>
      <trkpt lat="44.37377" lon="5.78067">
        <ele>937.883</ele>
        <time>2022-03-22T13:48:58Z</time>
      </trkpt>
      <trkpt lat="44.37376" lon="5.78067">
        <ele>937.983</ele>
        <time>2022-03-22T13:49:00Z</time>
      </trkpt>
      <trkpt lat="44.37374" lon="5.78068">
        <ele>937.683</ele>
        <time>2022-03-22T13:49:02Z</time>
      </trkpt>
      <trkpt lat="44.37373" lon="5.78069">
        <ele>937.283</ele>
        <time>2022-03-22T13:49:04Z</time>
      </trkpt>
      <trkpt lat="44.37372" lon="5.78069">
        <ele>936.983</ele>
        <time>2022-03-22T13:49:05Z</time>
      </trkpt>
      <trkpt lat="44.37371" lon="5.7807">
        <ele>936.683</ele>
        <time>2022-03-22T13:49:06Z</time>
      </trkpt>
      <trkpt lat="44.3737" lon="5.78071">
        <ele>936.283</ele>
        <time>2022-03-22T13:49:08Z</time>
      </trkpt>
      <trkpt lat="44.37368" lon="5.78071">
        <ele>935.883</ele>
        <time>2022-03-22T13:49:10Z</time>
      </trkpt>
      <trkpt lat="44.37367" lon="5.7807">
        <ele>935.583</ele>
        <time>2022-03-22T13:49:12Z</time>
      </trkpt>
      <trkpt lat="44.37366" lon="5.7807">
        <ele>935.083</ele>
        <time>2022-03-22T13:49:14Z</time>
      </trkpt>
      <trkpt lat="44.37365" lon="5.78069">
        <ele>934.883</ele>
        <time>2022-03-22T13:49:16Z</time>
      </trkpt>
      <trkpt lat="44.37364" lon="5.78069">
        <ele>934.683</ele>
        <time>2022-03-22T13:49:17Z</time>
      </trkpt>
      <trkpt lat="44.37363" lon="5.78069">
        <ele>933.983</ele>
        <time>2022-03-22T13:49:19Z</time>
      </trkpt>
      <trkpt lat="44.37361" lon="5.78069">
        <ele>933.683</ele>
        <time>2022-03-22T13:49:21Z</time>
      </trkpt>
      <trkpt lat="44.3736" lon="5.78068">
        <ele>933.983</ele>
        <time>2022-03-22T13:49:23Z</time>
      </trkpt>
      <trkpt lat="44.37359" lon="5.78067">
        <ele>933.883</ele>
        <time>2022-03-22T13:49:25Z</time>
      </trkpt>
      <trkpt lat="44.37358" lon="5.78065">
        <ele>933.484</ele>
        <time>2022-03-22T13:49:27Z</time>
      </trkpt>
      <trkpt lat="44.37357" lon="5.78064">
        <ele>932.984</ele>
        <time>2022-03-22T13:49:29Z</time>
      </trkpt>
      <trkpt lat="44.37356" lon="5.78064">
        <ele>932.284</ele>
        <time>2022-03-22T13:49:31Z</time>
      </trkpt>
      <trkpt lat="44.37354" lon="5.78063">
        <ele>931.684</ele>
        <time>2022-03-22T13:49:33Z</time>
      </trkpt>
      <trkpt lat="44.37353" lon="5.78063">
        <ele>931.184</ele>
        <time>2022-03-22T13:49:35Z</time>
      </trkpt>
      <trkpt lat="44.37352" lon="5.78064">
        <ele>930.984</ele>
        <time>2022-03-22T13:49:36Z</time>
      </trkpt>
      <trkpt lat="44.37351" lon="5.78065">
        <ele>930.784</ele>
        <time>2022-03-22T13:49:37Z</time>
      </trkpt>
      <trkpt lat="44.3735" lon="5.78066">
        <ele>930.084</ele>
        <time>2022-03-22T13:49:39Z</time>
      </trkpt>
      <trkpt lat="44.37349" lon="5.78066">
        <ele>929.284</ele>
        <time>2022-03-22T13:49:42Z</time>
      </trkpt>
      <trkpt lat="44.37348" lon="5.78066">
        <ele>928.884</ele>
        <time>2022-03-22T13:49:44Z</time>
      </trkpt>
      <trkpt lat="44.37347" lon="5.78066">
        <ele>928.684</ele>
        <time>2022-03-22T13:49:46Z</time>
      </trkpt>
      <trkpt lat="44.37346" lon="5.78066">
        <ele>928.484</ele>
        <time>2022-03-22T13:49:47Z</time>
      </trkpt>
      <trkpt lat="44.37344" lon="5.78066">
        <ele>928.184</ele>
        <time>2022-03-22T13:49:49Z</time>
      </trkpt>
      <trkpt lat="44.37343" lon="5.78066">
        <ele>927.684</ele>
        <time>2022-03-22T13:49:50Z</time>
      </trkpt>
      <trkpt lat="44.37342" lon="5.78067">
        <ele>927.684</ele>
        <time>2022-03-22T13:49:52Z</time>
      </trkpt>
      <trkpt lat="44.37341" lon="5.78067">
        <ele>927.684</ele>
        <time>2022-03-22T13:49:53Z</time>
      </trkpt>
      <trkpt lat="44.3734" lon="5.78068">
        <ele>927.484</ele>
        <time>2022-03-22T13:49:54Z</time>
      </trkpt>
      <trkpt lat="44.37339" lon="5.78069">
        <ele>927.384</ele>
        <time>2022-03-22T13:49:55Z</time>
      </trkpt>
      <trkpt lat="44.37338" lon="5.78069">
        <ele>926.784</ele>
        <time>2022-03-22T13:49:57Z</time>
      </trkpt>
      <trkpt lat="44.37337" lon="5.78069">
        <ele>926.284</ele>
        <time>2022-03-22T13:49:59Z</time>
      </trkpt>
      <trkpt lat="44.37336" lon="5.78067">
        <ele>925.584</ele>
        <time>2022-03-22T13:50:01Z</time>
      </trkpt>
      <trkpt lat="44.37336" lon="5.78066">
        <ele>925.184</ele>
        <time>2022-03-22T13:50:03Z</time>
      </trkpt>
      <trkpt lat="44.37336" lon="5.78064">
        <ele>924.884</ele>
        <time>2022-03-22T13:50:05Z</time>
      </trkpt>
      <trkpt lat="44.37335" lon="5.78063">
        <ele>924.484</ele>
        <time>2022-03-22T13:50:08Z</time>
      </trkpt>
      <trkpt lat="44.37334" lon="5.78063">
        <ele>924.184</ele>
        <time>2022-03-22T13:50:10Z</time>
      </trkpt>
      <trkpt lat="44.37333" lon="5.78063">
        <ele>924.084</ele>
        <time>2022-03-22T13:50:11Z</time>
      </trkpt>
      <trkpt lat="44.37332" lon="5.78063">
        <ele>923.884</ele>
        <time>2022-03-22T13:50:12Z</time>
      </trkpt>
      <trkpt lat="44.3733" lon="5.78063">
        <ele>923.684</ele>
        <time>2022-03-22T13:50:13Z</time>
      </trkpt>
      <trkpt lat="44.37329" lon="5.78064">
        <ele>923.384</ele>
        <time>2022-03-22T13:50:15Z</time>
      </trkpt>
      <trkpt lat="44.37328" lon="5.78065">
        <ele>923.384</ele>
        <time>2022-03-22T13:50:16Z</time>
      </trkpt>
      <trkpt lat="44.37327" lon="5.78066">
        <ele>923.484</ele>
        <time>2022-03-22T13:50:18Z</time>
      </trkpt>
      <trkpt lat="44.37326" lon="5.78067">
        <ele>923.484</ele>
        <time>2022-03-22T13:50:20Z</time>
      </trkpt>
      <trkpt lat="44.37325" lon="5.78066">
        <ele>922.584</ele>
        <time>2022-03-22T13:50:23Z</time>
      </trkpt>
      <trkpt lat="44.37324" lon="5.78065">
        <ele>922.184</ele>
        <time>2022-03-22T13:50:25Z</time>
      </trkpt>
      <trkpt lat="44.37323" lon="5.78064">
        <ele>921.984</ele>
        <time>2022-03-22T13:50:27Z</time>
      </trkpt>
      <trkpt lat="44.37322" lon="5.78063">
        <ele>921.484</ele>
        <time>2022-03-22T13:50:29Z</time>
      </trkpt>
      <trkpt lat="44.37321" lon="5.78063">
        <ele>921.384</ele>
        <time>2022-03-22T13:50:30Z</time>
      </trkpt>
      <trkpt lat="44.3732" lon="5.78063">
        <ele>921.184</ele>
        <time>2022-03-22T13:50:31Z</time>
      </trkpt>
      <trkpt lat="44.37319" lon="5.78063">
        <ele>921.085</ele>
        <time>2022-03-22T13:50:32Z</time>
      </trkpt>
      <trkpt lat="44.37317" lon="5.78061">
        <ele>920.385</ele>
        <time>2022-03-22T13:50:34Z</time>
      </trkpt>
      <trkpt lat="44.37316" lon="5.78062">
        <ele>919.685</ele>
        <time>2022-03-22T13:50:36Z</time>
      </trkpt>
      <trkpt lat="44.37314" lon="5.78063">
        <ele>918.985</ele>
        <time>2022-03-22T13:50:39Z</time>
      </trkpt>
      <trkpt lat="44.37313" lon="5.78062">
        <ele>918.685</ele>
        <time>2022-03-22T13:50:41Z</time>
      </trkpt>
      <trkpt lat="44.37311" lon="5.78061">
        <ele>918.285</ele>
        <time>2022-03-22T13:50:43Z</time>
      </trkpt>
      <trkpt lat="44.3731" lon="5.78059">
        <ele>917.885</ele>
        <time>2022-03-22T13:50:45Z</time>
      </trkpt>
      <trkpt lat="44.37308" lon="5.78059">
        <ele>917.185</ele>
        <time>2022-03-22T13:50:47Z</time>
      </trkpt>
      <trkpt lat="44.37307" lon="5.7806">
        <ele>917.085</ele>
        <time>2022-03-22T13:50:48Z</time>
      </trkpt>
      <trkpt lat="44.37306" lon="5.78061">
        <ele>916.485</ele>
        <time>2022-03-22T13:50:50Z</time>
      </trkpt>
      <trkpt lat="44.37305" lon="5.78062">
        <ele>915.785</ele>
        <time>2022-03-22T13:50:52Z</time>
      </trkpt>
      <trkpt lat="44.37304" lon="5.78063">
        <ele>915.985</ele>
        <time>2022-03-22T13:50:55Z</time>
      </trkpt>
      <trkpt lat="44.37303" lon="5.78063">
        <ele>916.085</ele>
        <time>2022-03-22T13:50:57Z</time>
      </trkpt>
      <trkpt lat="44.37302" lon="5.78062">
        <ele>915.785</ele>
        <time>2022-03-22T13:50:59Z</time>
      </trkpt>
      <trkpt lat="44.373" lon="5.78062">
        <ele>915.485</ele>
        <time>2022-03-22T13:51:01Z</time>
      </trkpt>
      <trkpt lat="44.37299" lon="5.78061">
        <ele>915.385</ele>
        <time>2022-03-22T13:51:02Z</time>
      </trkpt>
      <trkpt lat="44.37298" lon="5.78061">
        <ele>915.085</ele>
        <time>2022-03-22T13:51:04Z</time>
      </trkpt>
      <trkpt lat="44.37297" lon="5.7806">
        <ele>914.885</ele>
        <time>2022-03-22T13:51:05Z</time>
      </trkpt>
      <trkpt lat="44.37296" lon="5.7806">
        <ele>914.785</ele>
        <time>2022-03-22T13:51:06Z</time>
      </trkpt>
      <trkpt lat="44.37295" lon="5.78059">
        <ele>914.485</ele>
        <time>2022-03-22T13:51:08Z</time>
      </trkpt>
      <trkpt lat="44.37294" lon="5.78059">
        <ele>913.885</ele>
        <time>2022-03-22T13:51:10Z</time>
      </trkpt>
      <trkpt lat="44.37292" lon="5.78058">
        <ele>912.985</ele>
        <time>2022-03-22T13:51:12Z</time>
      </trkpt>
      <trkpt lat="44.37291" lon="5.78057">
        <ele>912.885</ele>
        <time>2022-03-22T13:51:13Z</time>
      </trkpt>
      <trkpt lat="44.3729" lon="5.78056">
        <ele>912.585</ele>
        <time>2022-03-22T13:51:15Z</time>
      </trkpt>
      <trkpt lat="44.37289" lon="5.78055">
        <ele>911.985</ele>
        <time>2022-03-22T13:51:17Z</time>
      </trkpt>
      <trkpt lat="44.37287" lon="5.78055">
        <ele>911.485</ele>
        <time>2022-03-22T13:51:19Z</time>
      </trkpt>
      <trkpt lat="44.37286" lon="5.78054">
        <ele>911.185</ele>
        <time>2022-03-22T13:51:20Z</time>
      </trkpt>
      <trkpt lat="44.37285" lon="5.78052">
        <ele>910.485</ele>
        <time>2022-03-22T13:51:22Z</time>
      </trkpt>
      <trkpt lat="44.37285" lon="5.78051">
        <ele>909.785</ele>
        <time>2022-03-22T13:51:24Z</time>
      </trkpt>
      <trkpt lat="44.37283" lon="5.78051">
        <ele>909.086</ele>
        <time>2022-03-22T13:51:26Z</time>
      </trkpt>
      <trkpt lat="44.37282" lon="5.78052">
        <ele>908.686</ele>
        <time>2022-03-22T13:51:28Z</time>
      </trkpt>
      <trkpt lat="44.37281" lon="5.78052">
        <ele>908.286</ele>
        <time>2022-03-22T13:51:29Z</time>
      </trkpt>
      <trkpt lat="44.37279" lon="5.78052">
        <ele>907.886</ele>
        <time>2022-03-22T13:51:31Z</time>
      </trkpt>
      <trkpt lat="44.37278" lon="5.78052">
        <ele>907.386</ele>
        <time>2022-03-22T13:51:33Z</time>
      </trkpt>
      <trkpt lat="44.37277" lon="5.78051">
        <ele>907.086</ele>
        <time>2022-03-22T13:51:34Z</time>
      </trkpt>
      <trkpt lat="44.37275" lon="5.78051">
        <ele>906.886</ele>
        <time>2022-03-22T13:51:36Z</time>
      </trkpt>
      <trkpt lat="44.37274" lon="5.78051">
        <ele>907.086</ele>
        <time>2022-03-22T13:51:37Z</time>
      </trkpt>
      <trkpt lat="44.37273" lon="5.7805">
        <ele>906.986</ele>
        <time>2022-03-22T13:51:39Z</time>
      </trkpt>
      <trkpt lat="44.37271" lon="5.7805">
        <ele>906.686</ele>
        <time>2022-03-22T13:51:41Z</time>
      </trkpt>
      <trkpt lat="44.3727" lon="5.7805">
        <ele>906.286</ele>
        <time>2022-03-22T13:51:42Z</time>
      </trkpt>
      <trkpt lat="44.37269" lon="5.7805">
        <ele>905.886</ele>
        <time>2022-03-22T13:51:44Z</time>
      </trkpt>
      <trkpt lat="44.37267" lon="5.7805">
        <ele>905.686</ele>
        <time>2022-03-22T13:51:45Z</time>
      </trkpt>
      <trkpt lat="44.37266" lon="5.7805">
        <ele>905.486</ele>
        <time>2022-03-22T13:51:46Z</time>
      </trkpt>
      <trkpt lat="44.37265" lon="5.7805">
        <ele>905.286</ele>
        <time>2022-03-22T13:51:47Z</time>
      </trkpt>
      <trkpt lat="44.37264" lon="5.78052">
        <ele>904.886</ele>
        <time>2022-03-22T13:51:49Z</time>
      </trkpt>
      <trkpt lat="44.37263" lon="5.78052">
        <ele>904.286</ele>
        <time>2022-03-22T13:51:51Z</time>
      </trkpt>
      <trkpt lat="44.37262" lon="5.78051">
        <ele>903.886</ele>
        <time>2022-03-22T13:51:54Z</time>
      </trkpt>
      <trkpt lat="44.37261" lon="5.7805">
        <ele>903.186</ele>
        <time>2022-03-22T13:51:56Z</time>
      </trkpt>
      <trkpt lat="44.37261" lon="5.78049">
        <ele>902.486</ele>
        <time>2022-03-22T13:51:58Z</time>
      </trkpt>
      <trkpt lat="44.3726" lon="5.78047">
        <ele>901.986</ele>
        <time>2022-03-22T13:52:00Z</time>
      </trkpt>
      <trkpt lat="44.37259" lon="5.78046">
        <ele>901.886</ele>
        <time>2022-03-22T13:52:01Z</time>
      </trkpt>
      <trkpt lat="44.37259" lon="5.78044">
        <ele>901.786</ele>
        <time>2022-03-22T13:52:03Z</time>
      </trkpt>
      <trkpt lat="44.37257" lon="5.78042">
        <ele>901.586</ele>
        <time>2022-03-22T13:52:05Z</time>
      </trkpt>
      <trkpt lat="44.37256" lon="5.78041">
        <ele>901.386</ele>
        <time>2022-03-22T13:52:07Z</time>
      </trkpt>
      <trkpt lat="44.37254" lon="5.78041">
        <ele>900.786</ele>
        <time>2022-03-22T13:52:09Z</time>
      </trkpt>
      <trkpt lat="44.37253" lon="5.7804">
        <ele>900.586</ele>
        <time>2022-03-22T13:52:10Z</time>
      </trkpt>
      <trkpt lat="44.37252" lon="5.7804">
        <ele>900.286</ele>
        <time>2022-03-22T13:52:11Z</time>
      </trkpt>
      <trkpt lat="44.37252" lon="5.78039">
        <ele>900.086</ele>
        <time>2022-03-22T13:52:12Z</time>
      </trkpt>
      <trkpt lat="44.3725" lon="5.78038">
        <ele>899.586</ele>
        <time>2022-03-22T13:52:14Z</time>
      </trkpt>
      <trkpt lat="44.37248" lon="5.78038">
        <ele>899.087</ele>
        <time>2022-03-22T13:52:16Z</time>
      </trkpt>
      <trkpt lat="44.37247" lon="5.78038">
        <ele>899.087</ele>
        <time>2022-03-22T13:52:17Z</time>
      </trkpt>
      <trkpt lat="44.37246" lon="5.78038">
        <ele>898.787</ele>
        <time>2022-03-22T13:52:19Z</time>
      </trkpt>
      <trkpt lat="44.37244" lon="5.78039">
        <ele>898.687</ele>
        <time>2022-03-22T13:52:21Z</time>
      </trkpt>
      <trkpt lat="44.37243" lon="5.78039">
        <ele>898.787</ele>
        <time>2022-03-22T13:52:22Z</time>
      </trkpt>
      <trkpt lat="44.37241" lon="5.7804">
        <ele>898.487</ele>
        <time>2022-03-22T13:52:24Z</time>
      </trkpt>
      <trkpt lat="44.37239" lon="5.78041">
        <ele>898.387</ele>
        <time>2022-03-22T13:52:26Z</time>
      </trkpt>
      <trkpt lat="44.37238" lon="5.78041">
        <ele>897.787</ele>
        <time>2022-03-22T13:52:28Z</time>
      </trkpt>
      <trkpt lat="44.37237" lon="5.78041">
        <ele>897.287</ele>
        <time>2022-03-22T13:52:30Z</time>
      </trkpt>
      <trkpt lat="44.37236" lon="5.78041">
        <ele>896.787</ele>
        <time>2022-03-22T13:52:31Z</time>
      </trkpt>
      <trkpt lat="44.37235" lon="5.78041">
        <ele>896.387</ele>
        <time>2022-03-22T13:52:32Z</time>
      </trkpt>
      <trkpt lat="44.37233" lon="5.78042">
        <ele>895.787</ele>
        <time>2022-03-22T13:52:34Z</time>
      </trkpt>
      <trkpt lat="44.37232" lon="5.78042">
        <ele>895.487</ele>
        <time>2022-03-22T13:52:35Z</time>
      </trkpt>
      <trkpt lat="44.37231" lon="5.78042">
        <ele>895.287</ele>
        <time>2022-03-22T13:52:36Z</time>
      </trkpt>
      <trkpt lat="44.3723" lon="5.78042">
        <ele>894.987</ele>
        <time>2022-03-22T13:52:37Z</time>
      </trkpt>
      <trkpt lat="44.37229" lon="5.78042">
        <ele>894.687</ele>
        <time>2022-03-22T13:52:38Z</time>
      </trkpt>
      <trkpt lat="44.37227" lon="5.78043">
        <ele>894.087</ele>
        <time>2022-03-22T13:52:40Z</time>
      </trkpt>
      <trkpt lat="44.37227" lon="5.78042">
        <ele>892.887</ele>
        <time>2022-03-22T13:52:43Z</time>
      </trkpt>
      <trkpt lat="44.37225" lon="5.78041">
        <ele>891.987</ele>
        <time>2022-03-22T13:52:46Z</time>
      </trkpt>
      <trkpt lat="44.37224" lon="5.7804">
        <ele>891.487</ele>
        <time>2022-03-22T13:52:48Z</time>
      </trkpt>
      <trkpt lat="44.37223" lon="5.7804">
        <ele>891.287</ele>
        <time>2022-03-22T13:52:49Z</time>
      </trkpt>
      <trkpt lat="44.37222" lon="5.7804">
        <ele>891.087</ele>
        <time>2022-03-22T13:52:50Z</time>
      </trkpt>
      <trkpt lat="44.37221" lon="5.78039">
        <ele>890.987</ele>
        <time>2022-03-22T13:52:51Z</time>
      </trkpt>
      <trkpt lat="44.3722" lon="5.78038">
        <ele>890.887</ele>
        <time>2022-03-22T13:52:52Z</time>
      </trkpt>
      <trkpt lat="44.37219" lon="5.78037">
        <ele>890.887</ele>
        <time>2022-03-22T13:52:53Z</time>
      </trkpt>
      <trkpt lat="44.37217" lon="5.78037">
        <ele>890.387</ele>
        <time>2022-03-22T13:52:55Z</time>
      </trkpt>
      <trkpt lat="44.37216" lon="5.78037">
        <ele>890.087</ele>
        <time>2022-03-22T13:52:56Z</time>
      </trkpt>
      <trkpt lat="44.37215" lon="5.78037">
        <ele>890.087</ele>
        <time>2022-03-22T13:52:57Z</time>
      </trkpt>
      <trkpt lat="44.37214" lon="5.78036">
        <ele>889.987</ele>
        <time>2022-03-22T13:52:58Z</time>
      </trkpt>
      <trkpt lat="44.37214" lon="5.78035">
        <ele>889.687</ele>
        <time>2022-03-22T13:53:00Z</time>
      </trkpt>
      <trkpt lat="44.37213" lon="5.78032">
        <ele>889.187</ele>
        <time>2022-03-22T13:53:02Z</time>
      </trkpt>
      <trkpt lat="44.37213" lon="5.78031">
        <ele>888.987</ele>
        <time>2022-03-22T13:53:03Z</time>
      </trkpt>
      <trkpt lat="44.37212" lon="5.78029">
        <ele>888.587</ele>
        <time>2022-03-22T13:53:05Z</time>
      </trkpt>
      <trkpt lat="44.37212" lon="5.78028">
        <ele>888.188</ele>
        <time>2022-03-22T13:53:06Z</time>
      </trkpt>
      <trkpt lat="44.37212" lon="5.78027">
        <ele>887.888</ele>
        <time>2022-03-22T13:53:07Z</time>
      </trkpt>
      <trkpt lat="44.37211" lon="5.78025">
        <ele>887.388</ele>
        <time>2022-03-22T13:53:08Z</time>
      </trkpt>
      <trkpt lat="44.37211" lon="5.78023">
        <ele>886.688</ele>
        <time>2022-03-22T13:53:10Z</time>
      </trkpt>
      <trkpt lat="44.37211" lon="5.78021">
        <ele>886.188</ele>
        <time>2022-03-22T13:53:12Z</time>
      </trkpt>
      <trkpt lat="44.37211" lon="5.78018">
        <ele>885.888</ele>
        <time>2022-03-22T13:53:14Z</time>
      </trkpt>
      <trkpt lat="44.37213" lon="5.78016">
        <ele>885.388</ele>
        <time>2022-03-22T13:53:16Z</time>
      </trkpt>
      <trkpt lat="44.37214" lon="5.78014">
        <ele>885.088</ele>
        <time>2022-03-22T13:53:18Z</time>
      </trkpt>
      <trkpt lat="44.37215" lon="5.78013">
        <ele>884.688</ele>
        <time>2022-03-22T13:53:20Z</time>
      </trkpt>
      <trkpt lat="44.37216" lon="5.78012">
        <ele>884.288</ele>
        <time>2022-03-22T13:53:21Z</time>
      </trkpt>
      <trkpt lat="44.37217" lon="5.78011">
        <ele>883.988</ele>
        <time>2022-03-22T13:53:24Z</time>
      </trkpt>
      <trkpt lat="44.37218" lon="5.78009">
        <ele>883.988</ele>
        <time>2022-03-22T13:53:26Z</time>
      </trkpt>
      <trkpt lat="44.37218" lon="5.78008">
        <ele>883.888</ele>
        <time>2022-03-22T13:53:27Z</time>
      </trkpt>
      <trkpt lat="44.37219" lon="5.78007">
        <ele>883.988</ele>
        <time>2022-03-22T13:53:28Z</time>
      </trkpt>
      <trkpt lat="44.3722" lon="5.78005">
        <ele>883.888</ele>
        <time>2022-03-22T13:53:30Z</time>
      </trkpt>
      <trkpt lat="44.37222" lon="5.78004">
        <ele>883.788</ele>
        <time>2022-03-22T13:53:32Z</time>
      </trkpt>
      <trkpt lat="44.37223" lon="5.78002">
        <ele>883.387</ele>
        <time>2022-03-22T13:53:34Z</time>
      </trkpt>
      <trkpt lat="44.37224" lon="5.78001">
        <ele>883.187</ele>
        <time>2022-03-22T13:53:35Z</time>
      </trkpt>
      <trkpt lat="44.37225" lon="5.77998">
        <ele>882.787</ele>
        <time>2022-03-22T13:53:37Z</time>
      </trkpt>
      <trkpt lat="44.37226" lon="5.77996">
        <ele>882.787</ele>
        <time>2022-03-22T13:53:39Z</time>
      </trkpt>
      <trkpt lat="44.37226" lon="5.77993">
        <ele>882.487</ele>
        <time>2022-03-22T13:53:41Z</time>
      </trkpt>
      <trkpt lat="44.37227" lon="5.77992">
        <ele>882.088</ele>
        <time>2022-03-22T13:53:42Z</time>
      </trkpt>
      <trkpt lat="44.37227" lon="5.7799">
        <ele>881.988</ele>
        <time>2022-03-22T13:53:43Z</time>
      </trkpt>
      <trkpt lat="44.37227" lon="5.77989">
        <ele>881.688</ele>
        <time>2022-03-22T13:53:44Z</time>
      </trkpt>
      <trkpt lat="44.37228" lon="5.77987">
        <ele>881.388</ele>
        <time>2022-03-22T13:53:46Z</time>
      </trkpt>
      <trkpt lat="44.37228" lon="5.77985">
        <ele>881.288</ele>
        <time>2022-03-22T13:53:47Z</time>
      </trkpt>
      <trkpt lat="44.37229" lon="5.77984">
        <ele>881.188</ele>
        <time>2022-03-22T13:53:48Z</time>
      </trkpt>
      <trkpt lat="44.3723" lon="5.77983">
        <ele>880.988</ele>
        <time>2022-03-22T13:53:49Z</time>
      </trkpt>
      <trkpt lat="44.3723" lon="5.77981">
        <ele>880.988</ele>
        <time>2022-03-22T13:53:51Z</time>
      </trkpt>
      <trkpt lat="44.37232" lon="5.77978">
        <ele>881.188</ele>
        <time>2022-03-22T13:53:53Z</time>
      </trkpt>
      <trkpt lat="44.37232" lon="5.77977">
        <ele>881.088</ele>
        <time>2022-03-22T13:53:54Z</time>
      </trkpt>
      <trkpt lat="44.37233" lon="5.77975">
        <ele>881.088</ele>
        <time>2022-03-22T13:53:55Z</time>
      </trkpt>
      <trkpt lat="44.37234" lon="5.77975">
        <ele>881.187</ele>
        <time>2022-03-22T13:53:57Z</time>
      </trkpt>
      <trkpt lat="44.37235" lon="5.77973">
        <ele>881.787</ele>
        <time>2022-03-22T13:53:59Z</time>
      </trkpt>
      <trkpt lat="44.37236" lon="5.77971">
        <ele>881.987</ele>
        <time>2022-03-22T13:54:01Z</time>
      </trkpt>
      <trkpt lat="44.37237" lon="5.77969">
        <ele>882.087</ele>
        <time>2022-03-22T13:54:03Z</time>
      </trkpt>
      <trkpt lat="44.37237" lon="5.77968">
        <ele>882.187</ele>
        <time>2022-03-22T13:54:04Z</time>
      </trkpt>
      <trkpt lat="44.37238" lon="5.77966">
        <ele>882.287</ele>
        <time>2022-03-22T13:54:06Z</time>
      </trkpt>
      <trkpt lat="44.37238" lon="5.77964">
        <ele>882.387</ele>
        <time>2022-03-22T13:54:07Z</time>
      </trkpt>
      <trkpt lat="44.3724" lon="5.77963">
        <ele>882.187</ele>
        <time>2022-03-22T13:54:09Z</time>
      </trkpt>
      <trkpt lat="44.3724" lon="5.77961">
        <ele>882.187</ele>
        <time>2022-03-22T13:54:11Z</time>
      </trkpt>
      <trkpt lat="44.37241" lon="5.77958">
        <ele>882.687</ele>
        <time>2022-03-22T13:54:13Z</time>
      </trkpt>
      <trkpt lat="44.37242" lon="5.77957">
        <ele>882.687</ele>
        <time>2022-03-22T13:54:14Z</time>
      </trkpt>
      <trkpt lat="44.37243" lon="5.77956">
        <ele>883.087</ele>
        <time>2022-03-22T13:54:16Z</time>
      </trkpt>
      <trkpt lat="44.37243" lon="5.77955">
        <ele>883.187</ele>
        <time>2022-03-22T13:54:17Z</time>
      </trkpt>
      <trkpt lat="44.37244" lon="5.77952">
        <ele>883.087</ele>
        <time>2022-03-22T13:54:19Z</time>
      </trkpt>
      <trkpt lat="44.37244" lon="5.77951">
        <ele>882.987</ele>
        <time>2022-03-22T13:54:20Z</time>
      </trkpt>
      <trkpt lat="44.37244" lon="5.77949">
        <ele>883.087</ele>
        <time>2022-03-22T13:54:22Z</time>
      </trkpt>
      <trkpt lat="44.37245" lon="5.77946">
        <ele>883.288</ele>
        <time>2022-03-22T13:54:24Z</time>
      </trkpt>
      <trkpt lat="44.37245" lon="5.77944">
        <ele>883.388</ele>
        <time>2022-03-22T13:54:26Z</time>
      </trkpt>
      <trkpt lat="44.37245" lon="5.77943">
        <ele>883.288</ele>
        <time>2022-03-22T13:54:27Z</time>
      </trkpt>
      <trkpt lat="44.37246" lon="5.77941">
        <ele>883.288</ele>
        <time>2022-03-22T13:54:29Z</time>
      </trkpt>
      <trkpt lat="44.37247" lon="5.77939">
        <ele>883.588</ele>
        <time>2022-03-22T13:54:31Z</time>
      </trkpt>
      <trkpt lat="44.37247" lon="5.77937">
        <ele>883.988</ele>
        <time>2022-03-22T13:54:33Z</time>
      </trkpt>
      <trkpt lat="44.37247" lon="5.77935">
        <ele>884.188</ele>
        <time>2022-03-22T13:54:35Z</time>
      </trkpt>
      <trkpt lat="44.37248" lon="5.77934">
        <ele>883.888</ele>
        <time>2022-03-22T13:54:38Z</time>
      </trkpt>
      <trkpt lat="44.37249" lon="5.77934">
        <ele>883.588</ele>
        <time>2022-03-22T13:54:40Z</time>
      </trkpt>
      <trkpt lat="44.37249" lon="5.77934">
        <ele>883.488</ele>
        <time>2022-03-22T13:54:41Z</time>
      </trkpt>
      <trkpt lat="44.37249" lon="5.77935">
        <ele>883.487</ele>
        <time>2022-03-22T13:55:38Z</time>
      </trkpt>
      <trkpt lat="44.37246" lon="5.77944">
        <ele>884.888</ele>
        <time>2022-03-22T13:55:39Z</time>
      </trkpt>
      <trkpt lat="44.37247" lon="5.77943">
        <ele>885.287</ele>
        <time>2022-03-22T13:55:41Z</time>
      </trkpt>
      <trkpt lat="44.37248" lon="5.77942">
        <ele>885.687</ele>
        <time>2022-03-22T13:55:43Z</time>
      </trkpt>
      <trkpt lat="44.37248" lon="5.77943">
        <ele>886.087</ele>
        <time>2022-03-22T13:55:44Z</time>
      </trkpt>
      <trkpt lat="44.37249" lon="5.77943">
        <ele>886.687</ele>
        <time>2022-03-22T13:55:46Z</time>
      </trkpt>
      <trkpt lat="44.37249" lon="5.77944">
        <ele>886.787</ele>
        <time>2022-03-22T13:55:47Z</time>
      </trkpt>
      <trkpt lat="44.37249" lon="5.77944">
        <ele>886.987</ele>
        <time>2022-03-22T13:55:48Z</time>
      </trkpt>
      <trkpt lat="44.37249" lon="5.77944">
        <ele>887.287</ele>
        <time>2022-03-22T13:56:44Z</time>
      </trkpt>
      <trkpt lat="44.37248" lon="5.77931">
        <ele>888.688</ele>
        <time>2022-03-22T13:56:45Z</time>
      </trkpt>
      <trkpt lat="44.37248" lon="5.77931">
        <ele>888.688</ele>
        <time>2022-03-22T13:56:46Z</time>
      </trkpt>
      <trkpt lat="44.37247" lon="5.77931">
        <ele>888.788</ele>
        <time>2022-03-22T13:57:04Z</time>
      </trkpt>
      <trkpt lat="44.37251" lon="5.77938">
        <ele>888.487</ele>
        <time>2022-03-22T13:57:05Z</time>
      </trkpt>
      <trkpt lat="44.37252" lon="5.77936">
        <ele>888.687</ele>
        <time>2022-03-22T13:57:06Z</time>
      </trkpt>
      <trkpt lat="44.37252" lon="5.77935">
        <ele>888.587</ele>
        <time>2022-03-22T13:57:07Z</time>
      </trkpt>
      <trkpt lat="44.37253" lon="5.77933">
        <ele>888.287</ele>
        <time>2022-03-22T13:57:08Z</time>
      </trkpt>
      <trkpt lat="44.37254" lon="5.77932">
        <ele>888.087</ele>
        <time>2022-03-22T13:57:09Z</time>
      </trkpt>
      <trkpt lat="44.37254" lon="5.7793">
        <ele>887.687</ele>
        <time>2022-03-22T13:57:10Z</time>
      </trkpt>
      <trkpt lat="44.37254" lon="5.77928">
        <ele>887.387</ele>
        <time>2022-03-22T13:57:11Z</time>
      </trkpt>
      <trkpt lat="44.37253" lon="5.77927">
        <ele>887.187</ele>
        <time>2022-03-22T13:57:12Z</time>
      </trkpt>
      <trkpt lat="44.37253" lon="5.77925">
        <ele>886.887</ele>
        <time>2022-03-22T13:57:13Z</time>
      </trkpt>
      <trkpt lat="44.37253" lon="5.77924">
        <ele>886.688</ele>
        <time>2022-03-22T13:57:14Z</time>
      </trkpt>
      <trkpt lat="44.37254" lon="5.77921">
        <ele>885.988</ele>
        <time>2022-03-22T13:57:16Z</time>
      </trkpt>
      <trkpt lat="44.37254" lon="5.7792">
        <ele>885.788</ele>
        <time>2022-03-22T13:57:17Z</time>
      </trkpt>
      <trkpt lat="44.37255" lon="5.77919">
        <ele>884.988</ele>
        <time>2022-03-22T13:57:19Z</time>
      </trkpt>
      <trkpt lat="44.37257" lon="5.77918">
        <ele>883.587</ele>
        <time>2022-03-22T13:57:21Z</time>
      </trkpt>
      <trkpt lat="44.37258" lon="5.77917">
        <ele>883.187</ele>
        <time>2022-03-22T13:57:22Z</time>
      </trkpt>
      <trkpt lat="44.37259" lon="5.77915">
        <ele>882.487</ele>
        <time>2022-03-22T13:57:24Z</time>
      </trkpt>
      <trkpt lat="44.3726" lon="5.77914">
        <ele>882.087</ele>
        <time>2022-03-22T13:57:25Z</time>
      </trkpt>
      <trkpt lat="44.3726" lon="5.77913">
        <ele>881.787</ele>
        <time>2022-03-22T13:57:26Z</time>
      </trkpt>
      <trkpt lat="44.3726" lon="5.77912">
        <ele>881.587</ele>
        <time>2022-03-22T13:57:27Z</time>
      </trkpt>
      <trkpt lat="44.3726" lon="5.7791">
        <ele>881.387</ele>
        <time>2022-03-22T13:57:29Z</time>
      </trkpt>
      <trkpt lat="44.3726" lon="5.77908">
        <ele>881.287</ele>
        <time>2022-03-22T13:57:30Z</time>
      </trkpt>
      <trkpt lat="44.37259" lon="5.77907">
        <ele>881.188</ele>
        <time>2022-03-22T13:57:31Z</time>
      </trkpt>
      <trkpt lat="44.37259" lon="5.77906">
        <ele>880.888</ele>
        <time>2022-03-22T13:57:32Z</time>
      </trkpt>
      <trkpt lat="44.37259" lon="5.77904">
        <ele>880.688</ele>
        <time>2022-03-22T13:57:33Z</time>
      </trkpt>
      <trkpt lat="44.37259" lon="5.77903">
        <ele>880.588</ele>
        <time>2022-03-22T13:57:34Z</time>
      </trkpt>
      <trkpt lat="44.37258" lon="5.77902">
        <ele>880.488</ele>
        <time>2022-03-22T13:57:35Z</time>
      </trkpt>
      <trkpt lat="44.37258" lon="5.77899">
        <ele>880.688</ele>
        <time>2022-03-22T13:57:37Z</time>
      </trkpt>
      <trkpt lat="44.37258" lon="5.77897">
        <ele>880.188</ele>
        <time>2022-03-22T13:57:39Z</time>
      </trkpt>
      <trkpt lat="44.37258" lon="5.77896">
        <ele>880.088</ele>
        <time>2022-03-22T13:57:40Z</time>
      </trkpt>
      <trkpt lat="44.37258" lon="5.77894">
        <ele>879.988</ele>
        <time>2022-03-22T13:57:41Z</time>
      </trkpt>
      <trkpt lat="44.37258" lon="5.77892">
        <ele>879.788</ele>
        <time>2022-03-22T13:57:43Z</time>
      </trkpt>
      <trkpt lat="44.37259" lon="5.7789">
        <ele>879.388</ele>
        <time>2022-03-22T13:57:45Z</time>
      </trkpt>
      <trkpt lat="44.37258" lon="5.77888">
        <ele>879.188</ele>
        <time>2022-03-22T13:57:46Z</time>
      </trkpt>
      <trkpt lat="44.37259" lon="5.77886">
        <ele>878.988</ele>
        <time>2022-03-22T13:57:47Z</time>
      </trkpt>
      <trkpt lat="44.37259" lon="5.77885">
        <ele>878.388</ele>
        <time>2022-03-22T13:57:49Z</time>
      </trkpt>
      <trkpt lat="44.37259" lon="5.77883">
        <ele>878.088</ele>
        <time>2022-03-22T13:57:50Z</time>
      </trkpt>
      <trkpt lat="44.3726" lon="5.77882">
        <ele>877.588</ele>
        <time>2022-03-22T13:57:52Z</time>
      </trkpt>
      <trkpt lat="44.3726" lon="5.77881">
        <ele>877.088</ele>
        <time>2022-03-22T13:57:53Z</time>
      </trkpt>
      <trkpt lat="44.37262" lon="5.77878">
        <ele>876.388</ele>
        <time>2022-03-22T13:57:55Z</time>
      </trkpt>
      <trkpt lat="44.37262" lon="5.77877">
        <ele>876.388</ele>
        <time>2022-03-22T13:57:56Z</time>
      </trkpt>
      <trkpt lat="44.37263" lon="5.77874">
        <ele>876.188</ele>
        <time>2022-03-22T13:57:58Z</time>
      </trkpt>
      <trkpt lat="44.37264" lon="5.77873">
        <ele>876.188</ele>
        <time>2022-03-22T13:57:59Z</time>
      </trkpt>
      <trkpt lat="44.37265" lon="5.77872">
        <ele>876.088</ele>
        <time>2022-03-22T13:58:00Z</time>
      </trkpt>
      <trkpt lat="44.37266" lon="5.77871">
        <ele>876.088</ele>
        <time>2022-03-22T13:58:01Z</time>
      </trkpt>
      <trkpt lat="44.37266" lon="5.77869">
        <ele>876.088</ele>
        <time>2022-03-22T13:58:03Z</time>
      </trkpt>
      <trkpt lat="44.37266" lon="5.77867">
        <ele>875.988</ele>
        <time>2022-03-22T13:58:05Z</time>
      </trkpt>
      <trkpt lat="44.37265" lon="5.77865">
        <ele>875.788</ele>
        <time>2022-03-22T13:58:07Z</time>
      </trkpt>
      <trkpt lat="44.37265" lon="5.77864">
        <ele>875.388</ele>
        <time>2022-03-22T13:58:08Z</time>
      </trkpt>
      <trkpt lat="44.37265" lon="5.77862">
        <ele>875.288</ele>
        <time>2022-03-22T13:58:09Z</time>
      </trkpt>
      <trkpt lat="44.37265" lon="5.77861">
        <ele>875.288</ele>
        <time>2022-03-22T13:58:10Z</time>
      </trkpt>
      <trkpt lat="44.37266" lon="5.77858">
        <ele>874.688</ele>
        <time>2022-03-22T13:58:12Z</time>
      </trkpt>
      <trkpt lat="44.37265" lon="5.77856">
        <ele>874.488</ele>
        <time>2022-03-22T13:58:13Z</time>
      </trkpt>
      <trkpt lat="44.37266" lon="5.77855">
        <ele>874.388</ele>
        <time>2022-03-22T13:58:14Z</time>
      </trkpt>
      <trkpt lat="44.37266" lon="5.77853">
        <ele>874.388</ele>
        <time>2022-03-22T13:58:16Z</time>
      </trkpt>
      <trkpt lat="44.37266" lon="5.77852">
        <ele>874.288</ele>
        <time>2022-03-22T13:58:18Z</time>
      </trkpt>
      <trkpt lat="44.37266" lon="5.7785">
        <ele>873.688</ele>
        <time>2022-03-22T13:58:20Z</time>
      </trkpt>
      <trkpt lat="44.37266" lon="5.77848">
        <ele>873.188</ele>
        <time>2022-03-22T13:58:22Z</time>
      </trkpt>
      <trkpt lat="44.37266" lon="5.77846">
        <ele>873.088</ele>
        <time>2022-03-22T13:58:23Z</time>
      </trkpt>
      <trkpt lat="44.37265" lon="5.77845">
        <ele>872.888</ele>
        <time>2022-03-22T13:58:24Z</time>
      </trkpt>
      <trkpt lat="44.37264" lon="5.77843">
        <ele>872.388</ele>
        <time>2022-03-22T13:58:26Z</time>
      </trkpt>
      <trkpt lat="44.37264" lon="5.77842">
        <ele>872.288</ele>
        <time>2022-03-22T13:58:27Z</time>
      </trkpt>
      <trkpt lat="44.37263" lon="5.77841">
        <ele>871.788</ele>
        <time>2022-03-22T13:58:29Z</time>
      </trkpt>
      <trkpt lat="44.37263" lon="5.77839">
        <ele>871.588</ele>
        <time>2022-03-22T13:58:31Z</time>
      </trkpt>
      <trkpt lat="44.37262" lon="5.77837">
        <ele>871.188</ele>
        <time>2022-03-22T13:58:33Z</time>
      </trkpt>
      <trkpt lat="44.37262" lon="5.77836">
        <ele>871.188</ele>
        <time>2022-03-22T13:58:34Z</time>
      </trkpt>
      <trkpt lat="44.3726" lon="5.77834">
        <ele>870.988</ele>
        <time>2022-03-22T13:58:36Z</time>
      </trkpt>
      <trkpt lat="44.37259" lon="5.77833">
        <ele>870.788</ele>
        <time>2022-03-22T13:58:38Z</time>
      </trkpt>
      <trkpt lat="44.37258" lon="5.77832">
        <ele>870.788</ele>
        <time>2022-03-22T13:58:40Z</time>
      </trkpt>
      <trkpt lat="44.37257" lon="5.77831">
        <ele>870.988</ele>
        <time>2022-03-22T13:58:41Z</time>
      </trkpt>
      <trkpt lat="44.37256" lon="5.7783">
        <ele>870.888</ele>
        <time>2022-03-22T13:58:42Z</time>
      </trkpt>
      <trkpt lat="44.37255" lon="5.77829">
        <ele>870.588</ele>
        <time>2022-03-22T13:58:44Z</time>
      </trkpt>
      <trkpt lat="44.37254" lon="5.77827">
        <ele>869.588</ele>
        <time>2022-03-22T13:58:47Z</time>
      </trkpt>
      <trkpt lat="44.37253" lon="5.77825">
        <ele>868.988</ele>
        <time>2022-03-22T13:58:49Z</time>
      </trkpt>
      <trkpt lat="44.37253" lon="5.77824">
        <ele>867.788</ele>
        <time>2022-03-22T13:58:52Z</time>
      </trkpt>
      <trkpt lat="44.37253" lon="5.77823">
        <ele>867.489</ele>
        <time>2022-03-22T13:58:53Z</time>
      </trkpt>
      <trkpt lat="44.37252" lon="5.77821">
        <ele>866.889</ele>
        <time>2022-03-22T13:58:55Z</time>
      </trkpt>
      <trkpt lat="44.37253" lon="5.77819">
        <ele>866.389</ele>
        <time>2022-03-22T13:58:57Z</time>
      </trkpt>
      <trkpt lat="44.37253" lon="5.77818">
        <ele>866.389</ele>
        <time>2022-03-22T13:58:59Z</time>
      </trkpt>
      <trkpt lat="44.37252" lon="5.77817">
        <ele>866.189</ele>
        <time>2022-03-22T13:59:01Z</time>
      </trkpt>
      <trkpt lat="44.37252" lon="5.77816">
        <ele>865.789</ele>
        <time>2022-03-22T13:59:03Z</time>
      </trkpt>
      <trkpt lat="44.37251" lon="5.77814">
        <ele>865.689</ele>
        <time>2022-03-22T13:59:05Z</time>
      </trkpt>
      <trkpt lat="44.3725" lon="5.77812">
        <ele>865.389</ele>
        <time>2022-03-22T13:59:07Z</time>
      </trkpt>
      <trkpt lat="44.3725" lon="5.77811">
        <ele>865.189</ele>
        <time>2022-03-22T13:59:08Z</time>
      </trkpt>
      <trkpt lat="44.37248" lon="5.7781">
        <ele>864.789</ele>
        <time>2022-03-22T13:59:10Z</time>
      </trkpt>
      <trkpt lat="44.37247" lon="5.7781">
        <ele>864.789</ele>
        <time>2022-03-22T13:59:11Z</time>
      </trkpt>
      <trkpt lat="44.37246" lon="5.77809">
        <ele>864.189</ele>
        <time>2022-03-22T13:59:13Z</time>
      </trkpt>
      <trkpt lat="44.37246" lon="5.77808">
        <ele>863.589</ele>
        <time>2022-03-22T13:59:15Z</time>
      </trkpt>
      <trkpt lat="44.37246" lon="5.77806">
        <ele>863.089</ele>
        <time>2022-03-22T13:59:17Z</time>
      </trkpt>
      <trkpt lat="44.37245" lon="5.77805">
        <ele>862.989</ele>
        <time>2022-03-22T13:59:18Z</time>
      </trkpt>
      <trkpt lat="44.37245" lon="5.77803">
        <ele>862.589</ele>
        <time>2022-03-22T13:59:20Z</time>
      </trkpt>
      <trkpt lat="44.37245" lon="5.77801">
        <ele>862.389</ele>
        <time>2022-03-22T13:59:22Z</time>
      </trkpt>
      <trkpt lat="44.37244" lon="5.778">
        <ele>862.389</ele>
        <time>2022-03-22T13:59:24Z</time>
      </trkpt>
      <trkpt lat="44.37243" lon="5.77799">
        <ele>862.489</ele>
        <time>2022-03-22T13:59:26Z</time>
      </trkpt>
      <trkpt lat="44.37242" lon="5.77799">
        <ele>862.389</ele>
        <time>2022-03-22T13:59:27Z</time>
      </trkpt>
      <trkpt lat="44.37242" lon="5.77799">
        <ele>862.089</ele>
        <time>2022-03-22T13:59:28Z</time>
      </trkpt>
      <trkpt lat="44.37242" lon="5.77798">
        <ele>862.089</ele>
        <time>2022-03-22T13:59:29Z</time>
      </trkpt>
      <trkpt lat="44.37242" lon="5.77798">
        <ele>861.989</ele>
        <time>2022-03-22T13:59:30Z</time>
      </trkpt>
      <trkpt lat="44.37241" lon="5.77797">
        <ele>861.789</ele>
        <time>2022-03-22T13:59:31Z</time>
      </trkpt>
      <trkpt lat="44.3724" lon="5.77796">
        <ele>861.389</ele>
        <time>2022-03-22T13:59:33Z</time>
      </trkpt>
      <trkpt lat="44.37238" lon="5.77795">
        <ele>860.889</ele>
        <time>2022-03-22T13:59:35Z</time>
      </trkpt>
      <trkpt lat="44.37237" lon="5.77795">
        <ele>860.889</ele>
        <time>2022-03-22T13:59:37Z</time>
      </trkpt>
      <trkpt lat="44.37236" lon="5.77795">
        <ele>860.589</ele>
        <time>2022-03-22T13:59:38Z</time>
      </trkpt>
      <trkpt lat="44.37235" lon="5.77794">
        <ele>860.689</ele>
        <time>2022-03-22T13:59:39Z</time>
      </trkpt>
      <trkpt lat="44.37233" lon="5.77794">
        <ele>860.389</ele>
        <time>2022-03-22T13:59:41Z</time>
      </trkpt>
      <trkpt lat="44.37232" lon="5.77794">
        <ele>860.389</ele>
        <time>2022-03-22T13:59:43Z</time>
      </trkpt>
      <trkpt lat="44.37231" lon="5.77795">
        <ele>860.289</ele>
        <time>2022-03-22T13:59:44Z</time>
      </trkpt>
      <trkpt lat="44.37229" lon="5.77795">
        <ele>860.189</ele>
        <time>2022-03-22T13:59:46Z</time>
      </trkpt>
      <trkpt lat="44.37228" lon="5.77795">
        <ele>859.989</ele>
        <time>2022-03-22T13:59:47Z</time>
      </trkpt>
      <trkpt lat="44.37227" lon="5.77795">
        <ele>859.489</ele>
        <time>2022-03-22T13:59:48Z</time>
      </trkpt>
      <trkpt lat="44.37226" lon="5.77794">
        <ele>859.289</ele>
        <time>2022-03-22T13:59:49Z</time>
      </trkpt>
      <trkpt lat="44.37224" lon="5.77794">
        <ele>858.489</ele>
        <time>2022-03-22T13:59:51Z</time>
      </trkpt>
      <trkpt lat="44.37223" lon="5.77795">
        <ele>857.89</ele>
        <time>2022-03-22T13:59:53Z</time>
      </trkpt>
      <trkpt lat="44.37222" lon="5.77795">
        <ele>857.19</ele>
        <time>2022-03-22T13:59:55Z</time>
      </trkpt>
      <trkpt lat="44.3722" lon="5.77795">
        <ele>856.89</ele>
        <time>2022-03-22T13:59:57Z</time>
      </trkpt>
      <trkpt lat="44.37219" lon="5.77794">
        <ele>856.69</ele>
        <time>2022-03-22T13:59:58Z</time>
      </trkpt>
      <trkpt lat="44.37217" lon="5.77795">
        <ele>855.99</ele>
        <time>2022-03-22T14:00:00Z</time>
      </trkpt>
      <trkpt lat="44.37216" lon="5.77794">
        <ele>855.89</ele>
        <time>2022-03-22T14:00:01Z</time>
      </trkpt>
      <trkpt lat="44.37215" lon="5.77794">
        <ele>855.59</ele>
        <time>2022-03-22T14:00:02Z</time>
      </trkpt>
      <trkpt lat="44.37214" lon="5.77794">
        <ele>855.29</ele>
        <time>2022-03-22T14:00:03Z</time>
      </trkpt>
      <trkpt lat="44.37213" lon="5.77793">
        <ele>855.09</ele>
        <time>2022-03-22T14:00:04Z</time>
      </trkpt>
      <trkpt lat="44.37212" lon="5.77793">
        <ele>854.89</ele>
        <time>2022-03-22T14:00:06Z</time>
      </trkpt>
      <trkpt lat="44.3721" lon="5.77793">
        <ele>854.49</ele>
        <time>2022-03-22T14:00:08Z</time>
      </trkpt>
      <trkpt lat="44.37208" lon="5.77794">
        <ele>854.09</ele>
        <time>2022-03-22T14:00:10Z</time>
      </trkpt>
      <trkpt lat="44.37207" lon="5.77795">
        <ele>853.69</ele>
        <time>2022-03-22T14:00:12Z</time>
      </trkpt>
      <trkpt lat="44.37205" lon="5.77795">
        <ele>853.29</ele>
        <time>2022-03-22T14:00:14Z</time>
      </trkpt>
      <trkpt lat="44.37204" lon="5.77795">
        <ele>852.89</ele>
        <time>2022-03-22T14:00:15Z</time>
      </trkpt>
      <trkpt lat="44.37203" lon="5.77795">
        <ele>852.59</ele>
        <time>2022-03-22T14:00:16Z</time>
      </trkpt>
      <trkpt lat="44.37202" lon="5.77795">
        <ele>852.29</ele>
        <time>2022-03-22T14:00:18Z</time>
      </trkpt>
      <trkpt lat="44.372" lon="5.77796">
        <ele>852.19</ele>
        <time>2022-03-22T14:00:20Z</time>
      </trkpt>
      <trkpt lat="44.37199" lon="5.77796">
        <ele>852.09</ele>
        <time>2022-03-22T14:00:21Z</time>
      </trkpt>
      <trkpt lat="44.37199" lon="5.77797">
        <ele>851.69</ele>
        <time>2022-03-22T14:00:23Z</time>
      </trkpt>
      <trkpt lat="44.37197" lon="5.77797">
        <ele>851.19</ele>
        <time>2022-03-22T14:00:25Z</time>
      </trkpt>
      <trkpt lat="44.37196" lon="5.77797">
        <ele>850.99</ele>
        <time>2022-03-22T14:00:26Z</time>
      </trkpt>
      <trkpt lat="44.37194" lon="5.77797">
        <ele>850.69</ele>
        <time>2022-03-22T14:00:28Z</time>
      </trkpt>
      <trkpt lat="44.37192" lon="5.77797">
        <ele>850.99</ele>
        <time>2022-03-22T14:00:30Z</time>
      </trkpt>
      <trkpt lat="44.37191" lon="5.77797">
        <ele>851.39</ele>
        <time>2022-03-22T14:00:32Z</time>
      </trkpt>
      <trkpt lat="44.37189" lon="5.77798">
        <ele>851.49</ele>
        <time>2022-03-22T14:00:34Z</time>
      </trkpt>
      <trkpt lat="44.37187" lon="5.77798">
        <ele>850.99</ele>
        <time>2022-03-22T14:00:36Z</time>
      </trkpt>
      <trkpt lat="44.37186" lon="5.77798">
        <ele>851.19</ele>
        <time>2022-03-22T14:00:38Z</time>
      </trkpt>
      <trkpt lat="44.37184" lon="5.77799">
        <ele>851.39</ele>
        <time>2022-03-22T14:00:40Z</time>
      </trkpt>
      <trkpt lat="44.37183" lon="5.77799">
        <ele>851.39</ele>
        <time>2022-03-22T14:00:42Z</time>
      </trkpt>
      <trkpt lat="44.37182" lon="5.77799">
        <ele>851.191</ele>
        <time>2022-03-22T14:00:43Z</time>
      </trkpt>
      <trkpt lat="44.3718" lon="5.77799">
        <ele>850.891</ele>
        <time>2022-03-22T14:00:45Z</time>
      </trkpt>
      <trkpt lat="44.37179" lon="5.77799">
        <ele>850.691</ele>
        <time>2022-03-22T14:00:46Z</time>
      </trkpt>
      <trkpt lat="44.37178" lon="5.778">
        <ele>850.191</ele>
        <time>2022-03-22T14:00:47Z</time>
      </trkpt>
      <trkpt lat="44.37176" lon="5.778">
        <ele>849.991</ele>
        <time>2022-03-22T14:00:48Z</time>
      </trkpt>
      <trkpt lat="44.37175" lon="5.778">
        <ele>850.191</ele>
        <time>2022-03-22T14:00:49Z</time>
      </trkpt>
      <trkpt lat="44.37174" lon="5.77801">
        <ele>850.291</ele>
        <time>2022-03-22T14:00:50Z</time>
      </trkpt>
      <trkpt lat="44.37173" lon="5.77801">
        <ele>850.291</ele>
        <time>2022-03-22T14:00:51Z</time>
      </trkpt>
      <trkpt lat="44.37172" lon="5.77802">
        <ele>850.191</ele>
        <time>2022-03-22T14:00:52Z</time>
      </trkpt>
      <trkpt lat="44.37171" lon="5.77803">
        <ele>849.691</ele>
        <time>2022-03-22T14:00:54Z</time>
      </trkpt>
      <trkpt lat="44.37169" lon="5.77803">
        <ele>849.591</ele>
        <time>2022-03-22T14:00:56Z</time>
      </trkpt>
      <trkpt lat="44.37168" lon="5.77803">
        <ele>849.791</ele>
        <time>2022-03-22T14:00:59Z</time>
      </trkpt>
      <trkpt lat="44.37167" lon="5.77803">
        <ele>849.491</ele>
        <time>2022-03-22T14:01:01Z</time>
      </trkpt>
      <trkpt lat="44.37166" lon="5.77803">
        <ele>849.091</ele>
        <time>2022-03-22T14:01:03Z</time>
      </trkpt>
      <trkpt lat="44.37165" lon="5.77802">
        <ele>848.291</ele>
        <time>2022-03-22T14:01:06Z</time>
      </trkpt>
      <trkpt lat="44.37164" lon="5.77801">
        <ele>847.691</ele>
        <time>2022-03-22T14:01:08Z</time>
      </trkpt>
      <trkpt lat="44.37162" lon="5.778">
        <ele>846.991</ele>
        <time>2022-03-22T14:01:10Z</time>
      </trkpt>
      <trkpt lat="44.37161" lon="5.77799">
        <ele>846.191</ele>
        <time>2022-03-22T14:01:12Z</time>
      </trkpt>
      <trkpt lat="44.3716" lon="5.77799">
        <ele>845.691</ele>
        <time>2022-03-22T14:01:13Z</time>
      </trkpt>
      <trkpt lat="44.37159" lon="5.77799">
        <ele>845.091</ele>
        <time>2022-03-22T14:01:14Z</time>
      </trkpt>
      <trkpt lat="44.37158" lon="5.77799">
        <ele>844.491</ele>
        <time>2022-03-22T14:01:15Z</time>
      </trkpt>
      <trkpt lat="44.37157" lon="5.77799">
        <ele>844.091</ele>
        <time>2022-03-22T14:01:16Z</time>
      </trkpt>
      <trkpt lat="44.37156" lon="5.77799">
        <ele>843.891</ele>
        <time>2022-03-22T14:01:17Z</time>
      </trkpt>
      <trkpt lat="44.37154" lon="5.778">
        <ele>843.491</ele>
        <time>2022-03-22T14:01:19Z</time>
      </trkpt>
      <trkpt lat="44.37153" lon="5.778">
        <ele>843.991</ele>
        <time>2022-03-22T14:01:23Z</time>
      </trkpt>
      <trkpt lat="44.37152" lon="5.77801">
        <ele>844.391</ele>
        <time>2022-03-22T14:01:26Z</time>
      </trkpt>
      <trkpt lat="44.37151" lon="5.77801">
        <ele>844.391</ele>
        <time>2022-03-22T14:01:28Z</time>
      </trkpt>
      <trkpt lat="44.3715" lon="5.77802">
        <ele>844.391</ele>
        <time>2022-03-22T14:01:30Z</time>
      </trkpt>
      <trkpt lat="44.37148" lon="5.77803">
        <ele>844.391</ele>
        <time>2022-03-22T14:01:32Z</time>
      </trkpt>
      <trkpt lat="44.37147" lon="5.77804">
        <ele>844.591</ele>
        <time>2022-03-22T14:01:34Z</time>
      </trkpt>
      <trkpt lat="44.37146" lon="5.77804">
        <ele>844.391</ele>
        <time>2022-03-22T14:01:36Z</time>
      </trkpt>
      <trkpt lat="44.37145" lon="5.77805">
        <ele>844.191</ele>
        <time>2022-03-22T14:01:37Z</time>
      </trkpt>
      <trkpt lat="44.37144" lon="5.77805">
        <ele>843.691</ele>
        <time>2022-03-22T14:01:38Z</time>
      </trkpt>
      <trkpt lat="44.37142" lon="5.77804">
        <ele>843.291</ele>
        <time>2022-03-22T14:01:40Z</time>
      </trkpt>
      <trkpt lat="44.3714" lon="5.77804">
        <ele>842.791</ele>
        <time>2022-03-22T14:01:42Z</time>
      </trkpt>
      <trkpt lat="44.37139" lon="5.77804">
        <ele>841.892</ele>
        <time>2022-03-22T14:01:44Z</time>
      </trkpt>
      <trkpt lat="44.37138" lon="5.77802">
        <ele>841.192</ele>
        <time>2022-03-22T14:01:46Z</time>
      </trkpt>
      <trkpt lat="44.37137" lon="5.77801">
        <ele>840.592</ele>
        <time>2022-03-22T14:01:48Z</time>
      </trkpt>
      <trkpt lat="44.37136" lon="5.778">
        <ele>839.592</ele>
        <time>2022-03-22T14:01:50Z</time>
      </trkpt>
      <trkpt lat="44.37135" lon="5.77799">
        <ele>838.692</ele>
        <time>2022-03-22T14:01:52Z</time>
      </trkpt>
      <trkpt lat="44.37134" lon="5.77798">
        <ele>838.392</ele>
        <time>2022-03-22T14:01:54Z</time>
      </trkpt>
      <trkpt lat="44.37133" lon="5.77799">
        <ele>837.892</ele>
        <time>2022-03-22T14:01:56Z</time>
      </trkpt>
      <trkpt lat="44.37132" lon="5.77798">
        <ele>837.792</ele>
        <time>2022-03-22T14:01:58Z</time>
      </trkpt>
      <trkpt lat="44.3713" lon="5.77799">
        <ele>837.892</ele>
        <time>2022-03-22T14:02:00Z</time>
      </trkpt>
      <trkpt lat="44.37128" lon="5.77799">
        <ele>837.692</ele>
        <time>2022-03-22T14:02:02Z</time>
      </trkpt>
      <trkpt lat="44.37127" lon="5.77799">
        <ele>837.092</ele>
        <time>2022-03-22T14:02:04Z</time>
      </trkpt>
      <trkpt lat="44.37126" lon="5.77799">
        <ele>836.292</ele>
        <time>2022-03-22T14:02:06Z</time>
      </trkpt>
      <trkpt lat="44.37125" lon="5.77799">
        <ele>835.992</ele>
        <time>2022-03-22T14:02:08Z</time>
      </trkpt>
      <trkpt lat="44.37124" lon="5.77798">
        <ele>835.092</ele>
        <time>2022-03-22T14:02:12Z</time>
      </trkpt>
      <trkpt lat="44.37123" lon="5.77798">
        <ele>834.992</ele>
        <time>2022-03-22T14:02:14Z</time>
      </trkpt>
      <trkpt lat="44.37121" lon="5.77797">
        <ele>834.992</ele>
        <time>2022-03-22T14:02:16Z</time>
      </trkpt>
      <trkpt lat="44.37121" lon="5.77797">
        <ele>834.992</ele>
        <time>2022-03-22T14:02:17Z</time>
      </trkpt>
      <trkpt lat="44.37119" lon="5.77796">
        <ele>834.792</ele>
        <time>2022-03-22T14:02:19Z</time>
      </trkpt>
      <trkpt lat="44.37117" lon="5.77796">
        <ele>834.392</ele>
        <time>2022-03-22T14:02:21Z</time>
      </trkpt>
      <trkpt lat="44.37116" lon="5.77796">
        <ele>833.992</ele>
        <time>2022-03-22T14:02:23Z</time>
      </trkpt>
      <trkpt lat="44.37115" lon="5.77796">
        <ele>833.792</ele>
        <time>2022-03-22T14:02:24Z</time>
      </trkpt>
      <trkpt lat="44.37114" lon="5.77797">
        <ele>833.492</ele>
        <time>2022-03-22T14:02:26Z</time>
      </trkpt>
      <trkpt lat="44.37113" lon="5.77798">
        <ele>833.392</ele>
        <time>2022-03-22T14:02:27Z</time>
      </trkpt>
      <trkpt lat="44.37112" lon="5.77799">
        <ele>832.792</ele>
        <time>2022-03-22T14:02:29Z</time>
      </trkpt>
      <trkpt lat="44.37111" lon="5.778">
        <ele>832.192</ele>
        <time>2022-03-22T14:02:31Z</time>
      </trkpt>
      <trkpt lat="44.37109" lon="5.778">
        <ele>831.092</ele>
        <time>2022-03-22T14:02:33Z</time>
      </trkpt>
      <trkpt lat="44.37108" lon="5.778">
        <ele>830.292</ele>
        <time>2022-03-22T14:02:35Z</time>
      </trkpt>
      <trkpt lat="44.37107" lon="5.77801">
        <ele>829.492</ele>
        <time>2022-03-22T14:02:37Z</time>
      </trkpt>
      <trkpt lat="44.37106" lon="5.77801">
        <ele>829.092</ele>
        <time>2022-03-22T14:02:38Z</time>
      </trkpt>
      <trkpt lat="44.37105" lon="5.77802">
        <ele>828.692</ele>
        <time>2022-03-22T14:02:39Z</time>
      </trkpt>
      <trkpt lat="44.37105" lon="5.77802">
        <ele>828.392</ele>
        <time>2022-03-22T14:02:40Z</time>
      </trkpt>
      <trkpt lat="44.37103" lon="5.77802">
        <ele>827.892</ele>
        <time>2022-03-22T14:02:42Z</time>
      </trkpt>
      <trkpt lat="44.37102" lon="5.77801">
        <ele>827.792</ele>
        <time>2022-03-22T14:02:44Z</time>
      </trkpt>
      <trkpt lat="44.37101" lon="5.778">
        <ele>827.993</ele>
        <time>2022-03-22T14:02:46Z</time>
      </trkpt>
      <trkpt lat="44.37099" lon="5.778">
        <ele>827.793</ele>
        <time>2022-03-22T14:02:48Z</time>
      </trkpt>
      <trkpt lat="44.37098" lon="5.778">
        <ele>827.593</ele>
        <time>2022-03-22T14:02:50Z</time>
      </trkpt>
      <trkpt lat="44.37096" lon="5.77801">
        <ele>827.393</ele>
        <time>2022-03-22T14:02:52Z</time>
      </trkpt>
      <trkpt lat="44.37094" lon="5.77802">
        <ele>826.993</ele>
        <time>2022-03-22T14:02:54Z</time>
      </trkpt>
      <trkpt lat="44.37093" lon="5.77803">
        <ele>826.893</ele>
        <time>2022-03-22T14:02:56Z</time>
      </trkpt>
      <trkpt lat="44.37091" lon="5.77803">
        <ele>826.193</ele>
        <time>2022-03-22T14:02:58Z</time>
      </trkpt>
      <trkpt lat="44.3709" lon="5.77802">
        <ele>825.593</ele>
        <time>2022-03-22T14:03:00Z</time>
      </trkpt>
      <trkpt lat="44.37089" lon="5.77801">
        <ele>824.993</ele>
        <time>2022-03-22T14:03:01Z</time>
      </trkpt>
      <trkpt lat="44.37087" lon="5.77801">
        <ele>824.093</ele>
        <time>2022-03-22T14:03:03Z</time>
      </trkpt>
      <trkpt lat="44.37086" lon="5.77801">
        <ele>824.093</ele>
        <time>2022-03-22T14:03:05Z</time>
      </trkpt>
      <trkpt lat="44.37085" lon="5.77801">
        <ele>824.293</ele>
        <time>2022-03-22T14:03:07Z</time>
      </trkpt>
      <trkpt lat="44.37084" lon="5.77801">
        <ele>824.093</ele>
        <time>2022-03-22T14:03:08Z</time>
      </trkpt>
      <trkpt lat="44.37083" lon="5.77801">
        <ele>823.993</ele>
        <time>2022-03-22T14:03:09Z</time>
      </trkpt>
      <trkpt lat="44.37082" lon="5.77801">
        <ele>823.793</ele>
        <time>2022-03-22T14:03:10Z</time>
      </trkpt>
      <trkpt lat="44.37081" lon="5.77801">
        <ele>823.493</ele>
        <time>2022-03-22T14:03:11Z</time>
      </trkpt>
      <trkpt lat="44.3708" lon="5.77801">
        <ele>823.193</ele>
        <time>2022-03-22T14:03:12Z</time>
      </trkpt>
      <trkpt lat="44.37078" lon="5.77801">
        <ele>822.593</ele>
        <time>2022-03-22T14:03:14Z</time>
      </trkpt>
      <trkpt lat="44.37077" lon="5.77801">
        <ele>822.493</ele>
        <time>2022-03-22T14:03:15Z</time>
      </trkpt>
      <trkpt lat="44.37076" lon="5.77801">
        <ele>822.393</ele>
        <time>2022-03-22T14:03:17Z</time>
      </trkpt>
      <trkpt lat="44.37075" lon="5.77802">
        <ele>822.293</ele>
        <time>2022-03-22T14:03:18Z</time>
      </trkpt>
      <trkpt lat="44.37073" lon="5.77803">
        <ele>821.593</ele>
        <time>2022-03-22T14:03:20Z</time>
      </trkpt>
      <trkpt lat="44.37073" lon="5.77804">
        <ele>821.193</ele>
        <time>2022-03-22T14:03:21Z</time>
      </trkpt>
      <trkpt lat="44.37072" lon="5.77806">
        <ele>820.693</ele>
        <time>2022-03-22T14:03:22Z</time>
      </trkpt>
      <trkpt lat="44.37071" lon="5.77807">
        <ele>819.993</ele>
        <time>2022-03-22T14:03:24Z</time>
      </trkpt>
      <trkpt lat="44.3707" lon="5.77808">
        <ele>819.493</ele>
        <time>2022-03-22T14:03:25Z</time>
      </trkpt>
      <trkpt lat="44.37068" lon="5.7781">
        <ele>818.793</ele>
        <time>2022-03-22T14:03:27Z</time>
      </trkpt>
      <trkpt lat="44.37067" lon="5.77811">
        <ele>818.493</ele>
        <time>2022-03-22T14:03:28Z</time>
      </trkpt>
      <trkpt lat="44.37067" lon="5.77812">
        <ele>818.193</ele>
        <time>2022-03-22T14:03:29Z</time>
      </trkpt>
      <trkpt lat="44.37066" lon="5.77813">
        <ele>817.893</ele>
        <time>2022-03-22T14:03:30Z</time>
      </trkpt>
      <trkpt lat="44.37065" lon="5.77813">
        <ele>817.593</ele>
        <time>2022-03-22T14:03:31Z</time>
      </trkpt>
      <trkpt lat="44.37064" lon="5.77815">
        <ele>817.393</ele>
        <time>2022-03-22T14:03:33Z</time>
      </trkpt>
      <trkpt lat="44.37062" lon="5.77816">
        <ele>817.093</ele>
        <time>2022-03-22T14:03:35Z</time>
      </trkpt>
      <trkpt lat="44.37061" lon="5.77817">
        <ele>816.693</ele>
        <time>2022-03-22T14:03:37Z</time>
      </trkpt>
      <trkpt lat="44.3706" lon="5.77817">
        <ele>816.193</ele>
        <time>2022-03-22T14:03:39Z</time>
      </trkpt>
      <trkpt lat="44.37059" lon="5.77817">
        <ele>815.093</ele>
        <time>2022-03-22T14:03:41Z</time>
      </trkpt>
      <trkpt lat="44.37057" lon="5.77817">
        <ele>814.393</ele>
        <time>2022-03-22T14:03:43Z</time>
      </trkpt>
      <trkpt lat="44.37056" lon="5.77816">
        <ele>814.093</ele>
        <time>2022-03-22T14:03:45Z</time>
      </trkpt>
      <trkpt lat="44.37055" lon="5.77816">
        <ele>813.894</ele>
        <time>2022-03-22T14:03:47Z</time>
      </trkpt>
      <trkpt lat="44.37053" lon="5.77816">
        <ele>813.694</ele>
        <time>2022-03-22T14:03:49Z</time>
      </trkpt>
      <trkpt lat="44.37052" lon="5.77815">
        <ele>813.394</ele>
        <time>2022-03-22T14:03:50Z</time>
      </trkpt>
      <trkpt lat="44.37051" lon="5.77815">
        <ele>812.794</ele>
        <time>2022-03-22T14:03:52Z</time>
      </trkpt>
      <trkpt lat="44.3705" lon="5.77816">
        <ele>812.494</ele>
        <time>2022-03-22T14:03:53Z</time>
      </trkpt>
      <trkpt lat="44.37049" lon="5.77815">
        <ele>812.394</ele>
        <time>2022-03-22T14:03:54Z</time>
      </trkpt>
      <trkpt lat="44.37048" lon="5.77815">
        <ele>811.894</ele>
        <time>2022-03-22T14:03:56Z</time>
      </trkpt>
      <trkpt lat="44.37047" lon="5.77816">
        <ele>811.794</ele>
        <time>2022-03-22T14:03:57Z</time>
      </trkpt>
      <trkpt lat="44.37045" lon="5.77816">
        <ele>811.394</ele>
        <time>2022-03-22T14:03:59Z</time>
      </trkpt>
      <trkpt lat="44.37044" lon="5.77816">
        <ele>810.794</ele>
        <time>2022-03-22T14:04:01Z</time>
      </trkpt>
      <trkpt lat="44.37042" lon="5.77816">
        <ele>810.394</ele>
        <time>2022-03-22T14:04:03Z</time>
      </trkpt>
      <trkpt lat="44.37041" lon="5.77816">
        <ele>809.694</ele>
        <time>2022-03-22T14:04:05Z</time>
      </trkpt>
      <trkpt lat="44.3704" lon="5.77817">
        <ele>809.194</ele>
        <time>2022-03-22T14:04:06Z</time>
      </trkpt>
      <trkpt lat="44.37039" lon="5.77817">
        <ele>808.994</ele>
        <time>2022-03-22T14:04:07Z</time>
      </trkpt>
      <trkpt lat="44.37037" lon="5.77818">
        <ele>808.494</ele>
        <time>2022-03-22T14:04:09Z</time>
      </trkpt>
      <trkpt lat="44.37036" lon="5.77819">
        <ele>807.894</ele>
        <time>2022-03-22T14:04:11Z</time>
      </trkpt>
      <trkpt lat="44.37035" lon="5.7782">
        <ele>807.894</ele>
        <time>2022-03-22T14:04:12Z</time>
      </trkpt>
      <trkpt lat="44.37034" lon="5.7782">
        <ele>807.794</ele>
        <time>2022-03-22T14:04:13Z</time>
      </trkpt>
      <trkpt lat="44.37033" lon="5.77821">
        <ele>807.594</ele>
        <time>2022-03-22T14:04:14Z</time>
      </trkpt>
      <trkpt lat="44.37032" lon="5.77821">
        <ele>807.294</ele>
        <time>2022-03-22T14:04:15Z</time>
      </trkpt>
      <trkpt lat="44.3703" lon="5.77823">
        <ele>807.194</ele>
        <time>2022-03-22T14:04:17Z</time>
      </trkpt>
      <trkpt lat="44.37029" lon="5.77824">
        <ele>806.594</ele>
        <time>2022-03-22T14:04:19Z</time>
      </trkpt>
      <trkpt lat="44.37028" lon="5.77825">
        <ele>806.494</ele>
        <time>2022-03-22T14:04:20Z</time>
      </trkpt>
      <trkpt lat="44.37027" lon="5.77827">
        <ele>805.794</ele>
        <time>2022-03-22T14:04:22Z</time>
      </trkpt>
      <trkpt lat="44.37026" lon="5.77829">
        <ele>805.694</ele>
        <time>2022-03-22T14:04:24Z</time>
      </trkpt>
      <trkpt lat="44.37025" lon="5.77831">
        <ele>805.694</ele>
        <time>2022-03-22T14:04:25Z</time>
      </trkpt>
      <trkpt lat="44.37025" lon="5.77832">
        <ele>805.894</ele>
        <time>2022-03-22T14:04:26Z</time>
      </trkpt>
      <trkpt lat="44.37024" lon="5.77834">
        <ele>805.494</ele>
        <time>2022-03-22T14:04:28Z</time>
      </trkpt>
      <trkpt lat="44.37023" lon="5.77836">
        <ele>805.394</ele>
        <time>2022-03-22T14:04:30Z</time>
      </trkpt>
      <trkpt lat="44.37022" lon="5.77837">
        <ele>805.394</ele>
        <time>2022-03-22T14:04:31Z</time>
      </trkpt>
      <trkpt lat="44.37021" lon="5.77838">
        <ele>805.294</ele>
        <time>2022-03-22T14:04:32Z</time>
      </trkpt>
      <trkpt lat="44.3702" lon="5.77839">
        <ele>804.894</ele>
        <time>2022-03-22T14:04:34Z</time>
      </trkpt>
      <trkpt lat="44.37019" lon="5.7784">
        <ele>804.994</ele>
        <time>2022-03-22T14:04:35Z</time>
      </trkpt>
      <trkpt lat="44.37018" lon="5.77841">
        <ele>804.894</ele>
        <time>2022-03-22T14:04:36Z</time>
      </trkpt>
      <trkpt lat="44.37017" lon="5.77842">
        <ele>805.194</ele>
        <time>2022-03-22T14:04:38Z</time>
      </trkpt>
      <trkpt lat="44.37015" lon="5.77844">
        <ele>805.294</ele>
        <time>2022-03-22T14:04:40Z</time>
      </trkpt>
      <trkpt lat="44.37014" lon="5.77845">
        <ele>805.394</ele>
        <time>2022-03-22T14:04:41Z</time>
      </trkpt>
      <trkpt lat="44.37013" lon="5.77845">
        <ele>805.494</ele>
        <time>2022-03-22T14:04:42Z</time>
      </trkpt>
      <trkpt lat="44.37012" lon="5.77846">
        <ele>805.394</ele>
        <time>2022-03-22T14:04:43Z</time>
      </trkpt>
      <trkpt lat="44.3701" lon="5.77848">
        <ele>805.294</ele>
        <time>2022-03-22T14:04:45Z</time>
      </trkpt>
      <trkpt lat="44.3701" lon="5.77849">
        <ele>805.094</ele>
        <time>2022-03-22T14:04:46Z</time>
      </trkpt>
      <trkpt lat="44.37008" lon="5.7785">
        <ele>804.994</ele>
        <time>2022-03-22T14:04:47Z</time>
      </trkpt>
      <trkpt lat="44.37007" lon="5.7785">
        <ele>804.894</ele>
        <time>2022-03-22T14:04:48Z</time>
      </trkpt>
      <trkpt lat="44.37006" lon="5.77851">
        <ele>804.594</ele>
        <time>2022-03-22T14:04:49Z</time>
      </trkpt>
      <trkpt lat="44.37005" lon="5.77852">
        <ele>804.494</ele>
        <time>2022-03-22T14:04:50Z</time>
      </trkpt>
      <trkpt lat="44.37004" lon="5.77853">
        <ele>804.394</ele>
        <time>2022-03-22T14:04:51Z</time>
      </trkpt>
      <trkpt lat="44.37003" lon="5.77855">
        <ele>803.894</ele>
        <time>2022-03-22T14:04:53Z</time>
      </trkpt>
      <trkpt lat="44.37002" lon="5.77856">
        <ele>803.894</ele>
        <time>2022-03-22T14:04:54Z</time>
      </trkpt>
      <trkpt lat="44.37001" lon="5.77857">
        <ele>803.794</ele>
        <time>2022-03-22T14:04:55Z</time>
      </trkpt>
      <trkpt lat="44.37001" lon="5.77858">
        <ele>803.694</ele>
        <time>2022-03-22T14:04:56Z</time>
      </trkpt>
      <trkpt lat="44.37" lon="5.77859">
        <ele>803.694</ele>
        <time>2022-03-22T14:04:57Z</time>
      </trkpt>
      <trkpt lat="44.37" lon="5.77861">
        <ele>803.494</ele>
        <time>2022-03-22T14:04:58Z</time>
      </trkpt>
      <trkpt lat="44.36999" lon="5.77862">
        <ele>803.494</ele>
        <time>2022-03-22T14:04:59Z</time>
      </trkpt>
      <trkpt lat="44.36998" lon="5.77863">
        <ele>803.594</ele>
        <time>2022-03-22T14:05:00Z</time>
      </trkpt>
      <trkpt lat="44.36997" lon="5.77864">
        <ele>803.494</ele>
        <time>2022-03-22T14:05:01Z</time>
      </trkpt>
      <trkpt lat="44.36996" lon="5.77866">
        <ele>802.994</ele>
        <time>2022-03-22T14:05:03Z</time>
      </trkpt>
      <trkpt lat="44.36995" lon="5.77867">
        <ele>802.795</ele>
        <time>2022-03-22T14:05:04Z</time>
      </trkpt>
      <trkpt lat="44.36995" lon="5.77868">
        <ele>802.794</ele>
        <time>2022-03-22T14:05:05Z</time>
      </trkpt>
      <trkpt lat="44.36994" lon="5.77869">
        <ele>802.695</ele>
        <time>2022-03-22T14:05:06Z</time>
      </trkpt>
      <trkpt lat="44.36993" lon="5.7787">
        <ele>802.195</ele>
        <time>2022-03-22T14:05:07Z</time>
      </trkpt>
      <trkpt lat="44.36993" lon="5.77872">
        <ele>801.895</ele>
        <time>2022-03-22T14:05:08Z</time>
      </trkpt>
      <trkpt lat="44.36992" lon="5.77873">
        <ele>801.695</ele>
        <time>2022-03-22T14:05:09Z</time>
      </trkpt>
      <trkpt lat="44.36991" lon="5.77874">
        <ele>801.595</ele>
        <time>2022-03-22T14:05:10Z</time>
      </trkpt>
      <trkpt lat="44.36991" lon="5.77876">
        <ele>801.495</ele>
        <time>2022-03-22T14:05:11Z</time>
      </trkpt>
      <trkpt lat="44.3699" lon="5.77877">
        <ele>801.595</ele>
        <time>2022-03-22T14:05:12Z</time>
      </trkpt>
      <trkpt lat="44.3699" lon="5.77878">
        <ele>801.295</ele>
        <time>2022-03-22T14:05:13Z</time>
      </trkpt>
      <trkpt lat="44.36989" lon="5.7788">
        <ele>801.395</ele>
        <time>2022-03-22T14:05:14Z</time>
      </trkpt>
      <trkpt lat="44.36989" lon="5.77881">
        <ele>801.295</ele>
        <time>2022-03-22T14:05:16Z</time>
      </trkpt>
      <trkpt lat="44.36988" lon="5.77883">
        <ele>801.395</ele>
        <time>2022-03-22T14:05:18Z</time>
      </trkpt>
      <trkpt lat="44.36987" lon="5.77885">
        <ele>801.295</ele>
        <time>2022-03-22T14:05:20Z</time>
      </trkpt>
      <trkpt lat="44.36986" lon="5.77886">
        <ele>801.395</ele>
        <time>2022-03-22T14:05:21Z</time>
      </trkpt>
      <trkpt lat="44.36986" lon="5.77887">
        <ele>801.195</ele>
        <time>2022-03-22T14:05:22Z</time>
      </trkpt>
      <trkpt lat="44.36985" lon="5.77888">
        <ele>800.895</ele>
        <time>2022-03-22T14:05:23Z</time>
      </trkpt>
      <trkpt lat="44.36984" lon="5.77889">
        <ele>800.695</ele>
        <time>2022-03-22T14:05:25Z</time>
      </trkpt>
      <trkpt lat="44.36983" lon="5.77891">
        <ele>800.395</ele>
        <time>2022-03-22T14:05:27Z</time>
      </trkpt>
      <trkpt lat="44.36982" lon="5.77892">
        <ele>800.395</ele>
        <time>2022-03-22T14:05:28Z</time>
      </trkpt>
      <trkpt lat="44.36982" lon="5.77893">
        <ele>800.295</ele>
        <time>2022-03-22T14:05:29Z</time>
      </trkpt>
      <trkpt lat="44.36981" lon="5.77894">
        <ele>799.995</ele>
        <time>2022-03-22T14:05:30Z</time>
      </trkpt>
      <trkpt lat="44.3698" lon="5.77896">
        <ele>799.695</ele>
        <time>2022-03-22T14:05:32Z</time>
      </trkpt>
      <trkpt lat="44.36979" lon="5.77898">
        <ele>798.895</ele>
        <time>2022-03-22T14:05:34Z</time>
      </trkpt>
      <trkpt lat="44.36978" lon="5.779">
        <ele>798.395</ele>
        <time>2022-03-22T14:05:36Z</time>
      </trkpt>
      <trkpt lat="44.36977" lon="5.77903">
        <ele>797.895</ele>
        <time>2022-03-22T14:05:38Z</time>
      </trkpt>
      <trkpt lat="44.36975" lon="5.77904">
        <ele>797.495</ele>
        <time>2022-03-22T14:05:40Z</time>
      </trkpt>
      <trkpt lat="44.36974" lon="5.77906">
        <ele>796.995</ele>
        <time>2022-03-22T14:05:42Z</time>
      </trkpt>
      <trkpt lat="44.36974" lon="5.77907">
        <ele>796.595</ele>
        <time>2022-03-22T14:05:43Z</time>
      </trkpt>
      <trkpt lat="44.36973" lon="5.77909">
        <ele>796.195</ele>
        <time>2022-03-22T14:05:45Z</time>
      </trkpt>
      <trkpt lat="44.36973" lon="5.77911">
        <ele>795.895</ele>
        <time>2022-03-22T14:05:46Z</time>
      </trkpt>
      <trkpt lat="44.36972" lon="5.77912">
        <ele>795.695</ele>
        <time>2022-03-22T14:05:47Z</time>
      </trkpt>
      <trkpt lat="44.36972" lon="5.77913">
        <ele>795.295</ele>
        <time>2022-03-22T14:05:48Z</time>
      </trkpt>
      <trkpt lat="44.36971" lon="5.77915">
        <ele>794.995</ele>
        <time>2022-03-22T14:05:49Z</time>
      </trkpt>
      <trkpt lat="44.36971" lon="5.77917">
        <ele>794.295</ele>
        <time>2022-03-22T14:05:50Z</time>
      </trkpt>
      <trkpt lat="44.3697" lon="5.77919">
        <ele>793.595</ele>
        <time>2022-03-22T14:05:52Z</time>
      </trkpt>
      <trkpt lat="44.3697" lon="5.77921">
        <ele>793.095</ele>
        <time>2022-03-22T14:05:53Z</time>
      </trkpt>
      <trkpt lat="44.3697" lon="5.77923">
        <ele>792.395</ele>
        <time>2022-03-22T14:05:55Z</time>
      </trkpt>
      <trkpt lat="44.36969" lon="5.77924">
        <ele>792.295</ele>
        <time>2022-03-22T14:05:56Z</time>
      </trkpt>
      <trkpt lat="44.36969" lon="5.77926">
        <ele>791.995</ele>
        <time>2022-03-22T14:05:57Z</time>
      </trkpt>
      <trkpt lat="44.36969" lon="5.77928">
        <ele>792.195</ele>
        <time>2022-03-22T14:05:59Z</time>
      </trkpt>
      <trkpt lat="44.36968" lon="5.7793">
        <ele>791.895</ele>
        <time>2022-03-22T14:06:00Z</time>
      </trkpt>
      <trkpt lat="44.36968" lon="5.77931">
        <ele>791.895</ele>
        <time>2022-03-22T14:06:01Z</time>
      </trkpt>
      <trkpt lat="44.36967" lon="5.77933">
        <ele>791.995</ele>
        <time>2022-03-22T14:06:02Z</time>
      </trkpt>
      <trkpt lat="44.36966" lon="5.77934">
        <ele>791.695</ele>
        <time>2022-03-22T14:06:03Z</time>
      </trkpt>
      <trkpt lat="44.36966" lon="5.77935">
        <ele>791.895</ele>
        <time>2022-03-22T14:06:04Z</time>
      </trkpt>
      <trkpt lat="44.36965" lon="5.77936">
        <ele>791.995</ele>
        <time>2022-03-22T14:06:05Z</time>
      </trkpt>
      <trkpt lat="44.36964" lon="5.77937">
        <ele>792.295</ele>
        <time>2022-03-22T14:06:06Z</time>
      </trkpt>
      <trkpt lat="44.36963" lon="5.77938">
        <ele>793.295</ele>
        <time>2022-03-22T14:06:08Z</time>
      </trkpt>
      <trkpt lat="44.36962" lon="5.77939">
        <ele>793.795</ele>
        <time>2022-03-22T14:06:10Z</time>
      </trkpt>
      <trkpt lat="44.36961" lon="5.77939">
        <ele>793.895</ele>
        <time>2022-03-22T14:06:12Z</time>
      </trkpt>
      <trkpt lat="44.3696" lon="5.77939">
        <ele>793.995</ele>
        <time>2022-03-22T14:06:13Z</time>
      </trkpt>
      <trkpt lat="44.36958" lon="5.77938">
        <ele>794.095</ele>
        <time>2022-03-22T14:06:15Z</time>
      </trkpt>
      <trkpt lat="44.36957" lon="5.77937">
        <ele>793.595</ele>
        <time>2022-03-22T14:06:17Z</time>
      </trkpt>
      <trkpt lat="44.36955" lon="5.77937">
        <ele>793.395</ele>
        <time>2022-03-22T14:06:19Z</time>
      </trkpt>
      <trkpt lat="44.36954" lon="5.77938">
        <ele>793.295</ele>
        <time>2022-03-22T14:06:21Z</time>
      </trkpt>
      <trkpt lat="44.36953" lon="5.77938">
        <ele>793.395</ele>
        <time>2022-03-22T14:06:23Z</time>
      </trkpt>
      <trkpt lat="44.36951" lon="5.77937">
        <ele>790.795</ele>
        <time>2022-03-22T14:06:27Z</time>
      </trkpt>
      <trkpt lat="44.3695" lon="5.77937">
        <ele>790.095</ele>
        <time>2022-03-22T14:06:29Z</time>
      </trkpt>
      <trkpt lat="44.3695" lon="5.77937">
        <ele>789.695</ele>
        <time>2022-03-22T14:06:30Z</time>
      </trkpt>
      <trkpt lat="44.36951" lon="5.77937">
        <ele>789.295</ele>
        <time>2022-03-22T14:06:31Z</time>
      </trkpt>
      <trkpt lat="44.36952" lon="5.77938">
        <ele>788.595</ele>
        <time>2022-03-22T14:06:33Z</time>
      </trkpt>
      <trkpt lat="44.36952" lon="5.77938">
        <ele>788.595</ele>
        <time>2022-03-22T14:11:15Z</time>
      </trkpt>
      <trkpt lat="44.36948" lon="5.77935">
        <ele>791.095</ele>
        <time>2022-03-22T14:11:16Z</time>
      </trkpt>
      <trkpt lat="44.36948" lon="5.77933">
        <ele>790.995</ele>
        <time>2022-03-22T14:11:19Z</time>
      </trkpt>
      <trkpt lat="44.36947" lon="5.77931">
        <ele>790.595</ele>
        <time>2022-03-22T14:11:21Z</time>
      </trkpt>
      <trkpt lat="44.36947" lon="5.77928">
        <ele>790.395</ele>
        <time>2022-03-22T14:11:23Z</time>
      </trkpt>
      <trkpt lat="44.36947" lon="5.77927">
        <ele>790.195</ele>
        <time>2022-03-22T14:11:24Z</time>
      </trkpt>
      <trkpt lat="44.36947" lon="5.77926">
        <ele>789.995</ele>
        <time>2022-03-22T14:11:25Z</time>
      </trkpt>
      <trkpt lat="44.36947" lon="5.77924">
        <ele>789.695</ele>
        <time>2022-03-22T14:11:26Z</time>
      </trkpt>
      <trkpt lat="44.36947" lon="5.77921">
        <ele>788.995</ele>
        <time>2022-03-22T14:11:28Z</time>
      </trkpt>
      <trkpt lat="44.36947" lon="5.7792">
        <ele>788.695</ele>
        <time>2022-03-22T14:11:29Z</time>
      </trkpt>
      <trkpt lat="44.36947" lon="5.77918">
        <ele>788.395</ele>
        <time>2022-03-22T14:11:30Z</time>
      </trkpt>
      <trkpt lat="44.36948" lon="5.77917">
        <ele>788.095</ele>
        <time>2022-03-22T14:11:31Z</time>
      </trkpt>
      <trkpt lat="44.36948" lon="5.77914">
        <ele>787.295</ele>
        <time>2022-03-22T14:11:33Z</time>
      </trkpt>
      <trkpt lat="44.36948" lon="5.77913">
        <ele>786.695</ele>
        <time>2022-03-22T14:11:34Z</time>
      </trkpt>
      <trkpt lat="44.36947" lon="5.77911">
        <ele>785.595</ele>
        <time>2022-03-22T14:11:36Z</time>
      </trkpt>
      <trkpt lat="44.36948" lon="5.7791">
        <ele>784.395</ele>
        <time>2022-03-22T14:11:38Z</time>
      </trkpt>
      <trkpt lat="44.36949" lon="5.77909">
        <ele>782.695</ele>
        <time>2022-03-22T14:11:41Z</time>
      </trkpt>
      <trkpt lat="44.36949" lon="5.77908">
        <ele>782.095</ele>
        <time>2022-03-22T14:11:43Z</time>
      </trkpt>
      <trkpt lat="44.36949" lon="5.77906">
        <ele>781.495</ele>
        <time>2022-03-22T14:11:45Z</time>
      </trkpt>
      <trkpt lat="44.36949" lon="5.77904">
        <ele>781.195</ele>
        <time>2022-03-22T14:11:47Z</time>
      </trkpt>
      <trkpt lat="44.36949" lon="5.77902">
        <ele>780.995</ele>
        <time>2022-03-22T14:11:49Z</time>
      </trkpt>
      <trkpt lat="44.36949" lon="5.779">
        <ele>780.695</ele>
        <time>2022-03-22T14:11:51Z</time>
      </trkpt>
      <trkpt lat="44.36949" lon="5.77898">
        <ele>780.495</ele>
        <time>2022-03-22T14:11:52Z</time>
      </trkpt>
      <trkpt lat="44.36948" lon="5.77897">
        <ele>780.295</ele>
        <time>2022-03-22T14:11:53Z</time>
      </trkpt>
      <trkpt lat="44.36948" lon="5.77895">
        <ele>779.895</ele>
        <time>2022-03-22T14:11:55Z</time>
      </trkpt>
      <trkpt lat="44.36948" lon="5.77893">
        <ele>779.595</ele>
        <time>2022-03-22T14:11:56Z</time>
      </trkpt>
      <trkpt lat="44.36948" lon="5.77892">
        <ele>779.495</ele>
        <time>2022-03-22T14:11:57Z</time>
      </trkpt>
      <trkpt lat="44.36948" lon="5.7789">
        <ele>779.495</ele>
        <time>2022-03-22T14:11:58Z</time>
      </trkpt>
      <trkpt lat="44.36948" lon="5.77889">
        <ele>779.195</ele>
        <time>2022-03-22T14:11:59Z</time>
      </trkpt>
      <trkpt lat="44.36948" lon="5.77887">
        <ele>778.995</ele>
        <time>2022-03-22T14:12:00Z</time>
      </trkpt>
      <trkpt lat="44.36948" lon="5.77886">
        <ele>778.795</ele>
        <time>2022-03-22T14:12:01Z</time>
      </trkpt>
      <trkpt lat="44.36948" lon="5.77883">
        <ele>778.096</ele>
        <time>2022-03-22T14:12:03Z</time>
      </trkpt>
      <trkpt lat="44.36948" lon="5.77882">
        <ele>777.996</ele>
        <time>2022-03-22T14:12:05Z</time>
      </trkpt>
      <trkpt lat="44.36948" lon="5.7788">
        <ele>778.296</ele>
        <time>2022-03-22T14:12:06Z</time>
      </trkpt>
      <trkpt lat="44.36947" lon="5.77879">
        <ele>778.496</ele>
        <time>2022-03-22T14:12:08Z</time>
      </trkpt>
      <trkpt lat="44.36947" lon="5.77877">
        <ele>777.996</ele>
        <time>2022-03-22T14:12:10Z</time>
      </trkpt>
      <trkpt lat="44.36947" lon="5.77875">
        <ele>777.196</ele>
        <time>2022-03-22T14:12:12Z</time>
      </trkpt>
      <trkpt lat="44.36947" lon="5.77874">
        <ele>776.696</ele>
        <time>2022-03-22T14:12:13Z</time>
      </trkpt>
      <trkpt lat="44.36947" lon="5.77872">
        <ele>776.396</ele>
        <time>2022-03-22T14:12:14Z</time>
      </trkpt>
      <trkpt lat="44.36948" lon="5.77871">
        <ele>775.296</ele>
        <time>2022-03-22T14:12:16Z</time>
      </trkpt>
      <trkpt lat="44.36948" lon="5.77869">
        <ele>774.396</ele>
        <time>2022-03-22T14:12:18Z</time>
      </trkpt>
      <trkpt lat="44.36949" lon="5.77867">
        <ele>773.996</ele>
        <time>2022-03-22T14:12:19Z</time>
      </trkpt>
      <trkpt lat="44.36949" lon="5.77866">
        <ele>773.596</ele>
        <time>2022-03-22T14:12:20Z</time>
      </trkpt>
      <trkpt lat="44.36949" lon="5.77865">
        <ele>773.296</ele>
        <time>2022-03-22T14:12:21Z</time>
      </trkpt>
      <trkpt lat="44.36949" lon="5.77863">
        <ele>772.596</ele>
        <time>2022-03-22T14:12:23Z</time>
      </trkpt>
      <trkpt lat="44.3695" lon="5.77861">
        <ele>771.896</ele>
        <time>2022-03-22T14:12:25Z</time>
      </trkpt>
      <trkpt lat="44.3695" lon="5.77858">
        <ele>770.996</ele>
        <time>2022-03-22T14:12:27Z</time>
      </trkpt>
      <trkpt lat="44.3695" lon="5.77856">
        <ele>770.896</ele>
        <time>2022-03-22T14:12:29Z</time>
      </trkpt>
      <trkpt lat="44.36949" lon="5.77855">
        <ele>770.996</ele>
        <time>2022-03-22T14:12:31Z</time>
      </trkpt>
      <trkpt lat="44.36948" lon="5.77853">
        <ele>770.796</ele>
        <time>2022-03-22T14:12:33Z</time>
      </trkpt>
      <trkpt lat="44.36947" lon="5.77852">
        <ele>770.996</ele>
        <time>2022-03-22T14:12:34Z</time>
      </trkpt>
      <trkpt lat="44.36946" lon="5.77851">
        <ele>771.396</ele>
        <time>2022-03-22T14:12:36Z</time>
      </trkpt>
      <trkpt lat="44.36945" lon="5.77851">
        <ele>771.896</ele>
        <time>2022-03-22T14:12:37Z</time>
      </trkpt>
      <trkpt lat="44.36943" lon="5.77851">
        <ele>772.696</ele>
        <time>2022-03-22T14:12:39Z</time>
      </trkpt>
      <trkpt lat="44.36941" lon="5.77852">
        <ele>773.296</ele>
        <time>2022-03-22T14:12:41Z</time>
      </trkpt>
      <trkpt lat="44.36941" lon="5.77852">
        <ele>773.496</ele>
        <time>2022-03-22T14:12:42Z</time>
      </trkpt>
      <trkpt lat="44.36939" lon="5.77853">
        <ele>773.596</ele>
        <time>2022-03-22T14:12:43Z</time>
      </trkpt>
      <trkpt lat="44.36938" lon="5.77854">
        <ele>773.596</ele>
        <time>2022-03-22T14:12:44Z</time>
      </trkpt>
      <trkpt lat="44.36937" lon="5.77855">
        <ele>773.396</ele>
        <time>2022-03-22T14:12:45Z</time>
      </trkpt>
      <trkpt lat="44.36936" lon="5.77855">
        <ele>773.496</ele>
        <time>2022-03-22T14:12:46Z</time>
      </trkpt>
      <trkpt lat="44.36936" lon="5.77856">
        <ele>773.696</ele>
        <time>2022-03-22T14:12:47Z</time>
      </trkpt>
      <trkpt lat="44.36935" lon="5.77857">
        <ele>773.896</ele>
        <time>2022-03-22T14:12:48Z</time>
      </trkpt>
      <trkpt lat="44.36934" lon="5.77858">
        <ele>773.996</ele>
        <time>2022-03-22T14:12:49Z</time>
      </trkpt>
      <trkpt lat="44.36933" lon="5.77859">
        <ele>773.896</ele>
        <time>2022-03-22T14:12:51Z</time>
      </trkpt>
      <trkpt lat="44.36931" lon="5.7786">
        <ele>773.896</ele>
        <time>2022-03-22T14:12:53Z</time>
      </trkpt>
      <trkpt lat="44.3693" lon="5.77861">
        <ele>773.996</ele>
        <time>2022-03-22T14:12:54Z</time>
      </trkpt>
      <trkpt lat="44.36929" lon="5.77861">
        <ele>773.996</ele>
        <time>2022-03-22T14:12:55Z</time>
      </trkpt>
      <trkpt lat="44.36928" lon="5.77861">
        <ele>773.896</ele>
        <time>2022-03-22T14:12:56Z</time>
      </trkpt>
      <trkpt lat="44.36927" lon="5.77862">
        <ele>773.696</ele>
        <time>2022-03-22T14:12:57Z</time>
      </trkpt>
      <trkpt lat="44.36926" lon="5.77863">
        <ele>773.596</ele>
        <time>2022-03-22T14:12:58Z</time>
      </trkpt>
      <trkpt lat="44.36924" lon="5.77863">
        <ele>773.496</ele>
        <time>2022-03-22T14:13:00Z</time>
      </trkpt>
      <trkpt lat="44.36923" lon="5.77864">
        <ele>773.096</ele>
        <time>2022-03-22T14:13:02Z</time>
      </trkpt>
      <trkpt lat="44.36922" lon="5.77865">
        <ele>772.896</ele>
        <time>2022-03-22T14:13:04Z</time>
      </trkpt>
      <trkpt lat="44.36921" lon="5.77866">
        <ele>772.696</ele>
        <time>2022-03-22T14:13:05Z</time>
      </trkpt>
      <trkpt lat="44.3692" lon="5.77867">
        <ele>772.596</ele>
        <time>2022-03-22T14:13:07Z</time>
      </trkpt>
      <trkpt lat="44.36919" lon="5.77867">
        <ele>772.296</ele>
        <time>2022-03-22T14:13:08Z</time>
      </trkpt>
      <trkpt lat="44.36917" lon="5.77868">
        <ele>772.096</ele>
        <time>2022-03-22T14:13:10Z</time>
      </trkpt>
      <trkpt lat="44.36916" lon="5.77868">
        <ele>771.896</ele>
        <time>2022-03-22T14:13:12Z</time>
      </trkpt>
      <trkpt lat="44.36915" lon="5.77869">
        <ele>771.496</ele>
        <time>2022-03-22T14:13:13Z</time>
      </trkpt>
      <trkpt lat="44.36914" lon="5.7787">
        <ele>770.896</ele>
        <time>2022-03-22T14:13:15Z</time>
      </trkpt>
      <trkpt lat="44.36912" lon="5.77871">
        <ele>770.397</ele>
        <time>2022-03-22T14:13:17Z</time>
      </trkpt>
      <trkpt lat="44.36911" lon="5.77871">
        <ele>770.297</ele>
        <time>2022-03-22T14:13:19Z</time>
      </trkpt>
      <trkpt lat="44.3691" lon="5.77871">
        <ele>769.797</ele>
        <time>2022-03-22T14:13:21Z</time>
      </trkpt>
      <trkpt lat="44.36909" lon="5.77871">
        <ele>769.397</ele>
        <time>2022-03-22T14:13:23Z</time>
      </trkpt>
      <trkpt lat="44.36908" lon="5.77872">
        <ele>769.197</ele>
        <time>2022-03-22T14:13:24Z</time>
      </trkpt>
      <trkpt lat="44.36907" lon="5.77872">
        <ele>768.997</ele>
        <time>2022-03-22T14:13:25Z</time>
      </trkpt>
      <trkpt lat="44.36905" lon="5.77873">
        <ele>768.497</ele>
        <time>2022-03-22T14:13:27Z</time>
      </trkpt>
      <trkpt lat="44.36903" lon="5.77874">
        <ele>767.597</ele>
        <time>2022-03-22T14:13:29Z</time>
      </trkpt>
      <trkpt lat="44.36902" lon="5.77875">
        <ele>766.897</ele>
        <time>2022-03-22T14:13:31Z</time>
      </trkpt>
      <trkpt lat="44.369" lon="5.77876">
        <ele>766.597</ele>
        <time>2022-03-22T14:13:33Z</time>
      </trkpt>
      <trkpt lat="44.36899" lon="5.77877">
        <ele>765.897</ele>
        <time>2022-03-22T14:13:35Z</time>
      </trkpt>
      <trkpt lat="44.36898" lon="5.77878">
        <ele>765.597</ele>
        <time>2022-03-22T14:13:36Z</time>
      </trkpt>
      <trkpt lat="44.36896" lon="5.77878">
        <ele>765.097</ele>
        <time>2022-03-22T14:13:38Z</time>
      </trkpt>
      <trkpt lat="44.36895" lon="5.77878">
        <ele>764.797</ele>
        <time>2022-03-22T14:13:39Z</time>
      </trkpt>
      <trkpt lat="44.36894" lon="5.77878">
        <ele>764.697</ele>
        <time>2022-03-22T14:13:40Z</time>
      </trkpt>
      <trkpt lat="44.36893" lon="5.77878">
        <ele>764.397</ele>
        <time>2022-03-22T14:13:41Z</time>
      </trkpt>
      <trkpt lat="44.36892" lon="5.77878">
        <ele>764.097</ele>
        <time>2022-03-22T14:13:42Z</time>
      </trkpt>
      <trkpt lat="44.3689" lon="5.77878">
        <ele>763.797</ele>
        <time>2022-03-22T14:13:43Z</time>
      </trkpt>
      <trkpt lat="44.36889" lon="5.77878">
        <ele>763.097</ele>
        <time>2022-03-22T14:13:45Z</time>
      </trkpt>
      <trkpt lat="44.36888" lon="5.77878">
        <ele>762.797</ele>
        <time>2022-03-22T14:13:46Z</time>
      </trkpt>
      <trkpt lat="44.36887" lon="5.77878">
        <ele>762.497</ele>
        <time>2022-03-22T14:13:47Z</time>
      </trkpt>
      <trkpt lat="44.36886" lon="5.77878">
        <ele>762.097</ele>
        <time>2022-03-22T14:13:49Z</time>
      </trkpt>
      <trkpt lat="44.36885" lon="5.77876">
        <ele>761.597</ele>
        <time>2022-03-22T14:13:51Z</time>
      </trkpt>
      <trkpt lat="44.36884" lon="5.77876">
        <ele>761.297</ele>
        <time>2022-03-22T14:13:53Z</time>
      </trkpt>
      <trkpt lat="44.36882" lon="5.77875">
        <ele>760.797</ele>
        <time>2022-03-22T14:13:55Z</time>
      </trkpt>
      <trkpt lat="44.36881" lon="5.77873">
        <ele>759.997</ele>
        <time>2022-03-22T14:13:57Z</time>
      </trkpt>
      <trkpt lat="44.3688" lon="5.77872">
        <ele>759.197</ele>
        <time>2022-03-22T14:13:59Z</time>
      </trkpt>
      <trkpt lat="44.36879" lon="5.77871">
        <ele>759.097</ele>
        <time>2022-03-22T14:14:00Z</time>
      </trkpt>
      <trkpt lat="44.36878" lon="5.77871">
        <ele>759.097</ele>
        <time>2022-03-22T14:14:02Z</time>
      </trkpt>
      <trkpt lat="44.36877" lon="5.7787">
        <ele>758.897</ele>
        <time>2022-03-22T14:14:03Z</time>
      </trkpt>
      <trkpt lat="44.36877" lon="5.77869">
        <ele>758.597</ele>
        <time>2022-03-22T14:14:04Z</time>
      </trkpt>
      <trkpt lat="44.36876" lon="5.77867">
        <ele>757.497</ele>
        <time>2022-03-22T14:14:06Z</time>
      </trkpt>
      <trkpt lat="44.36875" lon="5.77866">
        <ele>756.998</ele>
        <time>2022-03-22T14:14:07Z</time>
      </trkpt>
      <trkpt lat="44.36874" lon="5.77864">
        <ele>756.498</ele>
        <time>2022-03-22T14:14:08Z</time>
      </trkpt>
      <trkpt lat="44.36874" lon="5.77863">
        <ele>755.898</ele>
        <time>2022-03-22T14:14:10Z</time>
      </trkpt>
      <trkpt lat="44.36873" lon="5.77861">
        <ele>754.998</ele>
        <time>2022-03-22T14:14:12Z</time>
      </trkpt>
      <trkpt lat="44.36872" lon="5.7786">
        <ele>753.998</ele>
        <time>2022-03-22T14:14:14Z</time>
      </trkpt>
      <trkpt lat="44.36871" lon="5.77859">
        <ele>753.498</ele>
        <time>2022-03-22T14:14:16Z</time>
      </trkpt>
      <trkpt lat="44.3687" lon="5.77858">
        <ele>752.698</ele>
        <time>2022-03-22T14:14:18Z</time>
      </trkpt>
      <trkpt lat="44.36869" lon="5.77857">
        <ele>751.598</ele>
        <time>2022-03-22T14:14:21Z</time>
      </trkpt>
      <trkpt lat="44.36868" lon="5.77856">
        <ele>751.398</ele>
        <time>2022-03-22T14:14:23Z</time>
      </trkpt>
      <trkpt lat="44.36867" lon="5.77856">
        <ele>750.898</ele>
        <time>2022-03-22T14:14:25Z</time>
      </trkpt>
      <trkpt lat="44.36866" lon="5.77857">
        <ele>750.498</ele>
        <time>2022-03-22T14:14:27Z</time>
      </trkpt>
      <trkpt lat="44.36865" lon="5.77857">
        <ele>750.298</ele>
        <time>2022-03-22T14:14:28Z</time>
      </trkpt>
      <trkpt lat="44.36864" lon="5.77858">
        <ele>749.898</ele>
        <time>2022-03-22T14:14:30Z</time>
      </trkpt>
      <trkpt lat="44.36863" lon="5.7786">
        <ele>749.398</ele>
        <time>2022-03-22T14:14:32Z</time>
      </trkpt>
      <trkpt lat="44.36861" lon="5.77861">
        <ele>748.998</ele>
        <time>2022-03-22T14:14:34Z</time>
      </trkpt>
      <trkpt lat="44.3686" lon="5.77861">
        <ele>748.598</ele>
        <time>2022-03-22T14:14:35Z</time>
      </trkpt>
      <trkpt lat="44.3686" lon="5.77861">
        <ele>748.498</ele>
        <time>2022-03-22T14:14:36Z</time>
      </trkpt>
      <trkpt lat="44.36859" lon="5.77862">
        <ele>748.098</ele>
        <time>2022-03-22T14:14:37Z</time>
      </trkpt>
      <trkpt lat="44.36858" lon="5.77863">
        <ele>747.598</ele>
        <time>2022-03-22T14:14:38Z</time>
      </trkpt>
      <trkpt lat="44.36857" lon="5.77864">
        <ele>747.498</ele>
        <time>2022-03-22T14:14:39Z</time>
      </trkpt>
      <trkpt lat="44.36856" lon="5.77864">
        <ele>747.598</ele>
        <time>2022-03-22T14:14:40Z</time>
      </trkpt>
      <trkpt lat="44.36855" lon="5.77865">
        <ele>747.398</ele>
        <time>2022-03-22T14:14:41Z</time>
      </trkpt>
      <trkpt lat="44.36854" lon="5.77866">
        <ele>747.498</ele>
        <time>2022-03-22T14:14:42Z</time>
      </trkpt>
      <trkpt lat="44.36853" lon="5.77867">
        <ele>747.498</ele>
        <time>2022-03-22T14:14:44Z</time>
      </trkpt>
      <trkpt lat="44.36852" lon="5.77867">
        <ele>747.298</ele>
        <time>2022-03-22T14:14:45Z</time>
      </trkpt>
      <trkpt lat="44.3685" lon="5.77868">
        <ele>747.198</ele>
        <time>2022-03-22T14:14:47Z</time>
      </trkpt>
      <trkpt lat="44.36849" lon="5.77869">
        <ele>746.998</ele>
        <time>2022-03-22T14:14:48Z</time>
      </trkpt>
      <trkpt lat="44.36848" lon="5.77869">
        <ele>746.998</ele>
        <time>2022-03-22T14:14:50Z</time>
      </trkpt>
      <trkpt lat="44.36846" lon="5.77869">
        <ele>746.898</ele>
        <time>2022-03-22T14:14:52Z</time>
      </trkpt>
      <trkpt lat="44.36844" lon="5.7787">
        <ele>746.098</ele>
        <time>2022-03-22T14:14:54Z</time>
      </trkpt>
      <trkpt lat="44.36843" lon="5.7787">
        <ele>745.898</ele>
        <time>2022-03-22T14:14:55Z</time>
      </trkpt>
      <trkpt lat="44.36841" lon="5.7787">
        <ele>745.498</ele>
        <time>2022-03-22T14:14:57Z</time>
      </trkpt>
      <trkpt lat="44.3684" lon="5.77871">
        <ele>745.098</ele>
        <time>2022-03-22T14:14:58Z</time>
      </trkpt>
      <trkpt lat="44.36839" lon="5.77871">
        <ele>744.898</ele>
        <time>2022-03-22T14:14:59Z</time>
      </trkpt>
      <trkpt lat="44.36837" lon="5.77871">
        <ele>744.098</ele>
        <time>2022-03-22T14:15:01Z</time>
      </trkpt>
      <trkpt lat="44.36836" lon="5.77871">
        <ele>743.798</ele>
        <time>2022-03-22T14:15:02Z</time>
      </trkpt>
      <trkpt lat="44.36835" lon="5.77871">
        <ele>743.398</ele>
        <time>2022-03-22T14:15:03Z</time>
      </trkpt>
      <trkpt lat="44.36835" lon="5.7787">
        <ele>743.298</ele>
        <time>2022-03-22T14:15:04Z</time>
      </trkpt>
      <trkpt lat="44.36834" lon="5.77869">
        <ele>743.398</ele>
        <time>2022-03-22T14:15:05Z</time>
      </trkpt>
      <trkpt lat="44.36833" lon="5.77869">
        <ele>743.499</ele>
        <time>2022-03-22T14:15:06Z</time>
      </trkpt>
      <trkpt lat="44.36832" lon="5.77869">
        <ele>743.099</ele>
        <time>2022-03-22T14:15:08Z</time>
      </trkpt>
      <trkpt lat="44.36831" lon="5.77869">
        <ele>742.799</ele>
        <time>2022-03-22T14:15:09Z</time>
      </trkpt>
      <trkpt lat="44.3683" lon="5.77867">
        <ele>741.799</ele>
        <time>2022-03-22T14:15:12Z</time>
      </trkpt>
      <trkpt lat="44.36829" lon="5.77865">
        <ele>741.399</ele>
        <time>2022-03-22T14:15:14Z</time>
      </trkpt>
      <trkpt lat="44.36828" lon="5.77864">
        <ele>741.499</ele>
        <time>2022-03-22T14:15:15Z</time>
      </trkpt>
      <trkpt lat="44.36827" lon="5.77861">
        <ele>741.699</ele>
        <time>2022-03-22T14:15:17Z</time>
      </trkpt>
      <trkpt lat="44.36827" lon="5.7786">
        <ele>741.899</ele>
        <time>2022-03-22T14:15:18Z</time>
      </trkpt>
      <trkpt lat="44.36826" lon="5.77859">
        <ele>742.199</ele>
        <time>2022-03-22T14:15:20Z</time>
      </trkpt>
      <trkpt lat="44.36825" lon="5.77856">
        <ele>742.199</ele>
        <time>2022-03-22T14:15:22Z</time>
      </trkpt>
      <trkpt lat="44.36825" lon="5.77855">
        <ele>742.199</ele>
        <time>2022-03-22T14:15:23Z</time>
      </trkpt>
      <trkpt lat="44.36824" lon="5.77854">
        <ele>742.099</ele>
        <time>2022-03-22T14:15:24Z</time>
      </trkpt>
      <trkpt lat="44.36824" lon="5.77852">
        <ele>742.099</ele>
        <time>2022-03-22T14:15:26Z</time>
      </trkpt>
      <trkpt lat="44.36823" lon="5.77851">
        <ele>741.799</ele>
        <time>2022-03-22T14:15:28Z</time>
      </trkpt>
      <trkpt lat="44.36822" lon="5.7785">
        <ele>741.699</ele>
        <time>2022-03-22T14:15:29Z</time>
      </trkpt>
      <trkpt lat="44.36821" lon="5.7785">
        <ele>741.499</ele>
        <time>2022-03-22T14:15:30Z</time>
      </trkpt>
      <trkpt lat="44.3682" lon="5.7785">
        <ele>741.399</ele>
        <time>2022-03-22T14:15:31Z</time>
      </trkpt>
      <trkpt lat="44.36818" lon="5.7785">
        <ele>740.899</ele>
        <time>2022-03-22T14:15:32Z</time>
      </trkpt>
      <trkpt lat="44.36817" lon="5.77852">
        <ele>740.499</ele>
        <time>2022-03-22T14:15:35Z</time>
      </trkpt>
      <trkpt lat="44.36816" lon="5.77853">
        <ele>740.199</ele>
        <time>2022-03-22T14:15:36Z</time>
      </trkpt>
      <trkpt lat="44.36816" lon="5.77855">
        <ele>740.099</ele>
        <time>2022-03-22T14:15:37Z</time>
      </trkpt>
      <trkpt lat="44.36815" lon="5.77856">
        <ele>739.799</ele>
        <time>2022-03-22T14:15:38Z</time>
      </trkpt>
      <trkpt lat="44.36814" lon="5.77857">
        <ele>739.599</ele>
        <time>2022-03-22T14:15:39Z</time>
      </trkpt>
      <trkpt lat="44.36814" lon="5.77858">
        <ele>739.099</ele>
        <time>2022-03-22T14:15:40Z</time>
      </trkpt>
      <trkpt lat="44.36814" lon="5.77859">
        <ele>738.599</ele>
        <time>2022-03-22T14:15:41Z</time>
      </trkpt>
      <trkpt lat="44.36813" lon="5.77862">
        <ele>738.699</ele>
        <time>2022-03-22T14:15:43Z</time>
      </trkpt>
      <trkpt lat="44.36812" lon="5.77863">
        <ele>738.199</ele>
        <time>2022-03-22T14:15:45Z</time>
      </trkpt>
      <trkpt lat="44.36811" lon="5.77864">
        <ele>737.999</ele>
        <time>2022-03-22T14:15:47Z</time>
      </trkpt>
      <trkpt lat="44.3681" lon="5.77866">
        <ele>737.799</ele>
        <time>2022-03-22T14:15:49Z</time>
      </trkpt>
      <trkpt lat="44.36809" lon="5.77867">
        <ele>737.799</ele>
        <time>2022-03-22T14:15:50Z</time>
      </trkpt>
      <trkpt lat="44.36809" lon="5.77867">
        <ele>737.699</ele>
        <time>2022-03-22T14:15:51Z</time>
      </trkpt>
      <trkpt lat="44.36807" lon="5.77867">
        <ele>737.799</ele>
        <time>2022-03-22T14:15:53Z</time>
      </trkpt>
      <trkpt lat="44.36805" lon="5.77866">
        <ele>738.299</ele>
        <time>2022-03-22T14:15:55Z</time>
      </trkpt>
      <trkpt lat="44.36803" lon="5.77866">
        <ele>738.099</ele>
        <time>2022-03-22T14:15:57Z</time>
      </trkpt>
      <trkpt lat="44.36802" lon="5.77866">
        <ele>737.999</ele>
        <time>2022-03-22T14:15:58Z</time>
      </trkpt>
      <trkpt lat="44.368" lon="5.77865">
        <ele>737.999</ele>
        <time>2022-03-22T14:15:59Z</time>
      </trkpt>
      <trkpt lat="44.36799" lon="5.77865">
        <ele>737.799</ele>
        <time>2022-03-22T14:16:00Z</time>
      </trkpt>
      <trkpt lat="44.36798" lon="5.77865">
        <ele>737.599</ele>
        <time>2022-03-22T14:16:01Z</time>
      </trkpt>
      <trkpt lat="44.36797" lon="5.77865">
        <ele>737.599</ele>
        <time>2022-03-22T14:16:02Z</time>
      </trkpt>
      <trkpt lat="44.36795" lon="5.77864">
        <ele>737.1</ele>
        <time>2022-03-22T14:16:04Z</time>
      </trkpt>
      <trkpt lat="44.36793" lon="5.77864">
        <ele>737</ele>
        <time>2022-03-22T14:16:05Z</time>
      </trkpt>
      <trkpt lat="44.36792" lon="5.77864">
        <ele>736.7</ele>
        <time>2022-03-22T14:16:06Z</time>
      </trkpt>
      <trkpt lat="44.36791" lon="5.77864">
        <ele>736.6</ele>
        <time>2022-03-22T14:16:07Z</time>
      </trkpt>
      <trkpt lat="44.36789" lon="5.77864">
        <ele>736.5</ele>
        <time>2022-03-22T14:16:08Z</time>
      </trkpt>
      <trkpt lat="44.36788" lon="5.77864">
        <ele>736.3</ele>
        <time>2022-03-22T14:16:09Z</time>
      </trkpt>
      <trkpt lat="44.36788" lon="5.77865">
        <ele>735.9</ele>
        <time>2022-03-22T14:16:11Z</time>
      </trkpt>
      <trkpt lat="44.36786" lon="5.77866">
        <ele>734.9</ele>
        <time>2022-03-22T14:16:13Z</time>
      </trkpt>
      <trkpt lat="44.36785" lon="5.77867">
        <ele>734.6</ele>
        <time>2022-03-22T14:16:15Z</time>
      </trkpt>
      <trkpt lat="44.36783" lon="5.77869">
        <ele>734.1</ele>
        <time>2022-03-22T14:16:17Z</time>
      </trkpt>
      <trkpt lat="44.36783" lon="5.77871">
        <ele>733.2</ele>
        <time>2022-03-22T14:16:19Z</time>
      </trkpt>
      <trkpt lat="44.36782" lon="5.77872">
        <ele>732.9</ele>
        <time>2022-03-22T14:16:20Z</time>
      </trkpt>
      <trkpt lat="44.3678" lon="5.77873">
        <ele>732.5</ele>
        <time>2022-03-22T14:16:22Z</time>
      </trkpt>
      <trkpt lat="44.36779" lon="5.77874">
        <ele>732.4</ele>
        <time>2022-03-22T14:16:23Z</time>
      </trkpt>
      <trkpt lat="44.36778" lon="5.77874">
        <ele>732.2</ele>
        <time>2022-03-22T14:16:25Z</time>
      </trkpt>
      <trkpt lat="44.36776" lon="5.77875">
        <ele>732.3</ele>
        <time>2022-03-22T14:16:27Z</time>
      </trkpt>
      <trkpt lat="44.36775" lon="5.77877">
        <ele>732.4</ele>
        <time>2022-03-22T14:16:29Z</time>
      </trkpt>
      <trkpt lat="44.36774" lon="5.77877">
        <ele>732.8</ele>
        <time>2022-03-22T14:16:31Z</time>
      </trkpt>
      <trkpt lat="44.36773" lon="5.77878">
        <ele>732.6</ele>
        <time>2022-03-22T14:16:33Z</time>
      </trkpt>
      <trkpt lat="44.36771" lon="5.77879">
        <ele>732.1</ele>
        <time>2022-03-22T14:16:35Z</time>
      </trkpt>
      <trkpt lat="44.36771" lon="5.7788">
        <ele>732</ele>
        <time>2022-03-22T14:16:36Z</time>
      </trkpt>
      <trkpt lat="44.36769" lon="5.77882">
        <ele>731.9</ele>
        <time>2022-03-22T14:16:38Z</time>
      </trkpt>
      <trkpt lat="44.36768" lon="5.77883">
        <ele>732.2</ele>
        <time>2022-03-22T14:16:39Z</time>
      </trkpt>
      <trkpt lat="44.36767" lon="5.77885">
        <ele>732.1</ele>
        <time>2022-03-22T14:16:41Z</time>
      </trkpt>
      <trkpt lat="44.36766" lon="5.77886">
        <ele>731.5</ele>
        <time>2022-03-22T14:16:43Z</time>
      </trkpt>
      <trkpt lat="44.36766" lon="5.77886">
        <ele>730.5</ele>
        <time>2022-03-22T14:16:46Z</time>
      </trkpt>
      <trkpt lat="44.36767" lon="5.77887">
        <ele>730.5</ele>
        <time>2022-03-22T14:16:47Z</time>
      </trkpt>
      <trkpt lat="44.36767" lon="5.77887">
        <ele>730.4</ele>
        <time>2022-03-22T14:16:48Z</time>
      </trkpt>
      <trkpt lat="44.36768" lon="5.77887">
        <ele>730.5</ele>
        <time>2022-03-22T14:16:50Z</time>
      </trkpt>
      <trkpt lat="44.36768" lon="5.77887">
        <ele>730.5</ele>
        <time>2022-03-22T14:17:03Z</time>
      </trkpt>
      <trkpt lat="44.3677" lon="5.77884">
        <ele>731.9</ele>
        <time>2022-03-22T14:17:04Z</time>
      </trkpt>
      <trkpt lat="44.36769" lon="5.77882">
        <ele>731.5</ele>
        <time>2022-03-22T14:17:06Z</time>
      </trkpt>
      <trkpt lat="44.36768" lon="5.77879">
        <ele>731.6</ele>
        <time>2022-03-22T14:17:08Z</time>
      </trkpt>
      <trkpt lat="44.36768" lon="5.77877">
        <ele>731.7</ele>
        <time>2022-03-22T14:17:09Z</time>
      </trkpt>
      <trkpt lat="44.36767" lon="5.77876">
        <ele>731.9</ele>
        <time>2022-03-22T14:17:10Z</time>
      </trkpt>
      <trkpt lat="44.36766" lon="5.77875">
        <ele>732</ele>
        <time>2022-03-22T14:17:11Z</time>
      </trkpt>
      <trkpt lat="44.36765" lon="5.77874">
        <ele>732.2</ele>
        <time>2022-03-22T14:17:12Z</time>
      </trkpt>
      <trkpt lat="44.36764" lon="5.77874">
        <ele>732.4</ele>
        <time>2022-03-22T14:17:13Z</time>
      </trkpt>
      <trkpt lat="44.36763" lon="5.77873">
        <ele>732.4</ele>
        <time>2022-03-22T14:17:14Z</time>
      </trkpt>
      <trkpt lat="44.36761" lon="5.77873">
        <ele>732.2</ele>
        <time>2022-03-22T14:17:16Z</time>
      </trkpt>
      <trkpt lat="44.3676" lon="5.77872">
        <ele>732</ele>
        <time>2022-03-22T14:17:17Z</time>
      </trkpt>
      <trkpt lat="44.3676" lon="5.77871">
        <ele>731.6</ele>
        <time>2022-03-22T14:17:18Z</time>
      </trkpt>
      <trkpt lat="44.36758" lon="5.7787">
        <ele>730.8</ele>
        <time>2022-03-22T14:17:20Z</time>
      </trkpt>
      <trkpt lat="44.36757" lon="5.77868">
        <ele>729.8</ele>
        <time>2022-03-22T14:17:22Z</time>
      </trkpt>
      <trkpt lat="44.36756" lon="5.77866">
        <ele>729.2</ele>
        <time>2022-03-22T14:17:24Z</time>
      </trkpt>
      <trkpt lat="44.36755" lon="5.77864">
        <ele>728.901</ele>
        <time>2022-03-22T14:17:26Z</time>
      </trkpt>
      <trkpt lat="44.36754" lon="5.77863">
        <ele>728.801</ele>
        <time>2022-03-22T14:17:27Z</time>
      </trkpt>
      <trkpt lat="44.36753" lon="5.77861">
        <ele>728.401</ele>
        <time>2022-03-22T14:17:29Z</time>
      </trkpt>
      <trkpt lat="44.36753" lon="5.77859">
        <ele>728.101</ele>
        <time>2022-03-22T14:17:30Z</time>
      </trkpt>
      <trkpt lat="44.36752" lon="5.77857">
        <ele>727.801</ele>
        <time>2022-03-22T14:17:32Z</time>
      </trkpt>
      <trkpt lat="44.36751" lon="5.77855">
        <ele>727.401</ele>
        <time>2022-03-22T14:17:34Z</time>
      </trkpt>
      <trkpt lat="44.3675" lon="5.77854">
        <ele>727.301</ele>
        <time>2022-03-22T14:17:35Z</time>
      </trkpt>
      <trkpt lat="44.36749" lon="5.77852">
        <ele>727.001</ele>
        <time>2022-03-22T14:17:37Z</time>
      </trkpt>
      <trkpt lat="44.36748" lon="5.77851">
        <ele>726.901</ele>
        <time>2022-03-22T14:17:38Z</time>
      </trkpt>
      <trkpt lat="44.36747" lon="5.7785">
        <ele>726.801</ele>
        <time>2022-03-22T14:17:39Z</time>
      </trkpt>
      <trkpt lat="44.36747" lon="5.77849">
        <ele>726.601</ele>
        <time>2022-03-22T14:17:40Z</time>
      </trkpt>
      <trkpt lat="44.36746" lon="5.77847">
        <ele>726.501</ele>
        <time>2022-03-22T14:17:41Z</time>
      </trkpt>
      <trkpt lat="44.36745" lon="5.77846">
        <ele>726.401</ele>
        <time>2022-03-22T14:17:42Z</time>
      </trkpt>
      <trkpt lat="44.36744" lon="5.77845">
        <ele>725.901</ele>
        <time>2022-03-22T14:17:44Z</time>
      </trkpt>
      <trkpt lat="44.36743" lon="5.77844">
        <ele>725.601</ele>
        <time>2022-03-22T14:17:45Z</time>
      </trkpt>
      <trkpt lat="44.36742" lon="5.77844">
        <ele>725.101</ele>
        <time>2022-03-22T14:17:46Z</time>
      </trkpt>
      <trkpt lat="44.36741" lon="5.77843">
        <ele>724.901</ele>
        <time>2022-03-22T14:17:47Z</time>
      </trkpt>
      <trkpt lat="44.3674" lon="5.77842">
        <ele>724.801</ele>
        <time>2022-03-22T14:17:48Z</time>
      </trkpt>
      <trkpt lat="44.36739" lon="5.77841">
        <ele>724.601</ele>
        <time>2022-03-22T14:17:49Z</time>
      </trkpt>
      <trkpt lat="44.36738" lon="5.77839">
        <ele>724.401</ele>
        <time>2022-03-22T14:17:51Z</time>
      </trkpt>
      <trkpt lat="44.36738" lon="5.77838">
        <ele>724.101</ele>
        <time>2022-03-22T14:17:52Z</time>
      </trkpt>
      <trkpt lat="44.36737" lon="5.77837">
        <ele>724.101</ele>
        <time>2022-03-22T14:17:53Z</time>
      </trkpt>
      <trkpt lat="44.36736" lon="5.77837">
        <ele>723.901</ele>
        <time>2022-03-22T14:17:54Z</time>
      </trkpt>
      <trkpt lat="44.36735" lon="5.77836">
        <ele>723.901</ele>
        <time>2022-03-22T14:17:55Z</time>
      </trkpt>
      <trkpt lat="44.36734" lon="5.77835">
        <ele>723.701</ele>
        <time>2022-03-22T14:17:56Z</time>
      </trkpt>
      <trkpt lat="44.36733" lon="5.77834">
        <ele>723.501</ele>
        <time>2022-03-22T14:17:57Z</time>
      </trkpt>
      <trkpt lat="44.36732" lon="5.77834">
        <ele>723.301</ele>
        <time>2022-03-22T14:17:58Z</time>
      </trkpt>
      <trkpt lat="44.3673" lon="5.77833">
        <ele>723.001</ele>
        <time>2022-03-22T14:17:59Z</time>
      </trkpt>
      <trkpt lat="44.36729" lon="5.77832">
        <ele>722.901</ele>
        <time>2022-03-22T14:18:00Z</time>
      </trkpt>
      <trkpt lat="44.36728" lon="5.77831">
        <ele>722.902</ele>
        <time>2022-03-22T14:18:01Z</time>
      </trkpt>
      <trkpt lat="44.36727" lon="5.77831">
        <ele>722.602</ele>
        <time>2022-03-22T14:18:02Z</time>
      </trkpt>
      <trkpt lat="44.36726" lon="5.7783">
        <ele>722.502</ele>
        <time>2022-03-22T14:18:03Z</time>
      </trkpt>
      <trkpt lat="44.36725" lon="5.7783">
        <ele>721.902</ele>
        <time>2022-03-22T14:18:04Z</time>
      </trkpt>
      <trkpt lat="44.36724" lon="5.7783">
        <ele>721.702</ele>
        <time>2022-03-22T14:18:05Z</time>
      </trkpt>
      <trkpt lat="44.36722" lon="5.7783">
        <ele>721.502</ele>
        <time>2022-03-22T14:18:07Z</time>
      </trkpt>
      <trkpt lat="44.36721" lon="5.77829">
        <ele>721.302</ele>
        <time>2022-03-22T14:18:08Z</time>
      </trkpt>
      <trkpt lat="44.3672" lon="5.77829">
        <ele>721.202</ele>
        <time>2022-03-22T14:18:09Z</time>
      </trkpt>
      <trkpt lat="44.36719" lon="5.77829">
        <ele>720.802</ele>
        <time>2022-03-22T14:18:11Z</time>
      </trkpt>
      <trkpt lat="44.36718" lon="5.77829">
        <ele>720.602</ele>
        <time>2022-03-22T14:18:12Z</time>
      </trkpt>
      <trkpt lat="44.36716" lon="5.77829">
        <ele>720.302</ele>
        <time>2022-03-22T14:18:13Z</time>
      </trkpt>
      <trkpt lat="44.36715" lon="5.77828">
        <ele>720.202</ele>
        <time>2022-03-22T14:18:14Z</time>
      </trkpt>
      <trkpt lat="44.36713" lon="5.77828">
        <ele>720.002</ele>
        <time>2022-03-22T14:18:16Z</time>
      </trkpt>
      <trkpt lat="44.36712" lon="5.77827">
        <ele>719.902</ele>
        <time>2022-03-22T14:18:17Z</time>
      </trkpt>
      <trkpt lat="44.36711" lon="5.77826">
        <ele>719.802</ele>
        <time>2022-03-22T14:18:18Z</time>
      </trkpt>
      <trkpt lat="44.3671" lon="5.77826">
        <ele>719.702</ele>
        <time>2022-03-22T14:18:19Z</time>
      </trkpt>
      <trkpt lat="44.36709" lon="5.77826">
        <ele>719.502</ele>
        <time>2022-03-22T14:18:20Z</time>
      </trkpt>
      <trkpt lat="44.36708" lon="5.77825">
        <ele>719.302</ele>
        <time>2022-03-22T14:18:21Z</time>
      </trkpt>
      <trkpt lat="44.36707" lon="5.77825">
        <ele>719.202</ele>
        <time>2022-03-22T14:18:22Z</time>
      </trkpt>
      <trkpt lat="44.36706" lon="5.77825">
        <ele>719.202</ele>
        <time>2022-03-22T14:18:23Z</time>
      </trkpt>
      <trkpt lat="44.36705" lon="5.77824">
        <ele>719.002</ele>
        <time>2022-03-22T14:18:24Z</time>
      </trkpt>
      <trkpt lat="44.36704" lon="5.77823">
        <ele>719.002</ele>
        <time>2022-03-22T14:18:25Z</time>
      </trkpt>
      <trkpt lat="44.36703" lon="5.77823">
        <ele>719.202</ele>
        <time>2022-03-22T14:18:26Z</time>
      </trkpt>
      <trkpt lat="44.36702" lon="5.77823">
        <ele>719.202</ele>
        <time>2022-03-22T14:18:27Z</time>
      </trkpt>
      <trkpt lat="44.36701" lon="5.77823">
        <ele>719.302</ele>
        <time>2022-03-22T14:18:28Z</time>
      </trkpt>
      <trkpt lat="44.367" lon="5.77822">
        <ele>718.802</ele>
        <time>2022-03-22T14:18:29Z</time>
      </trkpt>
      <trkpt lat="44.36698" lon="5.77822">
        <ele>718.202</ele>
        <time>2022-03-22T14:18:31Z</time>
      </trkpt>
      <trkpt lat="44.36697" lon="5.77822">
        <ele>718.202</ele>
        <time>2022-03-22T14:18:32Z</time>
      </trkpt>
      <trkpt lat="44.36695" lon="5.77821">
        <ele>718.302</ele>
        <time>2022-03-22T14:18:34Z</time>
      </trkpt>
      <trkpt lat="44.36694" lon="5.77821">
        <ele>718.202</ele>
        <time>2022-03-22T14:18:35Z</time>
      </trkpt>
      <trkpt lat="44.36693" lon="5.77821">
        <ele>718.102</ele>
        <time>2022-03-22T14:18:36Z</time>
      </trkpt>
      <trkpt lat="44.36692" lon="5.7782">
        <ele>717.803</ele>
        <time>2022-03-22T14:18:37Z</time>
      </trkpt>
      <trkpt lat="44.36691" lon="5.7782">
        <ele>717.503</ele>
        <time>2022-03-22T14:18:38Z</time>
      </trkpt>
      <trkpt lat="44.3669" lon="5.77819">
        <ele>717.303</ele>
        <time>2022-03-22T14:18:39Z</time>
      </trkpt>
      <trkpt lat="44.36689" lon="5.77819">
        <ele>717.003</ele>
        <time>2022-03-22T14:18:40Z</time>
      </trkpt>
      <trkpt lat="44.36688" lon="5.77819">
        <ele>716.903</ele>
        <time>2022-03-22T14:18:41Z</time>
      </trkpt>
      <trkpt lat="44.36687" lon="5.77819">
        <ele>716.903</ele>
        <time>2022-03-22T14:18:42Z</time>
      </trkpt>
      <trkpt lat="44.36685" lon="5.77817">
        <ele>716.803</ele>
        <time>2022-03-22T14:18:44Z</time>
      </trkpt>
      <trkpt lat="44.36684" lon="5.77816">
        <ele>716.403</ele>
        <time>2022-03-22T14:18:46Z</time>
      </trkpt>
      <trkpt lat="44.36683" lon="5.77816">
        <ele>716.303</ele>
        <time>2022-03-22T14:18:47Z</time>
      </trkpt>
      <trkpt lat="44.36682" lon="5.77816">
        <ele>716.103</ele>
        <time>2022-03-22T14:18:48Z</time>
      </trkpt>
      <trkpt lat="44.36681" lon="5.77815">
        <ele>716.003</ele>
        <time>2022-03-22T14:18:49Z</time>
      </trkpt>
      <trkpt lat="44.36679" lon="5.77814">
        <ele>715.603</ele>
        <time>2022-03-22T14:18:51Z</time>
      </trkpt>
      <trkpt lat="44.36678" lon="5.77814">
        <ele>715.403</ele>
        <time>2022-03-22T14:18:52Z</time>
      </trkpt>
      <trkpt lat="44.36676" lon="5.77813">
        <ele>714.903</ele>
        <time>2022-03-22T14:18:54Z</time>
      </trkpt>
      <trkpt lat="44.36675" lon="5.77812">
        <ele>714.703</ele>
        <time>2022-03-22T14:18:55Z</time>
      </trkpt>
      <trkpt lat="44.36674" lon="5.77812">
        <ele>714.203</ele>
        <time>2022-03-22T14:18:56Z</time>
      </trkpt>
      <trkpt lat="44.36673" lon="5.77811">
        <ele>713.903</ele>
        <time>2022-03-22T14:18:57Z</time>
      </trkpt>
      <trkpt lat="44.36672" lon="5.7781">
        <ele>713.603</ele>
        <time>2022-03-22T14:18:58Z</time>
      </trkpt>
      <trkpt lat="44.36671" lon="5.7781">
        <ele>713.303</ele>
        <time>2022-03-22T14:18:59Z</time>
      </trkpt>
      <trkpt lat="44.36669" lon="5.77809">
        <ele>713.103</ele>
        <time>2022-03-22T14:19:00Z</time>
      </trkpt>
      <trkpt lat="44.36668" lon="5.77809">
        <ele>713.003</ele>
        <time>2022-03-22T14:19:02Z</time>
      </trkpt>
      <trkpt lat="44.36667" lon="5.77808">
        <ele>712.803</ele>
        <time>2022-03-22T14:19:03Z</time>
      </trkpt>
      <trkpt lat="44.36666" lon="5.77808">
        <ele>712.903</ele>
        <time>2022-03-22T14:19:04Z</time>
      </trkpt>
      <trkpt lat="44.36665" lon="5.77807">
        <ele>712.703</ele>
        <time>2022-03-22T14:19:05Z</time>
      </trkpt>
      <trkpt lat="44.36664" lon="5.77806">
        <ele>712.603</ele>
        <time>2022-03-22T14:19:06Z</time>
      </trkpt>
      <trkpt lat="44.36663" lon="5.77805">
        <ele>712.503</ele>
        <time>2022-03-22T14:19:08Z</time>
      </trkpt>
      <trkpt lat="44.36662" lon="5.77804">
        <ele>712.403</ele>
        <time>2022-03-22T14:19:09Z</time>
      </trkpt>
      <trkpt lat="44.36661" lon="5.77802">
        <ele>712.503</ele>
        <time>2022-03-22T14:19:10Z</time>
      </trkpt>
      <trkpt lat="44.3666" lon="5.778">
        <ele>712.404</ele>
        <time>2022-03-22T14:19:12Z</time>
      </trkpt>
      <trkpt lat="44.36659" lon="5.77799">
        <ele>712.204</ele>
        <time>2022-03-22T14:19:13Z</time>
      </trkpt>
      <trkpt lat="44.36658" lon="5.77798">
        <ele>712.204</ele>
        <time>2022-03-22T14:19:14Z</time>
      </trkpt>
      <trkpt lat="44.36657" lon="5.77796">
        <ele>712.104</ele>
        <time>2022-03-22T14:19:15Z</time>
      </trkpt>
      <trkpt lat="44.36657" lon="5.77794">
        <ele>711.904</ele>
        <time>2022-03-22T14:19:16Z</time>
      </trkpt>
      <trkpt lat="44.36656" lon="5.77793">
        <ele>711.704</ele>
        <time>2022-03-22T14:19:17Z</time>
      </trkpt>
      <trkpt lat="44.36655" lon="5.77791">
        <ele>711.304</ele>
        <time>2022-03-22T14:19:19Z</time>
      </trkpt>
      <trkpt lat="44.36655" lon="5.77789">
        <ele>711.604</ele>
        <time>2022-03-22T14:19:21Z</time>
      </trkpt>
      <trkpt lat="44.36654" lon="5.77788">
        <ele>711.604</ele>
        <time>2022-03-22T14:19:23Z</time>
      </trkpt>
      <trkpt lat="44.36653" lon="5.77789">
        <ele>711.304</ele>
        <time>2022-03-22T14:19:24Z</time>
      </trkpt>
      <trkpt lat="44.36652" lon="5.77789">
        <ele>711.104</ele>
        <time>2022-03-22T14:19:26Z</time>
      </trkpt>
      <trkpt lat="44.36652" lon="5.7779">
        <ele>711.204</ele>
        <time>2022-03-22T14:19:27Z</time>
      </trkpt>
      <trkpt lat="44.36652" lon="5.7779">
        <ele>711.604</ele>
        <time>2022-03-22T14:20:41Z</time>
      </trkpt>
      <trkpt lat="44.36649" lon="5.77792">
        <ele>715.004</ele>
        <time>2022-03-22T14:20:42Z</time>
      </trkpt>
      <trkpt lat="44.36649" lon="5.77789">
        <ele>714.204</ele>
        <time>2022-03-22T14:20:44Z</time>
      </trkpt>
      <trkpt lat="44.36649" lon="5.77787">
        <ele>714.004</ele>
        <time>2022-03-22T14:20:45Z</time>
      </trkpt>
      <trkpt lat="44.36649" lon="5.77784">
        <ele>713.404</ele>
        <time>2022-03-22T14:20:46Z</time>
      </trkpt>
      <trkpt lat="44.36649" lon="5.77782">
        <ele>712.904</ele>
        <time>2022-03-22T14:20:47Z</time>
      </trkpt>
      <trkpt lat="44.36649" lon="5.7778">
        <ele>712.604</ele>
        <time>2022-03-22T14:20:48Z</time>
      </trkpt>
      <trkpt lat="44.3665" lon="5.77778">
        <ele>712.304</ele>
        <time>2022-03-22T14:20:49Z</time>
      </trkpt>
      <trkpt lat="44.3665" lon="5.77775">
        <ele>712.004</ele>
        <time>2022-03-22T14:20:50Z</time>
      </trkpt>
      <trkpt lat="44.3665" lon="5.77772">
        <ele>711.704</ele>
        <time>2022-03-22T14:20:51Z</time>
      </trkpt>
      <trkpt lat="44.3665" lon="5.7777">
        <ele>711.304</ele>
        <time>2022-03-22T14:20:52Z</time>
      </trkpt>
      <trkpt lat="44.3665" lon="5.77768">
        <ele>711.104</ele>
        <time>2022-03-22T14:20:53Z</time>
      </trkpt>
      <trkpt lat="44.3665" lon="5.77766">
        <ele>710.804</ele>
        <time>2022-03-22T14:20:54Z</time>
      </trkpt>
      <trkpt lat="44.3665" lon="5.77764">
        <ele>710.304</ele>
        <time>2022-03-22T14:20:55Z</time>
      </trkpt>
      <trkpt lat="44.3665" lon="5.77762">
        <ele>710.004</ele>
        <time>2022-03-22T14:20:56Z</time>
      </trkpt>
      <trkpt lat="44.3665" lon="5.77759">
        <ele>709.604</ele>
        <time>2022-03-22T14:20:58Z</time>
      </trkpt>
      <trkpt lat="44.3665" lon="5.77757">
        <ele>709.504</ele>
        <time>2022-03-22T14:20:59Z</time>
      </trkpt>
      <trkpt lat="44.3665" lon="5.77756">
        <ele>709.604</ele>
        <time>2022-03-22T14:21:00Z</time>
      </trkpt>
      <trkpt lat="44.36651" lon="5.77754">
        <ele>709.804</ele>
        <time>2022-03-22T14:21:01Z</time>
      </trkpt>
      <trkpt lat="44.3665" lon="5.77752">
        <ele>709.904</ele>
        <time>2022-03-22T14:21:02Z</time>
      </trkpt>
      <trkpt lat="44.3665" lon="5.7775">
        <ele>709.704</ele>
        <time>2022-03-22T14:21:04Z</time>
      </trkpt>
      <trkpt lat="44.3665" lon="5.77749">
        <ele>709.404</ele>
        <time>2022-03-22T14:21:05Z</time>
      </trkpt>
      <trkpt lat="44.3665" lon="5.77746">
        <ele>708.904</ele>
        <time>2022-03-22T14:21:07Z</time>
      </trkpt>
      <trkpt lat="44.3665" lon="5.77744">
        <ele>708.504</ele>
        <time>2022-03-22T14:21:09Z</time>
      </trkpt>
      <trkpt lat="44.3665" lon="5.77742">
        <ele>708.304</ele>
        <time>2022-03-22T14:21:10Z</time>
      </trkpt>
      <trkpt lat="44.3665" lon="5.7774">
        <ele>708.704</ele>
        <time>2022-03-22T14:21:11Z</time>
      </trkpt>
      <trkpt lat="44.36649" lon="5.77738">
        <ele>708.604</ele>
        <time>2022-03-22T14:21:13Z</time>
      </trkpt>
      <trkpt lat="44.36649" lon="5.77737">
        <ele>708.404</ele>
        <time>2022-03-22T14:21:14Z</time>
      </trkpt>
      <trkpt lat="44.36649" lon="5.77734">
        <ele>708.004</ele>
        <time>2022-03-22T14:21:16Z</time>
      </trkpt>
      <trkpt lat="44.36649" lon="5.77733">
        <ele>708.004</ele>
        <time>2022-03-22T14:21:17Z</time>
      </trkpt>
      <trkpt lat="44.36649" lon="5.77732">
        <ele>707.904</ele>
        <time>2022-03-22T14:21:18Z</time>
      </trkpt>
      <trkpt lat="44.36649" lon="5.7773">
        <ele>707.604</ele>
        <time>2022-03-22T14:21:19Z</time>
      </trkpt>
      <trkpt lat="44.36649" lon="5.77729">
        <ele>707.304</ele>
        <time>2022-03-22T14:21:20Z</time>
      </trkpt>
      <trkpt lat="44.36648" lon="5.77728">
        <ele>706.905</ele>
        <time>2022-03-22T14:21:21Z</time>
      </trkpt>
      <trkpt lat="44.36648" lon="5.77726">
        <ele>706.605</ele>
        <time>2022-03-22T14:21:22Z</time>
      </trkpt>
      <trkpt lat="44.36648" lon="5.77725">
        <ele>706.405</ele>
        <time>2022-03-22T14:21:23Z</time>
      </trkpt>
      <trkpt lat="44.36648" lon="5.77723">
        <ele>706.205</ele>
        <time>2022-03-22T14:21:24Z</time>
      </trkpt>
      <trkpt lat="44.36648" lon="5.77722">
        <ele>706.105</ele>
        <time>2022-03-22T14:21:25Z</time>
      </trkpt>
      <trkpt lat="44.36647" lon="5.77721">
        <ele>705.905</ele>
        <time>2022-03-22T14:21:26Z</time>
      </trkpt>
      <trkpt lat="44.36647" lon="5.77719">
        <ele>705.905</ele>
        <time>2022-03-22T14:21:27Z</time>
      </trkpt>
      <trkpt lat="44.36647" lon="5.77718">
        <ele>705.705</ele>
        <time>2022-03-22T14:21:28Z</time>
      </trkpt>
      <trkpt lat="44.36647" lon="5.77716">
        <ele>705.305</ele>
        <time>2022-03-22T14:21:29Z</time>
      </trkpt>
      <trkpt lat="44.36647" lon="5.77715">
        <ele>705.105</ele>
        <time>2022-03-22T14:21:30Z</time>
      </trkpt>
      <trkpt lat="44.36647" lon="5.77713">
        <ele>704.805</ele>
        <time>2022-03-22T14:21:31Z</time>
      </trkpt>
      <trkpt lat="44.36647" lon="5.77711">
        <ele>704.605</ele>
        <time>2022-03-22T14:21:32Z</time>
      </trkpt>
      <trkpt lat="44.36647" lon="5.7771">
        <ele>704.305</ele>
        <time>2022-03-22T14:21:33Z</time>
      </trkpt>
      <trkpt lat="44.36647" lon="5.77708">
        <ele>704.005</ele>
        <time>2022-03-22T14:21:34Z</time>
      </trkpt>
      <trkpt lat="44.36646" lon="5.77707">
        <ele>703.705</ele>
        <time>2022-03-22T14:21:35Z</time>
      </trkpt>
      <trkpt lat="44.36646" lon="5.77706">
        <ele>703.405</ele>
        <time>2022-03-22T14:21:36Z</time>
      </trkpt>
      <trkpt lat="44.36646" lon="5.77704">
        <ele>703.205</ele>
        <time>2022-03-22T14:21:37Z</time>
      </trkpt>
      <trkpt lat="44.36646" lon="5.77701">
        <ele>702.805</ele>
        <time>2022-03-22T14:21:39Z</time>
      </trkpt>
      <trkpt lat="44.36646" lon="5.777">
        <ele>702.705</ele>
        <time>2022-03-22T14:21:40Z</time>
      </trkpt>
      <trkpt lat="44.36645" lon="5.77698">
        <ele>702.705</ele>
        <time>2022-03-22T14:21:41Z</time>
      </trkpt>
      <trkpt lat="44.36645" lon="5.77696">
        <ele>702.405</ele>
        <time>2022-03-22T14:21:42Z</time>
      </trkpt>
      <trkpt lat="44.36645" lon="5.77695">
        <ele>702.305</ele>
        <time>2022-03-22T14:21:43Z</time>
      </trkpt>
      <trkpt lat="44.36645" lon="5.77693">
        <ele>702.205</ele>
        <time>2022-03-22T14:21:44Z</time>
      </trkpt>
      <trkpt lat="44.36645" lon="5.77691">
        <ele>702.305</ele>
        <time>2022-03-22T14:21:45Z</time>
      </trkpt>
      <trkpt lat="44.36645" lon="5.77689">
        <ele>702.305</ele>
        <time>2022-03-22T14:21:46Z</time>
      </trkpt>
      <trkpt lat="44.36644" lon="5.77687">
        <ele>701.805</ele>
        <time>2022-03-22T14:21:48Z</time>
      </trkpt>
      <trkpt lat="44.36644" lon="5.77685">
        <ele>701.605</ele>
        <time>2022-03-22T14:21:49Z</time>
      </trkpt>
      <trkpt lat="44.36644" lon="5.77683">
        <ele>701.505</ele>
        <time>2022-03-22T14:21:51Z</time>
      </trkpt>
      <trkpt lat="44.36644" lon="5.77681">
        <ele>701.105</ele>
        <time>2022-03-22T14:21:53Z</time>
      </trkpt>
      <trkpt lat="44.36643" lon="5.7768">
        <ele>700.605</ele>
        <time>2022-03-22T14:21:54Z</time>
      </trkpt>
      <trkpt lat="44.36643" lon="5.77678">
        <ele>699.905</ele>
        <time>2022-03-22T14:21:56Z</time>
      </trkpt>
      <trkpt lat="44.36643" lon="5.77676">
        <ele>699.805</ele>
        <time>2022-03-22T14:21:57Z</time>
      </trkpt>
      <trkpt lat="44.36643" lon="5.77675">
        <ele>699.605</ele>
        <time>2022-03-22T14:21:58Z</time>
      </trkpt>
      <trkpt lat="44.36642" lon="5.77673">
        <ele>698.905</ele>
        <time>2022-03-22T14:22:00Z</time>
      </trkpt>
      <trkpt lat="44.36642" lon="5.77671">
        <ele>698.705</ele>
        <time>2022-03-22T14:22:01Z</time>
      </trkpt>
      <trkpt lat="44.36642" lon="5.7767">
        <ele>698.505</ele>
        <time>2022-03-22T14:22:02Z</time>
      </trkpt>
      <trkpt lat="44.36641" lon="5.77668">
        <ele>698.505</ele>
        <time>2022-03-22T14:22:03Z</time>
      </trkpt>
      <trkpt lat="44.36641" lon="5.77666">
        <ele>698.405</ele>
        <time>2022-03-22T14:22:04Z</time>
      </trkpt>
      <trkpt lat="44.36641" lon="5.77665">
        <ele>698.205</ele>
        <time>2022-03-22T14:22:05Z</time>
      </trkpt>
      <trkpt lat="44.36641" lon="5.77663">
        <ele>698.105</ele>
        <time>2022-03-22T14:22:06Z</time>
      </trkpt>
      <trkpt lat="44.36641" lon="5.77662">
        <ele>698.005</ele>
        <time>2022-03-22T14:22:07Z</time>
      </trkpt>
      <trkpt lat="44.36641" lon="5.7766">
        <ele>698.305</ele>
        <time>2022-03-22T14:22:08Z</time>
      </trkpt>
      <trkpt lat="44.36641" lon="5.77659">
        <ele>698.305</ele>
        <time>2022-03-22T14:22:09Z</time>
      </trkpt>
      <trkpt lat="44.36641" lon="5.77657">
        <ele>698.405</ele>
        <time>2022-03-22T14:22:10Z</time>
      </trkpt>
      <trkpt lat="44.36641" lon="5.77655">
        <ele>698.305</ele>
        <time>2022-03-22T14:22:11Z</time>
      </trkpt>
      <trkpt lat="44.36641" lon="5.77654">
        <ele>698.305</ele>
        <time>2022-03-22T14:22:12Z</time>
      </trkpt>
      <trkpt lat="44.36641" lon="5.77652">
        <ele>698.405</ele>
        <time>2022-03-22T14:22:13Z</time>
      </trkpt>
      <trkpt lat="44.36641" lon="5.7765">
        <ele>698.405</ele>
        <time>2022-03-22T14:22:14Z</time>
      </trkpt>
      <trkpt lat="44.36641" lon="5.77648">
        <ele>698.205</ele>
        <time>2022-03-22T14:22:16Z</time>
      </trkpt>
      <trkpt lat="44.36641" lon="5.77646">
        <ele>698.105</ele>
        <time>2022-03-22T14:22:17Z</time>
      </trkpt>
      <trkpt lat="44.3664" lon="5.77645">
        <ele>698.006</ele>
        <time>2022-03-22T14:22:18Z</time>
      </trkpt>
      <trkpt lat="44.3664" lon="5.77643">
        <ele>697.706</ele>
        <time>2022-03-22T14:22:19Z</time>
      </trkpt>
      <trkpt lat="44.3664" lon="5.77641">
        <ele>697.406</ele>
        <time>2022-03-22T14:22:20Z</time>
      </trkpt>
      <trkpt lat="44.36639" lon="5.77639">
        <ele>697.506</ele>
        <time>2022-03-22T14:22:21Z</time>
      </trkpt>
      <trkpt lat="44.36639" lon="5.77638">
        <ele>697.506</ele>
        <time>2022-03-22T14:22:22Z</time>
      </trkpt>
      <trkpt lat="44.36639" lon="5.77636">
        <ele>697.506</ele>
        <time>2022-03-22T14:22:23Z</time>
      </trkpt>
      <trkpt lat="44.36639" lon="5.77635">
        <ele>697.406</ele>
        <time>2022-03-22T14:22:24Z</time>
      </trkpt>
      <trkpt lat="44.3664" lon="5.77633">
        <ele>697.006</ele>
        <time>2022-03-22T14:22:25Z</time>
      </trkpt>
      <trkpt lat="44.3664" lon="5.77632">
        <ele>696.406</ele>
        <time>2022-03-22T14:22:26Z</time>
      </trkpt>
      <trkpt lat="44.3664" lon="5.7763">
        <ele>696.206</ele>
        <time>2022-03-22T14:22:27Z</time>
      </trkpt>
      <trkpt lat="44.36641" lon="5.77628">
        <ele>696.106</ele>
        <time>2022-03-22T14:22:28Z</time>
      </trkpt>
      <trkpt lat="44.36641" lon="5.77627">
        <ele>695.906</ele>
        <time>2022-03-22T14:22:29Z</time>
      </trkpt>
      <trkpt lat="44.36641" lon="5.77624">
        <ele>695.806</ele>
        <time>2022-03-22T14:22:31Z</time>
      </trkpt>
      <trkpt lat="44.36641" lon="5.77623">
        <ele>695.206</ele>
        <time>2022-03-22T14:22:32Z</time>
      </trkpt>
      <trkpt lat="44.36641" lon="5.77622">
        <ele>694.906</ele>
        <time>2022-03-22T14:22:33Z</time>
      </trkpt>
      <trkpt lat="44.36641" lon="5.7762">
        <ele>694.706</ele>
        <time>2022-03-22T14:22:34Z</time>
      </trkpt>
      <trkpt lat="44.36641" lon="5.77619">
        <ele>694.506</ele>
        <time>2022-03-22T14:22:35Z</time>
      </trkpt>
      <trkpt lat="44.36641" lon="5.77616">
        <ele>694.206</ele>
        <time>2022-03-22T14:22:37Z</time>
      </trkpt>
      <trkpt lat="44.36641" lon="5.77614">
        <ele>694.406</ele>
        <time>2022-03-22T14:22:38Z</time>
      </trkpt>
      <trkpt lat="44.36641" lon="5.77613">
        <ele>694.306</ele>
        <time>2022-03-22T14:22:39Z</time>
      </trkpt>
      <trkpt lat="44.36641" lon="5.77612">
        <ele>694.606</ele>
        <time>2022-03-22T14:22:40Z</time>
      </trkpt>
      <trkpt lat="44.36642" lon="5.7761">
        <ele>694.606</ele>
        <time>2022-03-22T14:22:41Z</time>
      </trkpt>
      <trkpt lat="44.36641" lon="5.77607">
        <ele>694.706</ele>
        <time>2022-03-22T14:22:43Z</time>
      </trkpt>
      <trkpt lat="44.36642" lon="5.77605">
        <ele>694.606</ele>
        <time>2022-03-22T14:22:45Z</time>
      </trkpt>
      <trkpt lat="44.36642" lon="5.77603">
        <ele>694.406</ele>
        <time>2022-03-22T14:22:46Z</time>
      </trkpt>
      <trkpt lat="44.36642" lon="5.77601">
        <ele>694.206</ele>
        <time>2022-03-22T14:22:47Z</time>
      </trkpt>
      <trkpt lat="44.36642" lon="5.77599">
        <ele>693.806</ele>
        <time>2022-03-22T14:22:48Z</time>
      </trkpt>
      <trkpt lat="44.36642" lon="5.77598">
        <ele>693.506</ele>
        <time>2022-03-22T14:22:49Z</time>
      </trkpt>
      <trkpt lat="44.36642" lon="5.77596">
        <ele>693.206</ele>
        <time>2022-03-22T14:22:50Z</time>
      </trkpt>
      <trkpt lat="44.36642" lon="5.77594">
        <ele>693.006</ele>
        <time>2022-03-22T14:22:51Z</time>
      </trkpt>
      <trkpt lat="44.36642" lon="5.77592">
        <ele>693.006</ele>
        <time>2022-03-22T14:22:52Z</time>
      </trkpt>
      <trkpt lat="44.36642" lon="5.77591">
        <ele>692.906</ele>
        <time>2022-03-22T14:22:53Z</time>
      </trkpt>
      <trkpt lat="44.36642" lon="5.77589">
        <ele>692.906</ele>
        <time>2022-03-22T14:22:54Z</time>
      </trkpt>
      <trkpt lat="44.36642" lon="5.77587">
        <ele>692.406</ele>
        <time>2022-03-22T14:22:56Z</time>
      </trkpt>
      <trkpt lat="44.36641" lon="5.77585">
        <ele>692.006</ele>
        <time>2022-03-22T14:22:58Z</time>
      </trkpt>
      <trkpt lat="44.36641" lon="5.77584">
        <ele>691.706</ele>
        <time>2022-03-22T14:22:59Z</time>
      </trkpt>
      <trkpt lat="44.3664" lon="5.77582">
        <ele>691.606</ele>
        <time>2022-03-22T14:23:00Z</time>
      </trkpt>
      <trkpt lat="44.3664" lon="5.77581">
        <ele>691.306</ele>
        <time>2022-03-22T14:23:01Z</time>
      </trkpt>
      <trkpt lat="44.3664" lon="5.7758">
        <ele>691.406</ele>
        <time>2022-03-22T14:23:02Z</time>
      </trkpt>
      <trkpt lat="44.36639" lon="5.77578">
        <ele>691.206</ele>
        <time>2022-03-22T14:23:03Z</time>
      </trkpt>
      <trkpt lat="44.36639" lon="5.77577">
        <ele>691.006</ele>
        <time>2022-03-22T14:23:04Z</time>
      </trkpt>
      <trkpt lat="44.36638" lon="5.77575">
        <ele>690.906</ele>
        <time>2022-03-22T14:23:05Z</time>
      </trkpt>
      <trkpt lat="44.36638" lon="5.77574">
        <ele>690.906</ele>
        <time>2022-03-22T14:23:06Z</time>
      </trkpt>
      <trkpt lat="44.36637" lon="5.77573">
        <ele>690.606</ele>
        <time>2022-03-22T14:23:07Z</time>
      </trkpt>
      <trkpt lat="44.36636" lon="5.77572">
        <ele>690.506</ele>
        <time>2022-03-22T14:23:08Z</time>
      </trkpt>
      <trkpt lat="44.36636" lon="5.7757">
        <ele>690.606</ele>
        <time>2022-03-22T14:23:09Z</time>
      </trkpt>
      <trkpt lat="44.36635" lon="5.77569">
        <ele>690.406</ele>
        <time>2022-03-22T14:23:10Z</time>
      </trkpt>
      <trkpt lat="44.36635" lon="5.77567">
        <ele>690.306</ele>
        <time>2022-03-22T14:23:11Z</time>
      </trkpt>
      <trkpt lat="44.36634" lon="5.77566">
        <ele>690.406</ele>
        <time>2022-03-22T14:23:12Z</time>
      </trkpt>
      <trkpt lat="44.36633" lon="5.77564">
        <ele>690.406</ele>
        <time>2022-03-22T14:23:14Z</time>
      </trkpt>
      <trkpt lat="44.36632" lon="5.77563">
        <ele>690.407</ele>
        <time>2022-03-22T14:23:15Z</time>
      </trkpt>
      <trkpt lat="44.36631" lon="5.77561">
        <ele>690.307</ele>
        <time>2022-03-22T14:23:16Z</time>
      </trkpt>
      <trkpt lat="44.36631" lon="5.7756">
        <ele>690.307</ele>
        <time>2022-03-22T14:23:17Z</time>
      </trkpt>
      <trkpt lat="44.3663" lon="5.77557">
        <ele>690.107</ele>
        <time>2022-03-22T14:23:19Z</time>
      </trkpt>
      <trkpt lat="44.36629" lon="5.77555">
        <ele>690.207</ele>
        <time>2022-03-22T14:23:20Z</time>
      </trkpt>
      <trkpt lat="44.36629" lon="5.77554">
        <ele>689.707</ele>
        <time>2022-03-22T14:23:21Z</time>
      </trkpt>
      <trkpt lat="44.36628" lon="5.77552">
        <ele>689.107</ele>
        <time>2022-03-22T14:23:23Z</time>
      </trkpt>
      <trkpt lat="44.36628" lon="5.77551">
        <ele>688.707</ele>
        <time>2022-03-22T14:23:24Z</time>
      </trkpt>
      <trkpt lat="44.36627" lon="5.77549">
        <ele>688.607</ele>
        <time>2022-03-22T14:23:25Z</time>
      </trkpt>
      <trkpt lat="44.36626" lon="5.77548">
        <ele>688.407</ele>
        <time>2022-03-22T14:23:26Z</time>
      </trkpt>
      <trkpt lat="44.36626" lon="5.77547">
        <ele>688.007</ele>
        <time>2022-03-22T14:23:27Z</time>
      </trkpt>
      <trkpt lat="44.36625" lon="5.77545">
        <ele>687.907</ele>
        <time>2022-03-22T14:23:28Z</time>
      </trkpt>
      <trkpt lat="44.36625" lon="5.77544">
        <ele>687.907</ele>
        <time>2022-03-22T14:23:29Z</time>
      </trkpt>
      <trkpt lat="44.36624" lon="5.77543">
        <ele>687.907</ele>
        <time>2022-03-22T14:23:30Z</time>
      </trkpt>
      <trkpt lat="44.36624" lon="5.77542">
        <ele>687.907</ele>
        <time>2022-03-22T14:23:31Z</time>
      </trkpt>
      <trkpt lat="44.36624" lon="5.7754">
        <ele>687.807</ele>
        <time>2022-03-22T14:23:32Z</time>
      </trkpt>
      <trkpt lat="44.36623" lon="5.77538">
        <ele>687.507</ele>
        <time>2022-03-22T14:23:34Z</time>
      </trkpt>
      <trkpt lat="44.36623" lon="5.77536">
        <ele>687.307</ele>
        <time>2022-03-22T14:23:35Z</time>
      </trkpt>
      <trkpt lat="44.36622" lon="5.77535">
        <ele>687.007</ele>
        <time>2022-03-22T14:23:36Z</time>
      </trkpt>
      <trkpt lat="44.36621" lon="5.77533">
        <ele>686.307</ele>
        <time>2022-03-22T14:23:38Z</time>
      </trkpt>
      <trkpt lat="44.3662" lon="5.77531">
        <ele>686.107</ele>
        <time>2022-03-22T14:23:40Z</time>
      </trkpt>
      <trkpt lat="44.36619" lon="5.77529">
        <ele>686.207</ele>
        <time>2022-03-22T14:23:42Z</time>
      </trkpt>
      <trkpt lat="44.36619" lon="5.77528">
        <ele>686.107</ele>
        <time>2022-03-22T14:23:43Z</time>
      </trkpt>
      <trkpt lat="44.36618" lon="5.77527">
        <ele>685.907</ele>
        <time>2022-03-22T14:23:44Z</time>
      </trkpt>
      <trkpt lat="44.36618" lon="5.77524">
        <ele>685.507</ele>
        <time>2022-03-22T14:23:46Z</time>
      </trkpt>
      <trkpt lat="44.36617" lon="5.77522">
        <ele>684.907</ele>
        <time>2022-03-22T14:23:48Z</time>
      </trkpt>
      <trkpt lat="44.36616" lon="5.77521">
        <ele>684.807</ele>
        <time>2022-03-22T14:23:49Z</time>
      </trkpt>
      <trkpt lat="44.36616" lon="5.7752">
        <ele>684.707</ele>
        <time>2022-03-22T14:23:50Z</time>
      </trkpt>
      <trkpt lat="44.36615" lon="5.77518">
        <ele>684.607</ele>
        <time>2022-03-22T14:23:51Z</time>
      </trkpt>
      <trkpt lat="44.36615" lon="5.77516">
        <ele>684.807</ele>
        <time>2022-03-22T14:23:52Z</time>
      </trkpt>
      <trkpt lat="44.36614" lon="5.77514">
        <ele>684.907</ele>
        <time>2022-03-22T14:23:53Z</time>
      </trkpt>
      <trkpt lat="44.36614" lon="5.77512">
        <ele>684.707</ele>
        <time>2022-03-22T14:23:54Z</time>
      </trkpt>
      <trkpt lat="44.36613" lon="5.7751">
        <ele>684.707</ele>
        <time>2022-03-22T14:23:55Z</time>
      </trkpt>
      <trkpt lat="44.36613" lon="5.77509">
        <ele>685.008</ele>
        <time>2022-03-22T14:23:56Z</time>
      </trkpt>
      <trkpt lat="44.36612" lon="5.77507">
        <ele>685.008</ele>
        <time>2022-03-22T14:23:57Z</time>
      </trkpt>
      <trkpt lat="44.36611" lon="5.77505">
        <ele>684.508</ele>
        <time>2022-03-22T14:23:59Z</time>
      </trkpt>
      <trkpt lat="44.36611" lon="5.77504">
        <ele>684.308</ele>
        <time>2022-03-22T14:24:00Z</time>
      </trkpt>
      <trkpt lat="44.36611" lon="5.77502">
        <ele>683.808</ele>
        <time>2022-03-22T14:24:01Z</time>
      </trkpt>
      <trkpt lat="44.3661" lon="5.77501">
        <ele>683.508</ele>
        <time>2022-03-22T14:24:02Z</time>
      </trkpt>
      <trkpt lat="44.3661" lon="5.77499">
        <ele>683.408</ele>
        <time>2022-03-22T14:24:03Z</time>
      </trkpt>
      <trkpt lat="44.3661" lon="5.77498">
        <ele>683.308</ele>
        <time>2022-03-22T14:24:04Z</time>
      </trkpt>
      <trkpt lat="44.3661" lon="5.77496">
        <ele>683.108</ele>
        <time>2022-03-22T14:24:05Z</time>
      </trkpt>
      <trkpt lat="44.36609" lon="5.77495">
        <ele>683.108</ele>
        <time>2022-03-22T14:24:06Z</time>
      </trkpt>
      <trkpt lat="44.36609" lon="5.77493">
        <ele>683.108</ele>
        <time>2022-03-22T14:24:07Z</time>
      </trkpt>
      <trkpt lat="44.36608" lon="5.77492">
        <ele>683.108</ele>
        <time>2022-03-22T14:24:08Z</time>
      </trkpt>
      <trkpt lat="44.36608" lon="5.7749">
        <ele>683.008</ele>
        <time>2022-03-22T14:24:09Z</time>
      </trkpt>
      <trkpt lat="44.36607" lon="5.77489">
        <ele>682.808</ele>
        <time>2022-03-22T14:24:10Z</time>
      </trkpt>
      <trkpt lat="44.36607" lon="5.77487">
        <ele>682.608</ele>
        <time>2022-03-22T14:24:11Z</time>
      </trkpt>
      <trkpt lat="44.36607" lon="5.77485">
        <ele>682.508</ele>
        <time>2022-03-22T14:24:12Z</time>
      </trkpt>
      <trkpt lat="44.36606" lon="5.77484">
        <ele>682.408</ele>
        <time>2022-03-22T14:24:13Z</time>
      </trkpt>
      <trkpt lat="44.36606" lon="5.77482">
        <ele>682.308</ele>
        <time>2022-03-22T14:24:14Z</time>
      </trkpt>
      <trkpt lat="44.36605" lon="5.77481">
        <ele>682.208</ele>
        <time>2022-03-22T14:24:15Z</time>
      </trkpt>
      <trkpt lat="44.36605" lon="5.77479">
        <ele>681.908</ele>
        <time>2022-03-22T14:24:16Z</time>
      </trkpt>
      <trkpt lat="44.36604" lon="5.77477">
        <ele>681.708</ele>
        <time>2022-03-22T14:24:18Z</time>
      </trkpt>
      <trkpt lat="44.36604" lon="5.77475">
        <ele>681.708</ele>
        <time>2022-03-22T14:24:19Z</time>
      </trkpt>
      <trkpt lat="44.36603" lon="5.77474">
        <ele>681.608</ele>
        <time>2022-03-22T14:24:20Z</time>
      </trkpt>
      <trkpt lat="44.36602" lon="5.77473">
        <ele>681.708</ele>
        <time>2022-03-22T14:24:21Z</time>
      </trkpt>
      <trkpt lat="44.36602" lon="5.77471">
        <ele>681.708</ele>
        <time>2022-03-22T14:24:22Z</time>
      </trkpt>
      <trkpt lat="44.36601" lon="5.7747">
        <ele>681.608</ele>
        <time>2022-03-22T14:24:23Z</time>
      </trkpt>
      <trkpt lat="44.36601" lon="5.77468">
        <ele>681.508</ele>
        <time>2022-03-22T14:24:24Z</time>
      </trkpt>
      <trkpt lat="44.36601" lon="5.77467">
        <ele>681.508</ele>
        <time>2022-03-22T14:24:25Z</time>
      </trkpt>
      <trkpt lat="44.366" lon="5.77464">
        <ele>681.108</ele>
        <time>2022-03-22T14:24:27Z</time>
      </trkpt>
      <trkpt lat="44.36599" lon="5.77463">
        <ele>681.008</ele>
        <time>2022-03-22T14:24:28Z</time>
      </trkpt>
      <trkpt lat="44.36599" lon="5.77462">
        <ele>681.008</ele>
        <time>2022-03-22T14:24:29Z</time>
      </trkpt>
      <trkpt lat="44.36599" lon="5.7746">
        <ele>680.808</ele>
        <time>2022-03-22T14:24:30Z</time>
      </trkpt>
      <trkpt lat="44.36598" lon="5.77459">
        <ele>680.708</ele>
        <time>2022-03-22T14:24:31Z</time>
      </trkpt>
      <trkpt lat="44.36597" lon="5.77458">
        <ele>680.808</ele>
        <time>2022-03-22T14:24:32Z</time>
      </trkpt>
      <trkpt lat="44.36597" lon="5.77457">
        <ele>680.908</ele>
        <time>2022-03-22T14:24:33Z</time>
      </trkpt>
      <trkpt lat="44.36596" lon="5.77455">
        <ele>681.008</ele>
        <time>2022-03-22T14:24:34Z</time>
      </trkpt>
      <trkpt lat="44.36596" lon="5.77453">
        <ele>680.708</ele>
        <time>2022-03-22T14:24:36Z</time>
      </trkpt>
      <trkpt lat="44.36595" lon="5.77451">
        <ele>680.109</ele>
        <time>2022-03-22T14:24:38Z</time>
      </trkpt>
      <trkpt lat="44.36595" lon="5.7745">
        <ele>679.909</ele>
        <time>2022-03-22T14:24:39Z</time>
      </trkpt>
      <trkpt lat="44.36595" lon="5.77449">
        <ele>679.609</ele>
        <time>2022-03-22T14:24:40Z</time>
      </trkpt>
      <trkpt lat="44.36594" lon="5.77447">
        <ele>679.209</ele>
        <time>2022-03-22T14:24:42Z</time>
      </trkpt>
      <trkpt lat="44.36593" lon="5.77445">
        <ele>679.009</ele>
        <time>2022-03-22T14:24:43Z</time>
      </trkpt>
      <trkpt lat="44.36593" lon="5.77444">
        <ele>678.709</ele>
        <time>2022-03-22T14:24:44Z</time>
      </trkpt>
      <trkpt lat="44.36592" lon="5.77443">
        <ele>678.609</ele>
        <time>2022-03-22T14:24:45Z</time>
      </trkpt>
      <trkpt lat="44.36592" lon="5.77441">
        <ele>678.609</ele>
        <time>2022-03-22T14:24:46Z</time>
      </trkpt>
      <trkpt lat="44.36592" lon="5.7744">
        <ele>678.509</ele>
        <time>2022-03-22T14:24:47Z</time>
      </trkpt>
      <trkpt lat="44.36591" lon="5.77438">
        <ele>678.309</ele>
        <time>2022-03-22T14:24:48Z</time>
      </trkpt>
      <trkpt lat="44.36591" lon="5.77437">
        <ele>678.209</ele>
        <time>2022-03-22T14:24:49Z</time>
      </trkpt>
      <trkpt lat="44.3659" lon="5.77435">
        <ele>678.009</ele>
        <time>2022-03-22T14:24:50Z</time>
      </trkpt>
      <trkpt lat="44.3659" lon="5.77433">
        <ele>678.009</ele>
        <time>2022-03-22T14:24:51Z</time>
      </trkpt>
      <trkpt lat="44.36589" lon="5.77432">
        <ele>678.009</ele>
        <time>2022-03-22T14:24:52Z</time>
      </trkpt>
      <trkpt lat="44.36589" lon="5.7743">
        <ele>677.809</ele>
        <time>2022-03-22T14:24:53Z</time>
      </trkpt>
      <trkpt lat="44.36588" lon="5.77429">
        <ele>677.809</ele>
        <time>2022-03-22T14:24:54Z</time>
      </trkpt>
      <trkpt lat="44.36588" lon="5.77427">
        <ele>677.909</ele>
        <time>2022-03-22T14:24:55Z</time>
      </trkpt>
      <trkpt lat="44.36588" lon="5.77426">
        <ele>677.709</ele>
        <time>2022-03-22T14:24:56Z</time>
      </trkpt>
      <trkpt lat="44.36587" lon="5.77424">
        <ele>677.709</ele>
        <time>2022-03-22T14:24:57Z</time>
      </trkpt>
      <trkpt lat="44.36587" lon="5.77423">
        <ele>677.709</ele>
        <time>2022-03-22T14:24:58Z</time>
      </trkpt>
      <trkpt lat="44.36586" lon="5.77421">
        <ele>677.709</ele>
        <time>2022-03-22T14:24:59Z</time>
      </trkpt>
      <trkpt lat="44.36586" lon="5.7742">
        <ele>677.609</ele>
        <time>2022-03-22T14:25:00Z</time>
      </trkpt>
      <trkpt lat="44.36586" lon="5.77419">
        <ele>677.409</ele>
        <time>2022-03-22T14:25:01Z</time>
      </trkpt>
      <trkpt lat="44.36585" lon="5.77417">
        <ele>677.409</ele>
        <time>2022-03-22T14:25:02Z</time>
      </trkpt>
      <trkpt lat="44.36584" lon="5.77416">
        <ele>677.209</ele>
        <time>2022-03-22T14:25:03Z</time>
      </trkpt>
      <trkpt lat="44.36583" lon="5.77414">
        <ele>677.009</ele>
        <time>2022-03-22T14:25:05Z</time>
      </trkpt>
      <trkpt lat="44.36583" lon="5.77412">
        <ele>676.809</ele>
        <time>2022-03-22T14:25:06Z</time>
      </trkpt>
      <trkpt lat="44.36582" lon="5.7741">
        <ele>676.409</ele>
        <time>2022-03-22T14:25:08Z</time>
      </trkpt>
      <trkpt lat="44.36581" lon="5.77409">
        <ele>676.309</ele>
        <time>2022-03-22T14:25:09Z</time>
      </trkpt>
      <trkpt lat="44.36581" lon="5.77407">
        <ele>676.209</ele>
        <time>2022-03-22T14:25:10Z</time>
      </trkpt>
      <trkpt lat="44.36581" lon="5.77406">
        <ele>676.109</ele>
        <time>2022-03-22T14:25:11Z</time>
      </trkpt>
      <trkpt lat="44.3658" lon="5.77404">
        <ele>675.909</ele>
        <time>2022-03-22T14:25:12Z</time>
      </trkpt>
      <trkpt lat="44.3658" lon="5.77403">
        <ele>675.709</ele>
        <time>2022-03-22T14:25:13Z</time>
      </trkpt>
      <trkpt lat="44.3658" lon="5.77402">
        <ele>675.309</ele>
        <time>2022-03-22T14:25:14Z</time>
      </trkpt>
      <trkpt lat="44.36579" lon="5.774">
        <ele>674.909</ele>
        <time>2022-03-22T14:25:16Z</time>
      </trkpt>
      <trkpt lat="44.36578" lon="5.77398">
        <ele>674.809</ele>
        <time>2022-03-22T14:25:17Z</time>
      </trkpt>
      <trkpt lat="44.36577" lon="5.77396">
        <ele>674.31</ele>
        <time>2022-03-22T14:25:19Z</time>
      </trkpt>
      <trkpt lat="44.36577" lon="5.77395">
        <ele>674.41</ele>
        <time>2022-03-22T14:25:20Z</time>
      </trkpt>
      <trkpt lat="44.36576" lon="5.77394">
        <ele>674.31</ele>
        <time>2022-03-22T14:25:21Z</time>
      </trkpt>
      <trkpt lat="44.36576" lon="5.77392">
        <ele>674.21</ele>
        <time>2022-03-22T14:25:22Z</time>
      </trkpt>
      <trkpt lat="44.36575" lon="5.77391">
        <ele>674.41</ele>
        <time>2022-03-22T14:25:23Z</time>
      </trkpt>
      <trkpt lat="44.36575" lon="5.7739">
        <ele>674.51</ele>
        <time>2022-03-22T14:25:24Z</time>
      </trkpt>
      <trkpt lat="44.36575" lon="5.77388">
        <ele>674.61</ele>
        <time>2022-03-22T14:25:25Z</time>
      </trkpt>
      <trkpt lat="44.36574" lon="5.77387">
        <ele>674.71</ele>
        <time>2022-03-22T14:25:26Z</time>
      </trkpt>
      <trkpt lat="44.36574" lon="5.77386">
        <ele>674.71</ele>
        <time>2022-03-22T14:25:27Z</time>
      </trkpt>
      <trkpt lat="44.36574" lon="5.77384">
        <ele>674.81</ele>
        <time>2022-03-22T14:25:28Z</time>
      </trkpt>
      <trkpt lat="44.36574" lon="5.77383">
        <ele>674.81</ele>
        <time>2022-03-22T14:25:29Z</time>
      </trkpt>
      <trkpt lat="44.36575" lon="5.77381">
        <ele>674.71</ele>
        <time>2022-03-22T14:25:31Z</time>
      </trkpt>
      <trkpt lat="44.36576" lon="5.77379">
        <ele>674.31</ele>
        <time>2022-03-22T14:25:33Z</time>
      </trkpt>
      <trkpt lat="44.36577" lon="5.77378">
        <ele>674.31</ele>
        <time>2022-03-22T14:25:35Z</time>
      </trkpt>
      <trkpt lat="44.36577" lon="5.77379">
        <ele>674.41</ele>
        <time>2022-03-22T14:25:37Z</time>
      </trkpt>
      <trkpt lat="44.36578" lon="5.7738">
        <ele>674.91</ele>
        <time>2022-03-22T14:25:39Z</time>
      </trkpt>
      <trkpt lat="44.36578" lon="5.7738">
        <ele>675.11</ele>
        <time>2022-03-22T14:25:40Z</time>
      </trkpt>
      <trkpt lat="44.36578" lon="5.7738">
        <ele>675.71</ele>
        <time>2022-03-22T14:26:36Z</time>
      </trkpt>
      <trkpt lat="44.36574" lon="5.77381">
        <ele>678.71</ele>
        <time>2022-03-22T14:26:37Z</time>
      </trkpt>
      <trkpt lat="44.36575" lon="5.7738">
        <ele>678.81</ele>
        <time>2022-03-22T14:26:38Z</time>
      </trkpt>
      <trkpt lat="44.36576" lon="5.77379">
        <ele>679.31</ele>
        <time>2022-03-22T14:26:39Z</time>
      </trkpt>
      <trkpt lat="44.36576" lon="5.77378">
        <ele>679.81</ele>
        <time>2022-03-22T14:26:40Z</time>
      </trkpt>
    </trkseg>
  </trk>
</gpx>